<?xml version='1.0' encoding='UTF-8'?><gpx version="1.1" creator="JPX - https://github.com/jenetics/jpx" xmlns="http://www.topografix.com/GPX/1/1"><trk><trkseg><trkpt lat="44.5330081" lon="7.9473938"><ele>292.0</ele><time>2026-04-12T06:23:11.994Z</time></trkpt><trkpt lat="44.5330403" lon="7.947494"><ele>292.0</ele><time>2026-04-12T06:23:26.994Z</time></trkpt><trkpt lat="44.5330594" lon="7.9475896"><ele>292.0</ele><time>2026-04-12T06:23:29.994Z</time></trkpt><trkpt lat="44.5330327" lon="7.947706"><ele>292.0</ele><time>2026-04-12T06:23:32.994Z</time></trkpt><trkpt lat="44.5330194" lon="7.947837"><ele>292.0</ele><time>2026-04-12T06:23:35.995Z</time></trkpt><trkpt lat="44.5330121" lon="7.9479277"><ele>292.0</ele><time>2026-04-12T06:23:37.995Z</time></trkpt><trkpt lat="44.5330037" lon="7.9480215"><ele>292.3333333333333</ele><time>2026-04-12T06:23:39.994Z</time></trkpt><trkpt lat="44.5329938" lon="7.9481154"><ele>292.66666666666663</ele><time>2026-04-12T06:23:41.994Z</time></trkpt><trkpt lat="44.5329812" lon="7.9482061"><ele>293.0</ele><time>2026-04-12T06:23:43.994Z</time></trkpt><trkpt lat="44.5329728" lon="7.9482945"><ele>293.3333333333333</ele><time>2026-04-12T06:23:45.994Z</time></trkpt><trkpt lat="44.5329556" lon="7.9484203"><ele>293.6666666666667</ele><time>2026-04-12T06:23:48.994Z</time></trkpt><trkpt lat="44.5329406" lon="7.9485429"><ele>294.0</ele><time>2026-04-12T06:23:51.994Z</time></trkpt><trkpt lat="44.5329312" lon="7.9486692"><ele>294.0</ele><time>2026-04-12T06:23:54.994Z</time></trkpt><trkpt lat="44.5329262" lon="7.9487944"><ele>294.0</ele><time>2026-04-12T06:23:57.994Z</time></trkpt><trkpt lat="44.5329112" lon="7.9489184"><ele>294.0</ele><time>2026-04-12T06:24:00.994Z</time></trkpt><trkpt lat="44.5328967" lon="7.949048"><ele>294.0</ele><time>2026-04-12T06:24:03.994Z</time></trkpt><trkpt lat="44.5328858" lon="7.9491744"><ele>294.0</ele><time>2026-04-12T06:24:06.993Z</time></trkpt><trkpt lat="44.532873" lon="7.949298"><ele>294.14285714285717</ele><time>2026-04-12T06:24:09.995Z</time></trkpt><trkpt lat="44.5328501" lon="7.9494251"><ele>294.2857142857143</ele><time>2026-04-12T06:24:12.994Z</time></trkpt><trkpt lat="44.532837" lon="7.9495139"><ele>294.42857142857144</ele><time>2026-04-12T06:24:14.994Z</time></trkpt><trkpt lat="44.5328058" lon="7.9495956"><ele>294.57142857142856</ele><time>2026-04-12T06:24:16.993Z</time></trkpt><trkpt lat="44.5327285" lon="7.9496641"><ele>294.7142857142857</ele><time>2026-04-12T06:24:19.994Z</time></trkpt><trkpt lat="44.532662" lon="7.9496682"><ele>294.8571428571429</ele><time>2026-04-12T06:24:21.994Z</time></trkpt><trkpt lat="44.5325957" lon="7.9496621"><ele>295.0</ele><time>2026-04-12T06:24:23.995Z</time></trkpt><trkpt lat="44.5325255" lon="7.9496615"><ele>295.00000000000006</ele><time>2026-04-12T06:24:25.994Z</time></trkpt><trkpt lat="44.5324518" lon="7.9496508"><ele>295.0</ele><time>2026-04-12T06:24:27.995Z</time></trkpt><trkpt lat="44.532381" lon="7.9496563"><ele>295.0</ele><time>2026-04-12T06:24:29.994Z</time></trkpt><trkpt lat="44.5323153" lon="7.9496636"><ele>295.0</ele><time>2026-04-12T06:24:31.995Z</time></trkpt><trkpt lat="44.5322431" lon="7.9496783"><ele>295.0</ele><time>2026-04-12T06:24:33.994Z</time></trkpt><trkpt lat="44.53217" lon="7.9496878"><ele>295.00000000000006</ele><time>2026-04-12T06:24:35.994Z</time></trkpt><trkpt lat="44.5320944" lon="7.9496947"><ele>295.0</ele><time>2026-04-12T06:24:37.994Z</time></trkpt><trkpt lat="44.5320206" lon="7.9496944"><ele>294.2</ele><time>2026-04-12T06:24:39.993Z</time></trkpt><trkpt lat="44.531955" lon="7.9496764"><ele>293.4</ele><time>2026-04-12T06:24:41.995Z</time></trkpt><trkpt lat="44.5318816" lon="7.9496199"><ele>292.6</ele><time>2026-04-12T06:24:43.994Z</time></trkpt><trkpt lat="44.5317894" lon="7.9495524"><ele>291.8</ele><time>2026-04-12T06:24:45.994Z</time></trkpt><trkpt lat="44.5316876" lon="7.949492"><ele>291.0</ele><time>2026-04-12T06:24:47.994Z</time></trkpt><trkpt lat="44.531569" lon="7.9494508"><ele>291.0</ele><time>2026-04-12T06:24:49.993Z</time></trkpt><trkpt lat="44.5315069" lon="7.9494273"><ele>291.0</ele><time>2026-04-12T06:24:50.994Z</time></trkpt><trkpt lat="44.5313693" lon="7.9494112"><ele>291.0</ele><time>2026-04-12T06:24:52.994Z</time></trkpt><trkpt lat="44.5313045" lon="7.9494031"><ele>291.0</ele><time>2026-04-12T06:24:53.994Z</time></trkpt><trkpt lat="44.5312337" lon="7.949382"><ele>291.0</ele><time>2026-04-12T06:24:54.994Z</time></trkpt><trkpt lat="44.5311596" lon="7.9493657"><ele>291.0</ele><time>2026-04-12T06:24:55.994Z</time></trkpt><trkpt lat="44.531086" lon="7.9493665"><ele>290.6666666666667</ele><time>2026-04-12T06:24:56.995Z</time></trkpt><trkpt lat="44.5310165" lon="7.9493665"><ele>290.3333333333333</ele><time>2026-04-12T06:24:57.994Z</time></trkpt><trkpt lat="44.5309443" lon="7.9493831"><ele>290.0</ele><time>2026-04-12T06:24:58.994Z</time></trkpt><trkpt lat="44.5308793" lon="7.9493974"><ele>289.66666666666663</ele><time>2026-04-12T06:24:59.993Z</time></trkpt><trkpt lat="44.5307705" lon="7.9493117"><ele>289.3333333333333</ele><time>2026-04-12T06:25:01.994Z</time></trkpt><trkpt lat="44.5307534" lon="7.9492162"><ele>289.0</ele><time>2026-04-12T06:25:02.994Z</time></trkpt><trkpt lat="44.5307524" lon="7.9491235"><ele>289.0</ele><time>2026-04-12T06:25:03.993Z</time></trkpt><trkpt lat="44.5307605" lon="7.9490289"><ele>289.0</ele><time>2026-04-12T06:25:04.994Z</time></trkpt><trkpt lat="44.5307743" lon="7.9489314"><ele>289.0</ele><time>2026-04-12T06:25:05.994Z</time></trkpt><trkpt lat="44.5307852" lon="7.9488277"><ele>289.0</ele><time>2026-04-12T06:25:06.994Z</time></trkpt><trkpt lat="44.5307974" lon="7.9487147"><ele>289.0</ele><time>2026-04-12T06:25:07.995Z</time></trkpt><trkpt lat="44.5308082" lon="7.9486138"><ele>289.0</ele><time>2026-04-12T06:25:08.994Z</time></trkpt><trkpt lat="44.5308201" lon="7.9485136"><ele>289.0</ele><time>2026-04-12T06:25:09.994Z</time></trkpt><trkpt lat="44.5308345" lon="7.9484126"><ele>289.0</ele><time>2026-04-12T06:25:10.994Z</time></trkpt><trkpt lat="44.5308465" lon="7.9483226"><ele>289.0</ele><time>2026-04-12T06:25:11.994Z</time></trkpt><trkpt lat="44.5308589" lon="7.9482152"><ele>289.0</ele><time>2026-04-12T06:25:12.995Z</time></trkpt><trkpt lat="44.5308704" lon="7.9481193"><ele>289.0</ele><time>2026-04-12T06:25:13.993Z</time></trkpt><trkpt lat="44.5308806" lon="7.9480168"><ele>289.0</ele><time>2026-04-12T06:25:14.993Z</time></trkpt><trkpt lat="44.5308961" lon="7.9479193"><ele>289.0</ele><time>2026-04-12T06:25:15.995Z</time></trkpt><trkpt lat="44.5309045" lon="7.9478219"><ele>289.0</ele><time>2026-04-12T06:25:16.994Z</time></trkpt><trkpt lat="44.5309158" lon="7.9477239"><ele>289.0</ele><time>2026-04-12T06:25:17.994Z</time></trkpt><trkpt lat="44.530923" lon="7.9476204"><ele>289.0</ele><time>2026-04-12T06:25:18.995Z</time></trkpt><trkpt lat="44.530933" lon="7.9475236"><ele>289.0</ele><time>2026-04-12T06:25:19.995Z</time></trkpt><trkpt lat="44.5309418" lon="7.9473533"><ele>289.0</ele><time>2026-04-12T06:25:21.994Z</time></trkpt><trkpt lat="44.5309646" lon="7.9471866"><ele>289.0</ele><time>2026-04-12T06:25:23.994Z</time></trkpt><trkpt lat="44.5309803" lon="7.9470975"><ele>288.59999999999997</ele><time>2026-04-12T06:25:24.995Z</time></trkpt><trkpt lat="44.5309946" lon="7.9469222"><ele>288.2</ele><time>2026-04-12T06:25:26.994Z</time></trkpt><trkpt lat="44.5310024" lon="7.9468287"><ele>287.79999999999995</ele><time>2026-04-12T06:25:27.994Z</time></trkpt><trkpt lat="44.5310226" lon="7.9466503"><ele>287.4</ele><time>2026-04-12T06:25:29.993Z</time></trkpt><trkpt lat="44.5310298" lon="7.9465587"><ele>287.0</ele><time>2026-04-12T06:25:30.995Z</time></trkpt><trkpt lat="44.5310388" lon="7.9464677"><ele>287.0</ele><time>2026-04-12T06:25:31.994Z</time></trkpt><trkpt lat="44.5310494" lon="7.946374"><ele>287.0</ele><time>2026-04-12T06:25:32.995Z</time></trkpt><trkpt lat="44.5310546" lon="7.9462806"><ele>287.0</ele><time>2026-04-12T06:25:33.994Z</time></trkpt><trkpt lat="44.5310644" lon="7.9461891"><ele>287.0</ele><time>2026-04-12T06:25:34.994Z</time></trkpt><trkpt lat="44.5310655" lon="7.9460986"><ele>287.0</ele><time>2026-04-12T06:25:35.994Z</time></trkpt><trkpt lat="44.531077" lon="7.9460042"><ele>287.0</ele><time>2026-04-12T06:25:36.995Z</time></trkpt><trkpt lat="44.5310955" lon="7.9458306"><ele>286.83333333333337</ele><time>2026-04-12T06:25:38.994Z</time></trkpt><trkpt lat="44.5311142" lon="7.9457457"><ele>286.6666666666667</ele><time>2026-04-12T06:25:39.995Z</time></trkpt><trkpt lat="44.531138" lon="7.945592"><ele>286.5</ele><time>2026-04-12T06:25:41.994Z</time></trkpt><trkpt lat="44.5311514" lon="7.9454723"><ele>286.3333333333333</ele><time>2026-04-12T06:25:43.993Z</time></trkpt><trkpt lat="44.5311601" lon="7.9453721"><ele>286.16666666666663</ele><time>2026-04-12T06:25:46.994Z</time></trkpt><trkpt lat="44.5311445" lon="7.9452532"><ele>286.0</ele><time>2026-04-12T06:25:49.995Z</time></trkpt><trkpt lat="44.531158" lon="7.9451192"><ele>285.57142857142856</ele><time>2026-04-12T06:25:51.994Z</time></trkpt><trkpt lat="44.5311738" lon="7.9449619"><ele>285.1428571428571</ele><time>2026-04-12T06:25:53.994Z</time></trkpt><trkpt lat="44.5311839" lon="7.9448745"><ele>284.7142857142857</ele><time>2026-04-12T06:25:54.995Z</time></trkpt><trkpt lat="44.5311882" lon="7.9447799"><ele>284.2857142857143</ele><time>2026-04-12T06:25:55.997Z</time></trkpt><trkpt lat="44.5311914" lon="7.9446822"><ele>283.8571428571429</ele><time>2026-04-12T06:25:56.994Z</time></trkpt><trkpt lat="44.5311979" lon="7.9445865"><ele>283.42857142857144</ele><time>2026-04-12T06:25:57.997Z</time></trkpt><trkpt lat="44.5312024" lon="7.9444938"><ele>283.0</ele><time>2026-04-12T06:25:58.995Z</time></trkpt><trkpt lat="44.531214" lon="7.9444045"><ele>282.8</ele><time>2026-04-12T06:25:59.995Z</time></trkpt><trkpt lat="44.5312256" lon="7.9443105"><ele>282.6</ele><time>2026-04-12T06:26:00.997Z</time></trkpt><trkpt lat="44.5312416" lon="7.944134"><ele>282.4</ele><time>2026-04-12T06:26:02.993Z</time></trkpt><trkpt lat="44.53125" lon="7.9440383"><ele>282.2</ele><time>2026-04-12T06:26:03.995Z</time></trkpt><trkpt lat="44.5312548" lon="7.9439496"><ele>282.0</ele><time>2026-04-12T06:26:04.998Z</time></trkpt><trkpt lat="44.5312565" lon="7.9437729"><ele>282.0</ele><time>2026-04-12T06:26:06.995Z</time></trkpt><trkpt lat="44.5312286" lon="7.9436173"><ele>282.0</ele><time>2026-04-12T06:26:08.994Z</time></trkpt><trkpt lat="44.5312106" lon="7.9435092"><ele>282.0</ele><time>2026-04-12T06:26:10.994Z</time></trkpt><trkpt lat="44.5311542" lon="7.9434672"><ele>282.0</ele><time>2026-04-12T06:26:18.994Z</time></trkpt><trkpt lat="44.5311355" lon="7.9433743"><ele>282.0</ele><time>2026-04-12T06:26:21.994Z</time></trkpt><trkpt lat="44.5310568" lon="7.9433557"><ele>282.0</ele><time>2026-04-12T06:26:24.993Z</time></trkpt><trkpt lat="44.5309906" lon="7.9433387"><ele>282.1666666666667</ele><time>2026-04-12T06:26:27.994Z</time></trkpt><trkpt lat="44.5309915" lon="7.9432451"><ele>282.3333333333333</ele><time>2026-04-12T06:26:31.994Z</time></trkpt><trkpt lat="44.5310866" lon="7.9432639"><ele>282.5</ele><time>2026-04-12T06:26:34.994Z</time></trkpt><trkpt lat="44.5311437" lon="7.9433367"><ele>282.66666666666663</ele><time>2026-04-12T06:26:36.995Z</time></trkpt><trkpt lat="44.531161" lon="7.9434445"><ele>282.8333333333333</ele><time>2026-04-12T06:26:38.994Z</time></trkpt><trkpt lat="44.5311779" lon="7.9435337"><ele>283.0</ele><time>2026-04-12T06:26:40.994Z</time></trkpt><trkpt lat="44.5312105" lon="7.9436163"><ele>283.0</ele><time>2026-04-12T06:26:42.994Z</time></trkpt><trkpt lat="44.5312403" lon="7.9437071"><ele>283.0</ele><time>2026-04-12T06:26:44.993Z</time></trkpt><trkpt lat="44.5312293" lon="7.943808"><ele>283.0</ele><time>2026-04-12T06:26:46.994Z</time></trkpt><trkpt lat="44.5312128" lon="7.9439184"><ele>283.0</ele><time>2026-04-12T06:26:48.994Z</time></trkpt><trkpt lat="44.5312014" lon="7.9440311"><ele>283.0</ele><time>2026-04-12T06:26:50.994Z</time></trkpt><trkpt lat="44.5311917" lon="7.9441458"><ele>283.0</ele><time>2026-04-12T06:26:52.993Z</time></trkpt><trkpt lat="44.5311851" lon="7.9442594"><ele>283.0</ele><time>2026-04-12T06:26:54.995Z</time></trkpt><trkpt lat="44.5311797" lon="7.9443752"><ele>283.0</ele><time>2026-04-12T06:26:56.994Z</time></trkpt><trkpt lat="44.531171" lon="7.9444923"><ele>283.0</ele><time>2026-04-12T06:26:58.994Z</time></trkpt><trkpt lat="44.5311639" lon="7.944619"><ele>283.0</ele><time>2026-04-12T06:27:00.993Z</time></trkpt><trkpt lat="44.53116" lon="7.9447366"><ele>283.0</ele><time>2026-04-12T06:27:02.994Z</time></trkpt><trkpt lat="44.531145" lon="7.9448398"><ele>283.0</ele><time>2026-04-12T06:27:04.994Z</time></trkpt><trkpt lat="44.5311426" lon="7.9449397"><ele>283.0</ele><time>2026-04-12T06:27:06.995Z</time></trkpt><trkpt lat="44.5311349" lon="7.9450298"><ele>283.0</ele><time>2026-04-12T06:27:08.994Z</time></trkpt><trkpt lat="44.5311283" lon="7.9451537"><ele>283.0</ele><time>2026-04-12T06:27:11.994Z</time></trkpt><trkpt lat="44.531118" lon="7.9452418"><ele>283.0</ele><time>2026-04-12T06:27:13.993Z</time></trkpt><trkpt lat="44.5311276" lon="7.9453558"><ele>283.0</ele><time>2026-04-12T06:27:16.995Z</time></trkpt><trkpt lat="44.5311829" lon="7.9454184"><ele>283.0</ele><time>2026-04-12T06:27:18.994Z</time></trkpt><trkpt lat="44.5312588" lon="7.945438"><ele>283.0</ele><time>2026-04-12T06:27:20.995Z</time></trkpt><trkpt lat="44.5313314" lon="7.9454554"><ele>283.16666666666663</ele><time>2026-04-12T06:27:22.995Z</time></trkpt><trkpt lat="44.5314025" lon="7.9454681"><ele>283.3333333333333</ele><time>2026-04-12T06:27:24.994Z</time></trkpt><trkpt lat="44.5314802" lon="7.9454595"><ele>283.5</ele><time>2026-04-12T06:27:26.994Z</time></trkpt><trkpt lat="44.5315653" lon="7.9454433"><ele>283.6666666666667</ele><time>2026-04-12T06:27:28.994Z</time></trkpt><trkpt lat="44.5316181" lon="7.9453439"><ele>283.83333333333337</ele><time>2026-04-12T06:27:30.994Z</time></trkpt><trkpt lat="44.5316315" lon="7.9451808"><ele>284.0</ele><time>2026-04-12T06:27:32.994Z</time></trkpt><trkpt lat="44.5316362" lon="7.9450916"><ele>283.7142857142857</ele><time>2026-04-12T06:27:33.994Z</time></trkpt><trkpt lat="44.5316417" lon="7.9449962"><ele>283.4285714285714</ele><time>2026-04-12T06:27:34.995Z</time></trkpt><trkpt lat="44.5316501" lon="7.9448953"><ele>283.1428571428571</ele><time>2026-04-12T06:27:35.994Z</time></trkpt><trkpt lat="44.5316569" lon="7.944794"><ele>282.85714285714283</ele><time>2026-04-12T06:27:36.994Z</time></trkpt><trkpt lat="44.5316625" lon="7.9446914"><ele>282.57142857142856</ele><time>2026-04-12T06:27:37.994Z</time></trkpt><trkpt lat="44.5316709" lon="7.944588"><ele>282.2857142857143</ele><time>2026-04-12T06:27:38.995Z</time></trkpt><trkpt lat="44.5316766" lon="7.9444851"><ele>282.0</ele><time>2026-04-12T06:27:39.995Z</time></trkpt><trkpt lat="44.5316822" lon="7.9443813"><ele>282.0</ele><time>2026-04-12T06:27:40.994Z</time></trkpt><trkpt lat="44.5316881" lon="7.9442785"><ele>282.0</ele><time>2026-04-12T06:27:41.994Z</time></trkpt><trkpt lat="44.5316941" lon="7.9441765"><ele>282.0</ele><time>2026-04-12T06:27:42.994Z</time></trkpt><trkpt lat="44.5317003" lon="7.944077"><ele>282.0</ele><time>2026-04-12T06:27:43.994Z</time></trkpt><trkpt lat="44.5317091" lon="7.9439733"><ele>282.0</ele><time>2026-04-12T06:27:44.995Z</time></trkpt><trkpt lat="44.5317159" lon="7.9438753"><ele>282.0</ele><time>2026-04-12T06:27:45.995Z</time></trkpt><trkpt lat="44.531722" lon="7.9437788"><ele>282.0</ele><time>2026-04-12T06:27:46.994Z</time></trkpt><trkpt lat="44.5317307" lon="7.9436818"><ele>282.0</ele><time>2026-04-12T06:27:47.994Z</time></trkpt><trkpt lat="44.5317348" lon="7.9435845"><ele>282.0</ele><time>2026-04-12T06:27:48.994Z</time></trkpt><trkpt lat="44.5317416" lon="7.9434882"><ele>282.0</ele><time>2026-04-12T06:27:49.994Z</time></trkpt><trkpt lat="44.5317491" lon="7.9433909"><ele>282.0</ele><time>2026-04-12T06:27:50.994Z</time></trkpt><trkpt lat="44.5317581" lon="7.9432945"><ele>282.0</ele><time>2026-04-12T06:27:51.994Z</time></trkpt><trkpt lat="44.5317643" lon="7.9431981"><ele>282.0</ele><time>2026-04-12T06:27:52.994Z</time></trkpt><trkpt lat="44.5317708" lon="7.9430989"><ele>282.0</ele><time>2026-04-12T06:27:53.995Z</time></trkpt><trkpt lat="44.531778" lon="7.9430013"><ele>282.0</ele><time>2026-04-12T06:27:54.994Z</time></trkpt><trkpt lat="44.5317837" lon="7.9429038"><ele>282.0</ele><time>2026-04-12T06:27:55.994Z</time></trkpt><trkpt lat="44.531793" lon="7.9428055"><ele>282.0</ele><time>2026-04-12T06:27:56.993Z</time></trkpt><trkpt lat="44.5317989" lon="7.9427111"><ele>282.0</ele><time>2026-04-12T06:27:57.994Z</time></trkpt><trkpt lat="44.5318059" lon="7.9426069"><ele>282.0</ele><time>2026-04-12T06:27:58.994Z</time></trkpt><trkpt lat="44.5318116" lon="7.9425088"><ele>282.0</ele><time>2026-04-12T06:27:59.994Z</time></trkpt><trkpt lat="44.5318179" lon="7.9424106"><ele>282.0</ele><time>2026-04-12T06:28:00.993Z</time></trkpt><trkpt lat="44.5318245" lon="7.9423103"><ele>281.7142857142857</ele><time>2026-04-12T06:28:01.993Z</time></trkpt><trkpt lat="44.5318309" lon="7.9422074"><ele>281.42857142857144</ele><time>2026-04-12T06:28:02.994Z</time></trkpt><trkpt lat="44.5318379" lon="7.9421099"><ele>281.1428571428571</ele><time>2026-04-12T06:28:03.994Z</time></trkpt><trkpt lat="44.5318466" lon="7.9420114"><ele>280.8571428571429</ele><time>2026-04-12T06:28:04.994Z</time></trkpt><trkpt lat="44.5318555" lon="7.9419147"><ele>280.57142857142856</ele><time>2026-04-12T06:28:05.993Z</time></trkpt><trkpt lat="44.5318574" lon="7.9418165"><ele>280.2857142857143</ele><time>2026-04-12T06:28:06.995Z</time></trkpt><trkpt lat="44.5318596" lon="7.9417274"><ele>280.0</ele><time>2026-04-12T06:28:07.994Z</time></trkpt><trkpt lat="44.5318681" lon="7.9416345"><ele>279.8333333333333</ele><time>2026-04-12T06:28:08.994Z</time></trkpt><trkpt lat="44.531881" lon="7.9415362"><ele>279.66666666666663</ele><time>2026-04-12T06:28:09.995Z</time></trkpt><trkpt lat="44.5318839" lon="7.9414444"><ele>279.5</ele><time>2026-04-12T06:28:10.994Z</time></trkpt><trkpt lat="44.5318866" lon="7.941356"><ele>279.3333333333333</ele><time>2026-04-12T06:28:11.993Z</time></trkpt><trkpt lat="44.5318976" lon="7.941261"><ele>279.1666666666667</ele><time>2026-04-12T06:28:12.995Z</time></trkpt><trkpt lat="44.5319075" lon="7.9410854"><ele>279.0</ele><time>2026-04-12T06:28:14.994Z</time></trkpt><trkpt lat="44.5319154" lon="7.9409926"><ele>279.0</ele><time>2026-04-12T06:28:15.995Z</time></trkpt><trkpt lat="44.5319213" lon="7.9409012"><ele>279.0</ele><time>2026-04-12T06:28:16.994Z</time></trkpt><trkpt lat="44.5319411" lon="7.940723"><ele>279.0</ele><time>2026-04-12T06:28:18.995Z</time></trkpt><trkpt lat="44.531954" lon="7.9406287"><ele>279.0</ele><time>2026-04-12T06:28:19.994Z</time></trkpt><trkpt lat="44.5319651" lon="7.9404561"><ele>279.0</ele><time>2026-04-12T06:28:21.993Z</time></trkpt><trkpt lat="44.531989" lon="7.9402892"><ele>278.59999999999997</ele><time>2026-04-12T06:28:23.993Z</time></trkpt><trkpt lat="44.5319907" lon="7.9401991"><ele>278.2</ele><time>2026-04-12T06:28:24.993Z</time></trkpt><trkpt lat="44.5319739" lon="7.9400337"><ele>277.79999999999995</ele><time>2026-04-12T06:28:26.994Z</time></trkpt><trkpt lat="44.5318976" lon="7.9399314"><ele>277.4</ele><time>2026-04-12T06:28:28.993Z</time></trkpt><trkpt lat="44.5317901" lon="7.9399105"><ele>277.0</ele><time>2026-04-12T06:28:30.995Z</time></trkpt><trkpt lat="44.5317015" lon="7.9399183"><ele>276.6</ele><time>2026-04-12T06:28:32.993Z</time></trkpt><trkpt lat="44.5316076" lon="7.9399278"><ele>276.2</ele><time>2026-04-12T06:28:34.994Z</time></trkpt><trkpt lat="44.5315275" lon="7.9398633"><ele>275.8</ele><time>2026-04-12T06:28:36.993Z</time></trkpt><trkpt lat="44.5315184" lon="7.93974"><ele>275.4</ele><time>2026-04-12T06:28:38.994Z</time></trkpt><trkpt lat="44.5315437" lon="7.9395851"><ele>275.0</ele><time>2026-04-12T06:28:40.995Z</time></trkpt><trkpt lat="44.5315703" lon="7.9394168"><ele>275.0</ele><time>2026-04-12T06:28:42.994Z</time></trkpt><trkpt lat="44.5315936" lon="7.9392479"><ele>275.0</ele><time>2026-04-12T06:28:44.994Z</time></trkpt><trkpt lat="44.5316065" lon="7.9390718"><ele>275.0</ele><time>2026-04-12T06:28:46.995Z</time></trkpt><trkpt lat="44.5316111" lon="7.938982"><ele>275.0</ele><time>2026-04-12T06:28:47.994Z</time></trkpt><trkpt lat="44.5316215" lon="7.9388865"><ele>275.0</ele><time>2026-04-12T06:28:48.994Z</time></trkpt><trkpt lat="44.5316284" lon="7.9387979"><ele>275.0</ele><time>2026-04-12T06:28:49.995Z</time></trkpt><trkpt lat="44.5316382" lon="7.9386204"><ele>275.0</ele><time>2026-04-12T06:28:51.994Z</time></trkpt><trkpt lat="44.5316507" lon="7.9385274"><ele>275.0</ele><time>2026-04-12T06:28:52.995Z</time></trkpt><trkpt lat="44.5316557" lon="7.9384381"><ele>275.0</ele><time>2026-04-12T06:28:53.994Z</time></trkpt><trkpt lat="44.5316705" lon="7.9382613"><ele>275.0</ele><time>2026-04-12T06:28:55.994Z</time></trkpt><trkpt lat="44.531679" lon="7.9381708"><ele>275.0</ele><time>2026-04-12T06:28:56.995Z</time></trkpt><trkpt lat="44.5316877" lon="7.9380791"><ele>275.0</ele><time>2026-04-12T06:28:57.994Z</time></trkpt><trkpt lat="44.5317033" lon="7.9379853"><ele>274.8571428571429</ele><time>2026-04-12T06:28:58.994Z</time></trkpt><trkpt lat="44.5317138" lon="7.9378963"><ele>274.7142857142857</ele><time>2026-04-12T06:28:59.995Z</time></trkpt><trkpt lat="44.5317208" lon="7.9377999"><ele>274.57142857142856</ele><time>2026-04-12T06:29:00.994Z</time></trkpt><trkpt lat="44.5317274" lon="7.9377051"><ele>274.42857142857144</ele><time>2026-04-12T06:29:01.993Z</time></trkpt><trkpt lat="44.5317325" lon="7.9376096"><ele>274.2857142857143</ele><time>2026-04-12T06:29:02.994Z</time></trkpt><trkpt lat="44.5317375" lon="7.9375103"><ele>274.14285714285717</ele><time>2026-04-12T06:29:03.994Z</time></trkpt><trkpt lat="44.531743" lon="7.9374198"><ele>274.0</ele><time>2026-04-12T06:29:04.995Z</time></trkpt><trkpt lat="44.5317448" lon="7.9373238"><ele>274.0</ele><time>2026-04-12T06:29:05.993Z</time></trkpt><trkpt lat="44.5317531" lon="7.9372265"><ele>274.0</ele><time>2026-04-12T06:29:06.994Z</time></trkpt><trkpt lat="44.5317589" lon="7.9371304"><ele>274.0</ele><time>2026-04-12T06:29:07.993Z</time></trkpt><trkpt lat="44.5317729" lon="7.9369473"><ele>274.0</ele><time>2026-04-12T06:29:09.995Z</time></trkpt><trkpt lat="44.5317763" lon="7.9368487"><ele>274.0</ele><time>2026-04-12T06:29:10.994Z</time></trkpt><trkpt lat="44.53179" lon="7.9367504"><ele>274.0</ele><time>2026-04-12T06:29:11.995Z</time></trkpt><trkpt lat="44.531798" lon="7.9366614"><ele>273.66666666666663</ele><time>2026-04-12T06:29:12.994Z</time></trkpt><trkpt lat="44.5318011" lon="7.9365661"><ele>273.3333333333333</ele><time>2026-04-12T06:29:13.994Z</time></trkpt><trkpt lat="44.5318213" lon="7.9363892"><ele>273.0</ele><time>2026-04-12T06:29:15.994Z</time></trkpt><trkpt lat="44.5318349" lon="7.9362973"><ele>272.6666666666667</ele><time>2026-04-12T06:29:16.994Z</time></trkpt><trkpt lat="44.5318465" lon="7.9362102"><ele>272.33333333333337</ele><time>2026-04-12T06:29:17.994Z</time></trkpt><trkpt lat="44.5318616" lon="7.936122"><ele>272.0</ele><time>2026-04-12T06:29:18.995Z</time></trkpt><trkpt lat="44.531909" lon="7.9359613"><ele>272.0</ele><time>2026-04-12T06:29:20.994Z</time></trkpt><trkpt lat="44.5319555" lon="7.9358994"><ele>272.0</ele><time>2026-04-12T06:29:21.993Z</time></trkpt><trkpt lat="44.5320708" lon="7.9358285"><ele>272.0</ele><time>2026-04-12T06:29:23.994Z</time></trkpt><trkpt lat="44.5321308" lon="7.9357976"><ele>272.0</ele><time>2026-04-12T06:29:24.994Z</time></trkpt><trkpt lat="44.5322451" lon="7.9357396"><ele>272.0</ele><time>2026-04-12T06:29:26.995Z</time></trkpt><trkpt lat="44.5323049" lon="7.9357071"><ele>272.0</ele><time>2026-04-12T06:29:27.994Z</time></trkpt><trkpt lat="44.5323659" lon="7.9356752"><ele>271.99999999999994</ele><time>2026-04-12T06:29:28.993Z</time></trkpt><trkpt lat="44.5324344" lon="7.9356426"><ele>272.0</ele><time>2026-04-12T06:29:29.995Z</time></trkpt><trkpt lat="44.5324964" lon="7.9356109"><ele>272.0</ele><time>2026-04-12T06:29:30.994Z</time></trkpt><trkpt lat="44.5325579" lon="7.9355803"><ele>272.0</ele><time>2026-04-12T06:29:31.994Z</time></trkpt><trkpt lat="44.53262" lon="7.9355438"><ele>272.0</ele><time>2026-04-12T06:29:32.994Z</time></trkpt><trkpt lat="44.532683" lon="7.9355091"><ele>271.99999999999994</ele><time>2026-04-12T06:29:33.993Z</time></trkpt><trkpt lat="44.5327474" lon="7.9354785"><ele>272.0</ele><time>2026-04-12T06:29:34.993Z</time></trkpt><trkpt lat="44.5328144" lon="7.9354487"><ele>271.99999999999994</ele><time>2026-04-12T06:29:35.994Z</time></trkpt><trkpt lat="44.5328764" lon="7.9354115"><ele>272.0</ele><time>2026-04-12T06:29:36.994Z</time></trkpt><trkpt lat="44.5329351" lon="7.9353764"><ele>272.0</ele><time>2026-04-12T06:29:37.993Z</time></trkpt><trkpt lat="44.532998" lon="7.9353415"><ele>272.0</ele><time>2026-04-12T06:29:38.993Z</time></trkpt><trkpt lat="44.5330598" lon="7.9353056"><ele>272.0</ele><time>2026-04-12T06:29:39.994Z</time></trkpt><trkpt lat="44.5331239" lon="7.9352741"><ele>271.99999999999994</ele><time>2026-04-12T06:29:40.995Z</time></trkpt><trkpt lat="44.5331869" lon="7.9352391"><ele>272.0</ele><time>2026-04-12T06:29:41.994Z</time></trkpt><trkpt lat="44.5332516" lon="7.9352048"><ele>272.1428571428571</ele><time>2026-04-12T06:29:42.993Z</time></trkpt><trkpt lat="44.5333122" lon="7.9351696"><ele>272.2857142857143</ele><time>2026-04-12T06:29:43.993Z</time></trkpt><trkpt lat="44.5333763" lon="7.9351393"><ele>272.42857142857144</ele><time>2026-04-12T06:29:44.995Z</time></trkpt><trkpt lat="44.5334432" lon="7.9351073"><ele>272.57142857142856</ele><time>2026-04-12T06:29:45.995Z</time></trkpt><trkpt lat="44.5335095" lon="7.9350747"><ele>272.7142857142857</ele><time>2026-04-12T06:29:46.993Z</time></trkpt><trkpt lat="44.5335753" lon="7.9350383"><ele>272.85714285714283</ele><time>2026-04-12T06:29:47.993Z</time></trkpt><trkpt lat="44.5336383" lon="7.9350044"><ele>273.0</ele><time>2026-04-12T06:29:48.993Z</time></trkpt><trkpt lat="44.5337023" lon="7.9349703"><ele>272.42857142857144</ele><time>2026-04-12T06:29:49.994Z</time></trkpt><trkpt lat="44.5337671" lon="7.9349389"><ele>271.8571428571429</ele><time>2026-04-12T06:29:50.994Z</time></trkpt><trkpt lat="44.5338354" lon="7.9349051"><ele>271.2857142857143</ele><time>2026-04-12T06:29:51.993Z</time></trkpt><trkpt lat="44.5338999" lon="7.9348723"><ele>270.7142857142857</ele><time>2026-04-12T06:29:52.993Z</time></trkpt><trkpt lat="44.5339615" lon="7.9348353"><ele>270.14285714285717</ele><time>2026-04-12T06:29:53.994Z</time></trkpt><trkpt lat="44.5340222" lon="7.9347971"><ele>269.57142857142856</ele><time>2026-04-12T06:29:54.994Z</time></trkpt><trkpt lat="44.5340823" lon="7.9347624"><ele>269.0</ele><time>2026-04-12T06:29:55.994Z</time></trkpt><trkpt lat="44.5341459" lon="7.9347303"><ele>269.0</ele><time>2026-04-12T06:29:56.994Z</time></trkpt><trkpt lat="44.5342057" lon="7.9346973"><ele>269.0</ele><time>2026-04-12T06:29:57.994Z</time></trkpt><trkpt lat="44.534263" lon="7.9346585"><ele>269.0</ele><time>2026-04-12T06:29:58.995Z</time></trkpt><trkpt lat="44.5343784" lon="7.9345854"><ele>269.0</ele><time>2026-04-12T06:30:00.995Z</time></trkpt><trkpt lat="44.534488" lon="7.9345074"><ele>269.0</ele><time>2026-04-12T06:30:02.994Z</time></trkpt><trkpt lat="44.5345914" lon="7.9344418"><ele>269.0</ele><time>2026-04-12T06:30:04.994Z</time></trkpt><trkpt lat="44.5346939" lon="7.9343756"><ele>269.0</ele><time>2026-04-12T06:30:06.995Z</time></trkpt><trkpt lat="44.5347866" lon="7.934302"><ele>269.0</ele><time>2026-04-12T06:30:08.994Z</time></trkpt><trkpt lat="44.5348497" lon="7.9342317"><ele>269.0</ele><time>2026-04-12T06:30:10.994Z</time></trkpt><trkpt lat="44.5349192" lon="7.9341325"><ele>269.0</ele><time>2026-04-12T06:30:12.994Z</time></trkpt><trkpt lat="44.5349742" lon="7.9340832"><ele>269.0</ele><time>2026-04-12T06:30:13.995Z</time></trkpt><trkpt lat="44.5350782" lon="7.9339761"><ele>269.0</ele><time>2026-04-12T06:30:15.994Z</time></trkpt><trkpt lat="44.535139" lon="7.9339196"><ele>269.0</ele><time>2026-04-12T06:30:16.993Z</time></trkpt><trkpt lat="44.5351966" lon="7.9338611"><ele>269.0</ele><time>2026-04-12T06:30:17.995Z</time></trkpt><trkpt lat="44.5352518" lon="7.9338141"><ele>269.0</ele><time>2026-04-12T06:30:18.994Z</time></trkpt><trkpt lat="44.5353139" lon="7.9337677"><ele>269.0</ele><time>2026-04-12T06:30:19.994Z</time></trkpt><trkpt lat="44.5353708" lon="7.9337134"><ele>268.6666666666667</ele><time>2026-04-12T06:30:20.994Z</time></trkpt><trkpt lat="44.5354217" lon="7.9336568"><ele>268.33333333333337</ele><time>2026-04-12T06:30:21.994Z</time></trkpt><trkpt lat="44.5355235" lon="7.9335715"><ele>268.0</ele><time>2026-04-12T06:30:23.994Z</time></trkpt><trkpt lat="44.5355849" lon="7.9335296"><ele>267.6666666666667</ele><time>2026-04-12T06:30:24.995Z</time></trkpt><trkpt lat="44.5356924" lon="7.9334298"><ele>267.3333333333333</ele><time>2026-04-12T06:30:26.994Z</time></trkpt><trkpt lat="44.5357424" lon="7.9333756"><ele>267.0</ele><time>2026-04-12T06:30:27.994Z</time></trkpt><trkpt lat="44.5358374" lon="7.9332721"><ele>267.0</ele><time>2026-04-12T06:30:29.995Z</time></trkpt><trkpt lat="44.5359346" lon="7.9331736"><ele>267.0</ele><time>2026-04-12T06:30:31.993Z</time></trkpt><trkpt lat="44.5360186" lon="7.9330939"><ele>267.0</ele><time>2026-04-12T06:30:33.995Z</time></trkpt><trkpt lat="44.536106" lon="7.9330076"><ele>267.0</ele><time>2026-04-12T06:30:35.994Z</time></trkpt><trkpt lat="44.5361942" lon="7.9329341"><ele>267.0</ele><time>2026-04-12T06:30:37.994Z</time></trkpt><trkpt lat="44.5362778" lon="7.9328618"><ele>267.3333333333333</ele><time>2026-04-12T06:30:39.995Z</time></trkpt><trkpt lat="44.5363379" lon="7.9328098"><ele>267.6666666666667</ele><time>2026-04-12T06:30:41.993Z</time></trkpt><trkpt lat="44.5364054" lon="7.9327396"><ele>268.0</ele><time>2026-04-12T06:30:44.993Z</time></trkpt><trkpt lat="44.5364885" lon="7.9326722"><ele>268.33333333333337</ele><time>2026-04-12T06:30:47.994Z</time></trkpt><trkpt lat="44.5365461" lon="7.9326327"><ele>268.6666666666667</ele><time>2026-04-12T06:30:49.993Z</time></trkpt><trkpt lat="44.5366165" lon="7.9326065"><ele>269.0</ele><time>2026-04-12T06:30:51.996Z</time></trkpt><trkpt lat="44.5366961" lon="7.932563"><ele>268.59999999999997</ele><time>2026-04-12T06:30:53.997Z</time></trkpt><trkpt lat="44.5367668" lon="7.932496"><ele>268.2</ele><time>2026-04-12T06:30:55.995Z</time></trkpt><trkpt lat="44.5368359" lon="7.9324214"><ele>267.79999999999995</ele><time>2026-04-12T06:30:57.994Z</time></trkpt><trkpt lat="44.5369086" lon="7.9323481"><ele>267.4</ele><time>2026-04-12T06:30:59.994Z</time></trkpt><trkpt lat="44.5369873" lon="7.9322805"><ele>267.0</ele><time>2026-04-12T06:31:01.994Z</time></trkpt><trkpt lat="44.5370674" lon="7.9322025"><ele>266.6</ele><time>2026-04-12T06:31:03.993Z</time></trkpt><trkpt lat="44.5371683" lon="7.9321051"><ele>266.2</ele><time>2026-04-12T06:31:05.994Z</time></trkpt><trkpt lat="44.5372506" lon="7.9320206"><ele>265.8</ele><time>2026-04-12T06:31:07.994Z</time></trkpt><trkpt lat="44.5373369" lon="7.9319471"><ele>265.4</ele><time>2026-04-12T06:31:09.994Z</time></trkpt><trkpt lat="44.5374291" lon="7.931865"><ele>265.0</ele><time>2026-04-12T06:31:11.995Z</time></trkpt><trkpt lat="44.5375203" lon="7.9317537"><ele>264.5</ele><time>2026-04-12T06:31:13.994Z</time></trkpt><trkpt lat="44.5375711" lon="7.9316934"><ele>264.0</ele><time>2026-04-12T06:31:14.994Z</time></trkpt><trkpt lat="44.537665" lon="7.9315752"><ele>263.5</ele><time>2026-04-12T06:31:16.994Z</time></trkpt><trkpt lat="44.5377191" lon="7.931514"><ele>263.0</ele><time>2026-04-12T06:31:17.994Z</time></trkpt><trkpt lat="44.5377658" lon="7.9314542"><ele>262.5</ele><time>2026-04-12T06:31:18.993Z</time></trkpt><trkpt lat="44.5378139" lon="7.9313955"><ele>262.0</ele><time>2026-04-12T06:31:19.994Z</time></trkpt><trkpt lat="44.5378696" lon="7.9313396"><ele>262.3333333333333</ele><time>2026-04-12T06:31:20.995Z</time></trkpt><trkpt lat="44.5379183" lon="7.9312776"><ele>262.66666666666663</ele><time>2026-04-12T06:31:21.994Z</time></trkpt><trkpt lat="44.5379697" lon="7.9312153"><ele>263.0</ele><time>2026-04-12T06:31:22.993Z</time></trkpt><trkpt lat="44.538051" lon="7.9310862"><ele>263.3333333333333</ele><time>2026-04-12T06:31:24.993Z</time></trkpt><trkpt lat="44.5380921" lon="7.9310111"><ele>263.6666666666667</ele><time>2026-04-12T06:31:25.994Z</time></trkpt><trkpt lat="44.5381646" lon="7.9308829"><ele>264.0</ele><time>2026-04-12T06:31:27.995Z</time></trkpt><trkpt lat="44.5382146" lon="7.930828"><ele>264.0</ele><time>2026-04-12T06:31:28.994Z</time></trkpt><trkpt lat="44.5382767" lon="7.9306887"><ele>264.0</ele><time>2026-04-12T06:31:30.994Z</time></trkpt><trkpt lat="44.5383482" lon="7.9305791"><ele>264.0</ele><time>2026-04-12T06:31:32.994Z</time></trkpt><trkpt lat="44.5383953" lon="7.9305199"><ele>264.0</ele><time>2026-04-12T06:31:34.993Z</time></trkpt><trkpt lat="44.5384491" lon="7.9304491"><ele>264.0</ele><time>2026-04-12T06:31:36.994Z</time></trkpt><trkpt lat="44.5384918" lon="7.930356"><ele>264.0</ele><time>2026-04-12T06:31:38.995Z</time></trkpt><trkpt lat="44.5385279" lon="7.9302439"><ele>264.0</ele><time>2026-04-12T06:31:40.995Z</time></trkpt><trkpt lat="44.5385667" lon="7.9301418"><ele>264.0</ele><time>2026-04-12T06:31:42.993Z</time></trkpt><trkpt lat="44.5386567" lon="7.930089"><ele>264.0</ele><time>2026-04-12T06:31:44.993Z</time></trkpt><trkpt lat="44.538744" lon="7.9301101"><ele>264.0</ele><time>2026-04-12T06:31:46.993Z</time></trkpt><trkpt lat="44.5388364" lon="7.9301903"><ele>264.0</ele><time>2026-04-12T06:31:48.993Z</time></trkpt><trkpt lat="44.5388956" lon="7.9303151"><ele>264.0</ele><time>2026-04-12T06:31:50.994Z</time></trkpt><trkpt lat="44.5389533" lon="7.9304481"><ele>264.0</ele><time>2026-04-12T06:31:52.994Z</time></trkpt><trkpt lat="44.5390174" lon="7.9305614"><ele>264.0</ele><time>2026-04-12T06:31:54.994Z</time></trkpt><trkpt lat="44.5390676" lon="7.9306827"><ele>264.0</ele><time>2026-04-12T06:31:56.994Z</time></trkpt><trkpt lat="44.5391313" lon="7.9307973"><ele>264.0</ele><time>2026-04-12T06:31:58.995Z</time></trkpt><trkpt lat="44.5391899" lon="7.9309124"><ele>264.5</ele><time>2026-04-12T06:32:00.993Z</time></trkpt><trkpt lat="44.5392301" lon="7.9310275"><ele>265.0</ele><time>2026-04-12T06:32:02.994Z</time></trkpt><trkpt lat="44.5392888" lon="7.9311405"><ele>265.5</ele><time>2026-04-12T06:32:04.994Z</time></trkpt><trkpt lat="44.5393469" lon="7.9312452"><ele>266.0</ele><time>2026-04-12T06:32:06.995Z</time></trkpt><trkpt lat="44.5394257" lon="7.9312922"><ele>266.5</ele><time>2026-04-12T06:32:09.993Z</time></trkpt><trkpt lat="44.5394944" lon="7.9312813"><ele>267.0</ele><time>2026-04-12T06:32:11.995Z</time></trkpt><trkpt lat="44.5395721" lon="7.9312248"><ele>266.6</ele><time>2026-04-12T06:32:13.994Z</time></trkpt><trkpt lat="44.5396387" lon="7.931117"><ele>266.2</ele><time>2026-04-12T06:32:15.994Z</time></trkpt><trkpt lat="44.5397099" lon="7.9310357"><ele>265.8</ele><time>2026-04-12T06:32:17.993Z</time></trkpt><trkpt lat="44.5397947" lon="7.930942"><ele>265.4</ele><time>2026-04-12T06:32:19.994Z</time></trkpt><trkpt lat="44.5398809" lon="7.9308517"><ele>265.0</ele><time>2026-04-12T06:32:21.994Z</time></trkpt><trkpt lat="44.5399677" lon="7.930754"><ele>265.0</ele><time>2026-04-12T06:32:23.993Z</time></trkpt><trkpt lat="44.5400601" lon="7.9306659"><ele>265.0</ele><time>2026-04-12T06:32:25.994Z</time></trkpt><trkpt lat="44.5401486" lon="7.9305565"><ele>265.0</ele><time>2026-04-12T06:32:27.993Z</time></trkpt><trkpt lat="44.5402394" lon="7.93046"><ele>265.0</ele><time>2026-04-12T06:32:29.995Z</time></trkpt><trkpt lat="44.5403236" lon="7.930359"><ele>264.6</ele><time>2026-04-12T06:32:31.994Z</time></trkpt><trkpt lat="44.5404097" lon="7.9302606"><ele>264.2</ele><time>2026-04-12T06:32:33.994Z</time></trkpt><trkpt lat="44.5404941" lon="7.9301598"><ele>263.8</ele><time>2026-04-12T06:32:35.993Z</time></trkpt><trkpt lat="44.5405867" lon="7.9300703"><ele>263.4</ele><time>2026-04-12T06:32:37.993Z</time></trkpt><trkpt lat="44.5406708" lon="7.9299625"><ele>263.0</ele><time>2026-04-12T06:32:39.995Z</time></trkpt><trkpt lat="44.5407545" lon="7.9298716"><ele>263.0</ele><time>2026-04-12T06:32:41.994Z</time></trkpt><trkpt lat="44.5408381" lon="7.9297656"><ele>263.0</ele><time>2026-04-12T06:32:43.995Z</time></trkpt><trkpt lat="44.5409266" lon="7.9296595"><ele>263.0</ele><time>2026-04-12T06:32:45.994Z</time></trkpt><trkpt lat="44.5410137" lon="7.9295604"><ele>263.0</ele><time>2026-04-12T06:32:47.994Z</time></trkpt><trkpt lat="44.5410931" lon="7.9294715"><ele>263.0</ele><time>2026-04-12T06:32:49.993Z</time></trkpt><trkpt lat="44.5411401" lon="7.9294098"><ele>263.2</ele><time>2026-04-12T06:32:50.994Z</time></trkpt><trkpt lat="44.5412251" lon="7.9293161"><ele>263.4</ele><time>2026-04-12T06:32:52.994Z</time></trkpt><trkpt lat="44.5413052" lon="7.9292195"><ele>263.59999999999997</ele><time>2026-04-12T06:32:54.994Z</time></trkpt><trkpt lat="44.5413986" lon="7.9291312"><ele>263.8</ele><time>2026-04-12T06:32:56.994Z</time></trkpt><trkpt lat="44.5414842" lon="7.9290433"><ele>264.0</ele><time>2026-04-12T06:32:58.993Z</time></trkpt><trkpt lat="44.5415305" lon="7.9289817"><ele>264.0</ele><time>2026-04-12T06:32:59.994Z</time></trkpt><trkpt lat="44.5416166" lon="7.9288841"><ele>264.0</ele><time>2026-04-12T06:33:01.994Z</time></trkpt><trkpt lat="44.5417036" lon="7.928777"><ele>264.0</ele><time>2026-04-12T06:33:03.994Z</time></trkpt><trkpt lat="44.5417913" lon="7.9286778"><ele>264.0</ele><time>2026-04-12T06:33:05.995Z</time></trkpt><trkpt lat="44.5418764" lon="7.928591"><ele>264.0</ele><time>2026-04-12T06:33:07.993Z</time></trkpt><trkpt lat="44.5419729" lon="7.928502"><ele>264.5</ele><time>2026-04-12T06:33:09.994Z</time></trkpt><trkpt lat="44.5420674" lon="7.9284269"><ele>265.0</ele><time>2026-04-12T06:33:11.994Z</time></trkpt><trkpt lat="44.5421668" lon="7.9283502"><ele>265.5</ele><time>2026-04-12T06:33:13.994Z</time></trkpt><trkpt lat="44.5422719" lon="7.9282644"><ele>266.0</ele><time>2026-04-12T06:33:15.994Z</time></trkpt><trkpt lat="44.5423693" lon="7.9281848"><ele>265.0</ele><time>2026-04-12T06:33:17.994Z</time></trkpt><trkpt lat="44.5424625" lon="7.9281035"><ele>264.0</ele><time>2026-04-12T06:33:19.994Z</time></trkpt><trkpt lat="44.5425581" lon="7.9280242"><ele>263.0</ele><time>2026-04-12T06:33:21.994Z</time></trkpt><trkpt lat="44.5426258" lon="7.9280075"><ele>262.0</ele><time>2026-04-12T06:33:22.993Z</time></trkpt><trkpt lat="44.5427134" lon="7.9279298"><ele>261.0</ele><time>2026-04-12T06:33:24.994Z</time></trkpt><trkpt lat="44.5428055" lon="7.9278619"><ele>261.8</ele><time>2026-04-12T06:33:26.994Z</time></trkpt><trkpt lat="44.5428997" lon="7.9277845"><ele>262.6</ele><time>2026-04-12T06:33:28.994Z</time></trkpt><trkpt lat="44.5429904" lon="7.9277106"><ele>263.4</ele><time>2026-04-12T06:33:30.995Z</time></trkpt><trkpt lat="44.5430756" lon="7.9276374"><ele>264.2</ele><time>2026-04-12T06:33:32.995Z</time></trkpt><trkpt lat="44.5431637" lon="7.9275771"><ele>265.0</ele><time>2026-04-12T06:33:34.994Z</time></trkpt><trkpt lat="44.5432589" lon="7.9275573"><ele>265.4285714285714</ele><time>2026-04-12T06:33:36.995Z</time></trkpt><trkpt lat="44.5433424" lon="7.9275771"><ele>265.85714285714283</ele><time>2026-04-12T06:33:38.994Z</time></trkpt><trkpt lat="44.5434214" lon="7.9276124"><ele>266.2857142857143</ele><time>2026-04-12T06:33:40.994Z</time></trkpt><trkpt lat="44.5434898" lon="7.9276411"><ele>266.71428571428567</ele><time>2026-04-12T06:33:42.993Z</time></trkpt><trkpt lat="44.543558" lon="7.9276686"><ele>267.1428571428571</ele><time>2026-04-12T06:33:44.993Z</time></trkpt><trkpt lat="44.5436239" lon="7.9276895"><ele>267.57142857142856</ele><time>2026-04-12T06:33:46.994Z</time></trkpt><trkpt lat="44.5436885" lon="7.9277139"><ele>268.0</ele><time>2026-04-12T06:33:48.995Z</time></trkpt><trkpt lat="44.5437521" lon="7.9277428"><ele>269.5</ele><time>2026-04-12T06:33:50.995Z</time></trkpt><trkpt lat="44.5438276" lon="7.9278154"><ele>271.0</ele><time>2026-04-12T06:33:53.993Z</time></trkpt><trkpt lat="44.5438688" lon="7.927927"><ele>272.5</ele><time>2026-04-12T06:33:56.994Z</time></trkpt><trkpt lat="44.543893" lon="7.9280401"><ele>274.0</ele><time>2026-04-12T06:33:59.994Z</time></trkpt><trkpt lat="44.5439226" lon="7.9281441"><ele>275.5</ele><time>2026-04-12T06:34:02.995Z</time></trkpt><trkpt lat="44.5439417" lon="7.9282508"><ele>277.0</ele><time>2026-04-12T06:34:05.994Z</time></trkpt><trkpt lat="44.543951" lon="7.9283701"><ele>278.16666666666663</ele><time>2026-04-12T06:34:08.994Z</time></trkpt><trkpt lat="44.5439201" lon="7.9284844"><ele>279.3333333333333</ele><time>2026-04-12T06:34:11.993Z</time></trkpt><trkpt lat="44.5438807" lon="7.9285854"><ele>280.5</ele><time>2026-04-12T06:34:14.993Z</time></trkpt><trkpt lat="44.5438436" lon="7.9286879"><ele>281.6666666666667</ele><time>2026-04-12T06:34:17.993Z</time></trkpt><trkpt lat="44.5438158" lon="7.9288013"><ele>282.83333333333337</ele><time>2026-04-12T06:34:20.995Z</time></trkpt><trkpt lat="44.5437828" lon="7.9289041"><ele>284.0</ele><time>2026-04-12T06:34:23.994Z</time></trkpt><trkpt lat="44.5437537" lon="7.9290157"><ele>284.0</ele><time>2026-04-12T06:34:26.995Z</time></trkpt><trkpt lat="44.5437174" lon="7.929125"><ele>284.0</ele><time>2026-04-12T06:34:29.995Z</time></trkpt><trkpt lat="44.5436808" lon="7.9292294"><ele>284.0</ele><time>2026-04-12T06:34:32.995Z</time></trkpt><trkpt lat="44.5436386" lon="7.9293273"><ele>284.0</ele><time>2026-04-12T06:34:35.995Z</time></trkpt><trkpt lat="44.5435907" lon="7.92942"><ele>284.0</ele><time>2026-04-12T06:34:38.995Z</time></trkpt><trkpt lat="44.5435482" lon="7.9295158"><ele>284.0</ele><time>2026-04-12T06:34:41.994Z</time></trkpt><trkpt lat="44.5435129" lon="7.9296071"><ele>284.0</ele><time>2026-04-12T06:34:44.994Z</time></trkpt><trkpt lat="44.543509" lon="7.9297154"><ele>284.0</ele><time>2026-04-12T06:34:47.995Z</time></trkpt><trkpt lat="44.5435154" lon="7.929826"><ele>284.0</ele><time>2026-04-12T06:34:50.994Z</time></trkpt><trkpt lat="44.5435293" lon="7.929933"><ele>284.0</ele><time>2026-04-12T06:34:53.994Z</time></trkpt><trkpt lat="44.5435441" lon="7.9300247"><ele>284.0</ele><time>2026-04-12T06:34:56.995Z</time></trkpt><trkpt lat="44.5435434" lon="7.930122"><ele>284.0</ele><time>2026-04-12T06:34:59.994Z</time></trkpt><trkpt lat="44.5435333" lon="7.9302144"><ele>284.0</ele><time>2026-04-12T06:35:02.994Z</time></trkpt><trkpt lat="44.5435164" lon="7.930304"><ele>285.0</ele><time>2026-04-12T06:35:05.994Z</time></trkpt><trkpt lat="44.5435079" lon="7.9303936"><ele>286.0</ele><time>2026-04-12T06:35:08.994Z</time></trkpt><trkpt lat="44.5434954" lon="7.9304826"><ele>287.0</ele><time>2026-04-12T06:35:11.994Z</time></trkpt><trkpt lat="44.5434843" lon="7.9305701"><ele>288.0</ele><time>2026-04-12T06:35:14.994Z</time></trkpt><trkpt lat="44.54347" lon="7.9306632"><ele>289.0</ele><time>2026-04-12T06:35:17.994Z</time></trkpt><trkpt lat="44.543459" lon="7.9307595"><ele>290.0</ele><time>2026-04-12T06:35:20.994Z</time></trkpt><trkpt lat="44.5434515" lon="7.9308557"><ele>291.0</ele><time>2026-04-12T06:35:23.995Z</time></trkpt><trkpt lat="44.5434502" lon="7.9309537"><ele>292.0</ele><time>2026-04-12T06:35:26.994Z</time></trkpt><trkpt lat="44.5434556" lon="7.9310496"><ele>293.0</ele><time>2026-04-12T06:35:29.994Z</time></trkpt><trkpt lat="44.5434654" lon="7.9311468"><ele>294.0</ele><time>2026-04-12T06:35:32.994Z</time></trkpt><trkpt lat="44.5434757" lon="7.9312397"><ele>295.0</ele><time>2026-04-12T06:35:35.994Z</time></trkpt><trkpt lat="44.5434882" lon="7.9313343"><ele>296.0</ele><time>2026-04-12T06:35:38.995Z</time></trkpt><trkpt lat="44.5435084" lon="7.9314242"><ele>297.0</ele><time>2026-04-12T06:35:41.995Z</time></trkpt><trkpt lat="44.5435295" lon="7.9315135"><ele>298.0</ele><time>2026-04-12T06:35:44.994Z</time></trkpt><trkpt lat="44.5435601" lon="7.9315978"><ele>298.0</ele><time>2026-04-12T06:35:47.995Z</time></trkpt><trkpt lat="44.5435792" lon="7.931687"><ele>298.0</ele><time>2026-04-12T06:35:50.994Z</time></trkpt><trkpt lat="44.5436074" lon="7.9317721"><ele>298.0</ele><time>2026-04-12T06:35:53.994Z</time></trkpt><trkpt lat="44.5436329" lon="7.9318591"><ele>298.0</ele><time>2026-04-12T06:35:56.994Z</time></trkpt><trkpt lat="44.5436565" lon="7.931943"><ele>298.0</ele><time>2026-04-12T06:35:59.995Z</time></trkpt><trkpt lat="44.543682" lon="7.9320463"><ele>298.0</ele><time>2026-04-12T06:36:03.994Z</time></trkpt><trkpt lat="44.5437141" lon="7.9321523"><ele>298.0</ele><time>2026-04-12T06:36:07.994Z</time></trkpt><trkpt lat="44.5437364" lon="7.9322381"><ele>299.16666666666663</ele><time>2026-04-12T06:36:10.995Z</time></trkpt><trkpt lat="44.5437681" lon="7.9323481"><ele>300.3333333333333</ele><time>2026-04-12T06:36:14.994Z</time></trkpt><trkpt lat="44.5437896" lon="7.9324323"><ele>301.5</ele><time>2026-04-12T06:36:17.994Z</time></trkpt><trkpt lat="44.5438222" lon="7.9325402"><ele>302.6666666666667</ele><time>2026-04-12T06:36:21.994Z</time></trkpt><trkpt lat="44.5438533" lon="7.9326465"><ele>303.83333333333337</ele><time>2026-04-12T06:36:25.995Z</time></trkpt><trkpt lat="44.5438819" lon="7.9327495"><ele>305.0</ele><time>2026-04-12T06:36:29.994Z</time></trkpt><trkpt lat="44.5439137" lon="7.9328513"><ele>305.2857142857143</ele><time>2026-04-12T06:36:33.994Z</time></trkpt><trkpt lat="44.5439472" lon="7.9329591"><ele>305.57142857142856</ele><time>2026-04-12T06:36:37.994Z</time></trkpt><trkpt lat="44.5439762" lon="7.9330675"><ele>305.85714285714283</ele><time>2026-04-12T06:36:41.994Z</time></trkpt><trkpt lat="44.5440002" lon="7.9331501"><ele>306.1428571428571</ele><time>2026-04-12T06:36:44.995Z</time></trkpt><trkpt lat="44.5440139" lon="7.9332379"><ele>306.42857142857144</ele><time>2026-04-12T06:36:47.994Z</time></trkpt><trkpt lat="44.5440319" lon="7.9333235"><ele>306.71428571428567</ele><time>2026-04-12T06:36:50.994Z</time></trkpt><trkpt lat="44.5440494" lon="7.9334086"><ele>307.0</ele><time>2026-04-12T06:36:53.994Z</time></trkpt><trkpt lat="44.5440566" lon="7.9335246"><ele>308.5</ele><time>2026-04-12T06:36:57.995Z</time></trkpt><trkpt lat="44.5440765" lon="7.9336333"><ele>310.0</ele><time>2026-04-12T06:37:01.995Z</time></trkpt><trkpt lat="44.544099" lon="7.9337335"><ele>311.5</ele><time>2026-04-12T06:37:05.994Z</time></trkpt><trkpt lat="44.5441104" lon="7.9338264"><ele>313.0</ele><time>2026-04-12T06:37:09.994Z</time></trkpt><trkpt lat="44.5441389" lon="7.9339258"><ele>314.5</ele><time>2026-04-12T06:37:13.995Z</time></trkpt><trkpt lat="44.5441671" lon="7.9340282"><ele>316.0</ele><time>2026-04-12T06:37:17.994Z</time></trkpt><trkpt lat="44.5441899" lon="7.9341316"><ele>317.00000000000006</ele><time>2026-04-12T06:37:21.994Z</time></trkpt><trkpt lat="44.5441995" lon="7.9342336"><ele>318.0</ele><time>2026-04-12T06:37:25.995Z</time></trkpt><trkpt lat="44.5442163" lon="7.9343338"><ele>319.0</ele><time>2026-04-12T06:37:29.994Z</time></trkpt><trkpt lat="44.5442257" lon="7.9344299"><ele>320.0</ele><time>2026-04-12T06:37:33.994Z</time></trkpt><trkpt lat="44.5442466" lon="7.9345323"><ele>321.0</ele><time>2026-04-12T06:37:37.994Z</time></trkpt><trkpt lat="44.5442622" lon="7.9346333"><ele>322.00000000000006</ele><time>2026-04-12T06:37:41.994Z</time></trkpt><trkpt lat="44.5442977" lon="7.9347231"><ele>323.0</ele><time>2026-04-12T06:37:45.994Z</time></trkpt><trkpt lat="44.5443389" lon="7.9348049"><ele>323.00000000000006</ele><time>2026-04-12T06:37:49.994Z</time></trkpt><trkpt lat="44.5443672" lon="7.9348952"><ele>323.0</ele><time>2026-04-12T06:37:53.994Z</time></trkpt><trkpt lat="44.5444018" lon="7.9349753"><ele>323.0</ele><time>2026-04-12T06:37:57.995Z</time></trkpt><trkpt lat="44.544437" lon="7.935063"><ele>323.0</ele><time>2026-04-12T06:38:01.995Z</time></trkpt><trkpt lat="44.5444811" lon="7.9351401"><ele>323.0</ele><time>2026-04-12T06:38:05.994Z</time></trkpt><trkpt lat="44.5445174" lon="7.9352177"><ele>323.00000000000006</ele><time>2026-04-12T06:38:09.994Z</time></trkpt><trkpt lat="44.5445622" lon="7.9353031"><ele>323.0</ele><time>2026-04-12T06:38:14.994Z</time></trkpt><trkpt lat="44.5445996" lon="7.9353827"><ele>323.5714285714286</ele><time>2026-04-12T06:38:18.994Z</time></trkpt><trkpt lat="44.5446371" lon="7.9354619"><ele>324.14285714285717</ele><time>2026-04-12T06:38:22.994Z</time></trkpt><trkpt lat="44.5446792" lon="7.9355437"><ele>324.7142857142857</ele><time>2026-04-12T06:38:26.995Z</time></trkpt><trkpt lat="44.5447191" lon="7.9356352"><ele>325.28571428571433</ele><time>2026-04-12T06:38:31.994Z</time></trkpt><trkpt lat="44.5447647" lon="7.9357254"><ele>325.8571428571429</ele><time>2026-04-12T06:38:36.994Z</time></trkpt><trkpt lat="44.5447975" lon="7.9358048"><ele>326.42857142857144</ele><time>2026-04-12T06:38:40.995Z</time></trkpt><trkpt lat="44.5448232" lon="7.9359019"><ele>327.0</ele><time>2026-04-12T06:38:45.994Z</time></trkpt><trkpt lat="44.5447958" lon="7.9359976"><ele>327.1428571428571</ele><time>2026-04-12T06:38:50.995Z</time></trkpt><trkpt lat="44.5447353" lon="7.9360282"><ele>327.2857142857143</ele><time>2026-04-12T06:38:54.994Z</time></trkpt><trkpt lat="44.5446732" lon="7.9359964"><ele>327.42857142857144</ele><time>2026-04-12T06:38:57.995Z</time></trkpt><trkpt lat="44.5446034" lon="7.9359509"><ele>327.57142857142856</ele><time>2026-04-12T06:39:01.994Z</time></trkpt><trkpt lat="44.544534" lon="7.9359236"><ele>327.7142857142857</ele><time>2026-04-12T06:39:05.994Z</time></trkpt><trkpt lat="44.5444649" lon="7.9358941"><ele>327.85714285714283</ele><time>2026-04-12T06:39:09.994Z</time></trkpt><trkpt lat="44.5443897" lon="7.9358609"><ele>328.0</ele><time>2026-04-12T06:39:14.994Z</time></trkpt><trkpt lat="44.5443235" lon="7.9358362"><ele>328.0</ele><time>2026-04-12T06:39:18.995Z</time></trkpt><trkpt lat="44.5442546" lon="7.9357915"><ele>328.0</ele><time>2026-04-12T06:39:22.994Z</time></trkpt><trkpt lat="44.5441855" lon="7.9357485"><ele>328.0</ele><time>2026-04-12T06:39:26.994Z</time></trkpt><trkpt lat="44.544124" lon="7.9356837"><ele>328.0</ele><time>2026-04-12T06:39:30.994Z</time></trkpt><trkpt lat="44.5440758" lon="7.9356251"><ele>328.0</ele><time>2026-04-12T06:39:33.994Z</time></trkpt><trkpt lat="44.5440117" lon="7.9355535"><ele>328.0</ele><time>2026-04-12T06:39:37.994Z</time></trkpt><trkpt lat="44.5439557" lon="7.9354666"><ele>327.99999999999994</ele><time>2026-04-12T06:39:41.994Z</time></trkpt><trkpt lat="44.5439099" lon="7.9353778"><ele>328.0</ele><time>2026-04-12T06:39:45.994Z</time></trkpt><trkpt lat="44.5438761" lon="7.9352827"><ele>328.0</ele><time>2026-04-12T06:39:49.994Z</time></trkpt><trkpt lat="44.5438512" lon="7.9351973"><ele>328.0</ele><time>2026-04-12T06:39:52.994Z</time></trkpt><trkpt lat="44.5438148" lon="7.9350904"><ele>328.0</ele><time>2026-04-12T06:39:56.994Z</time></trkpt><trkpt lat="44.5437815" lon="7.9350151"><ele>327.99999999999994</ele><time>2026-04-12T06:39:59.994Z</time></trkpt><trkpt lat="44.5437501" lon="7.9349364"><ele>328.0</ele><time>2026-04-12T06:40:02.994Z</time></trkpt><trkpt lat="44.5437187" lon="7.9348559"><ele>329.2857142857143</ele><time>2026-04-12T06:40:05.994Z</time></trkpt><trkpt lat="44.5436755" lon="7.9347771"><ele>330.57142857142856</ele><time>2026-04-12T06:40:08.994Z</time></trkpt><trkpt lat="44.5436354" lon="7.9346898"><ele>331.8571428571429</ele><time>2026-04-12T06:40:11.995Z</time></trkpt><trkpt lat="44.5435943" lon="7.9346069"><ele>333.1428571428571</ele><time>2026-04-12T06:40:14.994Z</time></trkpt><trkpt lat="44.5435533" lon="7.9345367"><ele>334.42857142857144</ele><time>2026-04-12T06:40:17.995Z</time></trkpt><trkpt lat="44.5435152" lon="7.9344566"><ele>335.7142857142857</ele><time>2026-04-12T06:40:20.995Z</time></trkpt><trkpt lat="44.5434756" lon="7.9343782"><ele>337.0</ele><time>2026-04-12T06:40:23.994Z</time></trkpt><trkpt lat="44.5434361" lon="7.9343038"><ele>337.00000000000006</ele><time>2026-04-12T06:40:26.995Z</time></trkpt><trkpt lat="44.5433956" lon="7.9342264"><ele>337.0</ele><time>2026-04-12T06:40:29.994Z</time></trkpt><trkpt lat="44.5433603" lon="7.9341516"><ele>337.0</ele><time>2026-04-12T06:40:32.994Z</time></trkpt><trkpt lat="44.5433105" lon="7.9340648"><ele>337.0</ele><time>2026-04-12T06:40:36.994Z</time></trkpt><trkpt lat="44.5432732" lon="7.9339804"><ele>337.0</ele><time>2026-04-12T06:40:40.995Z</time></trkpt><trkpt lat="44.5432227" lon="7.93392"><ele>337.00000000000006</ele><time>2026-04-12T06:40:44.994Z</time></trkpt><trkpt lat="44.5431626" lon="7.9338678"><ele>337.0</ele><time>2026-04-12T06:40:48.994Z</time></trkpt><trkpt lat="44.543092" lon="7.9338389"><ele>337.00000000000006</ele><time>2026-04-12T06:40:52.994Z</time></trkpt><trkpt lat="44.5430239" lon="7.9338549"><ele>337.0</ele><time>2026-04-12T06:40:56.995Z</time></trkpt><trkpt lat="44.5429631" lon="7.9338798"><ele>337.0</ele><time>2026-04-12T06:41:00.994Z</time></trkpt><trkpt lat="44.5429201" lon="7.9339531"><ele>337.0</ele><time>2026-04-12T06:41:04.994Z</time></trkpt><trkpt lat="44.5428864" lon="7.9340401"><ele>337.0</ele><time>2026-04-12T06:41:08.994Z</time></trkpt><trkpt lat="44.5428638" lon="7.9341303"><ele>337.00000000000006</ele><time>2026-04-12T06:41:12.994Z</time></trkpt><trkpt lat="44.5428905" lon="7.9342224"><ele>337.0</ele><time>2026-04-12T06:41:16.995Z</time></trkpt><trkpt lat="44.5429147" lon="7.934311"><ele>337.00000000000006</ele><time>2026-04-12T06:41:20.994Z</time></trkpt><trkpt lat="44.5429667" lon="7.9343741"><ele>337.0</ele><time>2026-04-12T06:41:24.994Z</time></trkpt><trkpt lat="44.5430155" lon="7.9344475"><ele>337.0</ele><time>2026-04-12T06:41:28.994Z</time></trkpt><trkpt lat="44.5430501" lon="7.9345261"><ele>337.0</ele><time>2026-04-12T06:41:32.993Z</time></trkpt><trkpt lat="44.5430665" lon="7.9346269"><ele>337.0</ele><time>2026-04-12T06:41:37.994Z</time></trkpt><trkpt lat="44.5430743" lon="7.9347203"><ele>337.00000000000006</ele><time>2026-04-12T06:41:41.994Z</time></trkpt><trkpt lat="44.5430593" lon="7.9348121"><ele>337.0</ele><time>2026-04-12T06:41:45.994Z</time></trkpt><trkpt lat="44.5430607" lon="7.9349125"><ele>337.00000000000006</ele><time>2026-04-12T06:41:49.994Z</time></trkpt><trkpt lat="44.5430558" lon="7.9350129"><ele>337.0</ele><time>2026-04-12T06:41:53.994Z</time></trkpt><trkpt lat="44.5430561" lon="7.9351197"><ele>337.0</ele><time>2026-04-12T06:41:57.994Z</time></trkpt><trkpt lat="44.5430602" lon="7.935222"><ele>337.0</ele><time>2026-04-12T06:42:01.993Z</time></trkpt><trkpt lat="44.5430518" lon="7.935322"><ele>337.0</ele><time>2026-04-12T06:42:05.994Z</time></trkpt><trkpt lat="44.5430389" lon="7.9354249"><ele>337.00000000000006</ele><time>2026-04-12T06:42:09.994Z</time></trkpt><trkpt lat="44.5430304" lon="7.9355134"><ele>337.0</ele><time>2026-04-12T06:42:13.995Z</time></trkpt><trkpt lat="44.5430309" lon="7.9356165"><ele>338.00000000000006</ele><time>2026-04-12T06:42:17.994Z</time></trkpt><trkpt lat="44.5430378" lon="7.9357243"><ele>339.0</ele><time>2026-04-12T06:42:21.994Z</time></trkpt><trkpt lat="44.5430403" lon="7.9358234"><ele>340.0</ele><time>2026-04-12T06:42:25.995Z</time></trkpt><trkpt lat="44.5430643" lon="7.9359194"><ele>341.0</ele><time>2026-04-12T06:42:29.993Z</time></trkpt><trkpt lat="44.5430903" lon="7.9360024"><ele>342.0</ele><time>2026-04-12T06:42:33.993Z</time></trkpt><trkpt lat="44.543122" lon="7.9360877"><ele>343.00000000000006</ele><time>2026-04-12T06:42:37.995Z</time></trkpt><trkpt lat="44.5431673" lon="7.9361781"><ele>344.0</ele><time>2026-04-12T06:42:41.994Z</time></trkpt><trkpt lat="44.5431913" lon="7.9362608"><ele>345.42857142857144</ele><time>2026-04-12T06:42:44.994Z</time></trkpt><trkpt lat="44.5432211" lon="7.9363577"><ele>346.8571428571429</ele><time>2026-04-12T06:42:48.995Z</time></trkpt><trkpt lat="44.5432489" lon="7.9364497"><ele>348.28571428571433</ele><time>2026-04-12T06:42:52.995Z</time></trkpt><trkpt lat="44.5432558" lon="7.9365588"><ele>349.7142857142857</ele><time>2026-04-12T06:42:56.994Z</time></trkpt><trkpt lat="44.5432462" lon="7.9366558"><ele>351.1428571428571</ele><time>2026-04-12T06:43:00.993Z</time></trkpt><trkpt lat="44.5432516" lon="7.9367465"><ele>352.5714285714286</ele><time>2026-04-12T06:43:04.994Z</time></trkpt><trkpt lat="44.5432639" lon="7.9368494"><ele>354.0</ele><time>2026-04-12T06:43:08.993Z</time></trkpt><trkpt lat="44.5432654" lon="7.9369485"><ele>355.42857142857144</ele><time>2026-04-12T06:43:12.994Z</time></trkpt><trkpt lat="44.5432716" lon="7.937051"><ele>356.85714285714283</ele><time>2026-04-12T06:43:16.994Z</time></trkpt><trkpt lat="44.5432907" lon="7.9371378"><ele>358.2857142857143</ele><time>2026-04-12T06:43:19.994Z</time></trkpt><trkpt lat="44.5433203" lon="7.9372369"><ele>359.7142857142857</ele><time>2026-04-12T06:43:23.995Z</time></trkpt><trkpt lat="44.5433552" lon="7.9373243"><ele>361.1428571428571</ele><time>2026-04-12T06:43:27.993Z</time></trkpt><trkpt lat="44.5433946" lon="7.9374087"><ele>362.57142857142856</ele><time>2026-04-12T06:43:31.993Z</time></trkpt><trkpt lat="44.5434424" lon="7.9374904"><ele>364.0</ele><time>2026-04-12T06:43:35.994Z</time></trkpt><trkpt lat="44.5434935" lon="7.9375692"><ele>365.5</ele><time>2026-04-12T06:43:39.995Z</time></trkpt><trkpt lat="44.5435543" lon="7.9376412"><ele>367.0</ele><time>2026-04-12T06:43:43.994Z</time></trkpt><trkpt lat="44.5436194" lon="7.9377007"><ele>368.5</ele><time>2026-04-12T06:43:47.994Z</time></trkpt><trkpt lat="44.5436919" lon="7.9377501"><ele>370.0</ele><time>2026-04-12T06:43:51.994Z</time></trkpt><trkpt lat="44.5437555" lon="7.9378094"><ele>371.5</ele><time>2026-04-12T06:43:55.994Z</time></trkpt><trkpt lat="44.5438155" lon="7.9378619"><ele>373.0</ele><time>2026-04-12T06:43:59.994Z</time></trkpt><trkpt lat="44.5438817" lon="7.9379028"><ele>373.2857142857143</ele><time>2026-04-12T06:44:03.994Z</time></trkpt><trkpt lat="44.5439439" lon="7.9379479"><ele>373.57142857142856</ele><time>2026-04-12T06:44:07.995Z</time></trkpt><trkpt lat="44.5439977" lon="7.937998"><ele>373.8571428571429</ele><time>2026-04-12T06:44:11.995Z</time></trkpt><trkpt lat="44.544059" lon="7.9380387"><ele>374.1428571428571</ele><time>2026-04-12T06:44:15.993Z</time></trkpt><trkpt lat="44.5441185" lon="7.9380854"><ele>374.4285714285714</ele><time>2026-04-12T06:44:19.994Z</time></trkpt><trkpt lat="44.5441687" lon="7.9381419"><ele>374.7142857142857</ele><time>2026-04-12T06:44:23.994Z</time></trkpt><trkpt lat="44.5442142" lon="7.9382124"><ele>375.0</ele><time>2026-04-12T06:44:27.994Z</time></trkpt><trkpt lat="44.5442429" lon="7.938297"><ele>376.2857142857143</ele><time>2026-04-12T06:44:31.993Z</time></trkpt><trkpt lat="44.5442546" lon="7.9383853"><ele>377.57142857142856</ele><time>2026-04-12T06:44:35.993Z</time></trkpt><trkpt lat="44.5442573" lon="7.9384928"><ele>378.85714285714283</ele><time>2026-04-12T06:44:40.994Z</time></trkpt><trkpt lat="44.5442494" lon="7.9385955"><ele>380.1428571428571</ele><time>2026-04-12T06:44:45.994Z</time></trkpt><trkpt lat="44.5442391" lon="7.9386987"><ele>381.42857142857144</ele><time>2026-04-12T06:44:50.994Z</time></trkpt><trkpt lat="44.5441965" lon="7.9387767"><ele>382.71428571428567</ele><time>2026-04-12T06:44:55.994Z</time></trkpt><trkpt lat="44.5441376" lon="7.9388323"><ele>384.0</ele><time>2026-04-12T06:44:59.994Z</time></trkpt><trkpt lat="44.5440765" lon="7.9388789"><ele>383.99999999999994</ele><time>2026-04-12T06:45:03.995Z</time></trkpt><trkpt lat="44.544077" lon="7.9389909"><ele>384.0</ele><time>2026-04-12T06:45:08.994Z</time></trkpt><trkpt lat="44.5441332" lon="7.9390751"><ele>384.0</ele><time>2026-04-12T06:45:12.995Z</time></trkpt><trkpt lat="44.5441834" lon="7.9391342"><ele>384.0</ele><time>2026-04-12T06:45:16.994Z</time></trkpt><trkpt lat="44.5442548" lon="7.939171"><ele>384.0</ele><time>2026-04-12T06:45:20.994Z</time></trkpt><trkpt lat="44.5443258" lon="7.9391833"><ele>383.99999999999994</ele><time>2026-04-12T06:45:24.995Z</time></trkpt><trkpt lat="44.5443993" lon="7.9391934"><ele>384.0</ele><time>2026-04-12T06:45:28.995Z</time></trkpt><trkpt lat="44.54447" lon="7.939201"><ele>383.99999999999994</ele><time>2026-04-12T06:45:32.994Z</time></trkpt><trkpt lat="44.5445435" lon="7.9391999"><ele>384.0</ele><time>2026-04-12T06:45:36.994Z</time></trkpt><trkpt lat="44.5446104" lon="7.939234"><ele>384.0</ele><time>2026-04-12T06:45:40.994Z</time></trkpt><trkpt lat="44.5446463" lon="7.939311"><ele>384.0</ele><time>2026-04-12T06:45:44.994Z</time></trkpt><trkpt lat="44.5446598" lon="7.9394054"><ele>384.0</ele><time>2026-04-12T06:45:48.995Z</time></trkpt><trkpt lat="44.5446731" lon="7.9394943"><ele>383.99999999999994</ele><time>2026-04-12T06:45:52.994Z</time></trkpt><trkpt lat="44.5446794" lon="7.9395848"><ele>384.0</ele><time>2026-04-12T06:45:56.994Z</time></trkpt><trkpt lat="44.5446819" lon="7.9396773"><ele>384.99999999999994</ele><time>2026-04-12T06:46:00.994Z</time></trkpt><trkpt lat="44.5446885" lon="7.9397734"><ele>386.0</ele><time>2026-04-12T06:46:04.994Z</time></trkpt><trkpt lat="44.5447058" lon="7.9398799"><ele>387.0</ele><time>2026-04-12T06:46:08.995Z</time></trkpt><trkpt lat="44.5447262" lon="7.9399769"><ele>388.0</ele><time>2026-04-12T06:46:12.994Z</time></trkpt><trkpt lat="44.5447685" lon="7.94007"><ele>389.0</ele><time>2026-04-12T06:46:16.994Z</time></trkpt><trkpt lat="44.5448289" lon="7.9401309"><ele>389.99999999999994</ele><time>2026-04-12T06:46:20.994Z</time></trkpt><trkpt lat="44.5448981" lon="7.9401659"><ele>391.0</ele><time>2026-04-12T06:46:24.994Z</time></trkpt><trkpt lat="44.5449701" lon="7.940183"><ele>391.00000000000006</ele><time>2026-04-12T06:46:28.994Z</time></trkpt><trkpt lat="44.5450417" lon="7.9401971"><ele>391.0</ele><time>2026-04-12T06:46:32.994Z</time></trkpt><trkpt lat="44.5451165" lon="7.9402122"><ele>391.0</ele><time>2026-04-12T06:46:36.994Z</time></trkpt><trkpt lat="44.5451954" lon="7.9402258"><ele>391.0</ele><time>2026-04-12T06:46:40.994Z</time></trkpt><trkpt lat="44.5452717" lon="7.9402309"><ele>391.00000000000006</ele><time>2026-04-12T06:46:44.994Z</time></trkpt><trkpt lat="44.5453439" lon="7.9402634"><ele>391.0</ele><time>2026-04-12T06:46:48.994Z</time></trkpt><trkpt lat="44.5454184" lon="7.9402678"><ele>392.85714285714283</ele><time>2026-04-12T06:46:52.994Z</time></trkpt><trkpt lat="44.5454893" lon="7.9402876"><ele>394.7142857142857</ele><time>2026-04-12T06:46:56.994Z</time></trkpt><trkpt lat="44.5455595" lon="7.9403183"><ele>396.57142857142856</ele><time>2026-04-12T06:47:00.994Z</time></trkpt><trkpt lat="44.5456325" lon="7.9403358"><ele>398.42857142857144</ele><time>2026-04-12T06:47:04.994Z</time></trkpt><trkpt lat="44.5456986" lon="7.9403753"><ele>400.2857142857143</ele><time>2026-04-12T06:47:08.994Z</time></trkpt><trkpt lat="44.5457567" lon="7.9404238"><ele>402.1428571428571</ele><time>2026-04-12T06:47:12.994Z</time></trkpt><trkpt lat="44.545808" lon="7.9404775"><ele>404.0</ele><time>2026-04-12T06:47:16.995Z</time></trkpt><trkpt lat="44.5458629" lon="7.9405435"><ele>404.0</ele><time>2026-04-12T06:47:20.994Z</time></trkpt><trkpt lat="44.5459218" lon="7.9405865"><ele>404.0</ele><time>2026-04-12T06:47:24.994Z</time></trkpt><trkpt lat="44.5459607" lon="7.9406596"><ele>404.0</ele><time>2026-04-12T06:47:28.994Z</time></trkpt><trkpt lat="44.546016" lon="7.940704"><ele>404.0</ele><time>2026-04-12T06:47:32.994Z</time></trkpt><trkpt lat="44.5460613" lon="7.9407839"><ele>404.0</ele><time>2026-04-12T06:47:36.994Z</time></trkpt><trkpt lat="44.5461105" lon="7.9408434"><ele>404.0</ele><time>2026-04-12T06:47:40.994Z</time></trkpt><trkpt lat="44.5461597" lon="7.9409239"><ele>404.0</ele><time>2026-04-12T06:47:45.994Z</time></trkpt><trkpt lat="44.5462148" lon="7.9409962"><ele>405.7142857142857</ele><time>2026-04-12T06:47:50.994Z</time></trkpt><trkpt lat="44.5462583" lon="7.9410617"><ele>407.42857142857144</ele><time>2026-04-12T06:47:54.994Z</time></trkpt><trkpt lat="44.5463166" lon="7.9411274"><ele>409.1428571428571</ele><time>2026-04-12T06:47:59.994Z</time></trkpt><trkpt lat="44.546365" lon="7.9411843"><ele>410.8571428571429</ele><time>2026-04-12T06:48:03.995Z</time></trkpt><trkpt lat="44.5464155" lon="7.9412659"><ele>412.5714285714286</ele><time>2026-04-12T06:48:08.994Z</time></trkpt><trkpt lat="44.5464759" lon="7.9413228"><ele>414.2857142857143</ele><time>2026-04-12T06:48:13.994Z</time></trkpt><trkpt lat="44.5465205" lon="7.9414013"><ele>416.0</ele><time>2026-04-12T06:48:18.995Z</time></trkpt><trkpt lat="44.5465662" lon="7.9414641"><ele>416.0</ele><time>2026-04-12T06:48:22.994Z</time></trkpt><trkpt lat="44.5466317" lon="7.9415182"><ele>416.0</ele><time>2026-04-12T06:48:27.993Z</time></trkpt><trkpt lat="44.5466804" lon="7.9415895"><ele>416.0</ele><time>2026-04-12T06:48:32.994Z</time></trkpt><trkpt lat="44.546724" lon="7.9416652"><ele>416.0</ele><time>2026-04-12T06:48:37.994Z</time></trkpt><trkpt lat="44.5467858" lon="7.9417172"><ele>416.0</ele><time>2026-04-12T06:48:42.995Z</time></trkpt><trkpt lat="44.5468306" lon="7.9418048"><ele>416.0</ele><time>2026-04-12T06:48:47.994Z</time></trkpt><trkpt lat="44.5468939" lon="7.941847"><ele>416.0</ele><time>2026-04-12T06:48:52.994Z</time></trkpt><trkpt lat="44.5469385" lon="7.9419152"><ele>415.2857142857143</ele><time>2026-04-12T06:48:56.993Z</time></trkpt><trkpt lat="44.5469906" lon="7.9419907"><ele>414.5714285714286</ele><time>2026-04-12T06:49:01.994Z</time></trkpt><trkpt lat="44.5470497" lon="7.9420445"><ele>413.8571428571429</ele><time>2026-04-12T06:49:06.993Z</time></trkpt><trkpt lat="44.5471076" lon="7.9420955"><ele>413.1428571428571</ele><time>2026-04-12T06:49:10.995Z</time></trkpt><trkpt lat="44.5471729" lon="7.94215"><ele>412.42857142857144</ele><time>2026-04-12T06:49:14.994Z</time></trkpt><trkpt lat="44.547208" lon="7.9422469"><ele>411.7142857142857</ele><time>2026-04-12T06:49:18.994Z</time></trkpt><trkpt lat="44.5471947" lon="7.94235"><ele>411.0</ele><time>2026-04-12T06:49:21.994Z</time></trkpt><trkpt lat="44.547174" lon="7.9424709"><ele>410.6666666666667</ele><time>2026-04-12T06:49:24.994Z</time></trkpt><trkpt lat="44.547221" lon="7.9425678"><ele>410.33333333333337</ele><time>2026-04-12T06:49:27.994Z</time></trkpt><trkpt lat="44.5472949" lon="7.9426506"><ele>410.0</ele><time>2026-04-12T06:49:30.994Z</time></trkpt><trkpt lat="44.5473587" lon="7.9426924"><ele>409.6666666666667</ele><time>2026-04-12T06:49:33.993Z</time></trkpt><trkpt lat="44.5474307" lon="7.9427203"><ele>409.33333333333337</ele><time>2026-04-12T06:49:37.994Z</time></trkpt><trkpt lat="44.5474972" lon="7.9427406"><ele>409.0</ele><time>2026-04-12T06:49:41.995Z</time></trkpt><trkpt lat="44.5475698" lon="7.942751"><ele>409.0</ele><time>2026-04-12T06:49:46.994Z</time></trkpt><trkpt lat="44.5476392" lon="7.9427672"><ele>409.0</ele><time>2026-04-12T06:49:51.995Z</time></trkpt><trkpt lat="44.5477029" lon="7.9427834"><ele>409.0</ele><time>2026-04-12T06:49:56.994Z</time></trkpt><trkpt lat="44.5477653" lon="7.9427551"><ele>409.0</ele><time>2026-04-12T06:50:00.995Z</time></trkpt><trkpt lat="44.5478346" lon="7.9427044"><ele>409.0</ele><time>2026-04-12T06:50:05.994Z</time></trkpt><trkpt lat="44.5479012" lon="7.9426897"><ele>409.0</ele><time>2026-04-12T06:50:09.994Z</time></trkpt><trkpt lat="44.5479705" lon="7.9427167"><ele>409.0</ele><time>2026-04-12T06:50:14.994Z</time></trkpt><trkpt lat="44.5480249" lon="7.9427801"><ele>412.1428571428571</ele><time>2026-04-12T06:50:19.995Z</time></trkpt><trkpt lat="44.5480756" lon="7.9428423"><ele>415.28571428571433</ele><time>2026-04-12T06:50:24.994Z</time></trkpt><trkpt lat="44.5481374" lon="7.9429043"><ele>418.42857142857144</ele><time>2026-04-12T06:50:30.994Z</time></trkpt><trkpt lat="44.5481831" lon="7.9429689"><ele>421.57142857142856</ele><time>2026-04-12T06:50:34.994Z</time></trkpt><trkpt lat="44.5482354" lon="7.9430317"><ele>424.71428571428567</ele><time>2026-04-12T06:50:39.994Z</time></trkpt><trkpt lat="44.5482885" lon="7.9430929"><ele>427.8571428571429</ele><time>2026-04-12T06:50:44.994Z</time></trkpt><trkpt lat="44.548346" lon="7.9431582"><ele>431.0</ele><time>2026-04-12T06:50:49.993Z</time></trkpt><trkpt lat="44.5483949" lon="7.9432143"><ele>431.0</ele><time>2026-04-12T06:50:54.994Z</time></trkpt><trkpt lat="44.5484641" lon="7.9432655"><ele>431.0</ele><time>2026-04-12T06:51:00.993Z</time></trkpt><trkpt lat="44.5485337" lon="7.94329"><ele>431.0</ele><time>2026-04-12T06:51:05.994Z</time></trkpt><trkpt lat="44.5486" lon="7.9433071"><ele>431.0</ele><time>2026-04-12T06:51:10.994Z</time></trkpt><trkpt lat="44.5486795" lon="7.9433146"><ele>431.0</ele><time>2026-04-12T06:51:15.994Z</time></trkpt><trkpt lat="44.5487426" lon="7.9433189"><ele>431.0</ele><time>2026-04-12T06:51:20.993Z</time></trkpt><trkpt lat="44.5488152" lon="7.9433354"><ele>431.0</ele><time>2026-04-12T06:51:25.994Z</time></trkpt><trkpt lat="44.5488877" lon="7.9433705"><ele>431.5714285714286</ele><time>2026-04-12T06:51:30.995Z</time></trkpt><trkpt lat="44.5489536" lon="7.9434287"><ele>432.1428571428571</ele><time>2026-04-12T06:51:34.994Z</time></trkpt><trkpt lat="44.549005" lon="7.9434948"><ele>432.7142857142857</ele><time>2026-04-12T06:51:38.995Z</time></trkpt><trkpt lat="44.5490624" lon="7.9435585"><ele>433.28571428571433</ele><time>2026-04-12T06:51:42.993Z</time></trkpt><trkpt lat="44.5491227" lon="7.9436201"><ele>433.8571428571429</ele><time>2026-04-12T06:51:46.993Z</time></trkpt><trkpt lat="44.5491818" lon="7.9436638"><ele>434.42857142857144</ele><time>2026-04-12T06:51:50.994Z</time></trkpt><trkpt lat="44.5492481" lon="7.9437194"><ele>435.0</ele><time>2026-04-12T06:51:54.994Z</time></trkpt><trkpt lat="44.5492969" lon="7.9437765"><ele>435.00000000000006</ele><time>2026-04-12T06:51:57.995Z</time></trkpt><trkpt lat="44.5493457" lon="7.9438357"><ele>435.0</ele><time>2026-04-12T06:52:00.994Z</time></trkpt><trkpt lat="44.5494017" lon="7.9438888"><ele>435.0</ele><time>2026-04-12T06:52:03.993Z</time></trkpt><trkpt lat="44.5494654" lon="7.943955"><ele>435.0</ele><time>2026-04-12T06:52:07.995Z</time></trkpt><trkpt lat="44.5495284" lon="7.9440261"><ele>435.0</ele><time>2026-04-12T06:52:11.994Z</time></trkpt><trkpt lat="44.5495953" lon="7.9440961"><ele>435.00000000000006</ele><time>2026-04-12T06:52:15.993Z</time></trkpt><trkpt lat="44.54965" lon="7.9441635"><ele>435.0</ele><time>2026-04-12T06:52:18.994Z</time></trkpt><trkpt lat="44.5497086" lon="7.944212"><ele>433.6</ele><time>2026-04-12T06:52:20.995Z</time></trkpt><trkpt lat="44.5497833" lon="7.9442601"><ele>432.2</ele><time>2026-04-12T06:52:22.993Z</time></trkpt><trkpt lat="44.5498759" lon="7.9443056"><ele>430.79999999999995</ele><time>2026-04-12T06:52:24.993Z</time></trkpt><trkpt lat="44.5499644" lon="7.944366"><ele>429.4</ele><time>2026-04-12T06:52:26.994Z</time></trkpt><trkpt lat="44.5500576" lon="7.9444262"><ele>428.0</ele><time>2026-04-12T06:52:28.994Z</time></trkpt><trkpt lat="44.5501489" lon="7.9444995"><ele>428.0</ele><time>2026-04-12T06:52:30.993Z</time></trkpt><trkpt lat="44.5502424" lon="7.9445747"><ele>428.0</ele><time>2026-04-12T06:52:32.995Z</time></trkpt><trkpt lat="44.5503415" lon="7.9446378"><ele>428.0</ele><time>2026-04-12T06:52:34.994Z</time></trkpt><trkpt lat="44.5504462" lon="7.9447011"><ele>428.0</ele><time>2026-04-12T06:52:36.995Z</time></trkpt><trkpt lat="44.5505556" lon="7.9447739"><ele>428.4</ele><time>2026-04-12T06:52:38.993Z</time></trkpt><trkpt lat="44.5506598" lon="7.9448519"><ele>428.79999999999995</ele><time>2026-04-12T06:52:40.994Z</time></trkpt><trkpt lat="44.5507601" lon="7.9449354"><ele>429.2</ele><time>2026-04-12T06:52:42.993Z</time></trkpt><trkpt lat="44.5508492" lon="7.9450186"><ele>429.6</ele><time>2026-04-12T06:52:44.995Z</time></trkpt><trkpt lat="44.5509341" lon="7.9450983"><ele>430.0</ele><time>2026-04-12T06:52:46.994Z</time></trkpt><trkpt lat="44.5510182" lon="7.9451759"><ele>430.0</ele><time>2026-04-12T06:52:48.993Z</time></trkpt><trkpt lat="44.5510961" lon="7.9452503"><ele>430.0</ele><time>2026-04-12T06:52:50.995Z</time></trkpt><trkpt lat="44.5511809" lon="7.9453259"><ele>430.0</ele><time>2026-04-12T06:52:52.994Z</time></trkpt><trkpt lat="44.551268" lon="7.9453867"><ele>430.0</ele><time>2026-04-12T06:52:54.994Z</time></trkpt><trkpt lat="44.5513577" lon="7.945426"><ele>430.0</ele><time>2026-04-12T06:52:56.994Z</time></trkpt><trkpt lat="44.55146" lon="7.9454687"><ele>431.8</ele><time>2026-04-12T06:52:58.993Z</time></trkpt><trkpt lat="44.5515595" lon="7.9455073"><ele>433.6</ele><time>2026-04-12T06:53:00.994Z</time></trkpt><trkpt lat="44.5516514" lon="7.9455287"><ele>435.4</ele><time>2026-04-12T06:53:02.994Z</time></trkpt><trkpt lat="44.5517402" lon="7.9455624"><ele>437.2</ele><time>2026-04-12T06:53:04.993Z</time></trkpt><trkpt lat="44.5518294" lon="7.9456017"><ele>439.0</ele><time>2026-04-12T06:53:06.994Z</time></trkpt><trkpt lat="44.5519103" lon="7.9456499"><ele>439.0</ele><time>2026-04-12T06:53:08.994Z</time></trkpt><trkpt lat="44.5519895" lon="7.9457166"><ele>439.0</ele><time>2026-04-12T06:53:10.994Z</time></trkpt><trkpt lat="44.552069" lon="7.9457986"><ele>439.0</ele><time>2026-04-12T06:53:12.993Z</time></trkpt><trkpt lat="44.5521537" lon="7.9458923"><ele>439.0</ele><time>2026-04-12T06:53:14.994Z</time></trkpt><trkpt lat="44.5522487" lon="7.9459846"><ele>439.0</ele><time>2026-04-12T06:53:16.993Z</time></trkpt><trkpt lat="44.5523047" lon="7.9460265"><ele>438.1666666666667</ele><time>2026-04-12T06:53:17.993Z</time></trkpt><trkpt lat="44.5523649" lon="7.9460807"><ele>437.33333333333337</ele><time>2026-04-12T06:53:18.993Z</time></trkpt><trkpt lat="44.5524391" lon="7.9461502"><ele>436.5</ele><time>2026-04-12T06:53:19.994Z</time></trkpt><trkpt lat="44.5525035" lon="7.9462167"><ele>435.66666666666663</ele><time>2026-04-12T06:53:20.994Z</time></trkpt><trkpt lat="44.5525702" lon="7.9462876"><ele>434.8333333333333</ele><time>2026-04-12T06:53:21.994Z</time></trkpt><trkpt lat="44.552637" lon="7.9463482"><ele>434.0</ele><time>2026-04-12T06:53:22.994Z</time></trkpt><trkpt lat="44.5526982" lon="7.946425"><ele>433.99999999999994</ele><time>2026-04-12T06:53:23.995Z</time></trkpt><trkpt lat="44.5527687" lon="7.946489"><ele>434.0</ele><time>2026-04-12T06:53:24.994Z</time></trkpt><trkpt lat="44.5528428" lon="7.946551"><ele>434.0</ele><time>2026-04-12T06:53:25.994Z</time></trkpt><trkpt lat="44.5529103" lon="7.9466199"><ele>434.0</ele><time>2026-04-12T06:53:26.995Z</time></trkpt><trkpt lat="44.5529801" lon="7.9466888"><ele>433.99999999999994</ele><time>2026-04-12T06:53:27.994Z</time></trkpt><trkpt lat="44.5530438" lon="7.9467504"><ele>434.0</ele><time>2026-04-12T06:53:28.995Z</time></trkpt><trkpt lat="44.5530998" lon="7.9468199"><ele>435.49999999999994</ele><time>2026-04-12T06:53:29.994Z</time></trkpt><trkpt lat="44.5531509" lon="7.9468988"><ele>437.0</ele><time>2026-04-12T06:53:30.995Z</time></trkpt><trkpt lat="44.553184" lon="7.9469824"><ele>438.5</ele><time>2026-04-12T06:53:31.994Z</time></trkpt><trkpt lat="44.5532233" lon="7.9471253"><ele>440.0</ele><time>2026-04-12T06:53:33.994Z</time></trkpt><trkpt lat="44.5532412" lon="7.9472524"><ele>441.49999999999994</ele><time>2026-04-12T06:53:35.993Z</time></trkpt><trkpt lat="44.5532461" lon="7.9473711"><ele>443.0</ele><time>2026-04-12T06:53:37.993Z</time></trkpt><trkpt lat="44.5532471" lon="7.9474771"><ele>441.14285714285717</ele><time>2026-04-12T06:53:39.994Z</time></trkpt><trkpt lat="44.5532509" lon="7.9475666"><ele>439.28571428571433</ele><time>2026-04-12T06:53:41.994Z</time></trkpt><trkpt lat="44.5533002" lon="7.9476611"><ele>437.42857142857144</ele><time>2026-04-12T06:53:44.993Z</time></trkpt><trkpt lat="44.5533711" lon="7.9477233"><ele>435.57142857142856</ele><time>2026-04-12T06:53:47.994Z</time></trkpt><trkpt lat="44.553435" lon="7.9477766"><ele>433.7142857142857</ele><time>2026-04-12T06:53:50.994Z</time></trkpt><trkpt lat="44.5534894" lon="7.9478277"><ele>431.85714285714283</ele><time>2026-04-12T06:53:52.994Z</time></trkpt><trkpt lat="44.5535423" lon="7.9478807"><ele>430.0</ele><time>2026-04-12T06:53:54.994Z</time></trkpt><trkpt lat="44.5536214" lon="7.9479474"><ele>430.0</ele><time>2026-04-12T06:53:57.994Z</time></trkpt><trkpt lat="44.5536778" lon="7.9480067"><ele>430.0</ele><time>2026-04-12T06:53:59.994Z</time></trkpt><trkpt lat="44.5537359" lon="7.948062"><ele>430.0</ele><time>2026-04-12T06:54:01.994Z</time></trkpt><trkpt lat="44.5537917" lon="7.9481136"><ele>430.0</ele><time>2026-04-12T06:54:03.994Z</time></trkpt><trkpt lat="44.5538495" lon="7.9481589"><ele>430.0</ele><time>2026-04-12T06:54:05.995Z</time></trkpt><trkpt lat="44.5539101" lon="7.9482085"><ele>430.0</ele><time>2026-04-12T06:54:07.994Z</time></trkpt><trkpt lat="44.5539781" lon="7.9482578"><ele>430.0</ele><time>2026-04-12T06:54:09.994Z</time></trkpt><trkpt lat="44.5540462" lon="7.9483146"><ele>429.33333333333337</ele><time>2026-04-12T06:54:11.994Z</time></trkpt><trkpt lat="44.5541144" lon="7.9483745"><ele>428.6666666666667</ele><time>2026-04-12T06:54:13.994Z</time></trkpt><trkpt lat="44.5541855" lon="7.9484371"><ele>428.0</ele><time>2026-04-12T06:54:15.994Z</time></trkpt><trkpt lat="44.5542607" lon="7.9485003"><ele>427.33333333333337</ele><time>2026-04-12T06:54:17.995Z</time></trkpt><trkpt lat="44.5543363" lon="7.9485726"><ele>426.6666666666667</ele><time>2026-04-12T06:54:19.994Z</time></trkpt><trkpt lat="44.554409" lon="7.94865"><ele>426.0</ele><time>2026-04-12T06:54:21.994Z</time></trkpt><trkpt lat="44.5544832" lon="7.9487291"><ele>427.20000000000005</ele><time>2026-04-12T06:54:23.994Z</time></trkpt><trkpt lat="44.5545603" lon="7.9488037"><ele>428.40000000000003</ele><time>2026-04-12T06:54:25.994Z</time></trkpt><trkpt lat="44.5546353" lon="7.9488796"><ele>429.6</ele><time>2026-04-12T06:54:27.994Z</time></trkpt><trkpt lat="44.5547094" lon="7.9489531"><ele>430.8</ele><time>2026-04-12T06:54:29.995Z</time></trkpt><trkpt lat="44.5547799" lon="7.9490333"><ele>432.0</ele><time>2026-04-12T06:54:31.994Z</time></trkpt><trkpt lat="44.554855" lon="7.9491188"><ele>430.75</ele><time>2026-04-12T06:54:33.994Z</time></trkpt><trkpt lat="44.5549358" lon="7.9492139"><ele>429.5</ele><time>2026-04-12T06:54:35.994Z</time></trkpt><trkpt lat="44.5550266" lon="7.9493167"><ele>428.25</ele><time>2026-04-12T06:54:37.995Z</time></trkpt><trkpt lat="44.555119" lon="7.9494246"><ele>427.0</ele><time>2026-04-12T06:54:39.995Z</time></trkpt><trkpt lat="44.5552096" lon="7.9495353"><ele>427.0</ele><time>2026-04-12T06:54:41.994Z</time></trkpt><trkpt lat="44.5552963" lon="7.9496379"><ele>427.00000000000006</ele><time>2026-04-12T06:54:43.994Z</time></trkpt><trkpt lat="44.5553811" lon="7.949732"><ele>427.00000000000006</ele><time>2026-04-12T06:54:45.994Z</time></trkpt><trkpt lat="44.5554667" lon="7.9498241"><ele>427.0</ele><time>2026-04-12T06:54:47.994Z</time></trkpt><trkpt lat="44.5555526" lon="7.9499122"><ele>427.0</ele><time>2026-04-12T06:54:49.994Z</time></trkpt><trkpt lat="44.5556382" lon="7.9499909"><ele>427.33333333333337</ele><time>2026-04-12T06:54:51.994Z</time></trkpt><trkpt lat="44.5557187" lon="7.9500664"><ele>427.6666666666667</ele><time>2026-04-12T06:54:53.995Z</time></trkpt><trkpt lat="44.5557843" lon="7.9501516"><ele>428.0</ele><time>2026-04-12T06:54:55.994Z</time></trkpt><trkpt lat="44.5558424" lon="7.950232"><ele>428.33333333333337</ele><time>2026-04-12T06:54:57.994Z</time></trkpt><trkpt lat="44.5558971" lon="7.9503044"><ele>428.6666666666667</ele><time>2026-04-12T06:54:59.994Z</time></trkpt><trkpt lat="44.5559479" lon="7.9503711"><ele>429.0</ele><time>2026-04-12T06:55:01.994Z</time></trkpt><trkpt lat="44.5560052" lon="7.950451"><ele>429.0</ele><time>2026-04-12T06:55:04.995Z</time></trkpt><trkpt lat="44.556059" lon="7.9505226"><ele>429.0</ele><time>2026-04-12T06:55:07.995Z</time></trkpt><trkpt lat="44.5561233" lon="7.9506088"><ele>429.0</ele><time>2026-04-12T06:55:10.994Z</time></trkpt><trkpt lat="44.5561902" lon="7.9506757"><ele>429.0</ele><time>2026-04-12T06:55:13.994Z</time></trkpt><trkpt lat="44.5562719" lon="7.9507444"><ele>429.0</ele><time>2026-04-12T06:55:16.994Z</time></trkpt><trkpt lat="44.5563419" lon="7.9507937"><ele>429.0</ele><time>2026-04-12T06:55:18.995Z</time></trkpt><trkpt lat="44.5564226" lon="7.9508428"><ele>430.0</ele><time>2026-04-12T06:55:20.994Z</time></trkpt><trkpt lat="44.5565136" lon="7.9509074"><ele>431.0</ele><time>2026-04-12T06:55:22.994Z</time></trkpt><trkpt lat="44.5566143" lon="7.9509582"><ele>432.0</ele><time>2026-04-12T06:55:24.994Z</time></trkpt><trkpt lat="44.5567243" lon="7.9509967"><ele>433.0</ele><time>2026-04-12T06:55:26.994Z</time></trkpt><trkpt lat="44.5568208" lon="7.9510439"><ele>434.0</ele><time>2026-04-12T06:55:28.993Z</time></trkpt><trkpt lat="44.5568934" lon="7.9511222"><ele>433.99999999999994</ele><time>2026-04-12T06:55:30.993Z</time></trkpt><trkpt lat="44.5569277" lon="7.9512451"><ele>434.0</ele><time>2026-04-12T06:55:32.993Z</time></trkpt><trkpt lat="44.556931" lon="7.9513491"><ele>434.0</ele><time>2026-04-12T06:55:34.993Z</time></trkpt><trkpt lat="44.5569289" lon="7.9514651"><ele>434.0</ele><time>2026-04-12T06:55:36.994Z</time></trkpt><trkpt lat="44.5569429" lon="7.9515787"><ele>433.99999999999994</ele><time>2026-04-12T06:55:38.994Z</time></trkpt><trkpt lat="44.5569313" lon="7.9516679"><ele>434.0</ele><time>2026-04-12T06:55:41.994Z</time></trkpt><trkpt lat="44.5569379" lon="7.9517618"><ele>433.6</ele><time>2026-04-12T06:55:44.994Z</time></trkpt><trkpt lat="44.5570238" lon="7.9517896"><ele>433.2</ele><time>2026-04-12T06:55:46.994Z</time></trkpt><trkpt lat="44.5571467" lon="7.9518303"><ele>432.80000000000007</ele><time>2026-04-12T06:55:48.995Z</time></trkpt><trkpt lat="44.5572617" lon="7.9517909"><ele>432.40000000000003</ele><time>2026-04-12T06:55:50.994Z</time></trkpt><trkpt lat="44.5573043" lon="7.9516511"><ele>432.0</ele><time>2026-04-12T06:55:52.994Z</time></trkpt><trkpt lat="44.5572496" lon="7.9515054"><ele>430.3333333333333</ele><time>2026-04-12T06:55:54.994Z</time></trkpt><trkpt lat="44.557217" lon="7.9514274"><ele>428.66666666666663</ele><time>2026-04-12T06:55:55.995Z</time></trkpt><trkpt lat="44.5572189" lon="7.9512887"><ele>427.0</ele><time>2026-04-12T06:55:57.993Z</time></trkpt><trkpt lat="44.5573134" lon="7.9512435"><ele>425.3333333333333</ele><time>2026-04-12T06:55:59.994Z</time></trkpt><trkpt lat="44.5573858" lon="7.9512703"><ele>423.66666666666663</ele><time>2026-04-12T06:56:00.994Z</time></trkpt><trkpt lat="44.5574589" lon="7.951309"><ele>422.0</ele><time>2026-04-12T06:56:01.995Z</time></trkpt><trkpt lat="44.5575409" lon="7.9513557"><ele>422.0</ele><time>2026-04-12T06:56:02.995Z</time></trkpt><trkpt lat="44.5576288" lon="7.9513964"><ele>422.0</ele><time>2026-04-12T06:56:03.993Z</time></trkpt><trkpt lat="44.5577314" lon="7.9514373"><ele>422.0</ele><time>2026-04-12T06:56:04.995Z</time></trkpt><trkpt lat="44.5578368" lon="7.9514776"><ele>422.0</ele><time>2026-04-12T06:56:05.994Z</time></trkpt><trkpt lat="44.5579397" lon="7.9515263"><ele>422.0</ele><time>2026-04-12T06:56:06.994Z</time></trkpt><trkpt lat="44.5580417" lon="7.9515751"><ele>419.40000000000003</ele><time>2026-04-12T06:56:07.993Z</time></trkpt><trkpt lat="44.5581428" lon="7.9516173"><ele>416.8</ele><time>2026-04-12T06:56:08.993Z</time></trkpt><trkpt lat="44.5582379" lon="7.9516477"><ele>414.2</ele><time>2026-04-12T06:56:09.993Z</time></trkpt><trkpt lat="44.5583343" lon="7.9516515"><ele>411.6</ele><time>2026-04-12T06:56:10.993Z</time></trkpt><trkpt lat="44.5584284" lon="7.9516438"><ele>409.0</ele><time>2026-04-12T06:56:11.994Z</time></trkpt><trkpt lat="44.5585156" lon="7.9516185"><ele>409.0</ele><time>2026-04-12T06:56:12.994Z</time></trkpt><trkpt lat="44.5585952" lon="7.9515784"><ele>409.0</ele><time>2026-04-12T06:56:13.994Z</time></trkpt><trkpt lat="44.5586789" lon="7.9515345"><ele>409.0</ele><time>2026-04-12T06:56:14.993Z</time></trkpt><trkpt lat="44.5587699" lon="7.9514863"><ele>409.0</ele><time>2026-04-12T06:56:15.995Z</time></trkpt><trkpt lat="44.5588707" lon="7.9514445"><ele>409.0</ele><time>2026-04-12T06:56:16.994Z</time></trkpt><trkpt lat="44.5589687" lon="7.9514122"><ele>407.2</ele><time>2026-04-12T06:56:17.994Z</time></trkpt><trkpt lat="44.5590725" lon="7.9513883"><ele>405.4</ele><time>2026-04-12T06:56:18.995Z</time></trkpt><trkpt lat="44.5591791" lon="7.9513732"><ele>403.6</ele><time>2026-04-12T06:56:19.995Z</time></trkpt><trkpt lat="44.5592799" lon="7.9513532"><ele>401.8</ele><time>2026-04-12T06:56:20.994Z</time></trkpt><trkpt lat="44.5593726" lon="7.9513387"><ele>400.0</ele><time>2026-04-12T06:56:21.993Z</time></trkpt><trkpt lat="44.5594593" lon="7.9513382"><ele>400.00000000000006</ele><time>2026-04-12T06:56:22.993Z</time></trkpt><trkpt lat="44.5595317" lon="7.9513398"><ele>400.0</ele><time>2026-04-12T06:56:23.995Z</time></trkpt><trkpt lat="44.5596004" lon="7.9513463"><ele>400.0</ele><time>2026-04-12T06:56:24.994Z</time></trkpt><trkpt lat="44.5596653" lon="7.951371"><ele>400.0</ele><time>2026-04-12T06:56:25.993Z</time></trkpt><trkpt lat="44.5597307" lon="7.9514058"><ele>400.00000000000006</ele><time>2026-04-12T06:56:26.994Z</time></trkpt><trkpt lat="44.5597967" lon="7.9514534"><ele>400.0</ele><time>2026-04-12T06:56:27.994Z</time></trkpt><trkpt lat="44.5599013" lon="7.9515059"><ele>397.00000000000006</ele><time>2026-04-12T06:56:29.994Z</time></trkpt><trkpt lat="44.5599777" lon="7.9514928"><ele>394.0</ele><time>2026-04-12T06:56:31.994Z</time></trkpt><trkpt lat="44.560026" lon="7.9514164"><ele>391.0</ele><time>2026-04-12T06:56:34.994Z</time></trkpt><trkpt lat="44.5600972" lon="7.951448"><ele>388.0</ele><time>2026-04-12T06:56:38.993Z</time></trkpt><trkpt lat="44.5601696" lon="7.9515287"><ele>385.0</ele><time>2026-04-12T06:56:41.994Z</time></trkpt><trkpt lat="44.5602233" lon="7.9515983"><ele>382.0</ele><time>2026-04-12T06:56:43.993Z</time></trkpt><trkpt lat="44.5602825" lon="7.9516734"><ele>381.0</ele><time>2026-04-12T06:56:45.994Z</time></trkpt><trkpt lat="44.5603472" lon="7.9517554"><ele>380.0</ele><time>2026-04-12T06:56:47.995Z</time></trkpt><trkpt lat="44.5604157" lon="7.9518345"><ele>379.0</ele><time>2026-04-12T06:56:49.994Z</time></trkpt><trkpt lat="44.5604876" lon="7.9519164"><ele>378.0</ele><time>2026-04-12T06:56:51.994Z</time></trkpt><trkpt lat="44.5605604" lon="7.9519996"><ele>377.0</ele><time>2026-04-12T06:56:53.993Z</time></trkpt><trkpt lat="44.5606369" lon="7.9520834"><ele>377.0</ele><time>2026-04-12T06:56:55.993Z</time></trkpt><trkpt lat="44.560714" lon="7.9521564"><ele>377.0</ele><time>2026-04-12T06:56:57.994Z</time></trkpt><trkpt lat="44.5607887" lon="7.9522337"><ele>377.0</ele><time>2026-04-12T06:56:59.993Z</time></trkpt><trkpt lat="44.5608386" lon="7.9523003"><ele>377.0</ele><time>2026-04-12T06:57:01.994Z</time></trkpt><trkpt lat="44.5608887" lon="7.9523559"><ele>377.0</ele><time>2026-04-12T06:57:03.993Z</time></trkpt><trkpt lat="44.5609429" lon="7.9524141"><ele>377.0</ele><time>2026-04-12T06:57:05.994Z</time></trkpt><trkpt lat="44.5610096" lon="7.9524948"><ele>375.6666666666667</ele><time>2026-04-12T06:57:08.995Z</time></trkpt><trkpt lat="44.5610752" lon="7.9525786"><ele>374.33333333333337</ele><time>2026-04-12T06:57:11.995Z</time></trkpt><trkpt lat="44.5611364" lon="7.9526646"><ele>373.0</ele><time>2026-04-12T06:57:14.993Z</time></trkpt><trkpt lat="44.5612242" lon="7.9527321"><ele>371.6666666666667</ele><time>2026-04-12T06:57:17.993Z</time></trkpt><trkpt lat="44.5613337" lon="7.95275"><ele>370.3333333333333</ele><time>2026-04-12T06:57:19.993Z</time></trkpt><trkpt lat="44.561397" lon="7.9527486"><ele>369.0</ele><time>2026-04-12T06:57:20.994Z</time></trkpt><trkpt lat="44.5615221" lon="7.9527448"><ele>369.0</ele><time>2026-04-12T06:57:22.993Z</time></trkpt><trkpt lat="44.5615894" lon="7.9527477"><ele>369.0</ele><time>2026-04-12T06:57:23.994Z</time></trkpt><trkpt lat="44.5616599" lon="7.9527493"><ele>369.0</ele><time>2026-04-12T06:57:24.994Z</time></trkpt><trkpt lat="44.561785" lon="7.9527484"><ele>369.0</ele><time>2026-04-12T06:57:26.994Z</time></trkpt><trkpt lat="44.5618498" lon="7.9527504"><ele>369.0</ele><time>2026-04-12T06:57:27.994Z</time></trkpt><trkpt lat="44.5619694" lon="7.9527516"><ele>369.0</ele><time>2026-04-12T06:57:29.995Z</time></trkpt><trkpt lat="44.5620504" lon="7.9527529"><ele>367.1428571428571</ele><time>2026-04-12T06:57:31.994Z</time></trkpt><trkpt lat="44.5621159" lon="7.9527371"><ele>365.2857142857143</ele><time>2026-04-12T06:57:34.994Z</time></trkpt><trkpt lat="44.5621824" lon="7.9527739"><ele>363.42857142857144</ele><time>2026-04-12T06:57:39.993Z</time></trkpt><trkpt lat="44.5621863" lon="7.9528715"><ele>361.57142857142856</ele><time>2026-04-12T06:57:43.993Z</time></trkpt><trkpt lat="44.5621951" lon="7.95298"><ele>359.7142857142857</ele><time>2026-04-12T06:57:46.993Z</time></trkpt><trkpt lat="44.56218" lon="7.9530754"><ele>357.85714285714283</ele><time>2026-04-12T06:57:48.994Z</time></trkpt><trkpt lat="44.5621409" lon="7.9531596"><ele>356.0</ele><time>2026-04-12T06:57:50.994Z</time></trkpt><trkpt lat="44.5620792" lon="7.9532337"><ele>356.8</ele><time>2026-04-12T06:57:52.995Z</time></trkpt><trkpt lat="44.5620153" lon="7.9532979"><ele>357.6</ele><time>2026-04-12T06:57:54.993Z</time></trkpt><trkpt lat="44.5619391" lon="7.9533634"><ele>358.4</ele><time>2026-04-12T06:57:56.995Z</time></trkpt><trkpt lat="44.5618574" lon="7.9534333"><ele>359.2</ele><time>2026-04-12T06:57:58.994Z</time></trkpt><trkpt lat="44.5617719" lon="7.953522"><ele>360.0</ele><time>2026-04-12T06:58:00.994Z</time></trkpt><trkpt lat="44.5616993" lon="7.9536178"><ele>360.0</ele><time>2026-04-12T06:58:02.993Z</time></trkpt><trkpt lat="44.5616603" lon="7.9537363"><ele>360.0</ele><time>2026-04-12T06:58:04.994Z</time></trkpt><trkpt lat="44.5616511" lon="7.953867"><ele>360.0</ele><time>2026-04-12T06:58:06.993Z</time></trkpt><trkpt lat="44.5616412" lon="7.9539911"><ele>360.0</ele><time>2026-04-12T06:58:08.994Z</time></trkpt><trkpt lat="44.561633" lon="7.9541181"><ele>360.0</ele><time>2026-04-12T06:58:10.993Z</time></trkpt><trkpt lat="44.5616284" lon="7.9542545"><ele>359.6</ele><time>2026-04-12T06:58:12.994Z</time></trkpt><trkpt lat="44.5616238" lon="7.9544025"><ele>359.2</ele><time>2026-04-12T06:58:14.994Z</time></trkpt><trkpt lat="44.5616231" lon="7.9545654"><ele>358.79999999999995</ele><time>2026-04-12T06:58:16.993Z</time></trkpt><trkpt lat="44.5616205" lon="7.9547065"><ele>358.4</ele><time>2026-04-12T06:58:18.995Z</time></trkpt><trkpt lat="44.5616175" lon="7.9548309"><ele>358.0</ele><time>2026-04-12T06:58:20.994Z</time></trkpt><trkpt lat="44.5616149" lon="7.9549443"><ele>359.0</ele><time>2026-04-12T06:58:22.995Z</time></trkpt><trkpt lat="44.5616116" lon="7.9550573"><ele>360.0</ele><time>2026-04-12T06:58:24.995Z</time></trkpt><trkpt lat="44.5616096" lon="7.9551709"><ele>361.0</ele><time>2026-04-12T06:58:26.994Z</time></trkpt><trkpt lat="44.5616073" lon="7.9552803"><ele>362.0</ele><time>2026-04-12T06:58:28.994Z</time></trkpt><trkpt lat="44.5616075" lon="7.9553826"><ele>363.0</ele><time>2026-04-12T06:58:30.994Z</time></trkpt><trkpt lat="44.5616212" lon="7.9554808"><ele>364.0</ele><time>2026-04-12T06:58:32.993Z</time></trkpt><trkpt lat="44.5616261" lon="7.9555817"><ele>364.0</ele><time>2026-04-12T06:58:34.994Z</time></trkpt><trkpt lat="44.5616215" lon="7.9556721"><ele>364.0</ele><time>2026-04-12T06:58:36.994Z</time></trkpt><trkpt lat="44.5616197" lon="7.9557916"><ele>364.0</ele><time>2026-04-12T06:58:39.994Z</time></trkpt><trkpt lat="44.5615987" lon="7.9558871"><ele>364.0</ele><time>2026-04-12T06:58:42.994Z</time></trkpt><trkpt lat="44.5615289" lon="7.9559294"><ele>364.0</ele><time>2026-04-12T06:58:46.994Z</time></trkpt><trkpt lat="44.561456" lon="7.9558851"><ele>364.0</ele><time>2026-04-12T06:58:50.993Z</time></trkpt><trkpt lat="44.5614119" lon="7.955804"><ele>364.0</ele><time>2026-04-12T06:58:54.995Z</time></trkpt><trkpt lat="44.5613611" lon="7.9557147"><ele>364.0</ele><time>2026-04-12T06:58:58.994Z</time></trkpt><trkpt lat="44.561311" lon="7.955657"><ele>364.0</ele><time>2026-04-12T06:59:02.994Z</time></trkpt><trkpt lat="44.5612382" lon="7.9556235"><ele>364.0</ele><time>2026-04-12T06:59:06.994Z</time></trkpt><trkpt lat="44.5611705" lon="7.9556653"><ele>364.0</ele><time>2026-04-12T06:59:10.994Z</time></trkpt><trkpt lat="44.5611162" lon="7.9557339"><ele>364.0</ele><time>2026-04-12T06:59:14.994Z</time></trkpt><trkpt lat="44.5610744" lon="7.9558169"><ele>364.0</ele><time>2026-04-12T06:59:18.994Z</time></trkpt><trkpt lat="44.5610402" lon="7.9558967"><ele>364.0</ele><time>2026-04-12T06:59:22.993Z</time></trkpt><trkpt lat="44.5609966" lon="7.9559659"><ele>364.7142857142857</ele><time>2026-04-12T06:59:26.993Z</time></trkpt><trkpt lat="44.5609525" lon="7.9560541"><ele>365.42857142857144</ele><time>2026-04-12T06:59:31.995Z</time></trkpt><trkpt lat="44.5609053" lon="7.9561201"><ele>366.1428571428571</ele><time>2026-04-12T06:59:35.994Z</time></trkpt><trkpt lat="44.5608564" lon="7.9561795"><ele>366.8571428571429</ele><time>2026-04-12T06:59:39.994Z</time></trkpt><trkpt lat="44.560811" lon="7.9562474"><ele>367.57142857142856</ele><time>2026-04-12T06:59:43.994Z</time></trkpt><trkpt lat="44.5607474" lon="7.9562963"><ele>368.2857142857143</ele><time>2026-04-12T06:59:47.995Z</time></trkpt><trkpt lat="44.5606823" lon="7.95635"><ele>369.0</ele><time>2026-04-12T06:59:52.994Z</time></trkpt><trkpt lat="44.5606128" lon="7.9563859"><ele>369.0</ele><time>2026-04-12T06:59:57.994Z</time></trkpt><trkpt lat="44.5605525" lon="7.956428"><ele>369.0</ele><time>2026-04-12T07:00:01.993Z</time></trkpt><trkpt lat="44.5604948" lon="7.9564665"><ele>369.0</ele><time>2026-04-12T07:00:05.994Z</time></trkpt><trkpt lat="44.560436" lon="7.9565021"><ele>369.0</ele><time>2026-04-12T07:00:09.994Z</time></trkpt><trkpt lat="44.560375" lon="7.9565358"><ele>369.0</ele><time>2026-04-12T07:00:13.994Z</time></trkpt><trkpt lat="44.5603158" lon="7.9565773"><ele>369.0</ele><time>2026-04-12T07:00:17.994Z</time></trkpt><trkpt lat="44.5602585" lon="7.9566285"><ele>369.0</ele><time>2026-04-12T07:00:21.994Z</time></trkpt><trkpt lat="44.5601994" lon="7.9566964"><ele>372.2857142857143</ele><time>2026-04-12T07:00:25.994Z</time></trkpt><trkpt lat="44.5601519" lon="7.9567646"><ele>375.57142857142856</ele><time>2026-04-12T07:00:29.993Z</time></trkpt><trkpt lat="44.5601065" lon="7.9568364"><ele>378.8571428571429</ele><time>2026-04-12T07:00:33.994Z</time></trkpt><trkpt lat="44.560069" lon="7.9569102"><ele>382.1428571428571</ele><time>2026-04-12T07:00:37.994Z</time></trkpt><trkpt lat="44.560015" lon="7.9569881"><ele>385.42857142857144</ele><time>2026-04-12T07:00:41.994Z</time></trkpt><trkpt lat="44.5599672" lon="7.9570681"><ele>388.7142857142857</ele><time>2026-04-12T07:00:45.993Z</time></trkpt><trkpt lat="44.5599443" lon="7.9571537"><ele>392.0</ele><time>2026-04-12T07:00:49.994Z</time></trkpt><trkpt lat="44.5599187" lon="7.9572477"><ele>392.0</ele><time>2026-04-12T07:00:53.994Z</time></trkpt><trkpt lat="44.559893" lon="7.9573579"><ele>392.0</ele><time>2026-04-12T07:00:58.994Z</time></trkpt><trkpt lat="44.5598603" lon="7.957448"><ele>392.0</ele><time>2026-04-12T07:01:02.993Z</time></trkpt><trkpt lat="44.559843" lon="7.9575514"><ele>392.0</ele><time>2026-04-12T07:01:06.995Z</time></trkpt><trkpt lat="44.5598322" lon="7.9576572"><ele>392.0</ele><time>2026-04-12T07:01:10.994Z</time></trkpt><trkpt lat="44.5598228" lon="7.9577531"><ele>392.0</ele><time>2026-04-12T07:01:14.993Z</time></trkpt><trkpt lat="44.5598456" lon="7.9578449"><ele>392.0</ele><time>2026-04-12T07:01:18.994Z</time></trkpt><trkpt lat="44.5598867" lon="7.9579384"><ele>393.42857142857144</ele><time>2026-04-12T07:01:22.994Z</time></trkpt><trkpt lat="44.5599258" lon="7.9580158"><ele>394.8571428571429</ele><time>2026-04-12T07:01:25.995Z</time></trkpt><trkpt lat="44.5599708" lon="7.9581046"><ele>396.2857142857143</ele><time>2026-04-12T07:01:29.995Z</time></trkpt><trkpt lat="44.5600316" lon="7.9581611"><ele>397.7142857142857</ele><time>2026-04-12T07:01:33.994Z</time></trkpt><trkpt lat="44.5600915" lon="7.9582139"><ele>399.14285714285717</ele><time>2026-04-12T07:01:37.993Z</time></trkpt><trkpt lat="44.5601493" lon="7.9582944"><ele>400.57142857142856</ele><time>2026-04-12T07:01:41.994Z</time></trkpt><trkpt lat="44.5602067" lon="7.9583404"><ele>402.0</ele><time>2026-04-12T07:01:44.994Z</time></trkpt><trkpt lat="44.5602764" lon="7.9583922"><ele>400.85714285714283</ele><time>2026-04-12T07:01:48.994Z</time></trkpt><trkpt lat="44.5603215" lon="7.9584721"><ele>399.7142857142857</ele><time>2026-04-12T07:01:52.994Z</time></trkpt><trkpt lat="44.5603722" lon="7.9585279"><ele>398.57142857142856</ele><time>2026-04-12T07:01:56.995Z</time></trkpt><trkpt lat="44.5604186" lon="7.9586012"><ele>397.42857142857144</ele><time>2026-04-12T07:02:00.994Z</time></trkpt><trkpt lat="44.5604643" lon="7.9587006"><ele>396.28571428571433</ele><time>2026-04-12T07:02:04.994Z</time></trkpt><trkpt lat="44.5605019" lon="7.9587825"><ele>395.14285714285717</ele><time>2026-04-12T07:02:07.995Z</time></trkpt><trkpt lat="44.5605147" lon="7.9588828"><ele>394.0</ele><time>2026-04-12T07:02:10.994Z</time></trkpt><trkpt lat="44.5605289" lon="7.9589965"><ele>394.0</ele><time>2026-04-12T07:02:14.993Z</time></trkpt><trkpt lat="44.5605407" lon="7.9590921"><ele>394.0</ele><time>2026-04-12T07:02:18.994Z</time></trkpt><trkpt lat="44.5605481" lon="7.9591893"><ele>394.0</ele><time>2026-04-12T07:02:22.995Z</time></trkpt><trkpt lat="44.5605563" lon="7.9592976"><ele>394.0</ele><time>2026-04-12T07:02:26.994Z</time></trkpt><trkpt lat="44.5605649" lon="7.9593991"><ele>394.0</ele><time>2026-04-12T07:02:30.994Z</time></trkpt><trkpt lat="44.5605799" lon="7.9594955"><ele>394.0</ele><time>2026-04-12T07:02:34.994Z</time></trkpt><trkpt lat="44.5605824" lon="7.9595944"><ele>394.0</ele><time>2026-04-12T07:02:38.994Z</time></trkpt><trkpt lat="44.5605768" lon="7.9596945"><ele>394.57142857142856</ele><time>2026-04-12T07:02:43.993Z</time></trkpt><trkpt lat="44.5605656" lon="7.9597901"><ele>395.14285714285717</ele><time>2026-04-12T07:02:47.994Z</time></trkpt><trkpt lat="44.560552" lon="7.9598865"><ele>395.71428571428567</ele><time>2026-04-12T07:02:51.994Z</time></trkpt><trkpt lat="44.5605228" lon="7.9599678"><ele>396.2857142857143</ele><time>2026-04-12T07:02:55.994Z</time></trkpt><trkpt lat="44.5604828" lon="7.9600475"><ele>396.85714285714283</ele><time>2026-04-12T07:03:00.994Z</time></trkpt><trkpt lat="44.5604459" lon="7.9601415"><ele>397.4285714285714</ele><time>2026-04-12T07:03:06.994Z</time></trkpt><trkpt lat="44.5604081" lon="7.960234"><ele>398.0</ele><time>2026-04-12T07:03:11.994Z</time></trkpt><trkpt lat="44.5603933" lon="7.9603219"><ele>397.99999999999994</ele><time>2026-04-12T07:03:15.993Z</time></trkpt><trkpt lat="44.5603772" lon="7.9604224"><ele>398.0</ele><time>2026-04-12T07:03:20.993Z</time></trkpt><trkpt lat="44.5603564" lon="7.9605228"><ele>398.0</ele><time>2026-04-12T07:03:25.994Z</time></trkpt><trkpt lat="44.5603257" lon="7.9606091"><ele>398.0</ele><time>2026-04-12T07:03:29.995Z</time></trkpt><trkpt lat="44.5602769" lon="7.9606828"><ele>398.0</ele><time>2026-04-12T07:03:33.994Z</time></trkpt><trkpt lat="44.560229" lon="7.960745"><ele>397.99999999999994</ele><time>2026-04-12T07:03:37.995Z</time></trkpt><trkpt lat="44.5601859" lon="7.9608286"><ele>398.0</ele><time>2026-04-12T07:03:42.994Z</time></trkpt><trkpt lat="44.5601424" lon="7.9609"><ele>400.99999999999994</ele><time>2026-04-12T07:03:46.993Z</time></trkpt><trkpt lat="44.5601055" lon="7.9609938"><ele>404.0</ele><time>2026-04-12T07:03:51.994Z</time></trkpt><trkpt lat="44.5600999" lon="7.961085"><ele>407.0</ele><time>2026-04-12T07:03:55.994Z</time></trkpt><trkpt lat="44.5600962" lon="7.9611732"><ele>410.0</ele><time>2026-04-12T07:03:59.994Z</time></trkpt><trkpt lat="44.5601001" lon="7.9612771"><ele>413.0</ele><time>2026-04-12T07:04:04.994Z</time></trkpt><trkpt lat="44.560111" lon="7.9613799"><ele>415.99999999999994</ele><time>2026-04-12T07:04:09.995Z</time></trkpt><trkpt lat="44.5601227" lon="7.9614746"><ele>419.0</ele><time>2026-04-12T07:04:14.993Z</time></trkpt><trkpt lat="44.5601312" lon="7.9615665"><ele>418.99999999999994</ele><time>2026-04-12T07:04:19.993Z</time></trkpt><trkpt lat="44.5601247" lon="7.9616638"><ele>419.0</ele><time>2026-04-12T07:04:24.993Z</time></trkpt><trkpt lat="44.5600961" lon="7.9617507"><ele>419.0</ele><time>2026-04-12T07:04:29.993Z</time></trkpt><trkpt lat="44.5600808" lon="7.9618366"><ele>419.0</ele><time>2026-04-12T07:04:33.993Z</time></trkpt><trkpt lat="44.5600822" lon="7.9619325"><ele>419.0</ele><time>2026-04-12T07:04:38.994Z</time></trkpt><trkpt lat="44.5600734" lon="7.9620253"><ele>418.99999999999994</ele><time>2026-04-12T07:04:43.994Z</time></trkpt><trkpt lat="44.5600653" lon="7.9621285"><ele>419.0</ele><time>2026-04-12T07:04:49.993Z</time></trkpt><trkpt lat="44.5600432" lon="7.962223"><ele>419.71428571428567</ele><time>2026-04-12T07:04:55.995Z</time></trkpt><trkpt lat="44.5600564" lon="7.9623257"><ele>420.42857142857144</ele><time>2026-04-12T07:05:01.993Z</time></trkpt><trkpt lat="44.5600654" lon="7.9624296"><ele>421.1428571428571</ele><time>2026-04-12T07:05:06.994Z</time></trkpt><trkpt lat="44.5600678" lon="7.962522"><ele>421.85714285714283</ele><time>2026-04-12T07:05:11.994Z</time></trkpt><trkpt lat="44.5600908" lon="7.9626188"><ele>422.57142857142856</ele><time>2026-04-12T07:05:16.994Z</time></trkpt><trkpt lat="44.560103" lon="7.9627203"><ele>423.2857142857143</ele><time>2026-04-12T07:05:21.993Z</time></trkpt><trkpt lat="44.5601181" lon="7.9628191"><ele>424.0</ele><time>2026-04-12T07:05:26.994Z</time></trkpt><trkpt lat="44.5601281" lon="7.9629226"><ele>424.7142857142857</ele><time>2026-04-12T07:05:31.994Z</time></trkpt><trkpt lat="44.5601426" lon="7.9630208"><ele>425.4285714285714</ele><time>2026-04-12T07:05:36.993Z</time></trkpt><trkpt lat="44.5601706" lon="7.9631194"><ele>426.1428571428571</ele><time>2026-04-12T07:05:42.994Z</time></trkpt><trkpt lat="44.5601997" lon="7.9632139"><ele>426.8571428571429</ele><time>2026-04-12T07:05:47.995Z</time></trkpt><trkpt lat="44.5602197" lon="7.9633117"><ele>427.57142857142856</ele><time>2026-04-12T07:05:52.993Z</time></trkpt><trkpt lat="44.5602442" lon="7.96341"><ele>428.2857142857143</ele><time>2026-04-12T07:05:57.994Z</time></trkpt><trkpt lat="44.5602861" lon="7.9634973"><ele>429.0</ele><time>2026-04-12T07:06:02.994Z</time></trkpt><trkpt lat="44.5603262" lon="7.9635725"><ele>429.0</ele><time>2026-04-12T07:06:06.993Z</time></trkpt><trkpt lat="44.5603661" lon="7.9636473"><ele>429.0</ele><time>2026-04-12T07:06:10.993Z</time></trkpt><trkpt lat="44.5604129" lon="7.9637121"><ele>429.0</ele><time>2026-04-12T07:06:14.993Z</time></trkpt><trkpt lat="44.5604717" lon="7.9637726"><ele>429.0</ele><time>2026-04-12T07:06:18.994Z</time></trkpt><trkpt lat="44.560535" lon="7.9638314"><ele>429.0</ele><time>2026-04-12T07:06:22.994Z</time></trkpt><trkpt lat="44.5606055" lon="7.96389"><ele>429.0</ele><time>2026-04-12T07:06:26.993Z</time></trkpt><trkpt lat="44.5606603" lon="7.9639437"><ele>429.0</ele><time>2026-04-12T07:06:29.994Z</time></trkpt><trkpt lat="44.5607169" lon="7.9639947"><ele>429.42857142857144</ele><time>2026-04-12T07:06:32.994Z</time></trkpt><trkpt lat="44.5607776" lon="7.9640421"><ele>429.8571428571429</ele><time>2026-04-12T07:06:35.993Z</time></trkpt><trkpt lat="44.560835" lon="7.9640824"><ele>430.2857142857143</ele><time>2026-04-12T07:06:38.994Z</time></trkpt><trkpt lat="44.5608952" lon="7.9641221"><ele>430.7142857142857</ele><time>2026-04-12T07:06:41.993Z</time></trkpt><trkpt lat="44.5609718" lon="7.9641663"><ele>431.1428571428571</ele><time>2026-04-12T07:06:45.994Z</time></trkpt><trkpt lat="44.5610376" lon="7.9641951"><ele>431.57142857142856</ele><time>2026-04-12T07:06:48.994Z</time></trkpt><trkpt lat="44.5611094" lon="7.96423"><ele>432.0</ele><time>2026-04-12T07:06:51.994Z</time></trkpt><trkpt lat="44.56119" lon="7.9642651"><ele>431.0</ele><time>2026-04-12T07:06:54.994Z</time></trkpt><trkpt lat="44.5612688" lon="7.9642977"><ele>430.0</ele><time>2026-04-12T07:06:57.993Z</time></trkpt><trkpt lat="44.5613486" lon="7.9643185"><ele>429.0</ele><time>2026-04-12T07:07:00.994Z</time></trkpt><trkpt lat="44.5614354" lon="7.9643378"><ele>428.0</ele><time>2026-04-12T07:07:03.994Z</time></trkpt><trkpt lat="44.5615251" lon="7.9643485"><ele>427.0</ele><time>2026-04-12T07:07:06.994Z</time></trkpt><trkpt lat="44.5615889" lon="7.9643541"><ele>426.0</ele><time>2026-04-12T07:07:08.993Z</time></trkpt><trkpt lat="44.5616529" lon="7.9643586"><ele>426.0</ele><time>2026-04-12T07:07:10.994Z</time></trkpt><trkpt lat="44.5617189" lon="7.9643597"><ele>426.0</ele><time>2026-04-12T07:07:12.994Z</time></trkpt><trkpt lat="44.5617835" lon="7.9643462"><ele>426.0</ele><time>2026-04-12T07:07:14.995Z</time></trkpt><trkpt lat="44.5618569" lon="7.9643333"><ele>426.0</ele><time>2026-04-12T07:07:16.993Z</time></trkpt><trkpt lat="44.5619373" lon="7.9643213"><ele>426.0</ele><time>2026-04-12T07:07:18.994Z</time></trkpt><trkpt lat="44.5620242" lon="7.9643069"><ele>426.0</ele><time>2026-04-12T07:07:20.994Z</time></trkpt><trkpt lat="44.5621125" lon="7.9642855"><ele>425.6</ele><time>2026-04-12T07:07:22.993Z</time></trkpt><trkpt lat="44.5622122" lon="7.9642593"><ele>425.20000000000005</ele><time>2026-04-12T07:07:24.994Z</time></trkpt><trkpt lat="44.562306" lon="7.9642309"><ele>424.79999999999995</ele><time>2026-04-12T07:07:26.994Z</time></trkpt><trkpt lat="44.5624011" lon="7.9642132"><ele>424.4</ele><time>2026-04-12T07:07:28.994Z</time></trkpt><trkpt lat="44.5625008" lon="7.9641962"><ele>424.0</ele><time>2026-04-12T07:07:30.993Z</time></trkpt><trkpt lat="44.5626008" lon="7.9641754"><ele>424.0</ele><time>2026-04-12T07:07:32.994Z</time></trkpt><trkpt lat="44.5627001" lon="7.9641509"><ele>424.0</ele><time>2026-04-12T07:07:34.993Z</time></trkpt><trkpt lat="44.5628004" lon="7.9641165"><ele>424.0</ele><time>2026-04-12T07:07:36.993Z</time></trkpt><trkpt lat="44.562899" lon="7.9640712"><ele>424.0</ele><time>2026-04-12T07:07:38.994Z</time></trkpt><trkpt lat="44.5629971" lon="7.9640211"><ele>424.0</ele><time>2026-04-12T07:07:40.994Z</time></trkpt><trkpt lat="44.5630919" lon="7.9639643"><ele>422.6</ele><time>2026-04-12T07:07:42.993Z</time></trkpt><trkpt lat="44.5631854" lon="7.9639056"><ele>421.2</ele><time>2026-04-12T07:07:44.993Z</time></trkpt><trkpt lat="44.5632758" lon="7.9638278"><ele>419.8</ele><time>2026-04-12T07:07:46.993Z</time></trkpt><trkpt lat="44.563353" lon="7.9637391"><ele>418.40000000000003</ele><time>2026-04-12T07:07:48.996Z</time></trkpt><trkpt lat="44.5634311" lon="7.9636678"><ele>417.0</ele><time>2026-04-12T07:07:50.995Z</time></trkpt><trkpt lat="44.5635279" lon="7.9636577"><ele>417.0</ele><time>2026-04-12T07:07:52.994Z</time></trkpt><trkpt lat="44.5635812" lon="7.9637065"><ele>417.0</ele><time>2026-04-12T07:07:53.995Z</time></trkpt><trkpt lat="44.5636312" lon="7.9637656"><ele>417.0</ele><time>2026-04-12T07:07:54.994Z</time></trkpt><trkpt lat="44.5636993" lon="7.9638231"><ele>417.0</ele><time>2026-04-12T07:07:55.993Z</time></trkpt><trkpt lat="44.5637664" lon="7.963882"><ele>417.0</ele><time>2026-04-12T07:07:56.995Z</time></trkpt><trkpt lat="44.5638279" lon="7.9639329"><ele>417.0</ele><time>2026-04-12T07:07:57.995Z</time></trkpt><trkpt lat="44.5638909" lon="7.9639858"><ele>417.0</ele><time>2026-04-12T07:07:58.994Z</time></trkpt><trkpt lat="44.5639452" lon="7.9640531"><ele>416.3333333333333</ele><time>2026-04-12T07:07:59.994Z</time></trkpt><trkpt lat="44.564038" lon="7.9641904"><ele>415.66666666666663</ele><time>2026-04-12T07:08:01.993Z</time></trkpt><trkpt lat="44.5640855" lon="7.9642659"><ele>415.0</ele><time>2026-04-12T07:08:02.994Z</time></trkpt><trkpt lat="44.5641287" lon="7.964348"><ele>414.3333333333333</ele><time>2026-04-12T07:08:03.994Z</time></trkpt><trkpt lat="44.5641695" lon="7.9644306"><ele>413.66666666666663</ele><time>2026-04-12T07:08:04.994Z</time></trkpt><trkpt lat="44.5641967" lon="7.964512"><ele>413.0</ele><time>2026-04-12T07:08:05.993Z</time></trkpt><trkpt lat="44.5642168" lon="7.9646495"><ele>412.99999999999994</ele><time>2026-04-12T07:08:07.994Z</time></trkpt><trkpt lat="44.5642207" lon="7.9647514"><ele>413.0</ele><time>2026-04-12T07:08:10.994Z</time></trkpt><trkpt lat="44.5642729" lon="7.9648518"><ele>413.0</ele><time>2026-04-12T07:08:13.993Z</time></trkpt><trkpt lat="44.5643367" lon="7.9649436"><ele>413.0</ele><time>2026-04-12T07:08:16.994Z</time></trkpt><trkpt lat="44.5643775" lon="7.9650186"><ele>412.99999999999994</ele><time>2026-04-12T07:08:18.994Z</time></trkpt><trkpt lat="44.5644193" lon="7.9650964"><ele>413.0</ele><time>2026-04-12T07:08:20.994Z</time></trkpt><trkpt lat="44.5644659" lon="7.9651747"><ele>413.57142857142856</ele><time>2026-04-12T07:08:22.994Z</time></trkpt><trkpt lat="44.5645129" lon="7.9652491"><ele>414.1428571428571</ele><time>2026-04-12T07:08:24.993Z</time></trkpt><trkpt lat="44.5645653" lon="7.965321"><ele>414.7142857142857</ele><time>2026-04-12T07:08:26.993Z</time></trkpt><trkpt lat="44.5646163" lon="7.9653912"><ele>415.2857142857143</ele><time>2026-04-12T07:08:28.994Z</time></trkpt><trkpt lat="44.5646665" lon="7.9654614"><ele>415.85714285714283</ele><time>2026-04-12T07:08:30.993Z</time></trkpt><trkpt lat="44.5647203" lon="7.9655295"><ele>416.42857142857144</ele><time>2026-04-12T07:08:32.993Z</time></trkpt><trkpt lat="44.564778" lon="7.9655961"><ele>417.0</ele><time>2026-04-12T07:08:34.993Z</time></trkpt><trkpt lat="44.5648343" lon="7.9656564"><ele>416.14285714285717</ele><time>2026-04-12T07:08:36.993Z</time></trkpt><trkpt lat="44.5648878" lon="7.9657204"><ele>415.2857142857143</ele><time>2026-04-12T07:08:38.993Z</time></trkpt><trkpt lat="44.5649376" lon="7.9657905"><ele>414.42857142857144</ele><time>2026-04-12T07:08:40.993Z</time></trkpt><trkpt lat="44.5649823" lon="7.9658723"><ele>413.57142857142856</ele><time>2026-04-12T07:08:42.993Z</time></trkpt><trkpt lat="44.5650143" lon="7.9659662"><ele>412.71428571428567</ele><time>2026-04-12T07:08:44.994Z</time></trkpt><trkpt lat="44.5650358" lon="7.9660754"><ele>411.85714285714283</ele><time>2026-04-12T07:08:46.993Z</time></trkpt><trkpt lat="44.56505" lon="7.9661846"><ele>411.0</ele><time>2026-04-12T07:08:48.993Z</time></trkpt><trkpt lat="44.5650515" lon="7.9662968"><ele>411.0</ele><time>2026-04-12T07:08:50.994Z</time></trkpt><trkpt lat="44.5650504" lon="7.9664058"><ele>411.0</ele><time>2026-04-12T07:08:52.993Z</time></trkpt><trkpt lat="44.5650501" lon="7.9665177"><ele>411.0</ele><time>2026-04-12T07:08:54.993Z</time></trkpt><trkpt lat="44.5650517" lon="7.9666303"><ele>411.0</ele><time>2026-04-12T07:08:56.994Z</time></trkpt><trkpt lat="44.5650514" lon="7.9667383"><ele>411.0</ele><time>2026-04-12T07:08:58.993Z</time></trkpt><trkpt lat="44.5650523" lon="7.9668434"><ele>411.0</ele><time>2026-04-12T07:09:00.993Z</time></trkpt><trkpt lat="44.5650533" lon="7.9669457"><ele>411.42857142857144</ele><time>2026-04-12T07:09:02.994Z</time></trkpt><trkpt lat="44.5650529" lon="7.9670471"><ele>411.85714285714283</ele><time>2026-04-12T07:09:04.993Z</time></trkpt><trkpt lat="44.5650534" lon="7.9671468"><ele>412.28571428571433</ele><time>2026-04-12T07:09:06.993Z</time></trkpt><trkpt lat="44.5650552" lon="7.9672475"><ele>412.7142857142857</ele><time>2026-04-12T07:09:08.993Z</time></trkpt><trkpt lat="44.5650589" lon="7.9673473"><ele>413.14285714285717</ele><time>2026-04-12T07:09:10.993Z</time></trkpt><trkpt lat="44.5650675" lon="7.9674483"><ele>413.5714285714286</ele><time>2026-04-12T07:09:12.993Z</time></trkpt><trkpt lat="44.5650892" lon="7.9675475"><ele>414.0</ele><time>2026-04-12T07:09:14.993Z</time></trkpt><trkpt lat="44.5651164" lon="7.9676445"><ele>413.3333333333333</ele><time>2026-04-12T07:09:16.994Z</time></trkpt><trkpt lat="44.5651534" lon="7.9677393"><ele>412.66666666666663</ele><time>2026-04-12T07:09:18.993Z</time></trkpt><trkpt lat="44.5651979" lon="7.967825"><ele>412.0</ele><time>2026-04-12T07:09:20.994Z</time></trkpt><trkpt lat="44.565251" lon="7.9679012"><ele>411.3333333333333</ele><time>2026-04-12T07:09:22.993Z</time></trkpt><trkpt lat="44.5653088" lon="7.9679696"><ele>410.66666666666663</ele><time>2026-04-12T07:09:24.993Z</time></trkpt><trkpt lat="44.5653706" lon="7.9680286"><ele>410.0</ele><time>2026-04-12T07:09:26.993Z</time></trkpt><trkpt lat="44.5654355" lon="7.9680868"><ele>409.99999999999994</ele><time>2026-04-12T07:09:28.993Z</time></trkpt><trkpt lat="44.5655032" lon="7.9681452"><ele>410.0</ele><time>2026-04-12T07:09:30.993Z</time></trkpt><trkpt lat="44.5655749" lon="7.9682041"><ele>410.0</ele><time>2026-04-12T07:09:32.993Z</time></trkpt><trkpt lat="44.5656508" lon="7.9682603"><ele>410.0</ele><time>2026-04-12T07:09:34.994Z</time></trkpt><trkpt lat="44.5657299" lon="7.9683095"><ele>409.99999999999994</ele><time>2026-04-12T07:09:36.993Z</time></trkpt><trkpt lat="44.5658099" lon="7.9683553"><ele>410.0</ele><time>2026-04-12T07:09:38.993Z</time></trkpt><trkpt lat="44.5658915" lon="7.9683981"><ele>411.8333333333333</ele><time>2026-04-12T07:09:40.993Z</time></trkpt><trkpt lat="44.5659727" lon="7.9684406"><ele>413.66666666666663</ele><time>2026-04-12T07:09:42.993Z</time></trkpt><trkpt lat="44.5660555" lon="7.9684802"><ele>415.5</ele><time>2026-04-12T07:09:44.993Z</time></trkpt><trkpt lat="44.5661398" lon="7.9685169"><ele>417.33333333333337</ele><time>2026-04-12T07:09:46.994Z</time></trkpt><trkpt lat="44.5662286" lon="7.9685463"><ele>419.1666666666667</ele><time>2026-04-12T07:09:48.994Z</time></trkpt><trkpt lat="44.5663162" lon="7.9685567"><ele>421.0</ele><time>2026-04-12T07:09:50.993Z</time></trkpt><trkpt lat="44.5664125" lon="7.9685567"><ele>421.0</ele><time>2026-04-12T07:09:52.994Z</time></trkpt><trkpt lat="44.5665097" lon="7.9685435"><ele>421.0</ele><time>2026-04-12T07:09:54.993Z</time></trkpt><trkpt lat="44.5666097" lon="7.9685192"><ele>421.0</ele><time>2026-04-12T07:09:56.993Z</time></trkpt><trkpt lat="44.5667158" lon="7.9684851"><ele>421.0</ele><time>2026-04-12T07:09:58.995Z</time></trkpt><trkpt lat="44.5668159" lon="7.9684438"><ele>421.0</ele><time>2026-04-12T07:10:00.994Z</time></trkpt><trkpt lat="44.566924" lon="7.9684079"><ele>421.0</ele><time>2026-04-12T07:10:02.994Z</time></trkpt><trkpt lat="44.5670231" lon="7.9683684"><ele>421.0</ele><time>2026-04-12T07:10:04.994Z</time></trkpt><trkpt lat="44.5671233" lon="7.9683194"><ele>421.0</ele><time>2026-04-12T07:10:06.995Z</time></trkpt><trkpt lat="44.5672222" lon="7.968267"><ele>421.0</ele><time>2026-04-12T07:10:08.993Z</time></trkpt><trkpt lat="44.567325" lon="7.9682112"><ele>421.0</ele><time>2026-04-12T07:10:10.994Z</time></trkpt><trkpt lat="44.5674228" lon="7.9681525"><ele>420.20000000000005</ele><time>2026-04-12T07:10:12.993Z</time></trkpt><trkpt lat="44.5675163" lon="7.9680852"><ele>419.40000000000003</ele><time>2026-04-12T07:10:14.993Z</time></trkpt><trkpt lat="44.5676056" lon="7.9680268"><ele>418.6</ele><time>2026-04-12T07:10:16.994Z</time></trkpt><trkpt lat="44.5676982" lon="7.9679587"><ele>417.8</ele><time>2026-04-12T07:10:18.994Z</time></trkpt><trkpt lat="44.5677933" lon="7.967897"><ele>417.0</ele><time>2026-04-12T07:10:20.993Z</time></trkpt><trkpt lat="44.5678957" lon="7.9678523"><ele>417.0</ele><time>2026-04-12T07:10:22.994Z</time></trkpt><trkpt lat="44.5680017" lon="7.9678321"><ele>417.0</ele><time>2026-04-12T07:10:24.994Z</time></trkpt><trkpt lat="44.5681085" lon="7.9678111"><ele>417.0</ele><time>2026-04-12T07:10:26.993Z</time></trkpt><trkpt lat="44.5682104" lon="7.9678115"><ele>417.0</ele><time>2026-04-12T07:10:28.994Z</time></trkpt><trkpt lat="44.568307" lon="7.9678242"><ele>417.0</ele><time>2026-04-12T07:10:30.993Z</time></trkpt><trkpt lat="44.5684143" lon="7.9678447"><ele>417.0</ele><time>2026-04-12T07:10:32.993Z</time></trkpt><trkpt lat="44.5685159" lon="7.9678726"><ele>417.0</ele><time>2026-04-12T07:10:34.993Z</time></trkpt><trkpt lat="44.5686157" lon="7.9679111"><ele>417.0</ele><time>2026-04-12T07:10:36.994Z</time></trkpt><trkpt lat="44.5687127" lon="7.9679491"><ele>417.0</ele><time>2026-04-12T07:10:38.993Z</time></trkpt><trkpt lat="44.5688167" lon="7.9679788"><ele>417.0</ele><time>2026-04-12T07:10:40.994Z</time></trkpt><trkpt lat="44.568912" lon="7.9680081"><ele>415.6666666666667</ele><time>2026-04-12T07:10:42.994Z</time></trkpt><trkpt lat="44.5689971" lon="7.9680451"><ele>414.33333333333337</ele><time>2026-04-12T07:10:44.995Z</time></trkpt><trkpt lat="44.5690767" lon="7.9680692"><ele>413.0</ele><time>2026-04-12T07:10:46.995Z</time></trkpt><trkpt lat="44.5691528" lon="7.9680936"><ele>411.6666666666667</ele><time>2026-04-12T07:10:48.994Z</time></trkpt><trkpt lat="44.569235" lon="7.9681157"><ele>410.33333333333337</ele><time>2026-04-12T07:10:50.993Z</time></trkpt><trkpt lat="44.5693067" lon="7.9681512"><ele>409.0</ele><time>2026-04-12T07:10:52.994Z</time></trkpt><trkpt lat="44.5693788" lon="7.9681856"><ele>409.0</ele><time>2026-04-12T07:10:54.994Z</time></trkpt><trkpt lat="44.5694491" lon="7.9682163"><ele>409.0</ele><time>2026-04-12T07:10:56.994Z</time></trkpt><trkpt lat="44.5695183" lon="7.9682354"><ele>409.0</ele><time>2026-04-12T07:10:58.995Z</time></trkpt><trkpt lat="44.5695875" lon="7.9682495"><ele>409.0</ele><time>2026-04-12T07:11:00.994Z</time></trkpt><trkpt lat="44.5696532" lon="7.9682688"><ele>409.0</ele><time>2026-04-12T07:11:02.993Z</time></trkpt><trkpt lat="44.5697159" lon="7.9682828"><ele>409.0</ele><time>2026-04-12T07:11:04.993Z</time></trkpt><trkpt lat="44.5698039" lon="7.9682889"><ele>409.0</ele><time>2026-04-12T07:11:07.993Z</time></trkpt><trkpt lat="44.5698923" lon="7.9682819"><ele>409.00000000000006</ele><time>2026-04-12T07:11:10.994Z</time></trkpt><trkpt lat="44.5699798" lon="7.9682756"><ele>409.0</ele><time>2026-04-12T07:11:13.994Z</time></trkpt><trkpt lat="44.5700664" lon="7.9682612"><ele>409.0</ele><time>2026-04-12T07:11:16.993Z</time></trkpt><trkpt lat="44.5701521" lon="7.9682433"><ele>409.0</ele><time>2026-04-12T07:11:19.993Z</time></trkpt><trkpt lat="44.570241" lon="7.9682284"><ele>409.00000000000006</ele><time>2026-04-12T07:11:22.994Z</time></trkpt><trkpt lat="44.5703271" lon="7.9682194"><ele>409.0</ele><time>2026-04-12T07:11:25.994Z</time></trkpt><trkpt lat="44.5704122" lon="7.9682201"><ele>410.50000000000006</ele><time>2026-04-12T07:11:28.993Z</time></trkpt><trkpt lat="44.5704979" lon="7.9682346"><ele>412.0</ele><time>2026-04-12T07:11:31.994Z</time></trkpt><trkpt lat="44.5705839" lon="7.9682461"><ele>413.5</ele><time>2026-04-12T07:11:34.993Z</time></trkpt><trkpt lat="44.5706697" lon="7.9682589"><ele>415.0</ele><time>2026-04-12T07:11:37.994Z</time></trkpt><trkpt lat="44.5707541" lon="7.9682686"><ele>416.50000000000006</ele><time>2026-04-12T07:11:40.993Z</time></trkpt><trkpt lat="44.5708408" lon="7.9682652"><ele>418.0</ele><time>2026-04-12T07:11:43.993Z</time></trkpt><trkpt lat="44.5709274" lon="7.9682513"><ele>418.0</ele><time>2026-04-12T07:11:46.994Z</time></trkpt><trkpt lat="44.5710163" lon="7.9682213"><ele>418.0</ele><time>2026-04-12T07:11:49.993Z</time></trkpt><trkpt lat="44.5710793" lon="7.9681988"><ele>418.0</ele><time>2026-04-12T07:11:51.993Z</time></trkpt><trkpt lat="44.5711411" lon="7.9681711"><ele>418.0</ele><time>2026-04-12T07:11:53.993Z</time></trkpt><trkpt lat="44.571203" lon="7.9681327"><ele>418.0</ele><time>2026-04-12T07:11:55.993Z</time></trkpt><trkpt lat="44.5712651" lon="7.9680933"><ele>418.0</ele><time>2026-04-12T07:11:57.994Z</time></trkpt><trkpt lat="44.5713265" lon="7.9680612"><ele>418.0</ele><time>2026-04-12T07:11:59.994Z</time></trkpt><trkpt lat="44.5713937" lon="7.9680392"><ele>418.00000000000006</ele><time>2026-04-12T07:12:01.993Z</time></trkpt><trkpt lat="44.5714627" lon="7.9680317"><ele>418.0</ele><time>2026-04-12T07:12:03.994Z</time></trkpt><trkpt lat="44.5715348" lon="7.9680471"><ele>418.0</ele><time>2026-04-12T07:12:05.993Z</time></trkpt><trkpt lat="44.5716102" lon="7.968076"><ele>418.0</ele><time>2026-04-12T07:12:07.993Z</time></trkpt><trkpt lat="44.571684" lon="7.9681155"><ele>418.00000000000006</ele><time>2026-04-12T07:12:09.993Z</time></trkpt><trkpt lat="44.5717551" lon="7.9681531"><ele>418.0</ele><time>2026-04-12T07:12:11.994Z</time></trkpt><trkpt lat="44.571823" lon="7.9681984"><ele>418.0</ele><time>2026-04-12T07:12:13.994Z</time></trkpt><trkpt lat="44.5718907" lon="7.9682404"><ele>418.0</ele><time>2026-04-12T07:12:15.993Z</time></trkpt><trkpt lat="44.5719588" lon="7.9682801"><ele>418.0</ele><time>2026-04-12T07:12:17.994Z</time></trkpt><trkpt lat="44.5720268" lon="7.9683213"><ele>418.0</ele><time>2026-04-12T07:12:19.993Z</time></trkpt><trkpt lat="44.5720959" lon="7.9683643"><ele>418.0</ele><time>2026-04-12T07:12:21.994Z</time></trkpt><trkpt lat="44.5721637" lon="7.9684062"><ele>418.0</ele><time>2026-04-12T07:12:23.993Z</time></trkpt><trkpt lat="44.5722281" lon="7.9684588"><ele>418.0</ele><time>2026-04-12T07:12:25.993Z</time></trkpt><trkpt lat="44.5722952" lon="7.9685036"><ele>417.57142857142856</ele><time>2026-04-12T07:12:27.993Z</time></trkpt><trkpt lat="44.5723643" lon="7.9685403"><ele>417.1428571428571</ele><time>2026-04-12T07:12:29.994Z</time></trkpt><trkpt lat="44.5724322" lon="7.9685766"><ele>416.7142857142857</ele><time>2026-04-12T07:12:31.993Z</time></trkpt><trkpt lat="44.5725007" lon="7.9686129"><ele>416.2857142857143</ele><time>2026-04-12T07:12:33.993Z</time></trkpt><trkpt lat="44.5725698" lon="7.9686543"><ele>415.8571428571429</ele><time>2026-04-12T07:12:35.993Z</time></trkpt><trkpt lat="44.5726382" lon="7.9686992"><ele>415.42857142857144</ele><time>2026-04-12T07:12:37.993Z</time></trkpt><trkpt lat="44.5727077" lon="7.9687368"><ele>415.0</ele><time>2026-04-12T07:12:39.993Z</time></trkpt><trkpt lat="44.5727752" lon="7.9687763"><ele>415.0</ele><time>2026-04-12T07:12:41.993Z</time></trkpt><trkpt lat="44.5728408" lon="7.9688211"><ele>415.0</ele><time>2026-04-12T07:12:43.993Z</time></trkpt><trkpt lat="44.5729017" lon="7.9688708"><ele>415.0</ele><time>2026-04-12T07:12:45.993Z</time></trkpt><trkpt lat="44.5729587" lon="7.9689265"><ele>415.0</ele><time>2026-04-12T07:12:47.993Z</time></trkpt><trkpt lat="44.5730089" lon="7.9689909"><ele>415.0</ele><time>2026-04-12T07:12:49.993Z</time></trkpt><trkpt lat="44.5730488" lon="7.9690646"><ele>415.0</ele><time>2026-04-12T07:12:51.994Z</time></trkpt><trkpt lat="44.5730889" lon="7.9691363"><ele>415.0</ele><time>2026-04-12T07:12:53.993Z</time></trkpt><trkpt lat="44.5731482" lon="7.9692383"><ele>414.2857142857143</ele><time>2026-04-12T07:12:56.993Z</time></trkpt><trkpt lat="44.5731862" lon="7.9693123"><ele>413.57142857142856</ele><time>2026-04-12T07:12:58.993Z</time></trkpt><trkpt lat="44.5732279" lon="7.9693822"><ele>412.8571428571429</ele><time>2026-04-12T07:13:00.994Z</time></trkpt><trkpt lat="44.5732723" lon="7.9694486"><ele>412.1428571428571</ele><time>2026-04-12T07:13:02.993Z</time></trkpt><trkpt lat="44.5733194" lon="7.9695092"><ele>411.4285714285714</ele><time>2026-04-12T07:13:04.994Z</time></trkpt><trkpt lat="44.5733667" lon="7.9695697"><ele>410.7142857142857</ele><time>2026-04-12T07:13:06.993Z</time></trkpt><trkpt lat="44.5734171" lon="7.9696257"><ele>410.0</ele><time>2026-04-12T07:13:08.993Z</time></trkpt><trkpt lat="44.5734739" lon="7.9696695"><ele>410.0</ele><time>2026-04-12T07:13:10.993Z</time></trkpt><trkpt lat="44.5735288" lon="7.9697142"><ele>410.0</ele><time>2026-04-12T07:13:12.994Z</time></trkpt><trkpt lat="44.5735902" lon="7.9697497"><ele>410.0</ele><time>2026-04-12T07:13:14.993Z</time></trkpt><trkpt lat="44.5736506" lon="7.969777"><ele>410.0</ele><time>2026-04-12T07:13:16.993Z</time></trkpt><trkpt lat="44.5737131" lon="7.9698045"><ele>410.0</ele><time>2026-04-12T07:13:18.994Z</time></trkpt><trkpt lat="44.5737764" lon="7.9698308"><ele>410.0</ele><time>2026-04-12T07:13:20.994Z</time></trkpt><trkpt lat="44.5738397" lon="7.9698543"><ele>410.0</ele><time>2026-04-12T07:13:22.993Z</time></trkpt><trkpt lat="44.5739042" lon="7.9698794"><ele>412.3333333333333</ele><time>2026-04-12T07:13:24.994Z</time></trkpt><trkpt lat="44.5739688" lon="7.9699021"><ele>414.66666666666663</ele><time>2026-04-12T07:13:26.994Z</time></trkpt><trkpt lat="44.5740591" lon="7.969934"><ele>417.0</ele><time>2026-04-12T07:13:29.994Z</time></trkpt><trkpt lat="44.5741525" lon="7.9699624"><ele>419.33333333333337</ele><time>2026-04-12T07:13:32.993Z</time></trkpt><trkpt lat="44.5742435" lon="7.9699925"><ele>421.6666666666667</ele><time>2026-04-12T07:13:35.994Z</time></trkpt><trkpt lat="44.5743061" lon="7.9700033"><ele>424.0</ele><time>2026-04-12T07:13:37.994Z</time></trkpt><trkpt lat="44.5743954" lon="7.970024"><ele>422.6666666666667</ele><time>2026-04-12T07:13:40.993Z</time></trkpt><trkpt lat="44.5744807" lon="7.970058"><ele>421.33333333333337</ele><time>2026-04-12T07:13:43.994Z</time></trkpt><trkpt lat="44.5745427" lon="7.9700752"><ele>420.0</ele><time>2026-04-12T07:13:45.993Z</time></trkpt><trkpt lat="44.5746068" lon="7.9700878"><ele>418.66666666666663</ele><time>2026-04-12T07:13:47.994Z</time></trkpt><trkpt lat="44.574699" lon="7.9701102"><ele>417.3333333333333</ele><time>2026-04-12T07:13:50.993Z</time></trkpt><trkpt lat="44.5747914" lon="7.9701333"><ele>416.0</ele><time>2026-04-12T07:13:53.994Z</time></trkpt><trkpt lat="44.5748802" lon="7.9701709"><ele>415.99999999999994</ele><time>2026-04-12T07:13:56.994Z</time></trkpt><trkpt lat="44.5749695" lon="7.9702099"><ele>416.0</ele><time>2026-04-12T07:13:59.994Z</time></trkpt><trkpt lat="44.5750606" lon="7.9702442"><ele>416.0</ele><time>2026-04-12T07:14:02.993Z</time></trkpt><trkpt lat="44.5751198" lon="7.9702746"><ele>416.0</ele><time>2026-04-12T07:14:04.993Z</time></trkpt><trkpt lat="44.575205" lon="7.970309"><ele>415.99999999999994</ele><time>2026-04-12T07:14:07.994Z</time></trkpt><trkpt lat="44.5752887" lon="7.970336"><ele>416.0</ele><time>2026-04-12T07:14:10.993Z</time></trkpt><trkpt lat="44.5753748" lon="7.9703701"><ele>417.6</ele><time>2026-04-12T07:14:13.993Z</time></trkpt><trkpt lat="44.5754627" lon="7.9704113"><ele>419.20000000000005</ele><time>2026-04-12T07:14:16.993Z</time></trkpt><trkpt lat="44.5755515" lon="7.9704532"><ele>420.79999999999995</ele><time>2026-04-12T07:14:19.993Z</time></trkpt><trkpt lat="44.5756416" lon="7.9704849"><ele>422.4</ele><time>2026-04-12T07:14:22.993Z</time></trkpt><trkpt lat="44.5757309" lon="7.970521"><ele>424.0</ele><time>2026-04-12T07:14:25.993Z</time></trkpt><trkpt lat="44.575818" lon="7.9705452"><ele>424.00000000000006</ele><time>2026-04-12T07:14:28.994Z</time></trkpt><trkpt lat="44.5759072" lon="7.9705594"><ele>424.0</ele><time>2026-04-12T07:14:31.994Z</time></trkpt><trkpt lat="44.575995" lon="7.970553"><ele>424.0</ele><time>2026-04-12T07:14:34.994Z</time></trkpt><trkpt lat="44.5760813" lon="7.9705273"><ele>424.0</ele><time>2026-04-12T07:14:37.993Z</time></trkpt><trkpt lat="44.5761434" lon="7.9705052"><ele>424.00000000000006</ele><time>2026-04-12T07:14:39.994Z</time></trkpt><trkpt lat="44.5762025" lon="7.970466"><ele>424.0</ele><time>2026-04-12T07:14:41.993Z</time></trkpt><trkpt lat="44.5762616" lon="7.9704272"><ele>424.1666666666667</ele><time>2026-04-12T07:14:43.993Z</time></trkpt><trkpt lat="44.5763195" lon="7.9703822"><ele>424.33333333333337</ele><time>2026-04-12T07:14:45.993Z</time></trkpt><trkpt lat="44.5763746" lon="7.9703368"><ele>424.5</ele><time>2026-04-12T07:14:47.993Z</time></trkpt><trkpt lat="44.576431" lon="7.9702921"><ele>424.66666666666663</ele><time>2026-04-12T07:14:49.994Z</time></trkpt><trkpt lat="44.5765171" lon="7.9702377"><ele>424.8333333333333</ele><time>2026-04-12T07:14:52.994Z</time></trkpt><trkpt lat="44.5766064" lon="7.9701991"><ele>425.0</ele><time>2026-04-12T07:14:55.993Z</time></trkpt><trkpt lat="44.576692" lon="7.9701636"><ele>424.99999999999994</ele><time>2026-04-12T07:14:58.994Z</time></trkpt><trkpt lat="44.576775" lon="7.9701391"><ele>425.0</ele><time>2026-04-12T07:15:01.993Z</time></trkpt><trkpt lat="44.5768566" lon="7.9701192"><ele>425.0</ele><time>2026-04-12T07:15:04.995Z</time></trkpt><trkpt lat="44.5769384" lon="7.9700979"><ele>425.0</ele><time>2026-04-12T07:15:07.994Z</time></trkpt><trkpt lat="44.5770202" lon="7.9700883"><ele>424.99999999999994</ele><time>2026-04-12T07:15:10.993Z</time></trkpt><trkpt lat="44.5770964" lon="7.9700742"><ele>425.0</ele><time>2026-04-12T07:15:13.994Z</time></trkpt><trkpt lat="44.5771723" lon="7.9700782"><ele>425.99999999999994</ele><time>2026-04-12T07:15:16.995Z</time></trkpt><trkpt lat="44.5772508" lon="7.970098"><ele>427.0</ele><time>2026-04-12T07:15:19.994Z</time></trkpt><trkpt lat="44.5773307" lon="7.9701276"><ele>428.0</ele><time>2026-04-12T07:15:22.993Z</time></trkpt><trkpt lat="44.5774084" lon="7.9701619"><ele>429.0</ele><time>2026-04-12T07:15:25.994Z</time></trkpt><trkpt lat="44.5774811" lon="7.9702038"><ele>429.99999999999994</ele><time>2026-04-12T07:15:28.994Z</time></trkpt><trkpt lat="44.5775457" lon="7.9702614"><ele>431.0</ele><time>2026-04-12T07:15:31.993Z</time></trkpt><trkpt lat="44.5776144" lon="7.9703145"><ele>430.99999999999994</ele><time>2026-04-12T07:15:34.994Z</time></trkpt><trkpt lat="44.5776813" lon="7.9703658"><ele>431.0</ele><time>2026-04-12T07:15:37.993Z</time></trkpt><trkpt lat="44.5777518" lon="7.9704081"><ele>431.0</ele><time>2026-04-12T07:15:40.993Z</time></trkpt><trkpt lat="44.5778207" lon="7.9704339"><ele>431.0</ele><time>2026-04-12T07:15:43.994Z</time></trkpt><trkpt lat="44.577894" lon="7.970442"><ele>430.99999999999994</ele><time>2026-04-12T07:15:46.995Z</time></trkpt><trkpt lat="44.5779694" lon="7.9704051"><ele>431.0</ele><time>2026-04-12T07:15:49.994Z</time></trkpt><trkpt lat="44.5780357" lon="7.9703392"><ele>430.66666666666663</ele><time>2026-04-12T07:15:52.993Z</time></trkpt><trkpt lat="44.5780927" lon="7.9702502"><ele>430.3333333333333</ele><time>2026-04-12T07:15:55.993Z</time></trkpt><trkpt lat="44.5781456" lon="7.9701545"><ele>430.0</ele><time>2026-04-12T07:15:58.995Z</time></trkpt><trkpt lat="44.5781951" lon="7.9700623"><ele>429.66666666666663</ele><time>2026-04-12T07:16:01.994Z</time></trkpt><trkpt lat="44.5782362" lon="7.9699601"><ele>429.3333333333333</ele><time>2026-04-12T07:16:04.994Z</time></trkpt><trkpt lat="44.5782864" lon="7.9698551"><ele>429.0</ele><time>2026-04-12T07:16:07.994Z</time></trkpt><trkpt lat="44.5783369" lon="7.9697557"><ele>431.5</ele><time>2026-04-12T07:16:10.993Z</time></trkpt><trkpt lat="44.5783839" lon="7.9696538"><ele>434.0</ele><time>2026-04-12T07:16:13.995Z</time></trkpt><trkpt lat="44.57843" lon="7.9695523"><ele>436.5</ele><time>2026-04-12T07:16:16.994Z</time></trkpt><trkpt lat="44.5784719" lon="7.9694528"><ele>439.0</ele><time>2026-04-12T07:16:19.993Z</time></trkpt><trkpt lat="44.5785143" lon="7.9693524"><ele>441.5</ele><time>2026-04-12T07:16:22.994Z</time></trkpt><trkpt lat="44.5785708" lon="7.9692535"><ele>444.0</ele><time>2026-04-12T07:16:25.993Z</time></trkpt><trkpt lat="44.5786185" lon="7.9691437"><ele>444.6666666666667</ele><time>2026-04-12T07:16:28.994Z</time></trkpt><trkpt lat="44.578667" lon="7.9690461"><ele>445.33333333333337</ele><time>2026-04-12T07:16:31.993Z</time></trkpt><trkpt lat="44.5787218" lon="7.9689536"><ele>446.0</ele><time>2026-04-12T07:16:34.993Z</time></trkpt><trkpt lat="44.5787874" lon="7.9688781"><ele>446.6666666666667</ele><time>2026-04-12T07:16:37.994Z</time></trkpt><trkpt lat="44.5788552" lon="7.96881"><ele>447.33333333333337</ele><time>2026-04-12T07:16:40.993Z</time></trkpt><trkpt lat="44.578932" lon="7.9687631"><ele>448.0</ele><time>2026-04-12T07:16:43.994Z</time></trkpt><trkpt lat="44.5790086" lon="7.9687176"><ele>448.00000000000006</ele><time>2026-04-12T07:16:46.994Z</time></trkpt><trkpt lat="44.5790867" lon="7.9686808"><ele>448.0</ele><time>2026-04-12T07:16:49.994Z</time></trkpt><trkpt lat="44.5791674" lon="7.96866"><ele>448.0</ele><time>2026-04-12T07:16:52.993Z</time></trkpt><trkpt lat="44.5792449" lon="7.9686618"><ele>448.0</ele><time>2026-04-12T07:16:55.995Z</time></trkpt><trkpt lat="44.5793216" lon="7.9686654"><ele>448.00000000000006</ele><time>2026-04-12T07:16:58.995Z</time></trkpt><trkpt lat="44.5794034" lon="7.9686831"><ele>448.0</ele><time>2026-04-12T07:17:01.993Z</time></trkpt><trkpt lat="44.5794845" lon="7.9686998"><ele>449.1666666666667</ele><time>2026-04-12T07:17:04.993Z</time></trkpt><trkpt lat="44.5795613" lon="7.9687115"><ele>450.33333333333337</ele><time>2026-04-12T07:17:07.995Z</time></trkpt><trkpt lat="44.5796375" lon="7.9687235"><ele>451.5</ele><time>2026-04-12T07:17:10.995Z</time></trkpt><trkpt lat="44.5797135" lon="7.9687388"><ele>452.66666666666663</ele><time>2026-04-12T07:17:13.994Z</time></trkpt><trkpt lat="44.5797857" lon="7.968757"><ele>453.8333333333333</ele><time>2026-04-12T07:17:16.993Z</time></trkpt><trkpt lat="44.5798597" lon="7.9687725"><ele>455.0</ele><time>2026-04-12T07:17:19.993Z</time></trkpt><trkpt lat="44.5799338" lon="7.9687942"><ele>454.99999999999994</ele><time>2026-04-12T07:17:22.993Z</time></trkpt><trkpt lat="44.5800026" lon="7.968813"><ele>455.0</ele><time>2026-04-12T07:17:25.993Z</time></trkpt><trkpt lat="44.5800794" lon="7.968834"><ele>455.0</ele><time>2026-04-12T07:17:28.994Z</time></trkpt><trkpt lat="44.5801573" lon="7.9688546"><ele>455.0</ele><time>2026-04-12T07:17:31.993Z</time></trkpt><trkpt lat="44.5802272" lon="7.9688745"><ele>454.99999999999994</ele><time>2026-04-12T07:17:34.995Z</time></trkpt><trkpt lat="44.5803065" lon="7.9688937"><ele>455.0</ele><time>2026-04-12T07:17:37.994Z</time></trkpt><trkpt lat="44.5803858" lon="7.9689012"><ele>455.8333333333333</ele><time>2026-04-12T07:17:40.994Z</time></trkpt><trkpt lat="44.5804595" lon="7.9688956"><ele>456.66666666666663</ele><time>2026-04-12T07:17:43.994Z</time></trkpt><trkpt lat="44.5805367" lon="7.9688754"><ele>457.5</ele><time>2026-04-12T07:17:46.993Z</time></trkpt><trkpt lat="44.5806173" lon="7.9688496"><ele>458.33333333333337</ele><time>2026-04-12T07:17:49.994Z</time></trkpt><trkpt lat="44.5806984" lon="7.9688178"><ele>459.1666666666667</ele><time>2026-04-12T07:17:52.993Z</time></trkpt><trkpt lat="44.5807848" lon="7.9687964"><ele>460.0</ele><time>2026-04-12T07:17:55.994Z</time></trkpt><trkpt lat="44.5808715" lon="7.9687664"><ele>460.00000000000006</ele><time>2026-04-12T07:17:58.994Z</time></trkpt><trkpt lat="44.5809534" lon="7.9687364"><ele>460.0</ele><time>2026-04-12T07:18:01.995Z</time></trkpt><trkpt lat="44.5810145" lon="7.9687131"><ele>460.0</ele><time>2026-04-12T07:18:03.993Z</time></trkpt><trkpt lat="44.5811024" lon="7.9686722"><ele>460.0</ele><time>2026-04-12T07:18:06.993Z</time></trkpt><trkpt lat="44.5811642" lon="7.9686481"><ele>460.00000000000006</ele><time>2026-04-12T07:18:08.993Z</time></trkpt><trkpt lat="44.581252" lon="7.9686085"><ele>460.0</ele><time>2026-04-12T07:18:11.994Z</time></trkpt><trkpt lat="44.5813421" lon="7.9685696"><ele>461.2</ele><time>2026-04-12T07:18:14.995Z</time></trkpt><trkpt lat="44.5814304" lon="7.9685293"><ele>462.4</ele><time>2026-04-12T07:18:17.994Z</time></trkpt><trkpt lat="44.5815154" lon="7.9684882"><ele>463.6</ele><time>2026-04-12T07:18:20.994Z</time></trkpt><trkpt lat="44.5816039" lon="7.9684552"><ele>464.8</ele><time>2026-04-12T07:18:23.995Z</time></trkpt><trkpt lat="44.5816924" lon="7.9684232"><ele>466.0</ele><time>2026-04-12T07:18:26.995Z</time></trkpt><trkpt lat="44.5817782" lon="7.9683856"><ele>466.83333333333337</ele><time>2026-04-12T07:18:29.995Z</time></trkpt><trkpt lat="44.5818614" lon="7.9683506"><ele>467.6666666666667</ele><time>2026-04-12T07:18:32.994Z</time></trkpt><trkpt lat="44.5819474" lon="7.9683163"><ele>468.5</ele><time>2026-04-12T07:18:35.995Z</time></trkpt><trkpt lat="44.5820332" lon="7.9682801"><ele>469.33333333333337</ele><time>2026-04-12T07:18:38.994Z</time></trkpt><trkpt lat="44.5820987" lon="7.9682554"><ele>470.1666666666667</ele><time>2026-04-12T07:18:41.995Z</time></trkpt><trkpt lat="44.5821693" lon="7.9682581"><ele>471.0</ele><time>2026-04-12T07:18:46.994Z</time></trkpt><trkpt lat="44.5821642" lon="7.9681646"><ele>471.00000000000006</ele><time>2026-04-12T07:19:10.994Z</time></trkpt><trkpt lat="44.5821408" lon="7.9682553"><ele>471.0</ele><time>2026-04-12T07:19:28.994Z</time></trkpt><trkpt lat="44.5821644" lon="7.9681724"><ele>471.00000000000006</ele><time>2026-04-12T07:19:54.994Z</time></trkpt><trkpt lat="44.5821789" lon="7.9682595"><ele>471.00000000000006</ele><time>2026-04-12T07:20:06.995Z</time></trkpt><trkpt lat="44.5821595" lon="7.9681675"><ele>471.0</ele><time>2026-04-12T07:20:39.994Z</time></trkpt><trkpt lat="44.5820946" lon="7.9681764"><ele>471.00000000000006</ele><time>2026-04-12T07:20:43.995Z</time></trkpt><trkpt lat="44.58212" lon="7.9682761"><ele>471.00000000000006</ele><time>2026-04-12T07:20:46.994Z</time></trkpt><trkpt lat="44.5821705" lon="7.9683696"><ele>470.8333333333333</ele><time>2026-04-12T07:20:49.995Z</time></trkpt><trkpt lat="44.5822388" lon="7.9684151"><ele>470.66666666666663</ele><time>2026-04-12T07:20:52.994Z</time></trkpt><trkpt lat="44.5822701" lon="7.9685217"><ele>470.5</ele><time>2026-04-12T07:20:55.995Z</time></trkpt><trkpt lat="44.5822969" lon="7.9686237"><ele>470.3333333333333</ele><time>2026-04-12T07:20:57.994Z</time></trkpt><trkpt lat="44.5823267" lon="7.9687384"><ele>470.16666666666663</ele><time>2026-04-12T07:20:59.994Z</time></trkpt><trkpt lat="44.5823602" lon="7.968857"><ele>470.0</ele><time>2026-04-12T07:21:01.994Z</time></trkpt><trkpt lat="44.5823744" lon="7.9689828"><ele>470.0</ele><time>2026-04-12T07:21:03.994Z</time></trkpt><trkpt lat="44.5823497" lon="7.9690982"><ele>470.0</ele><time>2026-04-12T07:21:05.994Z</time></trkpt><trkpt lat="44.5822962" lon="7.9692084"><ele>470.0</ele><time>2026-04-12T07:21:07.994Z</time></trkpt><trkpt lat="44.582216" lon="7.9693053"><ele>470.0</ele><time>2026-04-12T07:21:09.995Z</time></trkpt><trkpt lat="44.582122" lon="7.9694025"><ele>470.0</ele><time>2026-04-12T07:21:11.994Z</time></trkpt><trkpt lat="44.5820284" lon="7.9695146"><ele>469.2857142857143</ele><time>2026-04-12T07:21:13.994Z</time></trkpt><trkpt lat="44.5819791" lon="7.9695731"><ele>468.57142857142856</ele><time>2026-04-12T07:21:14.994Z</time></trkpt><trkpt lat="44.5819213" lon="7.9696241"><ele>467.85714285714283</ele><time>2026-04-12T07:21:15.994Z</time></trkpt><trkpt lat="44.5818616" lon="7.9696785"><ele>467.1428571428571</ele><time>2026-04-12T07:21:16.994Z</time></trkpt><trkpt lat="44.5818085" lon="7.9697417"><ele>466.42857142857144</ele><time>2026-04-12T07:21:17.994Z</time></trkpt><trkpt lat="44.5817582" lon="7.9698104"><ele>465.71428571428567</ele><time>2026-04-12T07:21:18.994Z</time></trkpt><trkpt lat="44.5817059" lon="7.9698788"><ele>465.0</ele><time>2026-04-12T07:21:19.994Z</time></trkpt><trkpt lat="44.581651" lon="7.9699479"><ele>465.0</ele><time>2026-04-12T07:21:20.994Z</time></trkpt><trkpt lat="44.5816003" lon="7.9700248"><ele>465.0</ele><time>2026-04-12T07:21:21.994Z</time></trkpt><trkpt lat="44.5815542" lon="7.97011"><ele>465.0</ele><time>2026-04-12T07:21:22.994Z</time></trkpt><trkpt lat="44.5815203" lon="7.9702065"><ele>465.0</ele><time>2026-04-12T07:21:23.995Z</time></trkpt><trkpt lat="44.5814992" lon="7.9702944"><ele>465.0</ele><time>2026-04-12T07:21:24.995Z</time></trkpt><trkpt lat="44.5814686" lon="7.9704242"><ele>465.0</ele><time>2026-04-12T07:21:26.994Z</time></trkpt><trkpt lat="44.5814453" lon="7.9705245"><ele>466.2857142857143</ele><time>2026-04-12T07:21:28.994Z</time></trkpt><trkpt lat="44.5814208" lon="7.9706078"><ele>467.57142857142856</ele><time>2026-04-12T07:21:30.994Z</time></trkpt><trkpt lat="44.5813913" lon="7.9707226"><ele>468.85714285714283</ele><time>2026-04-12T07:21:33.994Z</time></trkpt><trkpt lat="44.5813657" lon="7.9708144"><ele>470.1428571428571</ele><time>2026-04-12T07:21:36.995Z</time></trkpt><trkpt lat="44.5813339" lon="7.9709075"><ele>471.42857142857144</ele><time>2026-04-12T07:21:39.995Z</time></trkpt><trkpt lat="44.5813141" lon="7.9710022"><ele>472.71428571428567</ele><time>2026-04-12T07:21:42.994Z</time></trkpt><trkpt lat="44.5812747" lon="7.971081"><ele>473.99999999999994</ele><time>2026-04-12T07:21:45.994Z</time></trkpt><trkpt lat="44.5812322" lon="7.9711806"><ele>473.3333333333333</ele><time>2026-04-12T07:21:48.995Z</time></trkpt><trkpt lat="44.5811883" lon="7.971273"><ele>472.66666666666663</ele><time>2026-04-12T07:21:51.994Z</time></trkpt><trkpt lat="44.5811436" lon="7.9713634"><ele>472.0</ele><time>2026-04-12T07:21:54.995Z</time></trkpt><trkpt lat="44.5810993" lon="7.9714523"><ele>471.3333333333333</ele><time>2026-04-12T07:21:57.994Z</time></trkpt><trkpt lat="44.5810571" lon="7.9715416"><ele>470.66666666666663</ele><time>2026-04-12T07:22:00.994Z</time></trkpt><trkpt lat="44.5810126" lon="7.9716263"><ele>470.0</ele><time>2026-04-12T07:22:03.995Z</time></trkpt><trkpt lat="44.58097" lon="7.971714"><ele>470.0</ele><time>2026-04-12T07:22:06.995Z</time></trkpt><trkpt lat="44.5809495" lon="7.9718176"><ele>469.99999999999994</ele><time>2026-04-12T07:22:09.994Z</time></trkpt><trkpt lat="44.5809752" lon="7.9719164"><ele>470.0</ele><time>2026-04-12T07:22:12.995Z</time></trkpt><trkpt lat="44.5810244" lon="7.9719777"><ele>470.0</ele><time>2026-04-12T07:22:15.995Z</time></trkpt><trkpt lat="44.5810893" lon="7.9720091"><ele>469.99999999999994</ele><time>2026-04-12T07:22:18.994Z</time></trkpt><trkpt lat="44.5811614" lon="7.9720113"><ele>470.0</ele><time>2026-04-12T07:22:22.994Z</time></trkpt><trkpt lat="44.5812257" lon="7.9720005"><ele>470.0</ele><time>2026-04-12T07:22:26.994Z</time></trkpt><trkpt lat="44.5812925" lon="7.9719798"><ele>474.2857142857143</ele><time>2026-04-12T07:22:31.994Z</time></trkpt><trkpt lat="44.5813638" lon="7.971955"><ele>478.57142857142856</ele><time>2026-04-12T07:22:36.994Z</time></trkpt><trkpt lat="44.5814311" lon="7.9719341"><ele>482.85714285714283</ele><time>2026-04-12T07:22:41.995Z</time></trkpt><trkpt lat="44.5814981" lon="7.9718994"><ele>487.1428571428571</ele><time>2026-04-12T07:22:46.994Z</time></trkpt><trkpt lat="44.5815687" lon="7.9718764"><ele>491.42857142857144</ele><time>2026-04-12T07:22:51.994Z</time></trkpt><trkpt lat="44.5816321" lon="7.9718326"><ele>495.71428571428567</ele><time>2026-04-12T07:22:56.994Z</time></trkpt><trkpt lat="44.5817001" lon="7.971791"><ele>500.0</ele><time>2026-04-12T07:23:01.994Z</time></trkpt><trkpt lat="44.5817638" lon="7.9717338"><ele>501.8333333333333</ele><time>2026-04-12T07:23:06.995Z</time></trkpt><trkpt lat="44.5818185" lon="7.9716562"><ele>503.66666666666663</ele><time>2026-04-12T07:23:11.995Z</time></trkpt><trkpt lat="44.581871" lon="7.9715841"><ele>505.5</ele><time>2026-04-12T07:23:16.994Z</time></trkpt><trkpt lat="44.5819246" lon="7.9715067"><ele>507.33333333333337</ele><time>2026-04-12T07:23:21.994Z</time></trkpt><trkpt lat="44.5819759" lon="7.9714329"><ele>509.1666666666667</ele><time>2026-04-12T07:23:26.994Z</time></trkpt><trkpt lat="44.5820274" lon="7.9713609"><ele>511.0</ele><time>2026-04-12T07:23:31.994Z</time></trkpt><trkpt lat="44.582098" lon="7.9713099"><ele>511.0</ele><time>2026-04-12T07:23:36.994Z</time></trkpt><trkpt lat="44.5821579" lon="7.971266"><ele>511.0</ele><time>2026-04-12T07:23:40.994Z</time></trkpt><trkpt lat="44.5822211" lon="7.9712142"><ele>511.0</ele><time>2026-04-12T07:23:44.994Z</time></trkpt><trkpt lat="44.582281" lon="7.9711721"><ele>511.0</ele><time>2026-04-12T07:23:48.994Z</time></trkpt><trkpt lat="44.5823405" lon="7.9711227"><ele>511.0</ele><time>2026-04-12T07:23:52.994Z</time></trkpt><trkpt lat="44.5823992" lon="7.9710775"><ele>511.0</ele><time>2026-04-12T07:23:56.994Z</time></trkpt><trkpt lat="44.5824514" lon="7.971015"><ele>511.0</ele><time>2026-04-12T07:24:00.994Z</time></trkpt><trkpt lat="44.5825134" lon="7.9709675"><ele>511.0</ele><time>2026-04-12T07:24:04.994Z</time></trkpt><trkpt lat="44.5825661" lon="7.9709168"><ele>511.0</ele><time>2026-04-12T07:24:08.995Z</time></trkpt><trkpt lat="44.5826254" lon="7.9708757"><ele>511.0</ele><time>2026-04-12T07:24:12.994Z</time></trkpt><trkpt lat="44.5826837" lon="7.9708292"><ele>511.0</ele><time>2026-04-12T07:24:17.994Z</time></trkpt><trkpt lat="44.582758" lon="7.9707897"><ele>511.0</ele><time>2026-04-12T07:24:22.995Z</time></trkpt><trkpt lat="44.5828154" lon="7.9707507"><ele>511.0</ele><time>2026-04-12T07:24:26.995Z</time></trkpt><trkpt lat="44.5828837" lon="7.970716"><ele>511.0</ele><time>2026-04-12T07:24:30.994Z</time></trkpt><trkpt lat="44.5829413" lon="7.9706573"><ele>511.7142857142857</ele><time>2026-04-12T07:24:34.994Z</time></trkpt><trkpt lat="44.5830103" lon="7.9706182"><ele>512.4285714285714</ele><time>2026-04-12T07:24:38.994Z</time></trkpt><trkpt lat="44.5830714" lon="7.9705607"><ele>513.1428571428571</ele><time>2026-04-12T07:24:42.994Z</time></trkpt><trkpt lat="44.5831362" lon="7.9705095"><ele>513.8571428571429</ele><time>2026-04-12T07:24:46.994Z</time></trkpt><trkpt lat="44.583195" lon="7.9704494"><ele>514.5714285714286</ele><time>2026-04-12T07:24:50.995Z</time></trkpt><trkpt lat="44.5832499" lon="7.9703874"><ele>515.2857142857142</ele><time>2026-04-12T07:24:54.994Z</time></trkpt><trkpt lat="44.5833084" lon="7.9703354"><ele>516.0</ele><time>2026-04-12T07:24:58.994Z</time></trkpt><trkpt lat="44.5833674" lon="7.9702844"><ele>515.9999999999999</ele><time>2026-04-12T07:25:02.995Z</time></trkpt><trkpt lat="44.5834304" lon="7.9702518"><ele>516.0</ele><time>2026-04-12T07:25:06.994Z</time></trkpt><trkpt lat="44.5834982" lon="7.9702555"><ele>516.0</ele><time>2026-04-12T07:25:10.994Z</time></trkpt><trkpt lat="44.5835647" lon="7.9702611"><ele>516.0</ele><time>2026-04-12T07:25:14.994Z</time></trkpt><trkpt lat="44.5836293" lon="7.9702659"><ele>516.0</ele><time>2026-04-12T07:25:17.994Z</time></trkpt><trkpt lat="44.5836977" lon="7.970263"><ele>515.9999999999999</ele><time>2026-04-12T07:25:20.994Z</time></trkpt><trkpt lat="44.5837647" lon="7.9702507"><ele>516.0</ele><time>2026-04-12T07:25:23.994Z</time></trkpt><trkpt lat="44.5838286" lon="7.9702463"><ele>517.5714285714286</ele><time>2026-04-12T07:25:26.994Z</time></trkpt><trkpt lat="44.5839119" lon="7.970236"><ele>519.1428571428571</ele><time>2026-04-12T07:25:30.994Z</time></trkpt><trkpt lat="44.5839754" lon="7.9702207"><ele>520.7142857142858</ele><time>2026-04-12T07:25:33.995Z</time></trkpt><trkpt lat="44.5840405" lon="7.9702059"><ele>522.2857142857142</ele><time>2026-04-12T07:25:36.994Z</time></trkpt><trkpt lat="44.5841067" lon="7.9701862"><ele>523.8571428571429</ele><time>2026-04-12T07:25:39.994Z</time></trkpt><trkpt lat="44.5841706" lon="7.9701551"><ele>525.4285714285714</ele><time>2026-04-12T07:25:42.994Z</time></trkpt><trkpt lat="44.5842275" lon="7.9701108"><ele>527.0</ele><time>2026-04-12T07:25:45.994Z</time></trkpt><trkpt lat="44.5842791" lon="7.9700525"><ele>526.7142857142858</ele><time>2026-04-12T07:25:48.994Z</time></trkpt><trkpt lat="44.5843463" lon="7.9700124"><ele>526.4285714285714</ele><time>2026-04-12T07:25:51.994Z</time></trkpt><trkpt lat="44.5844171" lon="7.9699748"><ele>526.1428571428571</ele><time>2026-04-12T07:25:54.994Z</time></trkpt><trkpt lat="44.584483" lon="7.9699198"><ele>525.8571428571429</ele><time>2026-04-12T07:25:57.995Z</time></trkpt><trkpt lat="44.5845527" lon="7.9698754"><ele>525.5714285714286</ele><time>2026-04-12T07:26:00.995Z</time></trkpt><trkpt lat="44.5845965" lon="7.9697973"><ele>525.2857142857143</ele><time>2026-04-12T07:26:03.994Z</time></trkpt><trkpt lat="44.5846317" lon="7.9697186"><ele>525.0</ele><time>2026-04-12T07:26:06.995Z</time></trkpt><trkpt lat="44.5847001" lon="7.9696721"><ele>525.0</ele><time>2026-04-12T07:26:09.994Z</time></trkpt><trkpt lat="44.5847688" lon="7.9696368"><ele>525.0</ele><time>2026-04-12T07:26:12.994Z</time></trkpt><trkpt lat="44.5848373" lon="7.9696002"><ele>525.0</ele><time>2026-04-12T07:26:15.994Z</time></trkpt><trkpt lat="44.5849107" lon="7.9696214"><ele>525.0</ele><time>2026-04-12T07:26:18.994Z</time></trkpt><trkpt lat="44.5849786" lon="7.9696573"><ele>525.0</ele><time>2026-04-12T07:26:21.994Z</time></trkpt><trkpt lat="44.5850293" lon="7.9695706"><ele>525.0</ele><time>2026-04-12T07:26:24.995Z</time></trkpt><trkpt lat="44.5850584" lon="7.9694553"><ele>525.0</ele><time>2026-04-12T07:26:27.994Z</time></trkpt><trkpt lat="44.5850986" lon="7.9693518"><ele>525.0</ele><time>2026-04-12T07:26:30.995Z</time></trkpt><trkpt lat="44.5851514" lon="7.9692682"><ele>525.0</ele><time>2026-04-12T07:26:33.995Z</time></trkpt><trkpt lat="44.585201" lon="7.9692094"><ele>525.0</ele><time>2026-04-12T07:26:36.995Z</time></trkpt><trkpt lat="44.5852571" lon="7.969152"><ele>525.0</ele><time>2026-04-12T07:26:40.994Z</time></trkpt><trkpt lat="44.5853203" lon="7.9690994"><ele>525.0</ele><time>2026-04-12T07:26:44.994Z</time></trkpt><trkpt lat="44.5853819" lon="7.9690361"><ele>525.0</ele><time>2026-04-12T07:26:48.994Z</time></trkpt><trkpt lat="44.5854593" lon="7.9689956"><ele>523.8333333333334</ele><time>2026-04-12T07:26:52.995Z</time></trkpt><trkpt lat="44.585526" lon="7.968983"><ele>522.6666666666666</ele><time>2026-04-12T07:26:55.994Z</time></trkpt><trkpt lat="44.5855921" lon="7.9688466"><ele>521.5</ele><time>2026-04-12T07:26:58.995Z</time></trkpt><trkpt lat="44.5856064" lon="7.9687543"><ele>520.3333333333333</ele><time>2026-04-12T07:26:59.995Z</time></trkpt><trkpt lat="44.5856095" lon="7.9686548"><ele>519.1666666666666</ele><time>2026-04-12T07:27:00.994Z</time></trkpt><trkpt lat="44.5856298" lon="7.9685469"><ele>518.0</ele><time>2026-04-12T07:27:01.994Z</time></trkpt><trkpt lat="44.5856173" lon="7.9684547"><ele>518.0</ele><time>2026-04-12T07:27:03.994Z</time></trkpt><trkpt lat="44.585611" lon="7.9683509"><ele>518.0</ele><time>2026-04-12T07:27:07.994Z</time></trkpt><trkpt lat="44.5856088" lon="7.9684435"><ele>518.0</ele><time>2026-04-12T07:27:21.994Z</time></trkpt><trkpt lat="44.5856382" lon="7.968522"><ele>518.0</ele><time>2026-04-12T07:27:24.994Z</time></trkpt><trkpt lat="44.5856434" lon="7.9686227"><ele>518.0</ele><time>2026-04-12T07:27:29.994Z</time></trkpt><trkpt lat="44.5856672" lon="7.9687182"><ele>518.0</ele><time>2026-04-12T07:27:34.994Z</time></trkpt><trkpt lat="44.5856529" lon="7.9688077"><ele>518.0</ele><time>2026-04-12T07:27:38.995Z</time></trkpt><trkpt lat="44.5856128" lon="7.9688957"><ele>518.0</ele><time>2026-04-12T07:27:43.994Z</time></trkpt><trkpt lat="44.585551" lon="7.9689524"><ele>518.0</ele><time>2026-04-12T07:27:47.993Z</time></trkpt><trkpt lat="44.5854845" lon="7.9689433"><ele>518.0</ele><time>2026-04-12T07:27:52.994Z</time></trkpt><trkpt lat="44.585508" lon="7.9688438"><ele>518.0</ele><time>2026-04-12T07:27:56.994Z</time></trkpt><trkpt lat="44.585542" lon="7.9687536"><ele>518.0</ele><time>2026-04-12T07:27:59.994Z</time></trkpt><trkpt lat="44.5855389" lon="7.968647"><ele>518.0</ele><time>2026-04-12T07:28:02.993Z</time></trkpt><trkpt lat="44.5855126" lon="7.9685462"><ele>518.0</ele><time>2026-04-12T07:28:05.993Z</time></trkpt><trkpt lat="44.585468" lon="7.968446"><ele>518.5</ele><time>2026-04-12T07:28:08.993Z</time></trkpt><trkpt lat="44.5854192" lon="7.9683413"><ele>519.0</ele><time>2026-04-12T07:28:11.994Z</time></trkpt><trkpt lat="44.5853799" lon="7.9682523"><ele>519.5</ele><time>2026-04-12T07:28:14.993Z</time></trkpt><trkpt lat="44.5853439" lon="7.9681592"><ele>520.0</ele><time>2026-04-12T07:28:17.993Z</time></trkpt><trkpt lat="44.5852864" lon="7.9680836"><ele>520.5</ele><time>2026-04-12T07:28:20.993Z</time></trkpt><trkpt lat="44.5852085" lon="7.9680373"><ele>521.0</ele><time>2026-04-12T07:28:23.994Z</time></trkpt><trkpt lat="44.5851321" lon="7.9680456"><ele>521.0</ele><time>2026-04-12T07:28:26.993Z</time></trkpt><trkpt lat="44.5850656" lon="7.9680804"><ele>521.0</ele><time>2026-04-12T07:28:29.993Z</time></trkpt><trkpt lat="44.5849935" lon="7.9680999"><ele>521.0</ele><time>2026-04-12T07:28:33.994Z</time></trkpt><trkpt lat="44.5849284" lon="7.9681098"><ele>521.0</ele><time>2026-04-12T07:28:36.993Z</time></trkpt><trkpt lat="44.5848605" lon="7.9681129"><ele>521.0</ele><time>2026-04-12T07:28:39.993Z</time></trkpt><trkpt lat="44.5847769" lon="7.968109"><ele>521.0</ele><time>2026-04-12T07:28:43.994Z</time></trkpt><trkpt lat="44.5847106" lon="7.9681221"><ele>521.0</ele><time>2026-04-12T07:28:46.994Z</time></trkpt><trkpt lat="44.5846504" lon="7.968185"><ele>521.0</ele><time>2026-04-12T07:28:51.994Z</time></trkpt><trkpt lat="44.5845974" lon="7.9682562"><ele>521.0</ele><time>2026-04-12T07:28:56.994Z</time></trkpt><trkpt lat="44.5846204" lon="7.9683489"><ele>521.0</ele><time>2026-04-12T07:29:10.993Z</time></trkpt><trkpt lat="44.5846837" lon="7.9683534"><ele>521.0</ele><time>2026-04-12T07:29:15.993Z</time></trkpt><trkpt lat="44.5847234" lon="7.9682811"><ele>521.0</ele><time>2026-04-12T07:29:19.993Z</time></trkpt><trkpt lat="44.5847373" lon="7.9681948"><ele>521.0</ele><time>2026-04-12T07:29:24.995Z</time></trkpt><trkpt lat="44.5847232" lon="7.9680892"><ele>521.0</ele><time>2026-04-12T07:29:28.993Z</time></trkpt><trkpt lat="44.5846597" lon="7.9680727"><ele>521.0</ele><time>2026-04-12T07:29:54.994Z</time></trkpt><trkpt lat="44.5846841" lon="7.968187"><ele>521.0</ele><time>2026-04-12T07:30:19.993Z</time></trkpt><trkpt lat="44.5847358" lon="7.9682478"><ele>521.0</ele><time>2026-04-12T07:30:24.993Z</time></trkpt><trkpt lat="44.5847603" lon="7.9681512"><ele>521.0</ele><time>2026-04-12T07:30:27.994Z</time></trkpt><trkpt lat="44.5847863" lon="7.9680677"><ele>521.0</ele><time>2026-04-12T07:30:30.994Z</time></trkpt><trkpt lat="44.584875" lon="7.9680772"><ele>521.0</ele><time>2026-04-12T07:30:33.993Z</time></trkpt><trkpt lat="44.5849538" lon="7.9681011"><ele>521.0</ele><time>2026-04-12T07:30:35.994Z</time></trkpt><trkpt lat="44.5850087" lon="7.9681629"><ele>521.0</ele><time>2026-04-12T07:30:37.994Z</time></trkpt><trkpt lat="44.5850003" lon="7.9682864"><ele>521.0</ele><time>2026-04-12T07:30:40.993Z</time></trkpt><trkpt lat="44.5849581" lon="7.9683604"><ele>521.0</ele><time>2026-04-12T07:30:42.993Z</time></trkpt><trkpt lat="44.5848943" lon="7.9684322"><ele>521.0</ele><time>2026-04-12T07:30:44.994Z</time></trkpt><trkpt lat="44.5848346" lon="7.9684986"><ele>521.0</ele><time>2026-04-12T07:30:46.993Z</time></trkpt><trkpt lat="44.5847422" lon="7.968494"><ele>520.3333333333333</ele><time>2026-04-12T07:30:48.994Z</time></trkpt><trkpt lat="44.5846445" lon="7.9684718"><ele>519.6666666666666</ele><time>2026-04-12T07:30:50.995Z</time></trkpt><trkpt lat="44.5845675" lon="7.9684295"><ele>519.0</ele><time>2026-04-12T07:30:52.994Z</time></trkpt><trkpt lat="44.5844971" lon="7.9683551"><ele>518.3333333333334</ele><time>2026-04-12T07:30:54.993Z</time></trkpt><trkpt lat="44.5844127" lon="7.9682933"><ele>517.6666666666667</ele><time>2026-04-12T07:30:56.996Z</time></trkpt><trkpt lat="44.5843419" lon="7.9682357"><ele>517.0</ele><time>2026-04-12T07:30:59.994Z</time></trkpt><trkpt lat="44.5843242" lon="7.9681401"><ele>515.0</ele><time>2026-04-12T07:31:02.994Z</time></trkpt><trkpt lat="44.5842443" lon="7.9681403"><ele>513.0</ele><time>2026-04-12T07:31:04.993Z</time></trkpt><trkpt lat="44.584197" lon="7.9682194"><ele>511.0</ele><time>2026-04-12T07:31:07.993Z</time></trkpt><trkpt lat="44.5841877" lon="7.9681218"><ele>509.0</ele><time>2026-04-12T07:31:17.993Z</time></trkpt><trkpt lat="44.5841894" lon="7.9680156"><ele>507.00000000000006</ele><time>2026-04-12T07:31:19.993Z</time></trkpt><trkpt lat="44.5841968" lon="7.9679175"><ele>505.0</ele><time>2026-04-12T07:31:21.994Z</time></trkpt><trkpt lat="44.5841085" lon="7.9678907"><ele>505.00000000000006</ele><time>2026-04-12T07:31:27.993Z</time></trkpt><trkpt lat="44.584038" lon="7.9679359"><ele>505.0</ele><time>2026-04-12T07:31:29.993Z</time></trkpt><trkpt lat="44.5839935" lon="7.968021"><ele>505.0</ele><time>2026-04-12T07:31:31.994Z</time></trkpt><trkpt lat="44.5839255" lon="7.968056"><ele>505.0</ele><time>2026-04-12T07:31:33.993Z</time></trkpt><trkpt lat="44.5838421" lon="7.9680163"><ele>505.00000000000006</ele><time>2026-04-12T07:31:36.993Z</time></trkpt><trkpt lat="44.5838375" lon="7.9679112"><ele>505.0</ele><time>2026-04-12T07:31:40.993Z</time></trkpt><trkpt lat="44.5838686" lon="7.9677904"><ele>505.00000000000006</ele><time>2026-04-12T07:31:43.995Z</time></trkpt><trkpt lat="44.5838602" lon="7.9676716"><ele>505.0</ele><time>2026-04-12T07:31:46.994Z</time></trkpt><trkpt lat="44.5837755" lon="7.967647"><ele>505.0</ele><time>2026-04-12T07:31:49.994Z</time></trkpt><trkpt lat="44.5837072" lon="7.9676706"><ele>505.0</ele><time>2026-04-12T07:31:52.994Z</time></trkpt><trkpt lat="44.5836211" lon="7.9676929"><ele>505.00000000000006</ele><time>2026-04-12T07:31:55.994Z</time></trkpt><trkpt lat="44.5835295" lon="7.9677459"><ele>505.0</ele><time>2026-04-12T07:31:57.993Z</time></trkpt><trkpt lat="44.5834581" lon="7.9677841"><ele>500.83333333333337</ele><time>2026-04-12T07:31:59.993Z</time></trkpt><trkpt lat="44.5833815" lon="7.9677997"><ele>496.6666666666667</ele><time>2026-04-12T07:32:01.994Z</time></trkpt><trkpt lat="44.5833016" lon="7.9677781"><ele>492.5</ele><time>2026-04-12T07:32:03.993Z</time></trkpt><trkpt lat="44.5832278" lon="7.9677668"><ele>488.33333333333337</ele><time>2026-04-12T07:32:05.993Z</time></trkpt><trkpt lat="44.5831561" lon="7.9677614"><ele>484.1666666666667</ele><time>2026-04-12T07:32:08.993Z</time></trkpt><trkpt lat="44.5831847" lon="7.9676467"><ele>480.0</ele><time>2026-04-12T07:32:11.993Z</time></trkpt><trkpt lat="44.5832507" lon="7.9675988"><ele>480.0</ele><time>2026-04-12T07:32:13.993Z</time></trkpt><trkpt lat="44.5833198" lon="7.9675368"><ele>480.0</ele><time>2026-04-12T07:32:15.993Z</time></trkpt><trkpt lat="44.5833898" lon="7.9674518"><ele>480.0</ele><time>2026-04-12T07:32:17.993Z</time></trkpt><trkpt lat="44.5834661" lon="7.9673584"><ele>480.0</ele><time>2026-04-12T07:32:19.993Z</time></trkpt><trkpt lat="44.5835482" lon="7.967257"><ele>480.0</ele><time>2026-04-12T07:32:21.993Z</time></trkpt><trkpt lat="44.5836472" lon="7.9671433"><ele>481.0</ele><time>2026-04-12T07:32:23.994Z</time></trkpt><trkpt lat="44.5836965" lon="7.9670858"><ele>482.0</ele><time>2026-04-12T07:32:24.993Z</time></trkpt><trkpt lat="44.5837464" lon="7.9670249"><ele>483.0</ele><time>2026-04-12T07:32:25.993Z</time></trkpt><trkpt lat="44.5837998" lon="7.9669598"><ele>484.0</ele><time>2026-04-12T07:32:26.993Z</time></trkpt><trkpt lat="44.5838545" lon="7.9668914"><ele>485.0</ele><time>2026-04-12T07:32:27.993Z</time></trkpt><trkpt lat="44.5839085" lon="7.9668222"><ele>486.0</ele><time>2026-04-12T07:32:28.993Z</time></trkpt><trkpt lat="44.5839646" lon="7.9667518"><ele>487.0</ele><time>2026-04-12T07:32:29.994Z</time></trkpt><trkpt lat="44.5840257" lon="7.9666796"><ele>483.83333333333337</ele><time>2026-04-12T07:32:30.993Z</time></trkpt><trkpt lat="44.5840855" lon="7.9666082"><ele>480.6666666666667</ele><time>2026-04-12T07:32:31.993Z</time></trkpt><trkpt lat="44.5841379" lon="7.9665457"><ele>477.5</ele><time>2026-04-12T07:32:32.994Z</time></trkpt><trkpt lat="44.5841879" lon="7.966489"><ele>474.33333333333337</ele><time>2026-04-12T07:32:33.993Z</time></trkpt><trkpt lat="44.5842724" lon="7.9663818"><ele>471.1666666666667</ele><time>2026-04-12T07:32:35.993Z</time></trkpt><trkpt lat="44.5843174" lon="7.9663127"><ele>468.0</ele><time>2026-04-12T07:32:36.994Z</time></trkpt><trkpt lat="44.5843697" lon="7.9662477"><ele>468.0</ele><time>2026-04-12T07:32:37.993Z</time></trkpt><trkpt lat="44.5844286" lon="7.9661764"><ele>468.0</ele><time>2026-04-12T07:32:38.994Z</time></trkpt><trkpt lat="44.584494" lon="7.9661101"><ele>468.0</ele><time>2026-04-12T07:32:39.993Z</time></trkpt><trkpt lat="44.5845646" lon="7.9660473"><ele>468.0</ele><time>2026-04-12T07:32:40.993Z</time></trkpt><trkpt lat="44.5846417" lon="7.9659908"><ele>468.0</ele><time>2026-04-12T07:32:41.993Z</time></trkpt><trkpt lat="44.5847231" lon="7.9659471"><ele>468.0</ele><time>2026-04-12T07:32:42.993Z</time></trkpt><trkpt lat="44.584812" lon="7.9659181"><ele>466.59999999999997</ele><time>2026-04-12T07:32:43.993Z</time></trkpt><trkpt lat="44.5849015" lon="7.9658724"><ele>465.19999999999993</ele><time>2026-04-12T07:32:44.993Z</time></trkpt><trkpt lat="44.5849986" lon="7.9658136"><ele>463.8</ele><time>2026-04-12T07:32:45.994Z</time></trkpt><trkpt lat="44.5850888" lon="7.9657464"><ele>462.4</ele><time>2026-04-12T07:32:46.993Z</time></trkpt><trkpt lat="44.5851764" lon="7.9656772"><ele>461.0</ele><time>2026-04-12T07:32:47.994Z</time></trkpt><trkpt lat="44.5852594" lon="7.9655747"><ele>461.0</ele><time>2026-04-12T07:32:48.993Z</time></trkpt><trkpt lat="44.5853301" lon="7.965467"><ele>461.0</ele><time>2026-04-12T07:32:49.993Z</time></trkpt><trkpt lat="44.5853995" lon="7.965351"><ele>461.0</ele><time>2026-04-12T07:32:50.994Z</time></trkpt><trkpt lat="44.5854592" lon="7.9652262"><ele>461.0</ele><time>2026-04-12T07:32:51.994Z</time></trkpt><trkpt lat="44.5855077" lon="7.9650836"><ele>461.0</ele><time>2026-04-12T07:32:52.993Z</time></trkpt><trkpt lat="44.5855553" lon="7.9649418"><ele>459.75</ele><time>2026-04-12T07:32:53.994Z</time></trkpt><trkpt lat="44.5856045" lon="7.9647861"><ele>458.5</ele><time>2026-04-12T07:32:54.993Z</time></trkpt><trkpt lat="44.5856496" lon="7.9646364"><ele>457.25</ele><time>2026-04-12T07:32:55.993Z</time></trkpt><trkpt lat="44.5856937" lon="7.9644734"><ele>456.0</ele><time>2026-04-12T07:32:56.994Z</time></trkpt><trkpt lat="44.5857442" lon="7.9643169"><ele>452.5</ele><time>2026-04-12T07:32:57.993Z</time></trkpt><trkpt lat="44.5857944" lon="7.9641678"><ele>449.0</ele><time>2026-04-12T07:32:58.993Z</time></trkpt><trkpt lat="44.5858441" lon="7.9640218"><ele>445.5</ele><time>2026-04-12T07:32:59.995Z</time></trkpt><trkpt lat="44.5858939" lon="7.9638783"><ele>442.0</ele><time>2026-04-12T07:33:00.993Z</time></trkpt><trkpt lat="44.585946" lon="7.9637443"><ele>442.00000000000006</ele><time>2026-04-12T07:33:01.993Z</time></trkpt><trkpt lat="44.5859956" lon="7.9636158"><ele>442.0</ele><time>2026-04-12T07:33:02.994Z</time></trkpt><trkpt lat="44.5860427" lon="7.9635156"><ele>442.0</ele><time>2026-04-12T07:33:03.994Z</time></trkpt><trkpt lat="44.586074" lon="7.9634238"><ele>442.0</ele><time>2026-04-12T07:33:04.994Z</time></trkpt><trkpt lat="44.5861271" lon="7.963313"><ele>442.00000000000006</ele><time>2026-04-12T07:33:06.993Z</time></trkpt><trkpt lat="44.5861705" lon="7.9632446"><ele>442.0</ele><time>2026-04-12T07:33:08.995Z</time></trkpt><trkpt lat="44.5862071" lon="7.963155"><ele>441.33333333333337</ele><time>2026-04-12T07:33:11.993Z</time></trkpt><trkpt lat="44.5861534" lon="7.9632172"><ele>440.6666666666667</ele><time>2026-04-12T07:33:16.993Z</time></trkpt><trkpt lat="44.5861502" lon="7.9633381"><ele>440.0</ele><time>2026-04-12T07:33:19.993Z</time></trkpt><trkpt lat="44.5862283" lon="7.9634041"><ele>439.33333333333337</ele><time>2026-04-12T07:33:22.994Z</time></trkpt><trkpt lat="44.5862952" lon="7.963437"><ele>438.6666666666667</ele><time>2026-04-12T07:33:24.994Z</time></trkpt><trkpt lat="44.5863821" lon="7.9634802"><ele>438.0</ele><time>2026-04-12T07:33:26.993Z</time></trkpt><trkpt lat="44.5864948" lon="7.9635576"><ele>438.0</ele><time>2026-04-12T07:33:28.993Z</time></trkpt><trkpt lat="44.5865583" lon="7.9636097"><ele>438.0</ele><time>2026-04-12T07:33:29.994Z</time></trkpt><trkpt lat="44.5866321" lon="7.9636648"><ele>438.0</ele><time>2026-04-12T07:33:30.993Z</time></trkpt><trkpt lat="44.5867067" lon="7.9637128"><ele>438.0</ele><time>2026-04-12T07:33:31.994Z</time></trkpt><trkpt lat="44.5867951" lon="7.9637612"><ele>438.0</ele><time>2026-04-12T07:33:32.994Z</time></trkpt><trkpt lat="44.5868834" lon="7.9638167"><ele>438.0</ele><time>2026-04-12T07:33:33.993Z</time></trkpt><trkpt lat="44.5869619" lon="7.9638877"><ele>436.59999999999997</ele><time>2026-04-12T07:33:34.993Z</time></trkpt><trkpt lat="44.5870402" lon="7.9639649"><ele>435.19999999999993</ele><time>2026-04-12T07:33:35.994Z</time></trkpt><trkpt lat="44.5871177" lon="7.964044"><ele>433.8</ele><time>2026-04-12T07:33:36.993Z</time></trkpt><trkpt lat="44.5871964" lon="7.9641243"><ele>432.4</ele><time>2026-04-12T07:33:37.995Z</time></trkpt><trkpt lat="44.5872718" lon="7.9642122"><ele>431.0</ele><time>2026-04-12T07:33:38.993Z</time></trkpt><trkpt lat="44.5873491" lon="7.9643034"><ele>431.0</ele><time>2026-04-12T07:33:39.994Z</time></trkpt><trkpt lat="44.5874246" lon="7.9643983"><ele>431.0</ele><time>2026-04-12T07:33:40.993Z</time></trkpt><trkpt lat="44.5875124" lon="7.9644909"><ele>431.0</ele><time>2026-04-12T07:33:41.994Z</time></trkpt><trkpt lat="44.5875899" lon="7.9645884"><ele>431.0</ele><time>2026-04-12T07:33:42.993Z</time></trkpt><trkpt lat="44.5876681" lon="7.9646874"><ele>431.0</ele><time>2026-04-12T07:33:43.993Z</time></trkpt><trkpt lat="44.5877443" lon="7.9647873"><ele>430.99999999999994</ele><time>2026-04-12T07:33:44.994Z</time></trkpt><trkpt lat="44.587816" lon="7.9648837"><ele>431.0</ele><time>2026-04-12T07:33:45.995Z</time></trkpt><trkpt lat="44.5878895" lon="7.9649786"><ele>431.0</ele><time>2026-04-12T07:33:46.993Z</time></trkpt><trkpt lat="44.5879601" lon="7.9650619"><ele>431.0</ele><time>2026-04-12T07:33:47.994Z</time></trkpt><trkpt lat="44.5880124" lon="7.9651447"><ele>430.99999999999994</ele><time>2026-04-12T07:33:48.994Z</time></trkpt><trkpt lat="44.5880521" lon="7.9652344"><ele>431.0</ele><time>2026-04-12T07:33:49.993Z</time></trkpt><trkpt lat="44.5880854" lon="7.9653445"><ele>428.99999999999994</ele><time>2026-04-12T07:33:50.993Z</time></trkpt><trkpt lat="44.5880881" lon="7.9654541"><ele>427.0</ele><time>2026-04-12T07:33:51.994Z</time></trkpt><trkpt lat="44.5880847" lon="7.9655696"><ele>425.0</ele><time>2026-04-12T07:33:52.993Z</time></trkpt><trkpt lat="44.5880785" lon="7.9656963"><ele>423.0</ele><time>2026-04-12T07:33:53.995Z</time></trkpt><trkpt lat="44.5880767" lon="7.9658317"><ele>420.99999999999994</ele><time>2026-04-12T07:33:54.993Z</time></trkpt><trkpt lat="44.5880619" lon="7.9659569"><ele>419.0</ele><time>2026-04-12T07:33:55.994Z</time></trkpt><trkpt lat="44.5880676" lon="7.9660864"><ele>418.99999999999994</ele><time>2026-04-12T07:33:56.995Z</time></trkpt><trkpt lat="44.5880969" lon="7.9662039"><ele>419.0</ele><time>2026-04-12T07:33:57.993Z</time></trkpt><trkpt lat="44.5881242" lon="7.9663189"><ele>419.0</ele><time>2026-04-12T07:33:58.993Z</time></trkpt><trkpt lat="44.58818" lon="7.966408"><ele>419.0</ele><time>2026-04-12T07:33:59.994Z</time></trkpt><trkpt lat="44.5882212" lon="7.9664787"><ele>418.99999999999994</ele><time>2026-04-12T07:34:00.994Z</time></trkpt><trkpt lat="44.5882843" lon="7.9664884"><ele>419.0</ele><time>2026-04-12T07:34:01.994Z</time></trkpt><trkpt lat="44.5883816" lon="7.9663923"><ele>418.99999999999994</ele><time>2026-04-12T07:34:03.995Z</time></trkpt><trkpt lat="44.5884122" lon="7.9663096"><ele>419.0</ele><time>2026-04-12T07:34:04.995Z</time></trkpt><trkpt lat="44.5884327" lon="7.9662193"><ele>419.0</ele><time>2026-04-12T07:34:05.994Z</time></trkpt><trkpt lat="44.5884613" lon="7.9661182"><ele>419.0</ele><time>2026-04-12T07:34:06.994Z</time></trkpt><trkpt lat="44.5884995" lon="7.9660139"><ele>418.99999999999994</ele><time>2026-04-12T07:34:07.994Z</time></trkpt><trkpt lat="44.5885533" lon="7.9659049"><ele>419.0</ele><time>2026-04-12T07:34:08.994Z</time></trkpt><trkpt lat="44.5886174" lon="7.9657907"><ele>416.6</ele><time>2026-04-12T07:34:09.993Z</time></trkpt><trkpt lat="44.588685" lon="7.9656757"><ele>414.2</ele><time>2026-04-12T07:34:10.994Z</time></trkpt><trkpt lat="44.5887492" lon="7.9655699"><ele>411.8</ele><time>2026-04-12T07:34:11.993Z</time></trkpt><trkpt lat="44.5888183" lon="7.9654713"><ele>409.40000000000003</ele><time>2026-04-12T07:34:12.993Z</time></trkpt><trkpt lat="44.5888907" lon="7.9653816"><ele>407.0</ele><time>2026-04-12T07:34:13.993Z</time></trkpt><trkpt lat="44.5889776" lon="7.9653012"><ele>407.0</ele><time>2026-04-12T07:34:14.993Z</time></trkpt><trkpt lat="44.589076" lon="7.9652237"><ele>407.0</ele><time>2026-04-12T07:34:15.994Z</time></trkpt><trkpt lat="44.589186" lon="7.9651457"><ele>407.0</ele><time>2026-04-12T07:34:16.995Z</time></trkpt><trkpt lat="44.5892966" lon="7.9650569"><ele>407.0</ele><time>2026-04-12T07:34:17.993Z</time></trkpt><trkpt lat="44.5894111" lon="7.9649798"><ele>402.0</ele><time>2026-04-12T07:34:18.994Z</time></trkpt><trkpt lat="44.5895329" lon="7.9649071"><ele>397.0</ele><time>2026-04-12T07:34:19.995Z</time></trkpt><trkpt lat="44.5896444" lon="7.9648306"><ele>392.0</ele><time>2026-04-12T07:34:20.993Z</time></trkpt><trkpt lat="44.5897423" lon="7.9647545"><ele>387.0</ele><time>2026-04-12T07:34:21.994Z</time></trkpt><trkpt lat="44.5898302" lon="7.9646725"><ele>387.0</ele><time>2026-04-12T07:34:22.994Z</time></trkpt><trkpt lat="44.5899064" lon="7.9645825"><ele>387.0</ele><time>2026-04-12T07:34:23.994Z</time></trkpt><trkpt lat="44.5899714" lon="7.9644768"><ele>387.0</ele><time>2026-04-12T07:34:24.994Z</time></trkpt><trkpt lat="44.5900283" lon="7.9643781"><ele>387.0</ele><time>2026-04-12T07:34:25.994Z</time></trkpt><trkpt lat="44.5900711" lon="7.9642692"><ele>387.0</ele><time>2026-04-12T07:34:26.993Z</time></trkpt><trkpt lat="44.5901046" lon="7.9641598"><ele>385.6666666666667</ele><time>2026-04-12T07:34:27.993Z</time></trkpt><trkpt lat="44.5901475" lon="7.9640487"><ele>384.3333333333333</ele><time>2026-04-12T07:34:28.993Z</time></trkpt><trkpt lat="44.5902003" lon="7.9639686"><ele>383.0</ele><time>2026-04-12T07:34:29.993Z</time></trkpt><trkpt lat="44.5902707" lon="7.9639213"><ele>381.66666666666663</ele><time>2026-04-12T07:34:30.994Z</time></trkpt><trkpt lat="44.5903446" lon="7.9639053"><ele>380.3333333333333</ele><time>2026-04-12T07:34:31.994Z</time></trkpt><trkpt lat="44.5904318" lon="7.9639136"><ele>379.0</ele><time>2026-04-12T07:34:32.993Z</time></trkpt><trkpt lat="44.5905178" lon="7.9639315"><ele>377.79999999999995</ele><time>2026-04-12T07:34:33.994Z</time></trkpt><trkpt lat="44.5906083" lon="7.9639351"><ele>376.59999999999997</ele><time>2026-04-12T07:34:34.993Z</time></trkpt><trkpt lat="44.5907046" lon="7.963923"><ele>375.4</ele><time>2026-04-12T07:34:35.994Z</time></trkpt><trkpt lat="44.5908008" lon="7.9638927"><ele>374.2</ele><time>2026-04-12T07:34:36.995Z</time></trkpt><trkpt lat="44.5909007" lon="7.9638477"><ele>373.0</ele><time>2026-04-12T07:34:37.993Z</time></trkpt><trkpt lat="44.5910012" lon="7.9637934"><ele>373.0</ele><time>2026-04-12T07:34:38.993Z</time></trkpt><trkpt lat="44.5911056" lon="7.9637498"><ele>373.0</ele><time>2026-04-12T07:34:39.993Z</time></trkpt><trkpt lat="44.5912199" lon="7.9637259"><ele>373.0</ele><time>2026-04-12T07:34:40.993Z</time></trkpt><trkpt lat="44.5913345" lon="7.9637147"><ele>373.0</ele><time>2026-04-12T07:34:41.994Z</time></trkpt><trkpt lat="44.5914483" lon="7.9637208"><ele>372.0</ele><time>2026-04-12T07:34:42.994Z</time></trkpt><trkpt lat="44.5915624" lon="7.9637349"><ele>371.0</ele><time>2026-04-12T07:34:43.993Z</time></trkpt><trkpt lat="44.5916693" lon="7.9637733"><ele>370.0</ele><time>2026-04-12T07:34:44.994Z</time></trkpt><trkpt lat="44.5917661" lon="7.9637939"><ele>369.0</ele><time>2026-04-12T07:34:45.995Z</time></trkpt><trkpt lat="44.5918631" lon="7.9637974"><ele>368.0</ele><time>2026-04-12T07:34:46.994Z</time></trkpt><trkpt lat="44.5919679" lon="7.963778"><ele>367.2</ele><time>2026-04-12T07:34:47.994Z</time></trkpt><trkpt lat="44.5920709" lon="7.9637382"><ele>366.4</ele><time>2026-04-12T07:34:48.993Z</time></trkpt><trkpt lat="44.5921727" lon="7.9636802"><ele>365.59999999999997</ele><time>2026-04-12T07:34:49.995Z</time></trkpt><trkpt lat="44.5922763" lon="7.9636154"><ele>364.79999999999995</ele><time>2026-04-12T07:34:50.995Z</time></trkpt><trkpt lat="44.5923777" lon="7.9635411"><ele>364.0</ele><time>2026-04-12T07:34:51.995Z</time></trkpt><trkpt lat="44.5924836" lon="7.9634636"><ele>364.0</ele><time>2026-04-12T07:34:52.995Z</time></trkpt><trkpt lat="44.5925925" lon="7.9633856"><ele>364.0</ele><time>2026-04-12T07:34:53.994Z</time></trkpt><trkpt lat="44.5926953" lon="7.9632992"><ele>364.0</ele><time>2026-04-12T07:34:54.993Z</time></trkpt><trkpt lat="44.5927957" lon="7.9632054"><ele>364.0</ele><time>2026-04-12T07:34:55.995Z</time></trkpt><trkpt lat="44.592891" lon="7.9631221"><ele>361.79999999999995</ele><time>2026-04-12T07:34:56.993Z</time></trkpt><trkpt lat="44.5929773" lon="7.9630574"><ele>359.59999999999997</ele><time>2026-04-12T07:34:57.993Z</time></trkpt><trkpt lat="44.5930687" lon="7.9630097"><ele>357.4</ele><time>2026-04-12T07:34:58.994Z</time></trkpt><trkpt lat="44.5931637" lon="7.9629769"><ele>355.2</ele><time>2026-04-12T07:34:59.993Z</time></trkpt><trkpt lat="44.5932531" lon="7.9629605"><ele>353.0</ele><time>2026-04-12T07:35:00.993Z</time></trkpt><trkpt lat="44.5933459" lon="7.96295"><ele>353.0</ele><time>2026-04-12T07:35:01.993Z</time></trkpt><trkpt lat="44.5934374" lon="7.9629433"><ele>353.0</ele><time>2026-04-12T07:35:02.993Z</time></trkpt><trkpt lat="44.5935387" lon="7.9629264"><ele>353.0</ele><time>2026-04-12T07:35:03.994Z</time></trkpt><trkpt lat="44.5936483" lon="7.962912"><ele>353.0</ele><time>2026-04-12T07:35:04.993Z</time></trkpt><trkpt lat="44.5937588" lon="7.9628989"><ele>353.0</ele><time>2026-04-12T07:35:05.994Z</time></trkpt><trkpt lat="44.5938708" lon="7.96288"><ele>352.59999999999997</ele><time>2026-04-12T07:35:06.994Z</time></trkpt><trkpt lat="44.5939817" lon="7.9628593"><ele>352.2</ele><time>2026-04-12T07:35:07.995Z</time></trkpt><trkpt lat="44.5940924" lon="7.9628203"><ele>351.8</ele><time>2026-04-12T07:35:08.993Z</time></trkpt><trkpt lat="44.5941994" lon="7.962771"><ele>351.4</ele><time>2026-04-12T07:35:09.993Z</time></trkpt><trkpt lat="44.5943036" lon="7.9627282"><ele>351.0</ele><time>2026-04-12T07:35:10.994Z</time></trkpt><trkpt lat="44.5944065" lon="7.962689"><ele>351.0</ele><time>2026-04-12T07:35:11.993Z</time></trkpt><trkpt lat="44.5945005" lon="7.9626525"><ele>351.0</ele><time>2026-04-12T07:35:12.994Z</time></trkpt><trkpt lat="44.5945962" lon="7.9625962"><ele>351.0</ele><time>2026-04-12T07:35:13.995Z</time></trkpt><trkpt lat="44.5946912" lon="7.9625462"><ele>351.0</ele><time>2026-04-12T07:35:14.994Z</time></trkpt><trkpt lat="44.5947864" lon="7.9624918"><ele>351.0</ele><time>2026-04-12T07:35:15.995Z</time></trkpt><trkpt lat="44.5948796" lon="7.9624477"><ele>349.0</ele><time>2026-04-12T07:35:16.994Z</time></trkpt><trkpt lat="44.594977" lon="7.9624049"><ele>347.0</ele><time>2026-04-12T07:35:17.993Z</time></trkpt><trkpt lat="44.595073" lon="7.9623618"><ele>345.0</ele><time>2026-04-12T07:35:18.993Z</time></trkpt><trkpt lat="44.5951681" lon="7.9623239"><ele>343.0</ele><time>2026-04-12T07:35:19.995Z</time></trkpt><trkpt lat="44.5952506" lon="7.9622965"><ele>341.0</ele><time>2026-04-12T07:35:20.993Z</time></trkpt><trkpt lat="44.5953284" lon="7.9622813"><ele>341.0</ele><time>2026-04-12T07:35:21.994Z</time></trkpt><trkpt lat="44.5954056" lon="7.9622766"><ele>341.0</ele><time>2026-04-12T07:35:22.993Z</time></trkpt><trkpt lat="44.5954769" lon="7.9622997"><ele>341.0</ele><time>2026-04-12T07:35:23.994Z</time></trkpt><trkpt lat="44.5955573" lon="7.9623216"><ele>341.0</ele><time>2026-04-12T07:35:24.995Z</time></trkpt><trkpt lat="44.5956427" lon="7.9623788"><ele>341.0</ele><time>2026-04-12T07:35:25.993Z</time></trkpt><trkpt lat="44.5957094" lon="7.9624541"><ele>341.0</ele><time>2026-04-12T07:35:26.994Z</time></trkpt><trkpt lat="44.5957739" lon="7.9625423"><ele>341.0</ele><time>2026-04-12T07:35:27.993Z</time></trkpt><trkpt lat="44.5958205" lon="7.962623"><ele>341.0</ele><time>2026-04-12T07:35:28.994Z</time></trkpt><trkpt lat="44.5959053" lon="7.9626907"><ele>341.0</ele><time>2026-04-12T07:35:30.994Z</time></trkpt><trkpt lat="44.5959906" lon="7.9626578"><ele>341.0</ele><time>2026-04-12T07:35:32.993Z</time></trkpt><trkpt lat="44.5960356" lon="7.9625597"><ele>341.0</ele><time>2026-04-12T07:35:34.994Z</time></trkpt><trkpt lat="44.5960718" lon="7.9624376"><ele>341.0</ele><time>2026-04-12T07:35:36.994Z</time></trkpt><trkpt lat="44.5960738" lon="7.9623146"><ele>340.20000000000005</ele><time>2026-04-12T07:35:38.993Z</time></trkpt><trkpt lat="44.596067" lon="7.9621972"><ele>339.40000000000003</ele><time>2026-04-12T07:35:40.993Z</time></trkpt><trkpt lat="44.5960599" lon="7.9620785"><ele>338.6</ele><time>2026-04-12T07:35:42.994Z</time></trkpt><trkpt lat="44.5960621" lon="7.9619532"><ele>337.8</ele><time>2026-04-12T07:35:44.993Z</time></trkpt><trkpt lat="44.5960859" lon="7.9618195"><ele>337.0</ele><time>2026-04-12T07:35:46.994Z</time></trkpt><trkpt lat="44.5961351" lon="7.9616908"><ele>337.5</ele><time>2026-04-12T07:35:48.993Z</time></trkpt><trkpt lat="44.5962087" lon="7.9615785"><ele>338.0</ele><time>2026-04-12T07:35:50.993Z</time></trkpt><trkpt lat="44.5963051" lon="7.9614941"><ele>338.5</ele><time>2026-04-12T07:35:52.993Z</time></trkpt><trkpt lat="44.5964028" lon="7.9614059"><ele>339.0</ele><time>2026-04-12T07:35:54.994Z</time></trkpt><trkpt lat="44.5965059" lon="7.9613004"><ele>339.0</ele><time>2026-04-12T07:35:56.993Z</time></trkpt><trkpt lat="44.596556" lon="7.9612382"><ele>339.0</ele><time>2026-04-12T07:35:57.993Z</time></trkpt><trkpt lat="44.5966016" lon="7.9611748"><ele>339.0</ele><time>2026-04-12T07:35:58.994Z</time></trkpt><trkpt lat="44.5966483" lon="7.9611118"><ele>339.0</ele><time>2026-04-12T07:35:59.993Z</time></trkpt><trkpt lat="44.5966949" lon="7.9610516"><ele>339.0</ele><time>2026-04-12T07:36:00.994Z</time></trkpt><trkpt lat="44.596803" lon="7.9609555"><ele>339.0</ele><time>2026-04-12T07:36:02.994Z</time></trkpt><trkpt lat="44.5968582" lon="7.9609126"><ele>338.1666666666667</ele><time>2026-04-12T07:36:03.995Z</time></trkpt><trkpt lat="44.5969488" lon="7.9608611"><ele>337.3333333333333</ele><time>2026-04-12T07:36:05.994Z</time></trkpt><trkpt lat="44.5970197" lon="7.9608197"><ele>336.5</ele><time>2026-04-12T07:36:08.994Z</time></trkpt><trkpt lat="44.5970896" lon="7.9607746"><ele>335.66666666666663</ele><time>2026-04-12T07:36:12.994Z</time></trkpt><trkpt lat="44.59714" lon="7.9607108"><ele>334.8333333333333</ele><time>2026-04-12T07:36:15.994Z</time></trkpt><trkpt lat="44.5972286" lon="7.9606627"><ele>334.0</ele><time>2026-04-12T07:36:18.994Z</time></trkpt><trkpt lat="44.5973069" lon="7.9606513"><ele>334.0</ele><time>2026-04-12T07:36:20.994Z</time></trkpt><trkpt lat="44.5973879" lon="7.9606518"><ele>334.0</ele><time>2026-04-12T07:36:22.994Z</time></trkpt><trkpt lat="44.5974829" lon="7.9606532"><ele>334.0</ele><time>2026-04-12T07:36:24.994Z</time></trkpt><trkpt lat="44.5975821" lon="7.960647"><ele>334.0</ele><time>2026-04-12T07:36:26.994Z</time></trkpt><trkpt lat="44.5976843" lon="7.9606345"><ele>334.0</ele><time>2026-04-12T07:36:28.994Z</time></trkpt><trkpt lat="44.5977838" lon="7.9606016"><ele>333.8333333333333</ele><time>2026-04-12T07:36:30.994Z</time></trkpt><trkpt lat="44.5978686" lon="7.9605675"><ele>333.66666666666663</ele><time>2026-04-12T07:36:32.995Z</time></trkpt><trkpt lat="44.597941" lon="7.9605506"><ele>333.5</ele><time>2026-04-12T07:36:34.994Z</time></trkpt><trkpt lat="44.5980189" lon="7.9605498"><ele>333.3333333333333</ele><time>2026-04-12T07:36:36.994Z</time></trkpt><trkpt lat="44.5981062" lon="7.9605769"><ele>333.1666666666667</ele><time>2026-04-12T07:36:38.993Z</time></trkpt><trkpt lat="44.5981986" lon="7.9606234"><ele>333.0</ele><time>2026-04-12T07:36:40.993Z</time></trkpt><trkpt lat="44.5982936" lon="7.9606467"><ele>333.0</ele><time>2026-04-12T07:36:42.994Z</time></trkpt><trkpt lat="44.5983897" lon="7.9606718"><ele>333.0</ele><time>2026-04-12T07:36:44.994Z</time></trkpt><trkpt lat="44.5984853" lon="7.9606583"><ele>333.0</ele><time>2026-04-12T07:36:46.993Z</time></trkpt><trkpt lat="44.5985807" lon="7.9606049"><ele>333.0</ele><time>2026-04-12T07:36:48.994Z</time></trkpt><trkpt lat="44.59866" lon="7.9605364"><ele>333.0</ele><time>2026-04-12T07:36:50.995Z</time></trkpt><trkpt lat="44.5987304" lon="7.9604556"><ele>332.4</ele><time>2026-04-12T07:36:52.993Z</time></trkpt><trkpt lat="44.5987692" lon="7.9603163"><ele>331.79999999999995</ele><time>2026-04-12T07:36:54.994Z</time></trkpt><trkpt lat="44.5988004" lon="7.9601605"><ele>331.2</ele><time>2026-04-12T07:36:56.994Z</time></trkpt><trkpt lat="44.5988264" lon="7.9600225"><ele>330.6</ele><time>2026-04-12T07:36:58.993Z</time></trkpt><trkpt lat="44.5988438" lon="7.959871"><ele>330.0</ele><time>2026-04-12T07:37:00.994Z</time></trkpt><trkpt lat="44.5988641" lon="7.9597212"><ele>328.6</ele><time>2026-04-12T07:37:02.993Z</time></trkpt><trkpt lat="44.5988828" lon="7.9595574"><ele>327.2</ele><time>2026-04-12T07:37:04.995Z</time></trkpt><trkpt lat="44.5988978" lon="7.9593768"><ele>325.79999999999995</ele><time>2026-04-12T07:37:06.995Z</time></trkpt><trkpt lat="44.5989025" lon="7.9592842"><ele>324.4</ele><time>2026-04-12T07:37:07.994Z</time></trkpt><trkpt lat="44.5989101" lon="7.9591645"><ele>323.0</ele><time>2026-04-12T07:37:09.994Z</time></trkpt><trkpt lat="44.5989253" lon="7.9590618"><ele>322.0</ele><time>2026-04-12T07:37:11.995Z</time></trkpt><trkpt lat="44.5989701" lon="7.9589627"><ele>321.0</ele><time>2026-04-12T07:37:13.993Z</time></trkpt><trkpt lat="44.5990227" lon="7.9588659"><ele>320.0</ele><time>2026-04-12T07:37:15.993Z</time></trkpt><trkpt lat="44.5990412" lon="7.9587498"><ele>319.0</ele><time>2026-04-12T07:37:17.995Z</time></trkpt><trkpt lat="44.5990427" lon="7.9586327"><ele>318.0</ele><time>2026-04-12T07:37:19.993Z</time></trkpt><trkpt lat="44.5990638" lon="7.9585105"><ele>317.0</ele><time>2026-04-12T07:37:21.993Z</time></trkpt><trkpt lat="44.599083" lon="7.9583696"><ele>315.4</ele><time>2026-04-12T07:37:23.993Z</time></trkpt><trkpt lat="44.5991302" lon="7.9582373"><ele>313.79999999999995</ele><time>2026-04-12T07:37:25.995Z</time></trkpt><trkpt lat="44.5991875" lon="7.958121"><ele>312.2</ele><time>2026-04-12T07:37:27.993Z</time></trkpt><trkpt lat="44.599259" lon="7.9580086"><ele>310.59999999999997</ele><time>2026-04-12T07:37:29.993Z</time></trkpt><trkpt lat="44.5993487" lon="7.9579023"><ele>309.0</ele><time>2026-04-12T07:37:31.993Z</time></trkpt><trkpt lat="44.5994302" lon="7.9577971"><ele>309.4</ele><time>2026-04-12T07:37:33.994Z</time></trkpt><trkpt lat="44.5995162" lon="7.9577041"><ele>309.79999999999995</ele><time>2026-04-12T07:37:35.995Z</time></trkpt><trkpt lat="44.5995929" lon="7.9576068"><ele>310.20000000000005</ele><time>2026-04-12T07:37:37.995Z</time></trkpt><trkpt lat="44.5996755" lon="7.9574984"><ele>310.6</ele><time>2026-04-12T07:37:39.993Z</time></trkpt><trkpt lat="44.5997196" lon="7.9574308"><ele>311.0</ele><time>2026-04-12T07:37:40.994Z</time></trkpt><trkpt lat="44.5998088" lon="7.9573081"><ele>311.0</ele><time>2026-04-12T07:37:42.994Z</time></trkpt><trkpt lat="44.5998825" lon="7.9571925"><ele>311.0</ele><time>2026-04-12T07:37:44.995Z</time></trkpt><trkpt lat="44.5999545" lon="7.957115"><ele>311.0</ele><time>2026-04-12T07:37:46.993Z</time></trkpt><trkpt lat="44.6000057" lon="7.9570595"><ele>311.0</ele><time>2026-04-12T07:37:48.995Z</time></trkpt><trkpt lat="44.6000602" lon="7.9569938"><ele>311.0</ele><time>2026-04-12T07:37:50.994Z</time></trkpt><trkpt lat="44.6001282" lon="7.9569016"><ele>311.0</ele><time>2026-04-12T07:37:53.994Z</time></trkpt><trkpt lat="44.600176" lon="7.9568415"><ele>311.0</ele><time>2026-04-12T07:37:55.994Z</time></trkpt><trkpt lat="44.6002321" lon="7.9567846"><ele>311.0</ele><time>2026-04-12T07:37:57.995Z</time></trkpt><trkpt lat="44.6002948" lon="7.9567335"><ele>311.0</ele><time>2026-04-12T07:37:59.995Z</time></trkpt><trkpt lat="44.6003795" lon="7.9566874"><ele>311.0</ele><time>2026-04-12T07:38:01.994Z</time></trkpt><trkpt lat="44.60047" lon="7.9566288"><ele>311.0</ele><time>2026-04-12T07:38:03.994Z</time></trkpt><trkpt lat="44.6005693" lon="7.9565829"><ele>311.0</ele><time>2026-04-12T07:38:05.994Z</time></trkpt><trkpt lat="44.6006642" lon="7.9565256"><ele>310.0</ele><time>2026-04-12T07:38:07.994Z</time></trkpt><trkpt lat="44.600765" lon="7.9564694"><ele>309.0</ele><time>2026-04-12T07:38:09.994Z</time></trkpt><trkpt lat="44.6008678" lon="7.9564155"><ele>308.0</ele><time>2026-04-12T07:38:11.995Z</time></trkpt><trkpt lat="44.6009653" lon="7.9563672"><ele>307.0</ele><time>2026-04-12T07:38:13.995Z</time></trkpt><trkpt lat="44.6010599" lon="7.9563348"><ele>306.0</ele><time>2026-04-12T07:38:15.994Z</time></trkpt><trkpt lat="44.6011486" lon="7.9562907"><ele>305.0</ele><time>2026-04-12T07:38:17.993Z</time></trkpt><trkpt lat="44.6012381" lon="7.9562429"><ele>304.0</ele><time>2026-04-12T07:38:19.994Z</time></trkpt><trkpt lat="44.6013382" lon="7.9562037"><ele>303.0</ele><time>2026-04-12T07:38:21.994Z</time></trkpt><trkpt lat="44.6014421" lon="7.9561793"><ele>302.0</ele><time>2026-04-12T07:38:23.993Z</time></trkpt><trkpt lat="44.6015014" lon="7.9561458"><ele>301.0</ele><time>2026-04-12T07:38:24.993Z</time></trkpt><trkpt lat="44.6015625" lon="7.9561179"><ele>300.0</ele><time>2026-04-12T07:38:25.994Z</time></trkpt><trkpt lat="44.6016404" lon="7.9560926"><ele>300.0</ele><time>2026-04-12T07:38:26.993Z</time></trkpt><trkpt lat="44.6017106" lon="7.9560813"><ele>300.0</ele><time>2026-04-12T07:38:27.993Z</time></trkpt><trkpt lat="44.6017758" lon="7.9560774"><ele>300.0</ele><time>2026-04-12T07:38:28.993Z</time></trkpt><trkpt lat="44.6018872" lon="7.9561005"><ele>300.0</ele><time>2026-04-12T07:38:30.994Z</time></trkpt><trkpt lat="44.6019686" lon="7.9562078"><ele>300.0</ele><time>2026-04-12T07:38:32.995Z</time></trkpt><trkpt lat="44.6020061" lon="7.9562936"><ele>300.0</ele><time>2026-04-12T07:38:33.995Z</time></trkpt><trkpt lat="44.602048" lon="7.956391"><ele>298.99999999999994</ele><time>2026-04-12T07:38:34.995Z</time></trkpt><trkpt lat="44.6020942" lon="7.9564782"><ele>298.0</ele><time>2026-04-12T07:38:35.994Z</time></trkpt><trkpt lat="44.6021449" lon="7.9565507"><ele>297.0</ele><time>2026-04-12T07:38:36.993Z</time></trkpt><trkpt lat="44.6022064" lon="7.9566044"><ele>296.0</ele><time>2026-04-12T07:38:37.994Z</time></trkpt><trkpt lat="44.6022711" lon="7.9566495"><ele>295.0</ele><time>2026-04-12T07:38:38.995Z</time></trkpt><trkpt lat="44.6023443" lon="7.9566829"><ele>293.99999999999994</ele><time>2026-04-12T07:38:39.993Z</time></trkpt><trkpt lat="44.6024086" lon="7.9566966"><ele>293.0</ele><time>2026-04-12T07:38:40.994Z</time></trkpt><trkpt lat="44.6025291" lon="7.9567239"><ele>293.0</ele><time>2026-04-12T07:38:42.994Z</time></trkpt><trkpt lat="44.6026305" lon="7.9567399"><ele>293.0</ele><time>2026-04-12T07:38:44.993Z</time></trkpt><trkpt lat="44.6027255" lon="7.9567116"><ele>293.0</ele><time>2026-04-12T07:38:46.993Z</time></trkpt><trkpt lat="44.6028047" lon="7.9566987"><ele>293.0</ele><time>2026-04-12T07:38:48.994Z</time></trkpt><trkpt lat="44.6028963" lon="7.9566863"><ele>293.0</ele><time>2026-04-12T07:38:51.994Z</time></trkpt><trkpt lat="44.6029698" lon="7.9567"><ele>293.0</ele><time>2026-04-12T07:38:54.994Z</time></trkpt><trkpt lat="44.6028871" lon="7.9566888"><ele>293.0</ele><time>2026-04-12T07:39:03.993Z</time></trkpt><trkpt lat="44.6027839" lon="7.9567008"><ele>293.0</ele><time>2026-04-12T07:39:05.993Z</time></trkpt><trkpt lat="44.6026892" lon="7.9567167"><ele>293.0</ele><time>2026-04-12T07:39:07.994Z</time></trkpt><trkpt lat="44.6025975" lon="7.9567212"><ele>293.0</ele><time>2026-04-12T07:39:09.994Z</time></trkpt><trkpt lat="44.6025082" lon="7.9567142"><ele>293.0</ele><time>2026-04-12T07:39:11.993Z</time></trkpt><trkpt lat="44.6024182" lon="7.9566928"><ele>292.4285714285714</ele><time>2026-04-12T07:39:13.994Z</time></trkpt><trkpt lat="44.6023428" lon="7.9566649"><ele>291.85714285714283</ele><time>2026-04-12T07:39:15.994Z</time></trkpt><trkpt lat="44.602281" lon="7.9566294"><ele>291.2857142857143</ele><time>2026-04-12T07:39:17.995Z</time></trkpt><trkpt lat="44.6022108" lon="7.9565885"><ele>290.71428571428567</ele><time>2026-04-12T07:39:20.993Z</time></trkpt><trkpt lat="44.6021516" lon="7.9565264"><ele>290.1428571428571</ele><time>2026-04-12T07:39:23.994Z</time></trkpt><trkpt lat="44.6020991" lon="7.9564523"><ele>289.57142857142856</ele><time>2026-04-12T07:39:26.993Z</time></trkpt><trkpt lat="44.6020577" lon="7.9563583"><ele>289.0</ele><time>2026-04-12T07:39:30.993Z</time></trkpt><trkpt lat="44.602024" lon="7.9562726"><ele>289.42857142857144</ele><time>2026-04-12T07:39:34.993Z</time></trkpt><trkpt lat="44.6019855" lon="7.9561727"><ele>289.85714285714283</ele><time>2026-04-12T07:39:38.994Z</time></trkpt><trkpt lat="44.6019506" lon="7.9560963"><ele>290.2857142857143</ele><time>2026-04-12T07:39:42.993Z</time></trkpt><trkpt lat="44.6018826" lon="7.9560658"><ele>290.7142857142857</ele><time>2026-04-12T07:39:47.993Z</time></trkpt><trkpt lat="44.6018829" lon="7.9559571"><ele>291.14285714285717</ele><time>2026-04-12T07:39:52.994Z</time></trkpt><trkpt lat="44.6019283" lon="7.9558825"><ele>291.57142857142856</ele><time>2026-04-12T07:39:54.993Z</time></trkpt><trkpt lat="44.6019639" lon="7.9557954"><ele>292.0</ele><time>2026-04-12T07:39:56.993Z</time></trkpt><trkpt lat="44.6019989" lon="7.9557035"><ele>290.8333333333333</ele><time>2026-04-12T07:39:58.993Z</time></trkpt><trkpt lat="44.6020412" lon="7.9556135"><ele>289.66666666666663</ele><time>2026-04-12T07:40:00.993Z</time></trkpt><trkpt lat="44.6020844" lon="7.9555262"><ele>288.5</ele><time>2026-04-12T07:40:02.993Z</time></trkpt><trkpt lat="44.6021301" lon="7.9554376"><ele>287.3333333333333</ele><time>2026-04-12T07:40:04.994Z</time></trkpt><trkpt lat="44.6021858" lon="7.9553509"><ele>286.1666666666667</ele><time>2026-04-12T07:40:06.994Z</time></trkpt><trkpt lat="44.6022482" lon="7.9552675"><ele>285.0</ele><time>2026-04-12T07:40:08.993Z</time></trkpt><trkpt lat="44.6022987" lon="7.9551901"><ele>285.0</ele><time>2026-04-12T07:40:10.993Z</time></trkpt><trkpt lat="44.6023524" lon="7.9551201"><ele>285.0</ele><time>2026-04-12T07:40:12.994Z</time></trkpt><trkpt lat="44.6024139" lon="7.955073"><ele>285.0</ele><time>2026-04-12T07:40:14.993Z</time></trkpt><trkpt lat="44.6024816" lon="7.9550879"><ele>285.0</ele><time>2026-04-12T07:40:16.993Z</time></trkpt><trkpt lat="44.6025617" lon="7.9550766"><ele>285.0</ele><time>2026-04-12T07:40:19.994Z</time></trkpt><trkpt lat="44.6026376" lon="7.9550022"><ele>285.0</ele><time>2026-04-12T07:40:21.993Z</time></trkpt><trkpt lat="44.6027191" lon="7.9548856"><ele>284.57142857142856</ele><time>2026-04-12T07:40:23.994Z</time></trkpt><trkpt lat="44.6027626" lon="7.9548181"><ele>284.14285714285717</ele><time>2026-04-12T07:40:24.993Z</time></trkpt><trkpt lat="44.6028056" lon="7.9547481"><ele>283.7142857142857</ele><time>2026-04-12T07:40:25.993Z</time></trkpt><trkpt lat="44.602845" lon="7.9546718"><ele>283.2857142857143</ele><time>2026-04-12T07:40:26.993Z</time></trkpt><trkpt lat="44.6028849" lon="7.9545977"><ele>282.85714285714283</ele><time>2026-04-12T07:40:27.994Z</time></trkpt><trkpt lat="44.6029289" lon="7.9545329"><ele>282.42857142857144</ele><time>2026-04-12T07:40:28.993Z</time></trkpt><trkpt lat="44.6030082" lon="7.954416"><ele>282.0</ele><time>2026-04-12T07:40:30.993Z</time></trkpt><trkpt lat="44.6031041" lon="7.9543288"><ele>282.0</ele><time>2026-04-12T07:40:32.993Z</time></trkpt><trkpt lat="44.6032078" lon="7.9542674"><ele>282.0</ele><time>2026-04-12T07:40:34.993Z</time></trkpt><trkpt lat="44.6033109" lon="7.9542151"><ele>282.0</ele><time>2026-04-12T07:40:36.993Z</time></trkpt><trkpt lat="44.603406" lon="7.9541552"><ele>282.0</ele><time>2026-04-12T07:40:38.993Z</time></trkpt><trkpt lat="44.6034925" lon="7.9540689"><ele>282.0</ele><time>2026-04-12T07:40:40.993Z</time></trkpt><trkpt lat="44.6035658" lon="7.9539477"><ele>281.0</ele><time>2026-04-12T07:40:42.993Z</time></trkpt><trkpt lat="44.6036033" lon="7.9537749"><ele>280.0</ele><time>2026-04-12T07:40:44.994Z</time></trkpt><trkpt lat="44.6036211" lon="7.9536894"><ele>279.0</ele><time>2026-04-12T07:40:45.993Z</time></trkpt><trkpt lat="44.6036496" lon="7.9536027"><ele>278.0</ele><time>2026-04-12T07:40:46.993Z</time></trkpt><trkpt lat="44.6036791" lon="7.953518"><ele>277.0</ele><time>2026-04-12T07:40:47.993Z</time></trkpt><trkpt lat="44.6037075" lon="7.9534363"><ele>276.0</ele><time>2026-04-12T07:40:48.993Z</time></trkpt><trkpt lat="44.6037737" lon="7.9532902"><ele>275.0</ele><time>2026-04-12T07:40:50.993Z</time></trkpt><trkpt lat="44.603814" lon="7.9532189"><ele>274.0</ele><time>2026-04-12T07:40:51.994Z</time></trkpt><trkpt lat="44.6039092" lon="7.9531421"><ele>273.0</ele><time>2026-04-12T07:40:53.994Z</time></trkpt><trkpt lat="44.6040007" lon="7.9531268"><ele>272.0</ele><time>2026-04-12T07:40:55.995Z</time></trkpt><trkpt lat="44.6041051" lon="7.9531524"><ele>271.0</ele><time>2026-04-12T07:40:57.993Z</time></trkpt><trkpt lat="44.6042123" lon="7.9531668"><ele>271.0</ele><time>2026-04-12T07:40:59.993Z</time></trkpt><trkpt lat="44.6043222" lon="7.9531499"><ele>271.0</ele><time>2026-04-12T07:41:01.994Z</time></trkpt><trkpt lat="44.6044368" lon="7.953108"><ele>271.0</ele><time>2026-04-12T07:41:03.995Z</time></trkpt><trkpt lat="44.6045436" lon="7.9530562"><ele>271.0</ele><time>2026-04-12T07:41:05.993Z</time></trkpt><trkpt lat="44.6046474" lon="7.9530018"><ele>270.25</ele><time>2026-04-12T07:41:07.995Z</time></trkpt><trkpt lat="44.6047488" lon="7.9529549"><ele>269.5</ele><time>2026-04-12T07:41:09.994Z</time></trkpt><trkpt lat="44.604862" lon="7.952926"><ele>268.75</ele><time>2026-04-12T07:41:11.995Z</time></trkpt><trkpt lat="44.6049785" lon="7.9529125"><ele>268.0</ele><time>2026-04-12T07:41:13.994Z</time></trkpt><trkpt lat="44.6051015" lon="7.9529133"><ele>268.0</ele><time>2026-04-12T07:41:15.995Z</time></trkpt><trkpt lat="44.6052135" lon="7.9529044"><ele>268.0</ele><time>2026-04-12T07:41:17.993Z</time></trkpt><trkpt lat="44.60529" lon="7.9528796"><ele>268.0</ele><time>2026-04-12T07:41:19.993Z</time></trkpt><trkpt lat="44.6053563" lon="7.9528316"><ele>268.0</ele><time>2026-04-12T07:41:22.995Z</time></trkpt><trkpt lat="44.6053666" lon="7.9527382"><ele>268.0</ele><time>2026-04-12T07:41:25.993Z</time></trkpt><trkpt lat="44.6053241" lon="7.9526285"><ele>268.0</ele><time>2026-04-12T07:41:28.994Z</time></trkpt><trkpt lat="44.605324" lon="7.9525212"><ele>267.0</ele><time>2026-04-12T07:41:30.994Z</time></trkpt><trkpt lat="44.6053683" lon="7.9524088"><ele>266.0</ele><time>2026-04-12T07:41:32.995Z</time></trkpt><trkpt lat="44.6054217" lon="7.952306"><ele>265.0</ele><time>2026-04-12T07:41:34.994Z</time></trkpt><trkpt lat="44.6054852" lon="7.9522078"><ele>264.0</ele><time>2026-04-12T07:41:36.994Z</time></trkpt><trkpt lat="44.6055693" lon="7.9521072"><ele>263.0</ele><time>2026-04-12T07:41:38.994Z</time></trkpt><trkpt lat="44.6056772" lon="7.9520309"><ele>263.0</ele><time>2026-04-12T07:41:40.994Z</time></trkpt><trkpt lat="44.6057394" lon="7.9519997"><ele>263.0</ele><time>2026-04-12T07:41:41.995Z</time></trkpt><trkpt lat="44.6058607" lon="7.9519338"><ele>263.0</ele><time>2026-04-12T07:41:43.993Z</time></trkpt><trkpt lat="44.6059204" lon="7.95189"><ele>263.0</ele><time>2026-04-12T07:41:44.994Z</time></trkpt><trkpt lat="44.6059749" lon="7.9518343"><ele>263.0</ele><time>2026-04-12T07:41:45.995Z</time></trkpt><trkpt lat="44.6060256" lon="7.9517788"><ele>263.0</ele><time>2026-04-12T07:41:46.994Z</time></trkpt><trkpt lat="44.606072" lon="7.9517156"><ele>263.0</ele><time>2026-04-12T07:41:47.994Z</time></trkpt><trkpt lat="44.6061195" lon="7.95165"><ele>263.0</ele><time>2026-04-12T07:41:48.995Z</time></trkpt><trkpt lat="44.6061725" lon="7.9515869"><ele>263.0</ele><time>2026-04-12T07:41:49.993Z</time></trkpt><trkpt lat="44.606222" lon="7.9515277"><ele>263.0</ele><time>2026-04-12T07:41:50.994Z</time></trkpt><trkpt lat="44.6062747" lon="7.9514675"><ele>263.0</ele><time>2026-04-12T07:41:51.994Z</time></trkpt><trkpt lat="44.6063255" lon="7.9514061"><ele>263.0</ele><time>2026-04-12T07:41:52.995Z</time></trkpt><trkpt lat="44.6064277" lon="7.9513076"><ele>262.6</ele><time>2026-04-12T07:41:54.995Z</time></trkpt><trkpt lat="44.6065255" lon="7.9512313"><ele>262.20000000000005</ele><time>2026-04-12T07:41:56.994Z</time></trkpt><trkpt lat="44.6066312" lon="7.9512144"><ele>261.8</ele><time>2026-04-12T07:41:58.993Z</time></trkpt><trkpt lat="44.6067345" lon="7.9512732"><ele>261.40000000000003</ele><time>2026-04-12T07:42:00.994Z</time></trkpt><trkpt lat="44.6067925" lon="7.9513163"><ele>261.0</ele><time>2026-04-12T07:42:01.994Z</time></trkpt><trkpt lat="44.6068569" lon="7.9513631"><ele>261.0</ele><time>2026-04-12T07:42:02.993Z</time></trkpt><trkpt lat="44.606922" lon="7.9513707"><ele>261.0</ele><time>2026-04-12T07:42:03.994Z</time></trkpt><trkpt lat="44.6070424" lon="7.9513482"><ele>261.0</ele><time>2026-04-12T07:42:05.994Z</time></trkpt><trkpt lat="44.6071041" lon="7.9513109"><ele>261.0</ele><time>2026-04-12T07:42:06.994Z</time></trkpt><trkpt lat="44.6072216" lon="7.9512437"><ele>261.0</ele><time>2026-04-12T07:42:08.995Z</time></trkpt><trkpt lat="44.6073347" lon="7.9511492"><ele>260.8333333333333</ele><time>2026-04-12T07:42:10.994Z</time></trkpt><trkpt lat="44.6073897" lon="7.9511034"><ele>260.6666666666667</ele><time>2026-04-12T07:42:11.994Z</time></trkpt><trkpt lat="44.6075048" lon="7.9510358"><ele>260.5</ele><time>2026-04-12T07:42:13.993Z</time></trkpt><trkpt lat="44.6075719" lon="7.9510077"><ele>260.33333333333337</ele><time>2026-04-12T07:42:14.994Z</time></trkpt><trkpt lat="44.6076389" lon="7.9509829"><ele>260.1666666666667</ele><time>2026-04-12T07:42:15.993Z</time></trkpt><trkpt lat="44.6077089" lon="7.9509589"><ele>260.0</ele><time>2026-04-12T07:42:16.993Z</time></trkpt><trkpt lat="44.6077797" lon="7.9509364"><ele>259.7142857142857</ele><time>2026-04-12T07:42:17.994Z</time></trkpt><trkpt lat="44.6078499" lon="7.9509206"><ele>259.42857142857144</ele><time>2026-04-12T07:42:18.994Z</time></trkpt><trkpt lat="44.6079236" lon="7.9509063"><ele>259.1428571428571</ele><time>2026-04-12T07:42:19.993Z</time></trkpt><trkpt lat="44.6080023" lon="7.9508964"><ele>258.8571428571429</ele><time>2026-04-12T07:42:20.994Z</time></trkpt><trkpt lat="44.6080751" lon="7.9508945"><ele>258.57142857142856</ele><time>2026-04-12T07:42:21.993Z</time></trkpt><trkpt lat="44.6081495" lon="7.9508914"><ele>258.2857142857143</ele><time>2026-04-12T07:42:22.995Z</time></trkpt><trkpt lat="44.6082234" lon="7.9508911"><ele>258.0</ele><time>2026-04-12T07:42:23.994Z</time></trkpt><trkpt lat="44.6083013" lon="7.9508841"><ele>258.0</ele><time>2026-04-12T07:42:24.993Z</time></trkpt><trkpt lat="44.6083803" lon="7.9508827"><ele>258.0</ele><time>2026-04-12T07:42:25.994Z</time></trkpt><trkpt lat="44.6084634" lon="7.950881"><ele>258.0</ele><time>2026-04-12T07:42:26.993Z</time></trkpt><trkpt lat="44.6085386" lon="7.950875"><ele>258.0</ele><time>2026-04-12T07:42:27.994Z</time></trkpt><trkpt lat="44.6086181" lon="7.950869"><ele>258.0</ele><time>2026-04-12T07:42:28.994Z</time></trkpt><trkpt lat="44.608696" lon="7.9508599"><ele>258.0</ele><time>2026-04-12T07:42:29.994Z</time></trkpt><trkpt lat="44.6087716" lon="7.9508501"><ele>256.85714285714283</ele><time>2026-04-12T07:42:30.994Z</time></trkpt><trkpt lat="44.6088474" lon="7.9508494"><ele>255.71428571428572</ele><time>2026-04-12T07:42:31.994Z</time></trkpt><trkpt lat="44.6089277" lon="7.9508527"><ele>254.57142857142856</ele><time>2026-04-12T07:42:32.994Z</time></trkpt><trkpt lat="44.6089979" lon="7.9508486"><ele>253.42857142857142</ele><time>2026-04-12T07:42:33.994Z</time></trkpt><trkpt lat="44.6090716" lon="7.9508407"><ele>252.28571428571428</ele><time>2026-04-12T07:42:34.993Z</time></trkpt><trkpt lat="44.6091425" lon="7.950831"><ele>251.14285714285714</ele><time>2026-04-12T07:42:35.993Z</time></trkpt><trkpt lat="44.6092167" lon="7.9508186"><ele>250.0</ele><time>2026-04-12T07:42:36.995Z</time></trkpt><trkpt lat="44.6092876" lon="7.9508107"><ele>250.0</ele><time>2026-04-12T07:42:37.993Z</time></trkpt><trkpt lat="44.6093625" lon="7.9507973"><ele>250.0</ele><time>2026-04-12T07:42:38.994Z</time></trkpt><trkpt lat="44.6094406" lon="7.9507881"><ele>250.0</ele><time>2026-04-12T07:42:39.993Z</time></trkpt><trkpt lat="44.6095167" lon="7.9507692"><ele>250.0</ele><time>2026-04-12T07:42:40.993Z</time></trkpt><trkpt lat="44.6095877" lon="7.9507542"><ele>250.0</ele><time>2026-04-12T07:42:41.994Z</time></trkpt><trkpt lat="44.6096599" lon="7.9507332"><ele>250.0</ele><time>2026-04-12T07:42:42.993Z</time></trkpt><trkpt lat="44.6097304" lon="7.9507154"><ele>250.0</ele><time>2026-04-12T07:42:43.994Z</time></trkpt><trkpt lat="44.6098081" lon="7.9506962"><ele>249.49999999999997</ele><time>2026-04-12T07:42:44.993Z</time></trkpt><trkpt lat="44.6098873" lon="7.9506792"><ele>249.0</ele><time>2026-04-12T07:42:45.993Z</time></trkpt><trkpt lat="44.6099648" lon="7.9506669"><ele>248.5</ele><time>2026-04-12T07:42:46.993Z</time></trkpt><trkpt lat="44.61004" lon="7.9506563"><ele>248.0</ele><time>2026-04-12T07:42:47.994Z</time></trkpt><trkpt lat="44.6101159" lon="7.9506467"><ele>247.49999999999997</ele><time>2026-04-12T07:42:48.994Z</time></trkpt><trkpt lat="44.6101874" lon="7.950636"><ele>247.0</ele><time>2026-04-12T07:42:49.995Z</time></trkpt><trkpt lat="44.6102592" lon="7.9506285"><ele>246.66666666666666</ele><time>2026-04-12T07:42:50.994Z</time></trkpt><trkpt lat="44.6103292" lon="7.9506145"><ele>246.33333333333331</ele><time>2026-04-12T07:42:51.993Z</time></trkpt><trkpt lat="44.6103986" lon="7.950593"><ele>246.0</ele><time>2026-04-12T07:42:52.993Z</time></trkpt><trkpt lat="44.610465" lon="7.9505727"><ele>245.66666666666669</ele><time>2026-04-12T07:42:53.995Z</time></trkpt><trkpt lat="44.6105304" lon="7.9505454"><ele>245.33333333333334</ele><time>2026-04-12T07:42:54.994Z</time></trkpt><trkpt lat="44.6105913" lon="7.9505146"><ele>245.0</ele><time>2026-04-12T07:42:55.994Z</time></trkpt><trkpt lat="44.6107071" lon="7.9504604"><ele>245.0</ele><time>2026-04-12T07:42:57.994Z</time></trkpt><trkpt lat="44.610826" lon="7.9504385"><ele>245.0</ele><time>2026-04-12T07:42:59.994Z</time></trkpt><trkpt lat="44.6109475" lon="7.9504255"><ele>245.0</ele><time>2026-04-12T07:43:01.995Z</time></trkpt><trkpt lat="44.6110666" lon="7.9504215"><ele>245.0</ele><time>2026-04-12T07:43:03.994Z</time></trkpt><trkpt lat="44.6111862" lon="7.9504104"><ele>244.4</ele><time>2026-04-12T07:43:05.994Z</time></trkpt><trkpt lat="44.611305" lon="7.9503787"><ele>243.8</ele><time>2026-04-12T07:43:07.994Z</time></trkpt><trkpt lat="44.6113644" lon="7.9503481"><ele>243.2</ele><time>2026-04-12T07:43:08.994Z</time></trkpt><trkpt lat="44.6114702" lon="7.9502667"><ele>242.6</ele><time>2026-04-12T07:43:10.994Z</time></trkpt><trkpt lat="44.6115725" lon="7.9501846"><ele>242.0</ele><time>2026-04-12T07:43:12.995Z</time></trkpt><trkpt lat="44.6116771" lon="7.9501038"><ele>242.0</ele><time>2026-04-12T07:43:14.993Z</time></trkpt><trkpt lat="44.6117841" lon="7.9500577"><ele>242.0</ele><time>2026-04-12T07:43:16.994Z</time></trkpt><trkpt lat="44.6118968" lon="7.9500493"><ele>242.0</ele><time>2026-04-12T07:43:18.993Z</time></trkpt><trkpt lat="44.6120007" lon="7.9500679"><ele>242.0</ele><time>2026-04-12T07:43:20.994Z</time></trkpt><trkpt lat="44.6120973" lon="7.9500913"><ele>242.0</ele><time>2026-04-12T07:43:22.993Z</time></trkpt><trkpt lat="44.6121908" lon="7.950114"><ele>241.83333333333334</ele><time>2026-04-12T07:43:24.994Z</time></trkpt><trkpt lat="44.6122718" lon="7.9501306"><ele>241.66666666666669</ele><time>2026-04-12T07:43:26.994Z</time></trkpt><trkpt lat="44.6123497" lon="7.9501464"><ele>241.5</ele><time>2026-04-12T07:43:28.994Z</time></trkpt><trkpt lat="44.6124177" lon="7.9501622"><ele>241.33333333333331</ele><time>2026-04-12T07:43:30.994Z</time></trkpt><trkpt lat="44.6124841" lon="7.9501747"><ele>241.16666666666666</ele><time>2026-04-12T07:43:32.995Z</time></trkpt><trkpt lat="44.612576" lon="7.9501819"><ele>241.0</ele><time>2026-04-12T07:43:35.994Z</time></trkpt><trkpt lat="44.6126595" lon="7.950185"><ele>241.0</ele><time>2026-04-12T07:43:38.994Z</time></trkpt><trkpt lat="44.6127309" lon="7.950177"><ele>241.00000000000003</ele><time>2026-04-12T07:43:41.994Z</time></trkpt><trkpt lat="44.6128003" lon="7.9501717"><ele>241.0</ele><time>2026-04-12T07:43:44.994Z</time></trkpt><trkpt lat="44.6128685" lon="7.950169"><ele>241.0</ele><time>2026-04-12T07:43:47.995Z</time></trkpt><trkpt lat="44.6129322" lon="7.9501603"><ele>241.00000000000003</ele><time>2026-04-12T07:43:50.995Z</time></trkpt><trkpt lat="44.6130085" lon="7.9501555"><ele>241.0</ele><time>2026-04-12T07:43:54.994Z</time></trkpt><trkpt lat="44.6130873" lon="7.9501568"><ele>241.0</ele><time>2026-04-12T07:43:58.995Z</time></trkpt><trkpt lat="44.6131628" lon="7.9501749"><ele>240.85714285714286</ele><time>2026-04-12T07:44:02.994Z</time></trkpt><trkpt lat="44.6132339" lon="7.9501831"><ele>240.71428571428572</ele><time>2026-04-12T07:44:06.995Z</time></trkpt><trkpt lat="44.6133003" lon="7.9501875"><ele>240.57142857142858</ele><time>2026-04-12T07:44:10.994Z</time></trkpt><trkpt lat="44.6133782" lon="7.9501953"><ele>240.42857142857144</ele><time>2026-04-12T07:44:15.995Z</time></trkpt><trkpt lat="44.6134549" lon="7.9501994"><ele>240.28571428571428</ele><time>2026-04-12T07:44:20.994Z</time></trkpt><trkpt lat="44.613531" lon="7.9501925"><ele>240.14285714285717</ele><time>2026-04-12T07:44:25.994Z</time></trkpt><trkpt lat="44.613601" lon="7.9501434"><ele>240.0</ele><time>2026-04-12T07:44:30.994Z</time></trkpt><trkpt lat="44.6136575" lon="7.9500843"><ele>242.5</ele><time>2026-04-12T07:44:35.994Z</time></trkpt><trkpt lat="44.6137022" lon="7.95"><ele>245.0</ele><time>2026-04-12T07:44:40.994Z</time></trkpt><trkpt lat="44.6137151" lon="7.9498912"><ele>247.5</ele><time>2026-04-12T07:44:45.995Z</time></trkpt><trkpt lat="44.6137315" lon="7.9497958"><ele>250.0</ele><time>2026-04-12T07:44:49.995Z</time></trkpt><trkpt lat="44.6136801" lon="7.9497148"><ele>252.5</ele><time>2026-04-12T07:44:53.994Z</time></trkpt><trkpt lat="44.6136275" lon="7.9496335"><ele>255.0</ele><time>2026-04-12T07:44:56.995Z</time></trkpt><trkpt lat="44.6136075" lon="7.9495376"><ele>255.2</ele><time>2026-04-12T07:44:59.994Z</time></trkpt><trkpt lat="44.6135907" lon="7.9494211"><ele>255.4</ele><time>2026-04-12T07:45:02.995Z</time></trkpt><trkpt lat="44.613565" lon="7.9493067"><ele>255.60000000000002</ele><time>2026-04-12T07:45:04.994Z</time></trkpt><trkpt lat="44.6135503" lon="7.9491675"><ele>255.8</ele><time>2026-04-12T07:45:06.994Z</time></trkpt><trkpt lat="44.6135354" lon="7.9490045"><ele>256.0</ele><time>2026-04-12T07:45:08.994Z</time></trkpt><trkpt lat="44.6135281" lon="7.9489142"><ele>255.83333333333331</ele><time>2026-04-12T07:45:09.994Z</time></trkpt><trkpt lat="44.6135198" lon="7.9488167"><ele>255.66666666666666</ele><time>2026-04-12T07:45:10.994Z</time></trkpt><trkpt lat="44.6135098" lon="7.9487107"><ele>255.5</ele><time>2026-04-12T07:45:11.994Z</time></trkpt><trkpt lat="44.6134954" lon="7.9485998"><ele>255.33333333333331</ele><time>2026-04-12T07:45:12.994Z</time></trkpt><trkpt lat="44.6134746" lon="7.9484867"><ele>255.16666666666666</ele><time>2026-04-12T07:45:13.995Z</time></trkpt><trkpt lat="44.6134486" lon="7.9483719"><ele>255.0</ele><time>2026-04-12T07:45:14.995Z</time></trkpt><trkpt lat="44.6134126" lon="7.9482542"><ele>255.0</ele><time>2026-04-12T07:45:15.994Z</time></trkpt><trkpt lat="44.6133761" lon="7.9481401"><ele>255.0</ele><time>2026-04-12T07:45:16.994Z</time></trkpt><trkpt lat="44.6133413" lon="7.9480284"><ele>255.0</ele><time>2026-04-12T07:45:17.994Z</time></trkpt><trkpt lat="44.613309" lon="7.9479201"><ele>255.0</ele><time>2026-04-12T07:45:18.994Z</time></trkpt><trkpt lat="44.6132778" lon="7.9478154"><ele>255.0</ele><time>2026-04-12T07:45:19.994Z</time></trkpt><trkpt lat="44.6132499" lon="7.9477087"><ele>255.0</ele><time>2026-04-12T07:45:20.994Z</time></trkpt><trkpt lat="44.6132256" lon="7.9475989"><ele>253.83333333333334</ele><time>2026-04-12T07:45:21.994Z</time></trkpt><trkpt lat="44.613216" lon="7.9474821"><ele>252.66666666666669</ele><time>2026-04-12T07:45:22.995Z</time></trkpt><trkpt lat="44.6132213" lon="7.9473633"><ele>251.5</ele><time>2026-04-12T07:45:23.994Z</time></trkpt><trkpt lat="44.6132334" lon="7.9472441"><ele>250.33333333333334</ele><time>2026-04-12T07:45:24.994Z</time></trkpt><trkpt lat="44.6132492" lon="7.9471228"><ele>249.16666666666669</ele><time>2026-04-12T07:45:25.995Z</time></trkpt><trkpt lat="44.6132696" lon="7.9470022"><ele>248.0</ele><time>2026-04-12T07:45:26.994Z</time></trkpt><trkpt lat="44.6132942" lon="7.9468815"><ele>248.00000000000003</ele><time>2026-04-12T07:45:27.994Z</time></trkpt><trkpt lat="44.6133148" lon="7.9467669"><ele>248.0</ele><time>2026-04-12T07:45:28.994Z</time></trkpt><trkpt lat="44.6133353" lon="7.9466693"><ele>248.0</ele><time>2026-04-12T07:45:29.994Z</time></trkpt><trkpt lat="44.6133482" lon="7.9465757"><ele>248.0</ele><time>2026-04-12T07:45:30.994Z</time></trkpt><trkpt lat="44.6133486" lon="7.9464132"><ele>248.00000000000003</ele><time>2026-04-12T07:45:32.995Z</time></trkpt><trkpt lat="44.6133164" lon="7.9462895"><ele>248.0</ele><time>2026-04-12T07:45:34.994Z</time></trkpt><trkpt lat="44.6132794" lon="7.9462139"><ele>247.85714285714286</ele><time>2026-04-12T07:45:36.994Z</time></trkpt><trkpt lat="44.613225" lon="7.9461355"><ele>247.71428571428572</ele><time>2026-04-12T07:45:39.995Z</time></trkpt><trkpt lat="44.6131713" lon="7.9460594"><ele>247.57142857142858</ele><time>2026-04-12T07:45:42.994Z</time></trkpt><trkpt lat="44.6131194" lon="7.9459866"><ele>247.42857142857144</ele><time>2026-04-12T07:45:45.995Z</time></trkpt><trkpt lat="44.6130646" lon="7.9459108"><ele>247.28571428571428</ele><time>2026-04-12T07:45:48.994Z</time></trkpt><trkpt lat="44.6130062" lon="7.945853"><ele>247.14285714285717</ele><time>2026-04-12T07:45:51.993Z</time></trkpt><trkpt lat="44.6129378" lon="7.9458207"><ele>247.0</ele><time>2026-04-12T07:45:54.994Z</time></trkpt><trkpt lat="44.6128757" lon="7.945782"><ele>247.71428571428572</ele><time>2026-04-12T07:45:57.994Z</time></trkpt><trkpt lat="44.6128124" lon="7.9457689"><ele>248.42857142857142</ele><time>2026-04-12T07:46:00.994Z</time></trkpt><trkpt lat="44.6127491" lon="7.9457413"><ele>249.14285714285714</ele><time>2026-04-12T07:46:03.995Z</time></trkpt><trkpt lat="44.6126776" lon="7.9457208"><ele>249.85714285714286</ele><time>2026-04-12T07:46:06.994Z</time></trkpt><trkpt lat="44.6126014" lon="7.9456981"><ele>250.57142857142856</ele><time>2026-04-12T07:46:09.995Z</time></trkpt><trkpt lat="44.6125356" lon="7.9456552"><ele>251.28571428571428</ele><time>2026-04-12T07:46:12.995Z</time></trkpt><trkpt lat="44.6124674" lon="7.9456133"><ele>252.0</ele><time>2026-04-12T07:46:15.994Z</time></trkpt><trkpt lat="44.612397" lon="7.9455826"><ele>252.0</ele><time>2026-04-12T07:46:18.994Z</time></trkpt><trkpt lat="44.6123342" lon="7.9455544"><ele>252.0</ele><time>2026-04-12T07:46:21.995Z</time></trkpt><trkpt lat="44.6122695" lon="7.945512"><ele>252.0</ele><time>2026-04-12T07:46:24.994Z</time></trkpt><trkpt lat="44.6121994" lon="7.9454758"><ele>252.0</ele><time>2026-04-12T07:46:27.994Z</time></trkpt><trkpt lat="44.6121241" lon="7.9454071"><ele>252.0</ele><time>2026-04-12T07:46:30.994Z</time></trkpt><trkpt lat="44.612053" lon="7.9453561"><ele>252.0</ele><time>2026-04-12T07:46:33.994Z</time></trkpt><trkpt lat="44.6119867" lon="7.9453332"><ele>252.71428571428572</ele><time>2026-04-12T07:46:36.995Z</time></trkpt><trkpt lat="44.6119162" lon="7.9452869"><ele>253.42857142857144</ele><time>2026-04-12T07:46:39.994Z</time></trkpt><trkpt lat="44.6118551" lon="7.945245"><ele>254.14285714285714</ele><time>2026-04-12T07:46:42.994Z</time></trkpt><trkpt lat="44.6117947" lon="7.945217"><ele>254.85714285714286</ele><time>2026-04-12T07:46:47.994Z</time></trkpt><trkpt lat="44.6117292" lon="7.945178"><ele>255.57142857142858</ele><time>2026-04-12T07:47:01.994Z</time></trkpt><trkpt lat="44.6116716" lon="7.945137"><ele>256.2857142857143</ele><time>2026-04-12T07:47:05.994Z</time></trkpt><trkpt lat="44.6116104" lon="7.9450957"><ele>257.0</ele><time>2026-04-12T07:47:09.994Z</time></trkpt><trkpt lat="44.6115437" lon="7.9450551"><ele>258.42857142857144</ele><time>2026-04-12T07:47:14.995Z</time></trkpt><trkpt lat="44.6114906" lon="7.9449908"><ele>259.8571428571429</ele><time>2026-04-12T07:47:20.994Z</time></trkpt><trkpt lat="44.6114236" lon="7.9449938"><ele>261.28571428571433</ele><time>2026-04-12T07:47:25.994Z</time></trkpt><trkpt lat="44.6113646" lon="7.9449554"><ele>262.7142857142857</ele><time>2026-04-12T07:47:32.993Z</time></trkpt><trkpt lat="44.6112878" lon="7.9449053"><ele>264.14285714285717</ele><time>2026-04-12T07:48:18.994Z</time></trkpt><trkpt lat="44.6112267" lon="7.9448619"><ele>265.5714285714286</ele><time>2026-04-12T07:48:30.994Z</time></trkpt><trkpt lat="44.6111686" lon="7.9448222"><ele>267.0</ele><time>2026-04-12T07:48:40.995Z</time></trkpt><trkpt lat="44.6111121" lon="7.9447743"><ele>267.7142857142857</ele><time>2026-04-12T07:48:49.994Z</time></trkpt><trkpt lat="44.6110541" lon="7.9447228"><ele>268.42857142857144</ele><time>2026-04-12T07:49:00.995Z</time></trkpt><trkpt lat="44.6109954" lon="7.9446771"><ele>269.1428571428571</ele><time>2026-04-12T07:49:07.995Z</time></trkpt><trkpt lat="44.6109482" lon="7.9446133"><ele>269.8571428571429</ele><time>2026-04-12T07:49:19.994Z</time></trkpt><trkpt lat="44.6109031" lon="7.9445385"><ele>270.57142857142856</ele><time>2026-04-12T07:49:31.994Z</time></trkpt><trkpt lat="44.6108477" lon="7.9444834"><ele>271.2857142857143</ele><time>2026-04-12T07:49:41.994Z</time></trkpt><trkpt lat="44.6108087" lon="7.944407"><ele>272.0</ele><time>2026-04-12T07:49:51.994Z</time></trkpt><trkpt lat="44.6107856" lon="7.9443239"><ele>271.99999999999994</ele><time>2026-04-12T07:50:01.994Z</time></trkpt><trkpt lat="44.6107405" lon="7.9442477"><ele>272.0</ele><time>2026-04-12T07:50:12.994Z</time></trkpt><trkpt lat="44.6106874" lon="7.9441976"><ele>272.0</ele><time>2026-04-12T07:50:20.992Z</time></trkpt><trkpt lat="44.6106265" lon="7.9441518"><ele>272.0</ele><time>2026-04-12T07:50:28.994Z</time></trkpt><trkpt lat="44.6106046" lon="7.944063"><ele>272.0</ele><time>2026-04-12T07:50:38.995Z</time></trkpt><trkpt lat="44.6106513" lon="7.9439996"><ele>271.99999999999994</ele><time>2026-04-12T07:50:44.994Z</time></trkpt><trkpt lat="44.6107123" lon="7.9439548"><ele>272.0</ele><time>2026-04-12T07:50:52.994Z</time></trkpt><trkpt lat="44.6107776" lon="7.943949"><ele>271.99999999999994</ele><time>2026-04-12T07:51:00.994Z</time></trkpt><trkpt lat="44.610841" lon="7.94401"><ele>272.0</ele><time>2026-04-12T07:51:33.994Z</time></trkpt><trkpt lat="44.6108633" lon="7.9441021"><ele>272.0</ele><time>2026-04-12T07:51:38.971Z</time></trkpt><trkpt lat="44.6108641" lon="7.9442174"><ele>272.0</ele><time>2026-04-12T07:51:41.994Z</time></trkpt><trkpt lat="44.6109023" lon="7.9443037"><ele>272.0</ele><time>2026-04-12T07:51:45.994Z</time></trkpt><trkpt lat="44.6109638" lon="7.9443272"><ele>271.99999999999994</ele><time>2026-04-12T07:51:48.994Z</time></trkpt><trkpt lat="44.6110295" lon="7.944349"><ele>272.0</ele><time>2026-04-12T07:51:51.995Z</time></trkpt><trkpt lat="44.6111072" lon="7.9443418"><ele>271.2857142857143</ele><time>2026-04-12T07:51:55.994Z</time></trkpt><trkpt lat="44.6111673" lon="7.9443094"><ele>270.57142857142856</ele><time>2026-04-12T07:51:59.995Z</time></trkpt><trkpt lat="44.6112484" lon="7.9443228"><ele>269.8571428571429</ele><time>2026-04-12T07:52:04.994Z</time></trkpt><trkpt lat="44.6113291" lon="7.9443512"><ele>269.1428571428571</ele><time>2026-04-12T07:52:08.995Z</time></trkpt><trkpt lat="44.611389" lon="7.9443932"><ele>268.42857142857144</ele><time>2026-04-12T07:52:12.994Z</time></trkpt><trkpt lat="44.6114447" lon="7.9443458"><ele>267.7142857142857</ele><time>2026-04-12T07:52:17.995Z</time></trkpt><trkpt lat="44.6113851" lon="7.9443139"><ele>267.0</ele><time>2026-04-12T07:52:25.994Z</time></trkpt><trkpt lat="44.6113113" lon="7.9443249"><ele>267.00000000000006</ele><time>2026-04-12T07:52:41.994Z</time></trkpt><trkpt lat="44.6112578" lon="7.9442766"><ele>267.0</ele><time>2026-04-12T07:52:45.995Z</time></trkpt><trkpt lat="44.6112787" lon="7.9441718"><ele>267.0</ele><time>2026-04-12T07:52:49.994Z</time></trkpt><trkpt lat="44.611344" lon="7.944107"><ele>267.0</ele><time>2026-04-12T07:52:53.994Z</time></trkpt><trkpt lat="44.6113315" lon="7.9440153"><ele>267.0</ele><time>2026-04-12T07:52:58.994Z</time></trkpt><trkpt lat="44.6112729" lon="7.9440713"><ele>267.00000000000006</ele><time>2026-04-12T07:53:03.995Z</time></trkpt><trkpt lat="44.6113078" lon="7.9441662"><ele>267.0</ele><time>2026-04-12T07:53:08.994Z</time></trkpt><trkpt lat="44.6112814" lon="7.9442627"><ele>267.0</ele><time>2026-04-12T07:53:11.995Z</time></trkpt><trkpt lat="44.611212" lon="7.9443145"><ele>267.0</ele><time>2026-04-12T07:53:14.994Z</time></trkpt><trkpt lat="44.6111203" lon="7.9443528"><ele>267.0</ele><time>2026-04-12T07:53:17.995Z</time></trkpt><trkpt lat="44.6110128" lon="7.9443577"><ele>267.0</ele><time>2026-04-12T07:53:19.994Z</time></trkpt><trkpt lat="44.6109161" lon="7.9443162"><ele>267.0</ele><time>2026-04-12T07:53:21.994Z</time></trkpt><trkpt lat="44.6108646" lon="7.944234"><ele>271.8333333333333</ele><time>2026-04-12T07:53:23.995Z</time></trkpt><trkpt lat="44.6108386" lon="7.9441204"><ele>276.6666666666667</ele><time>2026-04-12T07:53:25.994Z</time></trkpt><trkpt lat="44.6108221" lon="7.9440169"><ele>281.5</ele><time>2026-04-12T07:53:27.995Z</time></trkpt><trkpt lat="44.6108005" lon="7.943931"><ele>286.33333333333337</ele><time>2026-04-12T07:53:29.995Z</time></trkpt><trkpt lat="44.6108093" lon="7.943831"><ele>291.1666666666667</ele><time>2026-04-12T07:53:34.994Z</time></trkpt><trkpt lat="44.6108734" lon="7.9437601"><ele>296.0</ele><time>2026-04-12T07:53:46.995Z</time></trkpt><trkpt lat="44.6109497" lon="7.9437228"><ele>296.0</ele><time>2026-04-12T07:53:49.994Z</time></trkpt><trkpt lat="44.6110142" lon="7.9437367"><ele>296.0</ele><time>2026-04-12T07:53:52.994Z</time></trkpt><trkpt lat="44.6110784" lon="7.9437566"><ele>296.0</ele><time>2026-04-12T07:53:58.994Z</time></trkpt><trkpt lat="44.6111288" lon="7.9436544"><ele>296.0</ele><time>2026-04-12T07:54:00.994Z</time></trkpt><trkpt lat="44.6111132" lon="7.9435114"><ele>296.0</ele><time>2026-04-12T07:54:02.994Z</time></trkpt><trkpt lat="44.6111099" lon="7.9434142"><ele>296.0</ele><time>2026-04-12T07:54:04.994Z</time></trkpt><trkpt lat="44.6110966" lon="7.9433215"><ele>296.83333333333337</ele><time>2026-04-12T07:54:06.995Z</time></trkpt><trkpt lat="44.6110815" lon="7.9431946"><ele>297.6666666666667</ele><time>2026-04-12T07:54:09.994Z</time></trkpt><trkpt lat="44.6110496" lon="7.9430764"><ele>298.5</ele><time>2026-04-12T07:54:12.994Z</time></trkpt><trkpt lat="44.6110198" lon="7.942961"><ele>299.3333333333333</ele><time>2026-04-12T07:54:15.995Z</time></trkpt><trkpt lat="44.6109916" lon="7.9428528"><ele>300.16666666666663</ele><time>2026-04-12T07:54:18.994Z</time></trkpt><trkpt lat="44.6109638" lon="7.9427367"><ele>301.0</ele><time>2026-04-12T07:54:21.994Z</time></trkpt><trkpt lat="44.61092" lon="7.9426275"><ele>300.5</ele><time>2026-04-12T07:54:24.994Z</time></trkpt><trkpt lat="44.6108802" lon="7.9425092"><ele>300.0</ele><time>2026-04-12T07:54:27.995Z</time></trkpt><trkpt lat="44.610862" lon="7.9424219"><ele>299.5</ele><time>2026-04-12T07:54:29.994Z</time></trkpt><trkpt lat="44.6108412" lon="7.9422962"><ele>299.0</ele><time>2026-04-12T07:54:32.993Z</time></trkpt><trkpt lat="44.6108213" lon="7.9421704"><ele>298.5</ele><time>2026-04-12T07:54:35.993Z</time></trkpt><trkpt lat="44.6107987" lon="7.9420448"><ele>298.0</ele><time>2026-04-12T07:54:38.993Z</time></trkpt><trkpt lat="44.6107892" lon="7.9419571"><ele>298.0</ele><time>2026-04-12T07:54:40.993Z</time></trkpt><trkpt lat="44.6107832" lon="7.941843"><ele>298.0</ele><time>2026-04-12T07:54:43.994Z</time></trkpt><trkpt lat="44.610768" lon="7.9417399"><ele>298.0</ele><time>2026-04-12T07:54:46.993Z</time></trkpt><trkpt lat="44.6107754" lon="7.9416432"><ele>298.0</ele><time>2026-04-12T07:54:49.993Z</time></trkpt><trkpt lat="44.6108329" lon="7.9415804"><ele>298.0</ele><time>2026-04-12T07:54:52.993Z</time></trkpt><trkpt lat="44.6109047" lon="7.9415883"><ele>298.0</ele><time>2026-04-12T07:54:55.993Z</time></trkpt><trkpt lat="44.6109688" lon="7.9415907"><ele>298.0</ele><time>2026-04-12T07:54:58.993Z</time></trkpt><trkpt lat="44.610988" lon="7.941501"><ele>298.1428571428571</ele><time>2026-04-12T07:55:02.993Z</time></trkpt><trkpt lat="44.6109202" lon="7.9414611"><ele>298.2857142857143</ele><time>2026-04-12T07:55:05.993Z</time></trkpt><trkpt lat="44.610855" lon="7.9414518"><ele>298.42857142857144</ele><time>2026-04-12T07:55:08.993Z</time></trkpt><trkpt lat="44.6107876" lon="7.9414496"><ele>298.57142857142856</ele><time>2026-04-12T07:55:11.994Z</time></trkpt><trkpt lat="44.6107217" lon="7.9414727"><ele>298.7142857142857</ele><time>2026-04-12T07:55:14.993Z</time></trkpt><trkpt lat="44.6106664" lon="7.9415342"><ele>298.85714285714283</ele><time>2026-04-12T07:55:17.993Z</time></trkpt><trkpt lat="44.6106195" lon="7.9416043"><ele>299.0</ele><time>2026-04-12T07:55:20.993Z</time></trkpt><trkpt lat="44.610617" lon="7.9417068"><ele>298.85714285714283</ele><time>2026-04-12T07:55:23.993Z</time></trkpt><trkpt lat="44.6106179" lon="7.9418046"><ele>298.7142857142857</ele><time>2026-04-12T07:55:26.994Z</time></trkpt><trkpt lat="44.6106094" lon="7.9419072"><ele>298.57142857142856</ele><time>2026-04-12T07:55:29.995Z</time></trkpt><trkpt lat="44.6106088" lon="7.9420077"><ele>298.42857142857144</ele><time>2026-04-12T07:55:32.994Z</time></trkpt><trkpt lat="44.6106136" lon="7.9421033"><ele>298.2857142857143</ele><time>2026-04-12T07:55:35.994Z</time></trkpt><trkpt lat="44.610605" lon="7.9422006"><ele>298.1428571428571</ele><time>2026-04-12T07:55:38.994Z</time></trkpt><trkpt lat="44.6105966" lon="7.9422948"><ele>298.0</ele><time>2026-04-12T07:55:41.994Z</time></trkpt><trkpt lat="44.6105615" lon="7.9423843"><ele>298.0</ele><time>2026-04-12T07:55:44.995Z</time></trkpt><trkpt lat="44.6105151" lon="7.9424586"><ele>298.0</ele><time>2026-04-12T07:55:47.995Z</time></trkpt><trkpt lat="44.6104509" lon="7.9425131"><ele>298.0</ele><time>2026-04-12T07:55:50.994Z</time></trkpt><trkpt lat="44.610375" lon="7.9425472"><ele>298.0</ele><time>2026-04-12T07:55:54.994Z</time></trkpt><trkpt lat="44.6103172" lon="7.94248"><ele>298.0</ele><time>2026-04-12T07:55:57.994Z</time></trkpt><trkpt lat="44.6102871" lon="7.9423723"><ele>298.0</ele><time>2026-04-12T07:56:00.994Z</time></trkpt><trkpt lat="44.6102657" lon="7.9422788"><ele>298.5</ele><time>2026-04-12T07:56:03.994Z</time></trkpt><trkpt lat="44.6102456" lon="7.9421733"><ele>299.0</ele><time>2026-04-12T07:56:06.994Z</time></trkpt><trkpt lat="44.6102281" lon="7.9420701"><ele>299.5</ele><time>2026-04-12T07:56:09.994Z</time></trkpt><trkpt lat="44.6102115" lon="7.9419428"><ele>300.0</ele><time>2026-04-12T07:56:12.995Z</time></trkpt><trkpt lat="44.6101994" lon="7.9418134"><ele>300.5</ele><time>2026-04-12T07:56:15.994Z</time></trkpt><trkpt lat="44.6101858" lon="7.9416874"><ele>301.0</ele><time>2026-04-12T07:56:18.995Z</time></trkpt><trkpt lat="44.6101848" lon="7.9415573"><ele>301.3333333333333</ele><time>2026-04-12T07:56:21.994Z</time></trkpt><trkpt lat="44.6101948" lon="7.941425"><ele>301.66666666666663</ele><time>2026-04-12T07:56:24.994Z</time></trkpt><trkpt lat="44.6102028" lon="7.9413368"><ele>302.0</ele><time>2026-04-12T07:56:26.995Z</time></trkpt><trkpt lat="44.6102132" lon="7.94122"><ele>302.3333333333333</ele><time>2026-04-12T07:56:29.994Z</time></trkpt><trkpt lat="44.6102156" lon="7.9411095"><ele>302.6666666666667</ele><time>2026-04-12T07:56:32.994Z</time></trkpt><trkpt lat="44.6102044" lon="7.9410046"><ele>303.0</ele><time>2026-04-12T07:56:35.994Z</time></trkpt><trkpt lat="44.610174" lon="7.9408933"><ele>303.42857142857144</ele><time>2026-04-12T07:56:38.994Z</time></trkpt><trkpt lat="44.6101621" lon="7.9407902"><ele>303.85714285714283</ele><time>2026-04-12T07:56:41.995Z</time></trkpt><trkpt lat="44.6101533" lon="7.9406918"><ele>304.2857142857143</ele><time>2026-04-12T07:56:44.994Z</time></trkpt><trkpt lat="44.6101387" lon="7.9405901"><ele>304.7142857142857</ele><time>2026-04-12T07:56:47.994Z</time></trkpt><trkpt lat="44.6101279" lon="7.9404862"><ele>305.14285714285717</ele><time>2026-04-12T07:56:50.994Z</time></trkpt><trkpt lat="44.6101209" lon="7.940394"><ele>305.57142857142856</ele><time>2026-04-12T07:56:53.995Z</time></trkpt><trkpt lat="44.6101264" lon="7.9402988"><ele>306.0</ele><time>2026-04-12T07:58:02.995Z</time></trkpt><trkpt lat="44.6100782" lon="7.940238"><ele>306.0</ele><time>2026-04-12T07:58:06.994Z</time></trkpt><trkpt lat="44.6100355" lon="7.9401514"><ele>306.0</ele><time>2026-04-12T07:58:10.994Z</time></trkpt><trkpt lat="44.610013" lon="7.9400478"><ele>306.0</ele><time>2026-04-12T07:58:14.994Z</time></trkpt><trkpt lat="44.6100148" lon="7.9399511"><ele>306.0</ele><time>2026-04-12T07:58:18.995Z</time></trkpt><trkpt lat="44.6100136" lon="7.9398439"><ele>306.0</ele><time>2026-04-12T07:58:22.994Z</time></trkpt><trkpt lat="44.610007" lon="7.9397393"><ele>306.0</ele><time>2026-04-12T07:58:26.995Z</time></trkpt><trkpt lat="44.6099941" lon="7.9396327"><ele>306.0</ele><time>2026-04-12T07:58:30.994Z</time></trkpt><trkpt lat="44.6099615" lon="7.9395466"><ele>307.1428571428571</ele><time>2026-04-12T07:58:34.994Z</time></trkpt><trkpt lat="44.6099256" lon="7.9394737"><ele>308.2857142857143</ele><time>2026-04-12T07:58:38.995Z</time></trkpt><trkpt lat="44.6098759" lon="7.9393867"><ele>309.42857142857144</ele><time>2026-04-12T07:58:43.995Z</time></trkpt><trkpt lat="44.6098211" lon="7.9393273"><ele>310.57142857142856</ele><time>2026-04-12T07:58:47.995Z</time></trkpt><trkpt lat="44.6097549" lon="7.9393158"><ele>311.7142857142857</ele><time>2026-04-12T07:58:51.994Z</time></trkpt><trkpt lat="44.6096916" lon="7.9393113"><ele>312.85714285714283</ele><time>2026-04-12T07:58:55.994Z</time></trkpt><trkpt lat="44.6096297" lon="7.9392698"><ele>314.0</ele><time>2026-04-12T07:58:59.994Z</time></trkpt><trkpt lat="44.6095621" lon="7.9392439"><ele>315.57142857142856</ele><time>2026-04-12T07:59:03.994Z</time></trkpt><trkpt lat="44.6095" lon="7.939211"><ele>317.1428571428571</ele><time>2026-04-12T07:59:07.994Z</time></trkpt><trkpt lat="44.6094371" lon="7.9391711"><ele>318.71428571428567</ele><time>2026-04-12T07:59:11.994Z</time></trkpt><trkpt lat="44.6093723" lon="7.9391327"><ele>320.2857142857143</ele><time>2026-04-12T07:59:15.994Z</time></trkpt><trkpt lat="44.6093107" lon="7.9390967"><ele>321.8571428571429</ele><time>2026-04-12T07:59:19.994Z</time></trkpt><trkpt lat="44.60925" lon="7.9390628"><ele>323.4285714285714</ele><time>2026-04-12T07:59:23.994Z</time></trkpt><trkpt lat="44.6091847" lon="7.9390368"><ele>325.0</ele><time>2026-04-12T07:59:27.994Z</time></trkpt><trkpt lat="44.6091189" lon="7.9390243"><ele>325.0</ele><time>2026-04-12T07:59:31.994Z</time></trkpt><trkpt lat="44.6090505" lon="7.9390533"><ele>325.0</ele><time>2026-04-12T07:59:35.994Z</time></trkpt><trkpt lat="44.6090894" lon="7.9389807"><ele>325.0</ele><time>2026-04-12T07:59:46.994Z</time></trkpt><trkpt lat="44.6090591" lon="7.9388896"><ele>325.0</ele><time>2026-04-12T07:59:51.994Z</time></trkpt><trkpt lat="44.6090084" lon="7.9388233"><ele>325.0</ele><time>2026-04-12T07:59:56.994Z</time></trkpt><trkpt lat="44.6089497" lon="7.9387731"><ele>325.0</ele><time>2026-04-12T08:00:01.994Z</time></trkpt><trkpt lat="44.6088746" lon="7.9387346"><ele>325.0</ele><time>2026-04-12T08:00:06.994Z</time></trkpt><trkpt lat="44.6088083" lon="7.9387074"><ele>325.0</ele><time>2026-04-12T08:00:10.994Z</time></trkpt><trkpt lat="44.6087439" lon="7.9386799"><ele>325.0</ele><time>2026-04-12T08:00:14.994Z</time></trkpt><trkpt lat="44.6086815" lon="7.9386518"><ele>325.0</ele><time>2026-04-12T08:00:18.994Z</time></trkpt><trkpt lat="44.6086093" lon="7.9386125"><ele>325.0</ele><time>2026-04-12T08:00:23.994Z</time></trkpt><trkpt lat="44.6085426" lon="7.9385744"><ele>325.0</ele><time>2026-04-12T08:00:27.994Z</time></trkpt><trkpt lat="44.6084645" lon="7.9385691"><ele>325.0</ele><time>2026-04-12T08:00:31.994Z</time></trkpt><trkpt lat="44.6083897" lon="7.9385559"><ele>325.0</ele><time>2026-04-12T08:00:35.994Z</time></trkpt><trkpt lat="44.6083121" lon="7.9385426"><ele>326.3333333333333</ele><time>2026-04-12T08:00:39.994Z</time></trkpt><trkpt lat="44.6082383" lon="7.9385362"><ele>327.66666666666663</ele><time>2026-04-12T08:00:43.994Z</time></trkpt><trkpt lat="44.6081617" lon="7.9385091"><ele>329.0</ele><time>2026-04-12T08:00:47.994Z</time></trkpt><trkpt lat="44.6080827" lon="7.9384749"><ele>330.3333333333333</ele><time>2026-04-12T08:00:51.994Z</time></trkpt><trkpt lat="44.6080107" lon="7.938424"><ele>331.6666666666667</ele><time>2026-04-12T08:00:55.994Z</time></trkpt><trkpt lat="44.6079369" lon="7.9383839"><ele>333.0</ele><time>2026-04-12T08:00:59.995Z</time></trkpt><trkpt lat="44.6078643" lon="7.9383492"><ele>334.5714285714286</ele><time>2026-04-12T08:01:03.994Z</time></trkpt><trkpt lat="44.6077896" lon="7.9383078"><ele>336.1428571428571</ele><time>2026-04-12T08:01:07.994Z</time></trkpt><trkpt lat="44.6077293" lon="7.938282"><ele>337.7142857142857</ele><time>2026-04-12T08:01:10.994Z</time></trkpt><trkpt lat="44.6076525" lon="7.9382448"><ele>339.28571428571433</ele><time>2026-04-12T08:01:14.994Z</time></trkpt><trkpt lat="44.6075912" lon="7.9382202"><ele>340.8571428571429</ele><time>2026-04-12T08:01:17.994Z</time></trkpt><trkpt lat="44.6075152" lon="7.9381789"><ele>342.42857142857144</ele><time>2026-04-12T08:01:21.994Z</time></trkpt><trkpt lat="44.6074429" lon="7.9381325"><ele>344.0</ele><time>2026-04-12T08:01:25.995Z</time></trkpt><trkpt lat="44.6073751" lon="7.9380818"><ele>344.00000000000006</ele><time>2026-04-12T08:01:29.994Z</time></trkpt><trkpt lat="44.6073151" lon="7.9380313"><ele>344.0</ele><time>2026-04-12T08:01:33.994Z</time></trkpt><trkpt lat="44.6072537" lon="7.9379865"><ele>344.0</ele><time>2026-04-12T08:01:37.994Z</time></trkpt><trkpt lat="44.6071958" lon="7.9379332"><ele>344.0</ele><time>2026-04-12T08:01:41.994Z</time></trkpt><trkpt lat="44.607134" lon="7.9378942"><ele>344.0</ele><time>2026-04-12T08:01:45.995Z</time></trkpt><trkpt lat="44.6070777" lon="7.9378497"><ele>344.00000000000006</ele><time>2026-04-12T08:01:49.994Z</time></trkpt><trkpt lat="44.6070102" lon="7.9378292"><ele>344.0</ele><time>2026-04-12T08:01:53.994Z</time></trkpt><trkpt lat="44.6069205" lon="7.9378501"><ele>343.83333333333337</ele><time>2026-04-12T08:01:56.994Z</time></trkpt><trkpt lat="44.606821" lon="7.9379565"><ele>343.6666666666667</ele><time>2026-04-12T08:01:58.994Z</time></trkpt><trkpt lat="44.6067665" lon="7.938007"><ele>343.5</ele><time>2026-04-12T08:01:59.994Z</time></trkpt><trkpt lat="44.606705" lon="7.9380435"><ele>343.3333333333333</ele><time>2026-04-12T08:02:00.994Z</time></trkpt><trkpt lat="44.6066368" lon="7.9380601"><ele>343.16666666666663</ele><time>2026-04-12T08:02:01.994Z</time></trkpt><trkpt lat="44.6065682" lon="7.9380554"><ele>343.0</ele><time>2026-04-12T08:02:02.995Z</time></trkpt><trkpt lat="44.6065023" lon="7.9380396"><ele>343.0</ele><time>2026-04-12T08:02:03.994Z</time></trkpt><trkpt lat="44.6064371" lon="7.9380162"><ele>343.0</ele><time>2026-04-12T08:02:04.994Z</time></trkpt><trkpt lat="44.6063724" lon="7.9380119"><ele>343.0</ele><time>2026-04-12T08:02:05.995Z</time></trkpt><trkpt lat="44.6062616" lon="7.9380002"><ele>343.0</ele><time>2026-04-12T08:02:07.994Z</time></trkpt><trkpt lat="44.606171" lon="7.9379933"><ele>343.0</ele><time>2026-04-12T08:02:09.994Z</time></trkpt><trkpt lat="44.6060907" lon="7.938001"><ele>343.0</ele><time>2026-04-12T08:02:12.995Z</time></trkpt><trkpt lat="44.6060132" lon="7.9379882"><ele>343.14285714285717</ele><time>2026-04-12T08:02:16.994Z</time></trkpt><trkpt lat="44.6059468" lon="7.9379844"><ele>343.2857142857143</ele><time>2026-04-12T08:02:20.994Z</time></trkpt><trkpt lat="44.605885" lon="7.93794"><ele>343.42857142857144</ele><time>2026-04-12T08:02:24.995Z</time></trkpt><trkpt lat="44.605822" lon="7.9379134"><ele>343.57142857142856</ele><time>2026-04-12T08:02:28.994Z</time></trkpt><trkpt lat="44.6057523" lon="7.9378883"><ele>343.7142857142857</ele><time>2026-04-12T08:02:32.994Z</time></trkpt><trkpt lat="44.6056878" lon="7.9378889"><ele>343.8571428571429</ele><time>2026-04-12T08:02:35.994Z</time></trkpt><trkpt lat="44.6056248" lon="7.9378826"><ele>344.0</ele><time>2026-04-12T08:02:38.994Z</time></trkpt><trkpt lat="44.6055604" lon="7.9378717"><ele>344.00000000000006</ele><time>2026-04-12T08:02:41.994Z</time></trkpt><trkpt lat="44.6054963" lon="7.9378689"><ele>344.0</ele><time>2026-04-12T08:02:44.994Z</time></trkpt><trkpt lat="44.6054239" lon="7.9378686"><ele>344.0</ele><time>2026-04-12T08:02:47.995Z</time></trkpt><trkpt lat="44.6053364" lon="7.9378682"><ele>344.0</ele><time>2026-04-12T08:02:50.994Z</time></trkpt><trkpt lat="44.6052729" lon="7.9378685"><ele>344.0</ele><time>2026-04-12T08:02:52.994Z</time></trkpt><trkpt lat="44.6052024" lon="7.9378721"><ele>344.00000000000006</ele><time>2026-04-12T08:02:54.994Z</time></trkpt><trkpt lat="44.6051261" lon="7.9378853"><ele>344.0</ele><time>2026-04-12T08:02:56.995Z</time></trkpt><trkpt lat="44.6050479" lon="7.937919"><ele>345.6666666666667</ele><time>2026-04-12T08:02:58.995Z</time></trkpt><trkpt lat="44.6049853" lon="7.9379567"><ele>347.33333333333337</ele><time>2026-04-12T08:03:00.994Z</time></trkpt><trkpt lat="44.6049147" lon="7.938019"><ele>349.0</ele><time>2026-04-12T08:03:03.994Z</time></trkpt><trkpt lat="44.6048419" lon="7.9380855"><ele>350.6666666666667</ele><time>2026-04-12T08:03:06.994Z</time></trkpt><trkpt lat="44.604773" lon="7.938147"><ele>352.3333333333333</ele><time>2026-04-12T08:03:09.994Z</time></trkpt><trkpt lat="44.6047117" lon="7.9382062"><ele>354.0</ele><time>2026-04-12T08:03:12.995Z</time></trkpt><trkpt lat="44.6046561" lon="7.9382513"><ele>354.0</ele><time>2026-04-12T08:03:15.995Z</time></trkpt><trkpt lat="44.6045834" lon="7.9382996"><ele>354.0</ele><time>2026-04-12T08:03:19.994Z</time></trkpt><trkpt lat="44.6045127" lon="7.9383282"><ele>354.0</ele><time>2026-04-12T08:03:23.994Z</time></trkpt><trkpt lat="44.6044405" lon="7.9383548"><ele>354.0</ele><time>2026-04-12T08:03:27.994Z</time></trkpt><trkpt lat="44.6043662" lon="7.9383629"><ele>354.0</ele><time>2026-04-12T08:03:31.994Z</time></trkpt><trkpt lat="44.6042925" lon="7.9383663"><ele>354.0</ele><time>2026-04-12T08:03:35.994Z</time></trkpt><trkpt lat="44.6042163" lon="7.9383722"><ele>353.5714285714286</ele><time>2026-04-12T08:03:39.994Z</time></trkpt><trkpt lat="44.6041327" lon="7.9383725"><ele>353.1428571428571</ele><time>2026-04-12T08:03:43.994Z</time></trkpt><trkpt lat="44.6040525" lon="7.938371"><ele>352.7142857142857</ele><time>2026-04-12T08:03:47.994Z</time></trkpt><trkpt lat="44.6039877" lon="7.9383962"><ele>352.28571428571433</ele><time>2026-04-12T08:03:50.994Z</time></trkpt><trkpt lat="44.6039086" lon="7.9384133"><ele>351.8571428571429</ele><time>2026-04-12T08:03:54.995Z</time></trkpt><trkpt lat="44.6038451" lon="7.9384279"><ele>351.42857142857144</ele><time>2026-04-12T08:03:57.995Z</time></trkpt><trkpt lat="44.6037798" lon="7.9384404"><ele>351.0</ele><time>2026-04-12T08:04:00.994Z</time></trkpt><trkpt lat="44.6037139" lon="7.9384525"><ele>352.5714285714286</ele><time>2026-04-12T08:04:03.994Z</time></trkpt><trkpt lat="44.6036424" lon="7.9384671"><ele>354.14285714285717</ele><time>2026-04-12T08:04:07.994Z</time></trkpt><trkpt lat="44.6035653" lon="7.9384875"><ele>355.7142857142857</ele><time>2026-04-12T08:04:11.994Z</time></trkpt><trkpt lat="44.6035014" lon="7.9384963"><ele>357.28571428571433</ele><time>2026-04-12T08:04:14.994Z</time></trkpt><trkpt lat="44.6034267" lon="7.9385042"><ele>358.85714285714283</ele><time>2026-04-12T08:04:18.994Z</time></trkpt><trkpt lat="44.6033565" lon="7.9385306"><ele>360.42857142857144</ele><time>2026-04-12T08:04:22.994Z</time></trkpt><trkpt lat="44.603289" lon="7.9385488"><ele>362.0</ele><time>2026-04-12T08:04:26.994Z</time></trkpt><trkpt lat="44.6032189" lon="7.9385585"><ele>362.0</ele><time>2026-04-12T08:04:31.995Z</time></trkpt><trkpt lat="44.6031467" lon="7.9385715"><ele>362.0</ele><time>2026-04-12T08:04:36.995Z</time></trkpt><trkpt lat="44.6030715" lon="7.9385921"><ele>362.0</ele><time>2026-04-12T08:04:41.994Z</time></trkpt><trkpt lat="44.6029982" lon="7.9386126"><ele>362.0</ele><time>2026-04-12T08:04:46.994Z</time></trkpt><trkpt lat="44.6029244" lon="7.9386068"><ele>362.0</ele><time>2026-04-12T08:04:52.995Z</time></trkpt><trkpt lat="44.6028628" lon="7.938587"><ele>362.0</ele><time>2026-04-12T08:04:56.994Z</time></trkpt><trkpt lat="44.602786" lon="7.9385906"><ele>362.0</ele><time>2026-04-12T08:05:00.994Z</time></trkpt><trkpt lat="44.6027202" lon="7.9385861"><ele>363.1666666666667</ele><time>2026-04-12T08:05:04.994Z</time></trkpt><trkpt lat="44.6026479" lon="7.9385782"><ele>364.33333333333337</ele><time>2026-04-12T08:05:08.995Z</time></trkpt><trkpt lat="44.6025697" lon="7.938554"><ele>365.5</ele><time>2026-04-12T08:05:12.994Z</time></trkpt><trkpt lat="44.6024927" lon="7.9385235"><ele>366.6666666666667</ele><time>2026-04-12T08:05:16.994Z</time></trkpt><trkpt lat="44.6024228" lon="7.9385001"><ele>367.8333333333333</ele><time>2026-04-12T08:05:19.993Z</time></trkpt><trkpt lat="44.6023381" lon="7.9384749"><ele>369.0</ele><time>2026-04-12T08:05:22.994Z</time></trkpt><trkpt lat="44.6022648" lon="7.938446"><ele>369.0</ele><time>2026-04-12T08:05:24.994Z</time></trkpt><trkpt lat="44.6021776" lon="7.9384095"><ele>369.0</ele><time>2026-04-12T08:05:26.994Z</time></trkpt><trkpt lat="44.6020679" lon="7.9383651"><ele>369.0</ele><time>2026-04-12T08:05:28.993Z</time></trkpt><trkpt lat="44.6019563" lon="7.9383102"><ele>369.0</ele><time>2026-04-12T08:05:30.994Z</time></trkpt><trkpt lat="44.6018488" lon="7.9382581"><ele>369.0</ele><time>2026-04-12T08:05:32.994Z</time></trkpt><trkpt lat="44.6017473" lon="7.9382181"><ele>370.0</ele><time>2026-04-12T08:05:34.994Z</time></trkpt><trkpt lat="44.6016726" lon="7.938173"><ele>371.0</ele><time>2026-04-12T08:05:36.994Z</time></trkpt><trkpt lat="44.6015932" lon="7.9381287"><ele>372.0</ele><time>2026-04-12T08:05:39.994Z</time></trkpt><trkpt lat="44.6015179" lon="7.9380802"><ele>373.0</ele><time>2026-04-12T08:05:42.994Z</time></trkpt><trkpt lat="44.6014338" lon="7.9380409"><ele>374.0</ele><time>2026-04-12T08:05:45.994Z</time></trkpt><trkpt lat="44.6013541" lon="7.938004"><ele>375.0</ele><time>2026-04-12T08:05:48.994Z</time></trkpt><trkpt lat="44.6012697" lon="7.9379689"><ele>375.0</ele><time>2026-04-12T08:05:51.994Z</time></trkpt><trkpt lat="44.6011929" lon="7.937937"><ele>375.0</ele><time>2026-04-12T08:05:53.994Z</time></trkpt><trkpt lat="44.6010969" lon="7.9378908"><ele>375.0</ele><time>2026-04-12T08:05:55.994Z</time></trkpt><trkpt lat="44.6009803" lon="7.9378641"><ele>375.0</ele><time>2026-04-12T08:05:57.994Z</time></trkpt><trkpt lat="44.6009065" lon="7.9378603"><ele>375.0</ele><time>2026-04-12T08:05:58.995Z</time></trkpt><trkpt lat="44.6008322" lon="7.9378504"><ele>375.0</ele><time>2026-04-12T08:05:59.994Z</time></trkpt><trkpt lat="44.6007627" lon="7.9378314"><ele>373.5</ele><time>2026-04-12T08:06:00.994Z</time></trkpt><trkpt lat="44.6006948" lon="7.9378093"><ele>372.0</ele><time>2026-04-12T08:06:01.994Z</time></trkpt><trkpt lat="44.6006296" lon="7.9377841"><ele>370.5</ele><time>2026-04-12T08:06:02.994Z</time></trkpt><trkpt lat="44.6005078" lon="7.9377346"><ele>369.0</ele><time>2026-04-12T08:06:04.993Z</time></trkpt><trkpt lat="44.6004449" lon="7.9376997"><ele>367.5</ele><time>2026-04-12T08:06:06.994Z</time></trkpt><trkpt lat="44.6003678" lon="7.937656"><ele>366.0</ele><time>2026-04-12T08:06:09.994Z</time></trkpt><trkpt lat="44.6002931" lon="7.937628"><ele>365.5</ele><time>2026-04-12T08:06:12.995Z</time></trkpt><trkpt lat="44.6002178" lon="7.9375955"><ele>365.0</ele><time>2026-04-12T08:06:15.994Z</time></trkpt><trkpt lat="44.6001521" lon="7.937563"><ele>364.5</ele><time>2026-04-12T08:06:18.994Z</time></trkpt><trkpt lat="44.6000767" lon="7.937513"><ele>364.0</ele><time>2026-04-12T08:06:21.995Z</time></trkpt><trkpt lat="44.5999877" lon="7.9374696"><ele>363.5</ele><time>2026-04-12T08:06:24.995Z</time></trkpt><trkpt lat="44.5999232" lon="7.9374421"><ele>363.0</ele><time>2026-04-12T08:06:26.994Z</time></trkpt><trkpt lat="44.599832" lon="7.9374096"><ele>365.3333333333333</ele><time>2026-04-12T08:06:29.994Z</time></trkpt><trkpt lat="44.5997441" lon="7.9373964"><ele>367.6666666666667</ele><time>2026-04-12T08:06:32.995Z</time></trkpt><trkpt lat="44.5996809" lon="7.9373881"><ele>370.0</ele><time>2026-04-12T08:06:34.994Z</time></trkpt><trkpt lat="44.5995959" lon="7.9373953"><ele>372.33333333333337</ele><time>2026-04-12T08:06:37.995Z</time></trkpt><trkpt lat="44.5995099" lon="7.937394"><ele>374.6666666666667</ele><time>2026-04-12T08:06:41.995Z</time></trkpt><trkpt lat="44.5994333" lon="7.937379"><ele>377.0</ele><time>2026-04-12T08:06:45.994Z</time></trkpt><trkpt lat="44.599349" lon="7.9373598"><ele>377.57142857142856</ele><time>2026-04-12T08:06:49.994Z</time></trkpt><trkpt lat="44.5992819" lon="7.937352"><ele>378.1428571428571</ele><time>2026-04-12T08:06:52.994Z</time></trkpt><trkpt lat="44.5992191" lon="7.9373388"><ele>378.71428571428567</ele><time>2026-04-12T08:06:55.995Z</time></trkpt><trkpt lat="44.5991411" lon="7.9373357"><ele>379.2857142857143</ele><time>2026-04-12T08:06:59.994Z</time></trkpt><trkpt lat="44.5990602" lon="7.9373167"><ele>379.8571428571429</ele><time>2026-04-12T08:07:03.993Z</time></trkpt><trkpt lat="44.5989843" lon="7.9373008"><ele>380.4285714285714</ele><time>2026-04-12T08:07:07.994Z</time></trkpt><trkpt lat="44.5989069" lon="7.9372809"><ele>381.0</ele><time>2026-04-12T08:07:11.994Z</time></trkpt><trkpt lat="44.5988218" lon="7.937277"><ele>381.0</ele><time>2026-04-12T08:07:15.994Z</time></trkpt><trkpt lat="44.5987365" lon="7.9372755"><ele>381.0</ele><time>2026-04-12T08:07:19.994Z</time></trkpt><trkpt lat="44.5986628" lon="7.9372864"><ele>381.0</ele><time>2026-04-12T08:07:22.994Z</time></trkpt><trkpt lat="44.5985957" lon="7.9373072"><ele>381.0</ele><time>2026-04-12T08:07:25.994Z</time></trkpt><trkpt lat="44.5985326" lon="7.9373222"><ele>381.0</ele><time>2026-04-12T08:07:28.994Z</time></trkpt><trkpt lat="44.5984682" lon="7.9373352"><ele>381.0</ele><time>2026-04-12T08:07:31.994Z</time></trkpt><trkpt lat="44.598388" lon="7.9373531"><ele>381.0</ele><time>2026-04-12T08:07:35.994Z</time></trkpt><trkpt lat="44.5983244" lon="7.9373643"><ele>382.2857142857143</ele><time>2026-04-12T08:07:38.994Z</time></trkpt><trkpt lat="44.5982456" lon="7.9373811"><ele>383.5714285714286</ele><time>2026-04-12T08:07:42.995Z</time></trkpt><trkpt lat="44.5981766" lon="7.9373902"><ele>384.8571428571429</ele><time>2026-04-12T08:07:46.993Z</time></trkpt><trkpt lat="44.5981059" lon="7.9374059"><ele>386.1428571428571</ele><time>2026-04-12T08:07:50.994Z</time></trkpt><trkpt lat="44.5980302" lon="7.9374081"><ele>387.42857142857144</ele><time>2026-04-12T08:07:55.994Z</time></trkpt><trkpt lat="44.5979597" lon="7.9373494"><ele>388.7142857142857</ele><time>2026-04-12T08:07:59.994Z</time></trkpt><trkpt lat="44.5979137" lon="7.9372759"><ele>390.0</ele><time>2026-04-12T08:08:02.994Z</time></trkpt><trkpt lat="44.5978584" lon="7.9372176"><ele>389.1666666666667</ele><time>2026-04-12T08:08:05.995Z</time></trkpt><trkpt lat="44.5978066" lon="7.9371295"><ele>388.33333333333337</ele><time>2026-04-12T08:08:09.994Z</time></trkpt><trkpt lat="44.5977598" lon="7.9370659"><ele>387.5</ele><time>2026-04-12T08:08:12.994Z</time></trkpt><trkpt lat="44.5977008" lon="7.9369834"><ele>386.6666666666667</ele><time>2026-04-12T08:08:16.994Z</time></trkpt><trkpt lat="44.5976431" lon="7.9368989"><ele>385.83333333333337</ele><time>2026-04-12T08:08:20.995Z</time></trkpt><trkpt lat="44.5975935" lon="7.9368093"><ele>385.0</ele><time>2026-04-12T08:08:24.994Z</time></trkpt><trkpt lat="44.5975403" lon="7.936728"><ele>387.00000000000006</ele><time>2026-04-12T08:08:28.994Z</time></trkpt><trkpt lat="44.5974958" lon="7.9366547"><ele>389.0</ele><time>2026-04-12T08:08:32.994Z</time></trkpt><trkpt lat="44.5974471" lon="7.936574"><ele>391.0</ele><time>2026-04-12T08:08:36.994Z</time></trkpt><trkpt lat="44.5973864" lon="7.9365003"><ele>393.0</ele><time>2026-04-12T08:08:40.995Z</time></trkpt><trkpt lat="44.5973335" lon="7.9364152"><ele>395.00000000000006</ele><time>2026-04-12T08:08:44.995Z</time></trkpt><trkpt lat="44.5972802" lon="7.9363546"><ele>397.0</ele><time>2026-04-12T08:08:47.994Z</time></trkpt><trkpt lat="44.5972095" lon="7.9362969"><ele>397.00000000000006</ele><time>2026-04-12T08:08:51.994Z</time></trkpt><trkpt lat="44.5971542" lon="7.9362461"><ele>397.0</ele><time>2026-04-12T08:08:54.994Z</time></trkpt><trkpt lat="44.5970888" lon="7.9361873"><ele>397.0</ele><time>2026-04-12T08:08:57.994Z</time></trkpt><trkpt lat="44.5970291" lon="7.9361094"><ele>397.0</ele><time>2026-04-12T08:09:00.994Z</time></trkpt><trkpt lat="44.5969638" lon="7.936026"><ele>397.00000000000006</ele><time>2026-04-12T08:09:03.994Z</time></trkpt><trkpt lat="44.5969072" lon="7.9359712"><ele>397.0</ele><time>2026-04-12T08:09:05.994Z</time></trkpt><trkpt lat="44.5968432" lon="7.9359378"><ele>396.1428571428571</ele><time>2026-04-12T08:09:07.995Z</time></trkpt><trkpt lat="44.5967723" lon="7.9359165"><ele>395.2857142857143</ele><time>2026-04-12T08:09:09.994Z</time></trkpt><trkpt lat="44.596707" lon="7.9359049"><ele>394.42857142857144</ele><time>2026-04-12T08:09:11.994Z</time></trkpt><trkpt lat="44.5966425" lon="7.9358971"><ele>393.57142857142856</ele><time>2026-04-12T08:09:13.994Z</time></trkpt><trkpt lat="44.5965538" lon="7.9359056"><ele>392.7142857142857</ele><time>2026-04-12T08:09:16.993Z</time></trkpt><trkpt lat="44.5964767" lon="7.9359106"><ele>391.85714285714283</ele><time>2026-04-12T08:09:19.994Z</time></trkpt><trkpt lat="44.5964109" lon="7.9359218"><ele>391.0</ele><time>2026-04-12T08:09:22.994Z</time></trkpt><trkpt lat="44.5963311" lon="7.9359335"><ele>390.99999999999994</ele><time>2026-04-12T08:09:26.994Z</time></trkpt><trkpt lat="44.5962568" lon="7.9359543"><ele>391.0</ele><time>2026-04-12T08:09:30.995Z</time></trkpt><trkpt lat="44.5961855" lon="7.9359705"><ele>391.0</ele><time>2026-04-12T08:09:34.994Z</time></trkpt><trkpt lat="44.596113" lon="7.9359844"><ele>391.0</ele><time>2026-04-12T08:09:38.994Z</time></trkpt><trkpt lat="44.5960399" lon="7.9359944"><ele>391.0</ele><time>2026-04-12T08:09:42.994Z</time></trkpt><trkpt lat="44.5959654" lon="7.9360081"><ele>390.99999999999994</ele><time>2026-04-12T08:09:46.995Z</time></trkpt><trkpt lat="44.5958966" lon="7.9360287"><ele>391.0</ele><time>2026-04-12T08:09:50.994Z</time></trkpt><trkpt lat="44.5958249" lon="7.9360503"><ele>392.99999999999994</ele><time>2026-04-12T08:09:54.994Z</time></trkpt><trkpt lat="44.5957561" lon="7.9360616"><ele>395.0</ele><time>2026-04-12T08:09:58.994Z</time></trkpt><trkpt lat="44.5956874" lon="7.9360761"><ele>397.0</ele><time>2026-04-12T08:10:02.994Z</time></trkpt><trkpt lat="44.5956199" lon="7.9360966"><ele>399.0</ele><time>2026-04-12T08:10:06.994Z</time></trkpt><trkpt lat="44.5955507" lon="7.9361154"><ele>401.0</ele><time>2026-04-12T08:10:10.995Z</time></trkpt><trkpt lat="44.5954824" lon="7.9361393"><ele>402.99999999999994</ele><time>2026-04-12T08:10:14.994Z</time></trkpt><trkpt lat="44.5954121" lon="7.9361707"><ele>405.0</ele><time>2026-04-12T08:10:18.995Z</time></trkpt><trkpt lat="44.5953456" lon="7.9361817"><ele>406.57142857142856</ele><time>2026-04-12T08:10:22.994Z</time></trkpt><trkpt lat="44.5952793" lon="7.9361916"><ele>408.1428571428571</ele><time>2026-04-12T08:10:26.994Z</time></trkpt><trkpt lat="44.5952152" lon="7.9361756"><ele>409.71428571428567</ele><time>2026-04-12T08:10:30.994Z</time></trkpt><trkpt lat="44.5951588" lon="7.9361354"><ele>411.2857142857143</ele><time>2026-04-12T08:10:34.994Z</time></trkpt><trkpt lat="44.5950835" lon="7.9361005"><ele>412.8571428571429</ele><time>2026-04-12T08:10:39.994Z</time></trkpt><trkpt lat="44.595022" lon="7.936062"><ele>414.4285714285714</ele><time>2026-04-12T08:10:43.995Z</time></trkpt><trkpt lat="44.5949579" lon="7.9360958"><ele>416.0</ele><time>2026-04-12T08:10:47.994Z</time></trkpt><trkpt lat="44.5949298" lon="7.9362105"><ele>416.0</ele><time>2026-04-12T08:10:49.994Z</time></trkpt><trkpt lat="44.5948542" lon="7.9362758"><ele>416.0</ele><time>2026-04-12T08:10:51.994Z</time></trkpt><trkpt lat="44.5947735" lon="7.9362271"><ele>416.0</ele><time>2026-04-12T08:10:53.994Z</time></trkpt><trkpt lat="44.5946878" lon="7.9361433"><ele>416.0</ele><time>2026-04-12T08:10:55.994Z</time></trkpt><trkpt lat="44.5946047" lon="7.9360593"><ele>416.0</ele><time>2026-04-12T08:10:57.994Z</time></trkpt><trkpt lat="44.5945098" lon="7.9359785"><ele>413.6</ele><time>2026-04-12T08:10:59.995Z</time></trkpt><trkpt lat="44.594413" lon="7.9359233"><ele>411.20000000000005</ele><time>2026-04-12T08:11:01.994Z</time></trkpt><trkpt lat="44.5943228" lon="7.9358851"><ele>408.79999999999995</ele><time>2026-04-12T08:11:03.994Z</time></trkpt><trkpt lat="44.5942254" lon="7.9358737"><ele>406.4</ele><time>2026-04-12T08:11:05.994Z</time></trkpt><trkpt lat="44.5941066" lon="7.9358402"><ele>404.0</ele><time>2026-04-12T08:11:07.994Z</time></trkpt><trkpt lat="44.5940005" lon="7.935791"><ele>404.0</ele><time>2026-04-12T08:11:09.994Z</time></trkpt><trkpt lat="44.5939175" lon="7.9357325"><ele>404.0</ele><time>2026-04-12T08:11:11.994Z</time></trkpt><trkpt lat="44.5938409" lon="7.9356621"><ele>404.0</ele><time>2026-04-12T08:11:13.994Z</time></trkpt><trkpt lat="44.5937505" lon="7.9355875"><ele>404.0</ele><time>2026-04-12T08:11:15.994Z</time></trkpt><trkpt lat="44.5936605" lon="7.935509"><ele>404.0</ele><time>2026-04-12T08:11:17.995Z</time></trkpt><trkpt lat="44.5935853" lon="7.9354437"><ele>401.3333333333333</ele><time>2026-04-12T08:11:19.995Z</time></trkpt><trkpt lat="44.5935089" lon="7.9353888"><ele>398.66666666666663</ele><time>2026-04-12T08:11:21.994Z</time></trkpt><trkpt lat="44.5934142" lon="7.9353397"><ele>396.0</ele><time>2026-04-12T08:11:23.994Z</time></trkpt><trkpt lat="44.5933251" lon="7.9353152"><ele>393.33333333333337</ele><time>2026-04-12T08:11:25.995Z</time></trkpt><trkpt lat="44.5932483" lon="7.9352954"><ele>390.6666666666667</ele><time>2026-04-12T08:11:27.994Z</time></trkpt><trkpt lat="44.5931805" lon="7.9352813"><ele>388.0</ele><time>2026-04-12T08:11:29.994Z</time></trkpt><trkpt lat="44.593108" lon="7.9352684"><ele>388.0</ele><time>2026-04-12T08:11:32.994Z</time></trkpt><trkpt lat="44.5930304" lon="7.9352681"><ele>388.0</ele><time>2026-04-12T08:11:36.995Z</time></trkpt><trkpt lat="44.5929619" lon="7.9352723"><ele>388.0</ele><time>2026-04-12T08:11:40.994Z</time></trkpt><trkpt lat="44.5929026" lon="7.9352327"><ele>388.0</ele><time>2026-04-12T08:11:55.994Z</time></trkpt><trkpt lat="44.5928807" lon="7.935149"><ele>388.0</ele><time>2026-04-12T08:12:11.994Z</time></trkpt><trkpt lat="44.5928659" lon="7.9350596"><ele>388.0</ele><time>2026-04-12T08:12:19.995Z</time></trkpt><trkpt lat="44.5928622" lon="7.934962"><ele>388.0</ele><time>2026-04-12T08:12:31.994Z</time></trkpt><trkpt lat="44.592861" lon="7.9348688"><ele>389.4285714285714</ele><time>2026-04-12T08:12:39.995Z</time></trkpt><trkpt lat="44.5928494" lon="7.9347818"><ele>390.8571428571429</ele><time>2026-04-12T08:12:46.994Z</time></trkpt><trkpt lat="44.5928504" lon="7.9346657"><ele>392.2857142857143</ele><time>2026-04-12T08:13:02.994Z</time></trkpt><trkpt lat="44.5928522" lon="7.9345682"><ele>393.71428571428567</ele><time>2026-04-12T08:13:05.995Z</time></trkpt><trkpt lat="44.5928593" lon="7.9344727"><ele>395.1428571428571</ele><time>2026-04-12T08:13:08.994Z</time></trkpt><trkpt lat="44.5928801" lon="7.9343804"><ele>396.57142857142856</ele><time>2026-04-12T08:13:12.994Z</time></trkpt><trkpt lat="44.5929035" lon="7.9342785"><ele>398.0</ele><time>2026-04-12T08:13:17.994Z</time></trkpt><trkpt lat="44.5929037" lon="7.934164"><ele>400.3333333333333</ele><time>2026-04-12T08:13:21.994Z</time></trkpt><trkpt lat="44.5928805" lon="7.9340527"><ele>402.66666666666663</ele><time>2026-04-12T08:13:25.994Z</time></trkpt><trkpt lat="44.5928642" lon="7.9339539"><ele>405.0</ele><time>2026-04-12T08:13:29.994Z</time></trkpt><trkpt lat="44.5928459" lon="7.9338546"><ele>407.33333333333337</ele><time>2026-04-12T08:13:32.994Z</time></trkpt><trkpt lat="44.5928294" lon="7.9337599"><ele>409.6666666666667</ele><time>2026-04-12T08:13:34.994Z</time></trkpt><trkpt lat="44.5928032" lon="7.9336276"><ele>412.0</ele><time>2026-04-12T08:13:36.994Z</time></trkpt><trkpt lat="44.5927746" lon="7.933489"><ele>408.33333333333337</ele><time>2026-04-12T08:13:38.994Z</time></trkpt><trkpt lat="44.5927427" lon="7.9333649"><ele>404.6666666666667</ele><time>2026-04-12T08:13:40.994Z</time></trkpt><trkpt lat="44.5927104" lon="7.9332695"><ele>401.0</ele><time>2026-04-12T08:13:42.994Z</time></trkpt><trkpt lat="44.5926749" lon="7.9331545"><ele>397.33333333333337</ele><time>2026-04-12T08:13:45.995Z</time></trkpt><trkpt lat="44.5926509" lon="7.9330501"><ele>393.6666666666667</ele><time>2026-04-12T08:13:48.994Z</time></trkpt><trkpt lat="44.59263" lon="7.9329543"><ele>390.0</ele><time>2026-04-12T08:13:51.995Z</time></trkpt><trkpt lat="44.5926223" lon="7.9328579"><ele>390.0</ele><time>2026-04-12T08:13:54.994Z</time></trkpt><trkpt lat="44.5926544" lon="7.9327727"><ele>390.0</ele><time>2026-04-12T08:13:58.995Z</time></trkpt><trkpt lat="44.5926683" lon="7.9326804"><ele>390.0</ele><time>2026-04-12T08:14:03.994Z</time></trkpt><trkpt lat="44.5926452" lon="7.9325882"><ele>390.0</ele><time>2026-04-12T08:14:07.994Z</time></trkpt><trkpt lat="44.5926074" lon="7.9324949"><ele>390.0</ele><time>2026-04-12T08:14:11.994Z</time></trkpt><trkpt lat="44.5925788" lon="7.9324117"><ele>390.0</ele><time>2026-04-12T08:14:14.994Z</time></trkpt><trkpt lat="44.5925485" lon="7.932331"><ele>390.0</ele><time>2026-04-12T08:14:17.995Z</time></trkpt><trkpt lat="44.5925243" lon="7.932246"><ele>391.5</ele><time>2026-04-12T08:14:20.994Z</time></trkpt><trkpt lat="44.5924867" lon="7.932139"><ele>393.0</ele><time>2026-04-12T08:14:24.994Z</time></trkpt><trkpt lat="44.5924626" lon="7.9320498"><ele>394.5</ele><time>2026-04-12T08:14:27.994Z</time></trkpt><trkpt lat="44.5924407" lon="7.9319634"><ele>396.0</ele><time>2026-04-12T08:14:30.994Z</time></trkpt><trkpt lat="44.5924174" lon="7.9318537"><ele>397.5</ele><time>2026-04-12T08:14:34.994Z</time></trkpt><trkpt lat="44.5923877" lon="7.9317701"><ele>399.0</ele><time>2026-04-12T08:14:37.994Z</time></trkpt><trkpt lat="44.5923374" lon="7.9316759"><ele>398.0</ele><time>2026-04-12T08:14:41.994Z</time></trkpt><trkpt lat="44.5922953" lon="7.9316058"><ele>397.0</ele><time>2026-04-12T08:14:44.994Z</time></trkpt><trkpt lat="44.5922437" lon="7.9315367"><ele>396.0</ele><time>2026-04-12T08:14:47.994Z</time></trkpt><trkpt lat="44.5921837" lon="7.9314791"><ele>395.0</ele><time>2026-04-12T08:14:50.995Z</time></trkpt><trkpt lat="44.5921167" lon="7.9314198"><ele>394.0</ele><time>2026-04-12T08:14:53.994Z</time></trkpt><trkpt lat="44.5920499" lon="7.9313576"><ele>393.0</ele><time>2026-04-12T08:14:56.994Z</time></trkpt><trkpt lat="44.5919876" lon="7.931299"><ele>392.0</ele><time>2026-04-12T08:14:59.994Z</time></trkpt><trkpt lat="44.5919214" lon="7.9312576"><ele>392.0</ele><time>2026-04-12T08:15:02.994Z</time></trkpt><trkpt lat="44.591834" lon="7.9312169"><ele>392.0</ele><time>2026-04-12T08:15:05.995Z</time></trkpt><trkpt lat="44.5917719" lon="7.9311839"><ele>392.0</ele><time>2026-04-12T08:15:07.994Z</time></trkpt><trkpt lat="44.5917081" lon="7.9311397"><ele>392.0</ele><time>2026-04-12T08:15:09.995Z</time></trkpt><trkpt lat="44.5916449" lon="7.9310915"><ele>392.0</ele><time>2026-04-12T08:15:11.994Z</time></trkpt><trkpt lat="44.5915841" lon="7.9310361"><ele>392.0</ele><time>2026-04-12T08:15:13.995Z</time></trkpt><trkpt lat="44.5915225" lon="7.9309849"><ele>392.0</ele><time>2026-04-12T08:15:15.994Z</time></trkpt><trkpt lat="44.5914628" lon="7.9309312"><ele>393.99999999999994</ele><time>2026-04-12T08:15:17.994Z</time></trkpt><trkpt lat="44.5913914" lon="7.9308764"><ele>396.0</ele><time>2026-04-12T08:15:20.994Z</time></trkpt><trkpt lat="44.5913212" lon="7.9308341"><ele>398.0</ele><time>2026-04-12T08:15:23.994Z</time></trkpt><trkpt lat="44.5912586" lon="7.9307814"><ele>400.0</ele><time>2026-04-12T08:15:26.994Z</time></trkpt><trkpt lat="44.5911884" lon="7.930734"><ele>401.99999999999994</ele><time>2026-04-12T08:15:30.995Z</time></trkpt><trkpt lat="44.5911211" lon="7.9306976"><ele>404.0</ele><time>2026-04-12T08:15:34.994Z</time></trkpt><trkpt lat="44.5910367" lon="7.9306623"><ele>404.0</ele><time>2026-04-12T08:15:38.994Z</time></trkpt><trkpt lat="44.5909741" lon="7.9306379"><ele>404.0</ele><time>2026-04-12T08:15:41.995Z</time></trkpt><trkpt lat="44.5908946" lon="7.9306173"><ele>404.0</ele><time>2026-04-12T08:15:45.994Z</time></trkpt><trkpt lat="44.5908163" lon="7.9306006"><ele>404.0</ele><time>2026-04-12T08:15:49.994Z</time></trkpt><trkpt lat="44.5907373" lon="7.9305759"><ele>404.0</ele><time>2026-04-12T08:15:53.995Z</time></trkpt><trkpt lat="44.590668" lon="7.9305562"><ele>404.0</ele><time>2026-04-12T08:15:57.995Z</time></trkpt><trkpt lat="44.590605" lon="7.9305243"><ele>404.0</ele><time>2026-04-12T08:16:01.994Z</time></trkpt><trkpt lat="44.5905388" lon="7.9304952"><ele>404.0</ele><time>2026-04-12T08:16:05.994Z</time></trkpt><trkpt lat="44.5904622" lon="7.9304819"><ele>404.0</ele><time>2026-04-12T08:16:10.994Z</time></trkpt><trkpt lat="44.5903913" lon="7.9304474"><ele>404.0</ele><time>2026-04-12T08:16:15.994Z</time></trkpt><trkpt lat="44.5903232" lon="7.9304291"><ele>404.0</ele><time>2026-04-12T08:16:20.994Z</time></trkpt><trkpt lat="44.5902533" lon="7.930405"><ele>404.0</ele><time>2026-04-12T08:16:25.994Z</time></trkpt><trkpt lat="44.5901794" lon="7.9303832"><ele>404.0</ele><time>2026-04-12T08:16:30.994Z</time></trkpt><trkpt lat="44.5901112" lon="7.930364"><ele>404.0</ele><time>2026-04-12T08:16:34.995Z</time></trkpt><trkpt lat="44.5900357" lon="7.9303391"><ele>404.57142857142856</ele><time>2026-04-12T08:16:38.995Z</time></trkpt><trkpt lat="44.5899573" lon="7.9303151"><ele>405.1428571428571</ele><time>2026-04-12T08:16:42.995Z</time></trkpt><trkpt lat="44.5898857" lon="7.9302806"><ele>405.7142857142857</ele><time>2026-04-12T08:16:46.994Z</time></trkpt><trkpt lat="44.5898135" lon="7.9302493"><ele>406.2857142857143</ele><time>2026-04-12T08:16:50.994Z</time></trkpt><trkpt lat="44.589744" lon="7.9302083"><ele>406.8571428571429</ele><time>2026-04-12T08:16:54.994Z</time></trkpt><trkpt lat="44.5896785" lon="7.9301658"><ele>407.42857142857144</ele><time>2026-04-12T08:16:58.994Z</time></trkpt><trkpt lat="44.5896209" lon="7.9301191"><ele>408.0</ele><time>2026-04-12T08:17:02.994Z</time></trkpt><trkpt lat="44.5895607" lon="7.9300621"><ele>409.6666666666667</ele><time>2026-04-12T08:17:06.994Z</time></trkpt><trkpt lat="44.5894999" lon="7.9299844"><ele>411.33333333333337</ele><time>2026-04-12T08:17:10.995Z</time></trkpt><trkpt lat="44.5894588" lon="7.9299166"><ele>413.0</ele><time>2026-04-12T08:17:13.994Z</time></trkpt><trkpt lat="44.5894092" lon="7.9298307"><ele>414.6666666666667</ele><time>2026-04-12T08:17:17.994Z</time></trkpt><trkpt lat="44.5893536" lon="7.929752"><ele>416.33333333333337</ele><time>2026-04-12T08:17:21.994Z</time></trkpt><trkpt lat="44.5893022" lon="7.9296711"><ele>418.0</ele><time>2026-04-12T08:17:25.995Z</time></trkpt><trkpt lat="44.5892638" lon="7.92958"><ele>418.00000000000006</ele><time>2026-04-12T08:17:29.995Z</time></trkpt><trkpt lat="44.5892347" lon="7.9294793"><ele>418.0</ele><time>2026-04-12T08:17:33.994Z</time></trkpt><trkpt lat="44.5892107" lon="7.9293714"><ele>418.0</ele><time>2026-04-12T08:17:37.994Z</time></trkpt><trkpt lat="44.589175" lon="7.9292745"><ele>418.0</ele><time>2026-04-12T08:17:41.994Z</time></trkpt><trkpt lat="44.5891254" lon="7.9291908"><ele>418.00000000000006</ele><time>2026-04-12T08:17:45.994Z</time></trkpt><trkpt lat="44.5890639" lon="7.929138"><ele>418.0</ele><time>2026-04-12T08:17:49.994Z</time></trkpt><trkpt lat="44.5889896" lon="7.9291082"><ele>420.42857142857144</ele><time>2026-04-12T08:17:54.994Z</time></trkpt><trkpt lat="44.5889307" lon="7.9290551"><ele>422.85714285714283</ele><time>2026-04-12T08:17:59.995Z</time></trkpt><trkpt lat="44.588859" lon="7.9290199"><ele>425.28571428571433</ele><time>2026-04-12T08:18:04.994Z</time></trkpt><trkpt lat="44.5887852" lon="7.9289905"><ele>427.7142857142857</ele><time>2026-04-12T08:18:09.995Z</time></trkpt><trkpt lat="44.5887058" lon="7.928997"><ele>430.14285714285717</ele><time>2026-04-12T08:18:14.994Z</time></trkpt><trkpt lat="44.5886409" lon="7.9290043"><ele>432.5714285714286</ele><time>2026-04-12T08:18:18.995Z</time></trkpt><trkpt lat="44.5885724" lon="7.9290239"><ele>435.0</ele><time>2026-04-12T08:18:22.995Z</time></trkpt><trkpt lat="44.588503" lon="7.9290468"><ele>436.00000000000006</ele><time>2026-04-12T08:18:26.994Z</time></trkpt><trkpt lat="44.588434" lon="7.9291024"><ele>437.0</ele><time>2026-04-12T08:18:31.994Z</time></trkpt><trkpt lat="44.5883628" lon="7.9291348"><ele>438.0</ele><time>2026-04-12T08:18:36.995Z</time></trkpt><trkpt lat="44.5882996" lon="7.9291604"><ele>439.0</ele><time>2026-04-12T08:18:40.994Z</time></trkpt><trkpt lat="44.5882368" lon="7.9291853"><ele>440.0</ele><time>2026-04-12T08:18:44.994Z</time></trkpt><trkpt lat="44.5881694" lon="7.929211"><ele>441.00000000000006</ele><time>2026-04-12T08:18:48.994Z</time></trkpt><trkpt lat="44.5881021" lon="7.9292273"><ele>442.0</ele><time>2026-04-12T08:18:52.995Z</time></trkpt><trkpt lat="44.5880377" lon="7.9292438"><ele>442.00000000000006</ele><time>2026-04-12T08:18:56.995Z</time></trkpt><trkpt lat="44.5879579" lon="7.9292284"><ele>442.0</ele><time>2026-04-12T08:19:01.994Z</time></trkpt><trkpt lat="44.5878851" lon="7.9292291"><ele>442.0</ele><time>2026-04-12T08:19:05.995Z</time></trkpt><trkpt lat="44.5878097" lon="7.9292273"><ele>442.0</ele><time>2026-04-12T08:19:10.994Z</time></trkpt><trkpt lat="44.5877526" lon="7.9291785"><ele>442.0</ele><time>2026-04-12T08:19:15.994Z</time></trkpt><trkpt lat="44.5877418" lon="7.9290786"><ele>442.00000000000006</ele><time>2026-04-12T08:19:21.994Z</time></trkpt><trkpt lat="44.5877942" lon="7.92902"><ele>442.0</ele><time>2026-04-12T08:19:27.994Z</time></trkpt><trkpt lat="44.5878567" lon="7.9289707"><ele>442.00000000000006</ele><time>2026-04-12T08:19:33.995Z</time></trkpt><trkpt lat="44.5879085" lon="7.9289197"><ele>442.0</ele><time>2026-04-12T08:19:38.994Z</time></trkpt><trkpt lat="44.5879671" lon="7.9288847"><ele>442.0</ele><time>2026-04-12T08:19:43.994Z</time></trkpt><trkpt lat="44.5880193" lon="7.9288196"><ele>442.0</ele><time>2026-04-12T08:19:49.994Z</time></trkpt><trkpt lat="44.5880712" lon="7.9287471"><ele>442.0</ele><time>2026-04-12T08:19:55.994Z</time></trkpt><trkpt lat="44.5881322" lon="7.9286975"><ele>442.00000000000006</ele><time>2026-04-12T08:20:01.994Z</time></trkpt><trkpt lat="44.5881605" lon="7.9286154"><ele>442.0</ele><time>2026-04-12T08:20:07.994Z</time></trkpt><trkpt lat="44.5882132" lon="7.9285653"><ele>442.00000000000006</ele><time>2026-04-12T08:20:14.995Z</time></trkpt><trkpt lat="44.5882291" lon="7.9284787"><ele>442.0</ele><time>2026-04-12T08:20:18.994Z</time></trkpt><trkpt lat="44.5882657" lon="7.9283956"><ele>442.0</ele><time>2026-04-12T08:20:23.994Z</time></trkpt><trkpt lat="44.5882872" lon="7.9282992"><ele>442.0</ele><time>2026-04-12T08:20:28.994Z</time></trkpt><trkpt lat="44.5883134" lon="7.9282061"><ele>442.0</ele><time>2026-04-12T08:20:33.995Z</time></trkpt><trkpt lat="44.588348" lon="7.9281238"><ele>442.00000000000006</ele><time>2026-04-12T08:20:37.994Z</time></trkpt><trkpt lat="44.5883704" lon="7.9280298"><ele>442.0</ele><time>2026-04-12T08:20:41.994Z</time></trkpt><trkpt lat="44.5884111" lon="7.9279601"><ele>444.8571428571429</ele><time>2026-04-12T08:20:45.995Z</time></trkpt><trkpt lat="44.5884482" lon="7.9278876"><ele>447.7142857142857</ele><time>2026-04-12T08:20:49.994Z</time></trkpt><trkpt lat="44.5884841" lon="7.9278091"><ele>450.57142857142856</ele><time>2026-04-12T08:20:53.994Z</time></trkpt><trkpt lat="44.5885182" lon="7.9277255"><ele>453.42857142857144</ele><time>2026-04-12T08:20:57.994Z</time></trkpt><trkpt lat="44.5885701" lon="7.9276582"><ele>456.2857142857143</ele><time>2026-04-12T08:21:01.995Z</time></trkpt><trkpt lat="44.5886235" lon="7.9275853"><ele>459.14285714285717</ele><time>2026-04-12T08:21:05.995Z</time></trkpt><trkpt lat="44.5886823" lon="7.9275222"><ele>462.0</ele><time>2026-04-12T08:21:09.994Z</time></trkpt><trkpt lat="44.5887372" lon="7.9274636"><ele>462.0</ele><time>2026-04-12T08:21:14.994Z</time></trkpt><trkpt lat="44.5886802" lon="7.9274129"><ele>462.0</ele><time>2026-04-12T08:21:21.995Z</time></trkpt><trkpt lat="44.5886288" lon="7.9274773"><ele>462.0</ele><time>2026-04-12T08:21:26.994Z</time></trkpt><trkpt lat="44.5885597" lon="7.9274691"><ele>462.0</ele><time>2026-04-12T08:21:31.995Z</time></trkpt><trkpt lat="44.5884953" lon="7.9274902"><ele>462.0</ele><time>2026-04-12T08:21:36.994Z</time></trkpt><trkpt lat="44.5884319" lon="7.927533"><ele>462.0</ele><time>2026-04-12T08:21:42.995Z</time></trkpt><trkpt lat="44.5884183" lon="7.9276303"><ele>462.0</ele><time>2026-04-12T08:21:47.994Z</time></trkpt><trkpt lat="44.5884052" lon="7.9275373"><ele>462.0</ele><time>2026-04-12T08:21:59.995Z</time></trkpt><trkpt lat="44.5884577" lon="7.9275959"><ele>462.0</ele><time>2026-04-12T08:22:14.994Z</time></trkpt><trkpt lat="44.5883906" lon="7.9275436"><ele>462.0</ele><time>2026-04-12T08:24:29.994Z</time></trkpt><trkpt lat="44.5883277" lon="7.9274937"><ele>462.0</ele><time>2026-04-12T08:24:34.994Z</time></trkpt><trkpt lat="44.5882702" lon="7.9274432"><ele>462.0</ele><time>2026-04-12T08:24:39.995Z</time></trkpt><trkpt lat="44.5882021" lon="7.9274712"><ele>462.0</ele><time>2026-04-12T08:24:43.994Z</time></trkpt><trkpt lat="44.5881423" lon="7.9274256"><ele>462.0</ele><time>2026-04-12T08:24:50.994Z</time></trkpt><trkpt lat="44.5881098" lon="7.9272858"><ele>463.1666666666667</ele><time>2026-04-12T08:24:56.995Z</time></trkpt><trkpt lat="44.5880849" lon="7.9271235"><ele>464.33333333333337</ele><time>2026-04-12T08:24:58.994Z</time></trkpt><trkpt lat="44.5880774" lon="7.9270345"><ele>465.5</ele><time>2026-04-12T08:25:13.994Z</time></trkpt><trkpt lat="44.5880374" lon="7.9269583"><ele>466.6666666666667</ele><time>2026-04-12T08:25:25.995Z</time></trkpt><trkpt lat="44.5879505" lon="7.9269249"><ele>467.83333333333337</ele><time>2026-04-12T08:25:29.994Z</time></trkpt><trkpt lat="44.5878773" lon="7.9269292"><ele>469.0</ele><time>2026-04-12T08:25:31.994Z</time></trkpt><trkpt lat="44.5877813" lon="7.9269472"><ele>469.0</ele><time>2026-04-12T08:25:33.994Z</time></trkpt><trkpt lat="44.5877008" lon="7.9269391"><ele>469.0</ele><time>2026-04-12T08:25:35.994Z</time></trkpt><trkpt lat="44.5877338" lon="7.9268259"><ele>469.0</ele><time>2026-04-12T08:25:38.994Z</time></trkpt><trkpt lat="44.5878333" lon="7.9268056"><ele>469.0</ele><time>2026-04-12T08:25:40.995Z</time></trkpt><trkpt lat="44.5879623" lon="7.9267857"><ele>469.0</ele><time>2026-04-12T08:25:42.994Z</time></trkpt><trkpt lat="44.5880377" lon="7.9267749"><ele>469.00000000000006</ele><time>2026-04-12T08:25:43.994Z</time></trkpt><trkpt lat="44.5881175" lon="7.9267572"><ele>469.0</ele><time>2026-04-12T08:25:44.994Z</time></trkpt><trkpt lat="44.5881955" lon="7.9267218"><ele>469.0</ele><time>2026-04-12T08:25:45.994Z</time></trkpt><trkpt lat="44.5882598" lon="7.9266793"><ele>469.0</ele><time>2026-04-12T08:25:46.994Z</time></trkpt><trkpt lat="44.5883345" lon="7.9266226"><ele>469.00000000000006</ele><time>2026-04-12T08:25:47.995Z</time></trkpt><trkpt lat="44.5884133" lon="7.9265574"><ele>469.0</ele><time>2026-04-12T08:25:48.994Z</time></trkpt><trkpt lat="44.5884963" lon="7.926488"><ele>466.4</ele><time>2026-04-12T08:25:49.994Z</time></trkpt><trkpt lat="44.5885818" lon="7.9264163"><ele>463.79999999999995</ele><time>2026-04-12T08:25:50.994Z</time></trkpt><trkpt lat="44.58867" lon="7.9263487"><ele>461.20000000000005</ele><time>2026-04-12T08:25:51.994Z</time></trkpt><trkpt lat="44.5887541" lon="7.9262783"><ele>458.6</ele><time>2026-04-12T08:25:52.994Z</time></trkpt><trkpt lat="44.5888355" lon="7.9262161"><ele>456.0</ele><time>2026-04-12T08:25:53.995Z</time></trkpt><trkpt lat="44.588917" lon="7.9261661"><ele>456.0</ele><time>2026-04-12T08:25:54.994Z</time></trkpt><trkpt lat="44.5889969" lon="7.9261341"><ele>456.0</ele><time>2026-04-12T08:25:55.994Z</time></trkpt><trkpt lat="44.5890793" lon="7.9261178"><ele>456.0</ele><time>2026-04-12T08:25:56.994Z</time></trkpt><trkpt lat="44.5891602" lon="7.9260903"><ele>456.0</ele><time>2026-04-12T08:25:57.995Z</time></trkpt><trkpt lat="44.5892428" lon="7.9260692"><ele>456.0</ele><time>2026-04-12T08:25:58.995Z</time></trkpt><trkpt lat="44.5893264" lon="7.9260529"><ele>456.0</ele><time>2026-04-12T08:25:59.994Z</time></trkpt><trkpt lat="44.5894117" lon="7.9260325"><ele>456.0</ele><time>2026-04-12T08:26:00.994Z</time></trkpt><trkpt lat="44.5894993" lon="7.9260112"><ele>456.0</ele><time>2026-04-12T08:26:01.995Z</time></trkpt><trkpt lat="44.5895904" lon="7.9259917"><ele>456.0</ele><time>2026-04-12T08:26:02.994Z</time></trkpt><trkpt lat="44.5896866" lon="7.9259726"><ele>456.0</ele><time>2026-04-12T08:26:03.994Z</time></trkpt><trkpt lat="44.5897867" lon="7.9259476"><ele>456.0</ele><time>2026-04-12T08:26:04.994Z</time></trkpt><trkpt lat="44.5898842" lon="7.9259214"><ele>454.6</ele><time>2026-04-12T08:26:05.994Z</time></trkpt><trkpt lat="44.5899537" lon="7.9259053"><ele>453.20000000000005</ele><time>2026-04-12T08:26:06.995Z</time></trkpt><trkpt lat="44.5900369" lon="7.9258538"><ele>451.79999999999995</ele><time>2026-04-12T08:26:08.994Z</time></trkpt><trkpt lat="44.5900657" lon="7.9257252"><ele>450.4</ele><time>2026-04-12T08:26:10.994Z</time></trkpt><trkpt lat="44.5900615" lon="7.925537"><ele>449.0</ele><time>2026-04-12T08:26:12.994Z</time></trkpt><trkpt lat="44.5900585" lon="7.9254209"><ele>446.0</ele><time>2026-04-12T08:26:13.995Z</time></trkpt><trkpt lat="44.5900543" lon="7.9252952"><ele>443.0</ele><time>2026-04-12T08:26:14.995Z</time></trkpt><trkpt lat="44.5900593" lon="7.9251588"><ele>440.0</ele><time>2026-04-12T08:26:15.994Z</time></trkpt><trkpt lat="44.5900658" lon="7.9250146"><ele>437.0</ele><time>2026-04-12T08:26:16.994Z</time></trkpt><trkpt lat="44.5900701" lon="7.9248675"><ele>434.0</ele><time>2026-04-12T08:26:17.994Z</time></trkpt><trkpt lat="44.5900698" lon="7.9247186"><ele>432.4</ele><time>2026-04-12T08:26:18.995Z</time></trkpt><trkpt lat="44.5900687" lon="7.9245647"><ele>430.79999999999995</ele><time>2026-04-12T08:26:19.994Z</time></trkpt><trkpt lat="44.5900659" lon="7.9244148"><ele>429.20000000000005</ele><time>2026-04-12T08:26:20.994Z</time></trkpt><trkpt lat="44.5900611" lon="7.924255"><ele>427.6</ele><time>2026-04-12T08:26:21.994Z</time></trkpt><trkpt lat="44.590056" lon="7.9241024"><ele>426.0</ele><time>2026-04-12T08:26:22.995Z</time></trkpt><trkpt lat="44.5900535" lon="7.9239484"><ele>423.5</ele><time>2026-04-12T08:26:23.995Z</time></trkpt><trkpt lat="44.5900575" lon="7.9237862"><ele>421.0</ele><time>2026-04-12T08:26:24.995Z</time></trkpt><trkpt lat="44.5900604" lon="7.9236189"><ele>418.5</ele><time>2026-04-12T08:26:25.994Z</time></trkpt><trkpt lat="44.5900582" lon="7.9234439"><ele>416.0</ele><time>2026-04-12T08:26:26.995Z</time></trkpt><trkpt lat="44.5900558" lon="7.9232741"><ele>413.75</ele><time>2026-04-12T08:26:27.995Z</time></trkpt><trkpt lat="44.5900574" lon="7.9231059"><ele>411.5</ele><time>2026-04-12T08:26:28.994Z</time></trkpt><trkpt lat="44.5900565" lon="7.9229394"><ele>409.25</ele><time>2026-04-12T08:26:29.994Z</time></trkpt><trkpt lat="44.5900583" lon="7.9227804"><ele>407.0</ele><time>2026-04-12T08:26:30.995Z</time></trkpt><trkpt lat="44.5900619" lon="7.9226329"><ele>405.20000000000005</ele><time>2026-04-12T08:26:31.994Z</time></trkpt><trkpt lat="44.5900595" lon="7.922485"><ele>403.4</ele><time>2026-04-12T08:26:32.994Z</time></trkpt><trkpt lat="44.5900857" lon="7.9223524"><ele>401.6</ele><time>2026-04-12T08:26:33.994Z</time></trkpt><trkpt lat="44.5901003" lon="7.9222028"><ele>399.79999999999995</ele><time>2026-04-12T08:26:34.994Z</time></trkpt><trkpt lat="44.5901274" lon="7.9220724"><ele>398.0</ele><time>2026-04-12T08:26:35.994Z</time></trkpt><trkpt lat="44.5901604" lon="7.9219428"><ele>398.0</ele><time>2026-04-12T08:26:36.994Z</time></trkpt><trkpt lat="44.5901818" lon="7.9218056"><ele>398.0</ele><time>2026-04-12T08:26:37.994Z</time></trkpt><trkpt lat="44.5902048" lon="7.9216652"><ele>398.0</ele><time>2026-04-12T08:26:38.995Z</time></trkpt><trkpt lat="44.590227" lon="7.9215231"><ele>398.0</ele><time>2026-04-12T08:26:39.994Z</time></trkpt><trkpt lat="44.5902425" lon="7.9213838"><ele>398.0</ele><time>2026-04-12T08:26:40.994Z</time></trkpt><trkpt lat="44.5902602" lon="7.9212418"><ele>397.2</ele><time>2026-04-12T08:26:41.995Z</time></trkpt><trkpt lat="44.5902739" lon="7.9210957"><ele>396.4</ele><time>2026-04-12T08:26:42.995Z</time></trkpt><trkpt lat="44.5902872" lon="7.9209601"><ele>395.59999999999997</ele><time>2026-04-12T08:26:43.994Z</time></trkpt><trkpt lat="44.5903031" lon="7.9208293"><ele>394.79999999999995</ele><time>2026-04-12T08:26:44.995Z</time></trkpt><trkpt lat="44.5903247" lon="7.920684"><ele>394.0</ele><time>2026-04-12T08:26:45.994Z</time></trkpt><trkpt lat="44.5903528" lon="7.9205546"><ele>394.0</ele><time>2026-04-12T08:26:46.995Z</time></trkpt><trkpt lat="44.590379" lon="7.9204356"><ele>394.0</ele><time>2026-04-12T08:26:47.996Z</time></trkpt><trkpt lat="44.5904131" lon="7.9203162"><ele>394.0</ele><time>2026-04-12T08:26:48.995Z</time></trkpt><trkpt lat="44.5904478" lon="7.9201869"><ele>394.0</ele><time>2026-04-12T08:26:49.995Z</time></trkpt><trkpt lat="44.5904821" lon="7.920063"><ele>394.0</ele><time>2026-04-12T08:26:50.994Z</time></trkpt><trkpt lat="44.5905136" lon="7.9199594"><ele>392.33333333333337</ele><time>2026-04-12T08:26:51.994Z</time></trkpt><trkpt lat="44.5905428" lon="7.9198537"><ele>390.6666666666667</ele><time>2026-04-12T08:26:52.995Z</time></trkpt><trkpt lat="44.5905751" lon="7.9197521"><ele>389.0</ele><time>2026-04-12T08:26:53.995Z</time></trkpt><trkpt lat="44.5906099" lon="7.9196484"><ele>387.33333333333337</ele><time>2026-04-12T08:26:54.994Z</time></trkpt><trkpt lat="44.5906429" lon="7.9195499"><ele>385.6666666666667</ele><time>2026-04-12T08:26:55.994Z</time></trkpt><trkpt lat="44.590679" lon="7.9194459"><ele>384.0</ele><time>2026-04-12T08:26:56.994Z</time></trkpt><trkpt lat="44.5907217" lon="7.9193578"><ele>384.0</ele><time>2026-04-12T08:26:57.994Z</time></trkpt><trkpt lat="44.5907701" lon="7.9192717"><ele>384.0</ele><time>2026-04-12T08:26:58.994Z</time></trkpt><trkpt lat="44.5908216" lon="7.919192"><ele>384.0</ele><time>2026-04-12T08:26:59.995Z</time></trkpt><trkpt lat="44.5908793" lon="7.919117"><ele>384.0</ele><time>2026-04-12T08:27:00.994Z</time></trkpt><trkpt lat="44.59094" lon="7.9190512"><ele>384.0</ele><time>2026-04-12T08:27:01.996Z</time></trkpt><trkpt lat="44.5909968" lon="7.918983"><ele>384.0</ele><time>2026-04-12T08:27:02.994Z</time></trkpt><trkpt lat="44.5910493" lon="7.9189173"><ele>383.8333333333333</ele><time>2026-04-12T08:27:03.995Z</time></trkpt><trkpt lat="44.5910982" lon="7.9188477"><ele>383.6666666666667</ele><time>2026-04-12T08:27:04.994Z</time></trkpt><trkpt lat="44.5911473" lon="7.9187824"><ele>383.5</ele><time>2026-04-12T08:27:05.994Z</time></trkpt><trkpt lat="44.5911934" lon="7.9187194"><ele>383.33333333333337</ele><time>2026-04-12T08:27:06.995Z</time></trkpt><trkpt lat="44.5912893" lon="7.9186139"><ele>383.1666666666667</ele><time>2026-04-12T08:27:08.994Z</time></trkpt><trkpt lat="44.5913419" lon="7.9185651"><ele>383.0</ele><time>2026-04-12T08:27:09.995Z</time></trkpt><trkpt lat="44.5914322" lon="7.9184372"><ele>380.2</ele><time>2026-04-12T08:27:11.995Z</time></trkpt><trkpt lat="44.5915229" lon="7.918323"><ele>377.4</ele><time>2026-04-12T08:27:13.995Z</time></trkpt><trkpt lat="44.5915782" lon="7.9182685"><ele>374.59999999999997</ele><time>2026-04-12T08:27:14.994Z</time></trkpt><trkpt lat="44.5916556" lon="7.9181576"><ele>371.79999999999995</ele><time>2026-04-12T08:27:16.994Z</time></trkpt><trkpt lat="44.5917432" lon="7.9180499"><ele>369.0</ele><time>2026-04-12T08:27:18.994Z</time></trkpt><trkpt lat="44.5918302" lon="7.9179347"><ele>369.0</ele><time>2026-04-12T08:27:20.995Z</time></trkpt><trkpt lat="44.5919177" lon="7.9177957"><ele>369.0</ele><time>2026-04-12T08:27:22.995Z</time></trkpt><trkpt lat="44.5919632" lon="7.9177232"><ele>369.0</ele><time>2026-04-12T08:27:23.995Z</time></trkpt><trkpt lat="44.5920074" lon="7.9176495"><ele>369.0</ele><time>2026-04-12T08:27:24.994Z</time></trkpt><trkpt lat="44.5920486" lon="7.91757"><ele>369.0</ele><time>2026-04-12T08:27:25.994Z</time></trkpt><trkpt lat="44.5920887" lon="7.9174801"><ele>369.0</ele><time>2026-04-12T08:27:26.995Z</time></trkpt><trkpt lat="44.5921244" lon="7.9173914"><ele>368.1666666666667</ele><time>2026-04-12T08:27:27.995Z</time></trkpt><trkpt lat="44.5921546" lon="7.9173068"><ele>367.3333333333333</ele><time>2026-04-12T08:27:28.994Z</time></trkpt><trkpt lat="44.5921947" lon="7.9172172"><ele>366.5</ele><time>2026-04-12T08:27:29.994Z</time></trkpt><trkpt lat="44.5922359" lon="7.9171236"><ele>365.66666666666663</ele><time>2026-04-12T08:27:30.995Z</time></trkpt><trkpt lat="44.592266" lon="7.9170236"><ele>364.8333333333333</ele><time>2026-04-12T08:27:31.993Z</time></trkpt><trkpt lat="44.5922997" lon="7.9169199"><ele>364.0</ele><time>2026-04-12T08:27:32.994Z</time></trkpt><trkpt lat="44.592333" lon="7.9168114"><ele>362.8333333333333</ele><time>2026-04-12T08:27:33.994Z</time></trkpt><trkpt lat="44.5923675" lon="7.9166999"><ele>361.66666666666663</ele><time>2026-04-12T08:27:34.995Z</time></trkpt><trkpt lat="44.592404" lon="7.916592"><ele>360.5</ele><time>2026-04-12T08:27:35.994Z</time></trkpt><trkpt lat="44.5924402" lon="7.9164901"><ele>359.3333333333333</ele><time>2026-04-12T08:27:36.995Z</time></trkpt><trkpt lat="44.5924765" lon="7.9163978"><ele>358.1666666666667</ele><time>2026-04-12T08:27:37.995Z</time></trkpt><trkpt lat="44.5925059" lon="7.9162951"><ele>357.0</ele><time>2026-04-12T08:27:38.995Z</time></trkpt><trkpt lat="44.5925306" lon="7.9161916"><ele>357.0</ele><time>2026-04-12T08:27:39.994Z</time></trkpt><trkpt lat="44.592562" lon="7.9160901"><ele>357.0</ele><time>2026-04-12T08:27:40.995Z</time></trkpt><trkpt lat="44.5925952" lon="7.915993"><ele>357.0</ele><time>2026-04-12T08:27:41.994Z</time></trkpt><trkpt lat="44.5926293" lon="7.9158954"><ele>357.0</ele><time>2026-04-12T08:27:42.995Z</time></trkpt><trkpt lat="44.5926601" lon="7.915797"><ele>357.0</ele><time>2026-04-12T08:27:43.995Z</time></trkpt><trkpt lat="44.5926934" lon="7.9157032"><ele>357.0</ele><time>2026-04-12T08:27:44.995Z</time></trkpt><trkpt lat="44.5927292" lon="7.9156122"><ele>356.2857142857143</ele><time>2026-04-12T08:27:45.994Z</time></trkpt><trkpt lat="44.5927708" lon="7.915522"><ele>355.57142857142856</ele><time>2026-04-12T08:27:46.994Z</time></trkpt><trkpt lat="44.592812" lon="7.9154412"><ele>354.8571428571429</ele><time>2026-04-12T08:27:47.995Z</time></trkpt><trkpt lat="44.5928505" lon="7.9153608"><ele>354.1428571428571</ele><time>2026-04-12T08:27:48.995Z</time></trkpt><trkpt lat="44.5928903" lon="7.9152817"><ele>353.42857142857144</ele><time>2026-04-12T08:27:49.994Z</time></trkpt><trkpt lat="44.5929309" lon="7.915201"><ele>352.7142857142857</ele><time>2026-04-12T08:27:50.994Z</time></trkpt><trkpt lat="44.5929667" lon="7.9151173"><ele>352.0</ele><time>2026-04-12T08:27:51.994Z</time></trkpt><trkpt lat="44.59301" lon="7.9150248"><ele>351.5</ele><time>2026-04-12T08:27:52.994Z</time></trkpt><trkpt lat="44.5930558" lon="7.9149336"><ele>351.0</ele><time>2026-04-12T08:27:53.994Z</time></trkpt><trkpt lat="44.5931036" lon="7.9148399"><ele>350.5</ele><time>2026-04-12T08:27:54.994Z</time></trkpt><trkpt lat="44.59316" lon="7.914758"><ele>350.0</ele><time>2026-04-12T08:27:55.994Z</time></trkpt><trkpt lat="44.5932225" lon="7.914679"><ele>349.5</ele><time>2026-04-12T08:27:56.995Z</time></trkpt><trkpt lat="44.5932796" lon="7.9146014"><ele>349.0</ele><time>2026-04-12T08:27:57.994Z</time></trkpt><trkpt lat="44.5933367" lon="7.9145308"><ele>349.0</ele><time>2026-04-12T08:27:58.995Z</time></trkpt><trkpt lat="44.5934026" lon="7.9144412"><ele>349.0</ele><time>2026-04-12T08:27:59.994Z</time></trkpt><trkpt lat="44.5934667" lon="7.9143579"><ele>349.0</ele><time>2026-04-12T08:28:00.995Z</time></trkpt><trkpt lat="44.5935379" lon="7.9142719"><ele>349.0</ele><time>2026-04-12T08:28:01.995Z</time></trkpt><trkpt lat="44.5936101" lon="7.9141801"><ele>349.0</ele><time>2026-04-12T08:28:02.995Z</time></trkpt><trkpt lat="44.5936812" lon="7.9140859"><ele>347.0</ele><time>2026-04-12T08:28:03.994Z</time></trkpt><trkpt lat="44.5937544" lon="7.913995"><ele>345.0</ele><time>2026-04-12T08:28:04.994Z</time></trkpt><trkpt lat="44.5938211" lon="7.9139129"><ele>343.0</ele><time>2026-04-12T08:28:05.995Z</time></trkpt><trkpt lat="44.5938878" lon="7.9138265"><ele>341.0</ele><time>2026-04-12T08:28:06.994Z</time></trkpt><trkpt lat="44.5939547" lon="7.9137431"><ele>339.0</ele><time>2026-04-12T08:28:07.994Z</time></trkpt><trkpt lat="44.5940256" lon="7.9136581"><ele>339.0</ele><time>2026-04-12T08:28:08.994Z</time></trkpt><trkpt lat="44.5940981" lon="7.9135717"><ele>339.0</ele><time>2026-04-12T08:28:09.994Z</time></trkpt><trkpt lat="44.5941716" lon="7.9134838"><ele>339.0</ele><time>2026-04-12T08:28:10.994Z</time></trkpt><trkpt lat="44.5942477" lon="7.9133947"><ele>339.0</ele><time>2026-04-12T08:28:11.995Z</time></trkpt><trkpt lat="44.5943193" lon="7.9133063"><ele>339.0</ele><time>2026-04-12T08:28:12.995Z</time></trkpt><trkpt lat="44.5943853" lon="7.9132133"><ele>339.4</ele><time>2026-04-12T08:28:13.994Z</time></trkpt><trkpt lat="44.5944471" lon="7.9131184"><ele>339.79999999999995</ele><time>2026-04-12T08:28:14.994Z</time></trkpt><trkpt lat="44.5945037" lon="7.9130181"><ele>340.20000000000005</ele><time>2026-04-12T08:28:15.995Z</time></trkpt><trkpt lat="44.5945507" lon="7.9129139"><ele>340.6</ele><time>2026-04-12T08:28:16.994Z</time></trkpt><trkpt lat="44.5945983" lon="7.912809"><ele>341.0</ele><time>2026-04-12T08:28:17.994Z</time></trkpt><trkpt lat="44.5946452" lon="7.9126989"><ele>339.33333333333337</ele><time>2026-04-12T08:28:18.995Z</time></trkpt><trkpt lat="44.5946908" lon="7.9125844"><ele>337.6666666666667</ele><time>2026-04-12T08:28:19.995Z</time></trkpt><trkpt lat="44.5947311" lon="7.9124752"><ele>336.0</ele><time>2026-04-12T08:28:20.994Z</time></trkpt><trkpt lat="44.5947646" lon="7.9123729"><ele>334.3333333333333</ele><time>2026-04-12T08:28:21.994Z</time></trkpt><trkpt lat="44.594795" lon="7.9122719"><ele>332.66666666666663</ele><time>2026-04-12T08:28:22.995Z</time></trkpt><trkpt lat="44.5948286" lon="7.9121708"><ele>331.0</ele><time>2026-04-12T08:28:23.995Z</time></trkpt><trkpt lat="44.5948623" lon="7.9120656"><ele>331.0</ele><time>2026-04-12T08:28:24.995Z</time></trkpt><trkpt lat="44.5948929" lon="7.911957"><ele>331.0</ele><time>2026-04-12T08:28:25.995Z</time></trkpt><trkpt lat="44.5949221" lon="7.9118403"><ele>331.0</ele><time>2026-04-12T08:28:26.994Z</time></trkpt><trkpt lat="44.5949537" lon="7.9117239"><ele>331.0</ele><time>2026-04-12T08:28:27.994Z</time></trkpt><trkpt lat="44.5949859" lon="7.9116037"><ele>331.0</ele><time>2026-04-12T08:28:28.994Z</time></trkpt><trkpt lat="44.5950196" lon="7.9114863"><ele>331.0</ele><time>2026-04-12T08:28:29.995Z</time></trkpt><trkpt lat="44.5950492" lon="7.911372"><ele>330.66666666666663</ele><time>2026-04-12T08:28:30.995Z</time></trkpt><trkpt lat="44.5950838" lon="7.9112541"><ele>330.3333333333333</ele><time>2026-04-12T08:28:31.995Z</time></trkpt><trkpt lat="44.5951144" lon="7.9111384"><ele>330.0</ele><time>2026-04-12T08:28:32.995Z</time></trkpt><trkpt lat="44.5951521" lon="7.9110198"><ele>329.6666666666667</ele><time>2026-04-12T08:28:33.995Z</time></trkpt><trkpt lat="44.5951916" lon="7.9109102"><ele>329.33333333333337</ele><time>2026-04-12T08:28:34.994Z</time></trkpt><trkpt lat="44.595235" lon="7.9108067"><ele>329.0</ele><time>2026-04-12T08:28:35.994Z</time></trkpt><trkpt lat="44.5952864" lon="7.9107126"><ele>325.8</ele><time>2026-04-12T08:28:36.995Z</time></trkpt><trkpt lat="44.5953398" lon="7.9106158"><ele>322.59999999999997</ele><time>2026-04-12T08:28:37.994Z</time></trkpt><trkpt lat="44.5953972" lon="7.9105261"><ele>319.4</ele><time>2026-04-12T08:28:38.994Z</time></trkpt><trkpt lat="44.595459" lon="7.9104359"><ele>316.2</ele><time>2026-04-12T08:28:39.994Z</time></trkpt><trkpt lat="44.5955263" lon="7.9103456"><ele>313.0</ele><time>2026-04-12T08:28:40.994Z</time></trkpt><trkpt lat="44.5955936" lon="7.910246"><ele>313.0</ele><time>2026-04-12T08:28:41.994Z</time></trkpt><trkpt lat="44.5956586" lon="7.9101566"><ele>313.0</ele><time>2026-04-12T08:28:42.994Z</time></trkpt><trkpt lat="44.5957142" lon="7.910063"><ele>313.0</ele><time>2026-04-12T08:28:43.994Z</time></trkpt><trkpt lat="44.5957752" lon="7.909971"><ele>313.0</ele><time>2026-04-12T08:28:44.994Z</time></trkpt><trkpt lat="44.595825" lon="7.9098732"><ele>313.0</ele><time>2026-04-12T08:28:45.994Z</time></trkpt><trkpt lat="44.5958642" lon="7.9097758"><ele>313.0</ele><time>2026-04-12T08:28:46.995Z</time></trkpt><trkpt lat="44.595897" lon="7.9096775"><ele>312.2</ele><time>2026-04-12T08:28:47.994Z</time></trkpt><trkpt lat="44.5959195" lon="7.9095688"><ele>311.4</ele><time>2026-04-12T08:28:48.995Z</time></trkpt><trkpt lat="44.5959275" lon="7.9094427"><ele>310.59999999999997</ele><time>2026-04-12T08:28:49.994Z</time></trkpt><trkpt lat="44.595935" lon="7.9093103"><ele>309.8</ele><time>2026-04-12T08:28:50.994Z</time></trkpt><trkpt lat="44.5959345" lon="7.9091655"><ele>309.0</ele><time>2026-04-12T08:28:51.994Z</time></trkpt><trkpt lat="44.5959283" lon="7.9090194"><ele>308.25</ele><time>2026-04-12T08:28:52.994Z</time></trkpt><trkpt lat="44.5959158" lon="7.9088565"><ele>307.5</ele><time>2026-04-12T08:28:53.995Z</time></trkpt><trkpt lat="44.5959033" lon="7.9086885"><ele>306.75</ele><time>2026-04-12T08:28:54.995Z</time></trkpt><trkpt lat="44.5958952" lon="7.908514"><ele>306.0</ele><time>2026-04-12T08:28:55.996Z</time></trkpt><trkpt lat="44.5958874" lon="7.9083346"><ele>304.5</ele><time>2026-04-12T08:28:56.996Z</time></trkpt><trkpt lat="44.5958776" lon="7.9081559"><ele>303.0</ele><time>2026-04-12T08:28:57.994Z</time></trkpt><trkpt lat="44.5958638" lon="7.9079735"><ele>301.5</ele><time>2026-04-12T08:28:58.994Z</time></trkpt><trkpt lat="44.5958487" lon="7.9077919"><ele>300.0</ele><time>2026-04-12T08:28:59.994Z</time></trkpt><trkpt lat="44.5958332" lon="7.9076058"><ele>299.0</ele><time>2026-04-12T08:29:00.994Z</time></trkpt><trkpt lat="44.5958189" lon="7.9074187"><ele>298.0</ele><time>2026-04-12T08:29:01.995Z</time></trkpt><trkpt lat="44.5958069" lon="7.9072317"><ele>297.0</ele><time>2026-04-12T08:29:02.995Z</time></trkpt><trkpt lat="44.5957839" lon="7.9070421"><ele>296.0</ele><time>2026-04-12T08:29:03.996Z</time></trkpt><trkpt lat="44.5957566" lon="7.9068544"><ele>294.5</ele><time>2026-04-12T08:29:04.996Z</time></trkpt><trkpt lat="44.5957198" lon="7.9066673"><ele>293.0</ele><time>2026-04-12T08:29:05.996Z</time></trkpt><trkpt lat="44.5956696" lon="7.9064873"><ele>291.5</ele><time>2026-04-12T08:29:06.995Z</time></trkpt><trkpt lat="44.5956099" lon="7.9063135"><ele>290.0</ele><time>2026-04-12T08:29:07.994Z</time></trkpt><trkpt lat="44.5955525" lon="7.9061449"><ele>290.0</ele><time>2026-04-12T08:29:08.995Z</time></trkpt><trkpt lat="44.5954938" lon="7.9059843"><ele>290.0</ele><time>2026-04-12T08:29:09.995Z</time></trkpt><trkpt lat="44.59544" lon="7.9058211"><ele>290.0</ele><time>2026-04-12T08:29:10.994Z</time></trkpt><trkpt lat="44.5953922" lon="7.9056457"><ele>290.0</ele><time>2026-04-12T08:29:11.995Z</time></trkpt><trkpt lat="44.5953506" lon="7.9054616"><ele>286.75</ele><time>2026-04-12T08:29:12.994Z</time></trkpt><trkpt lat="44.5953155" lon="7.9052693"><ele>283.5</ele><time>2026-04-12T08:29:13.994Z</time></trkpt><trkpt lat="44.5952733" lon="7.9050769"><ele>280.25</ele><time>2026-04-12T08:29:14.994Z</time></trkpt><trkpt lat="44.5952309" lon="7.9048753"><ele>277.0</ele><time>2026-04-12T08:29:15.995Z</time></trkpt><trkpt lat="44.5951879" lon="7.9046683"><ele>275.5</ele><time>2026-04-12T08:29:16.994Z</time></trkpt><trkpt lat="44.5951487" lon="7.904469"><ele>274.0</ele><time>2026-04-12T08:29:17.994Z</time></trkpt><trkpt lat="44.5951113" lon="7.9042731"><ele>272.5</ele><time>2026-04-12T08:29:18.995Z</time></trkpt><trkpt lat="44.5950714" lon="7.9040905"><ele>271.0</ele><time>2026-04-12T08:29:19.995Z</time></trkpt><trkpt lat="44.5950382" lon="7.9039123"><ele>269.25</ele><time>2026-04-12T08:29:20.995Z</time></trkpt><trkpt lat="44.5949985" lon="7.9037359"><ele>267.5</ele><time>2026-04-12T08:29:21.996Z</time></trkpt><trkpt lat="44.5949683" lon="7.9035649"><ele>265.75</ele><time>2026-04-12T08:29:22.995Z</time></trkpt><trkpt lat="44.59494" lon="7.9033933"><ele>264.0</ele><time>2026-04-12T08:29:23.995Z</time></trkpt><trkpt lat="44.5949128" lon="7.9032222"><ele>263.0</ele><time>2026-04-12T08:29:24.995Z</time></trkpt><trkpt lat="44.5948888" lon="7.9030502"><ele>262.0</ele><time>2026-04-12T08:29:25.994Z</time></trkpt><trkpt lat="44.5948711" lon="7.9028814"><ele>261.0</ele><time>2026-04-12T08:29:26.995Z</time></trkpt><trkpt lat="44.5948542" lon="7.9027163"><ele>260.0</ele><time>2026-04-12T08:29:27.994Z</time></trkpt><trkpt lat="44.5948481" lon="7.9025618"><ele>259.5</ele><time>2026-04-12T08:29:28.995Z</time></trkpt><trkpt lat="44.5948449" lon="7.9024141"><ele>259.0</ele><time>2026-04-12T08:29:29.994Z</time></trkpt><trkpt lat="44.5948371" lon="7.9022816"><ele>258.5</ele><time>2026-04-12T08:29:30.995Z</time></trkpt><trkpt lat="44.5948226" lon="7.9021584"><ele>258.0</ele><time>2026-04-12T08:29:31.994Z</time></trkpt><trkpt lat="44.5947992" lon="7.9020605"><ele>257.5</ele><time>2026-04-12T08:29:32.994Z</time></trkpt><trkpt lat="44.5947516" lon="7.9019704"><ele>257.0</ele><time>2026-04-12T08:29:33.995Z</time></trkpt><trkpt lat="44.5946872" lon="7.9018953"><ele>257.0</ele><time>2026-04-12T08:29:34.994Z</time></trkpt><trkpt lat="44.594605" lon="7.9018332"><ele>257.0</ele><time>2026-04-12T08:29:35.994Z</time></trkpt><trkpt lat="44.594512" lon="7.9017652"><ele>257.0</ele><time>2026-04-12T08:29:36.995Z</time></trkpt><trkpt lat="44.5944097" lon="7.9016977"><ele>257.0</ele><time>2026-04-12T08:29:37.995Z</time></trkpt><trkpt lat="44.5943008" lon="7.9016345"><ele>257.0</ele><time>2026-04-12T08:29:38.996Z</time></trkpt><trkpt lat="44.5941899" lon="7.9015689"><ele>251.75</ele><time>2026-04-12T08:29:39.995Z</time></trkpt><trkpt lat="44.5940691" lon="7.9015016"><ele>246.5</ele><time>2026-04-12T08:29:40.995Z</time></trkpt><trkpt lat="44.5939539" lon="7.9014304"><ele>241.25</ele><time>2026-04-12T08:29:41.995Z</time></trkpt><trkpt lat="44.593834" lon="7.9013386"><ele>236.0</ele><time>2026-04-12T08:29:42.994Z</time></trkpt><trkpt lat="44.5937207" lon="7.9012401"><ele>234.25</ele><time>2026-04-12T08:29:43.995Z</time></trkpt><trkpt lat="44.5936153" lon="7.9011314"><ele>232.5</ele><time>2026-04-12T08:29:44.995Z</time></trkpt><trkpt lat="44.5935149" lon="7.9010082"><ele>230.75</ele><time>2026-04-12T08:29:45.994Z</time></trkpt><trkpt lat="44.593409" lon="7.9008866"><ele>229.0</ele><time>2026-04-12T08:29:46.995Z</time></trkpt><trkpt lat="44.5933101" lon="7.9007679"><ele>229.0</ele><time>2026-04-12T08:29:47.995Z</time></trkpt><trkpt lat="44.5932123" lon="7.9006461"><ele>229.0</ele><time>2026-04-12T08:29:48.995Z</time></trkpt><trkpt lat="44.593115" lon="7.9005294"><ele>229.0</ele><time>2026-04-12T08:29:49.995Z</time></trkpt><trkpt lat="44.593024" lon="7.9004154"><ele>229.0</ele><time>2026-04-12T08:29:50.995Z</time></trkpt><trkpt lat="44.5929319" lon="7.900307"><ele>229.0</ele><time>2026-04-12T08:29:51.995Z</time></trkpt><trkpt lat="44.5928421" lon="7.9002057"><ele>228.99999999999997</ele><time>2026-04-12T08:29:52.994Z</time></trkpt><trkpt lat="44.5927491" lon="7.9001102"><ele>228.99999999999997</ele><time>2026-04-12T08:29:53.994Z</time></trkpt><trkpt lat="44.5926559" lon="7.9000289"><ele>229.0</ele><time>2026-04-12T08:29:54.994Z</time></trkpt><trkpt lat="44.5925631" lon="7.8999486"><ele>229.0</ele><time>2026-04-12T08:29:55.995Z</time></trkpt><trkpt lat="44.5924766" lon="7.8998744"><ele>228.0</ele><time>2026-04-12T08:29:56.994Z</time></trkpt><trkpt lat="44.5923916" lon="7.8998012"><ele>226.99999999999997</ele><time>2026-04-12T08:29:57.995Z</time></trkpt><trkpt lat="44.5923168" lon="7.8997266"><ele>225.99999999999997</ele><time>2026-04-12T08:29:58.994Z</time></trkpt><trkpt lat="44.5922467" lon="7.8996282"><ele>225.0</ele><time>2026-04-12T08:29:59.994Z</time></trkpt><trkpt lat="44.5921853" lon="7.8995314"><ele>224.0</ele><time>2026-04-12T08:30:00.995Z</time></trkpt><trkpt lat="44.5921229" lon="7.8994301"><ele>224.00000000000003</ele><time>2026-04-12T08:30:01.994Z</time></trkpt><trkpt lat="44.5920679" lon="7.899322"><ele>224.0</ele><time>2026-04-12T08:30:02.994Z</time></trkpt><trkpt lat="44.5920132" lon="7.899219"><ele>224.0</ele><time>2026-04-12T08:30:03.994Z</time></trkpt><trkpt lat="44.5919655" lon="7.8991167"><ele>224.0</ele><time>2026-04-12T08:30:04.995Z</time></trkpt><trkpt lat="44.5919226" lon="7.899027"><ele>224.00000000000003</ele><time>2026-04-12T08:30:05.996Z</time></trkpt><trkpt lat="44.5918912" lon="7.8989476"><ele>224.0</ele><time>2026-04-12T08:30:06.995Z</time></trkpt><trkpt lat="44.5918974" lon="7.8988133"><ele>224.39999999999998</ele><time>2026-04-12T08:30:08.994Z</time></trkpt><trkpt lat="44.5919685" lon="7.8987113"><ele>224.79999999999998</ele><time>2026-04-12T08:30:10.995Z</time></trkpt><trkpt lat="44.5920664" lon="7.8986429"><ele>225.20000000000002</ele><time>2026-04-12T08:30:12.995Z</time></trkpt><trkpt lat="44.5921649" lon="7.8985706"><ele>225.60000000000002</ele><time>2026-04-12T08:30:14.994Z</time></trkpt><trkpt lat="44.5922653" lon="7.8984993"><ele>226.0</ele><time>2026-04-12T08:30:16.994Z</time></trkpt><trkpt lat="44.5923646" lon="7.8984241"><ele>225.25</ele><time>2026-04-12T08:30:18.994Z</time></trkpt><trkpt lat="44.5924645" lon="7.8983465"><ele>224.5</ele><time>2026-04-12T08:30:20.995Z</time></trkpt><trkpt lat="44.5925638" lon="7.8982779"><ele>223.75</ele><time>2026-04-12T08:30:22.994Z</time></trkpt><trkpt lat="44.5926693" lon="7.8982074"><ele>223.0</ele><time>2026-04-12T08:30:24.994Z</time></trkpt><trkpt lat="44.5927667" lon="7.898138"><ele>223.0</ele><time>2026-04-12T08:30:26.995Z</time></trkpt><trkpt lat="44.592868" lon="7.8980628"><ele>223.0</ele><time>2026-04-12T08:30:28.994Z</time></trkpt><trkpt lat="44.5929739" lon="7.8979881"><ele>223.0</ele><time>2026-04-12T08:30:30.995Z</time></trkpt><trkpt lat="44.593067" lon="7.8979337"><ele>223.0</ele><time>2026-04-12T08:30:32.996Z</time></trkpt><trkpt lat="44.5931559" lon="7.8978846"><ele>223.0</ele><time>2026-04-12T08:30:34.995Z</time></trkpt><trkpt lat="44.5932441" lon="7.8978322"><ele>223.0</ele><time>2026-04-12T08:30:36.994Z</time></trkpt><trkpt lat="44.5933384" lon="7.8977796"><ele>223.0</ele><time>2026-04-12T08:30:38.994Z</time></trkpt><trkpt lat="44.5934307" lon="7.8977209"><ele>223.0</ele><time>2026-04-12T08:30:40.996Z</time></trkpt><trkpt lat="44.5935281" lon="7.8976632"><ele>223.0</ele><time>2026-04-12T08:30:42.996Z</time></trkpt><trkpt lat="44.5936277" lon="7.8976054"><ele>223.0</ele><time>2026-04-12T08:30:44.994Z</time></trkpt><trkpt lat="44.5937265" lon="7.8975445"><ele>222.8</ele><time>2026-04-12T08:30:46.994Z</time></trkpt><trkpt lat="44.5938251" lon="7.8974791"><ele>222.60000000000002</ele><time>2026-04-12T08:30:48.995Z</time></trkpt><trkpt lat="44.5939176" lon="7.8973972"><ele>222.39999999999998</ele><time>2026-04-12T08:30:50.994Z</time></trkpt><trkpt lat="44.5940053" lon="7.8973198"><ele>222.2</ele><time>2026-04-12T08:30:52.994Z</time></trkpt><trkpt lat="44.594093" lon="7.8972346"><ele>222.0</ele><time>2026-04-12T08:30:54.996Z</time></trkpt><trkpt lat="44.5941771" lon="7.8971428"><ele>222.0</ele><time>2026-04-12T08:30:56.995Z</time></trkpt><trkpt lat="44.5942605" lon="7.8970317"><ele>222.0</ele><time>2026-04-12T08:30:58.994Z</time></trkpt><trkpt lat="44.5943484" lon="7.8969305"><ele>222.0</ele><time>2026-04-12T08:31:00.994Z</time></trkpt><trkpt lat="44.5944383" lon="7.8968304"><ele>222.0</ele><time>2026-04-12T08:31:02.994Z</time></trkpt><trkpt lat="44.5945244" lon="7.8967275"><ele>222.2</ele><time>2026-04-12T08:31:04.996Z</time></trkpt><trkpt lat="44.5946047" lon="7.8966212"><ele>222.39999999999998</ele><time>2026-04-12T08:31:06.995Z</time></trkpt><trkpt lat="44.5946906" lon="7.8965175"><ele>222.60000000000002</ele><time>2026-04-12T08:31:08.996Z</time></trkpt><trkpt lat="44.5947682" lon="7.8964073"><ele>222.8</ele><time>2026-04-12T08:31:10.994Z</time></trkpt><trkpt lat="44.5948482" lon="7.8962977"><ele>223.0</ele><time>2026-04-12T08:31:12.994Z</time></trkpt><trkpt lat="44.5949287" lon="7.8962004"><ele>223.0</ele><time>2026-04-12T08:31:14.995Z</time></trkpt><trkpt lat="44.595004" lon="7.8961012"><ele>223.0</ele><time>2026-04-12T08:31:16.996Z</time></trkpt><trkpt lat="44.5950737" lon="7.8960015"><ele>223.0</ele><time>2026-04-12T08:31:18.995Z</time></trkpt><trkpt lat="44.5951486" lon="7.8959086"><ele>223.0</ele><time>2026-04-12T08:31:20.996Z</time></trkpt><trkpt lat="44.5952183" lon="7.8958288"><ele>223.0</ele><time>2026-04-12T08:31:22.996Z</time></trkpt><trkpt lat="44.5952833" lon="7.8957511"><ele>224.49999999999997</ele><time>2026-04-12T08:31:24.994Z</time></trkpt><trkpt lat="44.5953455" lon="7.8956759"><ele>226.0</ele><time>2026-04-12T08:31:26.994Z</time></trkpt><trkpt lat="44.5953997" lon="7.8956049"><ele>227.5</ele><time>2026-04-12T08:31:28.995Z</time></trkpt><trkpt lat="44.5954501" lon="7.8955383"><ele>229.0</ele><time>2026-04-12T08:31:30.995Z</time></trkpt><trkpt lat="44.595505" lon="7.8954795"><ele>230.49999999999997</ele><time>2026-04-12T08:31:32.994Z</time></trkpt><trkpt lat="44.5955765" lon="7.8953994"><ele>232.0</ele><time>2026-04-12T08:31:35.994Z</time></trkpt><trkpt lat="44.5956413" lon="7.8953206"><ele>231.99999999999997</ele><time>2026-04-12T08:31:38.995Z</time></trkpt><trkpt lat="44.5957008" lon="7.8952384"><ele>232.0</ele><time>2026-04-12T08:31:41.994Z</time></trkpt><trkpt lat="44.5957593" lon="7.8951568"><ele>232.0</ele><time>2026-04-12T08:31:44.994Z</time></trkpt><trkpt lat="44.5958246" lon="7.895082"><ele>232.0</ele><time>2026-04-12T08:31:47.995Z</time></trkpt><trkpt lat="44.5958925" lon="7.8950097"><ele>231.99999999999997</ele><time>2026-04-12T08:31:50.995Z</time></trkpt><trkpt lat="44.5959643" lon="7.8949366"><ele>232.0</ele><time>2026-04-12T08:31:53.995Z</time></trkpt><trkpt lat="44.5960408" lon="7.8948588"><ele>231.71428571428575</ele><time>2026-04-12T08:31:56.995Z</time></trkpt><trkpt lat="44.5960947" lon="7.8948113"><ele>231.42857142857144</ele><time>2026-04-12T08:31:58.995Z</time></trkpt><trkpt lat="44.5961502" lon="7.894755"><ele>231.14285714285714</ele><time>2026-04-12T08:32:00.995Z</time></trkpt><trkpt lat="44.5962074" lon="7.8946985"><ele>230.85714285714286</ele><time>2026-04-12T08:32:02.995Z</time></trkpt><trkpt lat="44.5962662" lon="7.8946363"><ele>230.57142857142856</ele><time>2026-04-12T08:32:04.996Z</time></trkpt><trkpt lat="44.5963292" lon="7.8945721"><ele>230.28571428571425</ele><time>2026-04-12T08:32:06.995Z</time></trkpt><trkpt lat="44.5963908" lon="7.8945071"><ele>229.99999999999997</ele><time>2026-04-12T08:32:08.995Z</time></trkpt><trkpt lat="44.5964562" lon="7.8944391"><ele>230.00000000000003</ele><time>2026-04-12T08:32:10.996Z</time></trkpt><trkpt lat="44.5965209" lon="7.8943674"><ele>230.0</ele><time>2026-04-12T08:32:12.995Z</time></trkpt><trkpt lat="44.5965842" lon="7.8942953"><ele>230.0</ele><time>2026-04-12T08:32:14.995Z</time></trkpt><trkpt lat="44.5966484" lon="7.8942268"><ele>230.0</ele><time>2026-04-12T08:32:16.995Z</time></trkpt><trkpt lat="44.5967136" lon="7.8941574"><ele>230.00000000000003</ele><time>2026-04-12T08:32:18.996Z</time></trkpt><trkpt lat="44.5967797" lon="7.894076"><ele>230.0</ele><time>2026-04-12T08:32:20.995Z</time></trkpt><trkpt lat="44.5968469" lon="7.8940012"><ele>229.6</ele><time>2026-04-12T08:32:22.995Z</time></trkpt><trkpt lat="44.5969168" lon="7.893922"><ele>229.2</ele><time>2026-04-12T08:32:24.995Z</time></trkpt><trkpt lat="44.5969957" lon="7.8938393"><ele>228.8</ele><time>2026-04-12T08:32:26.995Z</time></trkpt><trkpt lat="44.5970747" lon="7.8937528"><ele>228.4</ele><time>2026-04-12T08:32:28.995Z</time></trkpt><trkpt lat="44.5971545" lon="7.8936638"><ele>228.0</ele><time>2026-04-12T08:32:30.995Z</time></trkpt><trkpt lat="44.5972369" lon="7.8935731"><ele>227.8</ele><time>2026-04-12T08:32:32.995Z</time></trkpt><trkpt lat="44.5973144" lon="7.8934648"><ele>227.60000000000002</ele><time>2026-04-12T08:32:34.995Z</time></trkpt><trkpt lat="44.5973878" lon="7.8933505"><ele>227.39999999999998</ele><time>2026-04-12T08:32:36.995Z</time></trkpt><trkpt lat="44.5974598" lon="7.8932378"><ele>227.2</ele><time>2026-04-12T08:32:38.995Z</time></trkpt><trkpt lat="44.5975285" lon="7.8931262"><ele>227.0</ele><time>2026-04-12T08:32:40.995Z</time></trkpt><trkpt lat="44.597595" lon="7.8930129"><ele>227.0</ele><time>2026-04-12T08:32:42.995Z</time></trkpt><trkpt lat="44.5976623" lon="7.8928986"><ele>227.0</ele><time>2026-04-12T08:32:44.995Z</time></trkpt><trkpt lat="44.5977284" lon="7.892792"><ele>227.0</ele><time>2026-04-12T08:32:46.995Z</time></trkpt><trkpt lat="44.5977897" lon="7.8926883"><ele>227.0</ele><time>2026-04-12T08:32:48.996Z</time></trkpt><trkpt lat="44.5978584" lon="7.8925783"><ele>227.0</ele><time>2026-04-12T08:32:50.995Z</time></trkpt><trkpt lat="44.5979351" lon="7.8924828"><ele>227.00000000000003</ele><time>2026-04-12T08:32:52.996Z</time></trkpt><trkpt lat="44.5980286" lon="7.8924027"><ele>227.0</ele><time>2026-04-12T08:32:54.995Z</time></trkpt><trkpt lat="44.5980797" lon="7.8923471"><ele>227.0</ele><time>2026-04-12T08:32:55.995Z</time></trkpt><trkpt lat="44.5981406" lon="7.8922541"><ele>227.0</ele><time>2026-04-12T08:32:57.995Z</time></trkpt><trkpt lat="44.5981306" lon="7.8921488"><ele>227.00000000000003</ele><time>2026-04-12T08:32:59.995Z</time></trkpt><trkpt lat="44.5980642" lon="7.8920675"><ele>227.0</ele><time>2026-04-12T08:33:01.995Z</time></trkpt><trkpt lat="44.5979714" lon="7.8920172"><ele>227.0</ele><time>2026-04-12T08:33:03.995Z</time></trkpt><trkpt lat="44.5978772" lon="7.8919634"><ele>227.0</ele><time>2026-04-12T08:33:05.995Z</time></trkpt><trkpt lat="44.5977812" lon="7.8919201"><ele>227.0</ele><time>2026-04-12T08:33:07.995Z</time></trkpt><trkpt lat="44.5976806" lon="7.8918835"><ele>227.0</ele><time>2026-04-12T08:33:09.995Z</time></trkpt><trkpt lat="44.597576" lon="7.891857"><ele>227.0</ele><time>2026-04-12T08:33:11.996Z</time></trkpt><trkpt lat="44.5974776" lon="7.8917864"><ele>225.8</ele><time>2026-04-12T08:33:13.995Z</time></trkpt><trkpt lat="44.5974622" lon="7.8916411"><ele>224.6</ele><time>2026-04-12T08:33:15.995Z</time></trkpt><trkpt lat="44.59756" lon="7.8915532"><ele>223.40000000000003</ele><time>2026-04-12T08:33:17.995Z</time></trkpt><trkpt lat="44.5976765" lon="7.8914936"><ele>222.20000000000002</ele><time>2026-04-12T08:33:19.995Z</time></trkpt><trkpt lat="44.5977353" lon="7.891462"><ele>221.0</ele><time>2026-04-12T08:33:20.995Z</time></trkpt><trkpt lat="44.5977931" lon="7.8914226"><ele>221.2857142857143</ele><time>2026-04-12T08:33:21.996Z</time></trkpt><trkpt lat="44.5978482" lon="7.8913754"><ele>221.57142857142858</ele><time>2026-04-12T08:33:22.995Z</time></trkpt><trkpt lat="44.597902" lon="7.8913212"><ele>221.85714285714286</ele><time>2026-04-12T08:33:23.995Z</time></trkpt><trkpt lat="44.5979532" lon="7.891255"><ele>222.14285714285717</ele><time>2026-04-12T08:33:24.996Z</time></trkpt><trkpt lat="44.5980018" lon="7.8911814"><ele>222.42857142857142</ele><time>2026-04-12T08:33:25.996Z</time></trkpt><trkpt lat="44.5980432" lon="7.8910934"><ele>222.71428571428572</ele><time>2026-04-12T08:33:26.995Z</time></trkpt><trkpt lat="44.5980806" lon="7.8910008"><ele>223.0</ele><time>2026-04-12T08:33:27.996Z</time></trkpt><trkpt lat="44.598116" lon="7.8909022"><ele>222.33333333333331</ele><time>2026-04-12T08:33:28.995Z</time></trkpt><trkpt lat="44.5981484" lon="7.8908005"><ele>221.66666666666666</ele><time>2026-04-12T08:33:29.995Z</time></trkpt><trkpt lat="44.5981772" lon="7.8906934"><ele>221.0</ele><time>2026-04-12T08:33:30.995Z</time></trkpt><trkpt lat="44.598203" lon="7.8905812"><ele>220.33333333333331</ele><time>2026-04-12T08:33:31.995Z</time></trkpt><trkpt lat="44.5982269" lon="7.8904686"><ele>219.66666666666666</ele><time>2026-04-12T08:33:32.995Z</time></trkpt><trkpt lat="44.5982518" lon="7.8903528"><ele>219.0</ele><time>2026-04-12T08:33:33.995Z</time></trkpt><trkpt lat="44.5982744" lon="7.8902332"><ele>219.0</ele><time>2026-04-12T08:33:34.996Z</time></trkpt><trkpt lat="44.5982942" lon="7.8901124"><ele>218.99999999999997</ele><time>2026-04-12T08:33:35.995Z</time></trkpt><trkpt lat="44.5983101" lon="7.8899863"><ele>218.99999999999997</ele><time>2026-04-12T08:33:36.995Z</time></trkpt><trkpt lat="44.5983271" lon="7.8898595"><ele>219.0</ele><time>2026-04-12T08:33:37.996Z</time></trkpt><trkpt lat="44.598339" lon="7.8897318"><ele>219.0</ele><time>2026-04-12T08:33:38.995Z</time></trkpt><trkpt lat="44.5983481" lon="7.8896055"><ele>218.83333333333334</ele><time>2026-04-12T08:33:39.995Z</time></trkpt><trkpt lat="44.5983555" lon="7.8894813"><ele>218.66666666666669</ele><time>2026-04-12T08:33:40.996Z</time></trkpt><trkpt lat="44.59836" lon="7.8893577"><ele>218.5</ele><time>2026-04-12T08:33:41.995Z</time></trkpt><trkpt lat="44.5983612" lon="7.8892351"><ele>218.33333333333334</ele><time>2026-04-12T08:33:42.995Z</time></trkpt><trkpt lat="44.5983625" lon="7.8891157"><ele>218.16666666666669</ele><time>2026-04-12T08:33:43.995Z</time></trkpt><trkpt lat="44.5983611" lon="7.8889972"><ele>218.0</ele><time>2026-04-12T08:33:44.995Z</time></trkpt><trkpt lat="44.5983574" lon="7.8888809"><ele>217.50000000000003</ele><time>2026-04-12T08:33:45.995Z</time></trkpt><trkpt lat="44.5983531" lon="7.888768"><ele>217.0</ele><time>2026-04-12T08:33:46.995Z</time></trkpt><trkpt lat="44.5983473" lon="7.888655"><ele>216.5</ele><time>2026-04-12T08:33:47.995Z</time></trkpt><trkpt lat="44.5983376" lon="7.8885431"><ele>216.0</ele><time>2026-04-12T08:33:48.994Z</time></trkpt><trkpt lat="44.5983295" lon="7.8884337"><ele>215.50000000000003</ele><time>2026-04-12T08:33:49.994Z</time></trkpt><trkpt lat="44.5983183" lon="7.8883228"><ele>215.0</ele><time>2026-04-12T08:33:50.995Z</time></trkpt><trkpt lat="44.5983037" lon="7.8882183"><ele>214.57142857142856</ele><time>2026-04-12T08:33:51.994Z</time></trkpt><trkpt lat="44.5982895" lon="7.8881168"><ele>214.14285714285717</ele><time>2026-04-12T08:33:52.995Z</time></trkpt><trkpt lat="44.598274" lon="7.8880132"><ele>213.71428571428572</ele><time>2026-04-12T08:33:53.995Z</time></trkpt><trkpt lat="44.5982579" lon="7.8879122"><ele>213.28571428571428</ele><time>2026-04-12T08:33:54.995Z</time></trkpt><trkpt lat="44.5982364" lon="7.887816"><ele>212.85714285714283</ele><time>2026-04-12T08:33:55.995Z</time></trkpt><trkpt lat="44.5982174" lon="7.8877204"><ele>212.42857142857144</ele><time>2026-04-12T08:33:56.994Z</time></trkpt><trkpt lat="44.5981974" lon="7.8876227"><ele>212.0</ele><time>2026-04-12T08:33:57.995Z</time></trkpt><trkpt lat="44.5981764" lon="7.8875244"><ele>211.57142857142858</ele><time>2026-04-12T08:33:58.994Z</time></trkpt><trkpt lat="44.598157" lon="7.8874275"><ele>211.14285714285714</ele><time>2026-04-12T08:33:59.995Z</time></trkpt><trkpt lat="44.5981385" lon="7.8873305"><ele>210.71428571428572</ele><time>2026-04-12T08:34:00.994Z</time></trkpt><trkpt lat="44.5981197" lon="7.8872343"><ele>210.28571428571428</ele><time>2026-04-12T08:34:01.995Z</time></trkpt><trkpt lat="44.5981013" lon="7.8871417"><ele>209.85714285714283</ele><time>2026-04-12T08:34:02.994Z</time></trkpt><trkpt lat="44.5980825" lon="7.8870489"><ele>209.42857142857142</ele><time>2026-04-12T08:34:03.994Z</time></trkpt><trkpt lat="44.5980633" lon="7.8869533"><ele>209.0</ele><time>2026-04-12T08:34:04.994Z</time></trkpt><trkpt lat="44.5980465" lon="7.8868596"><ele>209.0</ele><time>2026-04-12T08:34:05.995Z</time></trkpt><trkpt lat="44.5980289" lon="7.8867668"><ele>209.0</ele><time>2026-04-12T08:34:06.994Z</time></trkpt><trkpt lat="44.5980096" lon="7.8866757"><ele>209.0</ele><time>2026-04-12T08:34:07.995Z</time></trkpt><trkpt lat="44.5979937" lon="7.8865846"><ele>209.0</ele><time>2026-04-12T08:34:08.995Z</time></trkpt><trkpt lat="44.5979741" lon="7.8864952"><ele>209.0</ele><time>2026-04-12T08:34:09.994Z</time></trkpt><trkpt lat="44.5979565" lon="7.8864057"><ele>209.0</ele><time>2026-04-12T08:34:10.995Z</time></trkpt><trkpt lat="44.5979372" lon="7.8863184"><ele>209.0</ele><time>2026-04-12T08:34:11.995Z</time></trkpt><trkpt lat="44.5979211" lon="7.8862262"><ele>209.16666666666669</ele><time>2026-04-12T08:34:12.994Z</time></trkpt><trkpt lat="44.5979056" lon="7.8861334"><ele>209.33333333333334</ele><time>2026-04-12T08:34:13.996Z</time></trkpt><trkpt lat="44.5978756" lon="7.8859591"><ele>209.5</ele><time>2026-04-12T08:34:15.994Z</time></trkpt><trkpt lat="44.597862" lon="7.8858693"><ele>209.66666666666669</ele><time>2026-04-12T08:34:16.995Z</time></trkpt><trkpt lat="44.5978495" lon="7.8857825"><ele>209.83333333333334</ele><time>2026-04-12T08:34:17.995Z</time></trkpt><trkpt lat="44.5978366" lon="7.8856869"><ele>210.0</ele><time>2026-04-12T08:34:18.994Z</time></trkpt><trkpt lat="44.5978219" lon="7.8855958"><ele>210.0</ele><time>2026-04-12T08:34:19.995Z</time></trkpt><trkpt lat="44.5978052" lon="7.8855045"><ele>210.0</ele><time>2026-04-12T08:34:20.995Z</time></trkpt><trkpt lat="44.59779" lon="7.8854156"><ele>210.0</ele><time>2026-04-12T08:34:21.994Z</time></trkpt><trkpt lat="44.5977793" lon="7.8853223"><ele>210.0</ele><time>2026-04-12T08:34:22.994Z</time></trkpt><trkpt lat="44.5977699" lon="7.8852336"><ele>210.0</ele><time>2026-04-12T08:34:23.995Z</time></trkpt><trkpt lat="44.5977597" lon="7.8851437"><ele>210.0</ele><time>2026-04-12T08:34:24.995Z</time></trkpt><trkpt lat="44.5977489" lon="7.8850499"><ele>210.0</ele><time>2026-04-12T08:34:25.995Z</time></trkpt><trkpt lat="44.597743" lon="7.8849552"><ele>210.0</ele><time>2026-04-12T08:34:26.995Z</time></trkpt><trkpt lat="44.5977414" lon="7.884857"><ele>210.0</ele><time>2026-04-12T08:34:27.995Z</time></trkpt><trkpt lat="44.5977364" lon="7.8847677"><ele>210.0</ele><time>2026-04-12T08:34:28.994Z</time></trkpt><trkpt lat="44.5977302" lon="7.8846733"><ele>210.0</ele><time>2026-04-12T08:34:29.995Z</time></trkpt><trkpt lat="44.5977287" lon="7.884581"><ele>210.0</ele><time>2026-04-12T08:34:30.994Z</time></trkpt><trkpt lat="44.5977285" lon="7.8844853"><ele>210.0</ele><time>2026-04-12T08:34:31.995Z</time></trkpt><trkpt lat="44.5977314" lon="7.884395"><ele>210.0</ele><time>2026-04-12T08:34:32.995Z</time></trkpt><trkpt lat="44.5977352" lon="7.8843033"><ele>210.2</ele><time>2026-04-12T08:34:33.995Z</time></trkpt><trkpt lat="44.5977391" lon="7.8842067"><ele>210.4</ele><time>2026-04-12T08:34:34.994Z</time></trkpt><trkpt lat="44.5977402" lon="7.8841149"><ele>210.60000000000002</ele><time>2026-04-12T08:34:35.996Z</time></trkpt><trkpt lat="44.5977438" lon="7.8839438"><ele>210.8</ele><time>2026-04-12T08:34:37.995Z</time></trkpt><trkpt lat="44.5977309" lon="7.8837903"><ele>211.0</ele><time>2026-04-12T08:34:39.995Z</time></trkpt><trkpt lat="44.5976562" lon="7.8837149"><ele>211.0</ele><time>2026-04-12T08:34:41.995Z</time></trkpt><trkpt lat="44.5975697" lon="7.8837595"><ele>211.0</ele><time>2026-04-12T08:34:43.994Z</time></trkpt><trkpt lat="44.5975261" lon="7.8838927"><ele>211.0</ele><time>2026-04-12T08:34:45.994Z</time></trkpt><trkpt lat="44.597504" lon="7.8840587"><ele>211.0</ele><time>2026-04-12T08:34:47.995Z</time></trkpt><trkpt lat="44.5974961" lon="7.8841564"><ele>211.0</ele><time>2026-04-12T08:34:48.995Z</time></trkpt><trkpt lat="44.5974917" lon="7.8842534"><ele>210.83333333333331</ele><time>2026-04-12T08:34:49.994Z</time></trkpt><trkpt lat="44.5974872" lon="7.8843619"><ele>210.66666666666666</ele><time>2026-04-12T08:34:50.994Z</time></trkpt><trkpt lat="44.5974864" lon="7.8844628"><ele>210.5</ele><time>2026-04-12T08:34:51.996Z</time></trkpt><trkpt lat="44.597488" lon="7.8845741"><ele>210.33333333333331</ele><time>2026-04-12T08:34:52.995Z</time></trkpt><trkpt lat="44.5974868" lon="7.8846886"><ele>210.16666666666666</ele><time>2026-04-12T08:34:53.994Z</time></trkpt><trkpt lat="44.5974772" lon="7.8848028"><ele>210.0</ele><time>2026-04-12T08:34:54.995Z</time></trkpt><trkpt lat="44.5974595" lon="7.8849135"><ele>210.0</ele><time>2026-04-12T08:34:55.994Z</time></trkpt><trkpt lat="44.5974388" lon="7.8850199"><ele>210.0</ele><time>2026-04-12T08:34:56.994Z</time></trkpt><trkpt lat="44.5974113" lon="7.8851252"><ele>210.0</ele><time>2026-04-12T08:34:57.995Z</time></trkpt><trkpt lat="44.5973777" lon="7.8852189"><ele>210.0</ele><time>2026-04-12T08:34:58.995Z</time></trkpt><trkpt lat="44.5973361" lon="7.8853029"><ele>210.0</ele><time>2026-04-12T08:34:59.994Z</time></trkpt><trkpt lat="44.5972912" lon="7.8853803"><ele>210.0</ele><time>2026-04-12T08:35:00.994Z</time></trkpt><trkpt lat="44.5972485" lon="7.8854578"><ele>210.0</ele><time>2026-04-12T08:35:01.996Z</time></trkpt><trkpt lat="44.5972083" lon="7.8855301"><ele>210.0</ele><time>2026-04-12T08:35:02.995Z</time></trkpt><trkpt lat="44.5971368" lon="7.8856668"><ele>210.0</ele><time>2026-04-12T08:35:04.995Z</time></trkpt><trkpt lat="44.5970669" lon="7.8857881"><ele>210.0</ele><time>2026-04-12T08:35:06.996Z</time></trkpt><trkpt lat="44.5969907" lon="7.8858977"><ele>210.0</ele><time>2026-04-12T08:35:08.994Z</time></trkpt><trkpt lat="44.596921" lon="7.8860174"><ele>209.8</ele><time>2026-04-12T08:35:10.994Z</time></trkpt><trkpt lat="44.596841" lon="7.8861198"><ele>209.6</ele><time>2026-04-12T08:35:12.994Z</time></trkpt><trkpt lat="44.5967576" lon="7.8862199"><ele>209.39999999999998</ele><time>2026-04-12T08:35:14.996Z</time></trkpt><trkpt lat="44.5966804" lon="7.8863236"><ele>209.2</ele><time>2026-04-12T08:35:16.995Z</time></trkpt><trkpt lat="44.5966066" lon="7.8864249"><ele>209.0</ele><time>2026-04-12T08:35:18.994Z</time></trkpt><trkpt lat="44.5965376" lon="7.8865085"><ele>209.0</ele><time>2026-04-12T08:35:20.995Z</time></trkpt><trkpt lat="44.59646" lon="7.8865966"><ele>209.0</ele><time>2026-04-12T08:35:22.994Z</time></trkpt><trkpt lat="44.5963733" lon="7.88667"><ele>209.0</ele><time>2026-04-12T08:35:24.994Z</time></trkpt><trkpt lat="44.5962743" lon="7.8867058"><ele>209.0</ele><time>2026-04-12T08:35:26.995Z</time></trkpt><trkpt lat="44.5961693" lon="7.8867116"><ele>209.0</ele><time>2026-04-12T08:35:28.996Z</time></trkpt><trkpt lat="44.5960581" lon="7.8867188"><ele>209.2</ele><time>2026-04-12T08:35:30.996Z</time></trkpt><trkpt lat="44.5959493" lon="7.8867329"><ele>209.39999999999998</ele><time>2026-04-12T08:35:32.995Z</time></trkpt><trkpt lat="44.5958349" lon="7.8867408"><ele>209.6</ele><time>2026-04-12T08:35:34.995Z</time></trkpt><trkpt lat="44.5957118" lon="7.8867667"><ele>209.8</ele><time>2026-04-12T08:35:36.995Z</time></trkpt><trkpt lat="44.5956485" lon="7.886777"><ele>210.0</ele><time>2026-04-12T08:35:37.995Z</time></trkpt><trkpt lat="44.5955837" lon="7.8867928"><ele>210.0</ele><time>2026-04-12T08:35:38.994Z</time></trkpt><trkpt lat="44.5955199" lon="7.8868119"><ele>210.0</ele><time>2026-04-12T08:35:39.995Z</time></trkpt><trkpt lat="44.5954566" lon="7.8868369"><ele>210.0</ele><time>2026-04-12T08:35:40.995Z</time></trkpt><trkpt lat="44.5953942" lon="7.8868659"><ele>210.0</ele><time>2026-04-12T08:35:41.994Z</time></trkpt><trkpt lat="44.5952762" lon="7.886913"><ele>210.0</ele><time>2026-04-12T08:35:43.996Z</time></trkpt><trkpt lat="44.5952122" lon="7.8869287"><ele>210.0</ele><time>2026-04-12T08:35:44.994Z</time></trkpt><trkpt lat="44.595091" lon="7.8869533"><ele>210.0</ele><time>2026-04-12T08:35:46.995Z</time></trkpt><trkpt lat="44.5949719" lon="7.8869648"><ele>210.0</ele><time>2026-04-12T08:35:48.995Z</time></trkpt><trkpt lat="44.5949084" lon="7.8869617"><ele>210.0</ele><time>2026-04-12T08:35:49.995Z</time></trkpt><trkpt lat="44.5947888" lon="7.8869634"><ele>210.0</ele><time>2026-04-12T08:35:51.996Z</time></trkpt><trkpt lat="44.5946691" lon="7.8869593"><ele>210.0</ele><time>2026-04-12T08:35:53.995Z</time></trkpt><trkpt lat="44.5945492" lon="7.8869384"><ele>210.25</ele><time>2026-04-12T08:35:55.995Z</time></trkpt><trkpt lat="44.5944309" lon="7.886909"><ele>210.5</ele><time>2026-04-12T08:35:57.994Z</time></trkpt><trkpt lat="44.5943143" lon="7.8868803"><ele>210.75</ele><time>2026-04-12T08:35:59.994Z</time></trkpt><trkpt lat="44.5941947" lon="7.8868533"><ele>211.0</ele><time>2026-04-12T08:36:01.996Z</time></trkpt><trkpt lat="44.5940757" lon="7.8868188"><ele>211.0</ele><time>2026-04-12T08:36:03.995Z</time></trkpt><trkpt lat="44.5940122" lon="7.8868021"><ele>211.0</ele><time>2026-04-12T08:36:04.994Z</time></trkpt><trkpt lat="44.5938896" lon="7.8867723"><ele>211.0</ele><time>2026-04-12T08:36:06.995Z</time></trkpt><trkpt lat="44.5938271" lon="7.8867593"><ele>211.0</ele><time>2026-04-12T08:36:07.995Z</time></trkpt><trkpt lat="44.5937081" lon="7.8867293"><ele>211.0</ele><time>2026-04-12T08:36:09.995Z</time></trkpt><trkpt lat="44.5935878" lon="7.8866971"><ele>211.0</ele><time>2026-04-12T08:36:11.996Z</time></trkpt><trkpt lat="44.5934675" lon="7.8866662"><ele>211.0</ele><time>2026-04-12T08:36:13.994Z</time></trkpt><trkpt lat="44.5933514" lon="7.8866339"><ele>211.0</ele><time>2026-04-12T08:36:15.995Z</time></trkpt><trkpt lat="44.593231" lon="7.8866011"><ele>211.0</ele><time>2026-04-12T08:36:17.995Z</time></trkpt><trkpt lat="44.5931111" lon="7.8865593"><ele>211.0</ele><time>2026-04-12T08:36:19.995Z</time></trkpt><trkpt lat="44.5929929" lon="7.8865072"><ele>211.0</ele><time>2026-04-12T08:36:21.994Z</time></trkpt><trkpt lat="44.592934" lon="7.8864756"><ele>211.0</ele><time>2026-04-12T08:36:22.994Z</time></trkpt><trkpt lat="44.5928268" lon="7.8863954"><ele>211.0</ele><time>2026-04-12T08:36:24.995Z</time></trkpt><trkpt lat="44.5927344" lon="7.8862859"><ele>211.0</ele><time>2026-04-12T08:36:26.994Z</time></trkpt><trkpt lat="44.5926614" lon="7.8861473"><ele>211.0</ele><time>2026-04-12T08:36:28.995Z</time></trkpt><trkpt lat="44.5926216" lon="7.8859958"><ele>211.0</ele><time>2026-04-12T08:36:30.995Z</time></trkpt><trkpt lat="44.592596" lon="7.8858639"><ele>211.0</ele><time>2026-04-12T08:36:32.994Z</time></trkpt><trkpt lat="44.5925726" lon="7.8857358"><ele>211.0</ele><time>2026-04-12T08:36:34.995Z</time></trkpt><trkpt lat="44.5925542" lon="7.8856178"><ele>211.0</ele><time>2026-04-12T08:36:36.994Z</time></trkpt><trkpt lat="44.5925406" lon="7.8855053"><ele>211.57142857142858</ele><time>2026-04-12T08:36:38.996Z</time></trkpt><trkpt lat="44.5925272" lon="7.885402"><ele>212.14285714285717</ele><time>2026-04-12T08:36:40.994Z</time></trkpt><trkpt lat="44.5925136" lon="7.8853033"><ele>212.71428571428572</ele><time>2026-04-12T08:36:42.996Z</time></trkpt><trkpt lat="44.5925038" lon="7.8852053"><ele>213.28571428571428</ele><time>2026-04-12T08:36:44.994Z</time></trkpt><trkpt lat="44.5924878" lon="7.8851055"><ele>213.85714285714286</ele><time>2026-04-12T08:36:46.995Z</time></trkpt><trkpt lat="44.5924744" lon="7.8850093"><ele>214.42857142857142</ele><time>2026-04-12T08:36:48.994Z</time></trkpt><trkpt lat="44.592461" lon="7.8849115"><ele>215.0</ele><time>2026-04-12T08:36:50.995Z</time></trkpt><trkpt lat="44.5924474" lon="7.8848183"><ele>215.28571428571428</ele><time>2026-04-12T08:36:52.996Z</time></trkpt><trkpt lat="44.5924368" lon="7.8847293"><ele>215.57142857142858</ele><time>2026-04-12T08:36:54.996Z</time></trkpt><trkpt lat="44.5924235" lon="7.8846106"><ele>215.85714285714286</ele><time>2026-04-12T08:36:57.995Z</time></trkpt><trkpt lat="44.5924098" lon="7.8845161"><ele>216.14285714285714</ele><time>2026-04-12T08:37:00.995Z</time></trkpt><trkpt lat="44.5923998" lon="7.8844269"><ele>216.42857142857144</ele><time>2026-04-12T08:37:03.996Z</time></trkpt><trkpt lat="44.5923803" lon="7.8843369"><ele>216.71428571428572</ele><time>2026-04-12T08:37:06.995Z</time></trkpt><trkpt lat="44.5923711" lon="7.8842471"><ele>217.0</ele><time>2026-04-12T08:37:09.995Z</time></trkpt><trkpt lat="44.5923567" lon="7.8841558"><ele>217.99999999999997</ele><time>2026-04-12T08:37:12.995Z</time></trkpt><trkpt lat="44.5923395" lon="7.884043"><ele>219.0</ele><time>2026-04-12T08:37:16.995Z</time></trkpt><trkpt lat="44.5923222" lon="7.8839326"><ele>220.0</ele><time>2026-04-12T08:37:20.995Z</time></trkpt><trkpt lat="44.5923001" lon="7.8838284"><ele>221.0</ele><time>2026-04-12T08:37:24.995Z</time></trkpt><trkpt lat="44.5922858" lon="7.8837203"><ele>221.99999999999997</ele><time>2026-04-12T08:37:28.995Z</time></trkpt><trkpt lat="44.5922838" lon="7.883622"><ele>223.0</ele><time>2026-04-12T08:37:32.995Z</time></trkpt><trkpt lat="44.5922999" lon="7.8835331"><ele>223.0</ele><time>2026-04-12T08:37:35.995Z</time></trkpt><trkpt lat="44.5923161" lon="7.8834358"><ele>223.0</ele><time>2026-04-12T08:37:38.995Z</time></trkpt><trkpt lat="44.5923347" lon="7.8833386"><ele>223.0</ele><time>2026-04-12T08:37:41.995Z</time></trkpt><trkpt lat="44.5923491" lon="7.8832453"><ele>223.0</ele><time>2026-04-12T08:37:44.995Z</time></trkpt><trkpt lat="44.5923655" lon="7.883157"><ele>223.0</ele><time>2026-04-12T08:37:47.996Z</time></trkpt><trkpt lat="44.5923771" lon="7.8830669"><ele>223.0</ele><time>2026-04-12T08:37:50.995Z</time></trkpt><trkpt lat="44.592398" lon="7.8829537"><ele>223.0</ele><time>2026-04-12T08:37:54.995Z</time></trkpt><trkpt lat="44.5924231" lon="7.8828433"><ele>223.28571428571428</ele><time>2026-04-12T08:37:58.996Z</time></trkpt><trkpt lat="44.5924509" lon="7.882734"><ele>223.57142857142856</ele><time>2026-04-12T08:38:02.995Z</time></trkpt><trkpt lat="44.5924718" lon="7.8826504"><ele>223.8571428571429</ele><time>2026-04-12T08:38:05.995Z</time></trkpt><trkpt lat="44.5924954" lon="7.882549"><ele>224.14285714285717</ele><time>2026-04-12T08:38:09.996Z</time></trkpt><trkpt lat="44.5925181" lon="7.8824524"><ele>224.42857142857144</ele><time>2026-04-12T08:38:13.995Z</time></trkpt><trkpt lat="44.5925393" lon="7.8823536"><ele>224.71428571428575</ele><time>2026-04-12T08:38:17.995Z</time></trkpt><trkpt lat="44.5925689" lon="7.8822495"><ele>225.00000000000003</ele><time>2026-04-12T08:38:21.996Z</time></trkpt><trkpt lat="44.5925948" lon="7.8821477"><ele>225.33333333333334</ele><time>2026-04-12T08:38:25.994Z</time></trkpt><trkpt lat="44.5926252" lon="7.8820292"><ele>225.66666666666669</ele><time>2026-04-12T08:38:29.995Z</time></trkpt><trkpt lat="44.5926452" lon="7.8819181"><ele>226.0</ele><time>2026-04-12T08:38:33.995Z</time></trkpt><trkpt lat="44.5926724" lon="7.8818132"><ele>226.33333333333334</ele><time>2026-04-12T08:38:37.995Z</time></trkpt><trkpt lat="44.5927008" lon="7.8817052"><ele>226.66666666666669</ele><time>2026-04-12T08:38:41.995Z</time></trkpt><trkpt lat="44.5927269" lon="7.8816194"><ele>227.0</ele><time>2026-04-12T08:38:44.995Z</time></trkpt><trkpt lat="44.5927559" lon="7.8815148"><ele>227.57142857142858</ele><time>2026-04-12T08:38:48.994Z</time></trkpt><trkpt lat="44.5927846" lon="7.8814226"><ele>228.14285714285717</ele><time>2026-04-12T08:38:52.995Z</time></trkpt><trkpt lat="44.592812" lon="7.8813386"><ele>228.71428571428572</ele><time>2026-04-12T08:38:56.995Z</time></trkpt><trkpt lat="44.5928577" lon="7.8812662"><ele>229.28571428571428</ele><time>2026-04-12T08:39:00.995Z</time></trkpt><trkpt lat="44.5929265" lon="7.881212"><ele>229.85714285714286</ele><time>2026-04-12T08:39:04.995Z</time></trkpt><trkpt lat="44.5929888" lon="7.8811893"><ele>230.42857142857144</ele><time>2026-04-12T08:39:07.994Z</time></trkpt><trkpt lat="44.5930711" lon="7.8811754"><ele>231.0</ele><time>2026-04-12T08:39:11.995Z</time></trkpt><trkpt lat="44.5931355" lon="7.8811628"><ele>231.57142857142856</ele><time>2026-04-12T08:39:14.994Z</time></trkpt><trkpt lat="44.5932111" lon="7.8811549"><ele>232.14285714285714</ele><time>2026-04-12T08:39:18.995Z</time></trkpt><trkpt lat="44.5932931" lon="7.8811496"><ele>232.71428571428572</ele><time>2026-04-12T08:39:22.996Z</time></trkpt><trkpt lat="44.5933717" lon="7.881153"><ele>233.28571428571428</ele><time>2026-04-12T08:39:26.995Z</time></trkpt><trkpt lat="44.5934432" lon="7.8811504"><ele>233.85714285714283</ele><time>2026-04-12T08:39:30.995Z</time></trkpt><trkpt lat="44.593511" lon="7.8811447"><ele>234.42857142857142</ele><time>2026-04-12T08:39:34.994Z</time></trkpt><trkpt lat="44.5935834" lon="7.8811333"><ele>235.0</ele><time>2026-04-12T08:39:38.995Z</time></trkpt><trkpt lat="44.5936456" lon="7.8811015"><ele>234.28571428571428</ele><time>2026-04-12T08:39:42.995Z</time></trkpt><trkpt lat="44.593703" lon="7.8810505"><ele>233.57142857142856</ele><time>2026-04-12T08:39:45.994Z</time></trkpt><trkpt lat="44.593759" lon="7.8809645"><ele>232.85714285714283</ele><time>2026-04-12T08:39:49.994Z</time></trkpt><trkpt lat="44.5937816" lon="7.8808738"><ele>232.1428571428571</ele><time>2026-04-12T08:39:52.995Z</time></trkpt><trkpt lat="44.593788" lon="7.8807742"><ele>231.42857142857142</ele><time>2026-04-12T08:39:55.995Z</time></trkpt><trkpt lat="44.5937653" lon="7.8806771"><ele>230.71428571428567</ele><time>2026-04-12T08:39:58.995Z</time></trkpt><trkpt lat="44.593723" lon="7.8805815"><ele>229.99999999999997</ele><time>2026-04-12T08:40:01.994Z</time></trkpt><trkpt lat="44.5936733" lon="7.8805228"><ele>232.66666666666669</ele><time>2026-04-12T08:40:04.994Z</time></trkpt><trkpt lat="44.5936381" lon="7.8804263"><ele>235.33333333333334</ele><time>2026-04-12T08:40:08.994Z</time></trkpt><trkpt lat="44.5936001" lon="7.8803281"><ele>238.0</ele><time>2026-04-12T08:40:12.996Z</time></trkpt><trkpt lat="44.5935675" lon="7.8802344"><ele>240.66666666666669</ele><time>2026-04-12T08:40:16.994Z</time></trkpt><trkpt lat="44.5935281" lon="7.880134"><ele>243.33333333333334</ele><time>2026-04-12T08:40:20.996Z</time></trkpt><trkpt lat="44.5934971" lon="7.8800412"><ele>246.0</ele><time>2026-04-12T08:40:24.995Z</time></trkpt><trkpt lat="44.5934615" lon="7.8799406"><ele>247.16666666666666</ele><time>2026-04-12T08:40:28.995Z</time></trkpt><trkpt lat="44.593427" lon="7.879842"><ele>248.33333333333331</ele><time>2026-04-12T08:40:32.995Z</time></trkpt><trkpt lat="44.5934036" lon="7.8797359"><ele>249.5</ele><time>2026-04-12T08:40:36.994Z</time></trkpt><trkpt lat="44.5933856" lon="7.8796311"><ele>250.66666666666666</ele><time>2026-04-12T08:40:40.995Z</time></trkpt><trkpt lat="44.5933694" lon="7.8795236"><ele>251.83333333333331</ele><time>2026-04-12T08:40:44.995Z</time></trkpt><trkpt lat="44.5933672" lon="7.8794146"><ele>253.0</ele><time>2026-04-12T08:40:48.995Z</time></trkpt><trkpt lat="44.59338" lon="7.8793135"><ele>253.83333333333331</ele><time>2026-04-12T08:40:52.995Z</time></trkpt><trkpt lat="44.5933884" lon="7.8792105"><ele>254.66666666666666</ele><time>2026-04-12T08:40:56.995Z</time></trkpt><trkpt lat="44.5933998" lon="7.8791083"><ele>255.5</ele><time>2026-04-12T08:41:00.995Z</time></trkpt><trkpt lat="44.5934212" lon="7.8790119"><ele>256.3333333333333</ele><time>2026-04-12T08:41:04.996Z</time></trkpt><trkpt lat="44.5934472" lon="7.8789046"><ele>257.1666666666667</ele><time>2026-04-12T08:41:08.995Z</time></trkpt><trkpt lat="44.5934751" lon="7.878797"><ele>258.0</ele><time>2026-04-12T08:41:12.994Z</time></trkpt><trkpt lat="44.5935002" lon="7.8786927"><ele>258.0</ele><time>2026-04-12T08:41:16.995Z</time></trkpt><trkpt lat="44.5935194" lon="7.878588"><ele>258.0</ele><time>2026-04-12T08:41:20.995Z</time></trkpt><trkpt lat="44.5935342" lon="7.8785015"><ele>258.0</ele><time>2026-04-12T08:41:23.995Z</time></trkpt><trkpt lat="44.5935551" lon="7.8783904"><ele>258.0</ele><time>2026-04-12T08:41:27.996Z</time></trkpt><trkpt lat="44.5935752" lon="7.8782789"><ele>258.0</ele><time>2026-04-12T08:41:31.995Z</time></trkpt><trkpt lat="44.593598" lon="7.8781742"><ele>258.0</ele><time>2026-04-12T08:41:35.994Z</time></trkpt><trkpt lat="44.5936161" lon="7.8780697"><ele>258.3333333333333</ele><time>2026-04-12T08:41:39.995Z</time></trkpt><trkpt lat="44.593635" lon="7.8779635"><ele>258.6666666666667</ele><time>2026-04-12T08:41:43.996Z</time></trkpt><trkpt lat="44.5936566" lon="7.8778579"><ele>259.0</ele><time>2026-04-12T08:41:47.995Z</time></trkpt><trkpt lat="44.5936771" lon="7.8777577"><ele>259.33333333333337</ele><time>2026-04-12T08:41:51.994Z</time></trkpt><trkpt lat="44.593699" lon="7.8776568"><ele>259.6666666666667</ele><time>2026-04-12T08:41:55.995Z</time></trkpt><trkpt lat="44.5937246" lon="7.8775575"><ele>260.0</ele><time>2026-04-12T08:41:59.994Z</time></trkpt><trkpt lat="44.5937468" lon="7.8774503"><ele>264.33333333333337</ele><time>2026-04-12T08:42:03.994Z</time></trkpt><trkpt lat="44.5937706" lon="7.8773427"><ele>268.6666666666667</ele><time>2026-04-12T08:42:07.994Z</time></trkpt><trkpt lat="44.5937894" lon="7.8772343"><ele>273.0</ele><time>2026-04-12T08:42:11.994Z</time></trkpt><trkpt lat="44.5938081" lon="7.8771491"><ele>277.3333333333333</ele><time>2026-04-12T08:42:14.994Z</time></trkpt><trkpt lat="44.5938251" lon="7.8770387"><ele>281.66666666666663</ele><time>2026-04-12T08:42:18.994Z</time></trkpt><trkpt lat="44.5938412" lon="7.8769372"><ele>286.0</ele><time>2026-04-12T08:42:22.994Z</time></trkpt><trkpt lat="44.5938557" lon="7.8768344"><ele>285.99999999999994</ele><time>2026-04-12T08:42:26.994Z</time></trkpt><trkpt lat="44.5938815" lon="7.8767419"><ele>286.0</ele><time>2026-04-12T08:42:30.994Z</time></trkpt><trkpt lat="44.5939428" lon="7.8766962"><ele>286.0</ele><time>2026-04-12T08:42:34.994Z</time></trkpt><trkpt lat="44.5940073" lon="7.8767364"><ele>286.0</ele><time>2026-04-12T08:42:38.995Z</time></trkpt><trkpt lat="44.5940256" lon="7.8768341"><ele>286.0</ele><time>2026-04-12T08:42:42.995Z</time></trkpt><trkpt lat="44.5940303" lon="7.8769476"><ele>285.99999999999994</ele><time>2026-04-12T08:42:46.995Z</time></trkpt><trkpt lat="44.5940392" lon="7.8770616"><ele>286.0</ele><time>2026-04-12T08:42:50.994Z</time></trkpt><trkpt lat="44.5940469" lon="7.8771699"><ele>286.0</ele><time>2026-04-12T08:42:54.995Z</time></trkpt><trkpt lat="44.5940559" lon="7.8772839"><ele>286.0</ele><time>2026-04-12T08:42:58.994Z</time></trkpt><trkpt lat="44.5940595" lon="7.8773882"><ele>286.0</ele><time>2026-04-12T08:43:02.995Z</time></trkpt><trkpt lat="44.5940707" lon="7.8774906"><ele>286.0</ele><time>2026-04-12T08:43:06.994Z</time></trkpt><trkpt lat="44.5940807" lon="7.8775957"><ele>286.0</ele><time>2026-04-12T08:43:10.994Z</time></trkpt><trkpt lat="44.5940915" lon="7.8777024"><ele>286.0</ele><time>2026-04-12T08:43:14.994Z</time></trkpt><trkpt lat="44.5940995" lon="7.8778109"><ele>286.0</ele><time>2026-04-12T08:43:18.994Z</time></trkpt><trkpt lat="44.5941056" lon="7.8779244"><ele>286.0</ele><time>2026-04-12T08:43:22.995Z</time></trkpt><trkpt lat="44.5941131" lon="7.8780367"><ele>286.0</ele><time>2026-04-12T08:43:26.994Z</time></trkpt><trkpt lat="44.5941195" lon="7.8781483"><ele>286.0</ele><time>2026-04-12T08:43:30.995Z</time></trkpt><trkpt lat="44.5941282" lon="7.8782652"><ele>286.0</ele><time>2026-04-12T08:43:34.994Z</time></trkpt><trkpt lat="44.5941386" lon="7.8783732"><ele>286.0</ele><time>2026-04-12T08:43:38.994Z</time></trkpt><trkpt lat="44.5941476" lon="7.8784607"><ele>284.3333333333333</ele><time>2026-04-12T08:43:41.994Z</time></trkpt><trkpt lat="44.5941624" lon="7.8785764"><ele>282.66666666666663</ele><time>2026-04-12T08:43:45.994Z</time></trkpt><trkpt lat="44.5941791" lon="7.8786892"><ele>281.0</ele><time>2026-04-12T08:43:49.994Z</time></trkpt><trkpt lat="44.5942172" lon="7.8787846"><ele>279.3333333333333</ele><time>2026-04-12T08:43:53.994Z</time></trkpt><trkpt lat="44.5942863" lon="7.8788267"><ele>277.6666666666667</ele><time>2026-04-12T08:43:57.994Z</time></trkpt><trkpt lat="44.5943525" lon="7.8788256"><ele>276.0</ele><time>2026-04-12T08:44:00.994Z</time></trkpt><trkpt lat="44.5944063" lon="7.8787398"><ele>276.0</ele><time>2026-04-12T08:44:04.995Z</time></trkpt><trkpt lat="44.5944213" lon="7.8786521"><ele>276.0</ele><time>2026-04-12T08:44:07.994Z</time></trkpt><trkpt lat="44.5944235" lon="7.8785621"><ele>276.0</ele><time>2026-04-12T08:44:10.994Z</time></trkpt><trkpt lat="44.5944347" lon="7.8784481"><ele>276.0</ele><time>2026-04-12T08:44:14.994Z</time></trkpt><trkpt lat="44.5944335" lon="7.8783354"><ele>276.0</ele><time>2026-04-12T08:44:18.995Z</time></trkpt><trkpt lat="44.5944322" lon="7.8782355"><ele>276.0</ele><time>2026-04-12T08:44:22.994Z</time></trkpt><trkpt lat="44.5944314" lon="7.8781359"><ele>276.0</ele><time>2026-04-12T08:44:26.994Z</time></trkpt><trkpt lat="44.5944365" lon="7.8780272"><ele>277.42857142857144</ele><time>2026-04-12T08:44:30.994Z</time></trkpt><trkpt lat="44.5944467" lon="7.8779271"><ele>278.8571428571429</ele><time>2026-04-12T08:44:34.994Z</time></trkpt><trkpt lat="44.5944635" lon="7.8778281"><ele>280.2857142857143</ele><time>2026-04-12T08:44:38.994Z</time></trkpt><trkpt lat="44.5944766" lon="7.8777324"><ele>281.7142857142857</ele><time>2026-04-12T08:44:42.994Z</time></trkpt><trkpt lat="44.5944983" lon="7.8776332"><ele>283.1428571428571</ele><time>2026-04-12T08:44:46.994Z</time></trkpt><trkpt lat="44.5945163" lon="7.8775311"><ele>284.57142857142856</ele><time>2026-04-12T08:44:50.994Z</time></trkpt><trkpt lat="44.5945339" lon="7.8774245"><ele>286.0</ele><time>2026-04-12T08:44:54.994Z</time></trkpt><trkpt lat="44.594552" lon="7.877323"><ele>289.8333333333333</ele><time>2026-04-12T08:44:58.994Z</time></trkpt><trkpt lat="44.5945643" lon="7.8772225"><ele>293.66666666666663</ele><time>2026-04-12T08:45:02.994Z</time></trkpt><trkpt lat="44.5945818" lon="7.8771204"><ele>297.5</ele><time>2026-04-12T08:45:06.995Z</time></trkpt><trkpt lat="44.5946006" lon="7.8770156"><ele>301.3333333333333</ele><time>2026-04-12T08:45:10.994Z</time></trkpt><trkpt lat="44.5946163" lon="7.87691"><ele>305.1666666666667</ele><time>2026-04-12T08:45:14.994Z</time></trkpt><trkpt lat="44.5946296" lon="7.8768014"><ele>309.0</ele><time>2026-04-12T08:45:18.994Z</time></trkpt><trkpt lat="44.5946368" lon="7.8766949"><ele>309.42857142857144</ele><time>2026-04-12T08:45:22.994Z</time></trkpt><trkpt lat="44.5946375" lon="7.876587"><ele>309.8571428571429</ele><time>2026-04-12T08:45:26.994Z</time></trkpt><trkpt lat="44.5946278" lon="7.8764821"><ele>310.28571428571433</ele><time>2026-04-12T08:45:30.994Z</time></trkpt><trkpt lat="44.5946102" lon="7.8763793"><ele>310.7142857142857</ele><time>2026-04-12T08:45:34.995Z</time></trkpt><trkpt lat="44.59458" lon="7.8762884"><ele>311.1428571428571</ele><time>2026-04-12T08:45:38.994Z</time></trkpt><trkpt lat="44.5945488" lon="7.8761959"><ele>311.5714285714286</ele><time>2026-04-12T08:45:42.994Z</time></trkpt><trkpt lat="44.5945116" lon="7.8761007"><ele>312.0</ele><time>2026-04-12T08:45:46.994Z</time></trkpt><trkpt lat="44.5944752" lon="7.8760178"><ele>310.2857142857143</ele><time>2026-04-12T08:45:49.995Z</time></trkpt><trkpt lat="44.5944476" lon="7.8759216"><ele>308.57142857142856</ele><time>2026-04-12T08:45:53.994Z</time></trkpt><trkpt lat="44.5944184" lon="7.8758317"><ele>306.85714285714283</ele><time>2026-04-12T08:45:57.995Z</time></trkpt><trkpt lat="44.5944071" lon="7.8757242"><ele>305.1428571428571</ele><time>2026-04-12T08:46:01.995Z</time></trkpt><trkpt lat="44.594384" lon="7.8756244"><ele>303.42857142857144</ele><time>2026-04-12T08:46:05.995Z</time></trkpt><trkpt lat="44.5943683" lon="7.8755204"><ele>301.71428571428567</ele><time>2026-04-12T08:46:09.995Z</time></trkpt><trkpt lat="44.5943561" lon="7.8754184"><ele>300.0</ele><time>2026-04-12T08:46:13.996Z</time></trkpt><trkpt lat="44.5943488" lon="7.8753126"><ele>299.99999999999994</ele><time>2026-04-12T08:46:17.994Z</time></trkpt><trkpt lat="44.5943357" lon="7.8752121"><ele>300.0</ele><time>2026-04-12T08:46:21.995Z</time></trkpt><trkpt lat="44.5943261" lon="7.8751115"><ele>300.0</ele><time>2026-04-12T08:46:25.994Z</time></trkpt><trkpt lat="44.5943118" lon="7.8750083"><ele>300.0</ele><time>2026-04-12T08:46:29.994Z</time></trkpt><trkpt lat="44.5943051" lon="7.8749203"><ele>300.0</ele><time>2026-04-12T08:46:32.994Z</time></trkpt><trkpt lat="44.594299" lon="7.8748097"><ele>299.99999999999994</ele><time>2026-04-12T08:46:36.994Z</time></trkpt><trkpt lat="44.5942838" lon="7.8747075"><ele>300.0</ele><time>2026-04-12T08:46:40.994Z</time></trkpt><trkpt lat="44.5942754" lon="7.874598"><ele>301.5</ele><time>2026-04-12T08:46:44.994Z</time></trkpt><trkpt lat="44.5942697" lon="7.8744849"><ele>303.0</ele><time>2026-04-12T08:46:48.995Z</time></trkpt><trkpt lat="44.5942627" lon="7.8743791"><ele>304.5</ele><time>2026-04-12T08:46:52.995Z</time></trkpt><trkpt lat="44.5942548" lon="7.8742765"><ele>306.0</ele><time>2026-04-12T08:46:56.994Z</time></trkpt><trkpt lat="44.5942382" lon="7.8741733"><ele>307.5</ele><time>2026-04-12T08:47:00.994Z</time></trkpt><trkpt lat="44.5942292" lon="7.8740709"><ele>309.0</ele><time>2026-04-12T08:47:04.994Z</time></trkpt><trkpt lat="44.5942222" lon="7.8739567"><ele>310.00000000000006</ele><time>2026-04-12T08:47:08.995Z</time></trkpt><trkpt lat="44.5942215" lon="7.8738378"><ele>311.0</ele><time>2026-04-12T08:47:12.995Z</time></trkpt><trkpt lat="44.5942197" lon="7.8737466"><ele>312.0</ele><time>2026-04-12T08:47:15.995Z</time></trkpt><trkpt lat="44.594222" lon="7.8736529"><ele>313.0</ele><time>2026-04-12T08:47:18.995Z</time></trkpt><trkpt lat="44.5942164" lon="7.8735495"><ele>314.0</ele><time>2026-04-12T08:47:21.994Z</time></trkpt><trkpt lat="44.5942292" lon="7.8734446"><ele>315.00000000000006</ele><time>2026-04-12T08:47:24.994Z</time></trkpt><trkpt lat="44.5942446" lon="7.8733444"><ele>316.0</ele><time>2026-04-12T08:47:27.994Z</time></trkpt><trkpt lat="44.5942571" lon="7.8732441"><ele>317.16666666666663</ele><time>2026-04-12T08:47:30.994Z</time></trkpt><trkpt lat="44.5942735" lon="7.8731414"><ele>318.3333333333333</ele><time>2026-04-12T08:47:33.995Z</time></trkpt><trkpt lat="44.5942877" lon="7.8730305"><ele>319.5</ele><time>2026-04-12T08:47:36.994Z</time></trkpt><trkpt lat="44.5943011" lon="7.8729153"><ele>320.6666666666667</ele><time>2026-04-12T08:47:40.994Z</time></trkpt><trkpt lat="44.5943113" lon="7.8728139"><ele>321.83333333333337</ele><time>2026-04-12T08:47:43.994Z</time></trkpt><trkpt lat="44.594322" lon="7.872704"><ele>323.0</ele><time>2026-04-12T08:47:46.994Z</time></trkpt><trkpt lat="44.5943052" lon="7.8725989"><ele>323.42857142857144</ele><time>2026-04-12T08:47:49.995Z</time></trkpt><trkpt lat="44.5943083" lon="7.8725104"><ele>323.8571428571429</ele><time>2026-04-12T08:47:51.994Z</time></trkpt><trkpt lat="44.5943157" lon="7.8723804"><ele>324.28571428571433</ele><time>2026-04-12T08:47:54.994Z</time></trkpt><trkpt lat="44.5943184" lon="7.8722858"><ele>324.7142857142857</ele><time>2026-04-12T08:47:56.994Z</time></trkpt><trkpt lat="44.5943144" lon="7.8721862"><ele>325.1428571428571</ele><time>2026-04-12T08:47:58.994Z</time></trkpt><trkpt lat="44.5943173" lon="7.8720796"><ele>325.5714285714286</ele><time>2026-04-12T08:48:00.994Z</time></trkpt><trkpt lat="44.5943207" lon="7.8719793"><ele>326.0</ele><time>2026-04-12T08:48:02.995Z</time></trkpt><trkpt lat="44.5943275" lon="7.8718777"><ele>326.0</ele><time>2026-04-12T08:48:04.994Z</time></trkpt><trkpt lat="44.5943305" lon="7.8717813"><ele>326.0</ele><time>2026-04-12T08:48:06.994Z</time></trkpt><trkpt lat="44.5943228" lon="7.8716891"><ele>326.0</ele><time>2026-04-12T08:48:08.994Z</time></trkpt><trkpt lat="44.5943057" lon="7.871604"><ele>326.0</ele><time>2026-04-12T08:48:10.994Z</time></trkpt><trkpt lat="44.5942855" lon="7.8714777"><ele>326.0</ele><time>2026-04-12T08:48:13.994Z</time></trkpt><trkpt lat="44.5942732" lon="7.8713665"><ele>326.0</ele><time>2026-04-12T08:48:16.994Z</time></trkpt><trkpt lat="44.5942572" lon="7.8712554"><ele>325.8571428571429</ele><time>2026-04-12T08:48:19.995Z</time></trkpt><trkpt lat="44.594249" lon="7.8711455"><ele>325.71428571428567</ele><time>2026-04-12T08:48:22.995Z</time></trkpt><trkpt lat="44.5942528" lon="7.8710513"><ele>325.57142857142856</ele><time>2026-04-12T08:48:26.995Z</time></trkpt><trkpt lat="44.5943304" lon="7.8710366"><ele>325.42857142857144</ele><time>2026-04-12T08:48:30.995Z</time></trkpt><trkpt lat="44.5943986" lon="7.8710485"><ele>325.28571428571433</ele><time>2026-04-12T08:48:34.994Z</time></trkpt><trkpt lat="44.5944656" lon="7.8710442"><ele>325.1428571428571</ele><time>2026-04-12T08:48:38.994Z</time></trkpt><trkpt lat="44.5945316" lon="7.8710569"><ele>325.0</ele><time>2026-04-12T08:48:44.995Z</time></trkpt><trkpt lat="44.5946026" lon="7.8710731"><ele>325.0</ele><time>2026-04-12T08:48:50.994Z</time></trkpt><trkpt lat="44.5946703" lon="7.8710422"><ele>325.0</ele><time>2026-04-12T08:48:55.994Z</time></trkpt><trkpt lat="44.5947621" lon="7.8710621"><ele>325.0</ele><time>2026-04-12T08:48:59.994Z</time></trkpt><trkpt lat="44.5948326" lon="7.8710668"><ele>325.0</ele><time>2026-04-12T08:49:01.994Z</time></trkpt><trkpt lat="44.5949089" lon="7.8710581"><ele>325.0</ele><time>2026-04-12T08:49:03.995Z</time></trkpt><trkpt lat="44.5949848" lon="7.8710632"><ele>325.0</ele><time>2026-04-12T08:49:05.994Z</time></trkpt><trkpt lat="44.5950478" lon="7.8710725"><ele>325.0</ele><time>2026-04-12T08:49:07.994Z</time></trkpt><trkpt lat="44.5951146" lon="7.8710679"><ele>325.0</ele><time>2026-04-12T08:49:09.995Z</time></trkpt><trkpt lat="44.5951785" lon="7.8710376"><ele>325.0</ele><time>2026-04-12T08:49:11.994Z</time></trkpt><trkpt lat="44.5952661" lon="7.8709907"><ele>325.0</ele><time>2026-04-12T08:49:14.994Z</time></trkpt><trkpt lat="44.5953391" lon="7.87093"><ele>325.0</ele><time>2026-04-12T08:49:17.995Z</time></trkpt><trkpt lat="44.5954203" lon="7.8708838"><ele>325.0</ele><time>2026-04-12T08:49:20.994Z</time></trkpt><trkpt lat="44.5955036" lon="7.8708353"><ele>325.4285714285714</ele><time>2026-04-12T08:49:23.995Z</time></trkpt><trkpt lat="44.5955659" lon="7.8708102"><ele>325.8571428571429</ele><time>2026-04-12T08:49:25.994Z</time></trkpt><trkpt lat="44.5956265" lon="7.8707754"><ele>326.2857142857143</ele><time>2026-04-12T08:49:27.995Z</time></trkpt><trkpt lat="44.5956898" lon="7.8707561"><ele>326.71428571428567</ele><time>2026-04-12T08:49:29.994Z</time></trkpt><trkpt lat="44.5957555" lon="7.870736"><ele>327.1428571428571</ele><time>2026-04-12T08:49:31.994Z</time></trkpt><trkpt lat="44.5958173" lon="7.8706932"><ele>327.57142857142856</ele><time>2026-04-12T08:49:33.994Z</time></trkpt><trkpt lat="44.5958823" lon="7.8706721"><ele>328.0</ele><time>2026-04-12T08:49:35.994Z</time></trkpt><trkpt lat="44.5959496" lon="7.8706536"><ele>327.99999999999994</ele><time>2026-04-12T08:49:37.995Z</time></trkpt><trkpt lat="44.5960313" lon="7.8706416"><ele>328.0</ele><time>2026-04-12T08:49:40.994Z</time></trkpt><trkpt lat="44.5961134" lon="7.8706465"><ele>328.0</ele><time>2026-04-12T08:49:43.995Z</time></trkpt><trkpt lat="44.5961817" lon="7.8706628"><ele>328.0</ele><time>2026-04-12T08:49:46.995Z</time></trkpt><trkpt lat="44.5962497" lon="7.8706624"><ele>328.0</ele><time>2026-04-12T08:49:49.994Z</time></trkpt><trkpt lat="44.5963128" lon="7.8706459"><ele>327.99999999999994</ele><time>2026-04-12T08:49:52.995Z</time></trkpt><trkpt lat="44.5963892" lon="7.8706266"><ele>328.0</ele><time>2026-04-12T08:49:55.994Z</time></trkpt><trkpt lat="44.5964827" lon="7.8706107"><ele>327.8333333333333</ele><time>2026-04-12T08:49:58.994Z</time></trkpt><trkpt lat="44.5965532" lon="7.87059"><ele>327.66666666666663</ele><time>2026-04-12T08:50:00.994Z</time></trkpt><trkpt lat="44.5966259" lon="7.8705745"><ele>327.5</ele><time>2026-04-12T08:50:02.994Z</time></trkpt><trkpt lat="44.5967002" lon="7.8705604"><ele>327.3333333333333</ele><time>2026-04-12T08:50:04.994Z</time></trkpt><trkpt lat="44.5967772" lon="7.8705565"><ele>327.1666666666667</ele><time>2026-04-12T08:50:06.994Z</time></trkpt><trkpt lat="44.5968567" lon="7.8705468"><ele>327.0</ele><time>2026-04-12T08:50:08.995Z</time></trkpt><trkpt lat="44.596935" lon="7.8705311"><ele>327.0</ele><time>2026-04-12T08:50:10.995Z</time></trkpt><trkpt lat="44.5970095" lon="7.8705244"><ele>327.0</ele><time>2026-04-12T08:50:12.994Z</time></trkpt><trkpt lat="44.5970852" lon="7.8705209"><ele>327.0</ele><time>2026-04-12T08:50:14.994Z</time></trkpt><trkpt lat="44.5971544" lon="7.870507"><ele>327.0</ele><time>2026-04-12T08:50:16.994Z</time></trkpt><trkpt lat="44.5972542" lon="7.8705076"><ele>327.0</ele><time>2026-04-12T08:50:18.995Z</time></trkpt><trkpt lat="44.5973602" lon="7.8705007"><ele>327.0</ele><time>2026-04-12T08:50:20.995Z</time></trkpt><trkpt lat="44.597463" lon="7.8704877"><ele>327.0</ele><time>2026-04-12T08:50:22.994Z</time></trkpt><trkpt lat="44.597564" lon="7.8704714"><ele>327.0</ele><time>2026-04-12T08:50:24.994Z</time></trkpt><trkpt lat="44.5976675" lon="7.870456"><ele>327.0</ele><time>2026-04-12T08:50:26.995Z</time></trkpt><trkpt lat="44.5977708" lon="7.8704402"><ele>327.0</ele><time>2026-04-12T08:50:28.994Z</time></trkpt><trkpt lat="44.5978713" lon="7.8704194"><ele>327.0</ele><time>2026-04-12T08:50:30.994Z</time></trkpt><trkpt lat="44.5979765" lon="7.8704015"><ele>327.0</ele><time>2026-04-12T08:50:32.994Z</time></trkpt><trkpt lat="44.5980826" lon="7.8703837"><ele>327.0</ele><time>2026-04-12T08:50:34.994Z</time></trkpt><trkpt lat="44.5981887" lon="7.8703637"><ele>327.0</ele><time>2026-04-12T08:50:36.994Z</time></trkpt><trkpt lat="44.5982961" lon="7.8703489"><ele>327.0</ele><time>2026-04-12T08:50:38.994Z</time></trkpt><trkpt lat="44.5984053" lon="7.8703338"><ele>327.0</ele><time>2026-04-12T08:50:40.994Z</time></trkpt><trkpt lat="44.5985152" lon="7.8703182"><ele>327.0</ele><time>2026-04-12T08:50:42.994Z</time></trkpt><trkpt lat="44.5986298" lon="7.8702926"><ele>327.0</ele><time>2026-04-12T08:50:44.994Z</time></trkpt><trkpt lat="44.5987483" lon="7.8702751"><ele>327.0</ele><time>2026-04-12T08:50:46.994Z</time></trkpt><trkpt lat="44.5988673" lon="7.8702575"><ele>327.0</ele><time>2026-04-12T08:50:48.994Z</time></trkpt><trkpt lat="44.5989871" lon="7.8702359"><ele>326.75</ele><time>2026-04-12T08:50:50.995Z</time></trkpt><trkpt lat="44.5991073" lon="7.8702132"><ele>326.5</ele><time>2026-04-12T08:50:52.995Z</time></trkpt><trkpt lat="44.5992259" lon="7.8701924"><ele>326.25</ele><time>2026-04-12T08:50:54.994Z</time></trkpt><trkpt lat="44.5993453" lon="7.870175"><ele>326.0</ele><time>2026-04-12T08:50:56.994Z</time></trkpt><trkpt lat="44.5994673" lon="7.8701581"><ele>326.0</ele><time>2026-04-12T08:50:58.994Z</time></trkpt><trkpt lat="44.5995894" lon="7.8701427"><ele>326.0</ele><time>2026-04-12T08:51:00.994Z</time></trkpt><trkpt lat="44.5997125" lon="7.8701203"><ele>326.0</ele><time>2026-04-12T08:51:02.994Z</time></trkpt><trkpt lat="44.5998349" lon="7.8701041"><ele>326.0</ele><time>2026-04-12T08:51:04.994Z</time></trkpt><trkpt lat="44.5999583" lon="7.8700843"><ele>326.25</ele><time>2026-04-12T08:51:06.995Z</time></trkpt><trkpt lat="44.6000821" lon="7.870066"><ele>326.5</ele><time>2026-04-12T08:51:08.995Z</time></trkpt><trkpt lat="44.6002044" lon="7.8700468"><ele>326.75</ele><time>2026-04-12T08:51:10.994Z</time></trkpt><trkpt lat="44.6003267" lon="7.8700247"><ele>327.0</ele><time>2026-04-12T08:51:12.995Z</time></trkpt><trkpt lat="44.6004468" lon="7.8700065"><ele>327.0</ele><time>2026-04-12T08:51:14.994Z</time></trkpt><trkpt lat="44.6005667" lon="7.8699888"><ele>327.0</ele><time>2026-04-12T08:51:16.995Z</time></trkpt><trkpt lat="44.6006864" lon="7.8699635"><ele>327.0</ele><time>2026-04-12T08:51:18.994Z</time></trkpt><trkpt lat="44.6008055" lon="7.8699454"><ele>327.0</ele><time>2026-04-12T08:51:20.995Z</time></trkpt><trkpt lat="44.6009264" lon="7.8699247"><ele>327.0</ele><time>2026-04-12T08:51:22.994Z</time></trkpt><trkpt lat="44.6010446" lon="7.8699071"><ele>327.0</ele><time>2026-04-12T08:51:24.995Z</time></trkpt><trkpt lat="44.601158" lon="7.8698894"><ele>327.0</ele><time>2026-04-12T08:51:26.994Z</time></trkpt><trkpt lat="44.60127" lon="7.8698701"><ele>327.0</ele><time>2026-04-12T08:51:28.994Z</time></trkpt><trkpt lat="44.601381" lon="7.8698476"><ele>327.0</ele><time>2026-04-12T08:51:30.994Z</time></trkpt><trkpt lat="44.6014926" lon="7.8698286"><ele>327.0</ele><time>2026-04-12T08:51:32.995Z</time></trkpt><trkpt lat="44.6016001" lon="7.8698036"><ele>327.0</ele><time>2026-04-12T08:51:34.995Z</time></trkpt><trkpt lat="44.6017033" lon="7.86979"><ele>327.0</ele><time>2026-04-12T08:51:36.995Z</time></trkpt><trkpt lat="44.6017903" lon="7.869841"><ele>327.0</ele><time>2026-04-12T08:51:38.995Z</time></trkpt><trkpt lat="44.6018314" lon="7.8699673"><ele>326.20000000000005</ele><time>2026-04-12T08:51:40.994Z</time></trkpt><trkpt lat="44.6018527" lon="7.8701167"><ele>325.4</ele><time>2026-04-12T08:51:42.995Z</time></trkpt><trkpt lat="44.6018675" lon="7.8702694"><ele>324.6</ele><time>2026-04-12T08:51:44.996Z</time></trkpt><trkpt lat="44.6018853" lon="7.8704234"><ele>323.79999999999995</ele><time>2026-04-12T08:51:46.994Z</time></trkpt><trkpt lat="44.6019076" lon="7.870568"><ele>323.0</ele><time>2026-04-12T08:51:48.995Z</time></trkpt><trkpt lat="44.6019305" lon="7.8707108"><ele>323.0</ele><time>2026-04-12T08:51:50.995Z</time></trkpt><trkpt lat="44.601978" lon="7.8707998"><ele>323.0</ele><time>2026-04-12T08:51:52.995Z</time></trkpt><trkpt lat="44.6020518" lon="7.8708108"><ele>323.0</ele><time>2026-04-12T08:51:54.995Z</time></trkpt><trkpt lat="44.602144" lon="7.8707933"><ele>323.0</ele><time>2026-04-12T08:51:56.994Z</time></trkpt><trkpt lat="44.6022445" lon="7.8707692"><ele>323.0</ele><time>2026-04-12T08:51:58.995Z</time></trkpt><trkpt lat="44.6023532" lon="7.8707381"><ele>322.4</ele><time>2026-04-12T08:52:00.995Z</time></trkpt><trkpt lat="44.6024653" lon="7.870714"><ele>321.79999999999995</ele><time>2026-04-12T08:52:02.995Z</time></trkpt><trkpt lat="44.6025798" lon="7.870688"><ele>321.2</ele><time>2026-04-12T08:52:04.995Z</time></trkpt><trkpt lat="44.6026428" lon="7.8706786"><ele>320.6</ele><time>2026-04-12T08:52:05.994Z</time></trkpt><trkpt lat="44.6027674" lon="7.8706769"><ele>320.0</ele><time>2026-04-12T08:52:07.995Z</time></trkpt><trkpt lat="44.6028309" lon="7.8706861"><ele>320.4</ele><time>2026-04-12T08:52:08.996Z</time></trkpt><trkpt lat="44.6029496" lon="7.8706911"><ele>320.8</ele><time>2026-04-12T08:52:10.995Z</time></trkpt><trkpt lat="44.6030641" lon="7.8706621"><ele>321.20000000000005</ele><time>2026-04-12T08:52:12.996Z</time></trkpt><trkpt lat="44.6031738" lon="7.8706293"><ele>321.6</ele><time>2026-04-12T08:52:14.994Z</time></trkpt><trkpt lat="44.6032667" lon="7.8705892"><ele>322.0</ele><time>2026-04-12T08:52:16.995Z</time></trkpt><trkpt lat="44.6033496" lon="7.8705584"><ele>322.0</ele><time>2026-04-12T08:52:18.995Z</time></trkpt><trkpt lat="44.6034485" lon="7.8705619"><ele>322.0</ele><time>2026-04-12T08:52:20.995Z</time></trkpt><trkpt lat="44.6035434" lon="7.8705797"><ele>322.0</ele><time>2026-04-12T08:52:23Z</time></trkpt><trkpt lat="44.6036474" lon="7.8705713"><ele>322.0</ele><time>2026-04-12T08:52:24.995Z</time></trkpt><trkpt lat="44.6037524" lon="7.870577"><ele>322.0</ele><time>2026-04-12T08:52:26.995Z</time></trkpt><trkpt lat="44.6038553" lon="7.8705794"><ele>322.0</ele><time>2026-04-12T08:52:28.995Z</time></trkpt><trkpt lat="44.6039554" lon="7.870578"><ele>322.0</ele><time>2026-04-12T08:52:30.995Z</time></trkpt><trkpt lat="44.6040573" lon="7.8705901"><ele>322.0</ele><time>2026-04-12T08:52:32.995Z</time></trkpt><trkpt lat="44.6041636" lon="7.8706057"><ele>322.0</ele><time>2026-04-12T08:52:34.995Z</time></trkpt><trkpt lat="44.6042742" lon="7.8706064"><ele>322.0</ele><time>2026-04-12T08:52:36.995Z</time></trkpt><trkpt lat="44.6043773" lon="7.8706044"><ele>322.0</ele><time>2026-04-12T08:52:38.994Z</time></trkpt><trkpt lat="44.6044778" lon="7.8705984"><ele>322.0</ele><time>2026-04-12T08:52:40.996Z</time></trkpt><trkpt lat="44.6045823" lon="7.8705941"><ele>322.0</ele><time>2026-04-12T08:52:42.995Z</time></trkpt><trkpt lat="44.6046845" lon="7.8705898"><ele>322.0</ele><time>2026-04-12T08:52:44.994Z</time></trkpt><trkpt lat="44.6047948" lon="7.8705838"><ele>322.0</ele><time>2026-04-12T08:52:46.994Z</time></trkpt><trkpt lat="44.6049063" lon="7.8705762"><ele>321.66666666666663</ele><time>2026-04-12T08:52:48.995Z</time></trkpt><trkpt lat="44.6049768" lon="7.8706058"><ele>321.3333333333333</ele><time>2026-04-12T08:52:49.996Z</time></trkpt><trkpt lat="44.605046" lon="7.8706306"><ele>321.0</ele><time>2026-04-12T08:52:50.995Z</time></trkpt><trkpt lat="44.6051212" lon="7.8706697"><ele>320.6666666666667</ele><time>2026-04-12T08:52:51.996Z</time></trkpt><trkpt lat="44.6051928" lon="7.8707285"><ele>320.33333333333337</ele><time>2026-04-12T08:52:52.994Z</time></trkpt><trkpt lat="44.6052622" lon="7.87079"><ele>320.0</ele><time>2026-04-12T08:52:53.996Z</time></trkpt><trkpt lat="44.6053225" lon="7.8708915"><ele>317.0</ele><time>2026-04-12T08:52:54.996Z</time></trkpt><trkpt lat="44.6053829" lon="7.8709927"><ele>314.0</ele><time>2026-04-12T08:52:55.995Z</time></trkpt><trkpt lat="44.6054436" lon="7.8711015"><ele>311.0</ele><time>2026-04-12T08:52:56.995Z</time></trkpt><trkpt lat="44.6055088" lon="7.8712039"><ele>308.0</ele><time>2026-04-12T08:52:57.996Z</time></trkpt><trkpt lat="44.605581" lon="7.871302"><ele>305.0</ele><time>2026-04-12T08:52:58.995Z</time></trkpt><trkpt lat="44.6056583" lon="7.8714051"><ele>305.0</ele><time>2026-04-12T08:52:59.995Z</time></trkpt><trkpt lat="44.6057471" lon="7.8715003"><ele>305.0</ele><time>2026-04-12T08:53:00.994Z</time></trkpt><trkpt lat="44.6058449" lon="7.871601"><ele>305.0</ele><time>2026-04-12T08:53:01.994Z</time></trkpt><trkpt lat="44.605946" lon="7.8717143"><ele>305.0</ele><time>2026-04-12T08:53:02.994Z</time></trkpt><trkpt lat="44.6060407" lon="7.871835"><ele>302.6</ele><time>2026-04-12T08:53:03.994Z</time></trkpt><trkpt lat="44.6061332" lon="7.8719464"><ele>300.2</ele><time>2026-04-12T08:53:04.995Z</time></trkpt><trkpt lat="44.6062207" lon="7.8720471"><ele>297.8</ele><time>2026-04-12T08:53:05.995Z</time></trkpt><trkpt lat="44.6063064" lon="7.8721345"><ele>295.4</ele><time>2026-04-12T08:53:06.996Z</time></trkpt><trkpt lat="44.6063953" lon="7.8721747"><ele>293.0</ele><time>2026-04-12T08:53:07.996Z</time></trkpt><trkpt lat="44.6064821" lon="7.8721982"><ele>293.0</ele><time>2026-04-12T08:53:08.996Z</time></trkpt><trkpt lat="44.606563" lon="7.8721923"><ele>293.0</ele><time>2026-04-12T08:53:09.995Z</time></trkpt><trkpt lat="44.6066383" lon="7.8721683"><ele>293.0</ele><time>2026-04-12T08:53:10.996Z</time></trkpt><trkpt lat="44.6067061" lon="7.8721355"><ele>293.0</ele><time>2026-04-12T08:53:11.995Z</time></trkpt><trkpt lat="44.6068281" lon="7.8720726"><ele>293.0</ele><time>2026-04-12T08:53:13.995Z</time></trkpt><trkpt lat="44.6069486" lon="7.8720172"><ele>291.8</ele><time>2026-04-12T08:53:15.994Z</time></trkpt><trkpt lat="44.607069" lon="7.872006"><ele>290.6</ele><time>2026-04-12T08:53:17.995Z</time></trkpt><trkpt lat="44.6071311" lon="7.8720212"><ele>289.4</ele><time>2026-04-12T08:53:18.994Z</time></trkpt><trkpt lat="44.6072537" lon="7.8720597"><ele>288.2</ele><time>2026-04-12T08:53:20.995Z</time></trkpt><trkpt lat="44.6073716" lon="7.8720962"><ele>287.0</ele><time>2026-04-12T08:53:22.995Z</time></trkpt><trkpt lat="44.607493" lon="7.8721387"><ele>287.0</ele><time>2026-04-12T08:53:24.994Z</time></trkpt><trkpt lat="44.607612" lon="7.8721815"><ele>287.0</ele><time>2026-04-12T08:53:26.994Z</time></trkpt><trkpt lat="44.6077281" lon="7.8722185"><ele>287.0</ele><time>2026-04-12T08:53:28.995Z</time></trkpt><trkpt lat="44.6078468" lon="7.8722616"><ele>287.0</ele><time>2026-04-12T08:53:30.995Z</time></trkpt><trkpt lat="44.607962" lon="7.8722922"><ele>288.2</ele><time>2026-04-12T08:53:32.995Z</time></trkpt><trkpt lat="44.608079" lon="7.8723249"><ele>289.4</ele><time>2026-04-12T08:53:34.996Z</time></trkpt><trkpt lat="44.6081416" lon="7.8723459"><ele>290.6</ele><time>2026-04-12T08:53:35.995Z</time></trkpt><trkpt lat="44.6082645" lon="7.8723781"><ele>291.8</ele><time>2026-04-12T08:53:37.996Z</time></trkpt><trkpt lat="44.6083944" lon="7.8723985"><ele>293.0</ele><time>2026-04-12T08:53:39.995Z</time></trkpt><trkpt lat="44.6084581" lon="7.8724083"><ele>293.0</ele><time>2026-04-12T08:53:40.996Z</time></trkpt><trkpt lat="44.6085761" lon="7.8724387"><ele>293.0</ele><time>2026-04-12T08:53:42.995Z</time></trkpt><trkpt lat="44.6086964" lon="7.8724564"><ele>293.0</ele><time>2026-04-12T08:53:44.995Z</time></trkpt><trkpt lat="44.608812" lon="7.8724253"><ele>293.0</ele><time>2026-04-12T08:53:46.995Z</time></trkpt><trkpt lat="44.6088919" lon="7.8723202"><ele>294.2</ele><time>2026-04-12T08:53:48.994Z</time></trkpt><trkpt lat="44.608952" lon="7.8722008"><ele>295.4</ele><time>2026-04-12T08:53:50.996Z</time></trkpt><trkpt lat="44.6090085" lon="7.8720793"><ele>296.59999999999997</ele><time>2026-04-12T08:53:52.994Z</time></trkpt><trkpt lat="44.6090648" lon="7.8719546"><ele>297.8</ele><time>2026-04-12T08:53:54.996Z</time></trkpt><trkpt lat="44.609115" lon="7.8718251"><ele>299.0</ele><time>2026-04-12T08:53:56.995Z</time></trkpt><trkpt lat="44.6091671" lon="7.8716935"><ele>299.2</ele><time>2026-04-12T08:53:58.994Z</time></trkpt><trkpt lat="44.6092211" lon="7.8715627"><ele>299.4</ele><time>2026-04-12T08:54:00.995Z</time></trkpt><trkpt lat="44.6092881" lon="7.8714379"><ele>299.6</ele><time>2026-04-12T08:54:02.995Z</time></trkpt><trkpt lat="44.6093739" lon="7.8713487"><ele>299.8</ele><time>2026-04-12T08:54:04.995Z</time></trkpt><trkpt lat="44.6094796" lon="7.8713178"><ele>300.0</ele><time>2026-04-12T08:54:06.995Z</time></trkpt><trkpt lat="44.6095885" lon="7.8713329"><ele>299.5</ele><time>2026-04-12T08:54:08.994Z</time></trkpt><trkpt lat="44.6097015" lon="7.8713445"><ele>299.0</ele><time>2026-04-12T08:54:10.995Z</time></trkpt><trkpt lat="44.6098162" lon="7.8713459"><ele>298.5</ele><time>2026-04-12T08:54:12.995Z</time></trkpt><trkpt lat="44.6099312" lon="7.8713385"><ele>298.0</ele><time>2026-04-12T08:54:14.996Z</time></trkpt><trkpt lat="44.6100483" lon="7.8713208"><ele>298.0</ele><time>2026-04-12T08:54:16.995Z</time></trkpt><trkpt lat="44.6101598" lon="7.8713093"><ele>298.0</ele><time>2026-04-12T08:54:18.994Z</time></trkpt><trkpt lat="44.6102711" lon="7.8712987"><ele>298.0</ele><time>2026-04-12T08:54:20.994Z</time></trkpt><trkpt lat="44.6103829" lon="7.8712809"><ele>298.0</ele><time>2026-04-12T08:54:22.995Z</time></trkpt><trkpt lat="44.610494" lon="7.8712659"><ele>298.0</ele><time>2026-04-12T08:54:24.995Z</time></trkpt><trkpt lat="44.6106076" lon="7.8712373"><ele>298.25</ele><time>2026-04-12T08:54:26.995Z</time></trkpt><trkpt lat="44.6107219" lon="7.8712064"><ele>298.5</ele><time>2026-04-12T08:54:28.996Z</time></trkpt><trkpt lat="44.6108332" lon="7.8711811"><ele>298.75</ele><time>2026-04-12T08:54:30.996Z</time></trkpt><trkpt lat="44.6109473" lon="7.871162"><ele>299.0</ele><time>2026-04-12T08:54:32.995Z</time></trkpt><trkpt lat="44.6110614" lon="7.8711549"><ele>298.75</ele><time>2026-04-12T08:54:34.996Z</time></trkpt><trkpt lat="44.6111749" lon="7.8711337"><ele>298.5</ele><time>2026-04-12T08:54:36.995Z</time></trkpt><trkpt lat="44.6112859" lon="7.8711049"><ele>298.25</ele><time>2026-04-12T08:54:38.995Z</time></trkpt><trkpt lat="44.6113991" lon="7.8710888"><ele>298.0</ele><time>2026-04-12T08:54:40.995Z</time></trkpt><trkpt lat="44.6115105" lon="7.8710859"><ele>298.0</ele><time>2026-04-12T08:54:42.995Z</time></trkpt><trkpt lat="44.6116155" lon="7.8710777"><ele>298.0</ele><time>2026-04-12T08:54:44.995Z</time></trkpt><trkpt lat="44.6117232" lon="7.8710789"><ele>298.0</ele><time>2026-04-12T08:54:46.994Z</time></trkpt><trkpt lat="44.6118304" lon="7.8710613"><ele>298.0</ele><time>2026-04-12T08:54:48.994Z</time></trkpt><trkpt lat="44.6119384" lon="7.8710421"><ele>298.0</ele><time>2026-04-12T08:54:50.995Z</time></trkpt><trkpt lat="44.6120506" lon="7.8710249"><ele>297.6</ele><time>2026-04-12T08:54:52.994Z</time></trkpt><trkpt lat="44.6121563" lon="7.8710115"><ele>297.20000000000005</ele><time>2026-04-12T08:54:54.996Z</time></trkpt><trkpt lat="44.6122608" lon="7.8710007"><ele>296.8</ele><time>2026-04-12T08:54:56.995Z</time></trkpt><trkpt lat="44.6123692" lon="7.8709893"><ele>296.40000000000003</ele><time>2026-04-12T08:54:58.995Z</time></trkpt><trkpt lat="44.6124749" lon="7.870981"><ele>296.0</ele><time>2026-04-12T08:55:00.994Z</time></trkpt><trkpt lat="44.6125822" lon="7.8709779"><ele>296.0</ele><time>2026-04-12T08:55:02.995Z</time></trkpt><trkpt lat="44.6126942" lon="7.8709775"><ele>296.0</ele><time>2026-04-12T08:55:04.996Z</time></trkpt><trkpt lat="44.6128052" lon="7.8709601"><ele>296.0</ele><time>2026-04-12T08:55:06.996Z</time></trkpt><trkpt lat="44.6129145" lon="7.8709415"><ele>296.0</ele><time>2026-04-12T08:55:08.994Z</time></trkpt><trkpt lat="44.6130225" lon="7.8709162"><ele>296.0</ele><time>2026-04-12T08:55:10.996Z</time></trkpt><trkpt lat="44.6131314" lon="7.8708951"><ele>296.40000000000003</ele><time>2026-04-12T08:55:12.996Z</time></trkpt><trkpt lat="44.6132384" lon="7.8708789"><ele>296.8</ele><time>2026-04-12T08:55:14.995Z</time></trkpt><trkpt lat="44.6133469" lon="7.8708601"><ele>297.20000000000005</ele><time>2026-04-12T08:55:16.996Z</time></trkpt><trkpt lat="44.6134521" lon="7.8708337"><ele>297.6</ele><time>2026-04-12T08:55:18.995Z</time></trkpt><trkpt lat="44.613558" lon="7.8708015"><ele>298.0</ele><time>2026-04-12T08:55:20.996Z</time></trkpt><trkpt lat="44.6136636" lon="7.8707746"><ele>298.4</ele><time>2026-04-12T08:55:22.995Z</time></trkpt><trkpt lat="44.6137721" lon="7.8707378"><ele>298.8</ele><time>2026-04-12T08:55:24.995Z</time></trkpt><trkpt lat="44.6138821" lon="7.8707059"><ele>299.2</ele><time>2026-04-12T08:55:26.995Z</time></trkpt><trkpt lat="44.6139899" lon="7.8706733"><ele>299.6</ele><time>2026-04-12T08:55:28.994Z</time></trkpt><trkpt lat="44.6140989" lon="7.8706324"><ele>300.0</ele><time>2026-04-12T08:55:30.994Z</time></trkpt><trkpt lat="44.6142097" lon="7.8705971"><ele>300.0</ele><time>2026-04-12T08:55:32.995Z</time></trkpt><trkpt lat="44.6143162" lon="7.8705529"><ele>300.0</ele><time>2026-04-12T08:55:34.995Z</time></trkpt><trkpt lat="44.6144233" lon="7.8705095"><ele>300.0</ele><time>2026-04-12T08:55:36.994Z</time></trkpt><trkpt lat="44.6144871" lon="7.8704968"><ele>300.0</ele><time>2026-04-12T08:55:37.996Z</time></trkpt><trkpt lat="44.6145497" lon="7.8704863"><ele>300.0</ele><time>2026-04-12T08:55:38.995Z</time></trkpt><trkpt lat="44.6146128" lon="7.8704763"><ele>300.0</ele><time>2026-04-12T08:55:39.994Z</time></trkpt><trkpt lat="44.6147333" lon="7.8704485"><ele>299.8</ele><time>2026-04-12T08:55:41.996Z</time></trkpt><trkpt lat="44.6148544" lon="7.870424"><ele>299.6</ele><time>2026-04-12T08:55:43.994Z</time></trkpt><trkpt lat="44.6149748" lon="7.8704095"><ele>299.4</ele><time>2026-04-12T08:55:45.995Z</time></trkpt><trkpt lat="44.6150955" lon="7.8703757"><ele>299.2</ele><time>2026-04-12T08:55:47.995Z</time></trkpt><trkpt lat="44.6151578" lon="7.8703549"><ele>299.0</ele><time>2026-04-12T08:55:48.995Z</time></trkpt><trkpt lat="44.6152808" lon="7.8703256"><ele>299.25</ele><time>2026-04-12T08:55:50.995Z</time></trkpt><trkpt lat="44.6153975" lon="7.8703064"><ele>299.5</ele><time>2026-04-12T08:55:52.995Z</time></trkpt><trkpt lat="44.615516" lon="7.8702855"><ele>299.75</ele><time>2026-04-12T08:55:54.995Z</time></trkpt><trkpt lat="44.6156328" lon="7.8702636"><ele>300.0</ele><time>2026-04-12T08:55:56.995Z</time></trkpt><trkpt lat="44.6157493" lon="7.8702462"><ele>300.0</ele><time>2026-04-12T08:55:58.994Z</time></trkpt><trkpt lat="44.6158696" lon="7.8702253"><ele>300.0</ele><time>2026-04-12T08:56:00.995Z</time></trkpt><trkpt lat="44.6159857" lon="7.8702037"><ele>300.0</ele><time>2026-04-12T08:56:02.995Z</time></trkpt><trkpt lat="44.6161009" lon="7.8701815"><ele>300.0</ele><time>2026-04-12T08:56:04.996Z</time></trkpt><trkpt lat="44.6162114" lon="7.8701592"><ele>299.5</ele><time>2026-04-12T08:56:06.994Z</time></trkpt><trkpt lat="44.6163198" lon="7.8701304"><ele>299.0</ele><time>2026-04-12T08:56:08.995Z</time></trkpt><trkpt lat="44.61643" lon="7.8701003"><ele>298.5</ele><time>2026-04-12T08:56:10.995Z</time></trkpt><trkpt lat="44.6165413" lon="7.870081"><ele>298.0</ele><time>2026-04-12T08:56:12.994Z</time></trkpt><trkpt lat="44.616657" lon="7.8700516"><ele>298.0</ele><time>2026-04-12T08:56:14.995Z</time></trkpt><trkpt lat="44.6167694" lon="7.8700299"><ele>298.0</ele><time>2026-04-12T08:56:16.996Z</time></trkpt><trkpt lat="44.6168787" lon="7.8700096"><ele>298.0</ele><time>2026-04-12T08:56:18.995Z</time></trkpt><trkpt lat="44.6169796" lon="7.8699959"><ele>298.0</ele><time>2026-04-12T08:56:20.995Z</time></trkpt><trkpt lat="44.6170965" lon="7.8699849"><ele>298.0</ele><time>2026-04-12T08:56:22.994Z</time></trkpt><trkpt lat="44.617216" lon="7.8699786"><ele>297.8</ele><time>2026-04-12T08:56:24.995Z</time></trkpt><trkpt lat="44.6173231" lon="7.8699701"><ele>297.6</ele><time>2026-04-12T08:56:26.995Z</time></trkpt><trkpt lat="44.6173893" lon="7.8699712"><ele>297.4</ele><time>2026-04-12T08:56:27.995Z</time></trkpt><trkpt lat="44.6174994" lon="7.8699318"><ele>297.2</ele><time>2026-04-12T08:56:29.994Z</time></trkpt><trkpt lat="44.6175994" lon="7.8698832"><ele>297.0</ele><time>2026-04-12T08:56:31.996Z</time></trkpt><trkpt lat="44.6176986" lon="7.8698286"><ele>297.0</ele><time>2026-04-12T08:56:33.995Z</time></trkpt><trkpt lat="44.6178064" lon="7.8698044"><ele>297.0</ele><time>2026-04-12T08:56:35.995Z</time></trkpt><trkpt lat="44.6179249" lon="7.8698356"><ele>297.0</ele><time>2026-04-12T08:56:37.995Z</time></trkpt><trkpt lat="44.6180314" lon="7.8698911"><ele>297.0</ele><time>2026-04-12T08:56:39.996Z</time></trkpt><trkpt lat="44.6181308" lon="7.8699552"><ele>296.4</ele><time>2026-04-12T08:56:41.995Z</time></trkpt><trkpt lat="44.6182287" lon="7.8700033"><ele>295.79999999999995</ele><time>2026-04-12T08:56:43.996Z</time></trkpt><trkpt lat="44.618331" lon="7.8700404"><ele>295.2</ele><time>2026-04-12T08:56:45.995Z</time></trkpt><trkpt lat="44.6184308" lon="7.8700757"><ele>294.59999999999997</ele><time>2026-04-12T08:56:47.996Z</time></trkpt><trkpt lat="44.6185339" lon="7.8700882"><ele>294.0</ele><time>2026-04-12T08:56:49.995Z</time></trkpt><trkpt lat="44.6186397" lon="7.8700902"><ele>294.0</ele><time>2026-04-12T08:56:51.995Z</time></trkpt><trkpt lat="44.6187464" lon="7.8700867"><ele>294.0</ele><time>2026-04-12T08:56:53.995Z</time></trkpt><trkpt lat="44.6188574" lon="7.870066"><ele>294.0</ele><time>2026-04-12T08:56:55.995Z</time></trkpt><trkpt lat="44.6189673" lon="7.8700485"><ele>294.0</ele><time>2026-04-12T08:56:57.995Z</time></trkpt><trkpt lat="44.619078" lon="7.8700285"><ele>294.0</ele><time>2026-04-12T08:56:59.994Z</time></trkpt><trkpt lat="44.6191839" lon="7.8700181"><ele>294.0</ele><time>2026-04-12T08:57:01.994Z</time></trkpt><trkpt lat="44.6192852" lon="7.8700077"><ele>294.0</ele><time>2026-04-12T08:57:03.995Z</time></trkpt><trkpt lat="44.619388" lon="7.8699937"><ele>294.0</ele><time>2026-04-12T08:57:05.995Z</time></trkpt><trkpt lat="44.6194887" lon="7.8699692"><ele>294.0</ele><time>2026-04-12T08:57:07.996Z</time></trkpt><trkpt lat="44.6195893" lon="7.8699557"><ele>294.0</ele><time>2026-04-12T08:57:09.995Z</time></trkpt><trkpt lat="44.6196845" lon="7.8699218"><ele>294.0</ele><time>2026-04-12T08:57:11.995Z</time></trkpt><trkpt lat="44.6197608" lon="7.8698449"><ele>294.0</ele><time>2026-04-12T08:57:13.995Z</time></trkpt><trkpt lat="44.619835" lon="7.8697467"><ele>294.0</ele><time>2026-04-12T08:57:15.996Z</time></trkpt><trkpt lat="44.6199171" lon="7.8696467"><ele>294.0</ele><time>2026-04-12T08:57:17.995Z</time></trkpt><trkpt lat="44.62" lon="7.8695558"><ele>294.0</ele><time>2026-04-12T08:57:19.995Z</time></trkpt><trkpt lat="44.6200887" lon="7.8694799"><ele>294.0</ele><time>2026-04-12T08:57:21.995Z</time></trkpt><trkpt lat="44.6201813" lon="7.8693975"><ele>294.0</ele><time>2026-04-12T08:57:23.996Z</time></trkpt><trkpt lat="44.6202752" lon="7.8693179"><ele>294.0</ele><time>2026-04-12T08:57:25.994Z</time></trkpt><trkpt lat="44.6203724" lon="7.8692392"><ele>294.0</ele><time>2026-04-12T08:57:27.995Z</time></trkpt><trkpt lat="44.6204728" lon="7.8691657"><ele>294.0</ele><time>2026-04-12T08:57:29.994Z</time></trkpt><trkpt lat="44.6205745" lon="7.8690914"><ele>293.8</ele><time>2026-04-12T08:57:31.996Z</time></trkpt><trkpt lat="44.620673" lon="7.8690152"><ele>293.59999999999997</ele><time>2026-04-12T08:57:33.996Z</time></trkpt><trkpt lat="44.6207706" lon="7.8689422"><ele>293.4</ele><time>2026-04-12T08:57:35.995Z</time></trkpt><trkpt lat="44.6208638" lon="7.8688686"><ele>293.2</ele><time>2026-04-12T08:57:37.996Z</time></trkpt><trkpt lat="44.6209634" lon="7.8688097"><ele>293.0</ele><time>2026-04-12T08:57:39.994Z</time></trkpt><trkpt lat="44.621066" lon="7.8687472"><ele>293.0</ele><time>2026-04-12T08:57:41.995Z</time></trkpt><trkpt lat="44.621168" lon="7.8686778"><ele>293.0</ele><time>2026-04-12T08:57:43.996Z</time></trkpt><trkpt lat="44.6212662" lon="7.8686108"><ele>293.0</ele><time>2026-04-12T08:57:45.996Z</time></trkpt><trkpt lat="44.6213652" lon="7.8685485"><ele>293.0</ele><time>2026-04-12T08:57:47.995Z</time></trkpt><trkpt lat="44.6214663" lon="7.8684874"><ele>293.0</ele><time>2026-04-12T08:57:49.995Z</time></trkpt><trkpt lat="44.6215666" lon="7.8684286"><ele>293.0</ele><time>2026-04-12T08:57:51.996Z</time></trkpt><trkpt lat="44.6216653" lon="7.8683663"><ele>293.0</ele><time>2026-04-12T08:57:53.996Z</time></trkpt><trkpt lat="44.6217652" lon="7.8682987"><ele>293.0</ele><time>2026-04-12T08:57:55.995Z</time></trkpt><trkpt lat="44.6218621" lon="7.8682281"><ele>293.0</ele><time>2026-04-12T08:57:57.996Z</time></trkpt><trkpt lat="44.6219592" lon="7.8681514"><ele>293.0</ele><time>2026-04-12T08:57:59.995Z</time></trkpt><trkpt lat="44.6220555" lon="7.8680719"><ele>293.0</ele><time>2026-04-12T08:58:01.995Z</time></trkpt><trkpt lat="44.6221481" lon="7.8679934"><ele>293.0</ele><time>2026-04-12T08:58:03.995Z</time></trkpt><trkpt lat="44.6222431" lon="7.8679238"><ele>293.0</ele><time>2026-04-12T08:58:05.995Z</time></trkpt><trkpt lat="44.6223466" lon="7.8678436"><ele>293.0</ele><time>2026-04-12T08:58:07.996Z</time></trkpt><trkpt lat="44.6224502" lon="7.8677634"><ele>293.0</ele><time>2026-04-12T08:58:09.996Z</time></trkpt><trkpt lat="44.6225482" lon="7.8676778"><ele>293.0</ele><time>2026-04-12T08:58:11.996Z</time></trkpt><trkpt lat="44.6226475" lon="7.8676018"><ele>293.0</ele><time>2026-04-12T08:58:13.995Z</time></trkpt><trkpt lat="44.62275" lon="7.8675253"><ele>293.0</ele><time>2026-04-12T08:58:15.995Z</time></trkpt><trkpt lat="44.622851" lon="7.8674462"><ele>293.0</ele><time>2026-04-12T08:58:17.995Z</time></trkpt><trkpt lat="44.6229539" lon="7.867371"><ele>293.0</ele><time>2026-04-12T08:58:19.996Z</time></trkpt><trkpt lat="44.6230512" lon="7.8672898"><ele>293.0</ele><time>2026-04-12T08:58:21.995Z</time></trkpt><trkpt lat="44.623145" lon="7.8672103"><ele>293.0</ele><time>2026-04-12T08:58:23.996Z</time></trkpt><trkpt lat="44.6232428" lon="7.8671356"><ele>293.0</ele><time>2026-04-12T08:58:25.996Z</time></trkpt><trkpt lat="44.6233348" lon="7.8670612"><ele>293.0</ele><time>2026-04-12T08:58:27.995Z</time></trkpt><trkpt lat="44.6234316" lon="7.8669826"><ele>293.0</ele><time>2026-04-12T08:58:29.996Z</time></trkpt><trkpt lat="44.6235321" lon="7.8669118"><ele>293.0</ele><time>2026-04-12T08:58:31.995Z</time></trkpt><trkpt lat="44.6236273" lon="7.8668391"><ele>293.0</ele><time>2026-04-12T08:58:33.994Z</time></trkpt><trkpt lat="44.6237284" lon="7.866774"><ele>292.8</ele><time>2026-04-12T08:58:35.995Z</time></trkpt><trkpt lat="44.6238216" lon="7.8667049"><ele>292.6</ele><time>2026-04-12T08:58:37.996Z</time></trkpt><trkpt lat="44.6239145" lon="7.866635"><ele>292.4</ele><time>2026-04-12T08:58:39.996Z</time></trkpt><trkpt lat="44.6239924" lon="7.8665459"><ele>292.2</ele><time>2026-04-12T08:58:41.996Z</time></trkpt><trkpt lat="44.6240646" lon="7.8664558"><ele>292.0</ele><time>2026-04-12T08:58:43.995Z</time></trkpt><trkpt lat="44.6241082" lon="7.8663447"><ele>292.0</ele><time>2026-04-12T08:58:45.995Z</time></trkpt><trkpt lat="44.6241139" lon="7.8662196"><ele>292.0</ele><time>2026-04-12T08:58:47.995Z</time></trkpt><trkpt lat="44.6240895" lon="7.8661"><ele>292.0</ele><time>2026-04-12T08:58:49.995Z</time></trkpt><trkpt lat="44.6240598" lon="7.8659803"><ele>292.0</ele><time>2026-04-12T08:58:51.994Z</time></trkpt><trkpt lat="44.6240254" lon="7.865854"><ele>292.0</ele><time>2026-04-12T08:58:53.995Z</time></trkpt><trkpt lat="44.6239837" lon="7.8657216"><ele>292.2</ele><time>2026-04-12T08:58:55.995Z</time></trkpt><trkpt lat="44.6239422" lon="7.8655889"><ele>292.4</ele><time>2026-04-12T08:58:57.995Z</time></trkpt><trkpt lat="44.6239252" lon="7.8654599"><ele>292.6</ele><time>2026-04-12T08:58:59.995Z</time></trkpt><trkpt lat="44.6239104" lon="7.8653287"><ele>292.8</ele><time>2026-04-12T08:59:01.995Z</time></trkpt><trkpt lat="44.6238994" lon="7.8652052"><ele>293.0</ele><time>2026-04-12T08:59:03.995Z</time></trkpt><trkpt lat="44.6239052" lon="7.8650899"><ele>293.2</ele><time>2026-04-12T08:59:05.995Z</time></trkpt><trkpt lat="44.6239534" lon="7.8649964"><ele>293.4</ele><time>2026-04-12T08:59:07.995Z</time></trkpt><trkpt lat="44.6240243" lon="7.8649226"><ele>293.59999999999997</ele><time>2026-04-12T08:59:09.995Z</time></trkpt><trkpt lat="44.6241058" lon="7.8648591"><ele>293.8</ele><time>2026-04-12T08:59:11.997Z</time></trkpt><trkpt lat="44.6241883" lon="7.8648041"><ele>294.0</ele><time>2026-04-12T08:59:13.995Z</time></trkpt><trkpt lat="44.6242681" lon="7.8647312"><ele>294.0</ele><time>2026-04-12T08:59:15.996Z</time></trkpt><trkpt lat="44.6243509" lon="7.864654"><ele>294.0</ele><time>2026-04-12T08:59:17.996Z</time></trkpt><trkpt lat="44.6244368" lon="7.864573"><ele>294.0</ele><time>2026-04-12T08:59:19.995Z</time></trkpt><trkpt lat="44.6245152" lon="7.8644806"><ele>294.0</ele><time>2026-04-12T08:59:21.995Z</time></trkpt><trkpt lat="44.6245991" lon="7.8644001"><ele>294.0</ele><time>2026-04-12T08:59:23.995Z</time></trkpt><trkpt lat="44.6246719" lon="7.8643163"><ele>293.59999999999997</ele><time>2026-04-12T08:59:25.996Z</time></trkpt><trkpt lat="44.6247456" lon="7.8642378"><ele>293.2</ele><time>2026-04-12T08:59:27.996Z</time></trkpt><trkpt lat="44.6248231" lon="7.8641655"><ele>292.79999999999995</ele><time>2026-04-12T08:59:29.996Z</time></trkpt><trkpt lat="44.6249047" lon="7.8640815"><ele>292.4</ele><time>2026-04-12T08:59:31.995Z</time></trkpt><trkpt lat="44.6249846" lon="7.863997"><ele>292.0</ele><time>2026-04-12T08:59:33.995Z</time></trkpt><trkpt lat="44.6250699" lon="7.8639401"><ele>292.0</ele><time>2026-04-12T08:59:35.995Z</time></trkpt><trkpt lat="44.6251455" lon="7.8638977"><ele>292.0</ele><time>2026-04-12T08:59:37.996Z</time></trkpt><trkpt lat="44.6252111" lon="7.8638464"><ele>292.0</ele><time>2026-04-12T08:59:39.995Z</time></trkpt><trkpt lat="44.6252731" lon="7.8637974"><ele>292.0</ele><time>2026-04-12T08:59:41.995Z</time></trkpt><trkpt lat="44.6253346" lon="7.8637423"><ele>292.0</ele><time>2026-04-12T08:59:43.994Z</time></trkpt><trkpt lat="44.6253988" lon="7.8636841"><ele>292.0</ele><time>2026-04-12T08:59:45.995Z</time></trkpt><trkpt lat="44.625456" lon="7.8636204"><ele>291.8</ele><time>2026-04-12T08:59:47.995Z</time></trkpt><trkpt lat="44.6255176" lon="7.8635578"><ele>291.6</ele><time>2026-04-12T08:59:49.995Z</time></trkpt><trkpt lat="44.6255913" lon="7.863499"><ele>291.40000000000003</ele><time>2026-04-12T08:59:51.996Z</time></trkpt><trkpt lat="44.6256824" lon="7.8634656"><ele>291.2</ele><time>2026-04-12T08:59:53.995Z</time></trkpt><trkpt lat="44.6257861" lon="7.8634831"><ele>291.0</ele><time>2026-04-12T08:59:55.996Z</time></trkpt><trkpt lat="44.6258952" lon="7.8635313"><ele>291.0</ele><time>2026-04-12T08:59:57.995Z</time></trkpt><trkpt lat="44.6260116" lon="7.8635851"><ele>291.0</ele><time>2026-04-12T08:59:59.995Z</time></trkpt><trkpt lat="44.6260696" lon="7.8636223"><ele>291.0</ele><time>2026-04-12T09:00:00.995Z</time></trkpt><trkpt lat="44.6261337" lon="7.8636476"><ele>291.0</ele><time>2026-04-12T09:00:01.996Z</time></trkpt><trkpt lat="44.6261948" lon="7.8636815"><ele>291.0</ele><time>2026-04-12T09:00:02.995Z</time></trkpt><trkpt lat="44.6262608" lon="7.8637054"><ele>291.0</ele><time>2026-04-12T09:00:03.996Z</time></trkpt><trkpt lat="44.6263252" lon="7.8637189"><ele>290.57142857142856</ele><time>2026-04-12T09:00:04.996Z</time></trkpt><trkpt lat="44.6263933" lon="7.8637391"><ele>290.1428571428571</ele><time>2026-04-12T09:00:05.995Z</time></trkpt><trkpt lat="44.6264632" lon="7.863747"><ele>289.7142857142857</ele><time>2026-04-12T09:00:06.996Z</time></trkpt><trkpt lat="44.6265292" lon="7.8637437"><ele>289.2857142857143</ele><time>2026-04-12T09:00:07.995Z</time></trkpt><trkpt lat="44.6265958" lon="7.8637257"><ele>288.8571428571429</ele><time>2026-04-12T09:00:08.995Z</time></trkpt><trkpt lat="44.626659" lon="7.8637039"><ele>288.42857142857144</ele><time>2026-04-12T09:00:09.996Z</time></trkpt><trkpt lat="44.6267191" lon="7.8636743"><ele>288.0</ele><time>2026-04-12T09:00:10.995Z</time></trkpt><trkpt lat="44.6268343" lon="7.8636184"><ele>288.0</ele><time>2026-04-12T09:00:12.995Z</time></trkpt><trkpt lat="44.6269454" lon="7.8635506"><ele>288.0</ele><time>2026-04-12T09:00:14.995Z</time></trkpt><trkpt lat="44.6270541" lon="7.8634864"><ele>288.0</ele><time>2026-04-12T09:00:16.995Z</time></trkpt><trkpt lat="44.6271538" lon="7.8634127"><ele>288.0</ele><time>2026-04-12T09:00:18.996Z</time></trkpt><trkpt lat="44.6272541" lon="7.8633439"><ele>288.8</ele><time>2026-04-12T09:00:20.995Z</time></trkpt><trkpt lat="44.6273527" lon="7.8632726"><ele>289.6</ele><time>2026-04-12T09:00:22.995Z</time></trkpt><trkpt lat="44.6274494" lon="7.8632121"><ele>290.4</ele><time>2026-04-12T09:00:24.995Z</time></trkpt><trkpt lat="44.6275467" lon="7.8631491"><ele>291.2</ele><time>2026-04-12T09:00:26.995Z</time></trkpt><trkpt lat="44.6276443" lon="7.8630807"><ele>292.0</ele><time>2026-04-12T09:00:28.995Z</time></trkpt><trkpt lat="44.6277454" lon="7.8630124"><ele>289.75</ele><time>2026-04-12T09:00:30.995Z</time></trkpt><trkpt lat="44.6278408" lon="7.8629317"><ele>287.5</ele><time>2026-04-12T09:00:32.995Z</time></trkpt><trkpt lat="44.6279359" lon="7.8628515"><ele>285.25</ele><time>2026-04-12T09:00:34.995Z</time></trkpt><trkpt lat="44.6280379" lon="7.8627757"><ele>283.0</ele><time>2026-04-12T09:00:36.995Z</time></trkpt><trkpt lat="44.6281425" lon="7.8627019"><ele>283.0</ele><time>2026-04-12T09:00:38.995Z</time></trkpt><trkpt lat="44.6282408" lon="7.8626472"><ele>283.0</ele><time>2026-04-12T09:00:40.994Z</time></trkpt><trkpt lat="44.6283435" lon="7.8625835"><ele>283.0</ele><time>2026-04-12T09:00:42.995Z</time></trkpt><trkpt lat="44.6284406" lon="7.8625175"><ele>283.0</ele><time>2026-04-12T09:00:44.996Z</time></trkpt><trkpt lat="44.6285364" lon="7.8624478"><ele>283.0</ele><time>2026-04-12T09:00:46.996Z</time></trkpt><trkpt lat="44.6286289" lon="7.8623637"><ele>284.2</ele><time>2026-04-12T09:00:48.995Z</time></trkpt><trkpt lat="44.6287207" lon="7.862288"><ele>285.4</ele><time>2026-04-12T09:00:50.996Z</time></trkpt><trkpt lat="44.6288112" lon="7.8622075"><ele>286.59999999999997</ele><time>2026-04-12T09:00:52.996Z</time></trkpt><trkpt lat="44.6289024" lon="7.8621316"><ele>287.8</ele><time>2026-04-12T09:00:54.995Z</time></trkpt><trkpt lat="44.6290029" lon="7.8620715"><ele>289.0</ele><time>2026-04-12T09:00:56.996Z</time></trkpt><trkpt lat="44.6291115" lon="7.862035"><ele>289.0</ele><time>2026-04-12T09:00:58.995Z</time></trkpt><trkpt lat="44.6292234" lon="7.8620063"><ele>289.0</ele><time>2026-04-12T09:01:00.995Z</time></trkpt><trkpt lat="44.629339" lon="7.8619878"><ele>289.0</ele><time>2026-04-12T09:01:02.995Z</time></trkpt><trkpt lat="44.6294564" lon="7.861978"><ele>289.0</ele><time>2026-04-12T09:01:04.995Z</time></trkpt><trkpt lat="44.6295669" lon="7.8619877"><ele>288.75</ele><time>2026-04-12T09:01:06.994Z</time></trkpt><trkpt lat="44.6296767" lon="7.8620049"><ele>288.5</ele><time>2026-04-12T09:01:08.996Z</time></trkpt><trkpt lat="44.6297828" lon="7.8620372"><ele>288.25</ele><time>2026-04-12T09:01:10.995Z</time></trkpt><trkpt lat="44.6298944" lon="7.8620629"><ele>288.0</ele><time>2026-04-12T09:01:12.995Z</time></trkpt><trkpt lat="44.6300133" lon="7.8620834"><ele>288.0</ele><time>2026-04-12T09:01:14.995Z</time></trkpt><trkpt lat="44.6301141" lon="7.8620965"><ele>288.0</ele><time>2026-04-12T09:01:16.995Z</time></trkpt><trkpt lat="44.6302189" lon="7.8621062"><ele>288.0</ele><time>2026-04-12T09:01:18.995Z</time></trkpt><trkpt lat="44.63032" lon="7.8621027"><ele>288.0</ele><time>2026-04-12T09:01:20.995Z</time></trkpt><trkpt lat="44.6304153" lon="7.8620911"><ele>288.0</ele><time>2026-04-12T09:01:22.996Z</time></trkpt><trkpt lat="44.630523" lon="7.862079"><ele>287.6</ele><time>2026-04-12T09:01:24.995Z</time></trkpt><trkpt lat="44.6306323" lon="7.862066"><ele>287.20000000000005</ele><time>2026-04-12T09:01:26.995Z</time></trkpt><trkpt lat="44.630741" lon="7.8620342"><ele>286.8</ele><time>2026-04-12T09:01:28.995Z</time></trkpt><trkpt lat="44.6308467" lon="7.8620045"><ele>286.40000000000003</ele><time>2026-04-12T09:01:30.995Z</time></trkpt><trkpt lat="44.630952" lon="7.861969"><ele>286.0</ele><time>2026-04-12T09:01:32.995Z</time></trkpt><trkpt lat="44.6310551" lon="7.8619276"><ele>285.8</ele><time>2026-04-12T09:01:34.996Z</time></trkpt><trkpt lat="44.6311594" lon="7.8619044"><ele>285.6</ele><time>2026-04-12T09:01:36.995Z</time></trkpt><trkpt lat="44.6312648" lon="7.8618707"><ele>285.4</ele><time>2026-04-12T09:01:38.995Z</time></trkpt><trkpt lat="44.6313778" lon="7.8618314"><ele>285.2</ele><time>2026-04-12T09:01:40.995Z</time></trkpt><trkpt lat="44.631494" lon="7.8618078"><ele>285.0</ele><time>2026-04-12T09:01:42.995Z</time></trkpt><trkpt lat="44.6316012" lon="7.8617919"><ele>286.0</ele><time>2026-04-12T09:01:44.995Z</time></trkpt><trkpt lat="44.6317121" lon="7.8617799"><ele>287.0</ele><time>2026-04-12T09:01:46.995Z</time></trkpt><trkpt lat="44.6318274" lon="7.8617619"><ele>288.0</ele><time>2026-04-12T09:01:48.995Z</time></trkpt><trkpt lat="44.6319357" lon="7.8617617"><ele>289.0</ele><time>2026-04-12T09:01:50.996Z</time></trkpt><trkpt lat="44.63205" lon="7.8617729"><ele>289.0</ele><time>2026-04-12T09:01:52.995Z</time></trkpt><trkpt lat="44.6321668" lon="7.861771"><ele>289.0</ele><time>2026-04-12T09:01:54.995Z</time></trkpt><trkpt lat="44.6322766" lon="7.8617766"><ele>289.0</ele><time>2026-04-12T09:01:56.996Z</time></trkpt><trkpt lat="44.6323396" lon="7.8617785"><ele>289.0</ele><time>2026-04-12T09:01:57.995Z</time></trkpt><trkpt lat="44.6324555" lon="7.8617867"><ele>289.0</ele><time>2026-04-12T09:01:59.995Z</time></trkpt><trkpt lat="44.6325204" lon="7.8617887"><ele>289.0</ele><time>2026-04-12T09:02:00.994Z</time></trkpt><trkpt lat="44.6326419" lon="7.861789"><ele>289.0</ele><time>2026-04-12T09:02:02.995Z</time></trkpt><trkpt lat="44.6327578" lon="7.8617919"><ele>289.0</ele><time>2026-04-12T09:02:04.996Z</time></trkpt><trkpt lat="44.6328737" lon="7.8617904"><ele>289.0</ele><time>2026-04-12T09:02:06.995Z</time></trkpt><trkpt lat="44.6329928" lon="7.8617793"><ele>289.0</ele><time>2026-04-12T09:02:08.995Z</time></trkpt><trkpt lat="44.6331066" lon="7.861755"><ele>289.0</ele><time>2026-04-12T09:02:10.996Z</time></trkpt><trkpt lat="44.6332201" lon="7.8617183"><ele>289.0</ele><time>2026-04-12T09:02:12.996Z</time></trkpt><trkpt lat="44.6333329" lon="7.8616711"><ele>289.0</ele><time>2026-04-12T09:02:14.994Z</time></trkpt><trkpt lat="44.6334441" lon="7.8616195"><ele>289.0</ele><time>2026-04-12T09:02:16.996Z</time></trkpt><trkpt lat="44.633553" lon="7.8615721"><ele>289.0</ele><time>2026-04-12T09:02:18.995Z</time></trkpt><trkpt lat="44.6336544" lon="7.8615204"><ele>289.0</ele><time>2026-04-12T09:02:20.995Z</time></trkpt><trkpt lat="44.6337598" lon="7.8614714"><ele>289.0</ele><time>2026-04-12T09:02:22.995Z</time></trkpt><trkpt lat="44.6338709" lon="7.8614207"><ele>288.0</ele><time>2026-04-12T09:02:24.995Z</time></trkpt><trkpt lat="44.6339793" lon="7.8613758"><ele>287.0</ele><time>2026-04-12T09:02:26.995Z</time></trkpt><trkpt lat="44.6340868" lon="7.86133"><ele>286.0</ele><time>2026-04-12T09:02:28.995Z</time></trkpt><trkpt lat="44.6342016" lon="7.861281"><ele>285.0</ele><time>2026-04-12T09:02:30.996Z</time></trkpt><trkpt lat="44.6343099" lon="7.8612349"><ele>285.0</ele><time>2026-04-12T09:02:32.995Z</time></trkpt><trkpt lat="44.6344156" lon="7.861187"><ele>285.0</ele><time>2026-04-12T09:02:34.995Z</time></trkpt><trkpt lat="44.6345186" lon="7.8611238"><ele>285.0</ele><time>2026-04-12T09:02:36.996Z</time></trkpt><trkpt lat="44.6346249" lon="7.8610523"><ele>285.0</ele><time>2026-04-12T09:02:38.996Z</time></trkpt><trkpt lat="44.6347217" lon="7.8609669"><ele>285.6</ele><time>2026-04-12T09:02:40.996Z</time></trkpt><trkpt lat="44.6348125" lon="7.8608737"><ele>286.2</ele><time>2026-04-12T09:02:42.995Z</time></trkpt><trkpt lat="44.6348965" lon="7.8607757"><ele>286.8</ele><time>2026-04-12T09:02:44.996Z</time></trkpt><trkpt lat="44.6349822" lon="7.8606711"><ele>287.4</ele><time>2026-04-12T09:02:46.996Z</time></trkpt><trkpt lat="44.6350639" lon="7.860564"><ele>288.0</ele><time>2026-04-12T09:02:48.996Z</time></trkpt><trkpt lat="44.6351423" lon="7.8604555"><ele>288.0</ele><time>2026-04-12T09:02:50.996Z</time></trkpt><trkpt lat="44.6352252" lon="7.8603369"><ele>288.0</ele><time>2026-04-12T09:02:52.996Z</time></trkpt><trkpt lat="44.6352945" lon="7.8602147"><ele>288.0</ele><time>2026-04-12T09:02:54.996Z</time></trkpt><trkpt lat="44.635368" lon="7.8600994"><ele>288.0</ele><time>2026-04-12T09:02:56.996Z</time></trkpt><trkpt lat="44.6354466" lon="7.8599722"><ele>287.8</ele><time>2026-04-12T09:02:58.995Z</time></trkpt><trkpt lat="44.6355109" lon="7.8598435"><ele>287.6</ele><time>2026-04-12T09:03:00.995Z</time></trkpt><trkpt lat="44.6355533" lon="7.8597721"><ele>287.4</ele><time>2026-04-12T09:03:01.995Z</time></trkpt><trkpt lat="44.6356378" lon="7.859657"><ele>287.2</ele><time>2026-04-12T09:03:03.995Z</time></trkpt><trkpt lat="44.6357418" lon="7.8595949"><ele>287.0</ele><time>2026-04-12T09:03:05.996Z</time></trkpt><trkpt lat="44.6358558" lon="7.8595691"><ele>287.0</ele><time>2026-04-12T09:03:07.995Z</time></trkpt><trkpt lat="44.6359711" lon="7.8595694"><ele>287.0</ele><time>2026-04-12T09:03:09.995Z</time></trkpt><trkpt lat="44.6360866" lon="7.8595855"><ele>287.0</ele><time>2026-04-12T09:03:11.995Z</time></trkpt><trkpt lat="44.6361946" lon="7.8596208"><ele>287.0</ele><time>2026-04-12T09:03:13.995Z</time></trkpt><trkpt lat="44.6362974" lon="7.8596705"><ele>286.75</ele><time>2026-04-12T09:03:15.995Z</time></trkpt><trkpt lat="44.6364095" lon="7.8597291"><ele>286.5</ele><time>2026-04-12T09:03:17.995Z</time></trkpt><trkpt lat="44.6365206" lon="7.8597695"><ele>286.25</ele><time>2026-04-12T09:03:19.996Z</time></trkpt><trkpt lat="44.6366301" lon="7.8598073"><ele>286.0</ele><time>2026-04-12T09:03:21.995Z</time></trkpt><trkpt lat="44.6367389" lon="7.8598381"><ele>286.0</ele><time>2026-04-12T09:03:23.995Z</time></trkpt><trkpt lat="44.6368501" lon="7.8598702"><ele>286.0</ele><time>2026-04-12T09:03:25.996Z</time></trkpt><trkpt lat="44.6369598" lon="7.8598891"><ele>286.0</ele><time>2026-04-12T09:03:27.995Z</time></trkpt><trkpt lat="44.6370643" lon="7.859886"><ele>286.0</ele><time>2026-04-12T09:03:29.996Z</time></trkpt><trkpt lat="44.6371743" lon="7.8599127"><ele>286.0</ele><time>2026-04-12T09:03:31.996Z</time></trkpt><trkpt lat="44.6372862" lon="7.8599374"><ele>286.5</ele><time>2026-04-12T09:03:33.996Z</time></trkpt><trkpt lat="44.6373932" lon="7.8599584"><ele>287.0</ele><time>2026-04-12T09:03:35.995Z</time></trkpt><trkpt lat="44.6375089" lon="7.8599759"><ele>287.5</ele><time>2026-04-12T09:03:37.996Z</time></trkpt><trkpt lat="44.6376224" lon="7.8599835"><ele>288.0</ele><time>2026-04-12T09:03:39.995Z</time></trkpt><trkpt lat="44.6377397" lon="7.8599885"><ele>287.75</ele><time>2026-04-12T09:03:41.995Z</time></trkpt><trkpt lat="44.6378561" lon="7.859992"><ele>287.5</ele><time>2026-04-12T09:03:43.995Z</time></trkpt><trkpt lat="44.6379762" lon="7.8600055"><ele>287.25</ele><time>2026-04-12T09:03:45.996Z</time></trkpt><trkpt lat="44.6380888" lon="7.860017"><ele>287.0</ele><time>2026-04-12T09:03:47.995Z</time></trkpt><trkpt lat="44.6382026" lon="7.8600145"><ele>287.0</ele><time>2026-04-12T09:03:49.995Z</time></trkpt><trkpt lat="44.6383106" lon="7.8600061"><ele>287.0</ele><time>2026-04-12T09:03:51.996Z</time></trkpt><trkpt lat="44.6384223" lon="7.859994"><ele>287.0</ele><time>2026-04-12T09:03:53.997Z</time></trkpt><trkpt lat="44.6385341" lon="7.8599795"><ele>287.0</ele><time>2026-04-12T09:03:55.995Z</time></trkpt><trkpt lat="44.6386452" lon="7.8599713"><ele>287.0</ele><time>2026-04-12T09:03:57.995Z</time></trkpt><trkpt lat="44.6387578" lon="7.8599676"><ele>286.8</ele><time>2026-04-12T09:03:59.995Z</time></trkpt><trkpt lat="44.6388712" lon="7.859963"><ele>286.6</ele><time>2026-04-12T09:04:01.996Z</time></trkpt><trkpt lat="44.6389818" lon="7.8599578"><ele>286.40000000000003</ele><time>2026-04-12T09:04:03.996Z</time></trkpt><trkpt lat="44.6390939" lon="7.8599477"><ele>286.2</ele><time>2026-04-12T09:04:05.995Z</time></trkpt><trkpt lat="44.6392006" lon="7.8599248"><ele>286.0</ele><time>2026-04-12T09:04:07.995Z</time></trkpt><trkpt lat="44.6393067" lon="7.8599193"><ele>286.0</ele><time>2026-04-12T09:04:09.995Z</time></trkpt><trkpt lat="44.6394169" lon="7.8599088"><ele>286.0</ele><time>2026-04-12T09:04:11.996Z</time></trkpt><trkpt lat="44.6395206" lon="7.8598986"><ele>286.0</ele><time>2026-04-12T09:04:13.995Z</time></trkpt><trkpt lat="44.6396277" lon="7.8598894"><ele>286.0</ele><time>2026-04-12T09:04:15.995Z</time></trkpt><trkpt lat="44.6397263" lon="7.8598583"><ele>286.0</ele><time>2026-04-12T09:04:17.996Z</time></trkpt><trkpt lat="44.6398149" lon="7.8598302"><ele>286.0</ele><time>2026-04-12T09:04:19.995Z</time></trkpt><trkpt lat="44.639925" lon="7.8598248"><ele>286.0</ele><time>2026-04-12T09:04:21.995Z</time></trkpt><trkpt lat="44.6400411" lon="7.8598234"><ele>286.0</ele><time>2026-04-12T09:04:23.995Z</time></trkpt><trkpt lat="44.6401493" lon="7.8598187"><ele>286.0</ele><time>2026-04-12T09:04:25.995Z</time></trkpt><trkpt lat="44.6402585" lon="7.8598248"><ele>286.0</ele><time>2026-04-12T09:04:27.995Z</time></trkpt><trkpt lat="44.640365" lon="7.859838"><ele>285.8</ele><time>2026-04-12T09:04:29.995Z</time></trkpt><trkpt lat="44.6404683" lon="7.8598591"><ele>285.6</ele><time>2026-04-12T09:04:31.995Z</time></trkpt><trkpt lat="44.6405724" lon="7.8598842"><ele>285.4</ele><time>2026-04-12T09:04:33.995Z</time></trkpt><trkpt lat="44.6406766" lon="7.8599052"><ele>285.2</ele><time>2026-04-12T09:04:35.996Z</time></trkpt><trkpt lat="44.6407753" lon="7.8599154"><ele>285.0</ele><time>2026-04-12T09:04:37.996Z</time></trkpt><trkpt lat="44.6408808" lon="7.8599405"><ele>285.0</ele><time>2026-04-12T09:04:39.995Z</time></trkpt><trkpt lat="44.640981" lon="7.8599726"><ele>285.0</ele><time>2026-04-12T09:04:41.995Z</time></trkpt><trkpt lat="44.6410823" lon="7.8600287"><ele>285.0</ele><time>2026-04-12T09:04:43.995Z</time></trkpt><trkpt lat="44.641186" lon="7.8600927"><ele>285.0</ele><time>2026-04-12T09:04:45.996Z</time></trkpt><trkpt lat="44.6412895" lon="7.8601571"><ele>285.0</ele><time>2026-04-12T09:04:47.995Z</time></trkpt><trkpt lat="44.6413936" lon="7.8602333"><ele>283.75</ele><time>2026-04-12T09:04:49.995Z</time></trkpt><trkpt lat="44.6415044" lon="7.8603078"><ele>282.5</ele><time>2026-04-12T09:04:51.995Z</time></trkpt><trkpt lat="44.6416113" lon="7.8603585"><ele>281.25</ele><time>2026-04-12T09:04:53.996Z</time></trkpt><trkpt lat="44.6417276" lon="7.8603798"><ele>280.0</ele><time>2026-04-12T09:04:55.996Z</time></trkpt><trkpt lat="44.6418397" lon="7.8603843"><ele>280.0</ele><time>2026-04-12T09:04:57.995Z</time></trkpt><trkpt lat="44.6419509" lon="7.860406"><ele>280.0</ele><time>2026-04-12T09:04:59.995Z</time></trkpt><trkpt lat="44.6420642" lon="7.8604244"><ele>280.0</ele><time>2026-04-12T09:05:01.996Z</time></trkpt><trkpt lat="44.6421813" lon="7.8604345"><ele>280.0</ele><time>2026-04-12T09:05:03.995Z</time></trkpt><trkpt lat="44.6422989" lon="7.8604545"><ele>280.6</ele><time>2026-04-12T09:05:05.996Z</time></trkpt><trkpt lat="44.6424076" lon="7.8604798"><ele>281.2</ele><time>2026-04-12T09:05:07.995Z</time></trkpt><trkpt lat="44.6425111" lon="7.8605087"><ele>281.8</ele><time>2026-04-12T09:05:09.995Z</time></trkpt><trkpt lat="44.6426131" lon="7.8605374"><ele>282.4</ele><time>2026-04-12T09:05:11.995Z</time></trkpt><trkpt lat="44.6427063" lon="7.8605948"><ele>283.0</ele><time>2026-04-12T09:05:13.995Z</time></trkpt><trkpt lat="44.6428073" lon="7.8606675"><ele>282.5</ele><time>2026-04-12T09:05:15.995Z</time></trkpt><trkpt lat="44.642906" lon="7.8607535"><ele>282.0</ele><time>2026-04-12T09:05:17.996Z</time></trkpt><trkpt lat="44.6429977" lon="7.8608511"><ele>281.5</ele><time>2026-04-12T09:05:19.996Z</time></trkpt><trkpt lat="44.6430882" lon="7.8609477"><ele>281.0</ele><time>2026-04-12T09:05:21.995Z</time></trkpt><trkpt lat="44.6431842" lon="7.8610234"><ele>281.0</ele><time>2026-04-12T09:05:23.995Z</time></trkpt><trkpt lat="44.6432881" lon="7.8610935"><ele>281.0</ele><time>2026-04-12T09:05:25.995Z</time></trkpt><trkpt lat="44.6433996" lon="7.8611423"><ele>281.0</ele><time>2026-04-12T09:05:27.995Z</time></trkpt><trkpt lat="44.6435131" lon="7.8611774"><ele>281.0</ele><time>2026-04-12T09:05:29.995Z</time></trkpt><trkpt lat="44.6436229" lon="7.8612097"><ele>281.8</ele><time>2026-04-12T09:05:31.996Z</time></trkpt><trkpt lat="44.6437329" lon="7.8612542"><ele>282.6</ele><time>2026-04-12T09:05:33.996Z</time></trkpt><trkpt lat="44.6438375" lon="7.8613134"><ele>283.4</ele><time>2026-04-12T09:05:35.995Z</time></trkpt><trkpt lat="44.6439287" lon="7.8613823"><ele>284.2</ele><time>2026-04-12T09:05:37.995Z</time></trkpt><trkpt lat="44.6440274" lon="7.8614628"><ele>285.0</ele><time>2026-04-12T09:05:39.995Z</time></trkpt><trkpt lat="44.6441242" lon="7.8615316"><ele>285.0</ele><time>2026-04-12T09:05:41.996Z</time></trkpt><trkpt lat="44.6442157" lon="7.8616051"><ele>285.0</ele><time>2026-04-12T09:05:43.995Z</time></trkpt><trkpt lat="44.644308" lon="7.8616803"><ele>285.0</ele><time>2026-04-12T09:05:45.996Z</time></trkpt><trkpt lat="44.6444097" lon="7.8617252"><ele>285.0</ele><time>2026-04-12T09:05:47.995Z</time></trkpt><trkpt lat="44.6445065" lon="7.8617705"><ele>285.0</ele><time>2026-04-12T09:05:49.995Z</time></trkpt><trkpt lat="44.6446097" lon="7.8618074"><ele>283.4</ele><time>2026-04-12T09:05:51.996Z</time></trkpt><trkpt lat="44.6447111" lon="7.8618443"><ele>281.8</ele><time>2026-04-12T09:05:53.995Z</time></trkpt><trkpt lat="44.6448161" lon="7.8618824"><ele>280.2</ele><time>2026-04-12T09:05:55.996Z</time></trkpt><trkpt lat="44.6449261" lon="7.8619224"><ele>278.6</ele><time>2026-04-12T09:05:57.995Z</time></trkpt><trkpt lat="44.6450385" lon="7.8619489"><ele>277.0</ele><time>2026-04-12T09:05:59.996Z</time></trkpt><trkpt lat="44.645155" lon="7.8619672"><ele>277.0</ele><time>2026-04-12T09:06:01.995Z</time></trkpt><trkpt lat="44.6452715" lon="7.8619836"><ele>277.0</ele><time>2026-04-12T09:06:03.995Z</time></trkpt><trkpt lat="44.6453823" lon="7.861982"><ele>277.0</ele><time>2026-04-12T09:06:05.995Z</time></trkpt><trkpt lat="44.6454951" lon="7.8619793"><ele>277.0</ele><time>2026-04-12T09:06:07.995Z</time></trkpt><trkpt lat="44.6456055" lon="7.8619785"><ele>277.0</ele><time>2026-04-12T09:06:09.995Z</time></trkpt><trkpt lat="44.6457206" lon="7.8619762"><ele>277.0</ele><time>2026-04-12T09:06:11.996Z</time></trkpt><trkpt lat="44.6458347" lon="7.8619752"><ele>277.0</ele><time>2026-04-12T09:06:13.995Z</time></trkpt><trkpt lat="44.6459507" lon="7.8619768"><ele>277.0</ele><time>2026-04-12T09:06:15.996Z</time></trkpt><trkpt lat="44.6460672" lon="7.8619866"><ele>276.0</ele><time>2026-04-12T09:06:17.995Z</time></trkpt><trkpt lat="44.6461803" lon="7.8619871"><ele>275.0</ele><time>2026-04-12T09:06:19.995Z</time></trkpt><trkpt lat="44.646296" lon="7.8619758"><ele>274.0</ele><time>2026-04-12T09:06:21.995Z</time></trkpt><trkpt lat="44.6464119" lon="7.8619636"><ele>273.0</ele><time>2026-04-12T09:06:23.995Z</time></trkpt><trkpt lat="44.6465119" lon="7.8619286"><ele>272.0</ele><time>2026-04-12T09:06:25.996Z</time></trkpt><trkpt lat="44.6466165" lon="7.8618878"><ele>272.0</ele><time>2026-04-12T09:06:27.995Z</time></trkpt><trkpt lat="44.6467253" lon="7.8618507"><ele>272.0</ele><time>2026-04-12T09:06:29.995Z</time></trkpt><trkpt lat="44.6468356" lon="7.8618056"><ele>272.0</ele><time>2026-04-12T09:06:31.996Z</time></trkpt><trkpt lat="44.6469581" lon="7.8617631"><ele>272.0</ele><time>2026-04-12T09:06:33.995Z</time></trkpt><trkpt lat="44.6470695" lon="7.8617468"><ele>276.0</ele><time>2026-04-12T09:06:35.995Z</time></trkpt><trkpt lat="44.6471816" lon="7.8617332"><ele>280.0</ele><time>2026-04-12T09:06:37.995Z</time></trkpt><trkpt lat="44.6472948" lon="7.8617351"><ele>284.0</ele><time>2026-04-12T09:06:39.995Z</time></trkpt><trkpt lat="44.6474128" lon="7.8617221"><ele>288.0</ele><time>2026-04-12T09:06:41.997Z</time></trkpt><trkpt lat="44.6475283" lon="7.8616976"><ele>288.0</ele><time>2026-04-12T09:06:43.996Z</time></trkpt><trkpt lat="44.6476351" lon="7.8616417"><ele>288.0</ele><time>2026-04-12T09:06:45.996Z</time></trkpt><trkpt lat="44.6477108" lon="7.8615412"><ele>288.0</ele><time>2026-04-12T09:06:47.997Z</time></trkpt><trkpt lat="44.6477607" lon="7.8614125"><ele>288.0</ele><time>2026-04-12T09:06:49.995Z</time></trkpt><trkpt lat="44.647814" lon="7.8612842"><ele>288.0</ele><time>2026-04-12T09:06:51.996Z</time></trkpt><trkpt lat="44.6479091" lon="7.8612131"><ele>287.75</ele><time>2026-04-12T09:06:53.995Z</time></trkpt><trkpt lat="44.6480219" lon="7.8611904"><ele>287.5</ele><time>2026-04-12T09:06:55.995Z</time></trkpt><trkpt lat="44.6481378" lon="7.8611886"><ele>287.25</ele><time>2026-04-12T09:06:57.996Z</time></trkpt><trkpt lat="44.6482567" lon="7.8611844"><ele>287.0</ele><time>2026-04-12T09:06:59.995Z</time></trkpt><trkpt lat="44.6483738" lon="7.861181"><ele>287.0</ele><time>2026-04-12T09:07:01.995Z</time></trkpt><trkpt lat="44.6484381" lon="7.8611883"><ele>287.0</ele><time>2026-04-12T09:07:02.995Z</time></trkpt><trkpt lat="44.6485601" lon="7.8611952"><ele>287.0</ele><time>2026-04-12T09:07:04.995Z</time></trkpt><trkpt lat="44.6486787" lon="7.8611892"><ele>287.0</ele><time>2026-04-12T09:07:06.995Z</time></trkpt><trkpt lat="44.648798" lon="7.8611754"><ele>287.0</ele><time>2026-04-12T09:07:08.996Z</time></trkpt><trkpt lat="44.648912" lon="7.8611736"><ele>287.8</ele><time>2026-04-12T09:07:10.996Z</time></trkpt><trkpt lat="44.6490271" lon="7.8611707"><ele>288.6</ele><time>2026-04-12T09:07:12.996Z</time></trkpt><trkpt lat="44.6491327" lon="7.8611725"><ele>289.40000000000003</ele><time>2026-04-12T09:07:14.995Z</time></trkpt><trkpt lat="44.6492382" lon="7.861165"><ele>290.2</ele><time>2026-04-12T09:07:16.996Z</time></trkpt><trkpt lat="44.6493358" lon="7.8611533"><ele>291.0</ele><time>2026-04-12T09:07:18.996Z</time></trkpt><trkpt lat="44.6494389" lon="7.8611568"><ele>291.0</ele><time>2026-04-12T09:07:20.996Z</time></trkpt><trkpt lat="44.6495309" lon="7.8611187"><ele>291.0</ele><time>2026-04-12T09:07:22.996Z</time></trkpt><trkpt lat="44.6495887" lon="7.8610169"><ele>291.0</ele><time>2026-04-12T09:07:24.995Z</time></trkpt><trkpt lat="44.6496137" lon="7.8608913"><ele>291.0</ele><time>2026-04-12T09:07:26.995Z</time></trkpt><trkpt lat="44.6496191" lon="7.8607511"><ele>291.0</ele><time>2026-04-12T09:07:28.997Z</time></trkpt><trkpt lat="44.6496189" lon="7.8606387"><ele>291.0</ele><time>2026-04-12T09:07:30.995Z</time></trkpt><trkpt lat="44.6496069" lon="7.8604899"><ele>291.0</ele><time>2026-04-12T09:07:32.995Z</time></trkpt><trkpt lat="44.6496095" lon="7.860351"><ele>291.0</ele><time>2026-04-12T09:07:34.995Z</time></trkpt><trkpt lat="44.64961" lon="7.8602016"><ele>291.0</ele><time>2026-04-12T09:07:36.995Z</time></trkpt><trkpt lat="44.6495997" lon="7.8600444"><ele>291.0</ele><time>2026-04-12T09:07:38.996Z</time></trkpt><trkpt lat="44.6495979" lon="7.8598888"><ele>290.8</ele><time>2026-04-12T09:07:40.996Z</time></trkpt><trkpt lat="44.6495982" lon="7.8597469"><ele>290.6</ele><time>2026-04-12T09:07:42.995Z</time></trkpt><trkpt lat="44.6495987" lon="7.8595987"><ele>290.4</ele><time>2026-04-12T09:07:44.996Z</time></trkpt><trkpt lat="44.6496049" lon="7.8594508"><ele>290.2</ele><time>2026-04-12T09:07:46.995Z</time></trkpt><trkpt lat="44.6495992" lon="7.8593089"><ele>290.0</ele><time>2026-04-12T09:07:48.995Z</time></trkpt><trkpt lat="44.6496024" lon="7.8591658"><ele>290.0</ele><time>2026-04-12T09:07:50.995Z</time></trkpt><trkpt lat="44.6495861" lon="7.8590253"><ele>290.0</ele><time>2026-04-12T09:07:52.995Z</time></trkpt><trkpt lat="44.6495803" lon="7.8588923"><ele>290.0</ele><time>2026-04-12T09:07:57.995Z</time></trkpt><trkpt lat="44.6495747" lon="7.8585902"><ele>290.0</ele><time>2026-04-12T09:07:59.996Z</time></trkpt><trkpt lat="44.6495642" lon="7.8584641"><ele>290.2857142857143</ele><time>2026-04-12T09:08:01.995Z</time></trkpt><trkpt lat="44.6495604" lon="7.8583517"><ele>290.5714285714286</ele><time>2026-04-12T09:08:03.995Z</time></trkpt><trkpt lat="44.649602" lon="7.8582715"><ele>290.8571428571429</ele><time>2026-04-12T09:08:05.997Z</time></trkpt><trkpt lat="44.6496665" lon="7.8582536"><ele>291.14285714285717</ele><time>2026-04-12T09:08:07.997Z</time></trkpt><trkpt lat="44.6497279" lon="7.8582252"><ele>291.42857142857144</ele><time>2026-04-12T09:08:09.996Z</time></trkpt><trkpt lat="44.6497948" lon="7.8582152"><ele>291.7142857142857</ele><time>2026-04-12T09:08:11.996Z</time></trkpt><trkpt lat="44.649888" lon="7.8582087"><ele>292.0</ele><time>2026-04-12T09:08:14.996Z</time></trkpt><trkpt lat="44.6499557" lon="7.8582017"><ele>292.0</ele><time>2026-04-12T09:08:16.996Z</time></trkpt><trkpt lat="44.6500262" lon="7.8581939"><ele>292.0</ele><time>2026-04-12T09:08:18.996Z</time></trkpt><trkpt lat="44.6501007" lon="7.8581888"><ele>292.0</ele><time>2026-04-12T09:08:20.996Z</time></trkpt><trkpt lat="44.6501845" lon="7.858187"><ele>292.0</ele><time>2026-04-12T09:08:22.997Z</time></trkpt><trkpt lat="44.6502705" lon="7.8581824"><ele>292.0</ele><time>2026-04-12T09:08:24.995Z</time></trkpt><trkpt lat="44.6503592" lon="7.8581831"><ele>292.0</ele><time>2026-04-12T09:08:26.995Z</time></trkpt><trkpt lat="44.6504485" lon="7.8581783"><ele>292.3333333333333</ele><time>2026-04-12T09:08:28.995Z</time></trkpt><trkpt lat="44.6505355" lon="7.8581697"><ele>292.66666666666663</ele><time>2026-04-12T09:08:30.995Z</time></trkpt><trkpt lat="44.6506198" lon="7.8581677"><ele>293.0</ele><time>2026-04-12T09:08:32.995Z</time></trkpt><trkpt lat="44.650711" lon="7.8581547"><ele>293.3333333333333</ele><time>2026-04-12T09:08:34.995Z</time></trkpt><trkpt lat="44.6508008" lon="7.8581472"><ele>293.6666666666667</ele><time>2026-04-12T09:08:36.995Z</time></trkpt><trkpt lat="44.650893" lon="7.8581498"><ele>294.0</ele><time>2026-04-12T09:08:38.995Z</time></trkpt><trkpt lat="44.6509904" lon="7.8581501"><ele>294.0</ele><time>2026-04-12T09:08:40.995Z</time></trkpt><trkpt lat="44.6510868" lon="7.8581423"><ele>294.0</ele><time>2026-04-12T09:08:42.995Z</time></trkpt><trkpt lat="44.6511809" lon="7.8581412"><ele>294.0</ele><time>2026-04-12T09:08:44.995Z</time></trkpt><trkpt lat="44.6512716" lon="7.8581232"><ele>294.0</ele><time>2026-04-12T09:08:46.995Z</time></trkpt><trkpt lat="44.6513684" lon="7.8581129"><ele>294.0</ele><time>2026-04-12T09:08:48.995Z</time></trkpt><trkpt lat="44.651464" lon="7.8581117"><ele>293.8</ele><time>2026-04-12T09:08:50.996Z</time></trkpt><trkpt lat="44.6515634" lon="7.8580993"><ele>293.59999999999997</ele><time>2026-04-12T09:08:52.995Z</time></trkpt><trkpt lat="44.6516549" lon="7.858085"><ele>293.4</ele><time>2026-04-12T09:08:54.995Z</time></trkpt><trkpt lat="44.6517485" lon="7.8580654"><ele>293.2</ele><time>2026-04-12T09:08:56.995Z</time></trkpt><trkpt lat="44.6518419" lon="7.8580475"><ele>293.0</ele><time>2026-04-12T09:08:58.995Z</time></trkpt><trkpt lat="44.6519324" lon="7.858054"><ele>293.0</ele><time>2026-04-12T09:09:00.995Z</time></trkpt><trkpt lat="44.6520155" lon="7.8580572"><ele>293.0</ele><time>2026-04-12T09:09:02.995Z</time></trkpt><trkpt lat="44.6520859" lon="7.8580476"><ele>293.0</ele><time>2026-04-12T09:09:04.995Z</time></trkpt><trkpt lat="44.6521763" lon="7.8580545"><ele>293.0</ele><time>2026-04-12T09:09:06.996Z</time></trkpt><trkpt lat="44.6522772" lon="7.8580545"><ele>293.0</ele><time>2026-04-12T09:09:08.995Z</time></trkpt><trkpt lat="44.6523814" lon="7.8580492"><ele>293.0</ele><time>2026-04-12T09:09:10.995Z</time></trkpt><trkpt lat="44.6524939" lon="7.8580365"><ele>293.0</ele><time>2026-04-12T09:09:12.995Z</time></trkpt><trkpt lat="44.652591" lon="7.8580197"><ele>293.0</ele><time>2026-04-12T09:09:14.995Z</time></trkpt><trkpt lat="44.6526867" lon="7.8580086"><ele>293.0</ele><time>2026-04-12T09:09:16.995Z</time></trkpt><trkpt lat="44.6527785" lon="7.8580069"><ele>293.0</ele><time>2026-04-12T09:09:18.996Z</time></trkpt><trkpt lat="44.6528725" lon="7.8580067"><ele>292.8</ele><time>2026-04-12T09:09:20.995Z</time></trkpt><trkpt lat="44.6529632" lon="7.858016"><ele>292.6</ele><time>2026-04-12T09:09:22.995Z</time></trkpt><trkpt lat="44.6530525" lon="7.8580215"><ele>292.4</ele><time>2026-04-12T09:09:24.995Z</time></trkpt><trkpt lat="44.6531465" lon="7.8580008"><ele>292.2</ele><time>2026-04-12T09:09:26.995Z</time></trkpt><trkpt lat="44.6532359" lon="7.8579726"><ele>292.0</ele><time>2026-04-12T09:09:28.995Z</time></trkpt><trkpt lat="44.6533224" lon="7.857957"><ele>292.0</ele><time>2026-04-12T09:09:30.995Z</time></trkpt><trkpt lat="44.6534074" lon="7.8579731"><ele>292.0</ele><time>2026-04-12T09:09:32.995Z</time></trkpt><trkpt lat="44.6534881" lon="7.857958"><ele>292.0</ele><time>2026-04-12T09:09:34.995Z</time></trkpt><trkpt lat="44.6535643" lon="7.8579513"><ele>292.0</ele><time>2026-04-12T09:09:36.995Z</time></trkpt><trkpt lat="44.6536387" lon="7.8579461"><ele>292.0</ele><time>2026-04-12T09:09:38.996Z</time></trkpt><trkpt lat="44.6537168" lon="7.8579364"><ele>292.0</ele><time>2026-04-12T09:09:40.995Z</time></trkpt><trkpt lat="44.6537909" lon="7.8579489"><ele>292.0</ele><time>2026-04-12T09:09:42.995Z</time></trkpt><trkpt lat="44.6538664" lon="7.8579486"><ele>292.0</ele><time>2026-04-12T09:09:44.996Z</time></trkpt><trkpt lat="44.6539343" lon="7.8579349"><ele>292.0</ele><time>2026-04-12T09:09:46.996Z</time></trkpt><trkpt lat="44.6540027" lon="7.8579335"><ele>292.0</ele><time>2026-04-12T09:09:48.996Z</time></trkpt><trkpt lat="44.6540903" lon="7.8579455"><ele>292.0</ele><time>2026-04-12T09:09:51.995Z</time></trkpt><trkpt lat="44.6540392" lon="7.8578796"><ele>292.0</ele><time>2026-04-12T09:09:56.997Z</time></trkpt><trkpt lat="44.6539685" lon="7.8579064"><ele>292.0</ele><time>2026-04-12T09:09:58.995Z</time></trkpt><trkpt lat="44.6538811" lon="7.8578754"><ele>292.0</ele><time>2026-04-12T09:10:01.995Z</time></trkpt><trkpt lat="44.653861" lon="7.8577633"><ele>292.0</ele><time>2026-04-12T09:10:03.996Z</time></trkpt><trkpt lat="44.6538458" lon="7.8576434"><ele>292.0</ele><time>2026-04-12T09:10:05.996Z</time></trkpt><trkpt lat="44.6538493" lon="7.8575026"><ele>292.0</ele><time>2026-04-12T09:10:07.995Z</time></trkpt><trkpt lat="44.6538449" lon="7.857363"><ele>292.0</ele><time>2026-04-12T09:10:09.995Z</time></trkpt><trkpt lat="44.6538392" lon="7.8572265"><ele>292.0</ele><time>2026-04-12T09:10:11.995Z</time></trkpt><trkpt lat="44.6538368" lon="7.8570956"><ele>292.0</ele><time>2026-04-12T09:10:13.995Z</time></trkpt><trkpt lat="44.6538422" lon="7.8569799"><ele>292.0</ele><time>2026-04-12T09:10:15.996Z</time></trkpt><trkpt lat="44.6538498" lon="7.8568708"><ele>292.0</ele><time>2026-04-12T09:10:17.995Z</time></trkpt><trkpt lat="44.6538485" lon="7.8567501"><ele>292.0</ele><time>2026-04-12T09:10:19.995Z</time></trkpt><trkpt lat="44.6538407" lon="7.8566116"><ele>292.0</ele><time>2026-04-12T09:10:21.996Z</time></trkpt><trkpt lat="44.6538398" lon="7.8564687"><ele>292.16666666666663</ele><time>2026-04-12T09:10:23.995Z</time></trkpt><trkpt lat="44.6538278" lon="7.8563264"><ele>292.3333333333333</ele><time>2026-04-12T09:10:25.995Z</time></trkpt><trkpt lat="44.6538203" lon="7.8561922"><ele>292.5</ele><time>2026-04-12T09:10:27.996Z</time></trkpt><trkpt lat="44.6538146" lon="7.8560689"><ele>292.6666666666667</ele><time>2026-04-12T09:10:29.995Z</time></trkpt><trkpt lat="44.6538119" lon="7.8559711"><ele>292.83333333333337</ele><time>2026-04-12T09:10:31.996Z</time></trkpt><trkpt lat="44.653797" lon="7.8558617"><ele>293.0</ele><time>2026-04-12T09:10:33.995Z</time></trkpt><trkpt lat="44.6537913" lon="7.8557379"><ele>292.33333333333337</ele><time>2026-04-12T09:10:35.995Z</time></trkpt><trkpt lat="44.6537788" lon="7.8555795"><ele>291.6666666666667</ele><time>2026-04-12T09:10:37.996Z</time></trkpt><trkpt lat="44.6537718" lon="7.8554846"><ele>291.0</ele><time>2026-04-12T09:10:38.995Z</time></trkpt><trkpt lat="44.6537613" lon="7.8553856"><ele>290.3333333333333</ele><time>2026-04-12T09:10:39.995Z</time></trkpt><trkpt lat="44.6537496" lon="7.8552778"><ele>289.66666666666663</ele><time>2026-04-12T09:10:40.996Z</time></trkpt><trkpt lat="44.6537417" lon="7.855169"><ele>289.0</ele><time>2026-04-12T09:10:41.995Z</time></trkpt><trkpt lat="44.6537336" lon="7.8550704"><ele>287.59999999999997</ele><time>2026-04-12T09:10:42.996Z</time></trkpt><trkpt lat="44.6537203" lon="7.8549364"><ele>286.2</ele><time>2026-04-12T09:10:44.996Z</time></trkpt><trkpt lat="44.653749" lon="7.8548399"><ele>284.79999999999995</ele><time>2026-04-12T09:10:46.996Z</time></trkpt><trkpt lat="44.6538295" lon="7.8547569"><ele>283.4</ele><time>2026-04-12T09:10:48.995Z</time></trkpt><trkpt lat="44.6539453" lon="7.8546831"><ele>282.0</ele><time>2026-04-12T09:10:50.995Z</time></trkpt><trkpt lat="44.6540176" lon="7.8546534"><ele>282.0</ele><time>2026-04-12T09:10:51.995Z</time></trkpt><trkpt lat="44.6540943" lon="7.8546118"><ele>282.0</ele><time>2026-04-12T09:10:52.996Z</time></trkpt><trkpt lat="44.6541718" lon="7.8545553"><ele>282.0</ele><time>2026-04-12T09:10:53.995Z</time></trkpt><trkpt lat="44.6542489" lon="7.8544887"><ele>282.0</ele><time>2026-04-12T09:10:54.995Z</time></trkpt><trkpt lat="44.6543293" lon="7.8544068"><ele>282.0</ele><time>2026-04-12T09:10:55.996Z</time></trkpt><trkpt lat="44.6544113" lon="7.8543192"><ele>279.0</ele><time>2026-04-12T09:10:56.995Z</time></trkpt><trkpt lat="44.6544897" lon="7.8542165"><ele>276.0</ele><time>2026-04-12T09:10:57.996Z</time></trkpt><trkpt lat="44.6545687" lon="7.8541107"><ele>273.0</ele><time>2026-04-12T09:10:58.995Z</time></trkpt><trkpt lat="44.6546525" lon="7.8540237"><ele>270.0</ele><time>2026-04-12T09:10:59.995Z</time></trkpt><trkpt lat="44.6547392" lon="7.8539752"><ele>267.0</ele><time>2026-04-12T09:11:00.995Z</time></trkpt><trkpt lat="44.6548268" lon="7.8539683"><ele>267.0</ele><time>2026-04-12T09:11:01.995Z</time></trkpt><trkpt lat="44.6549167" lon="7.8539961"><ele>267.0</ele><time>2026-04-12T09:11:02.995Z</time></trkpt><trkpt lat="44.654996" lon="7.8540563"><ele>267.0</ele><time>2026-04-12T09:11:03.996Z</time></trkpt><trkpt lat="44.6550608" lon="7.854157"><ele>267.0</ele><time>2026-04-12T09:11:04.995Z</time></trkpt><trkpt lat="44.6551133" lon="7.8542726"><ele>267.0</ele><time>2026-04-12T09:11:05.995Z</time></trkpt><trkpt lat="44.6551491" lon="7.8543748"><ele>267.0</ele><time>2026-04-12T09:11:06.995Z</time></trkpt><trkpt lat="44.6551792" lon="7.8544667"><ele>267.0</ele><time>2026-04-12T09:11:07.996Z</time></trkpt><trkpt lat="44.6552648" lon="7.8545498"><ele>267.0</ele><time>2026-04-12T09:11:09.996Z</time></trkpt><trkpt lat="44.6553389" lon="7.8544785"><ele>267.0</ele><time>2026-04-12T09:11:11.995Z</time></trkpt><trkpt lat="44.6553257" lon="7.854323"><ele>267.0</ele><time>2026-04-12T09:11:13.996Z</time></trkpt><trkpt lat="44.6553032" lon="7.8542313"><ele>267.0</ele><time>2026-04-12T09:11:14.995Z</time></trkpt><trkpt lat="44.6552698" lon="7.854145"><ele>267.0</ele><time>2026-04-12T09:11:15.995Z</time></trkpt><trkpt lat="44.6552347" lon="7.8540498"><ele>267.0</ele><time>2026-04-12T09:11:16.996Z</time></trkpt><trkpt lat="44.6551926" lon="7.8539534"><ele>267.0</ele><time>2026-04-12T09:11:17.995Z</time></trkpt><trkpt lat="44.6551499" lon="7.8538674"><ele>267.0</ele><time>2026-04-12T09:11:18.995Z</time></trkpt><trkpt lat="44.6551038" lon="7.8537924"><ele>267.0</ele><time>2026-04-12T09:11:19.995Z</time></trkpt><trkpt lat="44.6550788" lon="7.8536395"><ele>267.0</ele><time>2026-04-12T09:11:21.995Z</time></trkpt><trkpt lat="44.6551642" lon="7.8535897"><ele>267.0</ele><time>2026-04-12T09:11:23.995Z</time></trkpt><trkpt lat="44.6552604" lon="7.8537016"><ele>267.0</ele><time>2026-04-12T09:11:25.996Z</time></trkpt><trkpt lat="44.6553091" lon="7.853792"><ele>267.0</ele><time>2026-04-12T09:11:26.995Z</time></trkpt><trkpt lat="44.6553573" lon="7.8538849"><ele>267.0</ele><time>2026-04-12T09:11:27.995Z</time></trkpt><trkpt lat="44.6554038" lon="7.8539873"><ele>267.0</ele><time>2026-04-12T09:11:28.995Z</time></trkpt><trkpt lat="44.6554603" lon="7.8540965"><ele>264.0</ele><time>2026-04-12T09:11:29.995Z</time></trkpt><trkpt lat="44.6555178" lon="7.8542089"><ele>261.0</ele><time>2026-04-12T09:11:30.995Z</time></trkpt><trkpt lat="44.6555753" lon="7.8543274"><ele>258.0</ele><time>2026-04-12T09:11:31.995Z</time></trkpt><trkpt lat="44.6556344" lon="7.8544467"><ele>255.0</ele><time>2026-04-12T09:11:32.995Z</time></trkpt><trkpt lat="44.6556951" lon="7.8545681"><ele>252.0</ele><time>2026-04-12T09:11:33.996Z</time></trkpt><trkpt lat="44.6557563" lon="7.8546979"><ele>252.0</ele><time>2026-04-12T09:11:34.995Z</time></trkpt><trkpt lat="44.655814" lon="7.8548353"><ele>252.0</ele><time>2026-04-12T09:11:35.996Z</time></trkpt><trkpt lat="44.6558617" lon="7.8549836"><ele>252.0</ele><time>2026-04-12T09:11:36.995Z</time></trkpt><trkpt lat="44.6559034" lon="7.8551369"><ele>252.0</ele><time>2026-04-12T09:11:37.995Z</time></trkpt><trkpt lat="44.655934" lon="7.8552963"><ele>254.0</ele><time>2026-04-12T09:11:38.995Z</time></trkpt><trkpt lat="44.655961" lon="7.8554515"><ele>256.0</ele><time>2026-04-12T09:11:39.995Z</time></trkpt><trkpt lat="44.6559869" lon="7.8556151"><ele>258.0</ele><time>2026-04-12T09:11:40.996Z</time></trkpt><trkpt lat="44.6560137" lon="7.855781"><ele>260.0</ele><time>2026-04-12T09:11:41.996Z</time></trkpt><trkpt lat="44.656041" lon="7.8559419"><ele>259.0</ele><time>2026-04-12T09:11:42.995Z</time></trkpt><trkpt lat="44.6560682" lon="7.8561025"><ele>258.0</ele><time>2026-04-12T09:11:43.996Z</time></trkpt><trkpt lat="44.6560889" lon="7.8562607"><ele>257.0</ele><time>2026-04-12T09:11:44.996Z</time></trkpt><trkpt lat="44.6561" lon="7.8563827"><ele>256.0</ele><time>2026-04-12T09:11:45.995Z</time></trkpt><trkpt lat="44.6561105" lon="7.8564957"><ele>255.0</ele><time>2026-04-12T09:11:46.995Z</time></trkpt><trkpt lat="44.656132" lon="7.8565896"><ele>247.6</ele><time>2026-04-12T09:11:47.996Z</time></trkpt><trkpt lat="44.6562387" lon="7.8566918"><ele>240.2</ele><time>2026-04-12T09:11:49.995Z</time></trkpt><trkpt lat="44.6563151" lon="7.8566783"><ele>232.8</ele><time>2026-04-12T09:11:50.996Z</time></trkpt><trkpt lat="44.6563909" lon="7.8566408"><ele>225.4</ele><time>2026-04-12T09:11:51.995Z</time></trkpt><trkpt lat="44.6564736" lon="7.8565977"><ele>218.0</ele><time>2026-04-12T09:11:52.995Z</time></trkpt><trkpt lat="44.6565579" lon="7.8565496"><ele>218.0</ele><time>2026-04-12T09:11:53.995Z</time></trkpt><trkpt lat="44.6566502" lon="7.8564976"><ele>218.0</ele><time>2026-04-12T09:11:54.995Z</time></trkpt><trkpt lat="44.6567444" lon="7.8564407"><ele>218.0</ele><time>2026-04-12T09:11:55.995Z</time></trkpt><trkpt lat="44.6568415" lon="7.8563749"><ele>218.0</ele><time>2026-04-12T09:11:56.995Z</time></trkpt><trkpt lat="44.6569439" lon="7.8563229"><ele>218.0</ele><time>2026-04-12T09:11:57.995Z</time></trkpt><trkpt lat="44.6570217" lon="7.8562835"><ele>217.00000000000003</ele><time>2026-04-12T09:11:58.995Z</time></trkpt><trkpt lat="44.6571031" lon="7.8562484"><ele>216.0</ele><time>2026-04-12T09:12:00.995Z</time></trkpt><trkpt lat="44.6571758" lon="7.8562327"><ele>215.0</ele><time>2026-04-12T09:12:07.995Z</time></trkpt><trkpt lat="44.657261" lon="7.8562123"><ele>214.0</ele><time>2026-04-12T09:12:10.995Z</time></trkpt><trkpt lat="44.6573451" lon="7.856176"><ele>213.00000000000003</ele><time>2026-04-12T09:12:12.995Z</time></trkpt><trkpt lat="44.6574399" lon="7.8561113"><ele>212.0</ele><time>2026-04-12T09:12:14.997Z</time></trkpt><trkpt lat="44.6575381" lon="7.8560489"><ele>212.0</ele><time>2026-04-12T09:12:16.995Z</time></trkpt><trkpt lat="44.6576463" lon="7.8560004"><ele>212.0</ele><time>2026-04-12T09:12:18.996Z</time></trkpt><trkpt lat="44.6577489" lon="7.8559642"><ele>212.0</ele><time>2026-04-12T09:12:20.995Z</time></trkpt><trkpt lat="44.657851" lon="7.8559295"><ele>212.0</ele><time>2026-04-12T09:12:22.996Z</time></trkpt><trkpt lat="44.6579599" lon="7.8558924"><ele>212.0</ele><time>2026-04-12T09:12:24.995Z</time></trkpt><trkpt lat="44.6580675" lon="7.8558476"><ele>211.5</ele><time>2026-04-12T09:12:26.995Z</time></trkpt><trkpt lat="44.6581778" lon="7.855804"><ele>211.0</ele><time>2026-04-12T09:12:28.995Z</time></trkpt><trkpt lat="44.6582856" lon="7.8557834"><ele>210.5</ele><time>2026-04-12T09:12:30.995Z</time></trkpt><trkpt lat="44.6583963" lon="7.8557289"><ele>210.0</ele><time>2026-04-12T09:12:32.996Z</time></trkpt><trkpt lat="44.6585162" lon="7.8556813"><ele>208.25</ele><time>2026-04-12T09:12:34.995Z</time></trkpt><trkpt lat="44.6586325" lon="7.8556326"><ele>206.5</ele><time>2026-04-12T09:12:36.995Z</time></trkpt><trkpt lat="44.6587482" lon="7.8555852"><ele>204.75</ele><time>2026-04-12T09:12:38.996Z</time></trkpt><trkpt lat="44.6588686" lon="7.8555377"><ele>203.0</ele><time>2026-04-12T09:12:40.995Z</time></trkpt><trkpt lat="44.658985" lon="7.8554964"><ele>203.0</ele><time>2026-04-12T09:12:42.995Z</time></trkpt><trkpt lat="44.6591009" lon="7.855455"><ele>203.0</ele><time>2026-04-12T09:12:44.996Z</time></trkpt><trkpt lat="44.6592099" lon="7.8554092"><ele>203.0</ele><time>2026-04-12T09:12:46.995Z</time></trkpt><trkpt lat="44.6593219" lon="7.8553643"><ele>203.0</ele><time>2026-04-12T09:12:48.995Z</time></trkpt><trkpt lat="44.6594318" lon="7.8553193"><ele>203.5</ele><time>2026-04-12T09:12:50.995Z</time></trkpt><trkpt lat="44.6595423" lon="7.8552771"><ele>204.0</ele><time>2026-04-12T09:12:52.995Z</time></trkpt><trkpt lat="44.6596529" lon="7.8552347"><ele>204.5</ele><time>2026-04-12T09:12:54.995Z</time></trkpt><trkpt lat="44.6597598" lon="7.8551961"><ele>205.0</ele><time>2026-04-12T09:12:56.995Z</time></trkpt><trkpt lat="44.6598687" lon="7.855154"><ele>205.6</ele><time>2026-04-12T09:12:58.995Z</time></trkpt><trkpt lat="44.6599758" lon="7.8551108"><ele>206.2</ele><time>2026-04-12T09:13:00.996Z</time></trkpt><trkpt lat="44.6600776" lon="7.8550739"><ele>206.8</ele><time>2026-04-12T09:13:02.997Z</time></trkpt><trkpt lat="44.6601845" lon="7.8550335"><ele>207.4</ele><time>2026-04-12T09:13:04.996Z</time></trkpt><trkpt lat="44.6602855" lon="7.8549908"><ele>208.0</ele><time>2026-04-12T09:13:06.995Z</time></trkpt><trkpt lat="44.660388" lon="7.8549502"><ele>208.0</ele><time>2026-04-12T09:13:08.996Z</time></trkpt><trkpt lat="44.6604944" lon="7.8549104"><ele>208.0</ele><time>2026-04-12T09:13:10.996Z</time></trkpt><trkpt lat="44.6605992" lon="7.854869"><ele>208.0</ele><time>2026-04-12T09:13:12.996Z</time></trkpt><trkpt lat="44.6607069" lon="7.8548303"><ele>208.0</ele><time>2026-04-12T09:13:14.995Z</time></trkpt><trkpt lat="44.6608121" lon="7.8547839"><ele>208.0</ele><time>2026-04-12T09:13:16.996Z</time></trkpt><trkpt lat="44.6608998" lon="7.8547501"><ele>207.99999999999997</ele><time>2026-04-12T09:13:18.995Z</time></trkpt><trkpt lat="44.660983" lon="7.8547348"><ele>208.0</ele><time>2026-04-12T09:13:20.996Z</time></trkpt><trkpt lat="44.6610592" lon="7.8547265"><ele>208.0</ele><time>2026-04-12T09:13:22.995Z</time></trkpt><trkpt lat="44.6611274" lon="7.8547172"><ele>208.0</ele><time>2026-04-12T09:13:24.996Z</time></trkpt><trkpt lat="44.6612149" lon="7.8547048"><ele>207.99999999999997</ele><time>2026-04-12T09:13:27.995Z</time></trkpt><trkpt lat="44.6613" lon="7.8547235"><ele>208.0</ele><time>2026-04-12T09:13:30.995Z</time></trkpt><trkpt lat="44.6613673" lon="7.8546995"><ele>209.33333333333331</ele><time>2026-04-12T09:13:33.995Z</time></trkpt><trkpt lat="44.6613972" lon="7.8546202"><ele>210.66666666666666</ele><time>2026-04-12T09:13:36.996Z</time></trkpt><trkpt lat="44.6613623" lon="7.854543"><ele>212.0</ele><time>2026-04-12T09:13:38.995Z</time></trkpt><trkpt lat="44.661291" lon="7.8544845"><ele>213.33333333333331</ele><time>2026-04-12T09:13:40.996Z</time></trkpt><trkpt lat="44.6612497" lon="7.8543732"><ele>214.66666666666666</ele><time>2026-04-12T09:13:42.995Z</time></trkpt><trkpt lat="44.6612636" lon="7.854253"><ele>216.0</ele><time>2026-04-12T09:13:44.996Z</time></trkpt><trkpt lat="44.6613087" lon="7.8541438"><ele>216.0</ele><time>2026-04-12T09:13:46.995Z</time></trkpt><trkpt lat="44.661348" lon="7.8540281"><ele>216.00000000000003</ele><time>2026-04-12T09:13:48.995Z</time></trkpt><trkpt lat="44.6613804" lon="7.8539"><ele>216.00000000000003</ele><time>2026-04-12T09:13:50.995Z</time></trkpt><trkpt lat="44.661396" lon="7.8537701"><ele>216.0</ele><time>2026-04-12T09:13:52.995Z</time></trkpt><trkpt lat="44.6614104" lon="7.8536439"><ele>216.0</ele><time>2026-04-12T09:13:54.996Z</time></trkpt><trkpt lat="44.6614119" lon="7.8535049"><ele>215.20000000000002</ele><time>2026-04-12T09:13:56.995Z</time></trkpt><trkpt lat="44.6613949" lon="7.853366"><ele>214.40000000000003</ele><time>2026-04-12T09:13:58.996Z</time></trkpt><trkpt lat="44.6613714" lon="7.8532257"><ele>213.6</ele><time>2026-04-12T09:14:00.995Z</time></trkpt><trkpt lat="44.6613281" lon="7.853091"><ele>212.8</ele><time>2026-04-12T09:14:02.996Z</time></trkpt><trkpt lat="44.6612877" lon="7.8529518"><ele>212.0</ele><time>2026-04-12T09:14:04.995Z</time></trkpt><trkpt lat="44.6612453" lon="7.8528191"><ele>212.0</ele><time>2026-04-12T09:14:06.996Z</time></trkpt><trkpt lat="44.6612075" lon="7.852686"><ele>212.0</ele><time>2026-04-12T09:14:08.995Z</time></trkpt><trkpt lat="44.6611685" lon="7.8525536"><ele>212.0</ele><time>2026-04-12T09:14:10.995Z</time></trkpt><trkpt lat="44.6611249" lon="7.8524197"><ele>212.0</ele><time>2026-04-12T09:14:12.995Z</time></trkpt><trkpt lat="44.6610823" lon="7.8522878"><ele>212.0</ele><time>2026-04-12T09:14:14.995Z</time></trkpt><trkpt lat="44.6610299" lon="7.8521552"><ele>212.2</ele><time>2026-04-12T09:14:16.995Z</time></trkpt><trkpt lat="44.6609737" lon="7.8520274"><ele>212.39999999999998</ele><time>2026-04-12T09:14:18.997Z</time></trkpt><trkpt lat="44.6609172" lon="7.8519074"><ele>212.60000000000002</ele><time>2026-04-12T09:14:20.995Z</time></trkpt><trkpt lat="44.6608578" lon="7.8517871"><ele>212.8</ele><time>2026-04-12T09:14:22.995Z</time></trkpt><trkpt lat="44.6608118" lon="7.8516606"><ele>213.0</ele><time>2026-04-12T09:14:24.995Z</time></trkpt><trkpt lat="44.6607686" lon="7.8515317"><ele>213.0</ele><time>2026-04-12T09:14:26.996Z</time></trkpt><trkpt lat="44.6607457" lon="7.8513899"><ele>213.0</ele><time>2026-04-12T09:14:28.996Z</time></trkpt><trkpt lat="44.660737" lon="7.8512459"><ele>213.0</ele><time>2026-04-12T09:14:30.995Z</time></trkpt><trkpt lat="44.6607413" lon="7.8511018"><ele>213.0</ele><time>2026-04-12T09:14:32.996Z</time></trkpt><trkpt lat="44.6607443" lon="7.8509568"><ele>213.0</ele><time>2026-04-12T09:14:34.995Z</time></trkpt><trkpt lat="44.6607475" lon="7.8508128"><ele>213.4</ele><time>2026-04-12T09:14:36.995Z</time></trkpt><trkpt lat="44.6607447" lon="7.8506645"><ele>213.8</ele><time>2026-04-12T09:14:38.995Z</time></trkpt><trkpt lat="44.660751" lon="7.850513"><ele>214.2</ele><time>2026-04-12T09:14:40.995Z</time></trkpt><trkpt lat="44.6607323" lon="7.8503655"><ele>214.6</ele><time>2026-04-12T09:14:42.995Z</time></trkpt><trkpt lat="44.6607181" lon="7.8502161"><ele>215.0</ele><time>2026-04-12T09:14:44.997Z</time></trkpt><trkpt lat="44.6606946" lon="7.8500643"><ele>215.0</ele><time>2026-04-12T09:14:46.995Z</time></trkpt><trkpt lat="44.6606749" lon="7.8499183"><ele>215.0</ele><time>2026-04-12T09:14:48.996Z</time></trkpt><trkpt lat="44.6606609" lon="7.849775"><ele>215.0</ele><time>2026-04-12T09:14:50.996Z</time></trkpt><trkpt lat="44.6606447" lon="7.8496317"><ele>215.0</ele><time>2026-04-12T09:14:52.995Z</time></trkpt><trkpt lat="44.6606312" lon="7.8494891"><ele>215.0</ele><time>2026-04-12T09:14:54.996Z</time></trkpt><trkpt lat="44.6606201" lon="7.8493451"><ele>215.0</ele><time>2026-04-12T09:14:56.995Z</time></trkpt><trkpt lat="44.6606115" lon="7.8492008"><ele>215.0</ele><time>2026-04-12T09:14:58.995Z</time></trkpt><trkpt lat="44.6606138" lon="7.84906"><ele>215.0</ele><time>2026-04-12T09:15:00.995Z</time></trkpt><trkpt lat="44.6606061" lon="7.8489159"><ele>215.0</ele><time>2026-04-12T09:15:02.995Z</time></trkpt><trkpt lat="44.6605921" lon="7.8487747"><ele>215.0</ele><time>2026-04-12T09:15:04.995Z</time></trkpt><trkpt lat="44.6605658" lon="7.8486364"><ele>215.0</ele><time>2026-04-12T09:15:06.995Z</time></trkpt><trkpt lat="44.660507" lon="7.8485176"><ele>215.0</ele><time>2026-04-12T09:15:08.996Z</time></trkpt><trkpt lat="44.6604354" lon="7.8484141"><ele>215.0</ele><time>2026-04-12T09:15:10.995Z</time></trkpt><trkpt lat="44.6603441" lon="7.8483111"><ele>215.0</ele><time>2026-04-12T09:15:12.995Z</time></trkpt><trkpt lat="44.6602516" lon="7.8482124"><ele>215.0</ele><time>2026-04-12T09:15:14.995Z</time></trkpt><trkpt lat="44.6601532" lon="7.8481058"><ele>214.57142857142856</ele><time>2026-04-12T09:15:16.995Z</time></trkpt><trkpt lat="44.6600997" lon="7.848048"><ele>214.14285714285717</ele><time>2026-04-12T09:15:17.996Z</time></trkpt><trkpt lat="44.6600402" lon="7.8479958"><ele>213.71428571428572</ele><time>2026-04-12T09:15:18.995Z</time></trkpt><trkpt lat="44.6599816" lon="7.8479403"><ele>213.28571428571428</ele><time>2026-04-12T09:15:19.995Z</time></trkpt><trkpt lat="44.6599216" lon="7.8478691"><ele>212.85714285714283</ele><time>2026-04-12T09:15:20.995Z</time></trkpt><trkpt lat="44.6598675" lon="7.8477978"><ele>212.42857142857144</ele><time>2026-04-12T09:15:21.995Z</time></trkpt><trkpt lat="44.6598121" lon="7.8477224"><ele>212.0</ele><time>2026-04-12T09:15:22.995Z</time></trkpt><trkpt lat="44.6597617" lon="7.8476402"><ele>212.66666666666669</ele><time>2026-04-12T09:15:23.995Z</time></trkpt><trkpt lat="44.6597154" lon="7.8475489"><ele>213.33333333333334</ele><time>2026-04-12T09:15:24.995Z</time></trkpt><trkpt lat="44.6596663" lon="7.847458"><ele>214.0</ele><time>2026-04-12T09:15:25.995Z</time></trkpt><trkpt lat="44.6596139" lon="7.8473751"><ele>214.66666666666669</ele><time>2026-04-12T09:15:26.995Z</time></trkpt><trkpt lat="44.6595601" lon="7.8472919"><ele>215.33333333333334</ele><time>2026-04-12T09:15:27.996Z</time></trkpt><trkpt lat="44.6595104" lon="7.847208"><ele>216.0</ele><time>2026-04-12T09:15:28.995Z</time></trkpt><trkpt lat="44.6594665" lon="7.8471254"><ele>216.0</ele><time>2026-04-12T09:15:29.996Z</time></trkpt><trkpt lat="44.6594168" lon="7.8470482"><ele>216.00000000000003</ele><time>2026-04-12T09:15:30.995Z</time></trkpt><trkpt lat="44.65937" lon="7.8469814"><ele>216.00000000000003</ele><time>2026-04-12T09:15:31.995Z</time></trkpt><trkpt lat="44.6592869" lon="7.8468541"><ele>216.0</ele><time>2026-04-12T09:15:33.996Z</time></trkpt><trkpt lat="44.6592142" lon="7.8467242"><ele>216.0</ele><time>2026-04-12T09:15:35.995Z</time></trkpt><trkpt lat="44.6591408" lon="7.8466025"><ele>216.0</ele><time>2026-04-12T09:15:37.996Z</time></trkpt><trkpt lat="44.659072" lon="7.8464879"><ele>216.00000000000003</ele><time>2026-04-12T09:15:39.996Z</time></trkpt><trkpt lat="44.6589964" lon="7.8463696"><ele>216.00000000000003</ele><time>2026-04-12T09:15:41.996Z</time></trkpt><trkpt lat="44.6589217" lon="7.84626"><ele>216.0</ele><time>2026-04-12T09:15:43.996Z</time></trkpt><trkpt lat="44.6588433" lon="7.8461516"><ele>216.0</ele><time>2026-04-12T09:15:45.996Z</time></trkpt><trkpt lat="44.6587675" lon="7.8460416"><ele>216.0</ele><time>2026-04-12T09:15:47.995Z</time></trkpt><trkpt lat="44.6586901" lon="7.8459347"><ele>216.00000000000003</ele><time>2026-04-12T09:15:49.995Z</time></trkpt><trkpt lat="44.6586092" lon="7.845823"><ele>216.00000000000003</ele><time>2026-04-12T09:15:51.995Z</time></trkpt><trkpt lat="44.6585362" lon="7.845718"><ele>216.0</ele><time>2026-04-12T09:15:53.995Z</time></trkpt><trkpt lat="44.6584601" lon="7.8455962"><ele>216.0</ele><time>2026-04-12T09:15:55.995Z</time></trkpt><trkpt lat="44.6583872" lon="7.8454767"><ele>216.0</ele><time>2026-04-12T09:15:57.995Z</time></trkpt><trkpt lat="44.6583156" lon="7.8453466"><ele>216.00000000000003</ele><time>2026-04-12T09:15:59.995Z</time></trkpt><trkpt lat="44.6582681" lon="7.8452841"><ele>216.00000000000003</ele><time>2026-04-12T09:16:00.997Z</time></trkpt><trkpt lat="44.6581864" lon="7.8451528"><ele>216.0</ele><time>2026-04-12T09:16:02.996Z</time></trkpt><trkpt lat="44.6581151" lon="7.8450188"><ele>216.0</ele><time>2026-04-12T09:16:04.995Z</time></trkpt><trkpt lat="44.6580486" lon="7.8448805"><ele>216.0</ele><time>2026-04-12T09:16:06.995Z</time></trkpt><trkpt lat="44.6579798" lon="7.8447633"><ele>216.00000000000003</ele><time>2026-04-12T09:16:08.996Z</time></trkpt><trkpt lat="44.6579148" lon="7.8446298"><ele>216.00000000000003</ele><time>2026-04-12T09:16:10.996Z</time></trkpt><trkpt lat="44.6578662" lon="7.8444979"><ele>216.0</ele><time>2026-04-12T09:16:12.995Z</time></trkpt><trkpt lat="44.6578261" lon="7.8443603"><ele>216.0</ele><time>2026-04-12T09:16:14.995Z</time></trkpt><trkpt lat="44.6577984" lon="7.8442178"><ele>215.20000000000002</ele><time>2026-04-12T09:16:16.996Z</time></trkpt><trkpt lat="44.6577762" lon="7.8440794"><ele>214.40000000000003</ele><time>2026-04-12T09:16:18.995Z</time></trkpt><trkpt lat="44.6577598" lon="7.8439452"><ele>213.6</ele><time>2026-04-12T09:16:20.995Z</time></trkpt><trkpt lat="44.6577373" lon="7.8437957"><ele>212.8</ele><time>2026-04-12T09:16:22.995Z</time></trkpt><trkpt lat="44.657729" lon="7.8436447"><ele>212.0</ele><time>2026-04-12T09:16:24.996Z</time></trkpt><trkpt lat="44.6577295" lon="7.8434976"><ele>212.39999999999998</ele><time>2026-04-12T09:16:26.996Z</time></trkpt><trkpt lat="44.657735" lon="7.8433513"><ele>212.79999999999998</ele><time>2026-04-12T09:16:28.996Z</time></trkpt><trkpt lat="44.6577516" lon="7.8432104"><ele>213.2</ele><time>2026-04-12T09:16:30.996Z</time></trkpt><trkpt lat="44.6577729" lon="7.8430699"><ele>213.6</ele><time>2026-04-12T09:16:32.996Z</time></trkpt><trkpt lat="44.6577946" lon="7.8429395"><ele>214.0</ele><time>2026-04-12T09:16:34.996Z</time></trkpt><trkpt lat="44.6578355" lon="7.8428157"><ele>215.2</ele><time>2026-04-12T09:16:36.996Z</time></trkpt><trkpt lat="44.657885" lon="7.8427006"><ele>216.39999999999998</ele><time>2026-04-12T09:16:38.996Z</time></trkpt><trkpt lat="44.6579264" lon="7.8425832"><ele>217.6</ele><time>2026-04-12T09:16:40.995Z</time></trkpt><trkpt lat="44.6579741" lon="7.8424603"><ele>218.8</ele><time>2026-04-12T09:16:42.995Z</time></trkpt><trkpt lat="44.6580208" lon="7.8423399"><ele>220.0</ele><time>2026-04-12T09:16:44.995Z</time></trkpt><trkpt lat="44.6580612" lon="7.8422291"><ele>219.99999999999997</ele><time>2026-04-12T09:16:46.995Z</time></trkpt><trkpt lat="44.6581" lon="7.8421422"><ele>220.0</ele><time>2026-04-12T09:16:48.996Z</time></trkpt><trkpt lat="44.6581209" lon="7.8420503"><ele>220.0</ele><time>2026-04-12T09:16:50.995Z</time></trkpt><trkpt lat="44.6581525" lon="7.84194"><ele>220.0</ele><time>2026-04-12T09:16:53.996Z</time></trkpt><trkpt lat="44.6581912" lon="7.8418213"><ele>219.99999999999997</ele><time>2026-04-12T09:16:56.995Z</time></trkpt><trkpt lat="44.6582223" lon="7.8417335"><ele>220.0</ele><time>2026-04-12T09:16:58.996Z</time></trkpt><trkpt lat="44.6582593" lon="7.8416485"><ele>219.83333333333331</ele><time>2026-04-12T09:17:00.995Z</time></trkpt><trkpt lat="44.6582914" lon="7.8415607"><ele>219.66666666666666</ele><time>2026-04-12T09:17:02.995Z</time></trkpt><trkpt lat="44.6583195" lon="7.8414765"><ele>219.5</ele><time>2026-04-12T09:17:04.995Z</time></trkpt><trkpt lat="44.6583533" lon="7.8413588"><ele>219.33333333333331</ele><time>2026-04-12T09:17:07.995Z</time></trkpt><trkpt lat="44.6583817" lon="7.8412417"><ele>219.16666666666666</ele><time>2026-04-12T09:17:10.995Z</time></trkpt><trkpt lat="44.6584125" lon="7.8411231"><ele>219.0</ele><time>2026-04-12T09:17:13.995Z</time></trkpt><trkpt lat="44.6584427" lon="7.8410035"><ele>219.0</ele><time>2026-04-12T09:17:16.995Z</time></trkpt><trkpt lat="44.6584774" lon="7.8408897"><ele>219.0</ele><time>2026-04-12T09:17:19.995Z</time></trkpt><trkpt lat="44.65851" lon="7.8407711"><ele>219.0</ele><time>2026-04-12T09:17:22.995Z</time></trkpt><trkpt lat="44.6585535" lon="7.8406563"><ele>219.0</ele><time>2026-04-12T09:17:25.996Z</time></trkpt><trkpt lat="44.658613" lon="7.8405755"><ele>219.0</ele><time>2026-04-12T09:17:28.995Z</time></trkpt><trkpt lat="44.6586581" lon="7.8404603"><ele>219.0</ele><time>2026-04-12T09:17:31.995Z</time></trkpt><trkpt lat="44.6586636" lon="7.8403532"><ele>219.16666666666666</ele><time>2026-04-12T09:17:33.995Z</time></trkpt><trkpt lat="44.6586488" lon="7.8402424"><ele>219.33333333333331</ele><time>2026-04-12T09:17:35.995Z</time></trkpt><trkpt lat="44.6586303" lon="7.8401367"><ele>219.5</ele><time>2026-04-12T09:17:37.997Z</time></trkpt><trkpt lat="44.6586032" lon="7.8400357"><ele>219.66666666666666</ele><time>2026-04-12T09:17:39.995Z</time></trkpt><trkpt lat="44.6585725" lon="7.8399356"><ele>219.83333333333331</ele><time>2026-04-12T09:17:41.996Z</time></trkpt><trkpt lat="44.6585309" lon="7.8398395"><ele>220.0</ele><time>2026-04-12T09:17:43.995Z</time></trkpt><trkpt lat="44.6584895" lon="7.8397342"><ele>219.99999999999997</ele><time>2026-04-12T09:17:45.996Z</time></trkpt><trkpt lat="44.6584528" lon="7.8396224"><ele>220.0</ele><time>2026-04-12T09:17:47.995Z</time></trkpt><trkpt lat="44.6584175" lon="7.8395072"><ele>220.0</ele><time>2026-04-12T09:17:49.995Z</time></trkpt><trkpt lat="44.6583822" lon="7.8393943"><ele>220.0</ele><time>2026-04-12T09:17:51.995Z</time></trkpt><trkpt lat="44.6583457" lon="7.8392855"><ele>219.99999999999997</ele><time>2026-04-12T09:17:53.995Z</time></trkpt><trkpt lat="44.6583155" lon="7.8391792"><ele>220.0</ele><time>2026-04-12T09:17:55.995Z</time></trkpt><trkpt lat="44.6582805" lon="7.8390795"><ele>220.33333333333331</ele><time>2026-04-12T09:17:57.995Z</time></trkpt><trkpt lat="44.6582452" lon="7.8389764"><ele>220.66666666666666</ele><time>2026-04-12T09:17:59.995Z</time></trkpt><trkpt lat="44.658217" lon="7.8388691"><ele>221.0</ele><time>2026-04-12T09:18:01.996Z</time></trkpt><trkpt lat="44.6581826" lon="7.8387667"><ele>221.33333333333331</ele><time>2026-04-12T09:18:03.995Z</time></trkpt><trkpt lat="44.6581467" lon="7.8386652"><ele>221.66666666666666</ele><time>2026-04-12T09:18:05.995Z</time></trkpt><trkpt lat="44.6581181" lon="7.8385519"><ele>222.0</ele><time>2026-04-12T09:18:07.995Z</time></trkpt><trkpt lat="44.658089" lon="7.8384381"><ele>222.2</ele><time>2026-04-12T09:18:09.995Z</time></trkpt><trkpt lat="44.6580577" lon="7.8383252"><ele>222.39999999999998</ele><time>2026-04-12T09:18:11.995Z</time></trkpt><trkpt lat="44.658024" lon="7.8382093"><ele>222.60000000000002</ele><time>2026-04-12T09:18:13.996Z</time></trkpt><trkpt lat="44.6579871" lon="7.8380979"><ele>222.8</ele><time>2026-04-12T09:18:15.995Z</time></trkpt><trkpt lat="44.6579508" lon="7.8379694"><ele>223.0</ele><time>2026-04-12T09:18:17.995Z</time></trkpt><trkpt lat="44.6579158" lon="7.8378475"><ele>222.99999999999997</ele><time>2026-04-12T09:18:19.995Z</time></trkpt><trkpt lat="44.6578861" lon="7.8377336"><ele>223.0</ele><time>2026-04-12T09:18:21.995Z</time></trkpt><trkpt lat="44.6578567" lon="7.8376166"><ele>223.0</ele><time>2026-04-12T09:18:23.995Z</time></trkpt><trkpt lat="44.657832" lon="7.8375031"><ele>223.0</ele><time>2026-04-12T09:18:25.996Z</time></trkpt><trkpt lat="44.6577966" lon="7.8373854"><ele>222.99999999999997</ele><time>2026-04-12T09:18:27.997Z</time></trkpt><trkpt lat="44.6577544" lon="7.8372669"><ele>223.0</ele><time>2026-04-12T09:18:29.995Z</time></trkpt><trkpt lat="44.6577182" lon="7.8371471"><ele>223.2</ele><time>2026-04-12T09:18:31.995Z</time></trkpt><trkpt lat="44.6576848" lon="7.8370301"><ele>223.4</ele><time>2026-04-12T09:18:33.995Z</time></trkpt><trkpt lat="44.6576418" lon="7.8369153"><ele>223.59999999999997</ele><time>2026-04-12T09:18:35.995Z</time></trkpt><trkpt lat="44.6576091" lon="7.8367931"><ele>223.79999999999998</ele><time>2026-04-12T09:18:37.995Z</time></trkpt><trkpt lat="44.6575682" lon="7.8366726"><ele>224.0</ele><time>2026-04-12T09:18:39.996Z</time></trkpt><trkpt lat="44.6575389" lon="7.8365488"><ele>223.79999999999998</ele><time>2026-04-12T09:18:41.996Z</time></trkpt><trkpt lat="44.657506" lon="7.8364253"><ele>223.59999999999997</ele><time>2026-04-12T09:18:43.995Z</time></trkpt><trkpt lat="44.6574766" lon="7.8362976"><ele>223.4</ele><time>2026-04-12T09:18:45.996Z</time></trkpt><trkpt lat="44.6574576" lon="7.8361727"><ele>223.2</ele><time>2026-04-12T09:18:47.997Z</time></trkpt><trkpt lat="44.6574236" lon="7.8360421"><ele>223.0</ele><time>2026-04-12T09:18:49.996Z</time></trkpt><trkpt lat="44.6574002" lon="7.8359222"><ele>223.0</ele><time>2026-04-12T09:18:51.995Z</time></trkpt><trkpt lat="44.6573739" lon="7.8357915"><ele>223.0</ele><time>2026-04-12T09:18:53.995Z</time></trkpt><trkpt lat="44.6573445" lon="7.8356656"><ele>223.0</ele><time>2026-04-12T09:18:55.995Z</time></trkpt><trkpt lat="44.6573183" lon="7.8355416"><ele>223.0</ele><time>2026-04-12T09:18:57.996Z</time></trkpt><trkpt lat="44.657294" lon="7.8354215"><ele>223.0</ele><time>2026-04-12T09:18:59.996Z</time></trkpt><trkpt lat="44.657267" lon="7.8352983"><ele>222.99999999999997</ele><time>2026-04-12T09:19:01.996Z</time></trkpt><trkpt lat="44.6572472" lon="7.8351762"><ele>223.0</ele><time>2026-04-12T09:19:03.995Z</time></trkpt><trkpt lat="44.6572306" lon="7.8350717"><ele>223.0</ele><time>2026-04-12T09:19:05.996Z</time></trkpt><trkpt lat="44.6572064" lon="7.834948"><ele>223.0</ele><time>2026-04-12T09:19:08.996Z</time></trkpt><trkpt lat="44.6572012" lon="7.8348318"><ele>222.99999999999997</ele><time>2026-04-12T09:19:11.995Z</time></trkpt><trkpt lat="44.6572041" lon="7.8347282"><ele>223.0</ele><time>2026-04-12T09:19:14.995Z</time></trkpt><trkpt lat="44.6571996" lon="7.8346151"><ele>223.66666666666666</ele><time>2026-04-12T09:19:18.995Z</time></trkpt><trkpt lat="44.6571869" lon="7.8345043"><ele>224.33333333333331</ele><time>2026-04-12T09:19:21.996Z</time></trkpt><trkpt lat="44.6571707" lon="7.8343777"><ele>225.0</ele><time>2026-04-12T09:19:24.995Z</time></trkpt><trkpt lat="44.6571587" lon="7.8342568"><ele>225.66666666666669</ele><time>2026-04-12T09:19:27.997Z</time></trkpt><trkpt lat="44.6571432" lon="7.8341628"><ele>226.33333333333334</ele><time>2026-04-12T09:19:29.996Z</time></trkpt><trkpt lat="44.6571289" lon="7.8340617"><ele>227.0</ele><time>2026-04-12T09:19:31.996Z</time></trkpt><trkpt lat="44.6571154" lon="7.8339587"><ele>227.00000000000003</ele><time>2026-04-12T09:19:33.995Z</time></trkpt><trkpt lat="44.6570979" lon="7.83385"><ele>227.0</ele><time>2026-04-12T09:19:35.996Z</time></trkpt><trkpt lat="44.6570813" lon="7.8337391"><ele>227.0</ele><time>2026-04-12T09:19:37.996Z</time></trkpt><trkpt lat="44.6570655" lon="7.8336267"><ele>227.0</ele><time>2026-04-12T09:19:39.996Z</time></trkpt><trkpt lat="44.6570469" lon="7.8335154"><ele>227.00000000000003</ele><time>2026-04-12T09:19:41.996Z</time></trkpt><trkpt lat="44.6570332" lon="7.8334037"><ele>227.0</ele><time>2026-04-12T09:19:43.995Z</time></trkpt><trkpt lat="44.6570218" lon="7.8332892"><ele>227.33333333333334</ele><time>2026-04-12T09:19:45.996Z</time></trkpt><trkpt lat="44.6570089" lon="7.8331707"><ele>227.66666666666669</ele><time>2026-04-12T09:19:47.996Z</time></trkpt><trkpt lat="44.6569948" lon="7.8330554"><ele>228.0</ele><time>2026-04-12T09:19:49.995Z</time></trkpt><trkpt lat="44.6569805" lon="7.8329443"><ele>228.33333333333331</ele><time>2026-04-12T09:19:51.995Z</time></trkpt><trkpt lat="44.6569679" lon="7.832831"><ele>228.66666666666666</ele><time>2026-04-12T09:19:53.995Z</time></trkpt><trkpt lat="44.6569572" lon="7.8327141"><ele>229.0</ele><time>2026-04-12T09:19:55.995Z</time></trkpt><trkpt lat="44.6569453" lon="7.832595"><ele>228.99999999999997</ele><time>2026-04-12T09:19:57.995Z</time></trkpt><trkpt lat="44.6569284" lon="7.8324774"><ele>229.0</ele><time>2026-04-12T09:19:59.995Z</time></trkpt><trkpt lat="44.6569148" lon="7.8323629"><ele>229.0</ele><time>2026-04-12T09:20:01.995Z</time></trkpt><trkpt lat="44.6569098" lon="7.832241"><ele>229.0</ele><time>2026-04-12T09:20:03.995Z</time></trkpt><trkpt lat="44.6568978" lon="7.832123"><ele>228.99999999999997</ele><time>2026-04-12T09:20:05.995Z</time></trkpt><trkpt lat="44.6568866" lon="7.8320049"><ele>229.0</ele><time>2026-04-12T09:20:07.995Z</time></trkpt><trkpt lat="44.6568823" lon="7.831888"><ele>229.66666666666666</ele><time>2026-04-12T09:20:09.995Z</time></trkpt><trkpt lat="44.6568757" lon="7.8317645"><ele>230.33333333333331</ele><time>2026-04-12T09:20:11.996Z</time></trkpt><trkpt lat="44.656871" lon="7.8316441"><ele>231.0</ele><time>2026-04-12T09:20:13.996Z</time></trkpt><trkpt lat="44.6568703" lon="7.8315265"><ele>231.66666666666669</ele><time>2026-04-12T09:20:15.996Z</time></trkpt><trkpt lat="44.6568594" lon="7.8314075"><ele>232.33333333333334</ele><time>2026-04-12T09:20:17.995Z</time></trkpt><trkpt lat="44.656851" lon="7.8312885"><ele>233.0</ele><time>2026-04-12T09:20:19.995Z</time></trkpt><trkpt lat="44.6568485" lon="7.8311698"><ele>233.00000000000003</ele><time>2026-04-12T09:20:21.996Z</time></trkpt><trkpt lat="44.656844" lon="7.8310503"><ele>233.0</ele><time>2026-04-12T09:20:23.996Z</time></trkpt><trkpt lat="44.6568415" lon="7.8309293"><ele>233.0</ele><time>2026-04-12T09:20:25.995Z</time></trkpt><trkpt lat="44.6568367" lon="7.8308077"><ele>233.0</ele><time>2026-04-12T09:20:27.995Z</time></trkpt><trkpt lat="44.6568261" lon="7.8306884"><ele>233.00000000000003</ele><time>2026-04-12T09:20:29.995Z</time></trkpt><trkpt lat="44.656818" lon="7.8305703"><ele>233.0</ele><time>2026-04-12T09:20:31.995Z</time></trkpt><trkpt lat="44.6568099" lon="7.8304674"><ele>233.00000000000003</ele><time>2026-04-12T09:20:33.995Z</time></trkpt><trkpt lat="44.6568063" lon="7.830346"><ele>233.0</ele><time>2026-04-12T09:20:35.996Z</time></trkpt><trkpt lat="44.6568015" lon="7.8302306"><ele>233.0</ele><time>2026-04-12T09:20:37.996Z</time></trkpt><trkpt lat="44.6567947" lon="7.8301167"><ele>233.0</ele><time>2026-04-12T09:20:39.995Z</time></trkpt><trkpt lat="44.65679" lon="7.8300082"><ele>233.00000000000003</ele><time>2026-04-12T09:20:41.995Z</time></trkpt><trkpt lat="44.6567879" lon="7.8299066"><ele>233.0</ele><time>2026-04-12T09:20:43.995Z</time></trkpt><trkpt lat="44.6567621" lon="7.8298202"><ele>233.00000000000003</ele><time>2026-04-12T09:20:45.995Z</time></trkpt><trkpt lat="44.6567043" lon="7.8297638"><ele>233.0</ele><time>2026-04-12T09:20:47.996Z</time></trkpt><trkpt lat="44.6566395" lon="7.8297691"><ele>233.0</ele><time>2026-04-12T09:20:49.995Z</time></trkpt><trkpt lat="44.6565679" lon="7.8298199"><ele>233.0</ele><time>2026-04-12T09:20:51.995Z</time></trkpt><trkpt lat="44.656498" lon="7.8298783"><ele>233.00000000000003</ele><time>2026-04-12T09:20:53.996Z</time></trkpt><trkpt lat="44.6564327" lon="7.8299411"><ele>233.0</ele><time>2026-04-12T09:20:55.995Z</time></trkpt><trkpt lat="44.656355" lon="7.8300011"><ele>233.0</ele><time>2026-04-12T09:20:57.995Z</time></trkpt><trkpt lat="44.6562772" lon="7.8300683"><ele>233.0</ele><time>2026-04-12T09:20:59.996Z</time></trkpt><trkpt lat="44.6561972" lon="7.8301484"><ele>233.0</ele><time>2026-04-12T09:21:01.996Z</time></trkpt><trkpt lat="44.6561209" lon="7.8302434"><ele>233.0</ele><time>2026-04-12T09:21:03.995Z</time></trkpt><trkpt lat="44.6560452" lon="7.8303308"><ele>233.0</ele><time>2026-04-12T09:21:05.995Z</time></trkpt><trkpt lat="44.655968" lon="7.8304201"><ele>232.60000000000002</ele><time>2026-04-12T09:21:07.995Z</time></trkpt><trkpt lat="44.6558911" lon="7.8305137"><ele>232.20000000000002</ele><time>2026-04-12T09:21:09.995Z</time></trkpt><trkpt lat="44.6558085" lon="7.8306061"><ele>231.8</ele><time>2026-04-12T09:21:11.995Z</time></trkpt><trkpt lat="44.6557275" lon="7.8307016"><ele>231.4</ele><time>2026-04-12T09:21:13.995Z</time></trkpt><trkpt lat="44.6556527" lon="7.8307944"><ele>231.0</ele><time>2026-04-12T09:21:15.995Z</time></trkpt><trkpt lat="44.6555755" lon="7.8308825"><ele>231.0</ele><time>2026-04-12T09:21:17.996Z</time></trkpt><trkpt lat="44.6555077" lon="7.8309738"><ele>231.00000000000003</ele><time>2026-04-12T09:21:19.995Z</time></trkpt><trkpt lat="44.6554336" lon="7.8310668"><ele>231.00000000000003</ele><time>2026-04-12T09:21:21.995Z</time></trkpt><trkpt lat="44.6553538" lon="7.8311543"><ele>231.0</ele><time>2026-04-12T09:21:23.995Z</time></trkpt><trkpt lat="44.6552754" lon="7.8312391"><ele>231.0</ele><time>2026-04-12T09:21:25.996Z</time></trkpt><trkpt lat="44.6552016" lon="7.8313333"><ele>230.8</ele><time>2026-04-12T09:21:27.996Z</time></trkpt><trkpt lat="44.6551291" lon="7.8314309"><ele>230.60000000000002</ele><time>2026-04-12T09:21:29.995Z</time></trkpt><trkpt lat="44.6550615" lon="7.8315309"><ele>230.4</ele><time>2026-04-12T09:21:31.995Z</time></trkpt><trkpt lat="44.6549969" lon="7.8316299"><ele>230.2</ele><time>2026-04-12T09:21:33.996Z</time></trkpt><trkpt lat="44.6549249" lon="7.8317329"><ele>230.0</ele><time>2026-04-12T09:21:35.995Z</time></trkpt><trkpt lat="44.6548548" lon="7.8318345"><ele>229.8</ele><time>2026-04-12T09:21:37.995Z</time></trkpt><trkpt lat="44.6547831" lon="7.8319451"><ele>229.6</ele><time>2026-04-12T09:21:39.997Z</time></trkpt><trkpt lat="44.6547036" lon="7.8320598"><ele>229.39999999999998</ele><time>2026-04-12T09:21:41.996Z</time></trkpt><trkpt lat="44.6546197" lon="7.8321371"><ele>229.2</ele><time>2026-04-12T09:21:43.995Z</time></trkpt><trkpt lat="44.6545271" lon="7.8321111"><ele>229.0</ele><time>2026-04-12T09:21:45.996Z</time></trkpt><trkpt lat="44.6544575" lon="7.8320256"><ele>228.49999999999997</ele><time>2026-04-12T09:21:47.996Z</time></trkpt><trkpt lat="44.6543931" lon="7.8319382"><ele>228.0</ele><time>2026-04-12T09:21:49.996Z</time></trkpt><trkpt lat="44.6543386" lon="7.8318474"><ele>227.5</ele><time>2026-04-12T09:21:51.996Z</time></trkpt><trkpt lat="44.654279" lon="7.8317569"><ele>227.0</ele><time>2026-04-12T09:21:53.995Z</time></trkpt><trkpt lat="44.6542167" lon="7.8316703"><ele>226.49999999999997</ele><time>2026-04-12T09:21:55.995Z</time></trkpt><trkpt lat="44.654159" lon="7.8315725"><ele>226.0</ele><time>2026-04-12T09:21:57.995Z</time></trkpt><trkpt lat="44.6540998" lon="7.8314688"><ele>225.99999999999997</ele><time>2026-04-12T09:21:59.995Z</time></trkpt><trkpt lat="44.6540493" lon="7.8313668"><ele>226.0</ele><time>2026-04-12T09:22:01.995Z</time></trkpt><trkpt lat="44.6540004" lon="7.8312657"><ele>226.0</ele><time>2026-04-12T09:22:03.995Z</time></trkpt><trkpt lat="44.653958" lon="7.8311798"><ele>226.0</ele><time>2026-04-12T09:22:05.995Z</time></trkpt><trkpt lat="44.6539136" lon="7.8311"><ele>225.99999999999997</ele><time>2026-04-12T09:22:07.997Z</time></trkpt><trkpt lat="44.6538723" lon="7.8310219"><ele>226.0</ele><time>2026-04-12T09:22:09.996Z</time></trkpt><trkpt lat="44.6538191" lon="7.8309161"><ele>226.66666666666666</ele><time>2026-04-12T09:22:12.995Z</time></trkpt><trkpt lat="44.6537838" lon="7.8308401"><ele>227.33333333333331</ele><time>2026-04-12T09:22:14.996Z</time></trkpt><trkpt lat="44.6537351" lon="7.8307601"><ele>228.0</ele><time>2026-04-12T09:22:16.995Z</time></trkpt><trkpt lat="44.6536788" lon="7.8306706"><ele>228.66666666666669</ele><time>2026-04-12T09:22:18.996Z</time></trkpt><trkpt lat="44.6536261" lon="7.8305824"><ele>229.33333333333334</ele><time>2026-04-12T09:22:20.995Z</time></trkpt><trkpt lat="44.6535769" lon="7.8304818"><ele>230.0</ele><time>2026-04-12T09:22:22.995Z</time></trkpt><trkpt lat="44.6535323" lon="7.8303849"><ele>229.66666666666669</ele><time>2026-04-12T09:22:24.995Z</time></trkpt><trkpt lat="44.6534937" lon="7.8302917"><ele>229.33333333333334</ele><time>2026-04-12T09:22:26.996Z</time></trkpt><trkpt lat="44.6534479" lon="7.8301953"><ele>229.0</ele><time>2026-04-12T09:22:28.995Z</time></trkpt><trkpt lat="44.6533962" lon="7.8301048"><ele>228.66666666666669</ele><time>2026-04-12T09:22:30.997Z</time></trkpt><trkpt lat="44.6533458" lon="7.8300076"><ele>228.33333333333334</ele><time>2026-04-12T09:22:32.996Z</time></trkpt><trkpt lat="44.6533041" lon="7.8299074"><ele>228.0</ele><time>2026-04-12T09:22:34.995Z</time></trkpt><trkpt lat="44.6532641" lon="7.8298049"><ele>228.0</ele><time>2026-04-12T09:22:36.996Z</time></trkpt><trkpt lat="44.6532196" lon="7.8297026"><ele>228.0</ele><time>2026-04-12T09:22:38.995Z</time></trkpt><trkpt lat="44.6531889" lon="7.8296067"><ele>228.0</ele><time>2026-04-12T09:22:40.996Z</time></trkpt><trkpt lat="44.6531624" lon="7.8295201"><ele>228.0</ele><time>2026-04-12T09:22:42.996Z</time></trkpt><trkpt lat="44.6531291" lon="7.8294291"><ele>228.0</ele><time>2026-04-12T09:22:44.996Z</time></trkpt><trkpt lat="44.6530944" lon="7.8293371"><ele>228.0</ele><time>2026-04-12T09:22:46.995Z</time></trkpt><trkpt lat="44.6530532" lon="7.8292444"><ele>228.28571428571428</ele><time>2026-04-12T09:22:48.996Z</time></trkpt><trkpt lat="44.6530164" lon="7.829156"><ele>228.57142857142856</ele><time>2026-04-12T09:22:50.996Z</time></trkpt><trkpt lat="44.6529909" lon="7.8290645"><ele>228.85714285714283</ele><time>2026-04-12T09:22:52.995Z</time></trkpt><trkpt lat="44.6529582" lon="7.8289757"><ele>229.1428571428571</ele><time>2026-04-12T09:22:54.995Z</time></trkpt><trkpt lat="44.6529277" lon="7.8288941"><ele>229.42857142857142</ele><time>2026-04-12T09:22:56.995Z</time></trkpt><trkpt lat="44.6528883" lon="7.8287874"><ele>229.71428571428567</ele><time>2026-04-12T09:22:59.996Z</time></trkpt><trkpt lat="44.6528538" lon="7.828684"><ele>229.99999999999997</ele><time>2026-04-12T09:23:02.995Z</time></trkpt><trkpt lat="44.6528196" lon="7.8285938"><ele>230.00000000000003</ele><time>2026-04-12T09:23:05.997Z</time></trkpt><trkpt lat="44.6527939" lon="7.8284947"><ele>230.0</ele><time>2026-04-12T09:23:08.995Z</time></trkpt><trkpt lat="44.6527772" lon="7.8283961"><ele>230.0</ele><time>2026-04-12T09:23:11.996Z</time></trkpt><trkpt lat="44.6527454" lon="7.8282777"><ele>230.0</ele><time>2026-04-12T09:23:15.996Z</time></trkpt><trkpt lat="44.6527044" lon="7.8281701"><ele>230.00000000000003</ele><time>2026-04-12T09:23:18.995Z</time></trkpt><trkpt lat="44.6526545" lon="7.8280679"><ele>230.0</ele><time>2026-04-12T09:23:21.996Z</time></trkpt><trkpt lat="44.6526152" lon="7.8279944"><ele>230.00000000000003</ele><time>2026-04-12T09:23:23.995Z</time></trkpt><trkpt lat="44.652572" lon="7.8279262"><ele>230.0</ele><time>2026-04-12T09:23:25.996Z</time></trkpt><trkpt lat="44.6525273" lon="7.8278576"><ele>230.0</ele><time>2026-04-12T09:23:27.995Z</time></trkpt><trkpt lat="44.6524958" lon="7.8277779"><ele>230.0</ele><time>2026-04-12T09:23:29.995Z</time></trkpt><trkpt lat="44.6524567" lon="7.8276711"><ele>230.00000000000003</ele><time>2026-04-12T09:23:32.995Z</time></trkpt><trkpt lat="44.6524043" lon="7.8275666"><ele>230.0</ele><time>2026-04-12T09:23:35.995Z</time></trkpt><trkpt lat="44.6523521" lon="7.8274657"><ele>230.00000000000003</ele><time>2026-04-12T09:23:38.996Z</time></trkpt><trkpt lat="44.652298" lon="7.827378"><ele>230.0</ele><time>2026-04-12T09:23:41.997Z</time></trkpt><trkpt lat="44.6522274" lon="7.8272984"><ele>230.0</ele><time>2026-04-12T09:23:44.995Z</time></trkpt><trkpt lat="44.6521794" lon="7.8272315"><ele>230.0</ele><time>2026-04-12T09:23:46.995Z</time></trkpt><trkpt lat="44.6521307" lon="7.8271567"><ele>230.00000000000003</ele><time>2026-04-12T09:23:48.995Z</time></trkpt><trkpt lat="44.6520915" lon="7.8270759"><ele>230.0</ele><time>2026-04-12T09:23:50.996Z</time></trkpt><trkpt lat="44.652048" lon="7.8269931"><ele>230.00000000000003</ele><time>2026-04-12T09:23:52.995Z</time></trkpt><trkpt lat="44.6520062" lon="7.8269041"><ele>230.0</ele><time>2026-04-12T09:23:54.995Z</time></trkpt><trkpt lat="44.6519614" lon="7.8268162"><ele>230.0</ele><time>2026-04-12T09:23:56.995Z</time></trkpt><trkpt lat="44.6519165" lon="7.8267279"><ele>230.0</ele><time>2026-04-12T09:23:58.996Z</time></trkpt><trkpt lat="44.6518699" lon="7.8266428"><ele>230.00000000000003</ele><time>2026-04-12T09:24:00.995Z</time></trkpt><trkpt lat="44.6518227" lon="7.8265568"><ele>230.0</ele><time>2026-04-12T09:24:02.996Z</time></trkpt><trkpt lat="44.6517733" lon="7.8264736"><ele>230.4285714285714</ele><time>2026-04-12T09:24:04.996Z</time></trkpt><trkpt lat="44.6517166" lon="7.8263991"><ele>230.85714285714283</ele><time>2026-04-12T09:24:06.996Z</time></trkpt><trkpt lat="44.6516538" lon="7.8263316"><ele>231.28571428571428</ele><time>2026-04-12T09:24:08.995Z</time></trkpt><trkpt lat="44.6515932" lon="7.8262602"><ele>231.7142857142857</ele><time>2026-04-12T09:24:10.995Z</time></trkpt><trkpt lat="44.6515342" lon="7.8261971"><ele>232.1428571428571</ele><time>2026-04-12T09:24:12.995Z</time></trkpt><trkpt lat="44.6514822" lon="7.8261463"><ele>232.57142857142858</ele><time>2026-04-12T09:24:14.996Z</time></trkpt><trkpt lat="44.6514238" lon="7.8260898"><ele>233.0</ele><time>2026-04-12T09:24:16.995Z</time></trkpt><trkpt lat="44.6513532" lon="7.8260338"><ele>233.33333333333334</ele><time>2026-04-12T09:24:18.995Z</time></trkpt><trkpt lat="44.6512867" lon="7.8259775"><ele>233.66666666666669</ele><time>2026-04-12T09:24:20.995Z</time></trkpt><trkpt lat="44.6512229" lon="7.8259219"><ele>234.0</ele><time>2026-04-12T09:24:22.995Z</time></trkpt><trkpt lat="44.6511546" lon="7.8258681"><ele>234.33333333333331</ele><time>2026-04-12T09:24:24.995Z</time></trkpt><trkpt lat="44.6510883" lon="7.8258128"><ele>234.66666666666666</ele><time>2026-04-12T09:24:26.995Z</time></trkpt><trkpt lat="44.6510144" lon="7.8257535"><ele>235.0</ele><time>2026-04-12T09:24:28.995Z</time></trkpt><trkpt lat="44.6509467" lon="7.8256923"><ele>234.99999999999997</ele><time>2026-04-12T09:24:30.995Z</time></trkpt><trkpt lat="44.6508793" lon="7.8256285"><ele>235.0</ele><time>2026-04-12T09:24:32.995Z</time></trkpt><trkpt lat="44.6508122" lon="7.825558"><ele>235.0</ele><time>2026-04-12T09:24:34.995Z</time></trkpt><trkpt lat="44.6507453" lon="7.825493"><ele>235.0</ele><time>2026-04-12T09:24:36.996Z</time></trkpt><trkpt lat="44.6506818" lon="7.8254238"><ele>234.99999999999997</ele><time>2026-04-12T09:24:38.996Z</time></trkpt><trkpt lat="44.650622" lon="7.8253534"><ele>235.0</ele><time>2026-04-12T09:24:40.995Z</time></trkpt><trkpt lat="44.650572" lon="7.8252729"><ele>234.99999999999997</ele><time>2026-04-12T09:24:42.995Z</time></trkpt><trkpt lat="44.6505136" lon="7.8252053"><ele>235.0</ele><time>2026-04-12T09:24:44.997Z</time></trkpt><trkpt lat="44.650455" lon="7.8251362"><ele>235.0</ele><time>2026-04-12T09:24:46.995Z</time></trkpt><trkpt lat="44.6504027" lon="7.8250555"><ele>235.0</ele><time>2026-04-12T09:24:48.995Z</time></trkpt><trkpt lat="44.6503517" lon="7.8249809"><ele>234.99999999999997</ele><time>2026-04-12T09:24:50.996Z</time></trkpt><trkpt lat="44.6502947" lon="7.8249108"><ele>235.0</ele><time>2026-04-12T09:24:52.995Z</time></trkpt><trkpt lat="44.6502389" lon="7.8248339"><ele>234.14285714285714</ele><time>2026-04-12T09:24:54.995Z</time></trkpt><trkpt lat="44.6501844" lon="7.8247588"><ele>233.28571428571428</ele><time>2026-04-12T09:24:56.995Z</time></trkpt><trkpt lat="44.6501436" lon="7.8246795"><ele>232.42857142857142</ele><time>2026-04-12T09:24:58.995Z</time></trkpt><trkpt lat="44.650114" lon="7.8245895"><ele>231.57142857142856</ele><time>2026-04-12T09:25:00.995Z</time></trkpt><trkpt lat="44.6500958" lon="7.8244971"><ele>230.71428571428572</ele><time>2026-04-12T09:25:02.996Z</time></trkpt><trkpt lat="44.6500757" lon="7.824401"><ele>229.85714285714283</ele><time>2026-04-12T09:25:04.995Z</time></trkpt><trkpt lat="44.650049" lon="7.8243008"><ele>229.0</ele><time>2026-04-12T09:25:06.995Z</time></trkpt><trkpt lat="44.6500186" lon="7.8242068"><ele>228.99999999999997</ele><time>2026-04-12T09:25:08.996Z</time></trkpt><trkpt lat="44.649985" lon="7.8241125"><ele>229.0</ele><time>2026-04-12T09:25:10.996Z</time></trkpt><trkpt lat="44.6499502" lon="7.8240115"><ele>229.0</ele><time>2026-04-12T09:25:12.995Z</time></trkpt><trkpt lat="44.6499112" lon="7.8239178"><ele>229.0</ele><time>2026-04-12T09:25:14.995Z</time></trkpt><trkpt lat="44.6498738" lon="7.823817"><ele>228.99999999999997</ele><time>2026-04-12T09:25:16.995Z</time></trkpt><trkpt lat="44.6498399" lon="7.8237242"><ele>229.0</ele><time>2026-04-12T09:25:18.995Z</time></trkpt><trkpt lat="44.6498185" lon="7.8236289"><ele>228.99999999999997</ele><time>2026-04-12T09:25:20.995Z</time></trkpt><trkpt lat="44.649784" lon="7.823537"><ele>229.0</ele><time>2026-04-12T09:25:22.995Z</time></trkpt><trkpt lat="44.649746" lon="7.8234437"><ele>229.0</ele><time>2026-04-12T09:25:24.995Z</time></trkpt><trkpt lat="44.6497008" lon="7.8233539"><ele>229.0</ele><time>2026-04-12T09:25:26.995Z</time></trkpt><trkpt lat="44.6496459" lon="7.8232758"><ele>228.99999999999997</ele><time>2026-04-12T09:25:28.996Z</time></trkpt><trkpt lat="44.6495887" lon="7.8231916"><ele>229.0</ele><time>2026-04-12T09:25:30.996Z</time></trkpt><trkpt lat="44.649539" lon="7.8230889"><ele>229.33333333333331</ele><time>2026-04-12T09:25:32.996Z</time></trkpt><trkpt lat="44.6494955" lon="7.822984"><ele>229.66666666666666</ele><time>2026-04-12T09:25:34.996Z</time></trkpt><trkpt lat="44.6494628" lon="7.8228806"><ele>230.0</ele><time>2026-04-12T09:25:36.996Z</time></trkpt><trkpt lat="44.6494421" lon="7.8227753"><ele>230.33333333333331</ele><time>2026-04-12T09:25:38.995Z</time></trkpt><trkpt lat="44.6494162" lon="7.82268"><ele>230.66666666666666</ele><time>2026-04-12T09:25:40.995Z</time></trkpt><trkpt lat="44.6493955" lon="7.8225821"><ele>231.0</ele><time>2026-04-12T09:25:42.995Z</time></trkpt><trkpt lat="44.6493704" lon="7.8224844"><ele>231.14285714285714</ele><time>2026-04-12T09:25:44.995Z</time></trkpt><trkpt lat="44.6493458" lon="7.8223889"><ele>231.28571428571428</ele><time>2026-04-12T09:25:46.995Z</time></trkpt><trkpt lat="44.6493264" lon="7.8222892"><ele>231.42857142857144</ele><time>2026-04-12T09:25:48.995Z</time></trkpt><trkpt lat="44.649304" lon="7.8221977"><ele>231.57142857142858</ele><time>2026-04-12T09:25:50.995Z</time></trkpt><trkpt lat="44.6492857" lon="7.8221024"><ele>231.71428571428572</ele><time>2026-04-12T09:25:52.995Z</time></trkpt><trkpt lat="44.6492675" lon="7.8220118"><ele>231.8571428571429</ele><time>2026-04-12T09:25:54.995Z</time></trkpt><trkpt lat="44.6492476" lon="7.8219202"><ele>232.00000000000003</ele><time>2026-04-12T09:25:56.995Z</time></trkpt><trkpt lat="44.649228" lon="7.8218289"><ele>232.5714285714286</ele><time>2026-04-12T09:25:58.995Z</time></trkpt><trkpt lat="44.6492133" lon="7.8217366"><ele>233.14285714285717</ele><time>2026-04-12T09:26:00.995Z</time></trkpt><trkpt lat="44.6491998" lon="7.8216372"><ele>233.71428571428572</ele><time>2026-04-12T09:26:02.996Z</time></trkpt><trkpt lat="44.649183" lon="7.8215335"><ele>234.2857142857143</ele><time>2026-04-12T09:26:04.995Z</time></trkpt><trkpt lat="44.6491635" lon="7.8214267"><ele>234.8571428571429</ele><time>2026-04-12T09:26:06.995Z</time></trkpt><trkpt lat="44.6491465" lon="7.821325"><ele>235.42857142857142</ele><time>2026-04-12T09:26:08.995Z</time></trkpt><trkpt lat="44.6491324" lon="7.8212233"><ele>236.0</ele><time>2026-04-12T09:26:10.995Z</time></trkpt><trkpt lat="44.6491091" lon="7.8211257"><ele>236.0</ele><time>2026-04-12T09:26:12.996Z</time></trkpt><trkpt lat="44.6490906" lon="7.8210266"><ele>236.0</ele><time>2026-04-12T09:26:14.995Z</time></trkpt><trkpt lat="44.649065" lon="7.820931"><ele>236.0</ele><time>2026-04-12T09:26:16.995Z</time></trkpt><trkpt lat="44.6490366" lon="7.8208411"><ele>236.0</ele><time>2026-04-12T09:26:18.997Z</time></trkpt><trkpt lat="44.6490145" lon="7.8207465"><ele>236.0</ele><time>2026-04-12T09:26:20.996Z</time></trkpt><trkpt lat="44.6489896" lon="7.8206534"><ele>236.0</ele><time>2026-04-12T09:26:22.995Z</time></trkpt><trkpt lat="44.6489683" lon="7.8205647"><ele>236.0</ele><time>2026-04-12T09:26:24.995Z</time></trkpt><trkpt lat="44.6489489" lon="7.8204645"><ele>236.14285714285714</ele><time>2026-04-12T09:26:26.996Z</time></trkpt><trkpt lat="44.6489293" lon="7.8203674"><ele>236.28571428571428</ele><time>2026-04-12T09:26:28.996Z</time></trkpt><trkpt lat="44.6489017" lon="7.8202746"><ele>236.42857142857142</ele><time>2026-04-12T09:26:30.996Z</time></trkpt><trkpt lat="44.6488743" lon="7.820177"><ele>236.57142857142856</ele><time>2026-04-12T09:26:32.995Z</time></trkpt><trkpt lat="44.6488546" lon="7.8200762"><ele>236.71428571428572</ele><time>2026-04-12T09:26:34.996Z</time></trkpt><trkpt lat="44.6488302" lon="7.819979"><ele>236.85714285714283</ele><time>2026-04-12T09:26:36.996Z</time></trkpt><trkpt lat="44.6488024" lon="7.8198797"><ele>236.99999999999997</ele><time>2026-04-12T09:26:38.995Z</time></trkpt><trkpt lat="44.6487854" lon="7.8197895"><ele>236.99999999999997</ele><time>2026-04-12T09:26:40.996Z</time></trkpt><trkpt lat="44.6487661" lon="7.8196881"><ele>237.0</ele><time>2026-04-12T09:26:42.995Z</time></trkpt><trkpt lat="44.6487439" lon="7.8195889"><ele>236.99999999999997</ele><time>2026-04-12T09:26:44.995Z</time></trkpt><trkpt lat="44.6487208" lon="7.8195002"><ele>236.99999999999997</ele><time>2026-04-12T09:26:46.995Z</time></trkpt><trkpt lat="44.6486988" lon="7.8194147"><ele>237.0</ele><time>2026-04-12T09:26:48.996Z</time></trkpt><trkpt lat="44.6486667" lon="7.819318"><ele>236.99999999999997</ele><time>2026-04-12T09:26:50.996Z</time></trkpt><trkpt lat="44.6486368" lon="7.8192246"><ele>236.99999999999997</ele><time>2026-04-12T09:26:52.996Z</time></trkpt><trkpt lat="44.6486037" lon="7.8191191"><ele>237.33333333333334</ele><time>2026-04-12T09:26:54.995Z</time></trkpt><trkpt lat="44.6485786" lon="7.8190074"><ele>237.66666666666669</ele><time>2026-04-12T09:26:56.995Z</time></trkpt><trkpt lat="44.6485537" lon="7.8189007"><ele>238.0</ele><time>2026-04-12T09:26:58.996Z</time></trkpt><trkpt lat="44.6485231" lon="7.8187908"><ele>238.33333333333334</ele><time>2026-04-12T09:27:00.995Z</time></trkpt><trkpt lat="44.6484916" lon="7.8186824"><ele>238.66666666666669</ele><time>2026-04-12T09:27:02.997Z</time></trkpt><trkpt lat="44.6484636" lon="7.8185787"><ele>239.0</ele><time>2026-04-12T09:27:04.996Z</time></trkpt><trkpt lat="44.6484377" lon="7.8184753"><ele>239.00000000000003</ele><time>2026-04-12T09:27:06.996Z</time></trkpt><trkpt lat="44.6484109" lon="7.8183706"><ele>239.0</ele><time>2026-04-12T09:27:08.996Z</time></trkpt><trkpt lat="44.6483744" lon="7.8182712"><ele>239.0</ele><time>2026-04-12T09:27:10.995Z</time></trkpt><trkpt lat="44.6483387" lon="7.8181564"><ele>239.0</ele><time>2026-04-12T09:27:12.995Z</time></trkpt><trkpt lat="44.6483011" lon="7.818061"><ele>239.00000000000003</ele><time>2026-04-12T09:27:14.995Z</time></trkpt><trkpt lat="44.6482591" lon="7.8179585"><ele>239.0</ele><time>2026-04-12T09:27:16.996Z</time></trkpt><trkpt lat="44.6482139" lon="7.8178661"><ele>239.00000000000003</ele><time>2026-04-12T09:27:18.995Z</time></trkpt><trkpt lat="44.6481848" lon="7.8177776"><ele>239.0</ele><time>2026-04-12T09:27:20.995Z</time></trkpt><trkpt lat="44.6481357" lon="7.8176799"><ele>239.0</ele><time>2026-04-12T09:27:23.996Z</time></trkpt><trkpt lat="44.6481028" lon="7.8175818"><ele>239.0</ele><time>2026-04-12T09:27:26.995Z</time></trkpt><trkpt lat="44.6480482" lon="7.8175024"><ele>239.00000000000003</ele><time>2026-04-12T09:27:29.996Z</time></trkpt><trkpt lat="44.6479788" lon="7.8174812"><ele>239.0</ele><time>2026-04-12T09:27:31.996Z</time></trkpt><trkpt lat="44.6479082" lon="7.8174423"><ele>238.83333333333334</ele><time>2026-04-12T09:27:33.995Z</time></trkpt><trkpt lat="44.6478354" lon="7.8173866"><ele>238.66666666666669</ele><time>2026-04-12T09:27:35.995Z</time></trkpt><trkpt lat="44.647761" lon="7.8173281"><ele>238.5</ele><time>2026-04-12T09:27:37.995Z</time></trkpt><trkpt lat="44.6476858" lon="7.8172609"><ele>238.33333333333331</ele><time>2026-04-12T09:27:39.996Z</time></trkpt><trkpt lat="44.6476024" lon="7.817198"><ele>238.16666666666666</ele><time>2026-04-12T09:27:41.996Z</time></trkpt><trkpt lat="44.6475199" lon="7.8171362"><ele>238.0</ele><time>2026-04-12T09:27:43.995Z</time></trkpt><trkpt lat="44.6474449" lon="7.8170674"><ele>237.99999999999997</ele><time>2026-04-12T09:27:45.996Z</time></trkpt><trkpt lat="44.6473683" lon="7.8170028"><ele>238.0</ele><time>2026-04-12T09:27:47.996Z</time></trkpt><trkpt lat="44.6472952" lon="7.8169293"><ele>238.0</ele><time>2026-04-12T09:27:49.995Z</time></trkpt><trkpt lat="44.6472274" lon="7.8168584"><ele>238.0</ele><time>2026-04-12T09:27:51.995Z</time></trkpt><trkpt lat="44.6471595" lon="7.816788"><ele>237.99999999999997</ele><time>2026-04-12T09:27:53.996Z</time></trkpt><trkpt lat="44.6470925" lon="7.8167073"><ele>238.0</ele><time>2026-04-12T09:27:55.995Z</time></trkpt><trkpt lat="44.647024" lon="7.8166206"><ele>238.4</ele><time>2026-04-12T09:27:57.996Z</time></trkpt><trkpt lat="44.6469542" lon="7.8165333"><ele>238.8</ele><time>2026-04-12T09:27:59.995Z</time></trkpt><trkpt lat="44.6468906" lon="7.816444"><ele>239.2</ele><time>2026-04-12T09:28:01.995Z</time></trkpt><trkpt lat="44.6468298" lon="7.8163391"><ele>239.6</ele><time>2026-04-12T09:28:03.997Z</time></trkpt><trkpt lat="44.6467655" lon="7.8162376"><ele>240.0</ele><time>2026-04-12T09:28:05.997Z</time></trkpt><trkpt lat="44.6467262" lon="7.8161347"><ele>240.0</ele><time>2026-04-12T09:28:07.996Z</time></trkpt><trkpt lat="44.6466767" lon="7.816035"><ele>240.0</ele><time>2026-04-12T09:28:09.996Z</time></trkpt><trkpt lat="44.6466302" lon="7.8159318"><ele>240.0</ele><time>2026-04-12T09:28:11.997Z</time></trkpt><trkpt lat="44.6465842" lon="7.8158295"><ele>240.0</ele><time>2026-04-12T09:28:13.995Z</time></trkpt><trkpt lat="44.6465429" lon="7.8157332"><ele>240.0</ele><time>2026-04-12T09:28:15.995Z</time></trkpt><trkpt lat="44.6464929" lon="7.815622"><ele>240.0</ele><time>2026-04-12T09:28:17.995Z</time></trkpt><trkpt lat="44.6464329" lon="7.8155222"><ele>240.16666666666666</ele><time>2026-04-12T09:28:19.995Z</time></trkpt><trkpt lat="44.6463725" lon="7.8154344"><ele>240.33333333333331</ele><time>2026-04-12T09:28:21.996Z</time></trkpt><trkpt lat="44.6463158" lon="7.81534"><ele>240.5</ele><time>2026-04-12T09:28:23.995Z</time></trkpt><trkpt lat="44.6462626" lon="7.8152444"><ele>240.66666666666666</ele><time>2026-04-12T09:28:25.995Z</time></trkpt><trkpt lat="44.6462068" lon="7.8151518"><ele>240.83333333333331</ele><time>2026-04-12T09:28:27.995Z</time></trkpt><trkpt lat="44.6461547" lon="7.8150563"><ele>241.0</ele><time>2026-04-12T09:28:29.996Z</time></trkpt><trkpt lat="44.6461059" lon="7.8149587"><ele>241.16666666666666</ele><time>2026-04-12T09:28:31.995Z</time></trkpt><trkpt lat="44.6460557" lon="7.814859"><ele>241.33333333333331</ele><time>2026-04-12T09:28:33.995Z</time></trkpt><trkpt lat="44.6460039" lon="7.8147621"><ele>241.5</ele><time>2026-04-12T09:28:35.995Z</time></trkpt><trkpt lat="44.645953" lon="7.8146613"><ele>241.66666666666669</ele><time>2026-04-12T09:28:37.995Z</time></trkpt><trkpt lat="44.6459047" lon="7.8145584"><ele>241.83333333333334</ele><time>2026-04-12T09:28:39.996Z</time></trkpt><trkpt lat="44.6458541" lon="7.8144574"><ele>242.0</ele><time>2026-04-12T09:28:41.995Z</time></trkpt><trkpt lat="44.6457981" lon="7.81436"><ele>242.00000000000003</ele><time>2026-04-12T09:28:43.995Z</time></trkpt><trkpt lat="44.6457448" lon="7.8142628"><ele>242.0</ele><time>2026-04-12T09:28:45.995Z</time></trkpt><trkpt lat="44.6456884" lon="7.8141678"><ele>242.0</ele><time>2026-04-12T09:28:47.995Z</time></trkpt><trkpt lat="44.6456269" lon="7.8140746"><ele>242.0</ele><time>2026-04-12T09:28:49.995Z</time></trkpt><trkpt lat="44.6455701" lon="7.8139785"><ele>242.00000000000003</ele><time>2026-04-12T09:28:51.995Z</time></trkpt><trkpt lat="44.6455097" lon="7.8138885"><ele>242.0</ele><time>2026-04-12T09:28:53.995Z</time></trkpt><trkpt lat="44.6454474" lon="7.8138018"><ele>242.0</ele><time>2026-04-12T09:28:55.995Z</time></trkpt><trkpt lat="44.6453763" lon="7.8137215"><ele>242.0</ele><time>2026-04-12T09:28:57.995Z</time></trkpt><trkpt lat="44.6453002" lon="7.8136472"><ele>242.0</ele><time>2026-04-12T09:28:59.995Z</time></trkpt><trkpt lat="44.6452215" lon="7.8135747"><ele>242.0</ele><time>2026-04-12T09:29:01.996Z</time></trkpt><trkpt lat="44.6451456" lon="7.8134948"><ele>242.0</ele><time>2026-04-12T09:29:03.995Z</time></trkpt><trkpt lat="44.645067" lon="7.8134119"><ele>241.8</ele><time>2026-04-12T09:29:05.996Z</time></trkpt><trkpt lat="44.6449904" lon="7.8133271"><ele>241.6</ele><time>2026-04-12T09:29:07.995Z</time></trkpt><trkpt lat="44.6449158" lon="7.8132398"><ele>241.40000000000003</ele><time>2026-04-12T09:29:09.995Z</time></trkpt><trkpt lat="44.6448429" lon="7.8131513"><ele>241.20000000000002</ele><time>2026-04-12T09:29:11.995Z</time></trkpt><trkpt lat="44.6447692" lon="7.8130614"><ele>241.0</ele><time>2026-04-12T09:29:13.995Z</time></trkpt><trkpt lat="44.6446969" lon="7.8129718"><ele>241.0</ele><time>2026-04-12T09:29:15.996Z</time></trkpt><trkpt lat="44.6446234" lon="7.8128872"><ele>241.00000000000003</ele><time>2026-04-12T09:29:17.995Z</time></trkpt><trkpt lat="44.6445513" lon="7.812804"><ele>241.00000000000003</ele><time>2026-04-12T09:29:19.995Z</time></trkpt><trkpt lat="44.6444807" lon="7.8127246"><ele>241.0</ele><time>2026-04-12T09:29:21.996Z</time></trkpt><trkpt lat="44.6444093" lon="7.812648"><ele>241.0</ele><time>2026-04-12T09:29:23.995Z</time></trkpt><trkpt lat="44.6443373" lon="7.812574"><ele>241.49999999999997</ele><time>2026-04-12T09:29:25.995Z</time></trkpt><trkpt lat="44.6442674" lon="7.8124982"><ele>242.0</ele><time>2026-04-12T09:29:27.995Z</time></trkpt><trkpt lat="44.6441963" lon="7.8124207"><ele>242.5</ele><time>2026-04-12T09:29:29.995Z</time></trkpt><trkpt lat="44.644125" lon="7.8123435"><ele>243.0</ele><time>2026-04-12T09:29:31.995Z</time></trkpt><trkpt lat="44.6440521" lon="7.8122698"><ele>243.49999999999997</ele><time>2026-04-12T09:29:33.995Z</time></trkpt><trkpt lat="44.6439795" lon="7.8121971"><ele>244.0</ele><time>2026-04-12T09:29:35.996Z</time></trkpt><trkpt lat="44.6439065" lon="7.8121319"><ele>243.99999999999997</ele><time>2026-04-12T09:29:37.995Z</time></trkpt><trkpt lat="44.6438344" lon="7.8120739"><ele>244.0</ele><time>2026-04-12T09:29:39.995Z</time></trkpt><trkpt lat="44.6437565" lon="7.8120265"><ele>244.0</ele><time>2026-04-12T09:29:41.995Z</time></trkpt><trkpt lat="44.6436793" lon="7.8119875"><ele>244.0</ele><time>2026-04-12T09:29:43.995Z</time></trkpt><trkpt lat="44.6436114" lon="7.8119425"><ele>243.99999999999997</ele><time>2026-04-12T09:29:45.996Z</time></trkpt><trkpt lat="44.6435569" lon="7.811895"><ele>244.0</ele><time>2026-04-12T09:29:47.996Z</time></trkpt><trkpt lat="44.6434817" lon="7.8118589"><ele>243.99999999999997</ele><time>2026-04-12T09:29:50.995Z</time></trkpt><trkpt lat="44.6434363" lon="7.811931"><ele>244.0</ele><time>2026-04-12T09:29:53.996Z</time></trkpt><trkpt lat="44.6435027" lon="7.8119979"><ele>244.0</ele><time>2026-04-12T09:29:56.995Z</time></trkpt><trkpt lat="44.6435851" lon="7.8120287"><ele>244.0</ele><time>2026-04-12T09:29:59.995Z</time></trkpt><trkpt lat="44.6436543" lon="7.8120441"><ele>243.99999999999997</ele><time>2026-04-12T09:30:01.995Z</time></trkpt><trkpt lat="44.6437187" lon="7.8120427"><ele>244.0</ele><time>2026-04-12T09:30:03.995Z</time></trkpt><trkpt lat="44.6438067" lon="7.8120718"><ele>243.99999999999997</ele><time>2026-04-12T09:30:06.995Z</time></trkpt><trkpt lat="44.6438692" lon="7.8121345"><ele>244.0</ele><time>2026-04-12T09:30:08.995Z</time></trkpt><trkpt lat="44.6439382" lon="7.8121886"><ele>244.0</ele><time>2026-04-12T09:30:10.995Z</time></trkpt><trkpt lat="44.6439956" lon="7.8122453"><ele>244.0</ele><time>2026-04-12T09:30:12.996Z</time></trkpt><trkpt lat="44.6440812" lon="7.8122392"><ele>243.99999999999997</ele><time>2026-04-12T09:30:15.995Z</time></trkpt><trkpt lat="44.6441166" lon="7.8121582"><ele>244.0</ele><time>2026-04-12T09:30:17.995Z</time></trkpt><trkpt lat="44.6441662" lon="7.8120698"><ele>243.99999999999997</ele><time>2026-04-12T09:30:19.995Z</time></trkpt><trkpt lat="44.6441967" lon="7.8119681"><ele>244.0</ele><time>2026-04-12T09:30:21.995Z</time></trkpt><trkpt lat="44.6442111" lon="7.8118563"><ele>244.0</ele><time>2026-04-12T09:30:23.995Z</time></trkpt><trkpt lat="44.6441867" lon="7.8117436"><ele>244.0</ele><time>2026-04-12T09:30:25.995Z</time></trkpt><trkpt lat="44.6441338" lon="7.8116502"><ele>243.99999999999997</ele><time>2026-04-12T09:30:27.995Z</time></trkpt><trkpt lat="44.6440851" lon="7.8115549"><ele>244.0</ele><time>2026-04-12T09:30:29.995Z</time></trkpt><trkpt lat="44.6440315" lon="7.8114651"><ele>243.99999999999997</ele><time>2026-04-12T09:30:31.995Z</time></trkpt><trkpt lat="44.6439756" lon="7.8113799"><ele>244.0</ele><time>2026-04-12T09:30:33.995Z</time></trkpt><trkpt lat="44.6439235" lon="7.811293"><ele>244.0</ele><time>2026-04-12T09:30:35.996Z</time></trkpt><trkpt lat="44.6438644" lon="7.8112095"><ele>244.0</ele><time>2026-04-12T09:30:37.995Z</time></trkpt><trkpt lat="44.6438106" lon="7.8111107"><ele>243.99999999999997</ele><time>2026-04-12T09:30:39.995Z</time></trkpt><trkpt lat="44.6437575" lon="7.8110248"><ele>244.0</ele><time>2026-04-12T09:30:41.995Z</time></trkpt><trkpt lat="44.6436888" lon="7.8109921"><ele>244.1428571428571</ele><time>2026-04-12T09:30:43.996Z</time></trkpt><trkpt lat="44.6436268" lon="7.8110244"><ele>244.28571428571428</ele><time>2026-04-12T09:30:45.995Z</time></trkpt><trkpt lat="44.6435814" lon="7.8111074"><ele>244.42857142857142</ele><time>2026-04-12T09:30:47.995Z</time></trkpt><trkpt lat="44.6435233" lon="7.8111734"><ele>244.57142857142856</ele><time>2026-04-12T09:30:49.996Z</time></trkpt><trkpt lat="44.6434491" lon="7.8111795"><ele>244.71428571428572</ele><time>2026-04-12T09:30:51.996Z</time></trkpt><trkpt lat="44.6433943" lon="7.8111042"><ele>244.85714285714286</ele><time>2026-04-12T09:30:53.995Z</time></trkpt><trkpt lat="44.6433515" lon="7.8110108"><ele>245.0</ele><time>2026-04-12T09:30:55.995Z</time></trkpt><trkpt lat="44.6433019" lon="7.8109104"><ele>245.0</ele><time>2026-04-12T09:30:57.996Z</time></trkpt><trkpt lat="44.6432472" lon="7.8108059"><ele>245.0</ele><time>2026-04-12T09:30:59.995Z</time></trkpt><trkpt lat="44.643197" lon="7.8106978"><ele>245.0</ele><time>2026-04-12T09:31:01.995Z</time></trkpt><trkpt lat="44.6431314" lon="7.8105914"><ele>245.0</ele><time>2026-04-12T09:31:03.995Z</time></trkpt><trkpt lat="44.6430799" lon="7.8104916"><ele>245.0</ele><time>2026-04-12T09:31:05.996Z</time></trkpt><trkpt lat="44.6430246" lon="7.8103806"><ele>245.0</ele><time>2026-04-12T09:31:07.997Z</time></trkpt><trkpt lat="44.6429703" lon="7.8102686"><ele>245.0</ele><time>2026-04-12T09:31:09.996Z</time></trkpt><trkpt lat="44.6429211" lon="7.8101567"><ele>245.0</ele><time>2026-04-12T09:31:11.997Z</time></trkpt><trkpt lat="44.642883" lon="7.8100442"><ele>245.0</ele><time>2026-04-12T09:31:13.996Z</time></trkpt><trkpt lat="44.642834" lon="7.8099467"><ele>245.0</ele><time>2026-04-12T09:31:15.996Z</time></trkpt><trkpt lat="44.6427826" lon="7.8098468"><ele>244.8</ele><time>2026-04-12T09:31:17.996Z</time></trkpt><trkpt lat="44.6427326" lon="7.8097428"><ele>244.6</ele><time>2026-04-12T09:31:19.996Z</time></trkpt><trkpt lat="44.6426846" lon="7.8096328"><ele>244.39999999999998</ele><time>2026-04-12T09:31:21.996Z</time></trkpt><trkpt lat="44.6426304" lon="7.8095228"><ele>244.2</ele><time>2026-04-12T09:31:23.996Z</time></trkpt><trkpt lat="44.642568" lon="7.8094183"><ele>244.0</ele><time>2026-04-12T09:31:25.997Z</time></trkpt><trkpt lat="44.6425057" lon="7.8093142"><ele>244.39999999999998</ele><time>2026-04-12T09:31:27.996Z</time></trkpt><trkpt lat="44.642437" lon="7.8092127"><ele>244.79999999999998</ele><time>2026-04-12T09:31:29.997Z</time></trkpt><trkpt lat="44.6423713" lon="7.8091078"><ele>245.20000000000002</ele><time>2026-04-12T09:31:31.996Z</time></trkpt><trkpt lat="44.6423134" lon="7.8089972"><ele>245.60000000000002</ele><time>2026-04-12T09:31:33.996Z</time></trkpt><trkpt lat="44.642251" lon="7.8088921"><ele>246.0</ele><time>2026-04-12T09:31:35.996Z</time></trkpt><trkpt lat="44.6421802" lon="7.8087971"><ele>246.0</ele><time>2026-04-12T09:31:37.996Z</time></trkpt><trkpt lat="44.6421108" lon="7.8086996"><ele>246.00000000000003</ele><time>2026-04-12T09:31:39.997Z</time></trkpt><trkpt lat="44.6420427" lon="7.8086003"><ele>246.00000000000003</ele><time>2026-04-12T09:31:41.996Z</time></trkpt><trkpt lat="44.6419764" lon="7.808504"><ele>246.0</ele><time>2026-04-12T09:31:43.996Z</time></trkpt><trkpt lat="44.6419212" lon="7.808396"><ele>246.0</ele><time>2026-04-12T09:31:45.996Z</time></trkpt><trkpt lat="44.6418714" lon="7.8082803"><ele>246.4</ele><time>2026-04-12T09:31:47.996Z</time></trkpt><trkpt lat="44.641818" lon="7.8081623"><ele>246.8</ele><time>2026-04-12T09:31:49.996Z</time></trkpt><trkpt lat="44.6417638" lon="7.8080461"><ele>247.20000000000002</ele><time>2026-04-12T09:31:51.996Z</time></trkpt><trkpt lat="44.6417073" lon="7.8079347"><ele>247.60000000000002</ele><time>2026-04-12T09:31:53.996Z</time></trkpt><trkpt lat="44.6416514" lon="7.8078206"><ele>248.0</ele><time>2026-04-12T09:31:55.996Z</time></trkpt><trkpt lat="44.6415976" lon="7.8077019"><ele>248.2</ele><time>2026-04-12T09:31:57.997Z</time></trkpt><trkpt lat="44.6415418" lon="7.8075923"><ele>248.4</ele><time>2026-04-12T09:31:59.997Z</time></trkpt><trkpt lat="44.6414817" lon="7.8074938"><ele>248.59999999999997</ele><time>2026-04-12T09:32:01.997Z</time></trkpt><trkpt lat="44.641425" lon="7.8073929"><ele>248.79999999999998</ele><time>2026-04-12T09:32:03.996Z</time></trkpt><trkpt lat="44.6413679" lon="7.8072901"><ele>249.0</ele><time>2026-04-12T09:32:05.996Z</time></trkpt><trkpt lat="44.6413126" lon="7.8071849"><ele>249.0</ele><time>2026-04-12T09:32:07.996Z</time></trkpt><trkpt lat="44.6412592" lon="7.8070789"><ele>248.99999999999997</ele><time>2026-04-12T09:32:09.997Z</time></trkpt><trkpt lat="44.6412056" lon="7.806971"><ele>248.99999999999997</ele><time>2026-04-12T09:32:11.996Z</time></trkpt><trkpt lat="44.6411522" lon="7.8068623"><ele>249.0</ele><time>2026-04-12T09:32:13.996Z</time></trkpt><trkpt lat="44.6410955" lon="7.8067568"><ele>249.0</ele><time>2026-04-12T09:32:15.996Z</time></trkpt><trkpt lat="44.6410342" lon="7.8066552"><ele>249.2</ele><time>2026-04-12T09:32:17.996Z</time></trkpt><trkpt lat="44.6409734" lon="7.8065494"><ele>249.39999999999998</ele><time>2026-04-12T09:32:19.997Z</time></trkpt><trkpt lat="44.6409086" lon="7.8064496"><ele>249.6</ele><time>2026-04-12T09:32:21.996Z</time></trkpt><trkpt lat="44.6408376" lon="7.8063572"><ele>249.8</ele><time>2026-04-12T09:32:23.997Z</time></trkpt><trkpt lat="44.6407629" lon="7.8062701"><ele>250.0</ele><time>2026-04-12T09:32:25.996Z</time></trkpt><trkpt lat="44.6406869" lon="7.8061868"><ele>250.0</ele><time>2026-04-12T09:32:27.996Z</time></trkpt><trkpt lat="44.6406064" lon="7.8061089"><ele>250.0</ele><time>2026-04-12T09:32:29.996Z</time></trkpt><trkpt lat="44.6405244" lon="7.8060345"><ele>250.0</ele><time>2026-04-12T09:32:31.996Z</time></trkpt><trkpt lat="44.6404457" lon="7.8059638"><ele>250.0</ele><time>2026-04-12T09:32:33.996Z</time></trkpt><trkpt lat="44.6403679" lon="7.8058985"><ele>250.0</ele><time>2026-04-12T09:32:35.997Z</time></trkpt><trkpt lat="44.6402851" lon="7.80584"><ele>249.6</ele><time>2026-04-12T09:32:37.996Z</time></trkpt><trkpt lat="44.6402045" lon="7.8057764"><ele>249.2</ele><time>2026-04-12T09:32:39.996Z</time></trkpt><trkpt lat="44.6401222" lon="7.8057104"><ele>248.8</ele><time>2026-04-12T09:32:41.996Z</time></trkpt><trkpt lat="44.640041" lon="7.8056378"><ele>248.4</ele><time>2026-04-12T09:32:43.996Z</time></trkpt><trkpt lat="44.639962" lon="7.8055623"><ele>248.0</ele><time>2026-04-12T09:32:45.996Z</time></trkpt><trkpt lat="44.6398836" lon="7.8054885"><ele>248.0</ele><time>2026-04-12T09:32:47.996Z</time></trkpt><trkpt lat="44.6398027" lon="7.8054189"><ele>248.0</ele><time>2026-04-12T09:32:49.996Z</time></trkpt><trkpt lat="44.6397255" lon="7.8053484"><ele>248.0</ele><time>2026-04-12T09:32:51.996Z</time></trkpt><trkpt lat="44.6396551" lon="7.8052697"><ele>248.0</ele><time>2026-04-12T09:32:53.996Z</time></trkpt><trkpt lat="44.6395872" lon="7.8051852"><ele>248.0</ele><time>2026-04-12T09:32:55.996Z</time></trkpt><trkpt lat="44.639521" lon="7.8050976"><ele>248.00000000000003</ele><time>2026-04-12T09:32:57.996Z</time></trkpt><trkpt lat="44.6394556" lon="7.8050083"><ele>248.0</ele><time>2026-04-12T09:32:59.996Z</time></trkpt><trkpt lat="44.6393892" lon="7.804924"><ele>248.0</ele><time>2026-04-12T09:33:01.996Z</time></trkpt><trkpt lat="44.639324" lon="7.8048427"><ele>248.0</ele><time>2026-04-12T09:33:03.996Z</time></trkpt><trkpt lat="44.6392661" lon="7.8047596"><ele>248.00000000000003</ele><time>2026-04-12T09:33:05.997Z</time></trkpt><trkpt lat="44.6392116" lon="7.804674"><ele>248.0</ele><time>2026-04-12T09:33:07.997Z</time></trkpt><trkpt lat="44.6391589" lon="7.8045893"><ele>248.00000000000003</ele><time>2026-04-12T09:33:09.996Z</time></trkpt><trkpt lat="44.6391105" lon="7.8044899"><ele>248.0</ele><time>2026-04-12T09:33:11.997Z</time></trkpt><trkpt lat="44.6390571" lon="7.804393"><ele>248.0</ele><time>2026-04-12T09:33:13.996Z</time></trkpt><trkpt lat="44.6390039" lon="7.8042988"><ele>248.0</ele><time>2026-04-12T09:33:15.996Z</time></trkpt><trkpt lat="44.6389558" lon="7.8042087"><ele>248.00000000000003</ele><time>2026-04-12T09:33:17.997Z</time></trkpt><trkpt lat="44.6389155" lon="7.8041142"><ele>248.0</ele><time>2026-04-12T09:33:19.996Z</time></trkpt><trkpt lat="44.6388708" lon="7.8040182"><ele>248.4</ele><time>2026-04-12T09:33:21.996Z</time></trkpt><trkpt lat="44.6388215" lon="7.8039185"><ele>248.8</ele><time>2026-04-12T09:33:23.996Z</time></trkpt><trkpt lat="44.6387665" lon="7.8038141"><ele>249.2</ele><time>2026-04-12T09:33:25.996Z</time></trkpt><trkpt lat="44.6387156" lon="7.803698"><ele>249.6</ele><time>2026-04-12T09:33:27.996Z</time></trkpt><trkpt lat="44.6386679" lon="7.8035796"><ele>250.0</ele><time>2026-04-12T09:33:29.996Z</time></trkpt><trkpt lat="44.6386187" lon="7.803459"><ele>250.0</ele><time>2026-04-12T09:33:31.996Z</time></trkpt><trkpt lat="44.6385668" lon="7.8033345"><ele>250.0</ele><time>2026-04-12T09:33:33.996Z</time></trkpt><trkpt lat="44.6385167" lon="7.803208"><ele>250.0</ele><time>2026-04-12T09:33:35.996Z</time></trkpt><trkpt lat="44.6384601" lon="7.8030868"><ele>250.0</ele><time>2026-04-12T09:33:37.996Z</time></trkpt><trkpt lat="44.638403" lon="7.802969"><ele>250.0</ele><time>2026-04-12T09:33:39.996Z</time></trkpt><trkpt lat="44.6383467" lon="7.8028477"><ele>250.0</ele><time>2026-04-12T09:33:41.996Z</time></trkpt><trkpt lat="44.6382857" lon="7.8027288"><ele>250.0</ele><time>2026-04-12T09:33:43.996Z</time></trkpt><trkpt lat="44.6382222" lon="7.8026206"><ele>250.0</ele><time>2026-04-12T09:33:45.997Z</time></trkpt><trkpt lat="44.6381532" lon="7.8025227"><ele>250.0</ele><time>2026-04-12T09:33:47.997Z</time></trkpt><trkpt lat="44.6380791" lon="7.8024262"><ele>250.0</ele><time>2026-04-12T09:33:49.996Z</time></trkpt><trkpt lat="44.6380016" lon="7.8023224"><ele>250.5</ele><time>2026-04-12T09:33:51.997Z</time></trkpt><trkpt lat="44.6379231" lon="7.802212"><ele>251.0</ele><time>2026-04-12T09:33:53.996Z</time></trkpt><trkpt lat="44.6378432" lon="7.8020989"><ele>251.5</ele><time>2026-04-12T09:33:55.997Z</time></trkpt><trkpt lat="44.6377517" lon="7.8019826"><ele>252.0</ele><time>2026-04-12T09:33:57.996Z</time></trkpt><trkpt lat="44.6376666" lon="7.8018657"><ele>251.25</ele><time>2026-04-12T09:33:59.997Z</time></trkpt><trkpt lat="44.6375827" lon="7.801749"><ele>250.5</ele><time>2026-04-12T09:34:01.997Z</time></trkpt><trkpt lat="44.6374986" lon="7.8016326"><ele>249.75</ele><time>2026-04-12T09:34:03.996Z</time></trkpt><trkpt lat="44.637407" lon="7.801535"><ele>249.0</ele><time>2026-04-12T09:34:05.996Z</time></trkpt><trkpt lat="44.6373149" lon="7.80145"><ele>249.0</ele><time>2026-04-12T09:34:07.996Z</time></trkpt><trkpt lat="44.6372211" lon="7.8013697"><ele>248.99999999999997</ele><time>2026-04-12T09:34:09.996Z</time></trkpt><trkpt lat="44.6371326" lon="7.8012899"><ele>248.99999999999997</ele><time>2026-04-12T09:34:11.996Z</time></trkpt><trkpt lat="44.6370518" lon="7.8012099"><ele>249.0</ele><time>2026-04-12T09:34:13.996Z</time></trkpt><trkpt lat="44.6369787" lon="7.8011285"><ele>249.0</ele><time>2026-04-12T09:34:15.996Z</time></trkpt><trkpt lat="44.6369173" lon="7.8010381"><ele>249.16666666666666</ele><time>2026-04-12T09:34:17.997Z</time></trkpt><trkpt lat="44.6368683" lon="7.8009495"><ele>249.33333333333331</ele><time>2026-04-12T09:34:19.996Z</time></trkpt><trkpt lat="44.6368284" lon="7.8008727"><ele>249.5</ele><time>2026-04-12T09:34:21.996Z</time></trkpt><trkpt lat="44.636774" lon="7.8007944"><ele>249.66666666666666</ele><time>2026-04-12T09:34:23.996Z</time></trkpt><trkpt lat="44.6366903" lon="7.8007273"><ele>249.83333333333331</ele><time>2026-04-12T09:34:25.997Z</time></trkpt><trkpt lat="44.63659" lon="7.800672"><ele>250.0</ele><time>2026-04-12T09:34:27.996Z</time></trkpt><trkpt lat="44.6364915" lon="7.8005798"><ele>249.99999999999997</ele><time>2026-04-12T09:34:29.996Z</time></trkpt><trkpt lat="44.6363968" lon="7.800466"><ele>250.0</ele><time>2026-04-12T09:34:31.996Z</time></trkpt><trkpt lat="44.6363507" lon="7.8004038"><ele>250.0</ele><time>2026-04-12T09:34:32.996Z</time></trkpt><trkpt lat="44.6363031" lon="7.8003425"><ele>250.0</ele><time>2026-04-12T09:34:33.996Z</time></trkpt><trkpt lat="44.6362566" lon="7.8002817"><ele>249.99999999999997</ele><time>2026-04-12T09:34:34.996Z</time></trkpt><trkpt lat="44.6362113" lon="7.8002152"><ele>250.0</ele><time>2026-04-12T09:34:35.996Z</time></trkpt><trkpt lat="44.6361653" lon="7.8001442"><ele>249.85714285714283</ele><time>2026-04-12T09:34:36.996Z</time></trkpt><trkpt lat="44.6361185" lon="7.8000736"><ele>249.71428571428572</ele><time>2026-04-12T09:34:37.997Z</time></trkpt><trkpt lat="44.6360721" lon="7.8000007"><ele>249.57142857142856</ele><time>2026-04-12T09:34:38.996Z</time></trkpt><trkpt lat="44.6360237" lon="7.7999303"><ele>249.42857142857142</ele><time>2026-04-12T09:34:39.996Z</time></trkpt><trkpt lat="44.635972" lon="7.7998617"><ele>249.28571428571428</ele><time>2026-04-12T09:34:40.996Z</time></trkpt><trkpt lat="44.6359143" lon="7.7998008"><ele>249.14285714285714</ele><time>2026-04-12T09:34:41.996Z</time></trkpt><trkpt lat="44.6358571" lon="7.7997411"><ele>249.0</ele><time>2026-04-12T09:34:42.996Z</time></trkpt><trkpt lat="44.6357997" lon="7.7996832"><ele>249.0</ele><time>2026-04-12T09:34:43.996Z</time></trkpt><trkpt lat="44.6357401" lon="7.7996271"><ele>248.99999999999997</ele><time>2026-04-12T09:34:44.996Z</time></trkpt><trkpt lat="44.6356817" lon="7.7995703"><ele>249.0</ele><time>2026-04-12T09:34:45.996Z</time></trkpt><trkpt lat="44.635623" lon="7.7995175"><ele>249.0</ele><time>2026-04-12T09:34:46.997Z</time></trkpt><trkpt lat="44.6355632" lon="7.7994634"><ele>248.99999999999997</ele><time>2026-04-12T09:34:47.996Z</time></trkpt><trkpt lat="44.6355042" lon="7.7994113"><ele>249.0</ele><time>2026-04-12T09:34:48.996Z</time></trkpt><trkpt lat="44.6354406" lon="7.7993667"><ele>249.0</ele><time>2026-04-12T09:34:49.996Z</time></trkpt><trkpt lat="44.6353762" lon="7.7993247"><ele>248.85714285714283</ele><time>2026-04-12T09:34:50.996Z</time></trkpt><trkpt lat="44.6353115" lon="7.7992856"><ele>248.7142857142857</ele><time>2026-04-12T09:34:51.996Z</time></trkpt><trkpt lat="44.6352452" lon="7.7992557"><ele>248.57142857142856</ele><time>2026-04-12T09:34:52.996Z</time></trkpt><trkpt lat="44.6351785" lon="7.799229"><ele>248.42857142857144</ele><time>2026-04-12T09:34:53.996Z</time></trkpt><trkpt lat="44.635112" lon="7.7991998"><ele>248.2857142857143</ele><time>2026-04-12T09:34:54.995Z</time></trkpt><trkpt lat="44.6350485" lon="7.7991717"><ele>248.14285714285717</ele><time>2026-04-12T09:34:55.996Z</time></trkpt><trkpt lat="44.634988" lon="7.799139"><ele>248.0</ele><time>2026-04-12T09:34:56.996Z</time></trkpt><trkpt lat="44.6348753" lon="7.7990584"><ele>248.0</ele><time>2026-04-12T09:34:58.995Z</time></trkpt><trkpt lat="44.6348153" lon="7.799011"><ele>248.00000000000003</ele><time>2026-04-12T09:34:59.996Z</time></trkpt><trkpt lat="44.6347534" lon="7.7989599"><ele>248.0</ele><time>2026-04-12T09:35:00.996Z</time></trkpt><trkpt lat="44.6346895" lon="7.7989123"><ele>248.0</ele><time>2026-04-12T09:35:01.995Z</time></trkpt><trkpt lat="44.634629" lon="7.7988589"><ele>248.00000000000003</ele><time>2026-04-12T09:35:02.996Z</time></trkpt><trkpt lat="44.6345687" lon="7.7988091"><ele>248.0</ele><time>2026-04-12T09:35:03.995Z</time></trkpt><trkpt lat="44.6345089" lon="7.7987611"><ele>248.0</ele><time>2026-04-12T09:35:04.995Z</time></trkpt><trkpt lat="44.6344463" lon="7.7987141"><ele>247.71428571428572</ele><time>2026-04-12T09:35:05.996Z</time></trkpt><trkpt lat="44.6343865" lon="7.7986665"><ele>247.42857142857144</ele><time>2026-04-12T09:35:06.995Z</time></trkpt><trkpt lat="44.6343249" lon="7.798622"><ele>247.14285714285717</ele><time>2026-04-12T09:35:07.995Z</time></trkpt><trkpt lat="44.63426" lon="7.7985824"><ele>246.8571428571429</ele><time>2026-04-12T09:35:08.996Z</time></trkpt><trkpt lat="44.6341952" lon="7.7985424"><ele>246.57142857142858</ele><time>2026-04-12T09:35:09.996Z</time></trkpt><trkpt lat="44.6341314" lon="7.7985136"><ele>246.28571428571433</ele><time>2026-04-12T09:35:10.997Z</time></trkpt><trkpt lat="44.6340683" lon="7.7984961"><ele>246.00000000000003</ele><time>2026-04-12T09:35:11.995Z</time></trkpt><trkpt lat="44.6340036" lon="7.7984803"><ele>246.60000000000002</ele><time>2026-04-12T09:35:12.996Z</time></trkpt><trkpt lat="44.6339392" lon="7.7984684"><ele>247.20000000000002</ele><time>2026-04-12T09:35:13.997Z</time></trkpt><trkpt lat="44.633873" lon="7.7984555"><ele>247.79999999999998</ele><time>2026-04-12T09:35:14.996Z</time></trkpt><trkpt lat="44.6337554" lon="7.7984269"><ele>248.39999999999998</ele><time>2026-04-12T09:35:16.995Z</time></trkpt><trkpt lat="44.6336364" lon="7.7983871"><ele>249.0</ele><time>2026-04-12T09:35:18.997Z</time></trkpt><trkpt lat="44.6335214" lon="7.7983315"><ele>249.0</ele><time>2026-04-12T09:35:20.995Z</time></trkpt><trkpt lat="44.6334112" lon="7.7982739"><ele>249.0</ele><time>2026-04-12T09:35:22.996Z</time></trkpt><trkpt lat="44.6333066" lon="7.7982094"><ele>249.0</ele><time>2026-04-12T09:35:24.995Z</time></trkpt><trkpt lat="44.6332083" lon="7.7981201"><ele>249.0</ele><time>2026-04-12T09:35:26.995Z</time></trkpt><trkpt lat="44.6331167" lon="7.7980414"><ele>249.0</ele><time>2026-04-12T09:35:28.996Z</time></trkpt><trkpt lat="44.6330374" lon="7.7979564"><ele>248.99999999999997</ele><time>2026-04-12T09:35:30.995Z</time></trkpt><trkpt lat="44.6329587" lon="7.7978782"><ele>248.99999999999997</ele><time>2026-04-12T09:35:32.995Z</time></trkpt><trkpt lat="44.6328843" lon="7.7978058"><ele>249.0</ele><time>2026-04-12T09:35:34.996Z</time></trkpt><trkpt lat="44.6328075" lon="7.7977245"><ele>249.0</ele><time>2026-04-12T09:35:36.995Z</time></trkpt><trkpt lat="44.6327312" lon="7.7976455"><ele>249.7142857142857</ele><time>2026-04-12T09:35:38.996Z</time></trkpt><trkpt lat="44.6326619" lon="7.7975878"><ele>250.4285714285714</ele><time>2026-04-12T09:35:40.996Z</time></trkpt><trkpt lat="44.632595" lon="7.7975317"><ele>251.14285714285714</ele><time>2026-04-12T09:35:42.996Z</time></trkpt><trkpt lat="44.632537" lon="7.7974726"><ele>251.85714285714283</ele><time>2026-04-12T09:35:44.995Z</time></trkpt><trkpt lat="44.6324837" lon="7.7974193"><ele>252.57142857142856</ele><time>2026-04-12T09:35:46.995Z</time></trkpt><trkpt lat="44.6324207" lon="7.7973812"><ele>253.28571428571428</ele><time>2026-04-12T09:35:48.995Z</time></trkpt><trkpt lat="44.6323558" lon="7.7973415"><ele>254.0</ele><time>2026-04-12T09:35:50.997Z</time></trkpt><trkpt lat="44.6323022" lon="7.797278"><ele>254.00000000000003</ele><time>2026-04-12T09:35:52.997Z</time></trkpt><trkpt lat="44.6322531" lon="7.7972081"><ele>254.0</ele><time>2026-04-12T09:35:54.996Z</time></trkpt><trkpt lat="44.6322153" lon="7.7971293"><ele>254.0</ele><time>2026-04-12T09:35:56.995Z</time></trkpt><trkpt lat="44.6321899" lon="7.7970442"><ele>254.0</ele><time>2026-04-12T09:35:58.996Z</time></trkpt><trkpt lat="44.6321557" lon="7.7969385"><ele>254.00000000000003</ele><time>2026-04-12T09:36:01.997Z</time></trkpt><trkpt lat="44.632131" lon="7.7968271"><ele>254.0</ele><time>2026-04-12T09:36:04.995Z</time></trkpt><trkpt lat="44.6320755" lon="7.7967328"><ele>254.2</ele><time>2026-04-12T09:36:07.995Z</time></trkpt><trkpt lat="44.6320119" lon="7.7966977"><ele>254.39999999999998</ele><time>2026-04-12T09:36:09.996Z</time></trkpt><trkpt lat="44.6319254" lon="7.7966955"><ele>254.6</ele><time>2026-04-12T09:36:11.997Z</time></trkpt><trkpt lat="44.631829" lon="7.7966981"><ele>254.8</ele><time>2026-04-12T09:36:13.996Z</time></trkpt><trkpt lat="44.6317314" lon="7.7966704"><ele>255.0</ele><time>2026-04-12T09:36:15.996Z</time></trkpt><trkpt lat="44.6316366" lon="7.7966251"><ele>255.0</ele><time>2026-04-12T09:36:17.995Z</time></trkpt><trkpt lat="44.6315505" lon="7.7965765"><ele>255.0</ele><time>2026-04-12T09:36:19.995Z</time></trkpt><trkpt lat="44.6314644" lon="7.7965201"><ele>255.0</ele><time>2026-04-12T09:36:21.995Z</time></trkpt><trkpt lat="44.6313857" lon="7.7964579"><ele>255.0</ele><time>2026-04-12T09:36:23.995Z</time></trkpt><trkpt lat="44.6312984" lon="7.7963759"><ele>255.0</ele><time>2026-04-12T09:36:25.995Z</time></trkpt><trkpt lat="44.6312183" lon="7.7962867"><ele>255.0</ele><time>2026-04-12T09:36:27.995Z</time></trkpt><trkpt lat="44.6311459" lon="7.7961855"><ele>255.0</ele><time>2026-04-12T09:36:29.996Z</time></trkpt><trkpt lat="44.6310648" lon="7.7960776"><ele>255.0</ele><time>2026-04-12T09:36:31.996Z</time></trkpt><trkpt lat="44.6309848" lon="7.7959715"><ele>255.0</ele><time>2026-04-12T09:36:33.996Z</time></trkpt><trkpt lat="44.6309125" lon="7.7958631"><ele>255.0</ele><time>2026-04-12T09:36:35.995Z</time></trkpt><trkpt lat="44.6308373" lon="7.7957479"><ele>254.4</ele><time>2026-04-12T09:36:37.995Z</time></trkpt><trkpt lat="44.6307638" lon="7.7956279"><ele>253.8</ele><time>2026-04-12T09:36:39.996Z</time></trkpt><trkpt lat="44.6306894" lon="7.7955096"><ele>253.2</ele><time>2026-04-12T09:36:41.996Z</time></trkpt><trkpt lat="44.630612" lon="7.7953982"><ele>252.6</ele><time>2026-04-12T09:36:43.997Z</time></trkpt><trkpt lat="44.6305307" lon="7.7952956"><ele>252.0</ele><time>2026-04-12T09:36:45.995Z</time></trkpt><trkpt lat="44.6304444" lon="7.7952035"><ele>252.0</ele><time>2026-04-12T09:36:47.995Z</time></trkpt><trkpt lat="44.6303646" lon="7.7951199"><ele>252.0</ele><time>2026-04-12T09:36:49.996Z</time></trkpt><trkpt lat="44.6302853" lon="7.7950509"><ele>252.0</ele><time>2026-04-12T09:36:51.995Z</time></trkpt><trkpt lat="44.6302072" lon="7.794961"><ele>252.0</ele><time>2026-04-12T09:36:53.997Z</time></trkpt><trkpt lat="44.6301386" lon="7.7948556"><ele>252.0</ele><time>2026-04-12T09:36:55.997Z</time></trkpt><trkpt lat="44.6300686" lon="7.7947473"><ele>252.0</ele><time>2026-04-12T09:36:57.996Z</time></trkpt><trkpt lat="44.629997" lon="7.7946379"><ele>252.0</ele><time>2026-04-12T09:36:59.996Z</time></trkpt><trkpt lat="44.6299188" lon="7.7945221"><ele>252.0</ele><time>2026-04-12T09:37:01.996Z</time></trkpt><trkpt lat="44.6298407" lon="7.7944208"><ele>252.0</ele><time>2026-04-12T09:37:03.995Z</time></trkpt><trkpt lat="44.629764" lon="7.794324"><ele>252.0</ele><time>2026-04-12T09:37:05.995Z</time></trkpt><trkpt lat="44.6296794" lon="7.794228"><ele>252.39999999999998</ele><time>2026-04-12T09:37:07.996Z</time></trkpt><trkpt lat="44.629593" lon="7.7941276"><ele>252.79999999999998</ele><time>2026-04-12T09:37:09.996Z</time></trkpt><trkpt lat="44.6295109" lon="7.794034"><ele>253.2</ele><time>2026-04-12T09:37:11.996Z</time></trkpt><trkpt lat="44.6294302" lon="7.7939492"><ele>253.6</ele><time>2026-04-12T09:37:13.995Z</time></trkpt><trkpt lat="44.6293415" lon="7.7938572"><ele>254.0</ele><time>2026-04-12T09:37:15.996Z</time></trkpt><trkpt lat="44.6292598" lon="7.7937815"><ele>254.0</ele><time>2026-04-12T09:37:17.995Z</time></trkpt><trkpt lat="44.6291808" lon="7.7937007"><ele>253.99999999999997</ele><time>2026-04-12T09:37:19.996Z</time></trkpt><trkpt lat="44.6291046" lon="7.7936269"><ele>253.99999999999997</ele><time>2026-04-12T09:37:21.995Z</time></trkpt><trkpt lat="44.6290234" lon="7.7935415"><ele>254.0</ele><time>2026-04-12T09:37:23.996Z</time></trkpt><trkpt lat="44.6289488" lon="7.7934726"><ele>254.0</ele><time>2026-04-12T09:37:25.995Z</time></trkpt><trkpt lat="44.6288753" lon="7.7933991"><ele>253.66666666666669</ele><time>2026-04-12T09:37:27.996Z</time></trkpt><trkpt lat="44.6287996" lon="7.7933303"><ele>253.33333333333334</ele><time>2026-04-12T09:37:29.997Z</time></trkpt><trkpt lat="44.6287318" lon="7.7932656"><ele>253.0</ele><time>2026-04-12T09:37:31.996Z</time></trkpt><trkpt lat="44.6286578" lon="7.7931956"><ele>252.66666666666669</ele><time>2026-04-12T09:37:33.995Z</time></trkpt><trkpt lat="44.6285867" lon="7.793123"><ele>252.33333333333334</ele><time>2026-04-12T09:37:35.995Z</time></trkpt><trkpt lat="44.6285245" lon="7.7930397"><ele>252.0</ele><time>2026-04-12T09:37:37.995Z</time></trkpt><trkpt lat="44.6284623" lon="7.7929602"><ele>252.0</ele><time>2026-04-12T09:37:39.996Z</time></trkpt><trkpt lat="44.6283986" lon="7.7928793"><ele>252.0</ele><time>2026-04-12T09:37:41.995Z</time></trkpt><trkpt lat="44.6283317" lon="7.7927941"><ele>252.0</ele><time>2026-04-12T09:37:43.996Z</time></trkpt><trkpt lat="44.6282659" lon="7.792709"><ele>252.0</ele><time>2026-04-12T09:37:45.995Z</time></trkpt><trkpt lat="44.6281981" lon="7.7926285"><ele>252.0</ele><time>2026-04-12T09:37:47.995Z</time></trkpt><trkpt lat="44.6281305" lon="7.7925504"><ele>252.0</ele><time>2026-04-12T09:37:49.995Z</time></trkpt><trkpt lat="44.6280577" lon="7.7924859"><ele>253.0</ele><time>2026-04-12T09:37:51.995Z</time></trkpt><trkpt lat="44.6279793" lon="7.7924399"><ele>254.0</ele><time>2026-04-12T09:37:53.995Z</time></trkpt><trkpt lat="44.6279011" lon="7.792406"><ele>255.0</ele><time>2026-04-12T09:37:55.995Z</time></trkpt><trkpt lat="44.62783" lon="7.7923693"><ele>256.0</ele><time>2026-04-12T09:37:57.995Z</time></trkpt><trkpt lat="44.6277715" lon="7.7923235"><ele>257.0</ele><time>2026-04-12T09:37:59.995Z</time></trkpt><trkpt lat="44.6277074" lon="7.7922487"><ele>258.0</ele><time>2026-04-12T09:38:02.995Z</time></trkpt><trkpt lat="44.6276509" lon="7.7921854"><ele>258.0</ele><time>2026-04-12T09:38:05.995Z</time></trkpt><trkpt lat="44.6276046" lon="7.7921053"><ele>258.0</ele><time>2026-04-12T09:38:08.996Z</time></trkpt><trkpt lat="44.6275649" lon="7.7920107"><ele>258.0</ele><time>2026-04-12T09:38:11.996Z</time></trkpt><trkpt lat="44.627533" lon="7.791907"><ele>258.0</ele><time>2026-04-12T09:38:14.995Z</time></trkpt><trkpt lat="44.6274974" lon="7.7918119"><ele>258.0</ele><time>2026-04-12T09:38:17.995Z</time></trkpt><trkpt lat="44.627438" lon="7.7917253"><ele>258.0</ele><time>2026-04-12T09:38:20.995Z</time></trkpt><trkpt lat="44.6273499" lon="7.7916976"><ele>258.0</ele><time>2026-04-12T09:38:23.996Z</time></trkpt><trkpt lat="44.6272872" lon="7.7917326"><ele>258.0</ele><time>2026-04-12T09:38:25.995Z</time></trkpt><trkpt lat="44.6272255" lon="7.7917835"><ele>258.0</ele><time>2026-04-12T09:38:27.995Z</time></trkpt><trkpt lat="44.6271545" lon="7.7918256"><ele>258.0</ele><time>2026-04-12T09:38:29.995Z</time></trkpt><trkpt lat="44.6270715" lon="7.7918465"><ele>258.0</ele><time>2026-04-12T09:38:31.995Z</time></trkpt><trkpt lat="44.6269801" lon="7.791844"><ele>258.0</ele><time>2026-04-12T09:38:33.995Z</time></trkpt><trkpt lat="44.6268958" lon="7.7917743"><ele>257.75</ele><time>2026-04-12T09:38:35.995Z</time></trkpt><trkpt lat="44.626826" lon="7.7916526"><ele>257.5</ele><time>2026-04-12T09:38:37.995Z</time></trkpt><trkpt lat="44.6267632" lon="7.7915169"><ele>257.25</ele><time>2026-04-12T09:38:39.996Z</time></trkpt><trkpt lat="44.6267105" lon="7.7913708"><ele>257.0</ele><time>2026-04-12T09:38:41.995Z</time></trkpt><trkpt lat="44.6266603" lon="7.7912277"><ele>257.0</ele><time>2026-04-12T09:38:43.996Z</time></trkpt><trkpt lat="44.6266134" lon="7.7910867"><ele>257.0</ele><time>2026-04-12T09:38:45.995Z</time></trkpt><trkpt lat="44.6265646" lon="7.7909508"><ele>257.0</ele><time>2026-04-12T09:38:47.995Z</time></trkpt><trkpt lat="44.6265207" lon="7.7908232"><ele>257.0</ele><time>2026-04-12T09:38:49.995Z</time></trkpt><trkpt lat="44.6264757" lon="7.7907003"><ele>257.0</ele><time>2026-04-12T09:38:51.995Z</time></trkpt><trkpt lat="44.6264317" lon="7.7905725"><ele>257.4</ele><time>2026-04-12T09:38:53.995Z</time></trkpt><trkpt lat="44.6263883" lon="7.7904404"><ele>257.79999999999995</ele><time>2026-04-12T09:38:55.995Z</time></trkpt><trkpt lat="44.6263457" lon="7.7903109"><ele>258.2</ele><time>2026-04-12T09:38:57.995Z</time></trkpt><trkpt lat="44.6263025" lon="7.7901803"><ele>258.59999999999997</ele><time>2026-04-12T09:38:59.995Z</time></trkpt><trkpt lat="44.6262538" lon="7.7900528"><ele>259.0</ele><time>2026-04-12T09:39:01.995Z</time></trkpt><trkpt lat="44.6262058" lon="7.7899343"><ele>259.4</ele><time>2026-04-12T09:39:03.995Z</time></trkpt><trkpt lat="44.6261522" lon="7.7898214"><ele>259.79999999999995</ele><time>2026-04-12T09:39:05.995Z</time></trkpt><trkpt lat="44.6260986" lon="7.7897157"><ele>260.20000000000005</ele><time>2026-04-12T09:39:07.995Z</time></trkpt><trkpt lat="44.6260446" lon="7.7896232"><ele>260.6</ele><time>2026-04-12T09:39:09.995Z</time></trkpt><trkpt lat="44.6259806" lon="7.7895297"><ele>261.0</ele><time>2026-04-12T09:39:11.995Z</time></trkpt><trkpt lat="44.6259078" lon="7.7894395"><ele>260.8</ele><time>2026-04-12T09:39:13.995Z</time></trkpt><trkpt lat="44.6258313" lon="7.7893519"><ele>260.6</ele><time>2026-04-12T09:39:15.996Z</time></trkpt><trkpt lat="44.625755" lon="7.7892779"><ele>260.4</ele><time>2026-04-12T09:39:17.995Z</time></trkpt><trkpt lat="44.6256706" lon="7.789212"><ele>260.2</ele><time>2026-04-12T09:39:19.995Z</time></trkpt><trkpt lat="44.6255823" lon="7.789155"><ele>260.0</ele><time>2026-04-12T09:39:21.995Z</time></trkpt><trkpt lat="44.6254948" lon="7.7891024"><ele>260.0</ele><time>2026-04-12T09:39:23.996Z</time></trkpt><trkpt lat="44.6254043" lon="7.7890652"><ele>260.0</ele><time>2026-04-12T09:39:25.995Z</time></trkpt><trkpt lat="44.6253154" lon="7.7890361"><ele>260.0</ele><time>2026-04-12T09:39:27.996Z</time></trkpt><trkpt lat="44.625229" lon="7.7890074"><ele>260.0</ele><time>2026-04-12T09:39:29.995Z</time></trkpt><trkpt lat="44.6251469" lon="7.788987"><ele>260.0</ele><time>2026-04-12T09:39:31.995Z</time></trkpt><trkpt lat="44.6250743" lon="7.7889671"><ele>260.0</ele><time>2026-04-12T09:39:33.996Z</time></trkpt><trkpt lat="44.6250036" lon="7.7889489"><ele>259.5</ele><time>2026-04-12T09:39:35.995Z</time></trkpt><trkpt lat="44.6249381" lon="7.788932"><ele>259.0</ele><time>2026-04-12T09:39:37.996Z</time></trkpt><trkpt lat="44.6248739" lon="7.7889212"><ele>258.5</ele><time>2026-04-12T09:39:39.996Z</time></trkpt><trkpt lat="44.6247801" lon="7.7889036"><ele>258.0</ele><time>2026-04-12T09:39:42.996Z</time></trkpt><trkpt lat="44.6247161" lon="7.788893"><ele>257.5</ele><time>2026-04-12T09:39:44.996Z</time></trkpt><trkpt lat="44.6246291" lon="7.7888665"><ele>257.0</ele><time>2026-04-12T09:39:47.997Z</time></trkpt><trkpt lat="44.6245628" lon="7.7888002"><ele>257.0</ele><time>2026-04-12T09:39:51.996Z</time></trkpt><trkpt lat="44.6244802" lon="7.7887805"><ele>257.0</ele><time>2026-04-12T09:39:55.996Z</time></trkpt><trkpt lat="44.6244081" lon="7.788766"><ele>257.0</ele><time>2026-04-12T09:39:58.996Z</time></trkpt><trkpt lat="44.6243458" lon="7.788729"><ele>257.0</ele><time>2026-04-12T09:40:00.996Z</time></trkpt><trkpt lat="44.6242612" lon="7.7886653"><ele>257.0</ele><time>2026-04-12T09:40:03.997Z</time></trkpt><trkpt lat="44.6241861" lon="7.7886094"><ele>257.0</ele><time>2026-04-12T09:40:05.996Z</time></trkpt><trkpt lat="44.6241105" lon="7.7885538"><ele>259.0</ele><time>2026-04-12T09:40:07.997Z</time></trkpt><trkpt lat="44.6240157" lon="7.7884947"><ele>261.0</ele><time>2026-04-12T09:40:09.997Z</time></trkpt><trkpt lat="44.6239416" lon="7.7884403"><ele>263.0</ele><time>2026-04-12T09:40:11.997Z</time></trkpt><trkpt lat="44.6238636" lon="7.7883833"><ele>265.0</ele><time>2026-04-12T09:40:13.996Z</time></trkpt><trkpt lat="44.6237847" lon="7.7883145"><ele>267.0</ele><time>2026-04-12T09:40:15.996Z</time></trkpt><trkpt lat="44.6236985" lon="7.7882488"><ele>265.8</ele><time>2026-04-12T09:40:17.997Z</time></trkpt><trkpt lat="44.6236105" lon="7.788186"><ele>264.6</ele><time>2026-04-12T09:40:19.996Z</time></trkpt><trkpt lat="44.6235138" lon="7.7881446"><ele>263.40000000000003</ele><time>2026-04-12T09:40:21.996Z</time></trkpt><trkpt lat="44.6234163" lon="7.7881123"><ele>262.2</ele><time>2026-04-12T09:40:23.996Z</time></trkpt><trkpt lat="44.6233193" lon="7.7880767"><ele>261.0</ele><time>2026-04-12T09:40:25.996Z</time></trkpt><trkpt lat="44.6232241" lon="7.788029"><ele>261.0</ele><time>2026-04-12T09:40:27.997Z</time></trkpt><trkpt lat="44.6231282" lon="7.787987"><ele>261.0</ele><time>2026-04-12T09:40:29.996Z</time></trkpt><trkpt lat="44.6230332" lon="7.7879687"><ele>261.0</ele><time>2026-04-12T09:40:31.996Z</time></trkpt><trkpt lat="44.6229421" lon="7.7879577"><ele>261.0</ele><time>2026-04-12T09:40:33.996Z</time></trkpt><trkpt lat="44.6228464" lon="7.787957"><ele>261.0</ele><time>2026-04-12T09:40:35.997Z</time></trkpt><trkpt lat="44.6227624" lon="7.7879643"><ele>260.42857142857144</ele><time>2026-04-12T09:40:37.996Z</time></trkpt><trkpt lat="44.6226863" lon="7.7879675"><ele>259.85714285714283</ele><time>2026-04-12T09:40:39.996Z</time></trkpt><trkpt lat="44.6226101" lon="7.7879587"><ele>259.2857142857143</ele><time>2026-04-12T09:40:41.996Z</time></trkpt><trkpt lat="44.6225336" lon="7.7879369"><ele>258.7142857142857</ele><time>2026-04-12T09:40:43.997Z</time></trkpt><trkpt lat="44.6224621" lon="7.7878886"><ele>258.14285714285717</ele><time>2026-04-12T09:40:45.996Z</time></trkpt><trkpt lat="44.622401" lon="7.7878435"><ele>257.57142857142856</ele><time>2026-04-12T09:40:47.997Z</time></trkpt><trkpt lat="44.6223435" lon="7.7877953"><ele>257.0</ele><time>2026-04-12T09:40:49.995Z</time></trkpt><trkpt lat="44.6222612" lon="7.7877272"><ele>257.0</ele><time>2026-04-12T09:40:52.996Z</time></trkpt><trkpt lat="44.6221956" lon="7.7876816"><ele>257.0</ele><time>2026-04-12T09:40:54.995Z</time></trkpt><trkpt lat="44.6221245" lon="7.7876365"><ele>257.0</ele><time>2026-04-12T09:40:56.996Z</time></trkpt><trkpt lat="44.6220542" lon="7.7875871"><ele>257.0</ele><time>2026-04-12T09:40:58.996Z</time></trkpt><trkpt lat="44.6219774" lon="7.7875451"><ele>257.0</ele><time>2026-04-12T09:41:00.995Z</time></trkpt><trkpt lat="44.6218961" lon="7.7875206"><ele>257.0</ele><time>2026-04-12T09:41:02.995Z</time></trkpt><trkpt lat="44.6218161" lon="7.7875013"><ele>257.0</ele><time>2026-04-12T09:41:04.995Z</time></trkpt><trkpt lat="44.6217375" lon="7.7874738"><ele>257.0</ele><time>2026-04-12T09:41:06.995Z</time></trkpt><trkpt lat="44.621659" lon="7.7874436"><ele>257.0</ele><time>2026-04-12T09:41:08.996Z</time></trkpt><trkpt lat="44.6215802" lon="7.787411"><ele>257.0</ele><time>2026-04-12T09:41:10.996Z</time></trkpt><trkpt lat="44.6215008" lon="7.7873762"><ele>257.0</ele><time>2026-04-12T09:41:12.996Z</time></trkpt><trkpt lat="44.6214223" lon="7.7873397"><ele>257.0</ele><time>2026-04-12T09:41:14.997Z</time></trkpt><trkpt lat="44.6213457" lon="7.7872994"><ele>257.0</ele><time>2026-04-12T09:41:16.995Z</time></trkpt><trkpt lat="44.621269" lon="7.7872611"><ele>257.0</ele><time>2026-04-12T09:41:18.995Z</time></trkpt><trkpt lat="44.6211906" lon="7.787221"><ele>257.0</ele><time>2026-04-12T09:41:20.995Z</time></trkpt><trkpt lat="44.6211155" lon="7.787171"><ele>257.0</ele><time>2026-04-12T09:41:22.995Z</time></trkpt><trkpt lat="44.6210492" lon="7.7871037"><ele>257.0</ele><time>2026-04-12T09:41:24.995Z</time></trkpt><trkpt lat="44.6209862" lon="7.7870395"><ele>257.0</ele><time>2026-04-12T09:41:26.995Z</time></trkpt><trkpt lat="44.6209184" lon="7.7869903"><ele>257.0</ele><time>2026-04-12T09:41:28.995Z</time></trkpt><trkpt lat="44.6208536" lon="7.7869442"><ele>257.0</ele><time>2026-04-12T09:41:30.995Z</time></trkpt><trkpt lat="44.6207914" lon="7.7868847"><ele>257.0</ele><time>2026-04-12T09:41:32.995Z</time></trkpt><trkpt lat="44.6207323" lon="7.786828"><ele>257.0</ele><time>2026-04-12T09:41:34.995Z</time></trkpt><trkpt lat="44.6206738" lon="7.786784"><ele>257.0</ele><time>2026-04-12T09:41:36.995Z</time></trkpt><trkpt lat="44.6206129" lon="7.7867336"><ele>257.0</ele><time>2026-04-12T09:41:38.995Z</time></trkpt><trkpt lat="44.6205462" lon="7.786679"><ele>257.0</ele><time>2026-04-12T09:41:40.995Z</time></trkpt><trkpt lat="44.6204796" lon="7.7866214"><ele>257.6666666666667</ele><time>2026-04-12T09:41:42.995Z</time></trkpt><trkpt lat="44.6204093" lon="7.7865702"><ele>258.33333333333337</ele><time>2026-04-12T09:41:44.995Z</time></trkpt><trkpt lat="44.6203425" lon="7.7865154"><ele>259.0</ele><time>2026-04-12T09:41:46.995Z</time></trkpt><trkpt lat="44.6202771" lon="7.7864622"><ele>259.6666666666667</ele><time>2026-04-12T09:41:48.996Z</time></trkpt><trkpt lat="44.6202072" lon="7.7864112"><ele>260.3333333333333</ele><time>2026-04-12T09:41:50.996Z</time></trkpt><trkpt lat="44.6201333" lon="7.7863591"><ele>261.0</ele><time>2026-04-12T09:41:52.995Z</time></trkpt><trkpt lat="44.6200604" lon="7.7863022"><ele>261.0</ele><time>2026-04-12T09:41:54.995Z</time></trkpt><trkpt lat="44.6199841" lon="7.7862481"><ele>261.0</ele><time>2026-04-12T09:41:56.995Z</time></trkpt><trkpt lat="44.6199024" lon="7.7862042"><ele>261.0</ele><time>2026-04-12T09:41:58.995Z</time></trkpt><trkpt lat="44.6198269" lon="7.7861669"><ele>261.0</ele><time>2026-04-12T09:42:00.995Z</time></trkpt><trkpt lat="44.6197591" lon="7.7861414"><ele>261.0</ele><time>2026-04-12T09:42:02.996Z</time></trkpt><trkpt lat="44.6196894" lon="7.7861286"><ele>261.0</ele><time>2026-04-12T09:42:04.996Z</time></trkpt><trkpt lat="44.6196146" lon="7.7861189"><ele>261.0</ele><time>2026-04-12T09:42:06.996Z</time></trkpt><trkpt lat="44.6195426" lon="7.7860958"><ele>261.0</ele><time>2026-04-12T09:42:08.996Z</time></trkpt><trkpt lat="44.6194793" lon="7.7860681"><ele>261.0</ele><time>2026-04-12T09:42:10.996Z</time></trkpt><trkpt lat="44.6193981" lon="7.786037"><ele>261.0</ele><time>2026-04-12T09:42:13.996Z</time></trkpt><trkpt lat="44.6193376" lon="7.786009"><ele>261.0</ele><time>2026-04-12T09:42:15.995Z</time></trkpt><trkpt lat="44.6192677" lon="7.7859826"><ele>261.0</ele><time>2026-04-12T09:42:17.995Z</time></trkpt><trkpt lat="44.6191945" lon="7.7859502"><ele>261.0</ele><time>2026-04-12T09:42:19.996Z</time></trkpt><trkpt lat="44.6191217" lon="7.7859164"><ele>261.0</ele><time>2026-04-12T09:42:21.996Z</time></trkpt><trkpt lat="44.6190439" lon="7.7858833"><ele>261.0</ele><time>2026-04-12T09:42:23.995Z</time></trkpt><trkpt lat="44.6189645" lon="7.7858487"><ele>261.0</ele><time>2026-04-12T09:42:25.996Z</time></trkpt><trkpt lat="44.6188833" lon="7.7858127"><ele>261.0</ele><time>2026-04-12T09:42:27.997Z</time></trkpt><trkpt lat="44.6187992" lon="7.7857778"><ele>261.0</ele><time>2026-04-12T09:42:29.997Z</time></trkpt><trkpt lat="44.6187137" lon="7.78574"><ele>261.0</ele><time>2026-04-12T09:42:31.995Z</time></trkpt><trkpt lat="44.6186227" lon="7.7857008"><ele>261.0</ele><time>2026-04-12T09:42:33.996Z</time></trkpt><trkpt lat="44.6185337" lon="7.7856659"><ele>261.0</ele><time>2026-04-12T09:42:35.997Z</time></trkpt><trkpt lat="44.6184516" lon="7.7856357"><ele>261.0</ele><time>2026-04-12T09:42:37.995Z</time></trkpt><trkpt lat="44.6183742" lon="7.7856063"><ele>261.0</ele><time>2026-04-12T09:42:39.996Z</time></trkpt><trkpt lat="44.6182897" lon="7.7855705"><ele>261.0</ele><time>2026-04-12T09:42:41.995Z</time></trkpt><trkpt lat="44.6182081" lon="7.7855405"><ele>261.0</ele><time>2026-04-12T09:42:43.996Z</time></trkpt><trkpt lat="44.618128" lon="7.785516"><ele>261.0</ele><time>2026-04-12T09:42:45.996Z</time></trkpt><trkpt lat="44.6180558" lon="7.7854794"><ele>261.0</ele><time>2026-04-12T09:42:47.997Z</time></trkpt><trkpt lat="44.6179905" lon="7.785442"><ele>261.0</ele><time>2026-04-12T09:42:49.996Z</time></trkpt><trkpt lat="44.6179256" lon="7.785413"><ele>261.0</ele><time>2026-04-12T09:42:51.996Z</time></trkpt><trkpt lat="44.6178569" lon="7.7853855"><ele>261.0</ele><time>2026-04-12T09:42:53.995Z</time></trkpt><trkpt lat="44.6177858" lon="7.7853536"><ele>261.0</ele><time>2026-04-12T09:42:55.996Z</time></trkpt><trkpt lat="44.6177023" lon="7.7853268"><ele>261.0</ele><time>2026-04-12T09:42:57.996Z</time></trkpt><trkpt lat="44.6176112" lon="7.7853015"><ele>259.8333333333333</ele><time>2026-04-12T09:42:59.996Z</time></trkpt><trkpt lat="44.617529" lon="7.7852862"><ele>258.6666666666667</ele><time>2026-04-12T09:43:01.995Z</time></trkpt><trkpt lat="44.6174507" lon="7.785267"><ele>257.5</ele><time>2026-04-12T09:43:03.997Z</time></trkpt><trkpt lat="44.6173675" lon="7.7852556"><ele>256.33333333333337</ele><time>2026-04-12T09:43:05.995Z</time></trkpt><trkpt lat="44.6172836" lon="7.7852465"><ele>255.16666666666669</ele><time>2026-04-12T09:43:07.997Z</time></trkpt><trkpt lat="44.6171964" lon="7.78524"><ele>254.0</ele><time>2026-04-12T09:43:09.995Z</time></trkpt><trkpt lat="44.6171083" lon="7.7852195"><ele>254.00000000000003</ele><time>2026-04-12T09:43:11.995Z</time></trkpt><trkpt lat="44.617025" lon="7.7851854"><ele>254.0</ele><time>2026-04-12T09:43:13.996Z</time></trkpt><trkpt lat="44.6169454" lon="7.7851526"><ele>254.0</ele><time>2026-04-12T09:43:15.995Z</time></trkpt><trkpt lat="44.6168785" lon="7.7851258"><ele>254.0</ele><time>2026-04-12T09:43:17.996Z</time></trkpt><trkpt lat="44.616814" lon="7.7850955"><ele>254.00000000000003</ele><time>2026-04-12T09:43:19.995Z</time></trkpt><trkpt lat="44.6167433" lon="7.7850674"><ele>254.0</ele><time>2026-04-12T09:43:21.996Z</time></trkpt><trkpt lat="44.6166686" lon="7.7850411"><ele>254.50000000000003</ele><time>2026-04-12T09:43:23.995Z</time></trkpt><trkpt lat="44.6165914" lon="7.7850117"><ele>255.0</ele><time>2026-04-12T09:43:25.995Z</time></trkpt><trkpt lat="44.6165172" lon="7.784974"><ele>255.5</ele><time>2026-04-12T09:43:27.996Z</time></trkpt><trkpt lat="44.6164454" lon="7.7849301"><ele>256.0</ele><time>2026-04-12T09:43:29.996Z</time></trkpt><trkpt lat="44.6163751" lon="7.7848807"><ele>256.5</ele><time>2026-04-12T09:43:31.996Z</time></trkpt><trkpt lat="44.616301" lon="7.7848526"><ele>257.0</ele><time>2026-04-12T09:43:33.996Z</time></trkpt><trkpt lat="44.6162231" lon="7.7848389"><ele>257.0</ele><time>2026-04-12T09:43:35.996Z</time></trkpt><trkpt lat="44.616137" lon="7.7848202"><ele>257.0</ele><time>2026-04-12T09:43:37.996Z</time></trkpt><trkpt lat="44.616053" lon="7.7847998"><ele>257.0</ele><time>2026-04-12T09:43:39.996Z</time></trkpt><trkpt lat="44.6159705" lon="7.7847943"><ele>257.0</ele><time>2026-04-12T09:43:41.996Z</time></trkpt><trkpt lat="44.6158919" lon="7.7847725"><ele>257.0</ele><time>2026-04-12T09:43:43.995Z</time></trkpt><trkpt lat="44.6158126" lon="7.7847457"><ele>257.0</ele><time>2026-04-12T09:43:45.995Z</time></trkpt><trkpt lat="44.6157341" lon="7.7847166"><ele>257.0</ele><time>2026-04-12T09:43:47.996Z</time></trkpt><trkpt lat="44.6156516" lon="7.7846858"><ele>257.0</ele><time>2026-04-12T09:43:49.996Z</time></trkpt><trkpt lat="44.6155706" lon="7.7846541"><ele>257.0</ele><time>2026-04-12T09:43:51.995Z</time></trkpt><trkpt lat="44.6154893" lon="7.7846231"><ele>257.0</ele><time>2026-04-12T09:43:53.996Z</time></trkpt><trkpt lat="44.6154078" lon="7.7845922"><ele>257.0</ele><time>2026-04-12T09:43:55.996Z</time></trkpt><trkpt lat="44.6153238" lon="7.7845664"><ele>257.0</ele><time>2026-04-12T09:43:57.995Z</time></trkpt><trkpt lat="44.6152422" lon="7.7845259"><ele>257.1666666666667</ele><time>2026-04-12T09:43:59.996Z</time></trkpt><trkpt lat="44.6151688" lon="7.7844907"><ele>257.33333333333337</ele><time>2026-04-12T09:44:01.995Z</time></trkpt><trkpt lat="44.615101" lon="7.7844332"><ele>257.5</ele><time>2026-04-12T09:44:03.996Z</time></trkpt><trkpt lat="44.6150398" lon="7.7843542"><ele>257.6666666666667</ele><time>2026-04-12T09:44:05.996Z</time></trkpt><trkpt lat="44.6149776" lon="7.7842774"><ele>257.8333333333333</ele><time>2026-04-12T09:44:07.996Z</time></trkpt><trkpt lat="44.6149146" lon="7.7842031"><ele>258.0</ele><time>2026-04-12T09:44:09.996Z</time></trkpt><trkpt lat="44.6148487" lon="7.7841374"><ele>258.1666666666667</ele><time>2026-04-12T09:44:11.995Z</time></trkpt><trkpt lat="44.6147815" lon="7.7840814"><ele>258.3333333333333</ele><time>2026-04-12T09:44:13.996Z</time></trkpt><trkpt lat="44.6147125" lon="7.7840254"><ele>258.5</ele><time>2026-04-12T09:44:15.996Z</time></trkpt><trkpt lat="44.6146434" lon="7.7839725"><ele>258.66666666666663</ele><time>2026-04-12T09:44:17.996Z</time></trkpt><trkpt lat="44.6145703" lon="7.7839339"><ele>258.8333333333333</ele><time>2026-04-12T09:44:19.996Z</time></trkpt><trkpt lat="44.614492" lon="7.7838984"><ele>259.0</ele><time>2026-04-12T09:44:21.996Z</time></trkpt><trkpt lat="44.6144184" lon="7.783875"><ele>259.0</ele><time>2026-04-12T09:44:23.996Z</time></trkpt><trkpt lat="44.6143463" lon="7.783847"><ele>259.0</ele><time>2026-04-12T09:44:25.996Z</time></trkpt><trkpt lat="44.6142776" lon="7.7838132"><ele>259.0</ele><time>2026-04-12T09:44:27.995Z</time></trkpt><trkpt lat="44.6142096" lon="7.7837816"><ele>259.0</ele><time>2026-04-12T09:44:29.996Z</time></trkpt><trkpt lat="44.6141436" lon="7.7837534"><ele>259.0</ele><time>2026-04-12T09:44:31.995Z</time></trkpt><trkpt lat="44.6140782" lon="7.7837181"><ele>259.0</ele><time>2026-04-12T09:44:33.997Z</time></trkpt><trkpt lat="44.6140044" lon="7.7836892"><ele>259.0</ele><time>2026-04-12T09:44:35.996Z</time></trkpt><trkpt lat="44.6139297" lon="7.7836653"><ele>259.0</ele><time>2026-04-12T09:44:37.996Z</time></trkpt><trkpt lat="44.6138582" lon="7.7836231"><ele>259.0</ele><time>2026-04-12T09:44:39.996Z</time></trkpt><trkpt lat="44.6137877" lon="7.78357"><ele>259.0</ele><time>2026-04-12T09:44:41.995Z</time></trkpt><trkpt lat="44.6137087" lon="7.7835359"><ele>259.0</ele><time>2026-04-12T09:44:43.995Z</time></trkpt><trkpt lat="44.6136299" lon="7.783493"><ele>259.0</ele><time>2026-04-12T09:44:45.996Z</time></trkpt><trkpt lat="44.6135582" lon="7.7834258"><ele>259.0</ele><time>2026-04-12T09:44:47.996Z</time></trkpt><trkpt lat="44.6134859" lon="7.7833505"><ele>259.16666666666663</ele><time>2026-04-12T09:44:49.995Z</time></trkpt><trkpt lat="44.6134169" lon="7.7832733"><ele>259.3333333333333</ele><time>2026-04-12T09:44:51.996Z</time></trkpt><trkpt lat="44.6133496" lon="7.7831961"><ele>259.5</ele><time>2026-04-12T09:44:53.995Z</time></trkpt><trkpt lat="44.6132801" lon="7.7831217"><ele>259.6666666666667</ele><time>2026-04-12T09:44:55.995Z</time></trkpt><trkpt lat="44.6132116" lon="7.7830466"><ele>259.83333333333337</ele><time>2026-04-12T09:44:57.995Z</time></trkpt><trkpt lat="44.6131392" lon="7.7829766"><ele>260.0</ele><time>2026-04-12T09:44:59.995Z</time></trkpt><trkpt lat="44.6130678" lon="7.7829056"><ele>260.0</ele><time>2026-04-12T09:45:01.996Z</time></trkpt><trkpt lat="44.6129987" lon="7.7828325"><ele>260.0</ele><time>2026-04-12T09:45:03.995Z</time></trkpt><trkpt lat="44.6129315" lon="7.7827599"><ele>260.0</ele><time>2026-04-12T09:45:05.995Z</time></trkpt><trkpt lat="44.6128663" lon="7.7826878"><ele>260.0</ele><time>2026-04-12T09:45:07.996Z</time></trkpt><trkpt lat="44.612809" lon="7.7826115"><ele>260.0</ele><time>2026-04-12T09:45:09.996Z</time></trkpt><trkpt lat="44.6127635" lon="7.7825266"><ele>260.0</ele><time>2026-04-12T09:45:11.996Z</time></trkpt><trkpt lat="44.6127426" lon="7.7824296"><ele>260.7142857142857</ele><time>2026-04-12T09:45:13.996Z</time></trkpt><trkpt lat="44.6127365" lon="7.7823312"><ele>261.42857142857144</ele><time>2026-04-12T09:45:15.995Z</time></trkpt><trkpt lat="44.6127425" lon="7.7822363"><ele>262.1428571428571</ele><time>2026-04-12T09:45:17.995Z</time></trkpt><trkpt lat="44.6127583" lon="7.7821503"><ele>262.8571428571429</ele><time>2026-04-12T09:45:19.995Z</time></trkpt><trkpt lat="44.6127763" lon="7.7820356"><ele>263.57142857142856</ele><time>2026-04-12T09:45:22.996Z</time></trkpt><trkpt lat="44.6128065" lon="7.7819317"><ele>264.2857142857143</ele><time>2026-04-12T09:45:25.995Z</time></trkpt><trkpt lat="44.6128277" lon="7.7818477"><ele>265.0</ele><time>2026-04-12T09:45:27.995Z</time></trkpt><trkpt lat="44.6128567" lon="7.7817633"><ele>265.0</ele><time>2026-04-12T09:45:29.995Z</time></trkpt><trkpt lat="44.612885" lon="7.7816789"><ele>265.0</ele><time>2026-04-12T09:45:31.995Z</time></trkpt><trkpt lat="44.6129232" lon="7.7815649"><ele>265.0</ele><time>2026-04-12T09:45:34.997Z</time></trkpt><trkpt lat="44.6129457" lon="7.7814471"><ele>265.0</ele><time>2026-04-12T09:45:37.995Z</time></trkpt><trkpt lat="44.6129757" lon="7.7813394"><ele>265.0</ele><time>2026-04-12T09:45:40.996Z</time></trkpt><trkpt lat="44.6130008" lon="7.7812324"><ele>265.0</ele><time>2026-04-12T09:45:43.996Z</time></trkpt><trkpt lat="44.6130246" lon="7.7811324"><ele>265.0</ele><time>2026-04-12T09:45:46.995Z</time></trkpt><trkpt lat="44.6130468" lon="7.7810262"><ele>265.0</ele><time>2026-04-12T09:45:49.995Z</time></trkpt><trkpt lat="44.6130826" lon="7.7809445"><ele>265.0</ele><time>2026-04-12T09:45:52.995Z</time></trkpt><trkpt lat="44.6131024" lon="7.780859"><ele>265.0</ele><time>2026-04-12T09:52:50.996Z</time></trkpt><trkpt lat="44.6131326" lon="7.7807552"><ele>265.0</ele><time>2026-04-12T09:52:54.996Z</time></trkpt><trkpt lat="44.6131537" lon="7.7806485"><ele>265.0</ele><time>2026-04-12T09:52:57.996Z</time></trkpt><trkpt lat="44.6131887" lon="7.7805318"><ele>265.2857142857143</ele><time>2026-04-12T09:53:00.997Z</time></trkpt><trkpt lat="44.6132047" lon="7.7804462"><ele>265.57142857142856</ele><time>2026-04-12T09:53:02.996Z</time></trkpt><trkpt lat="44.6132242" lon="7.7803592"><ele>265.8571428571429</ele><time>2026-04-12T09:53:04.996Z</time></trkpt><trkpt lat="44.6132486" lon="7.7802724"><ele>266.1428571428571</ele><time>2026-04-12T09:53:06.996Z</time></trkpt><trkpt lat="44.6132747" lon="7.7801859"><ele>266.42857142857144</ele><time>2026-04-12T09:53:08.996Z</time></trkpt><trkpt lat="44.6133126" lon="7.780066"><ele>266.7142857142857</ele><time>2026-04-12T09:53:11.997Z</time></trkpt><trkpt lat="44.6133311" lon="7.7799792"><ele>267.0</ele><time>2026-04-12T09:53:13.996Z</time></trkpt><trkpt lat="44.6133572" lon="7.779892"><ele>267.42857142857144</ele><time>2026-04-12T09:53:15.996Z</time></trkpt><trkpt lat="44.6133852" lon="7.7798058"><ele>267.8571428571429</ele><time>2026-04-12T09:53:17.996Z</time></trkpt><trkpt lat="44.6133801" lon="7.7797121"><ele>268.2857142857143</ele><time>2026-04-12T09:53:19.997Z</time></trkpt><trkpt lat="44.6133285" lon="7.7796429"><ele>268.7142857142857</ele><time>2026-04-12T09:53:21.996Z</time></trkpt><trkpt lat="44.613252" lon="7.7796121"><ele>269.1428571428571</ele><time>2026-04-12T09:53:23.996Z</time></trkpt><trkpt lat="44.6131717" lon="7.7795796"><ele>269.57142857142856</ele><time>2026-04-12T09:53:25.996Z</time></trkpt><trkpt lat="44.6131015" lon="7.7795267"><ele>270.0</ele><time>2026-04-12T09:53:27.995Z</time></trkpt><trkpt lat="44.6130368" lon="7.7794543"><ele>270.0</ele><time>2026-04-12T09:53:29.995Z</time></trkpt><trkpt lat="44.6129677" lon="7.7793832"><ele>270.0</ele><time>2026-04-12T09:53:31.995Z</time></trkpt><trkpt lat="44.6128913" lon="7.7793331"><ele>270.0</ele><time>2026-04-12T09:53:33.995Z</time></trkpt><trkpt lat="44.6128122" lon="7.779281"><ele>270.0</ele><time>2026-04-12T09:53:35.995Z</time></trkpt><trkpt lat="44.6127227" lon="7.7792489"><ele>270.0</ele><time>2026-04-12T09:53:37.996Z</time></trkpt><trkpt lat="44.6126282" lon="7.7792431"><ele>270.0</ele><time>2026-04-12T09:53:39.996Z</time></trkpt><trkpt lat="44.6125346" lon="7.7792678"><ele>270.0</ele><time>2026-04-12T09:53:41.996Z</time></trkpt><trkpt lat="44.6124493" lon="7.7793333"><ele>270.0</ele><time>2026-04-12T09:53:43.996Z</time></trkpt><trkpt lat="44.6123621" lon="7.7793952"><ele>270.0</ele><time>2026-04-12T09:53:45.995Z</time></trkpt><trkpt lat="44.6122653" lon="7.7794341"><ele>270.0</ele><time>2026-04-12T09:53:47.995Z</time></trkpt><trkpt lat="44.6121689" lon="7.7794609"><ele>270.0</ele><time>2026-04-12T09:53:49.995Z</time></trkpt><trkpt lat="44.6120726" lon="7.7794711"><ele>269.6666666666667</ele><time>2026-04-12T09:53:51.996Z</time></trkpt><trkpt lat="44.6119776" lon="7.7794732"><ele>269.3333333333333</ele><time>2026-04-12T09:53:53.995Z</time></trkpt><trkpt lat="44.6118839" lon="7.7794751"><ele>269.0</ele><time>2026-04-12T09:53:55.995Z</time></trkpt><trkpt lat="44.6117914" lon="7.7794739"><ele>268.66666666666663</ele><time>2026-04-12T09:53:57.995Z</time></trkpt><trkpt lat="44.611724" lon="7.7794717"><ele>268.3333333333333</ele><time>2026-04-12T09:53:59.995Z</time></trkpt><trkpt lat="44.6116378" lon="7.7794951"><ele>268.0</ele><time>2026-04-12T09:54:02.995Z</time></trkpt><trkpt lat="44.6115293" lon="7.7795426"><ele>268.0</ele><time>2026-04-12T09:54:04.996Z</time></trkpt><trkpt lat="44.6114314" lon="7.7796121"><ele>268.0</ele><time>2026-04-12T09:54:06.995Z</time></trkpt><trkpt lat="44.6113491" lon="7.7796927"><ele>268.0</ele><time>2026-04-12T09:54:08.995Z</time></trkpt><trkpt lat="44.6112778" lon="7.7797846"><ele>268.0</ele><time>2026-04-12T09:54:10.996Z</time></trkpt><trkpt lat="44.6112191" lon="7.7798934"><ele>268.0</ele><time>2026-04-12T09:54:12.995Z</time></trkpt><trkpt lat="44.611176" lon="7.78003"><ele>267.75</ele><time>2026-04-12T09:54:14.995Z</time></trkpt><trkpt lat="44.611154" lon="7.7801886"><ele>267.5</ele><time>2026-04-12T09:54:16.996Z</time></trkpt><trkpt lat="44.6111378" lon="7.7803565"><ele>267.25</ele><time>2026-04-12T09:54:18.995Z</time></trkpt><trkpt lat="44.6111157" lon="7.7805163"><ele>267.0</ele><time>2026-04-12T09:54:20.995Z</time></trkpt><trkpt lat="44.6110639" lon="7.7806581"><ele>267.0</ele><time>2026-04-12T09:54:22.996Z</time></trkpt><trkpt lat="44.6109995" lon="7.7807664"><ele>267.0</ele><time>2026-04-12T09:54:24.995Z</time></trkpt><trkpt lat="44.6109189" lon="7.7808281"><ele>267.0</ele><time>2026-04-12T09:54:26.995Z</time></trkpt><trkpt lat="44.6108268" lon="7.7808747"><ele>267.0</ele><time>2026-04-12T09:54:28.995Z</time></trkpt><trkpt lat="44.6107288" lon="7.7808981"><ele>267.0</ele><time>2026-04-12T09:54:30.996Z</time></trkpt><trkpt lat="44.6106268" lon="7.7809115"><ele>267.0</ele><time>2026-04-12T09:54:32.996Z</time></trkpt><trkpt lat="44.6105242" lon="7.7809216"><ele>267.0</ele><time>2026-04-12T09:54:34.996Z</time></trkpt><trkpt lat="44.6104191" lon="7.7809208"><ele>267.0</ele><time>2026-04-12T09:54:36.995Z</time></trkpt><trkpt lat="44.6103141" lon="7.7809051"><ele>267.0</ele><time>2026-04-12T09:54:38.995Z</time></trkpt><trkpt lat="44.6102137" lon="7.7808691"><ele>267.0</ele><time>2026-04-12T09:54:40.995Z</time></trkpt><trkpt lat="44.6101138" lon="7.7808345"><ele>266.6</ele><time>2026-04-12T09:54:42.995Z</time></trkpt><trkpt lat="44.6100155" lon="7.7807949"><ele>266.2</ele><time>2026-04-12T09:54:44.995Z</time></trkpt><trkpt lat="44.6099209" lon="7.7807547"><ele>265.8</ele><time>2026-04-12T09:54:46.995Z</time></trkpt><trkpt lat="44.6098281" lon="7.7807139"><ele>265.4</ele><time>2026-04-12T09:54:48.995Z</time></trkpt><trkpt lat="44.6097387" lon="7.7806612"><ele>265.0</ele><time>2026-04-12T09:54:50.995Z</time></trkpt><trkpt lat="44.6096497" lon="7.7806087"><ele>265.0</ele><time>2026-04-12T09:54:52.995Z</time></trkpt><trkpt lat="44.6095561" lon="7.7805713"><ele>265.0</ele><time>2026-04-12T09:54:54.996Z</time></trkpt><trkpt lat="44.6094589" lon="7.7805472"><ele>265.0</ele><time>2026-04-12T09:54:56.995Z</time></trkpt><trkpt lat="44.6093601" lon="7.7805467"><ele>265.0</ele><time>2026-04-12T09:54:58.995Z</time></trkpt><trkpt lat="44.6092634" lon="7.7805641"><ele>265.0</ele><time>2026-04-12T09:55:00.995Z</time></trkpt><trkpt lat="44.6091698" lon="7.7806078"><ele>265.5</ele><time>2026-04-12T09:55:02.995Z</time></trkpt><trkpt lat="44.6090806" lon="7.7806844"><ele>266.0</ele><time>2026-04-12T09:55:04.995Z</time></trkpt><trkpt lat="44.6090024" lon="7.7807957"><ele>266.5</ele><time>2026-04-12T09:55:06.995Z</time></trkpt><trkpt lat="44.608929" lon="7.7809179"><ele>267.0</ele><time>2026-04-12T09:55:08.996Z</time></trkpt><trkpt lat="44.6088537" lon="7.7810516"><ele>266.5</ele><time>2026-04-12T09:55:10.995Z</time></trkpt><trkpt lat="44.6087828" lon="7.7811877"><ele>266.0</ele><time>2026-04-12T09:55:12.995Z</time></trkpt><trkpt lat="44.6087136" lon="7.7813227"><ele>265.5</ele><time>2026-04-12T09:55:14.995Z</time></trkpt><trkpt lat="44.6086332" lon="7.7814459"><ele>265.0</ele><time>2026-04-12T09:55:16.995Z</time></trkpt><trkpt lat="44.6085471" lon="7.7815591"><ele>265.0</ele><time>2026-04-12T09:55:18.996Z</time></trkpt><trkpt lat="44.6084594" lon="7.7816483"><ele>265.0</ele><time>2026-04-12T09:55:20.996Z</time></trkpt><trkpt lat="44.6083738" lon="7.7817221"><ele>265.0</ele><time>2026-04-12T09:55:22.996Z</time></trkpt><trkpt lat="44.6082874" lon="7.7817648"><ele>265.0</ele><time>2026-04-12T09:55:24.995Z</time></trkpt><trkpt lat="44.6081964" lon="7.7817856"><ele>265.0</ele><time>2026-04-12T09:55:26.995Z</time></trkpt><trkpt lat="44.6081086" lon="7.7818028"><ele>265.0</ele><time>2026-04-12T09:55:28.995Z</time></trkpt><trkpt lat="44.6080096" lon="7.7818164"><ele>265.0</ele><time>2026-04-12T09:55:30.995Z</time></trkpt><trkpt lat="44.6079018" lon="7.7818539"><ele>265.0</ele><time>2026-04-12T09:55:32.996Z</time></trkpt><trkpt lat="44.6078112" lon="7.781912"><ele>265.0</ele><time>2026-04-12T09:55:34.995Z</time></trkpt><trkpt lat="44.6077464" lon="7.7819782"><ele>265.0</ele><time>2026-04-12T09:55:36.995Z</time></trkpt><trkpt lat="44.6076832" lon="7.7820306"><ele>264.0</ele><time>2026-04-12T09:55:38.995Z</time></trkpt><trkpt lat="44.6076213" lon="7.7820616"><ele>263.0</ele><time>2026-04-12T09:55:40.996Z</time></trkpt><trkpt lat="44.6075314" lon="7.7820426"><ele>262.0</ele><time>2026-04-12T09:55:43.994Z</time></trkpt><trkpt lat="44.6074664" lon="7.7820648"><ele>261.0</ele><time>2026-04-12T09:55:45.996Z</time></trkpt><trkpt lat="44.6074106" lon="7.7821433"><ele>260.0</ele><time>2026-04-12T09:55:47.996Z</time></trkpt><trkpt lat="44.6073562" lon="7.7822696"><ele>259.0</ele><time>2026-04-12T09:55:49.996Z</time></trkpt><trkpt lat="44.6073155" lon="7.7823412"><ele>259.0</ele><time>2026-04-12T09:55:50.995Z</time></trkpt><trkpt lat="44.6072703" lon="7.7824158"><ele>259.0</ele><time>2026-04-12T09:55:51.995Z</time></trkpt><trkpt lat="44.6072193" lon="7.7824918"><ele>259.0</ele><time>2026-04-12T09:55:52.994Z</time></trkpt><trkpt lat="44.6071665" lon="7.7825688"><ele>259.0</ele><time>2026-04-12T09:55:53.995Z</time></trkpt><trkpt lat="44.6071144" lon="7.7826491"><ele>259.0</ele><time>2026-04-12T09:55:54.994Z</time></trkpt><trkpt lat="44.6070661" lon="7.7827402"><ele>259.0</ele><time>2026-04-12T09:55:55.995Z</time></trkpt><trkpt lat="44.6070139" lon="7.782827"><ele>257.8333333333333</ele><time>2026-04-12T09:55:56.995Z</time></trkpt><trkpt lat="44.6069613" lon="7.7829157"><ele>256.66666666666663</ele><time>2026-04-12T09:55:57.995Z</time></trkpt><trkpt lat="44.606907" lon="7.7829957"><ele>255.5</ele><time>2026-04-12T09:55:58.995Z</time></trkpt><trkpt lat="44.6068535" lon="7.783075"><ele>254.33333333333331</ele><time>2026-04-12T09:55:59.996Z</time></trkpt><trkpt lat="44.6067994" lon="7.7831529"><ele>253.16666666666666</ele><time>2026-04-12T09:56:00.996Z</time></trkpt><trkpt lat="44.6067472" lon="7.7832288"><ele>252.0</ele><time>2026-04-12T09:56:01.995Z</time></trkpt><trkpt lat="44.6066963" lon="7.7833068"><ele>252.0</ele><time>2026-04-12T09:56:02.996Z</time></trkpt><trkpt lat="44.606649" lon="7.7833772"><ele>252.0</ele><time>2026-04-12T09:56:03.996Z</time></trkpt><trkpt lat="44.606598" lon="7.7834517"><ele>252.0</ele><time>2026-04-12T09:56:04.995Z</time></trkpt><trkpt lat="44.606516" lon="7.783582"><ele>252.0</ele><time>2026-04-12T09:56:06.996Z</time></trkpt><trkpt lat="44.6064359" lon="7.7837074"><ele>252.0</ele><time>2026-04-12T09:56:08.995Z</time></trkpt><trkpt lat="44.6063578" lon="7.7838199"><ele>251.8</ele><time>2026-04-12T09:56:10.996Z</time></trkpt><trkpt lat="44.6062758" lon="7.7839246"><ele>251.6</ele><time>2026-04-12T09:56:12.995Z</time></trkpt><trkpt lat="44.6061874" lon="7.7840305"><ele>251.40000000000003</ele><time>2026-04-12T09:56:14.995Z</time></trkpt><trkpt lat="44.606089" lon="7.7841272"><ele>251.20000000000002</ele><time>2026-04-12T09:56:16.995Z</time></trkpt><trkpt lat="44.6060293" lon="7.7841619"><ele>251.0</ele><time>2026-04-12T09:56:17.995Z</time></trkpt><trkpt lat="44.6059633" lon="7.7841954"><ele>250.66666666666669</ele><time>2026-04-12T09:56:18.996Z</time></trkpt><trkpt lat="44.6059028" lon="7.7842359"><ele>250.33333333333334</ele><time>2026-04-12T09:56:19.995Z</time></trkpt><trkpt lat="44.6058583" lon="7.7843004"><ele>250.0</ele><time>2026-04-12T09:56:20.995Z</time></trkpt><trkpt lat="44.605816" lon="7.7843705"><ele>249.66666666666669</ele><time>2026-04-12T09:56:21.995Z</time></trkpt><trkpt lat="44.6057085" lon="7.7844628"><ele>249.33333333333334</ele><time>2026-04-12T09:56:23.994Z</time></trkpt><trkpt lat="44.6055911" lon="7.7844992"><ele>249.0</ele><time>2026-04-12T09:56:25.995Z</time></trkpt><trkpt lat="44.6054789" lon="7.7844897"><ele>248.79999999999998</ele><time>2026-04-12T09:56:27.995Z</time></trkpt><trkpt lat="44.6053687" lon="7.7844676"><ele>248.59999999999997</ele><time>2026-04-12T09:56:29.995Z</time></trkpt><trkpt lat="44.6052574" lon="7.7844447"><ele>248.4</ele><time>2026-04-12T09:56:31.995Z</time></trkpt><trkpt lat="44.6051524" lon="7.7844173"><ele>248.2</ele><time>2026-04-12T09:56:33.996Z</time></trkpt><trkpt lat="44.605044" lon="7.7844065"><ele>248.0</ele><time>2026-04-12T09:56:35.995Z</time></trkpt><trkpt lat="44.6049608" lon="7.7843857"><ele>248.16666666666669</ele><time>2026-04-12T09:56:37.995Z</time></trkpt><trkpt lat="44.6048728" lon="7.784378"><ele>248.33333333333334</ele><time>2026-04-12T09:56:39.995Z</time></trkpt><trkpt lat="44.6047829" lon="7.7843649"><ele>248.5</ele><time>2026-04-12T09:56:41.995Z</time></trkpt><trkpt lat="44.604692" lon="7.7843487"><ele>248.66666666666669</ele><time>2026-04-12T09:56:43.995Z</time></trkpt><trkpt lat="44.6046056" lon="7.7843135"><ele>248.83333333333334</ele><time>2026-04-12T09:56:45.995Z</time></trkpt><trkpt lat="44.6045207" lon="7.784293"><ele>249.0</ele><time>2026-04-12T09:56:47.995Z</time></trkpt><trkpt lat="44.6044306" lon="7.7842786"><ele>249.16666666666666</ele><time>2026-04-12T09:56:49.994Z</time></trkpt><trkpt lat="44.6043432" lon="7.7842858"><ele>249.33333333333331</ele><time>2026-04-12T09:56:51.995Z</time></trkpt><trkpt lat="44.6042587" lon="7.7842912"><ele>249.5</ele><time>2026-04-12T09:56:53.995Z</time></trkpt><trkpt lat="44.6041751" lon="7.7842893"><ele>249.66666666666666</ele><time>2026-04-12T09:56:55.995Z</time></trkpt><trkpt lat="44.6040902" lon="7.7842968"><ele>249.83333333333331</ele><time>2026-04-12T09:56:57.995Z</time></trkpt><trkpt lat="44.6040067" lon="7.7843082"><ele>250.0</ele><time>2026-04-12T09:56:59.995Z</time></trkpt><trkpt lat="44.6039223" lon="7.7843038"><ele>249.99999999999997</ele><time>2026-04-12T09:57:01.995Z</time></trkpt><trkpt lat="44.6038439" lon="7.7842902"><ele>250.0</ele><time>2026-04-12T09:57:03.996Z</time></trkpt><trkpt lat="44.6037729" lon="7.7842628"><ele>250.0</ele><time>2026-04-12T09:57:05.996Z</time></trkpt><trkpt lat="44.6037139" lon="7.7842008"><ele>250.0</ele><time>2026-04-12T09:57:07.996Z</time></trkpt><trkpt lat="44.6036742" lon="7.7841172"><ele>249.99999999999997</ele><time>2026-04-12T09:57:09.995Z</time></trkpt><trkpt lat="44.6036578" lon="7.78401"><ele>250.0</ele><time>2026-04-12T09:57:11.995Z</time></trkpt><trkpt lat="44.603656" lon="7.7838962"><ele>250.16666666666666</ele><time>2026-04-12T09:57:13.995Z</time></trkpt><trkpt lat="44.6036541" lon="7.7837849"><ele>250.33333333333331</ele><time>2026-04-12T09:57:15.995Z</time></trkpt><trkpt lat="44.6036407" lon="7.7836815"><ele>250.5</ele><time>2026-04-12T09:57:17.996Z</time></trkpt><trkpt lat="44.603595" lon="7.783604"><ele>250.66666666666669</ele><time>2026-04-12T09:57:19.995Z</time></trkpt><trkpt lat="44.6035193" lon="7.7835565"><ele>250.83333333333334</ele><time>2026-04-12T09:57:21.994Z</time></trkpt><trkpt lat="44.6034293" lon="7.7835341"><ele>251.0</ele><time>2026-04-12T09:57:23.996Z</time></trkpt><trkpt lat="44.6033411" lon="7.7834954"><ele>251.00000000000003</ele><time>2026-04-12T09:57:25.996Z</time></trkpt><trkpt lat="44.6032565" lon="7.7834603"><ele>251.0</ele><time>2026-04-12T09:57:27.995Z</time></trkpt><trkpt lat="44.6031728" lon="7.7834201"><ele>251.0</ele><time>2026-04-12T09:57:29.996Z</time></trkpt><trkpt lat="44.60309" lon="7.7833826"><ele>251.0</ele><time>2026-04-12T09:57:31.996Z</time></trkpt><trkpt lat="44.6030093" lon="7.7833462"><ele>251.00000000000003</ele><time>2026-04-12T09:57:33.995Z</time></trkpt><trkpt lat="44.6029252" lon="7.783323"><ele>251.0</ele><time>2026-04-12T09:57:35.994Z</time></trkpt><trkpt lat="44.6028642" lon="7.7832542"><ele>251.00000000000003</ele><time>2026-04-12T09:57:37.995Z</time></trkpt><trkpt lat="44.6028594" lon="7.7831354"><ele>251.0</ele><time>2026-04-12T09:57:39.996Z</time></trkpt><trkpt lat="44.602874" lon="7.7830174"><ele>251.0</ele><time>2026-04-12T09:57:41.995Z</time></trkpt><trkpt lat="44.6028831" lon="7.7829007"><ele>251.0</ele><time>2026-04-12T09:57:43.996Z</time></trkpt><trkpt lat="44.6028935" lon="7.7827863"><ele>251.00000000000003</ele><time>2026-04-12T09:57:45.996Z</time></trkpt><trkpt lat="44.6029042" lon="7.7826712"><ele>251.0</ele><time>2026-04-12T09:57:47.994Z</time></trkpt><trkpt lat="44.6028981" lon="7.782565"><ele>251.16666666666669</ele><time>2026-04-12T09:57:49.994Z</time></trkpt><trkpt lat="44.6028497" lon="7.7825068"><ele>251.33333333333334</ele><time>2026-04-12T09:57:51.995Z</time></trkpt><trkpt lat="44.6027811" lon="7.7825565"><ele>251.5</ele><time>2026-04-12T09:57:53.996Z</time></trkpt><trkpt lat="44.6027084" lon="7.7826013"><ele>251.66666666666669</ele><time>2026-04-12T09:57:55.995Z</time></trkpt><trkpt lat="44.6026262" lon="7.7826244"><ele>251.83333333333334</ele><time>2026-04-12T09:57:57.996Z</time></trkpt><trkpt lat="44.6025414" lon="7.7826209"><ele>252.0</ele><time>2026-04-12T09:57:59.996Z</time></trkpt><trkpt lat="44.6024517" lon="7.7825829"><ele>252.0</ele><time>2026-04-12T09:58:01.995Z</time></trkpt><trkpt lat="44.6023688" lon="7.7825572"><ele>252.0</ele><time>2026-04-12T09:58:03.995Z</time></trkpt><trkpt lat="44.6022891" lon="7.7825128"><ele>252.0</ele><time>2026-04-12T09:58:05.995Z</time></trkpt><trkpt lat="44.6022129" lon="7.7824822"><ele>252.0</ele><time>2026-04-12T09:58:07.996Z</time></trkpt><trkpt lat="44.6021284" lon="7.7824572"><ele>252.0</ele><time>2026-04-12T09:58:09.995Z</time></trkpt><trkpt lat="44.602044" lon="7.7824322"><ele>252.0</ele><time>2026-04-12T09:58:11.996Z</time></trkpt><trkpt lat="44.6019547" lon="7.7824053"><ele>252.0</ele><time>2026-04-12T09:58:13.995Z</time></trkpt><trkpt lat="44.601858" lon="7.7823758"><ele>252.0</ele><time>2026-04-12T09:58:15.996Z</time></trkpt><trkpt lat="44.6017656" lon="7.7823503"><ele>252.0</ele><time>2026-04-12T09:58:17.995Z</time></trkpt><trkpt lat="44.6016747" lon="7.7823261"><ele>252.0</ele><time>2026-04-12T09:58:19.995Z</time></trkpt><trkpt lat="44.601582" lon="7.7823177"><ele>252.0</ele><time>2026-04-12T09:58:21.995Z</time></trkpt><trkpt lat="44.601492" lon="7.7823255"><ele>252.0</ele><time>2026-04-12T09:58:23.995Z</time></trkpt><trkpt lat="44.6013997" lon="7.7823531"><ele>252.0</ele><time>2026-04-12T09:58:25.995Z</time></trkpt><trkpt lat="44.6013064" lon="7.782369"><ele>252.0</ele><time>2026-04-12T09:58:27.996Z</time></trkpt><trkpt lat="44.6012156" lon="7.7823749"><ele>252.0</ele><time>2026-04-12T09:58:29.995Z</time></trkpt><trkpt lat="44.6011345" lon="7.7823768"><ele>252.0</ele><time>2026-04-12T09:58:31.996Z</time></trkpt><trkpt lat="44.6010622" lon="7.782381"><ele>252.0</ele><time>2026-04-12T09:58:33.995Z</time></trkpt><trkpt lat="44.6009882" lon="7.7823987"><ele>252.5</ele><time>2026-04-12T09:58:36.995Z</time></trkpt><trkpt lat="44.6009252" lon="7.7824357"><ele>253.0</ele><time>2026-04-12T09:58:42.995Z</time></trkpt><trkpt lat="44.6008587" lon="7.7824215"><ele>253.5</ele><time>2026-04-12T09:59:56.995Z</time></trkpt><trkpt lat="44.6007872" lon="7.7824249"><ele>254.0</ele><time>2026-04-12T09:59:59.996Z</time></trkpt><trkpt lat="44.6007118" lon="7.7824083"><ele>254.5</ele><time>2026-04-12T10:00:01.996Z</time></trkpt><trkpt lat="44.6006294" lon="7.7823474"><ele>255.0</ele><time>2026-04-12T10:00:03.995Z</time></trkpt><trkpt lat="44.6005546" lon="7.7822694"><ele>255.0</ele><time>2026-04-12T10:00:05.995Z</time></trkpt><trkpt lat="44.6004893" lon="7.7821811"><ele>255.0</ele><time>2026-04-12T10:00:07.995Z</time></trkpt><trkpt lat="44.6004131" lon="7.7821003"><ele>255.0</ele><time>2026-04-12T10:00:09.996Z</time></trkpt><trkpt lat="44.600341" lon="7.7820142"><ele>255.0</ele><time>2026-04-12T10:00:11.995Z</time></trkpt><trkpt lat="44.6002813" lon="7.7819434"><ele>255.0</ele><time>2026-04-12T10:00:13.996Z</time></trkpt><trkpt lat="44.6002195" lon="7.7818723"><ele>255.0</ele><time>2026-04-12T10:00:15.995Z</time></trkpt><trkpt lat="44.6001604" lon="7.7817982"><ele>255.33333333333334</ele><time>2026-04-12T10:00:17.995Z</time></trkpt><trkpt lat="44.600097" lon="7.7817138"><ele>255.66666666666669</ele><time>2026-04-12T10:00:19.995Z</time></trkpt><trkpt lat="44.6000358" lon="7.7816203"><ele>256.0</ele><time>2026-04-12T10:00:21.995Z</time></trkpt><trkpt lat="44.5999774" lon="7.7815273"><ele>256.33333333333337</ele><time>2026-04-12T10:00:23.995Z</time></trkpt><trkpt lat="44.5999168" lon="7.781435"><ele>256.6666666666667</ele><time>2026-04-12T10:00:25.995Z</time></trkpt><trkpt lat="44.5998538" lon="7.7813417"><ele>257.0</ele><time>2026-04-12T10:00:27.996Z</time></trkpt><trkpt lat="44.5997743" lon="7.7812837"><ele>257.0</ele><time>2026-04-12T10:00:29.995Z</time></trkpt><trkpt lat="44.599686" lon="7.7812716"><ele>257.0</ele><time>2026-04-12T10:00:31.994Z</time></trkpt><trkpt lat="44.5995962" lon="7.7812671"><ele>257.0</ele><time>2026-04-12T10:00:33.994Z</time></trkpt><trkpt lat="44.5995118" lon="7.7812531"><ele>257.0</ele><time>2026-04-12T10:00:35.994Z</time></trkpt><trkpt lat="44.599431" lon="7.7812285"><ele>257.0</ele><time>2026-04-12T10:00:37.996Z</time></trkpt><trkpt lat="44.5993506" lon="7.7811954"><ele>257.0</ele><time>2026-04-12T10:00:39.994Z</time></trkpt><trkpt lat="44.599266" lon="7.7811595"><ele>257.0</ele><time>2026-04-12T10:00:41.995Z</time></trkpt><trkpt lat="44.5991832" lon="7.7811197"><ele>257.0</ele><time>2026-04-12T10:00:43.994Z</time></trkpt><trkpt lat="44.5990926" lon="7.7810829"><ele>257.0</ele><time>2026-04-12T10:00:45.995Z</time></trkpt><trkpt lat="44.5990034" lon="7.7810435"><ele>257.0</ele><time>2026-04-12T10:00:47.994Z</time></trkpt><trkpt lat="44.5989109" lon="7.7810168"><ele>257.0</ele><time>2026-04-12T10:00:49.995Z</time></trkpt><trkpt lat="44.5988181" lon="7.7809906"><ele>257.0</ele><time>2026-04-12T10:00:51.995Z</time></trkpt><trkpt lat="44.5987242" lon="7.7809714"><ele>257.0</ele><time>2026-04-12T10:00:53.995Z</time></trkpt><trkpt lat="44.5986303" lon="7.7809546"><ele>257.0</ele><time>2026-04-12T10:00:55.994Z</time></trkpt><trkpt lat="44.5985415" lon="7.7809464"><ele>257.0</ele><time>2026-04-12T10:00:57.996Z</time></trkpt><trkpt lat="44.59844" lon="7.780942"><ele>257.0</ele><time>2026-04-12T10:00:59.994Z</time></trkpt><trkpt lat="44.5983429" lon="7.78095"><ele>256.8</ele><time>2026-04-12T10:01:01.994Z</time></trkpt><trkpt lat="44.5982491" lon="7.7809731"><ele>256.6</ele><time>2026-04-12T10:01:03.995Z</time></trkpt><trkpt lat="44.5981584" lon="7.7810006"><ele>256.40000000000003</ele><time>2026-04-12T10:01:05.994Z</time></trkpt><trkpt lat="44.5980637" lon="7.7810274"><ele>256.2</ele><time>2026-04-12T10:01:07.995Z</time></trkpt><trkpt lat="44.597977" lon="7.7810479"><ele>256.0</ele><time>2026-04-12T10:01:09.996Z</time></trkpt><trkpt lat="44.5978874" lon="7.7810789"><ele>255.60000000000002</ele><time>2026-04-12T10:01:11.995Z</time></trkpt><trkpt lat="44.5977947" lon="7.7810977"><ele>255.20000000000002</ele><time>2026-04-12T10:01:13.995Z</time></trkpt><trkpt lat="44.597708" lon="7.7811137"><ele>254.79999999999998</ele><time>2026-04-12T10:01:15.995Z</time></trkpt><trkpt lat="44.5976189" lon="7.7811293"><ele>254.39999999999998</ele><time>2026-04-12T10:01:17.994Z</time></trkpt><trkpt lat="44.5975306" lon="7.7811348"><ele>254.0</ele><time>2026-04-12T10:01:19.995Z</time></trkpt><trkpt lat="44.5974467" lon="7.7810807"><ele>254.0</ele><time>2026-04-12T10:01:21.995Z</time></trkpt><trkpt lat="44.5973714" lon="7.7809955"><ele>253.99999999999997</ele><time>2026-04-12T10:01:23.995Z</time></trkpt><trkpt lat="44.5973033" lon="7.7808981"><ele>253.99999999999997</ele><time>2026-04-12T10:01:25.995Z</time></trkpt><trkpt lat="44.5972411" lon="7.7807875"><ele>254.0</ele><time>2026-04-12T10:01:27.996Z</time></trkpt><trkpt lat="44.5971812" lon="7.780674"><ele>254.0</ele><time>2026-04-12T10:01:29.996Z</time></trkpt><trkpt lat="44.5971261" lon="7.7805616"><ele>254.0</ele><time>2026-04-12T10:01:31.995Z</time></trkpt><trkpt lat="44.5970718" lon="7.7804539"><ele>253.99999999999997</ele><time>2026-04-12T10:01:33.995Z</time></trkpt><trkpt lat="44.5970092" lon="7.78034"><ele>253.99999999999997</ele><time>2026-04-12T10:01:35.996Z</time></trkpt><trkpt lat="44.5969472" lon="7.780239"><ele>254.0</ele><time>2026-04-12T10:01:37.995Z</time></trkpt><trkpt lat="44.5968771" lon="7.7801357"><ele>254.0</ele><time>2026-04-12T10:01:39.995Z</time></trkpt><trkpt lat="44.5968094" lon="7.7800371"><ele>254.39999999999998</ele><time>2026-04-12T10:01:41.995Z</time></trkpt><trkpt lat="44.5967423" lon="7.7799433"><ele>254.79999999999998</ele><time>2026-04-12T10:01:43.995Z</time></trkpt><trkpt lat="44.5966729" lon="7.7798479"><ele>255.20000000000002</ele><time>2026-04-12T10:01:45.995Z</time></trkpt><trkpt lat="44.596613" lon="7.7797559"><ele>255.60000000000002</ele><time>2026-04-12T10:01:47.994Z</time></trkpt><trkpt lat="44.5965518" lon="7.779653"><ele>256.0</ele><time>2026-04-12T10:01:49.995Z</time></trkpt><trkpt lat="44.5964946" lon="7.7795506"><ele>255.99999999999997</ele><time>2026-04-12T10:01:51.994Z</time></trkpt><trkpt lat="44.5964487" lon="7.7794463"><ele>256.0</ele><time>2026-04-12T10:01:53.994Z</time></trkpt><trkpt lat="44.5964032" lon="7.7793381"><ele>256.0</ele><time>2026-04-12T10:01:55.995Z</time></trkpt><trkpt lat="44.5963658" lon="7.7792185"><ele>256.0</ele><time>2026-04-12T10:01:57.995Z</time></trkpt><trkpt lat="44.5963422" lon="7.779103"><ele>255.99999999999997</ele><time>2026-04-12T10:01:59.995Z</time></trkpt><trkpt lat="44.5963328" lon="7.7790004"><ele>256.0</ele><time>2026-04-12T10:02:01.995Z</time></trkpt><trkpt lat="44.5963301" lon="7.778909"><ele>256.1428571428571</ele><time>2026-04-12T10:02:03.995Z</time></trkpt><trkpt lat="44.5963441" lon="7.778804"><ele>256.2857142857143</ele><time>2026-04-12T10:02:05.995Z</time></trkpt><trkpt lat="44.5963747" lon="7.7787037"><ele>256.42857142857144</ele><time>2026-04-12T10:02:07.996Z</time></trkpt><trkpt lat="44.5964104" lon="7.7786219"><ele>256.57142857142856</ele><time>2026-04-12T10:02:09.995Z</time></trkpt><trkpt lat="44.5964599" lon="7.7785203"><ele>256.7142857142857</ele><time>2026-04-12T10:02:12.995Z</time></trkpt><trkpt lat="44.5964969" lon="7.7784354"><ele>256.85714285714283</ele><time>2026-04-12T10:02:15.995Z</time></trkpt><trkpt lat="44.596529" lon="7.7783543"><ele>257.0</ele><time>2026-04-12T10:02:18.995Z</time></trkpt><trkpt lat="44.5965668" lon="7.7782643"><ele>257.85714285714283</ele><time>2026-04-12T10:02:22.995Z</time></trkpt><trkpt lat="44.596587" lon="7.7781667"><ele>258.7142857142857</ele><time>2026-04-12T10:02:27.995Z</time></trkpt><trkpt lat="44.5966092" lon="7.7780735"><ele>259.57142857142856</ele><time>2026-04-12T10:02:31.995Z</time></trkpt><trkpt lat="44.5966426" lon="7.7779971"><ele>260.42857142857144</ele><time>2026-04-12T10:02:35.994Z</time></trkpt><trkpt lat="44.5966901" lon="7.7779035"><ele>261.2857142857143</ele><time>2026-04-12T10:02:40.996Z</time></trkpt><trkpt lat="44.5967445" lon="7.777834"><ele>262.1428571428571</ele><time>2026-04-12T10:02:44.995Z</time></trkpt><trkpt lat="44.5968009" lon="7.7777763"><ele>263.0</ele><time>2026-04-12T10:02:48.994Z</time></trkpt><trkpt lat="44.5968611" lon="7.7777381"><ele>263.0</ele><time>2026-04-12T10:02:52.996Z</time></trkpt><trkpt lat="44.5969379" lon="7.777717"><ele>263.0</ele><time>2026-04-12T10:02:57.994Z</time></trkpt><trkpt lat="44.5969969" lon="7.7776667"><ele>263.0</ele><time>2026-04-12T10:03:01.996Z</time></trkpt><trkpt lat="44.5970646" lon="7.7776136"><ele>263.0</ele><time>2026-04-12T10:03:07.995Z</time></trkpt><trkpt lat="44.5971298" lon="7.777567"><ele>263.0</ele><time>2026-04-12T10:03:11.994Z</time></trkpt><trkpt lat="44.5971871" lon="7.7775231"><ele>263.0</ele><time>2026-04-12T10:03:15.996Z</time></trkpt><trkpt lat="44.5972491" lon="7.7774699"><ele>263.0</ele><time>2026-04-12T10:03:19.996Z</time></trkpt><trkpt lat="44.5973048" lon="7.7773864"><ele>264.33333333333337</ele><time>2026-04-12T10:03:23.995Z</time></trkpt><trkpt lat="44.5973513" lon="7.7773189"><ele>265.6666666666667</ele><time>2026-04-12T10:03:26.995Z</time></trkpt><trkpt lat="44.5974121" lon="7.7772428"><ele>267.0</ele><time>2026-04-12T10:03:29.995Z</time></trkpt><trkpt lat="44.5974717" lon="7.7771589"><ele>268.3333333333333</ele><time>2026-04-12T10:03:32.995Z</time></trkpt><trkpt lat="44.5975374" lon="7.7770673"><ele>269.66666666666663</ele><time>2026-04-12T10:03:35.995Z</time></trkpt><trkpt lat="44.5975799" lon="7.7769944"><ele>271.0</ele><time>2026-04-12T10:03:37.995Z</time></trkpt><trkpt lat="44.5976225" lon="7.7769168"><ele>271.57142857142856</ele><time>2026-04-12T10:03:39.995Z</time></trkpt><trkpt lat="44.597671" lon="7.7768471"><ele>272.14285714285717</ele><time>2026-04-12T10:03:41.995Z</time></trkpt><trkpt lat="44.5977147" lon="7.7767684"><ele>272.7142857142857</ele><time>2026-04-12T10:03:43.995Z</time></trkpt><trkpt lat="44.597755" lon="7.7766797"><ele>273.2857142857143</ele><time>2026-04-12T10:03:45.995Z</time></trkpt><trkpt lat="44.597798" lon="7.7765913"><ele>273.85714285714283</ele><time>2026-04-12T10:03:47.995Z</time></trkpt><trkpt lat="44.5978376" lon="7.7764982"><ele>274.42857142857144</ele><time>2026-04-12T10:03:49.995Z</time></trkpt><trkpt lat="44.59788" lon="7.776411"><ele>275.0</ele><time>2026-04-12T10:03:51.996Z</time></trkpt><trkpt lat="44.5979193" lon="7.7763198"><ele>275.0</ele><time>2026-04-12T10:03:53.995Z</time></trkpt><trkpt lat="44.597961" lon="7.7762276"><ele>275.0</ele><time>2026-04-12T10:03:55.995Z</time></trkpt><trkpt lat="44.5980039" lon="7.7761355"><ele>275.0</ele><time>2026-04-12T10:03:57.995Z</time></trkpt><trkpt lat="44.5980466" lon="7.7760437"><ele>275.0</ele><time>2026-04-12T10:03:59.995Z</time></trkpt><trkpt lat="44.598079" lon="7.7759472"><ele>275.0</ele><time>2026-04-12T10:04:01.995Z</time></trkpt><trkpt lat="44.5980828" lon="7.7758412"><ele>275.0</ele><time>2026-04-12T10:04:03.996Z</time></trkpt><trkpt lat="44.5980428" lon="7.7757498"><ele>274.6666666666667</ele><time>2026-04-12T10:04:05.996Z</time></trkpt><trkpt lat="44.5979766" lon="7.7756911"><ele>274.33333333333337</ele><time>2026-04-12T10:04:07.996Z</time></trkpt><trkpt lat="44.5979002" lon="7.7756561"><ele>274.0</ele><time>2026-04-12T10:04:09.995Z</time></trkpt><trkpt lat="44.5978233" lon="7.7756225"><ele>273.6666666666667</ele><time>2026-04-12T10:04:11.996Z</time></trkpt><trkpt lat="44.5977465" lon="7.7755894"><ele>273.3333333333333</ele><time>2026-04-12T10:04:13.996Z</time></trkpt><trkpt lat="44.5976687" lon="7.7755572"><ele>273.0</ele><time>2026-04-12T10:04:15.996Z</time></trkpt><trkpt lat="44.5975892" lon="7.7755226"><ele>273.0</ele><time>2026-04-12T10:04:17.995Z</time></trkpt><trkpt lat="44.5975084" lon="7.7754873"><ele>273.0</ele><time>2026-04-12T10:04:19.996Z</time></trkpt><trkpt lat="44.5974277" lon="7.775453"><ele>273.0</ele><time>2026-04-12T10:04:21.995Z</time></trkpt><trkpt lat="44.5973471" lon="7.7754184"><ele>273.0</ele><time>2026-04-12T10:04:23.996Z</time></trkpt><trkpt lat="44.5972677" lon="7.7753833"><ele>273.0</ele><time>2026-04-12T10:04:25.995Z</time></trkpt><trkpt lat="44.5971866" lon="7.7753474"><ele>273.0</ele><time>2026-04-12T10:04:27.995Z</time></trkpt><trkpt lat="44.5971044" lon="7.7753094"><ele>273.0</ele><time>2026-04-12T10:04:29.995Z</time></trkpt><trkpt lat="44.5970227" lon="7.7752747"><ele>273.0</ele><time>2026-04-12T10:04:31.995Z</time></trkpt><trkpt lat="44.59694" lon="7.7752379"><ele>273.0</ele><time>2026-04-12T10:04:33.995Z</time></trkpt><trkpt lat="44.5968584" lon="7.7752015"><ele>273.0</ele><time>2026-04-12T10:04:35.995Z</time></trkpt><trkpt lat="44.5967738" lon="7.7751668"><ele>273.0</ele><time>2026-04-12T10:04:37.995Z</time></trkpt><trkpt lat="44.5966894" lon="7.7751272"><ele>273.0</ele><time>2026-04-12T10:04:39.995Z</time></trkpt><trkpt lat="44.5966033" lon="7.7750902"><ele>273.1666666666667</ele><time>2026-04-12T10:04:41.995Z</time></trkpt><trkpt lat="44.5965177" lon="7.7750543"><ele>273.3333333333333</ele><time>2026-04-12T10:04:43.996Z</time></trkpt><trkpt lat="44.5964331" lon="7.77502"><ele>273.5</ele><time>2026-04-12T10:04:45.996Z</time></trkpt><trkpt lat="44.5963485" lon="7.7749867"><ele>273.66666666666663</ele><time>2026-04-12T10:04:47.995Z</time></trkpt><trkpt lat="44.5962642" lon="7.774941"><ele>273.8333333333333</ele><time>2026-04-12T10:04:49.995Z</time></trkpt><trkpt lat="44.596179" lon="7.774903"><ele>274.0</ele><time>2026-04-12T10:04:51.995Z</time></trkpt><trkpt lat="44.5960972" lon="7.7748656"><ele>274.0</ele><time>2026-04-12T10:04:53.995Z</time></trkpt><trkpt lat="44.5960113" lon="7.774837"><ele>274.0</ele><time>2026-04-12T10:04:55.995Z</time></trkpt><trkpt lat="44.5959261" lon="7.7748011"><ele>274.0</ele><time>2026-04-12T10:04:57.995Z</time></trkpt><trkpt lat="44.595841" lon="7.7747656"><ele>274.0</ele><time>2026-04-12T10:04:59.995Z</time></trkpt><trkpt lat="44.5957567" lon="7.774728"><ele>274.0</ele><time>2026-04-12T10:05:01.995Z</time></trkpt><trkpt lat="44.5956717" lon="7.7746908"><ele>274.0</ele><time>2026-04-12T10:05:03.995Z</time></trkpt><trkpt lat="44.5955837" lon="7.7746483"><ele>274.0</ele><time>2026-04-12T10:05:05.995Z</time></trkpt><trkpt lat="44.5954905" lon="7.7746135"><ele>274.0</ele><time>2026-04-12T10:05:07.995Z</time></trkpt><trkpt lat="44.5953946" lon="7.7745734"><ele>274.0</ele><time>2026-04-12T10:05:09.995Z</time></trkpt><trkpt lat="44.5953014" lon="7.7745328"><ele>274.0</ele><time>2026-04-12T10:05:11.996Z</time></trkpt><trkpt lat="44.5952087" lon="7.7744945"><ele>274.0</ele><time>2026-04-12T10:05:13.996Z</time></trkpt><trkpt lat="44.5951176" lon="7.7744548"><ele>274.2</ele><time>2026-04-12T10:05:15.995Z</time></trkpt><trkpt lat="44.5950274" lon="7.7744168"><ele>274.4</ele><time>2026-04-12T10:05:17.995Z</time></trkpt><trkpt lat="44.5949371" lon="7.7743802"><ele>274.6</ele><time>2026-04-12T10:05:19.995Z</time></trkpt><trkpt lat="44.5948465" lon="7.7743356"><ele>274.8</ele><time>2026-04-12T10:05:21.995Z</time></trkpt><trkpt lat="44.5947534" lon="7.7742973"><ele>275.0</ele><time>2026-04-12T10:05:23.995Z</time></trkpt><trkpt lat="44.5946607" lon="7.774255"><ele>275.4</ele><time>2026-04-12T10:05:25.995Z</time></trkpt><trkpt lat="44.5945686" lon="7.7742149"><ele>275.8</ele><time>2026-04-12T10:05:27.995Z</time></trkpt><trkpt lat="44.5944781" lon="7.7741743"><ele>276.2</ele><time>2026-04-12T10:05:29.995Z</time></trkpt><trkpt lat="44.594388" lon="7.7741359"><ele>276.6</ele><time>2026-04-12T10:05:31.995Z</time></trkpt><trkpt lat="44.5942933" lon="7.774099"><ele>277.0</ele><time>2026-04-12T10:05:33.995Z</time></trkpt><trkpt lat="44.5941975" lon="7.7740621"><ele>277.2</ele><time>2026-04-12T10:05:35.995Z</time></trkpt><trkpt lat="44.5941006" lon="7.7740224"><ele>277.4</ele><time>2026-04-12T10:05:37.995Z</time></trkpt><trkpt lat="44.5940058" lon="7.7739783"><ele>277.6</ele><time>2026-04-12T10:05:39.995Z</time></trkpt><trkpt lat="44.5939107" lon="7.7739445"><ele>277.8</ele><time>2026-04-12T10:05:41.995Z</time></trkpt><trkpt lat="44.5938169" lon="7.7739076"><ele>278.0</ele><time>2026-04-12T10:05:43.996Z</time></trkpt><trkpt lat="44.5937272" lon="7.7738683"><ele>277.6</ele><time>2026-04-12T10:05:45.995Z</time></trkpt><trkpt lat="44.5936399" lon="7.7738215"><ele>277.20000000000005</ele><time>2026-04-12T10:05:47.996Z</time></trkpt><trkpt lat="44.5935477" lon="7.7737671"><ele>276.8</ele><time>2026-04-12T10:05:49.995Z</time></trkpt><trkpt lat="44.5934494" lon="7.7737281"><ele>276.40000000000003</ele><time>2026-04-12T10:05:51.996Z</time></trkpt><trkpt lat="44.593348" lon="7.7736884"><ele>276.0</ele><time>2026-04-12T10:05:53.995Z</time></trkpt><trkpt lat="44.5932458" lon="7.773646"><ele>276.0</ele><time>2026-04-12T10:05:55.995Z</time></trkpt><trkpt lat="44.5931459" lon="7.7736032"><ele>276.0</ele><time>2026-04-12T10:05:57.995Z</time></trkpt><trkpt lat="44.5930477" lon="7.7735558"><ele>276.0</ele><time>2026-04-12T10:05:59.995Z</time></trkpt><trkpt lat="44.5929459" lon="7.7735164"><ele>276.0</ele><time>2026-04-12T10:06:01.995Z</time></trkpt><trkpt lat="44.5928431" lon="7.773475"><ele>276.0</ele><time>2026-04-12T10:06:03.995Z</time></trkpt><trkpt lat="44.5927432" lon="7.7734275"><ele>276.2</ele><time>2026-04-12T10:06:05.996Z</time></trkpt><trkpt lat="44.5926439" lon="7.77338"><ele>276.40000000000003</ele><time>2026-04-12T10:06:07.995Z</time></trkpt><trkpt lat="44.5925426" lon="7.773338"><ele>276.6</ele><time>2026-04-12T10:06:09.996Z</time></trkpt><trkpt lat="44.5924418" lon="7.7732959"><ele>276.8</ele><time>2026-04-12T10:06:11.995Z</time></trkpt><trkpt lat="44.5923386" lon="7.7732627"><ele>277.0</ele><time>2026-04-12T10:06:13.995Z</time></trkpt><trkpt lat="44.592236" lon="7.7732232"><ele>277.0</ele><time>2026-04-12T10:06:15.995Z</time></trkpt><trkpt lat="44.5921358" lon="7.7731844"><ele>277.0</ele><time>2026-04-12T10:06:17.996Z</time></trkpt><trkpt lat="44.592037" lon="7.7731451"><ele>277.0</ele><time>2026-04-12T10:06:19.995Z</time></trkpt><trkpt lat="44.5919364" lon="7.7731057"><ele>277.0</ele><time>2026-04-12T10:06:21.995Z</time></trkpt><trkpt lat="44.5918366" lon="7.7730669"><ele>277.0</ele><time>2026-04-12T10:06:23.996Z</time></trkpt><trkpt lat="44.5917348" lon="7.7730228"><ele>277.2</ele><time>2026-04-12T10:06:25.995Z</time></trkpt><trkpt lat="44.591634" lon="7.7729807"><ele>277.4</ele><time>2026-04-12T10:06:27.996Z</time></trkpt><trkpt lat="44.5915319" lon="7.7729336"><ele>277.6</ele><time>2026-04-12T10:06:29.995Z</time></trkpt><trkpt lat="44.5914279" lon="7.7728999"><ele>277.8</ele><time>2026-04-12T10:06:31.995Z</time></trkpt><trkpt lat="44.5913275" lon="7.7728596"><ele>278.0</ele><time>2026-04-12T10:06:33.997Z</time></trkpt><trkpt lat="44.5912238" lon="7.772816"><ele>277.6</ele><time>2026-04-12T10:06:35.995Z</time></trkpt><trkpt lat="44.5911189" lon="7.7727703"><ele>277.20000000000005</ele><time>2026-04-12T10:06:37.995Z</time></trkpt><trkpt lat="44.5910113" lon="7.7727276"><ele>276.8</ele><time>2026-04-12T10:06:39.995Z</time></trkpt><trkpt lat="44.5909039" lon="7.7726764"><ele>276.40000000000003</ele><time>2026-04-12T10:06:41.996Z</time></trkpt><trkpt lat="44.5907979" lon="7.7726319"><ele>276.0</ele><time>2026-04-12T10:06:43.995Z</time></trkpt><trkpt lat="44.5906912" lon="7.7725855"><ele>276.0</ele><time>2026-04-12T10:06:45.995Z</time></trkpt><trkpt lat="44.5905867" lon="7.7725352"><ele>276.0</ele><time>2026-04-12T10:06:47.996Z</time></trkpt><trkpt lat="44.5904803" lon="7.7724916"><ele>276.0</ele><time>2026-04-12T10:06:49.996Z</time></trkpt><trkpt lat="44.5903777" lon="7.7724484"><ele>276.0</ele><time>2026-04-12T10:06:51.996Z</time></trkpt><trkpt lat="44.5902739" lon="7.7724034"><ele>276.0</ele><time>2026-04-12T10:06:53.995Z</time></trkpt><trkpt lat="44.5901699" lon="7.7723508"><ele>275.8</ele><time>2026-04-12T10:06:55.996Z</time></trkpt><trkpt lat="44.5900629" lon="7.7723134"><ele>275.6</ele><time>2026-04-12T10:06:57.995Z</time></trkpt><trkpt lat="44.5899588" lon="7.7722677"><ele>275.4</ele><time>2026-04-12T10:06:59.995Z</time></trkpt><trkpt lat="44.5898547" lon="7.7722246"><ele>275.2</ele><time>2026-04-12T10:07:01.996Z</time></trkpt><trkpt lat="44.5897506" lon="7.7721787"><ele>275.0</ele><time>2026-04-12T10:07:03.996Z</time></trkpt><trkpt lat="44.5896448" lon="7.7721353"><ele>275.0</ele><time>2026-04-12T10:07:05.995Z</time></trkpt><trkpt lat="44.5895415" lon="7.7720883"><ele>275.0</ele><time>2026-04-12T10:07:07.996Z</time></trkpt><trkpt lat="44.5894417" lon="7.7720357"><ele>275.0</ele><time>2026-04-12T10:07:09.996Z</time></trkpt><trkpt lat="44.5893499" lon="7.7719623"><ele>275.0</ele><time>2026-04-12T10:07:11.995Z</time></trkpt><trkpt lat="44.5892726" lon="7.7718634"><ele>275.0</ele><time>2026-04-12T10:07:13.996Z</time></trkpt><trkpt lat="44.5892078" lon="7.7717457"><ele>275.4</ele><time>2026-04-12T10:07:15.995Z</time></trkpt><trkpt lat="44.5891377" lon="7.7716265"><ele>275.8</ele><time>2026-04-12T10:07:17.995Z</time></trkpt><trkpt lat="44.5890661" lon="7.7715092"><ele>276.2</ele><time>2026-04-12T10:07:19.995Z</time></trkpt><trkpt lat="44.5889927" lon="7.7713936"><ele>276.6</ele><time>2026-04-12T10:07:21.996Z</time></trkpt><trkpt lat="44.5889067" lon="7.7712955"><ele>277.0</ele><time>2026-04-12T10:07:23.995Z</time></trkpt><trkpt lat="44.5888119" lon="7.7712125"><ele>277.0</ele><time>2026-04-12T10:07:25.995Z</time></trkpt><trkpt lat="44.5887121" lon="7.7711495"><ele>277.0</ele><time>2026-04-12T10:07:27.995Z</time></trkpt><trkpt lat="44.5886143" lon="7.7710838"><ele>277.0</ele><time>2026-04-12T10:07:29.995Z</time></trkpt><trkpt lat="44.5885168" lon="7.7710081"><ele>277.0</ele><time>2026-04-12T10:07:31.995Z</time></trkpt><trkpt lat="44.5884266" lon="7.7709218"><ele>277.0</ele><time>2026-04-12T10:07:33.996Z</time></trkpt><trkpt lat="44.5883459" lon="7.7708202"><ele>277.0</ele><time>2026-04-12T10:07:35.995Z</time></trkpt><trkpt lat="44.588294" lon="7.7706969"><ele>277.0</ele><time>2026-04-12T10:07:37.995Z</time></trkpt><trkpt lat="44.5882572" lon="7.7705563"><ele>277.0</ele><time>2026-04-12T10:07:39.995Z</time></trkpt><trkpt lat="44.5882228" lon="7.770417"><ele>277.0</ele><time>2026-04-12T10:07:41.995Z</time></trkpt><trkpt lat="44.588186" lon="7.7702789"><ele>277.0</ele><time>2026-04-12T10:07:43.995Z</time></trkpt><trkpt lat="44.5881353" lon="7.7701627"><ele>277.16666666666663</ele><time>2026-04-12T10:07:45.995Z</time></trkpt><trkpt lat="44.5880806" lon="7.7700487"><ele>277.3333333333333</ele><time>2026-04-12T10:07:47.995Z</time></trkpt><trkpt lat="44.5880217" lon="7.7699513"><ele>277.5</ele><time>2026-04-12T10:07:49.994Z</time></trkpt><trkpt lat="44.5879631" lon="7.7698672"><ele>277.6666666666667</ele><time>2026-04-12T10:07:51.995Z</time></trkpt><trkpt lat="44.5878985" lon="7.7697894"><ele>277.83333333333337</ele><time>2026-04-12T10:07:53.995Z</time></trkpt><trkpt lat="44.5878408" lon="7.769713"><ele>278.0</ele><time>2026-04-12T10:07:55.995Z</time></trkpt><trkpt lat="44.5877877" lon="7.7696402"><ele>278.6666666666667</ele><time>2026-04-12T10:07:57.995Z</time></trkpt><trkpt lat="44.5877329" lon="7.769567"><ele>279.33333333333337</ele><time>2026-04-12T10:07:59.994Z</time></trkpt><trkpt lat="44.5876688" lon="7.7694997"><ele>280.0</ele><time>2026-04-12T10:08:01.994Z</time></trkpt><trkpt lat="44.5876009" lon="7.7694443"><ele>280.6666666666667</ele><time>2026-04-12T10:08:03.994Z</time></trkpt><trkpt lat="44.5875301" lon="7.7694018"><ele>281.3333333333333</ele><time>2026-04-12T10:08:05.994Z</time></trkpt><trkpt lat="44.587453" lon="7.769368"><ele>282.0</ele><time>2026-04-12T10:08:07.994Z</time></trkpt><trkpt lat="44.5873732" lon="7.7693309"><ele>282.1666666666667</ele><time>2026-04-12T10:08:09.994Z</time></trkpt><trkpt lat="44.5872946" lon="7.7692858"><ele>282.3333333333333</ele><time>2026-04-12T10:08:11.994Z</time></trkpt><trkpt lat="44.5872162" lon="7.7692422"><ele>282.5</ele><time>2026-04-12T10:08:13.994Z</time></trkpt><trkpt lat="44.587138" lon="7.7692046"><ele>282.66666666666663</ele><time>2026-04-12T10:08:15.994Z</time></trkpt><trkpt lat="44.5870731" lon="7.7691484"><ele>282.8333333333333</ele><time>2026-04-12T10:08:17.995Z</time></trkpt><trkpt lat="44.5870581" lon="7.7690592"><ele>283.0</ele><time>2026-04-12T10:08:19.994Z</time></trkpt><trkpt lat="44.5870822" lon="7.7689744"><ele>283.0</ele><time>2026-04-12T10:08:21.994Z</time></trkpt><trkpt lat="44.5871051" lon="7.7688711"><ele>283.0</ele><time>2026-04-12T10:08:23.994Z</time></trkpt><trkpt lat="44.5871343" lon="7.7687679"><ele>283.0</ele><time>2026-04-12T10:08:25.994Z</time></trkpt><trkpt lat="44.5871582" lon="7.7686582"><ele>283.0</ele><time>2026-04-12T10:08:27.994Z</time></trkpt><trkpt lat="44.5871806" lon="7.7685444"><ele>283.0</ele><time>2026-04-12T10:08:29.994Z</time></trkpt><trkpt lat="44.5872011" lon="7.7684352"><ele>283.0</ele><time>2026-04-12T10:08:31.994Z</time></trkpt><trkpt lat="44.5872067" lon="7.76834"><ele>283.0</ele><time>2026-04-12T10:08:33.995Z</time></trkpt><trkpt lat="44.5871697" lon="7.7682673"><ele>283.0</ele><time>2026-04-12T10:08:35.994Z</time></trkpt><trkpt lat="44.5871063" lon="7.7682325"><ele>283.0</ele><time>2026-04-12T10:08:37.994Z</time></trkpt><trkpt lat="44.5870383" lon="7.7681967"><ele>283.0</ele><time>2026-04-12T10:08:39.994Z</time></trkpt><trkpt lat="44.5869637" lon="7.7681601"><ele>283.0</ele><time>2026-04-12T10:08:41.995Z</time></trkpt><trkpt lat="44.5868823" lon="7.7681381"><ele>283.0</ele><time>2026-04-12T10:08:43.994Z</time></trkpt><trkpt lat="44.5867982" lon="7.7681224"><ele>283.2</ele><time>2026-04-12T10:08:45.994Z</time></trkpt><trkpt lat="44.5867103" lon="7.768103"><ele>283.4</ele><time>2026-04-12T10:08:47.994Z</time></trkpt><trkpt lat="44.5866223" lon="7.7680716"><ele>283.59999999999997</ele><time>2026-04-12T10:08:49.995Z</time></trkpt><trkpt lat="44.5865321" lon="7.7680471"><ele>283.8</ele><time>2026-04-12T10:08:51.995Z</time></trkpt><trkpt lat="44.5864438" lon="7.7680203"><ele>284.0</ele><time>2026-04-12T10:08:53.995Z</time></trkpt><trkpt lat="44.586355" lon="7.7679902"><ele>284.0</ele><time>2026-04-12T10:08:55.995Z</time></trkpt><trkpt lat="44.5862667" lon="7.7679652"><ele>284.0</ele><time>2026-04-12T10:08:57.994Z</time></trkpt><trkpt lat="44.5861814" lon="7.7679395"><ele>284.0</ele><time>2026-04-12T10:08:59.994Z</time></trkpt><trkpt lat="44.5860947" lon="7.7679146"><ele>284.0</ele><time>2026-04-12T10:09:01.995Z</time></trkpt><trkpt lat="44.5860114" lon="7.7678884"><ele>284.0</ele><time>2026-04-12T10:09:03.996Z</time></trkpt><trkpt lat="44.5859294" lon="7.7678611"><ele>284.0</ele><time>2026-04-12T10:09:05.994Z</time></trkpt><trkpt lat="44.5858519" lon="7.7678456"><ele>283.8</ele><time>2026-04-12T10:09:07.995Z</time></trkpt><trkpt lat="44.5857764" lon="7.7678567"><ele>283.59999999999997</ele><time>2026-04-12T10:09:09.995Z</time></trkpt><trkpt lat="44.5857091" lon="7.7679278"><ele>283.4</ele><time>2026-04-12T10:09:11.994Z</time></trkpt><trkpt lat="44.5856538" lon="7.7680385"><ele>283.2</ele><time>2026-04-12T10:09:13.995Z</time></trkpt><trkpt lat="44.5856082" lon="7.7681591"><ele>283.0</ele><time>2026-04-12T10:09:15.995Z</time></trkpt><trkpt lat="44.5855675" lon="7.7682973"><ele>283.0</ele><time>2026-04-12T10:09:17.995Z</time></trkpt><trkpt lat="44.5855236" lon="7.7684485"><ele>283.0</ele><time>2026-04-12T10:09:19.995Z</time></trkpt><trkpt lat="44.5854975" lon="7.7686148"><ele>283.0</ele><time>2026-04-12T10:09:21.995Z</time></trkpt><trkpt lat="44.5854873" lon="7.7687066"><ele>283.0</ele><time>2026-04-12T10:09:22.994Z</time></trkpt><trkpt lat="44.585478" lon="7.7688007"><ele>283.0</ele><time>2026-04-12T10:09:23.996Z</time></trkpt><trkpt lat="44.5854735" lon="7.7688965"><ele>283.0</ele><time>2026-04-12T10:09:24.995Z</time></trkpt><trkpt lat="44.585466" lon="7.768992"><ele>283.0</ele><time>2026-04-12T10:09:25.995Z</time></trkpt><trkpt lat="44.5854632" lon="7.769091"><ele>283.0</ele><time>2026-04-12T10:09:26.995Z</time></trkpt><trkpt lat="44.5854574" lon="7.7691933"><ele>283.0</ele><time>2026-04-12T10:09:27.995Z</time></trkpt><trkpt lat="44.5854461" lon="7.7692951"><ele>283.0</ele><time>2026-04-12T10:09:28.994Z</time></trkpt><trkpt lat="44.5854277" lon="7.7693902"><ele>283.0</ele><time>2026-04-12T10:09:29.995Z</time></trkpt><trkpt lat="44.585417" lon="7.7694911"><ele>283.0</ele><time>2026-04-12T10:09:30.996Z</time></trkpt><trkpt lat="44.5854208" lon="7.7695928"><ele>283.0</ele><time>2026-04-12T10:09:31.995Z</time></trkpt><trkpt lat="44.5854224" lon="7.7696955"><ele>282.8333333333333</ele><time>2026-04-12T10:09:32.995Z</time></trkpt><trkpt lat="44.5854328" lon="7.7697937"><ele>282.66666666666663</ele><time>2026-04-12T10:09:33.995Z</time></trkpt><trkpt lat="44.5854389" lon="7.7698849"><ele>282.5</ele><time>2026-04-12T10:09:34.994Z</time></trkpt><trkpt lat="44.585406" lon="7.7700299"><ele>282.3333333333333</ele><time>2026-04-12T10:09:36.996Z</time></trkpt><trkpt lat="44.5853364" lon="7.7701214"><ele>282.1666666666667</ele><time>2026-04-12T10:09:38.994Z</time></trkpt><trkpt lat="44.5852699" lon="7.7702172"><ele>282.0</ele><time>2026-04-12T10:09:40.996Z</time></trkpt><trkpt lat="44.5851668" lon="7.7702863"><ele>281.0</ele><time>2026-04-12T10:09:42.995Z</time></trkpt><trkpt lat="44.5850601" lon="7.7703664"><ele>280.0</ele><time>2026-04-12T10:09:44.996Z</time></trkpt><trkpt lat="44.5849477" lon="7.7704272"><ele>279.0</ele><time>2026-04-12T10:09:46.995Z</time></trkpt><trkpt lat="44.5848867" lon="7.7704707"><ele>278.0</ele><time>2026-04-12T10:09:47.995Z</time></trkpt><trkpt lat="44.5848242" lon="7.770508"><ele>277.0</ele><time>2026-04-12T10:09:48.994Z</time></trkpt><trkpt lat="44.5847602" lon="7.7705387"><ele>276.0</ele><time>2026-04-12T10:09:49.995Z</time></trkpt><trkpt lat="44.5846907" lon="7.7705731"><ele>276.0</ele><time>2026-04-12T10:09:50.995Z</time></trkpt><trkpt lat="44.5846222" lon="7.7706004"><ele>276.0</ele><time>2026-04-12T10:09:51.996Z</time></trkpt><trkpt lat="44.5845565" lon="7.7706229"><ele>276.0</ele><time>2026-04-12T10:09:52.994Z</time></trkpt><trkpt lat="44.5844969" lon="7.7706521"><ele>276.0</ele><time>2026-04-12T10:09:53.995Z</time></trkpt><trkpt lat="44.584379" lon="7.7707129"><ele>276.0</ele><time>2026-04-12T10:09:55.995Z</time></trkpt><trkpt lat="44.5843132" lon="7.770762"><ele>276.0</ele><time>2026-04-12T10:09:56.994Z</time></trkpt><trkpt lat="44.5842472" lon="7.770815"><ele>276.3333333333333</ele><time>2026-04-12T10:09:57.995Z</time></trkpt><trkpt lat="44.5841785" lon="7.770864"><ele>276.6666666666667</ele><time>2026-04-12T10:09:58.994Z</time></trkpt><trkpt lat="44.5841065" lon="7.7709228"><ele>277.0</ele><time>2026-04-12T10:09:59.995Z</time></trkpt><trkpt lat="44.5840377" lon="7.7709735"><ele>277.33333333333337</ele><time>2026-04-12T10:10:00.995Z</time></trkpt><trkpt lat="44.5839649" lon="7.771022"><ele>277.6666666666667</ele><time>2026-04-12T10:10:01.994Z</time></trkpt><trkpt lat="44.5838849" lon="7.7710659"><ele>278.0</ele><time>2026-04-12T10:10:02.995Z</time></trkpt><trkpt lat="44.5838211" lon="7.7711183"><ele>277.1428571428571</ele><time>2026-04-12T10:10:03.994Z</time></trkpt><trkpt lat="44.5837571" lon="7.7711771"><ele>276.2857142857143</ele><time>2026-04-12T10:10:04.994Z</time></trkpt><trkpt lat="44.5836952" lon="7.7712311"><ele>275.42857142857144</ele><time>2026-04-12T10:10:05.996Z</time></trkpt><trkpt lat="44.5836298" lon="7.7712785"><ele>274.57142857142856</ele><time>2026-04-12T10:10:06.995Z</time></trkpt><trkpt lat="44.5835652" lon="7.7713263"><ele>273.7142857142857</ele><time>2026-04-12T10:10:07.995Z</time></trkpt><trkpt lat="44.5835009" lon="7.7713627"><ele>272.85714285714283</ele><time>2026-04-12T10:10:08.995Z</time></trkpt><trkpt lat="44.5834317" lon="7.7713968"><ele>272.0</ele><time>2026-04-12T10:10:09.995Z</time></trkpt><trkpt lat="44.5833689" lon="7.7714053"><ele>272.0</ele><time>2026-04-12T10:10:10.995Z</time></trkpt><trkpt lat="44.5832993" lon="7.7714172"><ele>272.0</ele><time>2026-04-12T10:10:11.994Z</time></trkpt><trkpt lat="44.5832293" lon="7.7714312"><ele>272.0</ele><time>2026-04-12T10:10:12.995Z</time></trkpt><trkpt lat="44.5831622" lon="7.7714411"><ele>272.0</ele><time>2026-04-12T10:10:13.995Z</time></trkpt><trkpt lat="44.5830423" lon="7.7714426"><ele>272.0</ele><time>2026-04-12T10:10:15.995Z</time></trkpt><trkpt lat="44.5829177" lon="7.7714665"><ele>272.2</ele><time>2026-04-12T10:10:17.995Z</time></trkpt><trkpt lat="44.5828442" lon="7.7714307"><ele>272.4</ele><time>2026-04-12T10:10:18.995Z</time></trkpt><trkpt lat="44.5827358" lon="7.7714717"><ele>272.6</ele><time>2026-04-12T10:10:20.996Z</time></trkpt><trkpt lat="44.5826369" lon="7.7715541"><ele>272.8</ele><time>2026-04-12T10:10:22.994Z</time></trkpt><trkpt lat="44.5825501" lon="7.7716556"><ele>273.0</ele><time>2026-04-12T10:10:24.994Z</time></trkpt><trkpt lat="44.5824703" lon="7.7717478"><ele>273.0</ele><time>2026-04-12T10:10:26.995Z</time></trkpt><trkpt lat="44.5823901" lon="7.7718229"><ele>273.0</ele><time>2026-04-12T10:10:28.994Z</time></trkpt><trkpt lat="44.5823159" lon="7.7718833"><ele>273.0</ele><time>2026-04-12T10:10:30.995Z</time></trkpt><trkpt lat="44.5822278" lon="7.7719578"><ele>273.0</ele><time>2026-04-12T10:10:32.995Z</time></trkpt><trkpt lat="44.5821386" lon="7.7720416"><ele>273.0</ele><time>2026-04-12T10:10:34.995Z</time></trkpt><trkpt lat="44.5820487" lon="7.772122"><ele>271.6</ele><time>2026-04-12T10:10:36.994Z</time></trkpt><trkpt lat="44.5819686" lon="7.772215"><ele>270.20000000000005</ele><time>2026-04-12T10:10:38.995Z</time></trkpt><trkpt lat="44.5818946" lon="7.7723065"><ele>268.8</ele><time>2026-04-12T10:10:40.995Z</time></trkpt><trkpt lat="44.5818247" lon="7.7724075"><ele>267.40000000000003</ele><time>2026-04-12T10:10:42.994Z</time></trkpt><trkpt lat="44.5817515" lon="7.7725064"><ele>266.0</ele><time>2026-04-12T10:10:44.995Z</time></trkpt><trkpt lat="44.581668" lon="7.7725888"><ele>266.0</ele><time>2026-04-12T10:10:46.994Z</time></trkpt><trkpt lat="44.5815825" lon="7.7726511"><ele>266.0</ele><time>2026-04-12T10:10:48.995Z</time></trkpt><trkpt lat="44.5814987" lon="7.7727003"><ele>266.0</ele><time>2026-04-12T10:10:50.994Z</time></trkpt><trkpt lat="44.5814222" lon="7.7727424"><ele>266.0</ele><time>2026-04-12T10:10:52.994Z</time></trkpt><trkpt lat="44.5813532" lon="7.7727742"><ele>266.0</ele><time>2026-04-12T10:10:54.994Z</time></trkpt><trkpt lat="44.5812746" lon="7.7727785"><ele>266.0</ele><time>2026-04-12T10:10:57.995Z</time></trkpt><trkpt lat="44.5812444" lon="7.7726793"><ele>266.0</ele><time>2026-04-12T10:11:00.994Z</time></trkpt><trkpt lat="44.581243" lon="7.772547"><ele>266.0</ele><time>2026-04-12T10:11:03.995Z</time></trkpt><trkpt lat="44.5812376" lon="7.7724502"><ele>266.0</ele><time>2026-04-12T10:11:05.994Z</time></trkpt><trkpt lat="44.5812353" lon="7.7723514"><ele>266.0</ele><time>2026-04-12T10:11:07.994Z</time></trkpt><trkpt lat="44.5812451" lon="7.7722471"><ele>266.0</ele><time>2026-04-12T10:11:09.994Z</time></trkpt><trkpt lat="44.5812408" lon="7.7721368"><ele>266.0</ele><time>2026-04-12T10:11:11.995Z</time></trkpt><trkpt lat="44.5812361" lon="7.7720288"><ele>266.0</ele><time>2026-04-12T10:11:13.994Z</time></trkpt><trkpt lat="44.5812286" lon="7.7719247"><ele>266.0</ele><time>2026-04-12T10:11:15.995Z</time></trkpt><trkpt lat="44.5812203" lon="7.7718232"><ele>266.0</ele><time>2026-04-12T10:11:17.995Z</time></trkpt><trkpt lat="44.5812049" lon="7.7717237"><ele>266.0</ele><time>2026-04-12T10:11:19.996Z</time></trkpt><trkpt lat="44.5811946" lon="7.7716199"><ele>266.0</ele><time>2026-04-12T10:11:21.994Z</time></trkpt><trkpt lat="44.5811751" lon="7.771523"><ele>266.0</ele><time>2026-04-12T10:11:23.995Z</time></trkpt><trkpt lat="44.5811632" lon="7.7714329"><ele>266.0</ele><time>2026-04-12T10:11:25.994Z</time></trkpt><trkpt lat="44.5811509" lon="7.7713358"><ele>266.42857142857144</ele><time>2026-04-12T10:11:27.994Z</time></trkpt><trkpt lat="44.5811347" lon="7.7712416"><ele>266.8571428571429</ele><time>2026-04-12T10:11:29.995Z</time></trkpt><trkpt lat="44.5811195" lon="7.7711542"><ele>267.2857142857143</ele><time>2026-04-12T10:11:31.995Z</time></trkpt><trkpt lat="44.5811096" lon="7.771064"><ele>267.7142857142857</ele><time>2026-04-12T10:11:33.995Z</time></trkpt><trkpt lat="44.5810973" lon="7.7709696"><ele>268.14285714285717</ele><time>2026-04-12T10:11:35.995Z</time></trkpt><trkpt lat="44.5810823" lon="7.7708792"><ele>268.57142857142856</ele><time>2026-04-12T10:11:37.996Z</time></trkpt><trkpt lat="44.5810637" lon="7.7707544"><ele>269.0</ele><time>2026-04-12T10:11:40.996Z</time></trkpt><trkpt lat="44.5810458" lon="7.7706249"><ele>269.2857142857143</ele><time>2026-04-12T10:11:43.995Z</time></trkpt><trkpt lat="44.5810318" lon="7.7705372"><ele>269.5714285714286</ele><time>2026-04-12T10:11:45.996Z</time></trkpt><trkpt lat="44.581012" lon="7.7704096"><ele>269.8571428571429</ele><time>2026-04-12T10:11:48.994Z</time></trkpt><trkpt lat="44.5809955" lon="7.770322"><ele>270.14285714285717</ele><time>2026-04-12T10:11:50.994Z</time></trkpt><trkpt lat="44.5809812" lon="7.7702315"><ele>270.42857142857144</ele><time>2026-04-12T10:11:52.995Z</time></trkpt><trkpt lat="44.580965" lon="7.7701347"><ele>270.7142857142857</ele><time>2026-04-12T10:11:54.995Z</time></trkpt><trkpt lat="44.5809539" lon="7.7700423"><ele>271.0</ele><time>2026-04-12T10:11:56.994Z</time></trkpt><trkpt lat="44.580942" lon="7.7699546"><ele>272.0</ele><time>2026-04-12T10:11:58.995Z</time></trkpt><trkpt lat="44.5809307" lon="7.7698578"><ele>273.0</ele><time>2026-04-12T10:12:00.994Z</time></trkpt><trkpt lat="44.5809205" lon="7.7697613"><ele>274.0</ele><time>2026-04-12T10:12:02.994Z</time></trkpt><trkpt lat="44.5809062" lon="7.7696664"><ele>275.0</ele><time>2026-04-12T10:12:04.994Z</time></trkpt><trkpt lat="44.58089" lon="7.7695714"><ele>276.0</ele><time>2026-04-12T10:12:06.995Z</time></trkpt><trkpt lat="44.5808697" lon="7.7694871"><ele>277.0</ele><time>2026-04-12T10:12:08.995Z</time></trkpt><trkpt lat="44.5808589" lon="7.7693936"><ele>278.0</ele><time>2026-04-12T10:12:10.994Z</time></trkpt><trkpt lat="44.5808427" lon="7.7693024"><ele>279.0</ele><time>2026-04-12T10:12:12.995Z</time></trkpt><trkpt lat="44.5808306" lon="7.7691707"><ele>280.0</ele><time>2026-04-12T10:12:15.995Z</time></trkpt><trkpt lat="44.5808073" lon="7.7690523"><ele>281.0</ele><time>2026-04-12T10:12:18.995Z</time></trkpt><trkpt lat="44.5807803" lon="7.7689335"><ele>282.0</ele><time>2026-04-12T10:12:21.995Z</time></trkpt><trkpt lat="44.5807359" lon="7.7688661"><ele>283.0</ele><time>2026-04-12T10:12:23.995Z</time></trkpt><trkpt lat="44.5806893" lon="7.7688039"><ele>284.0</ele><time>2026-04-12T10:12:25.995Z</time></trkpt><trkpt lat="44.5806376" lon="7.7687405"><ele>284.0</ele><time>2026-04-12T10:12:27.995Z</time></trkpt><trkpt lat="44.5805952" lon="7.768671"><ele>284.0</ele><time>2026-04-12T10:12:29.994Z</time></trkpt><trkpt lat="44.5805567" lon="7.7686"><ele>284.0</ele><time>2026-04-12T10:12:31.995Z</time></trkpt><trkpt lat="44.5805195" lon="7.7685228"><ele>284.0</ele><time>2026-04-12T10:12:33.995Z</time></trkpt><trkpt lat="44.5804807" lon="7.7684441"><ele>284.0</ele><time>2026-04-12T10:12:35.994Z</time></trkpt><trkpt lat="44.580441" lon="7.7683696"><ele>284.0</ele><time>2026-04-12T10:12:37.995Z</time></trkpt><trkpt lat="44.5803992" lon="7.7682951"><ele>284.0</ele><time>2026-04-12T10:12:39.996Z</time></trkpt><trkpt lat="44.5803507" lon="7.7682288"><ele>283.1428571428571</ele><time>2026-04-12T10:12:41.994Z</time></trkpt><trkpt lat="44.5803096" lon="7.7681611"><ele>282.2857142857143</ele><time>2026-04-12T10:12:43.994Z</time></trkpt><trkpt lat="44.5802606" lon="7.7681005"><ele>281.42857142857144</ele><time>2026-04-12T10:12:45.994Z</time></trkpt><trkpt lat="44.5802032" lon="7.7680516"><ele>280.57142857142856</ele><time>2026-04-12T10:12:47.995Z</time></trkpt><trkpt lat="44.5801499" lon="7.7679908"><ele>279.7142857142857</ele><time>2026-04-12T10:12:49.994Z</time></trkpt><trkpt lat="44.5800843" lon="7.7679056"><ele>278.85714285714283</ele><time>2026-04-12T10:12:52.995Z</time></trkpt><trkpt lat="44.5800176" lon="7.7678263"><ele>278.0</ele><time>2026-04-12T10:12:55.994Z</time></trkpt><trkpt lat="44.5799533" lon="7.7677435"><ele>278.83333333333337</ele><time>2026-04-12T10:12:58.995Z</time></trkpt><trkpt lat="44.5798872" lon="7.7676578"><ele>279.6666666666667</ele><time>2026-04-12T10:13:01.994Z</time></trkpt><trkpt lat="44.5798179" lon="7.7675664"><ele>280.5</ele><time>2026-04-12T10:13:04.994Z</time></trkpt><trkpt lat="44.5797654" lon="7.7675059"><ele>281.3333333333333</ele><time>2026-04-12T10:13:06.994Z</time></trkpt><trkpt lat="44.5797047" lon="7.767458"><ele>282.16666666666663</ele><time>2026-04-12T10:13:08.995Z</time></trkpt><trkpt lat="44.5796443" lon="7.7674141"><ele>283.0</ele><time>2026-04-12T10:13:10.995Z</time></trkpt><trkpt lat="44.5795871" lon="7.7673671"><ele>283.0</ele><time>2026-04-12T10:13:12.994Z</time></trkpt><trkpt lat="44.5795345" lon="7.7673024"><ele>283.0</ele><time>2026-04-12T10:13:14.995Z</time></trkpt><trkpt lat="44.579488" lon="7.7672291"><ele>283.0</ele><time>2026-04-12T10:13:16.994Z</time></trkpt><trkpt lat="44.5794498" lon="7.767156"><ele>283.0</ele><time>2026-04-12T10:13:18.996Z</time></trkpt><trkpt lat="44.579392" lon="7.7670525"><ele>283.0</ele><time>2026-04-12T10:13:21.994Z</time></trkpt><trkpt lat="44.579349" lon="7.7669389"><ele>283.0</ele><time>2026-04-12T10:13:24.995Z</time></trkpt><trkpt lat="44.5793149" lon="7.7668191"><ele>283.8</ele><time>2026-04-12T10:13:27.995Z</time></trkpt><trkpt lat="44.5792979" lon="7.7666919"><ele>284.6</ele><time>2026-04-12T10:13:30.995Z</time></trkpt><trkpt lat="44.5792846" lon="7.7665594"><ele>285.4</ele><time>2026-04-12T10:13:33.994Z</time></trkpt><trkpt lat="44.5792827" lon="7.7664295"><ele>286.2</ele><time>2026-04-12T10:13:36.995Z</time></trkpt><trkpt lat="44.5792796" lon="7.7663031"><ele>287.0</ele><time>2026-04-12T10:13:39.995Z</time></trkpt><trkpt lat="44.5792732" lon="7.7661724"><ele>287.0</ele><time>2026-04-12T10:13:42.994Z</time></trkpt><trkpt lat="44.5792714" lon="7.76604"><ele>287.0</ele><time>2026-04-12T10:13:45.994Z</time></trkpt><trkpt lat="44.579263" lon="7.7659502"><ele>287.0</ele><time>2026-04-12T10:13:47.994Z</time></trkpt><trkpt lat="44.5792584" lon="7.7658228"><ele>287.0</ele><time>2026-04-12T10:13:50.994Z</time></trkpt><trkpt lat="44.5792529" lon="7.7656909"><ele>287.0</ele><time>2026-04-12T10:13:53.994Z</time></trkpt><trkpt lat="44.5792464" lon="7.7656029"><ele>287.0</ele><time>2026-04-12T10:13:55.995Z</time></trkpt><trkpt lat="44.5792322" lon="7.7655096"><ele>287.33333333333337</ele><time>2026-04-12T10:13:57.994Z</time></trkpt><trkpt lat="44.5792303" lon="7.7654211"><ele>287.6666666666667</ele><time>2026-04-12T10:13:59.995Z</time></trkpt><trkpt lat="44.5792228" lon="7.7652919"><ele>288.0</ele><time>2026-04-12T10:14:02.994Z</time></trkpt><trkpt lat="44.5792178" lon="7.7651606"><ele>288.3333333333333</ele><time>2026-04-12T10:14:05.995Z</time></trkpt><trkpt lat="44.5792096" lon="7.7650355"><ele>288.66666666666663</ele><time>2026-04-12T10:14:08.994Z</time></trkpt><trkpt lat="44.579207" lon="7.7649115"><ele>289.0</ele><time>2026-04-12T10:14:11.995Z</time></trkpt><trkpt lat="44.5792085" lon="7.7647943"><ele>289.3333333333333</ele><time>2026-04-12T10:14:14.995Z</time></trkpt><trkpt lat="44.5792143" lon="7.7646698"><ele>289.66666666666663</ele><time>2026-04-12T10:14:17.994Z</time></trkpt><trkpt lat="44.5792178" lon="7.7645477"><ele>290.0</ele><time>2026-04-12T10:14:20.994Z</time></trkpt><trkpt lat="44.5792214" lon="7.7644247"><ele>290.3333333333333</ele><time>2026-04-12T10:14:23.995Z</time></trkpt><trkpt lat="44.5792158" lon="7.7643061"><ele>290.6666666666667</ele><time>2026-04-12T10:14:26.995Z</time></trkpt><trkpt lat="44.5792098" lon="7.7641977"><ele>291.0</ele><time>2026-04-12T10:14:29.994Z</time></trkpt><trkpt lat="44.5792162" lon="7.7641074"><ele>291.2857142857143</ele><time>2026-04-12T10:14:32.994Z</time></trkpt><trkpt lat="44.5792448" lon="7.7640226"><ele>291.57142857142856</ele><time>2026-04-12T10:14:35.994Z</time></trkpt><trkpt lat="44.5792844" lon="7.763918"><ele>291.85714285714283</ele><time>2026-04-12T10:14:39.994Z</time></trkpt><trkpt lat="44.57932" lon="7.7638415"><ele>292.1428571428571</ele><time>2026-04-12T10:14:42.994Z</time></trkpt><trkpt lat="44.5793789" lon="7.7637909"><ele>292.42857142857144</ele><time>2026-04-12T10:14:46.994Z</time></trkpt><trkpt lat="44.579442" lon="7.7637117"><ele>292.71428571428567</ele><time>2026-04-12T10:14:50.994Z</time></trkpt><trkpt lat="44.5794918" lon="7.7636435"><ele>293.0</ele><time>2026-04-12T10:14:53.995Z</time></trkpt><trkpt lat="44.5795401" lon="7.763568"><ele>293.0</ele><time>2026-04-12T10:14:56.994Z</time></trkpt><trkpt lat="44.5795651" lon="7.7634693"><ele>293.0</ele><time>2026-04-12T10:14:59.994Z</time></trkpt><trkpt lat="44.5795784" lon="7.7633646"><ele>293.0</ele><time>2026-04-12T10:15:02.994Z</time></trkpt><trkpt lat="44.5795825" lon="7.7632506"><ele>293.0</ele><time>2026-04-12T10:15:05.994Z</time></trkpt><trkpt lat="44.5795704" lon="7.7631317"><ele>293.0</ele><time>2026-04-12T10:15:08.995Z</time></trkpt><trkpt lat="44.5795611" lon="7.7630122"><ele>293.0</ele><time>2026-04-12T10:15:11.994Z</time></trkpt><trkpt lat="44.5795503" lon="7.7628966"><ele>293.0</ele><time>2026-04-12T10:15:14.994Z</time></trkpt><trkpt lat="44.5795382" lon="7.7627794"><ele>293.0</ele><time>2026-04-12T10:15:17.994Z</time></trkpt><trkpt lat="44.5795346" lon="7.762666"><ele>293.0</ele><time>2026-04-12T10:15:20.994Z</time></trkpt><trkpt lat="44.5795238" lon="7.7625542"><ele>293.0</ele><time>2026-04-12T10:15:23.994Z</time></trkpt><trkpt lat="44.5795068" lon="7.7624378"><ele>293.0</ele><time>2026-04-12T10:15:26.995Z</time></trkpt><trkpt lat="44.5794911" lon="7.762323"><ele>293.0</ele><time>2026-04-12T10:15:29.994Z</time></trkpt><trkpt lat="44.5794763" lon="7.7622068"><ele>293.5</ele><time>2026-04-12T10:15:32.994Z</time></trkpt><trkpt lat="44.5794511" lon="7.7620922"><ele>294.0</ele><time>2026-04-12T10:15:35.994Z</time></trkpt><trkpt lat="44.5794213" lon="7.7619771"><ele>294.5</ele><time>2026-04-12T10:15:38.994Z</time></trkpt><trkpt lat="44.5793726" lon="7.7618746"><ele>295.0</ele><time>2026-04-12T10:15:41.994Z</time></trkpt><trkpt lat="44.5793078" lon="7.7617867"><ele>295.5</ele><time>2026-04-12T10:15:44.995Z</time></trkpt><trkpt lat="44.5792372" lon="7.7617064"><ele>296.0</ele><time>2026-04-12T10:15:47.995Z</time></trkpt><trkpt lat="44.5791528" lon="7.7616497"><ele>296.5</ele><time>2026-04-12T10:15:50.994Z</time></trkpt><trkpt lat="44.5790825" lon="7.7616259"><ele>297.0</ele><time>2026-04-12T10:15:52.995Z</time></trkpt><trkpt lat="44.5790076" lon="7.7616056"><ele>297.5</ele><time>2026-04-12T10:15:54.995Z</time></trkpt><trkpt lat="44.5789361" lon="7.7615807"><ele>298.0</ele><time>2026-04-12T10:15:56.994Z</time></trkpt><trkpt lat="44.5788675" lon="7.7615508"><ele>298.5</ele><time>2026-04-12T10:15:58.994Z</time></trkpt><trkpt lat="44.578781" lon="7.7615303"><ele>299.0</ele><time>2026-04-12T10:16:00.994Z</time></trkpt><trkpt lat="44.5786905" lon="7.7615075"><ele>299.2</ele><time>2026-04-12T10:16:02.995Z</time></trkpt><trkpt lat="44.5785967" lon="7.7614933"><ele>299.4</ele><time>2026-04-12T10:16:04.994Z</time></trkpt><trkpt lat="44.5785011" lon="7.761465"><ele>299.6</ele><time>2026-04-12T10:16:06.994Z</time></trkpt><trkpt lat="44.5784019" lon="7.7614435"><ele>299.8</ele><time>2026-04-12T10:16:08.994Z</time></trkpt><trkpt lat="44.5783016" lon="7.7614173"><ele>300.0</ele><time>2026-04-12T10:16:10.994Z</time></trkpt><trkpt lat="44.578202" lon="7.76139"><ele>300.0</ele><time>2026-04-12T10:16:12.995Z</time></trkpt><trkpt lat="44.5780951" lon="7.7613576"><ele>300.0</ele><time>2026-04-12T10:16:14.994Z</time></trkpt><trkpt lat="44.5779822" lon="7.7613303"><ele>300.0</ele><time>2026-04-12T10:16:16.994Z</time></trkpt><trkpt lat="44.5778648" lon="7.7613012"><ele>300.0</ele><time>2026-04-12T10:16:18.994Z</time></trkpt><trkpt lat="44.5777468" lon="7.7612728"><ele>299.0</ele><time>2026-04-12T10:16:20.994Z</time></trkpt><trkpt lat="44.5776265" lon="7.7612413"><ele>298.0</ele><time>2026-04-12T10:16:22.994Z</time></trkpt><trkpt lat="44.5775093" lon="7.7612134"><ele>297.0</ele><time>2026-04-12T10:16:24.995Z</time></trkpt><trkpt lat="44.5773969" lon="7.7611756"><ele>296.0</ele><time>2026-04-12T10:16:26.995Z</time></trkpt><trkpt lat="44.577285" lon="7.7611384"><ele>296.0</ele><time>2026-04-12T10:16:28.994Z</time></trkpt><trkpt lat="44.5771766" lon="7.7610996"><ele>296.0</ele><time>2026-04-12T10:16:30.994Z</time></trkpt><trkpt lat="44.5770678" lon="7.7610607"><ele>296.0</ele><time>2026-04-12T10:16:32.994Z</time></trkpt><trkpt lat="44.5769612" lon="7.7610189"><ele>296.0</ele><time>2026-04-12T10:16:34.994Z</time></trkpt><trkpt lat="44.5768534" lon="7.7609885"><ele>296.0</ele><time>2026-04-12T10:16:36.994Z</time></trkpt><trkpt lat="44.5767479" lon="7.7609564"><ele>296.8</ele><time>2026-04-12T10:16:38.995Z</time></trkpt><trkpt lat="44.5766453" lon="7.7609263"><ele>297.6</ele><time>2026-04-12T10:16:40.994Z</time></trkpt><trkpt lat="44.5765447" lon="7.7609027"><ele>298.4</ele><time>2026-04-12T10:16:42.994Z</time></trkpt><trkpt lat="44.5764448" lon="7.7608705"><ele>299.2</ele><time>2026-04-12T10:16:44.995Z</time></trkpt><trkpt lat="44.5763453" lon="7.7608414"><ele>300.0</ele><time>2026-04-12T10:16:46.995Z</time></trkpt><trkpt lat="44.5762496" lon="7.7608124"><ele>300.0</ele><time>2026-04-12T10:16:48.995Z</time></trkpt><trkpt lat="44.5761551" lon="7.7607905"><ele>300.0</ele><time>2026-04-12T10:16:50.994Z</time></trkpt><trkpt lat="44.5760686" lon="7.7607658"><ele>300.0</ele><time>2026-04-12T10:16:52.994Z</time></trkpt><trkpt lat="44.5759868" lon="7.7607542"><ele>300.0</ele><time>2026-04-12T10:16:54.994Z</time></trkpt><trkpt lat="44.5759062" lon="7.7607502"><ele>300.0</ele><time>2026-04-12T10:16:56.995Z</time></trkpt><trkpt lat="44.5758236" lon="7.7607376"><ele>300.0</ele><time>2026-04-12T10:16:58.994Z</time></trkpt><trkpt lat="44.5757439" lon="7.7607202"><ele>300.0</ele><time>2026-04-12T10:17:00.994Z</time></trkpt><trkpt lat="44.575658" lon="7.7606987"><ele>300.0</ele><time>2026-04-12T10:17:02.994Z</time></trkpt><trkpt lat="44.5755694" lon="7.7606674"><ele>300.0</ele><time>2026-04-12T10:17:04.995Z</time></trkpt><trkpt lat="44.575477" lon="7.7606344"><ele>300.0</ele><time>2026-04-12T10:17:06.994Z</time></trkpt><trkpt lat="44.5753791" lon="7.7606051"><ele>300.0</ele><time>2026-04-12T10:17:08.995Z</time></trkpt><trkpt lat="44.5752753" lon="7.760566"><ele>299.25</ele><time>2026-04-12T10:17:10.994Z</time></trkpt><trkpt lat="44.5751631" lon="7.7605265"><ele>298.5</ele><time>2026-04-12T10:17:12.995Z</time></trkpt><trkpt lat="44.5750466" lon="7.7604903"><ele>297.75</ele><time>2026-04-12T10:17:14.994Z</time></trkpt><trkpt lat="44.574926" lon="7.7604569"><ele>297.0</ele><time>2026-04-12T10:17:16.994Z</time></trkpt><trkpt lat="44.5748125" lon="7.7604197"><ele>297.0</ele><time>2026-04-12T10:17:18.995Z</time></trkpt><trkpt lat="44.5747039" lon="7.7603821"><ele>297.0</ele><time>2026-04-12T10:17:20.994Z</time></trkpt><trkpt lat="44.5745976" lon="7.7603478"><ele>297.0</ele><time>2026-04-12T10:17:22.995Z</time></trkpt><trkpt lat="44.5744944" lon="7.7603169"><ele>297.0</ele><time>2026-04-12T10:17:24.995Z</time></trkpt><trkpt lat="44.5743967" lon="7.7602784"><ele>297.0</ele><time>2026-04-12T10:17:26.995Z</time></trkpt><trkpt lat="44.5743005" lon="7.7602268"><ele>298.0</ele><time>2026-04-12T10:17:28.994Z</time></trkpt><trkpt lat="44.5742037" lon="7.7601669"><ele>299.0</ele><time>2026-04-12T10:17:30.994Z</time></trkpt><trkpt lat="44.5741032" lon="7.7601052"><ele>300.0</ele><time>2026-04-12T10:17:32.995Z</time></trkpt><trkpt lat="44.5740041" lon="7.7600346"><ele>301.0</ele><time>2026-04-12T10:17:34.994Z</time></trkpt><trkpt lat="44.5739036" lon="7.7599657"><ele>302.0</ele><time>2026-04-12T10:17:36.994Z</time></trkpt><trkpt lat="44.5738023" lon="7.759899"><ele>302.0</ele><time>2026-04-12T10:17:38.994Z</time></trkpt><trkpt lat="44.5737037" lon="7.7598277"><ele>302.0</ele><time>2026-04-12T10:17:40.994Z</time></trkpt><trkpt lat="44.5736031" lon="7.7597723"><ele>302.0</ele><time>2026-04-12T10:17:42.995Z</time></trkpt><trkpt lat="44.5735007" lon="7.7597198"><ele>302.0</ele><time>2026-04-12T10:17:44.994Z</time></trkpt><trkpt lat="44.573399" lon="7.7596644"><ele>302.0</ele><time>2026-04-12T10:17:46.994Z</time></trkpt><trkpt lat="44.5732989" lon="7.7596119"><ele>301.4</ele><time>2026-04-12T10:17:48.995Z</time></trkpt><trkpt lat="44.5731999" lon="7.7595514"><ele>300.79999999999995</ele><time>2026-04-12T10:17:50.994Z</time></trkpt><trkpt lat="44.573096" lon="7.7595062"><ele>300.2</ele><time>2026-04-12T10:17:52.994Z</time></trkpt><trkpt lat="44.5729914" lon="7.759461"><ele>299.59999999999997</ele><time>2026-04-12T10:17:54.994Z</time></trkpt><trkpt lat="44.5728884" lon="7.7594146"><ele>299.0</ele><time>2026-04-12T10:17:56.995Z</time></trkpt><trkpt lat="44.5727832" lon="7.7593701"><ele>299.59999999999997</ele><time>2026-04-12T10:17:58.994Z</time></trkpt><trkpt lat="44.5726787" lon="7.7593241"><ele>300.2</ele><time>2026-04-12T10:18:00.996Z</time></trkpt><trkpt lat="44.5725787" lon="7.7592813"><ele>300.79999999999995</ele><time>2026-04-12T10:18:02.994Z</time></trkpt><trkpt lat="44.572477" lon="7.7592369"><ele>301.4</ele><time>2026-04-12T10:18:04.995Z</time></trkpt><trkpt lat="44.5723772" lon="7.7591879"><ele>302.0</ele><time>2026-04-12T10:18:06.994Z</time></trkpt><trkpt lat="44.5722819" lon="7.7591368"><ele>302.0</ele><time>2026-04-12T10:18:08.995Z</time></trkpt><trkpt lat="44.5721891" lon="7.7590893"><ele>302.0</ele><time>2026-04-12T10:18:10.995Z</time></trkpt><trkpt lat="44.5720989" lon="7.7590228"><ele>302.0</ele><time>2026-04-12T10:18:12.996Z</time></trkpt><trkpt lat="44.5720109" lon="7.7589538"><ele>302.0</ele><time>2026-04-12T10:18:14.994Z</time></trkpt><trkpt lat="44.5719263" lon="7.7588831"><ele>302.0</ele><time>2026-04-12T10:18:16.995Z</time></trkpt><trkpt lat="44.5718366" lon="7.7588068"><ele>302.0</ele><time>2026-04-12T10:18:18.994Z</time></trkpt><trkpt lat="44.5717531" lon="7.7587278"><ele>302.0</ele><time>2026-04-12T10:18:20.996Z</time></trkpt><trkpt lat="44.5716733" lon="7.7586437"><ele>302.0</ele><time>2026-04-12T10:18:22.996Z</time></trkpt><trkpt lat="44.5715936" lon="7.7585551"><ele>302.0</ele><time>2026-04-12T10:18:24.995Z</time></trkpt><trkpt lat="44.5715242" lon="7.7584595"><ele>302.0</ele><time>2026-04-12T10:18:26.995Z</time></trkpt><trkpt lat="44.571451" lon="7.7583592"><ele>302.2</ele><time>2026-04-12T10:18:28.994Z</time></trkpt><trkpt lat="44.5713793" lon="7.7582636"><ele>302.4</ele><time>2026-04-12T10:18:30.994Z</time></trkpt><trkpt lat="44.5713118" lon="7.7581717"><ele>302.6</ele><time>2026-04-12T10:18:32.996Z</time></trkpt><trkpt lat="44.5712406" lon="7.7580792"><ele>302.8</ele><time>2026-04-12T10:18:34.995Z</time></trkpt><trkpt lat="44.5711749" lon="7.7579897"><ele>303.0</ele><time>2026-04-12T10:18:36.995Z</time></trkpt><trkpt lat="44.5711078" lon="7.7579005"><ele>303.0</ele><time>2026-04-12T10:18:38.996Z</time></trkpt><trkpt lat="44.5710442" lon="7.7578155"><ele>303.0</ele><time>2026-04-12T10:18:40.996Z</time></trkpt><trkpt lat="44.5709841" lon="7.7577372"><ele>303.0</ele><time>2026-04-12T10:18:42.994Z</time></trkpt><trkpt lat="44.57093" lon="7.7576584"><ele>303.0</ele><time>2026-04-12T10:18:44.994Z</time></trkpt><trkpt lat="44.5708795" lon="7.7575868"><ele>303.0</ele><time>2026-04-12T10:18:46.994Z</time></trkpt><trkpt lat="44.5708274" lon="7.757522"><ele>303.0</ele><time>2026-04-12T10:18:48.996Z</time></trkpt><trkpt lat="44.570778" lon="7.7574566"><ele>303.7142857142857</ele><time>2026-04-12T10:18:50.994Z</time></trkpt><trkpt lat="44.5707358" lon="7.7573878"><ele>304.42857142857144</ele><time>2026-04-12T10:18:52.995Z</time></trkpt><trkpt lat="44.5706876" lon="7.7573308"><ele>305.1428571428571</ele><time>2026-04-12T10:18:54.995Z</time></trkpt><trkpt lat="44.5706314" lon="7.7572798"><ele>305.8571428571429</ele><time>2026-04-12T10:18:56.995Z</time></trkpt><trkpt lat="44.5705786" lon="7.7572145"><ele>306.57142857142856</ele><time>2026-04-12T10:18:58.995Z</time></trkpt><trkpt lat="44.5705279" lon="7.7571475"><ele>307.2857142857143</ele><time>2026-04-12T10:19:00.994Z</time></trkpt><trkpt lat="44.5704738" lon="7.7570854"><ele>308.0</ele><time>2026-04-12T10:19:02.947Z</time></trkpt><trkpt lat="44.570417" lon="7.7570397"><ele>308.2</ele><time>2026-04-12T10:19:04.994Z</time></trkpt><trkpt lat="44.5703392" lon="7.7569741"><ele>308.4</ele><time>2026-04-12T10:19:07.994Z</time></trkpt><trkpt lat="44.5702667" lon="7.7569015"><ele>308.59999999999997</ele><time>2026-04-12T10:19:10.994Z</time></trkpt><trkpt lat="44.5701842" lon="7.7568553"><ele>308.8</ele><time>2026-04-12T10:19:13.994Z</time></trkpt><trkpt lat="44.570088" lon="7.7568241"><ele>309.0</ele><time>2026-04-12T10:19:15.994Z</time></trkpt><trkpt lat="44.5699757" lon="7.7567926"><ele>309.00000000000006</ele><time>2026-04-12T10:19:17.994Z</time></trkpt><trkpt lat="44.569913" lon="7.7567814"><ele>309.0</ele><time>2026-04-12T10:19:18.994Z</time></trkpt><trkpt lat="44.5698434" lon="7.7567826"><ele>309.0</ele><time>2026-04-12T10:19:19.994Z</time></trkpt><trkpt lat="44.5697748" lon="7.7567879"><ele>309.0</ele><time>2026-04-12T10:19:20.994Z</time></trkpt><trkpt lat="44.5697079" lon="7.7567977"><ele>309.0</ele><time>2026-04-12T10:19:21.994Z</time></trkpt><trkpt lat="44.5696418" lon="7.7568054"><ele>309.00000000000006</ele><time>2026-04-12T10:19:22.994Z</time></trkpt><trkpt lat="44.5695742" lon="7.7568134"><ele>309.0</ele><time>2026-04-12T10:19:23.994Z</time></trkpt><trkpt lat="44.5695087" lon="7.7568165"><ele>308.0</ele><time>2026-04-12T10:19:24.994Z</time></trkpt><trkpt lat="44.5694433" lon="7.7568154"><ele>307.0</ele><time>2026-04-12T10:19:25.994Z</time></trkpt><trkpt lat="44.5693793" lon="7.7568196"><ele>306.0</ele><time>2026-04-12T10:19:26.994Z</time></trkpt><trkpt lat="44.5692572" lon="7.7568197"><ele>305.0</ele><time>2026-04-12T10:19:28.994Z</time></trkpt><trkpt lat="44.5691399" lon="7.7568195"><ele>304.0</ele><time>2026-04-12T10:19:30.994Z</time></trkpt><trkpt lat="44.5690279" lon="7.7567901"><ele>304.0</ele><time>2026-04-12T10:19:32.995Z</time></trkpt><trkpt lat="44.5689145" lon="7.7567465"><ele>304.0</ele><time>2026-04-12T10:19:34.994Z</time></trkpt><trkpt lat="44.5688017" lon="7.7566897"><ele>304.0</ele><time>2026-04-12T10:19:36.995Z</time></trkpt><trkpt lat="44.5686884" lon="7.7566226"><ele>304.0</ele><time>2026-04-12T10:19:38.994Z</time></trkpt><trkpt lat="44.5685789" lon="7.7565489"><ele>304.0</ele><time>2026-04-12T10:19:40.994Z</time></trkpt><trkpt lat="44.5684703" lon="7.7564742"><ele>304.0</ele><time>2026-04-12T10:19:42.994Z</time></trkpt><trkpt lat="44.5683641" lon="7.7563989"><ele>304.0</ele><time>2026-04-12T10:19:44.994Z</time></trkpt><trkpt lat="44.5682588" lon="7.7563248"><ele>304.0</ele><time>2026-04-12T10:19:46.994Z</time></trkpt><trkpt lat="44.5681541" lon="7.7562562"><ele>304.0</ele><time>2026-04-12T10:19:48.994Z</time></trkpt><trkpt lat="44.5680555" lon="7.756184"><ele>304.0</ele><time>2026-04-12T10:19:50.994Z</time></trkpt><trkpt lat="44.5679612" lon="7.7561104"><ele>304.0</ele><time>2026-04-12T10:19:52.994Z</time></trkpt><trkpt lat="44.5678731" lon="7.7560354"><ele>304.0</ele><time>2026-04-12T10:19:54.994Z</time></trkpt><trkpt lat="44.5677908" lon="7.7559617"><ele>304.0</ele><time>2026-04-12T10:19:56.995Z</time></trkpt><trkpt lat="44.5677102" lon="7.7558932"><ele>304.2</ele><time>2026-04-12T10:19:58.994Z</time></trkpt><trkpt lat="44.5676251" lon="7.7558507"><ele>304.4</ele><time>2026-04-12T10:20:00.994Z</time></trkpt><trkpt lat="44.5675336" lon="7.7558103"><ele>304.6</ele><time>2026-04-12T10:20:02.994Z</time></trkpt><trkpt lat="44.5674444" lon="7.7557707"><ele>304.8</ele><time>2026-04-12T10:20:04.996Z</time></trkpt><trkpt lat="44.5673564" lon="7.7557249"><ele>305.0</ele><time>2026-04-12T10:20:06.995Z</time></trkpt><trkpt lat="44.567269" lon="7.7556715"><ele>305.0</ele><time>2026-04-12T10:20:08.995Z</time></trkpt><trkpt lat="44.5671796" lon="7.7556203"><ele>305.0</ele><time>2026-04-12T10:20:10.995Z</time></trkpt><trkpt lat="44.5670943" lon="7.7555559"><ele>305.0</ele><time>2026-04-12T10:20:12.994Z</time></trkpt><trkpt lat="44.5670045" lon="7.7554846"><ele>305.0</ele><time>2026-04-12T10:20:14.995Z</time></trkpt><trkpt lat="44.5669143" lon="7.7554176"><ele>305.0</ele><time>2026-04-12T10:20:16.994Z</time></trkpt><trkpt lat="44.56682" lon="7.7553443"><ele>305.0</ele><time>2026-04-12T10:20:18.995Z</time></trkpt><trkpt lat="44.5667419" lon="7.7552625"><ele>305.0</ele><time>2026-04-12T10:20:20.995Z</time></trkpt><trkpt lat="44.5666547" lon="7.7551848"><ele>305.0</ele><time>2026-04-12T10:20:22.994Z</time></trkpt><trkpt lat="44.5665676" lon="7.7551065"><ele>305.0</ele><time>2026-04-12T10:20:24.995Z</time></trkpt><trkpt lat="44.5664835" lon="7.7550259"><ele>305.0</ele><time>2026-04-12T10:20:26.995Z</time></trkpt><trkpt lat="44.5664007" lon="7.7549506"><ele>305.0</ele><time>2026-04-12T10:20:28.994Z</time></trkpt><trkpt lat="44.5663162" lon="7.7548834"><ele>305.0</ele><time>2026-04-12T10:20:30.995Z</time></trkpt><trkpt lat="44.5662356" lon="7.7548058"><ele>305.0</ele><time>2026-04-12T10:20:32.995Z</time></trkpt><trkpt lat="44.5661493" lon="7.7547399"><ele>305.0</ele><time>2026-04-12T10:20:34.995Z</time></trkpt><trkpt lat="44.5660629" lon="7.7546651"><ele>305.0</ele><time>2026-04-12T10:20:36.994Z</time></trkpt><trkpt lat="44.5659834" lon="7.7545798"><ele>305.2</ele><time>2026-04-12T10:20:38.995Z</time></trkpt><trkpt lat="44.5659136" lon="7.7544874"><ele>305.4</ele><time>2026-04-12T10:20:40.995Z</time></trkpt><trkpt lat="44.5658395" lon="7.7544043"><ele>305.6</ele><time>2026-04-12T10:20:42.995Z</time></trkpt><trkpt lat="44.5657605" lon="7.7543213"><ele>305.8</ele><time>2026-04-12T10:20:44.996Z</time></trkpt><trkpt lat="44.5656882" lon="7.7542418"><ele>306.0</ele><time>2026-04-12T10:20:46.995Z</time></trkpt><trkpt lat="44.5656154" lon="7.7541661"><ele>306.0</ele><time>2026-04-12T10:20:48.994Z</time></trkpt><trkpt lat="44.5655494" lon="7.7540898"><ele>306.0</ele><time>2026-04-12T10:20:50.994Z</time></trkpt><trkpt lat="44.5654857" lon="7.7540143"><ele>306.0</ele><time>2026-04-12T10:20:52.994Z</time></trkpt><trkpt lat="44.5654193" lon="7.7539312"><ele>306.0</ele><time>2026-04-12T10:20:54.996Z</time></trkpt><trkpt lat="44.5653485" lon="7.7538515"><ele>306.0</ele><time>2026-04-12T10:20:56.995Z</time></trkpt><trkpt lat="44.5652826" lon="7.7537616"><ele>306.0</ele><time>2026-04-12T10:20:58.996Z</time></trkpt><trkpt lat="44.5652112" lon="7.753671"><ele>306.2</ele><time>2026-04-12T10:21:00.995Z</time></trkpt><trkpt lat="44.5651374" lon="7.7535877"><ele>306.40000000000003</ele><time>2026-04-12T10:21:02.996Z</time></trkpt><trkpt lat="44.5650646" lon="7.7535016"><ele>306.6</ele><time>2026-04-12T10:21:04.995Z</time></trkpt><trkpt lat="44.5649902" lon="7.7534161"><ele>306.8</ele><time>2026-04-12T10:21:06.994Z</time></trkpt><trkpt lat="44.5649192" lon="7.7533245"><ele>307.0</ele><time>2026-04-12T10:21:08.995Z</time></trkpt><trkpt lat="44.564849" lon="7.7532356"><ele>307.0</ele><time>2026-04-12T10:21:10.994Z</time></trkpt><trkpt lat="44.5647791" lon="7.7531485"><ele>307.0</ele><time>2026-04-12T10:21:12.995Z</time></trkpt><trkpt lat="44.5647172" lon="7.7530455"><ele>307.0</ele><time>2026-04-12T10:21:14.995Z</time></trkpt><trkpt lat="44.5646672" lon="7.7529305"><ele>307.0</ele><time>2026-04-12T10:21:16.996Z</time></trkpt><trkpt lat="44.5646358" lon="7.7528081"><ele>307.0</ele><time>2026-04-12T10:21:18.994Z</time></trkpt><trkpt lat="44.5646101" lon="7.7526778"><ele>307.2</ele><time>2026-04-12T10:21:20.996Z</time></trkpt><trkpt lat="44.564583" lon="7.7525485"><ele>307.4</ele><time>2026-04-12T10:21:22.995Z</time></trkpt><trkpt lat="44.5645533" lon="7.7524297"><ele>307.6</ele><time>2026-04-12T10:21:24.994Z</time></trkpt><trkpt lat="44.5645246" lon="7.7523036"><ele>307.8</ele><time>2026-04-12T10:21:26.994Z</time></trkpt><trkpt lat="44.5644906" lon="7.7521809"><ele>308.0</ele><time>2026-04-12T10:21:28.994Z</time></trkpt><trkpt lat="44.5644481" lon="7.7520671"><ele>308.0</ele><time>2026-04-12T10:21:30.995Z</time></trkpt><trkpt lat="44.5644018" lon="7.7519547"><ele>308.0</ele><time>2026-04-12T10:21:32.995Z</time></trkpt><trkpt lat="44.5643394" lon="7.75186"><ele>308.0</ele><time>2026-04-12T10:21:34.994Z</time></trkpt><trkpt lat="44.5642759" lon="7.751778"><ele>308.0</ele><time>2026-04-12T10:21:36.995Z</time></trkpt><trkpt lat="44.5642058" lon="7.7517013"><ele>308.0</ele><time>2026-04-12T10:21:38.994Z</time></trkpt><trkpt lat="44.5641484" lon="7.7516244"><ele>308.0</ele><time>2026-04-12T10:21:40.995Z</time></trkpt><trkpt lat="44.5640992" lon="7.7515601"><ele>308.83333333333337</ele><time>2026-04-12T10:21:42.994Z</time></trkpt><trkpt lat="44.5640472" lon="7.7514794"><ele>309.6666666666667</ele><time>2026-04-12T10:21:45.995Z</time></trkpt><trkpt lat="44.5639805" lon="7.751397"><ele>310.5</ele><time>2026-04-12T10:21:48.994Z</time></trkpt><trkpt lat="44.5639339" lon="7.7513278"><ele>311.3333333333333</ele><time>2026-04-12T10:21:50.994Z</time></trkpt><trkpt lat="44.5638923" lon="7.7512572"><ele>312.16666666666663</ele><time>2026-04-12T10:21:52.994Z</time></trkpt><trkpt lat="44.5638456" lon="7.7511956"><ele>313.0</ele><time>2026-04-12T10:21:54.996Z</time></trkpt><trkpt lat="44.5637803" lon="7.7511045"><ele>313.16666666666663</ele><time>2026-04-12T10:21:57.995Z</time></trkpt><trkpt lat="44.5637268" lon="7.7510082"><ele>313.3333333333333</ele><time>2026-04-12T10:22:00.994Z</time></trkpt><trkpt lat="44.5636773" lon="7.7509086"><ele>313.5</ele><time>2026-04-12T10:22:03.996Z</time></trkpt><trkpt lat="44.5636294" lon="7.750811"><ele>313.6666666666667</ele><time>2026-04-12T10:22:06.994Z</time></trkpt><trkpt lat="44.5635769" lon="7.7507492"><ele>313.83333333333337</ele><time>2026-04-12T10:22:09.994Z</time></trkpt><trkpt lat="44.5635087" lon="7.7507718"><ele>314.0</ele><time>2026-04-12T10:22:13.994Z</time></trkpt><trkpt lat="44.5634705" lon="7.7508642"><ele>314.0</ele><time>2026-04-12T10:22:16.994Z</time></trkpt><trkpt lat="44.5634525" lon="7.7509617"><ele>314.0</ele><time>2026-04-12T10:22:18.995Z</time></trkpt><trkpt lat="44.5634252" lon="7.7510569"><ele>314.0</ele><time>2026-04-12T10:22:20.994Z</time></trkpt><trkpt lat="44.5633993" lon="7.7511661"><ele>314.0</ele><time>2026-04-12T10:22:22.994Z</time></trkpt><trkpt lat="44.5633815" lon="7.7513051"><ele>314.0</ele><time>2026-04-12T10:22:24.994Z</time></trkpt><trkpt lat="44.5633649" lon="7.7514594"><ele>314.0</ele><time>2026-04-12T10:22:26.995Z</time></trkpt><trkpt lat="44.5633377" lon="7.7516239"><ele>313.33333333333337</ele><time>2026-04-12T10:22:28.995Z</time></trkpt><trkpt lat="44.563289" lon="7.7517728"><ele>312.6666666666667</ele><time>2026-04-12T10:22:30.994Z</time></trkpt><trkpt lat="44.5632018" lon="7.7518892"><ele>312.0</ele><time>2026-04-12T10:22:32.994Z</time></trkpt><trkpt lat="44.5631472" lon="7.7519334"><ele>311.3333333333333</ele><time>2026-04-12T10:22:33.995Z</time></trkpt><trkpt lat="44.5630823" lon="7.7519666"><ele>310.66666666666663</ele><time>2026-04-12T10:22:34.995Z</time></trkpt><trkpt lat="44.563016" lon="7.7519937"><ele>310.0</ele><time>2026-04-12T10:22:35.995Z</time></trkpt><trkpt lat="44.5629548" lon="7.7520181"><ele>308.8333333333333</ele><time>2026-04-12T10:22:36.994Z</time></trkpt><trkpt lat="44.5628372" lon="7.7520641"><ele>307.66666666666663</ele><time>2026-04-12T10:22:38.996Z</time></trkpt><trkpt lat="44.5627367" lon="7.7521088"><ele>306.5</ele><time>2026-04-12T10:22:40.995Z</time></trkpt><trkpt lat="44.5626816" lon="7.7521687"><ele>305.3333333333333</ele><time>2026-04-12T10:22:42.996Z</time></trkpt><trkpt lat="44.5626441" lon="7.7522529"><ele>304.1666666666667</ele><time>2026-04-12T10:22:44.995Z</time></trkpt><trkpt lat="44.5626152" lon="7.7523369"><ele>303.0</ele><time>2026-04-12T10:22:46.995Z</time></trkpt><trkpt lat="44.5625802" lon="7.752452"><ele>303.0</ele><time>2026-04-12T10:22:49.995Z</time></trkpt><trkpt lat="44.5625604" lon="7.7525568"><ele>303.0</ele><time>2026-04-12T10:22:51.995Z</time></trkpt><trkpt lat="44.5625495" lon="7.7526865"><ele>303.0</ele><time>2026-04-12T10:22:53.995Z</time></trkpt><trkpt lat="44.5625427" lon="7.7528246"><ele>303.0</ele><time>2026-04-12T10:22:55.995Z</time></trkpt><trkpt lat="44.5625363" lon="7.7529738"><ele>303.0</ele><time>2026-04-12T10:22:57.994Z</time></trkpt><trkpt lat="44.5625322" lon="7.753123"><ele>302.0</ele><time>2026-04-12T10:22:59.995Z</time></trkpt><trkpt lat="44.5625251" lon="7.7532826"><ele>301.0</ele><time>2026-04-12T10:23:01.994Z</time></trkpt><trkpt lat="44.5625193" lon="7.7534495"><ele>300.0</ele><time>2026-04-12T10:23:03.994Z</time></trkpt><trkpt lat="44.562535" lon="7.7536147"><ele>299.0</ele><time>2026-04-12T10:23:05.994Z</time></trkpt><trkpt lat="44.5625708" lon="7.7537636"><ele>297.8</ele><time>2026-04-12T10:23:07.995Z</time></trkpt><trkpt lat="44.5626111" lon="7.7539162"><ele>296.59999999999997</ele><time>2026-04-12T10:23:09.994Z</time></trkpt><trkpt lat="44.5626411" lon="7.7540793"><ele>295.4</ele><time>2026-04-12T10:23:11.994Z</time></trkpt><trkpt lat="44.5626618" lon="7.7542507"><ele>294.2</ele><time>2026-04-12T10:23:13.994Z</time></trkpt><trkpt lat="44.5626627" lon="7.7543398"><ele>293.0</ele><time>2026-04-12T10:23:14.994Z</time></trkpt><trkpt lat="44.5626428" lon="7.7545126"><ele>292.6666666666667</ele><time>2026-04-12T10:23:16.994Z</time></trkpt><trkpt lat="44.5626277" lon="7.7546016"><ele>292.33333333333337</ele><time>2026-04-12T10:23:17.995Z</time></trkpt><trkpt lat="44.5626092" lon="7.754692"><ele>292.0</ele><time>2026-04-12T10:23:18.995Z</time></trkpt><trkpt lat="44.5625908" lon="7.7547793"><ele>291.6666666666667</ele><time>2026-04-12T10:23:19.994Z</time></trkpt><trkpt lat="44.562568" lon="7.7548642"><ele>291.3333333333333</ele><time>2026-04-12T10:23:20.994Z</time></trkpt><trkpt lat="44.5625265" lon="7.7550185"><ele>291.0</ele><time>2026-04-12T10:23:22.995Z</time></trkpt><trkpt lat="44.5624901" lon="7.7551622"><ele>290.1666666666667</ele><time>2026-04-12T10:23:24.996Z</time></trkpt><trkpt lat="44.5624565" lon="7.7553054"><ele>289.3333333333333</ele><time>2026-04-12T10:23:26.995Z</time></trkpt><trkpt lat="44.5624227" lon="7.7554343"><ele>288.5</ele><time>2026-04-12T10:23:28.994Z</time></trkpt><trkpt lat="44.5623749" lon="7.7555389"><ele>287.66666666666663</ele><time>2026-04-12T10:23:30.994Z</time></trkpt><trkpt lat="44.5623465" lon="7.7556387"><ele>286.8333333333333</ele><time>2026-04-12T10:23:32.994Z</time></trkpt><trkpt lat="44.5623415" lon="7.755731"><ele>286.0</ele><time>2026-04-12T10:23:34.995Z</time></trkpt><trkpt lat="44.5623734" lon="7.7558075"><ele>286.0</ele><time>2026-04-12T10:23:36.994Z</time></trkpt><trkpt lat="44.5624493" lon="7.7558761"><ele>286.0</ele><time>2026-04-12T10:23:39.995Z</time></trkpt><trkpt lat="44.5624789" lon="7.7559623"><ele>286.0</ele><time>2026-04-12T10:23:42.994Z</time></trkpt><trkpt lat="44.5624189" lon="7.7560111"><ele>286.0</ele><time>2026-04-12T10:23:45.995Z</time></trkpt><trkpt lat="44.5623397" lon="7.7559582"><ele>286.0</ele><time>2026-04-12T10:23:48.996Z</time></trkpt><trkpt lat="44.5622676" lon="7.7558794"><ele>286.0</ele><time>2026-04-12T10:23:51.995Z</time></trkpt><trkpt lat="44.5621909" lon="7.7558217"><ele>286.0</ele><time>2026-04-12T10:23:54.994Z</time></trkpt><trkpt lat="44.5621039" lon="7.7557815"><ele>286.0</ele><time>2026-04-12T10:23:57.995Z</time></trkpt><trkpt lat="44.5620283" lon="7.7557164"><ele>286.0</ele><time>2026-04-12T10:24:00.995Z</time></trkpt><trkpt lat="44.5619625" lon="7.7556536"><ele>286.0</ele><time>2026-04-12T10:24:02.995Z</time></trkpt><trkpt lat="44.5619014" lon="7.7555976"><ele>286.0</ele><time>2026-04-12T10:24:04.994Z</time></trkpt><trkpt lat="44.5618636" lon="7.7554991"><ele>286.0</ele><time>2026-04-12T10:24:07.994Z</time></trkpt><trkpt lat="44.5618009" lon="7.7554605"><ele>286.0</ele><time>2026-04-12T10:24:10.994Z</time></trkpt><trkpt lat="44.5617441" lon="7.7553839"><ele>286.0</ele><time>2026-04-12T10:24:13.995Z</time></trkpt><trkpt lat="44.5616888" lon="7.7553108"><ele>286.0</ele><time>2026-04-12T10:24:16.995Z</time></trkpt><trkpt lat="44.5616185" lon="7.7552464"><ele>286.0</ele><time>2026-04-12T10:24:18.995Z</time></trkpt><trkpt lat="44.5615801" lon="7.7551657"><ele>286.0</ele><time>2026-04-12T10:24:20.994Z</time></trkpt><trkpt lat="44.5615664" lon="7.7550593"><ele>286.0</ele><time>2026-04-12T10:24:24.994Z</time></trkpt><trkpt lat="44.5615017" lon="7.7549826"><ele>286.0</ele><time>2026-04-12T10:24:27.996Z</time></trkpt><trkpt lat="44.5614373" lon="7.7549355"><ele>286.0</ele><time>2026-04-12T10:24:30.995Z</time></trkpt><trkpt lat="44.5613781" lon="7.7548746"><ele>286.0</ele><time>2026-04-12T10:24:33.994Z</time></trkpt><trkpt lat="44.5613249" lon="7.7547772"><ele>286.0</ele><time>2026-04-12T10:24:36.995Z</time></trkpt><trkpt lat="44.5612656" lon="7.7546906"><ele>286.0</ele><time>2026-04-12T10:24:39.996Z</time></trkpt><trkpt lat="44.5612078" lon="7.7546014"><ele>286.0</ele><time>2026-04-12T10:24:42.994Z</time></trkpt><trkpt lat="44.5611655" lon="7.7545061"><ele>285.3333333333333</ele><time>2026-04-12T10:24:45.995Z</time></trkpt><trkpt lat="44.5611325" lon="7.7544232"><ele>284.66666666666663</ele><time>2026-04-12T10:24:48.995Z</time></trkpt><trkpt lat="44.5611033" lon="7.7543259"><ele>284.0</ele><time>2026-04-12T10:24:51.995Z</time></trkpt><trkpt lat="44.5610699" lon="7.7542329"><ele>283.3333333333333</ele><time>2026-04-12T10:24:54.996Z</time></trkpt><trkpt lat="44.5610198" lon="7.7541201"><ele>282.6666666666667</ele><time>2026-04-12T10:24:57.995Z</time></trkpt><trkpt lat="44.560983" lon="7.754035"><ele>282.0</ele><time>2026-04-12T10:24:59.995Z</time></trkpt><trkpt lat="44.560945" lon="7.7539544"><ele>282.0</ele><time>2026-04-12T10:25:01.994Z</time></trkpt><trkpt lat="44.5609133" lon="7.7538703"><ele>282.0</ele><time>2026-04-12T10:25:03.995Z</time></trkpt><trkpt lat="44.5608887" lon="7.7537738"><ele>282.0</ele><time>2026-04-12T10:25:05.994Z</time></trkpt><trkpt lat="44.5608599" lon="7.7536843"><ele>282.0</ele><time>2026-04-12T10:25:07.995Z</time></trkpt><trkpt lat="44.5608377" lon="7.7535864"><ele>282.0</ele><time>2026-04-12T10:25:09.995Z</time></trkpt><trkpt lat="44.5608106" lon="7.7534913"><ele>282.0</ele><time>2026-04-12T10:25:11.995Z</time></trkpt><trkpt lat="44.5607822" lon="7.7533971"><ele>282.0</ele><time>2026-04-12T10:25:13.994Z</time></trkpt><trkpt lat="44.5607555" lon="7.7533055"><ele>282.14285714285717</ele><time>2026-04-12T10:25:15.994Z</time></trkpt><trkpt lat="44.5607333" lon="7.7532122"><ele>282.2857142857143</ele><time>2026-04-12T10:25:17.994Z</time></trkpt><trkpt lat="44.5607086" lon="7.7531253"><ele>282.42857142857144</ele><time>2026-04-12T10:25:19.994Z</time></trkpt><trkpt lat="44.5606812" lon="7.7530381"><ele>282.57142857142856</ele><time>2026-04-12T10:25:21.994Z</time></trkpt><trkpt lat="44.5606441" lon="7.7529501"><ele>282.7142857142857</ele><time>2026-04-12T10:25:23.996Z</time></trkpt><trkpt lat="44.5606129" lon="7.7528593"><ele>282.8571428571429</ele><time>2026-04-12T10:25:25.995Z</time></trkpt><trkpt lat="44.5605857" lon="7.7527732"><ele>283.0</ele><time>2026-04-12T10:25:27.994Z</time></trkpt><trkpt lat="44.5605426" lon="7.7526608"><ele>283.0</ele><time>2026-04-12T10:25:30.995Z</time></trkpt><trkpt lat="44.5605136" lon="7.7525786"><ele>283.0</ele><time>2026-04-12T10:25:32.994Z</time></trkpt><trkpt lat="44.5604731" lon="7.7525007"><ele>283.0</ele><time>2026-04-12T10:25:34.995Z</time></trkpt><trkpt lat="44.5604284" lon="7.7524167"><ele>283.0</ele><time>2026-04-12T10:25:36.995Z</time></trkpt><trkpt lat="44.5603893" lon="7.7523263"><ele>283.0</ele><time>2026-04-12T10:25:38.994Z</time></trkpt><trkpt lat="44.5603543" lon="7.7522435"><ele>283.0</ele><time>2026-04-12T10:25:40.994Z</time></trkpt><trkpt lat="44.56032" lon="7.7521572"><ele>283.0</ele><time>2026-04-12T10:25:42.995Z</time></trkpt><trkpt lat="44.560295" lon="7.7520645"><ele>283.0</ele><time>2026-04-12T10:25:44.995Z</time></trkpt><trkpt lat="44.5602507" lon="7.7519411"><ele>283.0</ele><time>2026-04-12T10:25:47.994Z</time></trkpt><trkpt lat="44.5602133" lon="7.7518466"><ele>283.0</ele><time>2026-04-12T10:25:49.996Z</time></trkpt><trkpt lat="44.5601919" lon="7.7517584"><ele>283.0</ele><time>2026-04-12T10:25:51.994Z</time></trkpt><trkpt lat="44.5601692" lon="7.7516607"><ele>283.0</ele><time>2026-04-12T10:25:53.994Z</time></trkpt><trkpt lat="44.5601391" lon="7.7515675"><ele>283.0</ele><time>2026-04-12T10:25:55.995Z</time></trkpt><trkpt lat="44.560113" lon="7.7514716"><ele>282.8571428571429</ele><time>2026-04-12T10:25:57.995Z</time></trkpt><trkpt lat="44.5600999" lon="7.7513738"><ele>282.7142857142857</ele><time>2026-04-12T10:25:59.995Z</time></trkpt><trkpt lat="44.5600798" lon="7.751275"><ele>282.57142857142856</ele><time>2026-04-12T10:26:01.996Z</time></trkpt><trkpt lat="44.5600576" lon="7.7511796"><ele>282.42857142857144</ele><time>2026-04-12T10:26:03.995Z</time></trkpt><trkpt lat="44.5600386" lon="7.7510952"><ele>282.2857142857143</ele><time>2026-04-12T10:26:05.995Z</time></trkpt><trkpt lat="44.5600178" lon="7.7510071"><ele>282.14285714285717</ele><time>2026-04-12T10:26:07.995Z</time></trkpt><trkpt lat="44.5599974" lon="7.7509173"><ele>282.0</ele><time>2026-04-12T10:26:09.994Z</time></trkpt><trkpt lat="44.5599831" lon="7.7508204"><ele>281.8</ele><time>2026-04-12T10:26:11.995Z</time></trkpt><trkpt lat="44.559964" lon="7.7507315"><ele>281.6</ele><time>2026-04-12T10:26:13.994Z</time></trkpt><trkpt lat="44.5599574" lon="7.7506383"><ele>281.40000000000003</ele><time>2026-04-12T10:26:15.994Z</time></trkpt><trkpt lat="44.5599523" lon="7.7505424"><ele>281.2</ele><time>2026-04-12T10:26:17.995Z</time></trkpt><trkpt lat="44.5599369" lon="7.7504103"><ele>281.0</ele><time>2026-04-12T10:26:20.994Z</time></trkpt><trkpt lat="44.5599597" lon="7.749846"><ele>280.83333333333337</ele><time>2026-04-12T10:26:32.994Z</time></trkpt><trkpt lat="44.5599734" lon="7.749734"><ele>280.6666666666667</ele><time>2026-04-12T10:26:35.994Z</time></trkpt><trkpt lat="44.5599712" lon="7.7496103"><ele>280.5</ele><time>2026-04-12T10:26:38.995Z</time></trkpt><trkpt lat="44.559956" lon="7.7494874"><ele>280.3333333333333</ele><time>2026-04-12T10:26:41.995Z</time></trkpt><trkpt lat="44.5599498" lon="7.749369"><ele>280.16666666666663</ele><time>2026-04-12T10:26:44.994Z</time></trkpt><trkpt lat="44.559954" lon="7.7492433"><ele>280.0</ele><time>2026-04-12T10:26:47.994Z</time></trkpt><trkpt lat="44.559958" lon="7.7491514"><ele>280.57142857142856</ele><time>2026-04-12T10:26:49.995Z</time></trkpt><trkpt lat="44.559952" lon="7.7490599"><ele>281.1428571428571</ele><time>2026-04-12T10:26:51.995Z</time></trkpt><trkpt lat="44.5599593" lon="7.7489615"><ele>281.7142857142857</ele><time>2026-04-12T10:26:53.995Z</time></trkpt><trkpt lat="44.5599472" lon="7.7488595"><ele>282.2857142857143</ele><time>2026-04-12T10:26:55.994Z</time></trkpt><trkpt lat="44.5599435" lon="7.7487524"><ele>282.85714285714283</ele><time>2026-04-12T10:26:57.994Z</time></trkpt><trkpt lat="44.5599588" lon="7.7486438"><ele>283.42857142857144</ele><time>2026-04-12T10:26:59.994Z</time></trkpt><trkpt lat="44.5599547" lon="7.7485332"><ele>284.0</ele><time>2026-04-12T10:27:01.994Z</time></trkpt><trkpt lat="44.5599353" lon="7.7484396"><ele>284.33333333333337</ele><time>2026-04-12T10:27:03.994Z</time></trkpt><trkpt lat="44.5599328" lon="7.7483421"><ele>284.6666666666667</ele><time>2026-04-12T10:27:05.994Z</time></trkpt><trkpt lat="44.5599437" lon="7.7482229"><ele>285.0</ele><time>2026-04-12T10:27:07.994Z</time></trkpt><trkpt lat="44.5599212" lon="7.7481233"><ele>285.3333333333333</ele><time>2026-04-12T10:27:09.994Z</time></trkpt><trkpt lat="44.5599123" lon="7.7480294"><ele>285.66666666666663</ele><time>2026-04-12T10:27:11.994Z</time></trkpt><trkpt lat="44.5598985" lon="7.7479368"><ele>286.0</ele><time>2026-04-12T10:27:13.994Z</time></trkpt><trkpt lat="44.5598878" lon="7.7478053"><ele>286.5</ele><time>2026-04-12T10:27:16.994Z</time></trkpt><trkpt lat="44.5598994" lon="7.7476829"><ele>287.0</ele><time>2026-04-12T10:27:19.994Z</time></trkpt><trkpt lat="44.559902" lon="7.7475753"><ele>287.5</ele><time>2026-04-12T10:27:22.994Z</time></trkpt><trkpt lat="44.5599064" lon="7.7474645"><ele>288.0</ele><time>2026-04-12T10:27:25.995Z</time></trkpt><trkpt lat="44.5598879" lon="7.7473554"><ele>288.5</ele><time>2026-04-12T10:27:28.994Z</time></trkpt><trkpt lat="44.5598795" lon="7.7472613"><ele>289.0</ele><time>2026-04-12T10:27:31.996Z</time></trkpt><trkpt lat="44.5598901" lon="7.7471699"><ele>289.0</ele><time>2026-04-12T10:27:35.994Z</time></trkpt><trkpt lat="44.5598735" lon="7.7470642"><ele>289.0</ele><time>2026-04-12T10:27:39.995Z</time></trkpt><trkpt lat="44.5598315" lon="7.7469967"><ele>289.0</ele><time>2026-04-12T10:27:41.995Z</time></trkpt><trkpt lat="44.5597833" lon="7.7469121"><ele>289.0</ele><time>2026-04-12T10:27:43.996Z</time></trkpt><trkpt lat="44.5597669" lon="7.7467837"><ele>289.0</ele><time>2026-04-12T10:27:45.994Z</time></trkpt><trkpt lat="44.5597574" lon="7.746651"><ele>289.0</ele><time>2026-04-12T10:27:47.996Z</time></trkpt><trkpt lat="44.559738" lon="7.7465574"><ele>289.66666666666663</ele><time>2026-04-12T10:27:49.995Z</time></trkpt><trkpt lat="44.5597178" lon="7.7464684"><ele>290.3333333333333</ele><time>2026-04-12T10:27:51.995Z</time></trkpt><trkpt lat="44.5597157" lon="7.7463581"><ele>291.0</ele><time>2026-04-12T10:27:54.994Z</time></trkpt><trkpt lat="44.559678" lon="7.7462492"><ele>291.6666666666667</ele><time>2026-04-12T10:27:57.995Z</time></trkpt><trkpt lat="44.5596505" lon="7.7461364"><ele>292.33333333333337</ele><time>2026-04-12T10:28:00.995Z</time></trkpt><trkpt lat="44.5596135" lon="7.7460223"><ele>293.0</ele><time>2026-04-12T10:28:03.996Z</time></trkpt><trkpt lat="44.5595871" lon="7.7459256"><ele>294.1428571428571</ele><time>2026-04-12T10:28:06.996Z</time></trkpt><trkpt lat="44.5595495" lon="7.7458375"><ele>295.2857142857143</ele><time>2026-04-12T10:28:09.994Z</time></trkpt><trkpt lat="44.5595233" lon="7.7457571"><ele>296.42857142857144</ele><time>2026-04-12T10:28:12.995Z</time></trkpt><trkpt lat="44.559486" lon="7.7456528"><ele>297.57142857142856</ele><time>2026-04-12T10:28:16.996Z</time></trkpt><trkpt lat="44.5594487" lon="7.7455743"><ele>298.7142857142857</ele><time>2026-04-12T10:28:19.996Z</time></trkpt><trkpt lat="44.5594135" lon="7.7454743"><ele>299.85714285714283</ele><time>2026-04-12T10:28:22.994Z</time></trkpt><trkpt lat="44.5593771" lon="7.7453842"><ele>301.0</ele><time>2026-04-12T10:28:25.995Z</time></trkpt><trkpt lat="44.5593419" lon="7.7452966"><ele>299.5</ele><time>2026-04-12T10:28:28.995Z</time></trkpt><trkpt lat="44.5592967" lon="7.7452135"><ele>298.0</ele><time>2026-04-12T10:28:31.995Z</time></trkpt><trkpt lat="44.5592563" lon="7.745137"><ele>296.5</ele><time>2026-04-12T10:28:34.995Z</time></trkpt><trkpt lat="44.5592112" lon="7.7450389"><ele>295.0</ele><time>2026-04-12T10:28:36.994Z</time></trkpt><trkpt lat="44.5591643" lon="7.7449423"><ele>293.5</ele><time>2026-04-12T10:28:38.995Z</time></trkpt><trkpt lat="44.5591144" lon="7.7448335"><ele>292.0</ele><time>2026-04-12T10:28:41.996Z</time></trkpt><trkpt lat="44.5590913" lon="7.744725"><ele>292.0</ele><time>2026-04-12T10:28:44.994Z</time></trkpt><trkpt lat="44.5590595" lon="7.744608"><ele>292.0</ele><time>2026-04-12T10:28:47.995Z</time></trkpt><trkpt lat="44.5590402" lon="7.7445231"><ele>292.0</ele><time>2026-04-12T10:28:49.995Z</time></trkpt><trkpt lat="44.55901" lon="7.7444289"><ele>292.0</ele><time>2026-04-12T10:28:51.995Z</time></trkpt><trkpt lat="44.5589846" lon="7.7442993"><ele>292.0</ele><time>2026-04-12T10:28:54.994Z</time></trkpt><trkpt lat="44.5589721" lon="7.7442041"><ele>292.0</ele><time>2026-04-12T10:28:56.994Z</time></trkpt><trkpt lat="44.5589516" lon="7.7441098"><ele>293.0</ele><time>2026-04-12T10:28:58.994Z</time></trkpt><trkpt lat="44.5589323" lon="7.7440131"><ele>294.0</ele><time>2026-04-12T10:29:00.995Z</time></trkpt><trkpt lat="44.5589176" lon="7.7439227"><ele>295.0</ele><time>2026-04-12T10:29:02.995Z</time></trkpt><trkpt lat="44.5588896" lon="7.743837"><ele>296.0</ele><time>2026-04-12T10:29:04.995Z</time></trkpt><trkpt lat="44.5588674" lon="7.7437465"><ele>297.0</ele><time>2026-04-12T10:29:06.995Z</time></trkpt><trkpt lat="44.5588459" lon="7.7436566"><ele>298.0</ele><time>2026-04-12T10:29:08.995Z</time></trkpt><trkpt lat="44.5588317" lon="7.7435635"><ele>299.0</ele><time>2026-04-12T10:29:10.994Z</time></trkpt><trkpt lat="44.5588116" lon="7.7434687"><ele>300.0</ele><time>2026-04-12T10:29:12.994Z</time></trkpt><trkpt lat="44.5587883" lon="7.7433757"><ele>301.0</ele><time>2026-04-12T10:29:14.995Z</time></trkpt><trkpt lat="44.5587626" lon="7.7432805"><ele>302.0</ele><time>2026-04-12T10:29:16.994Z</time></trkpt><trkpt lat="44.5587305" lon="7.7431867"><ele>303.0</ele><time>2026-04-12T10:29:18.994Z</time></trkpt><trkpt lat="44.5586973" lon="7.7430932"><ele>304.0</ele><time>2026-04-12T10:29:20.995Z</time></trkpt><trkpt lat="44.5586678" lon="7.7430026"><ele>305.0</ele><time>2026-04-12T10:29:22.995Z</time></trkpt><trkpt lat="44.5586353" lon="7.74291"><ele>306.0</ele><time>2026-04-12T10:29:24.995Z</time></trkpt><trkpt lat="44.5585974" lon="7.7428212"><ele>303.6666666666667</ele><time>2026-04-12T10:29:26.995Z</time></trkpt><trkpt lat="44.5585647" lon="7.7427418"><ele>301.3333333333333</ele><time>2026-04-12T10:29:28.995Z</time></trkpt><trkpt lat="44.5585397" lon="7.7426595"><ele>299.0</ele><time>2026-04-12T10:29:30.995Z</time></trkpt><trkpt lat="44.5584946" lon="7.7425659"><ele>296.66666666666663</ele><time>2026-04-12T10:29:32.996Z</time></trkpt><trkpt lat="44.5584355" lon="7.7424895"><ele>294.3333333333333</ele><time>2026-04-12T10:29:34.994Z</time></trkpt><trkpt lat="44.5583756" lon="7.7424148"><ele>292.0</ele><time>2026-04-12T10:29:36.996Z</time></trkpt><trkpt lat="44.5583119" lon="7.7423378"><ele>292.0</ele><time>2026-04-12T10:29:38.994Z</time></trkpt><trkpt lat="44.5582363" lon="7.7422811"><ele>292.0</ele><time>2026-04-12T10:29:40.994Z</time></trkpt><trkpt lat="44.5581606" lon="7.7422319"><ele>292.0</ele><time>2026-04-12T10:29:42.994Z</time></trkpt><trkpt lat="44.5580891" lon="7.7421753"><ele>292.0</ele><time>2026-04-12T10:29:44.994Z</time></trkpt><trkpt lat="44.5580226" lon="7.742114"><ele>292.0</ele><time>2026-04-12T10:29:48.994Z</time></trkpt><trkpt lat="44.5579288" lon="7.7420724"><ele>292.0</ele><time>2026-04-12T10:29:51.994Z</time></trkpt><trkpt lat="44.5578477" lon="7.7420592"><ele>290.66666666666663</ele><time>2026-04-12T10:29:53.994Z</time></trkpt><trkpt lat="44.5577623" lon="7.7420504"><ele>289.3333333333333</ele><time>2026-04-12T10:29:55.994Z</time></trkpt><trkpt lat="44.5576774" lon="7.7420418"><ele>288.0</ele><time>2026-04-12T10:29:57.994Z</time></trkpt><trkpt lat="44.5575924" lon="7.7420417"><ele>286.6666666666667</ele><time>2026-04-12T10:29:59.994Z</time></trkpt><trkpt lat="44.5575021" lon="7.7420479"><ele>285.33333333333337</ele><time>2026-04-12T10:30:01.995Z</time></trkpt><trkpt lat="44.5574146" lon="7.7420694"><ele>284.0</ele><time>2026-04-12T10:30:03.995Z</time></trkpt><trkpt lat="44.5573236" lon="7.742069"><ele>284.0</ele><time>2026-04-12T10:30:05.994Z</time></trkpt><trkpt lat="44.5572293" lon="7.7420749"><ele>284.0</ele><time>2026-04-12T10:30:07.994Z</time></trkpt><trkpt lat="44.5571372" lon="7.742087"><ele>284.0</ele><time>2026-04-12T10:30:09.994Z</time></trkpt><trkpt lat="44.5570465" lon="7.7420996"><ele>284.0</ele><time>2026-04-12T10:30:11.994Z</time></trkpt><trkpt lat="44.5569583" lon="7.7421126"><ele>284.0</ele><time>2026-04-12T10:30:13.994Z</time></trkpt><trkpt lat="44.5568698" lon="7.7421278"><ele>283.83333333333337</ele><time>2026-04-12T10:30:15.994Z</time></trkpt><trkpt lat="44.5567818" lon="7.7421485"><ele>283.6666666666667</ele><time>2026-04-12T10:30:17.994Z</time></trkpt><trkpt lat="44.5566931" lon="7.7421672"><ele>283.5</ele><time>2026-04-12T10:30:19.994Z</time></trkpt><trkpt lat="44.5566059" lon="7.7421895"><ele>283.3333333333333</ele><time>2026-04-12T10:30:21.994Z</time></trkpt><trkpt lat="44.5565186" lon="7.7422175"><ele>283.16666666666663</ele><time>2026-04-12T10:30:23.995Z</time></trkpt><trkpt lat="44.5564324" lon="7.7422432"><ele>283.0</ele><time>2026-04-12T10:30:25.994Z</time></trkpt><trkpt lat="44.5563444" lon="7.7422691"><ele>283.0</ele><time>2026-04-12T10:30:27.994Z</time></trkpt><trkpt lat="44.5562557" lon="7.7423002"><ele>283.0</ele><time>2026-04-12T10:30:29.995Z</time></trkpt><trkpt lat="44.5561691" lon="7.7423297"><ele>283.0</ele><time>2026-04-12T10:30:31.994Z</time></trkpt><trkpt lat="44.5560844" lon="7.7423598"><ele>283.0</ele><time>2026-04-12T10:30:33.994Z</time></trkpt><trkpt lat="44.5559986" lon="7.7423881"><ele>283.0</ele><time>2026-04-12T10:30:35.995Z</time></trkpt><trkpt lat="44.5559081" lon="7.7424126"><ele>283.0</ele><time>2026-04-12T10:30:37.994Z</time></trkpt><trkpt lat="44.5558319" lon="7.7424336"><ele>283.5</ele><time>2026-04-12T10:30:39.994Z</time></trkpt><trkpt lat="44.5557473" lon="7.7424728"><ele>284.0</ele><time>2026-04-12T10:30:41.994Z</time></trkpt><trkpt lat="44.5556642" lon="7.7425116"><ele>284.5</ele><time>2026-04-12T10:30:43.994Z</time></trkpt><trkpt lat="44.5555814" lon="7.7425487"><ele>285.0</ele><time>2026-04-12T10:30:45.995Z</time></trkpt><trkpt lat="44.5554955" lon="7.7425902"><ele>285.5</ele><time>2026-04-12T10:30:47.995Z</time></trkpt><trkpt lat="44.5554119" lon="7.7426302"><ele>286.0</ele><time>2026-04-12T10:30:49.996Z</time></trkpt><trkpt lat="44.5553322" lon="7.742674"><ele>286.3333333333333</ele><time>2026-04-12T10:30:51.995Z</time></trkpt><trkpt lat="44.5552532" lon="7.7427181"><ele>286.66666666666663</ele><time>2026-04-12T10:30:53.995Z</time></trkpt><trkpt lat="44.555175" lon="7.7427617"><ele>287.0</ele><time>2026-04-12T10:30:55.995Z</time></trkpt><trkpt lat="44.5551" lon="7.7428048"><ele>287.3333333333333</ele><time>2026-04-12T10:30:57.996Z</time></trkpt><trkpt lat="44.5550226" lon="7.7428444"><ele>287.6666666666667</ele><time>2026-04-12T10:30:59.995Z</time></trkpt><trkpt lat="44.5549423" lon="7.7428743"><ele>288.0</ele><time>2026-04-12T10:31:01.995Z</time></trkpt><trkpt lat="44.5548602" lon="7.7428898"><ele>288.00000000000006</ele><time>2026-04-12T10:31:03.995Z</time></trkpt><trkpt lat="44.5547783" lon="7.7428993"><ele>288.0</ele><time>2026-04-12T10:31:05.995Z</time></trkpt><trkpt lat="44.5546967" lon="7.7429036"><ele>288.0</ele><time>2026-04-12T10:31:07.996Z</time></trkpt><trkpt lat="44.5546203" lon="7.7429277"><ele>288.0</ele><time>2026-04-12T10:31:09.996Z</time></trkpt><trkpt lat="44.5545477" lon="7.742945"><ele>288.0</ele><time>2026-04-12T10:31:11.995Z</time></trkpt><trkpt lat="44.55448" lon="7.7429393"><ele>288.00000000000006</ele><time>2026-04-12T10:31:13.995Z</time></trkpt><trkpt lat="44.5544211" lon="7.7428989"><ele>288.0</ele><time>2026-04-12T10:31:15.995Z</time></trkpt><trkpt lat="44.5543851" lon="7.7427787"><ele>288.1666666666667</ele><time>2026-04-12T10:31:18.995Z</time></trkpt><trkpt lat="44.5543852" lon="7.7426756"><ele>288.3333333333333</ele><time>2026-04-12T10:31:20.995Z</time></trkpt><trkpt lat="44.5543719" lon="7.7425704"><ele>288.5</ele><time>2026-04-12T10:31:22.995Z</time></trkpt><trkpt lat="44.5543634" lon="7.742466"><ele>288.66666666666663</ele><time>2026-04-12T10:31:24.995Z</time></trkpt><trkpt lat="44.5543462" lon="7.7423648"><ele>288.8333333333333</ele><time>2026-04-12T10:31:26.996Z</time></trkpt><trkpt lat="44.554326" lon="7.7422611"><ele>289.0</ele><time>2026-04-12T10:31:28.995Z</time></trkpt><trkpt lat="44.55431" lon="7.7421539"><ele>289.0</ele><time>2026-04-12T10:31:30.995Z</time></trkpt><trkpt lat="44.5542975" lon="7.7420415"><ele>289.0</ele><time>2026-04-12T10:31:32.995Z</time></trkpt><trkpt lat="44.5542816" lon="7.7419315"><ele>289.0</ele><time>2026-04-12T10:31:34.995Z</time></trkpt><trkpt lat="44.5542656" lon="7.7418181"><ele>289.0</ele><time>2026-04-12T10:31:36.996Z</time></trkpt><trkpt lat="44.5542698" lon="7.7417017"><ele>289.0</ele><time>2026-04-12T10:31:38.996Z</time></trkpt><trkpt lat="44.5542532" lon="7.7415931"><ele>289.0</ele><time>2026-04-12T10:31:40.995Z</time></trkpt><trkpt lat="44.5542388" lon="7.7414869"><ele>289.0</ele><time>2026-04-12T10:31:42.995Z</time></trkpt><trkpt lat="44.5542273" lon="7.7413826"><ele>289.0</ele><time>2026-04-12T10:31:44.995Z</time></trkpt><trkpt lat="44.5542173" lon="7.7412761"><ele>289.0</ele><time>2026-04-12T10:31:46.996Z</time></trkpt><trkpt lat="44.5542034" lon="7.7411754"><ele>289.0</ele><time>2026-04-12T10:31:48.995Z</time></trkpt><trkpt lat="44.5541922" lon="7.7410816"><ele>289.0</ele><time>2026-04-12T10:31:50.996Z</time></trkpt><trkpt lat="44.5541813" lon="7.7409929"><ele>289.0</ele><time>2026-04-12T10:31:52.995Z</time></trkpt><trkpt lat="44.5541584" lon="7.7408791"><ele>289.0</ele><time>2026-04-12T10:31:55.995Z</time></trkpt><trkpt lat="44.5541483" lon="7.7407849"><ele>289.8571428571429</ele><time>2026-04-12T10:31:58.996Z</time></trkpt><trkpt lat="44.5541358" lon="7.740675"><ele>290.7142857142857</ele><time>2026-04-12T10:32:02.996Z</time></trkpt><trkpt lat="44.554106" lon="7.7405894"><ele>291.57142857142856</ele><time>2026-04-12T10:32:06.995Z</time></trkpt><trkpt lat="44.5541039" lon="7.7404888"><ele>292.42857142857144</ele><time>2026-04-12T10:32:10.995Z</time></trkpt><trkpt lat="44.5540889" lon="7.7403917"><ele>293.2857142857143</ele><time>2026-04-12T10:32:14.995Z</time></trkpt><trkpt lat="44.5540761" lon="7.7403041"><ele>294.14285714285717</ele><time>2026-04-12T10:32:18.995Z</time></trkpt><trkpt lat="44.5540587" lon="7.7402168"><ele>295.0</ele><time>2026-04-12T10:32:22.995Z</time></trkpt><trkpt lat="44.5540339" lon="7.7401267"><ele>296.14285714285717</ele><time>2026-04-12T10:32:26.995Z</time></trkpt><trkpt lat="44.5540223" lon="7.7400395"><ele>297.2857142857143</ele><time>2026-04-12T10:32:30.995Z</time></trkpt><trkpt lat="44.5540063" lon="7.7399369"><ele>298.42857142857144</ele><time>2026-04-12T10:32:35.994Z</time></trkpt><trkpt lat="44.5539811" lon="7.7398524"><ele>299.57142857142856</ele><time>2026-04-12T10:32:40.995Z</time></trkpt><trkpt lat="44.5539469" lon="7.7397623"><ele>300.7142857142857</ele><time>2026-04-12T10:32:44.995Z</time></trkpt><trkpt lat="44.5539264" lon="7.7396726"><ele>301.8571428571429</ele><time>2026-04-12T10:32:48.995Z</time></trkpt><trkpt lat="44.5539292" lon="7.7395741"><ele>303.0</ele><time>2026-04-12T10:32:59.995Z</time></trkpt><trkpt lat="44.5539185" lon="7.7394834"><ele>304.42857142857144</ele><time>2026-04-12T10:33:02.995Z</time></trkpt><trkpt lat="44.5539034" lon="7.7393697"><ele>305.85714285714283</ele><time>2026-04-12T10:33:06.995Z</time></trkpt><trkpt lat="44.5538927" lon="7.739281"><ele>307.2857142857143</ele><time>2026-04-12T10:33:09.994Z</time></trkpt><trkpt lat="44.553874" lon="7.7391913"><ele>308.7142857142857</ele><time>2026-04-12T10:33:12.994Z</time></trkpt><trkpt lat="44.5538629" lon="7.7390773"><ele>310.14285714285717</ele><time>2026-04-12T10:33:16.994Z</time></trkpt><trkpt lat="44.5538408" lon="7.7389915"><ele>311.57142857142856</ele><time>2026-04-12T10:33:19.994Z</time></trkpt><trkpt lat="44.5538225" lon="7.7389051"><ele>313.0</ele><time>2026-04-12T10:33:22.995Z</time></trkpt><trkpt lat="44.5538009" lon="7.7387945"><ele>313.0</ele><time>2026-04-12T10:33:26.995Z</time></trkpt><trkpt lat="44.5537864" lon="7.7387079"><ele>313.0</ele><time>2026-04-12T10:33:29.994Z</time></trkpt><trkpt lat="44.5537507" lon="7.738605"><ele>313.0</ele><time>2026-04-12T10:33:33.995Z</time></trkpt><trkpt lat="44.5537083" lon="7.7385055"><ele>313.0</ele><time>2026-04-12T10:33:37.995Z</time></trkpt><trkpt lat="44.5536839" lon="7.738397"><ele>313.0</ele><time>2026-04-12T10:33:41.996Z</time></trkpt><trkpt lat="44.5536563" lon="7.7383171"><ele>313.0</ele><time>2026-04-12T10:33:44.995Z</time></trkpt><trkpt lat="44.5536086" lon="7.7382208"><ele>312.3333333333333</ele><time>2026-04-12T10:33:48.996Z</time></trkpt><trkpt lat="44.5535586" lon="7.7381291"><ele>311.66666666666663</ele><time>2026-04-12T10:33:52.995Z</time></trkpt><trkpt lat="44.5535056" lon="7.7380441"><ele>311.0</ele><time>2026-04-12T10:33:56.995Z</time></trkpt><trkpt lat="44.5534442" lon="7.7379712"><ele>310.3333333333333</ele><time>2026-04-12T10:34:00.996Z</time></trkpt><trkpt lat="44.5533778" lon="7.7379051"><ele>309.6666666666667</ele><time>2026-04-12T10:34:04.995Z</time></trkpt><trkpt lat="44.553316" lon="7.7378388"><ele>309.0</ele><time>2026-04-12T10:34:08.995Z</time></trkpt><trkpt lat="44.5532596" lon="7.7377907"><ele>309.0</ele><time>2026-04-12T10:34:11.995Z</time></trkpt><trkpt lat="44.5531971" lon="7.7377575"><ele>309.0</ele><time>2026-04-12T10:34:14.995Z</time></trkpt><trkpt lat="44.5531356" lon="7.7377222"><ele>309.0</ele><time>2026-04-12T10:34:17.995Z</time></trkpt><trkpt lat="44.5530593" lon="7.7376753"><ele>309.0</ele><time>2026-04-12T10:34:21.995Z</time></trkpt><trkpt lat="44.552989" lon="7.7376261"><ele>309.0</ele><time>2026-04-12T10:34:25.995Z</time></trkpt><trkpt lat="44.5529161" lon="7.737586"><ele>309.0</ele><time>2026-04-12T10:34:29.996Z</time></trkpt><trkpt lat="44.5528435" lon="7.7375374"><ele>309.28571428571433</ele><time>2026-04-12T10:34:33.996Z</time></trkpt><trkpt lat="44.5527984" lon="7.7374746"><ele>309.57142857142856</ele><time>2026-04-12T10:34:37.995Z</time></trkpt><trkpt lat="44.5527382" lon="7.7373904"><ele>309.8571428571429</ele><time>2026-04-12T10:34:41.996Z</time></trkpt><trkpt lat="44.5526975" lon="7.7373203"><ele>310.14285714285717</ele><time>2026-04-12T10:34:44.996Z</time></trkpt><trkpt lat="44.5526599" lon="7.7372486"><ele>310.42857142857144</ele><time>2026-04-12T10:34:47.996Z</time></trkpt><trkpt lat="44.5526154" lon="7.7371507"><ele>310.7142857142857</ele><time>2026-04-12T10:34:51.996Z</time></trkpt><trkpt lat="44.5525822" lon="7.7370718"><ele>311.0</ele><time>2026-04-12T10:34:54.995Z</time></trkpt><trkpt lat="44.5525427" lon="7.736969"><ele>311.0</ele><time>2026-04-12T10:34:58.995Z</time></trkpt><trkpt lat="44.5525105" lon="7.7368889"><ele>311.0</ele><time>2026-04-12T10:35:01.995Z</time></trkpt><trkpt lat="44.5524813" lon="7.7368065"><ele>311.0</ele><time>2026-04-12T10:35:04.996Z</time></trkpt><trkpt lat="44.5524505" lon="7.7367024"><ele>311.0</ele><time>2026-04-12T10:35:08.995Z</time></trkpt><trkpt lat="44.552421" lon="7.7365984"><ele>311.0</ele><time>2026-04-12T10:35:12.995Z</time></trkpt><trkpt lat="44.5523893" lon="7.7364896"><ele>311.0</ele><time>2026-04-12T10:35:16.995Z</time></trkpt><trkpt lat="44.5523628" lon="7.7364089"><ele>311.0</ele><time>2026-04-12T10:35:19.995Z</time></trkpt><trkpt lat="44.5523385" lon="7.7363262"><ele>311.85714285714283</ele><time>2026-04-12T10:35:22.996Z</time></trkpt><trkpt lat="44.5523188" lon="7.7362405"><ele>312.7142857142857</ele><time>2026-04-12T10:35:25.996Z</time></trkpt><trkpt lat="44.5522888" lon="7.7361574"><ele>313.57142857142856</ele><time>2026-04-12T10:35:28.996Z</time></trkpt><trkpt lat="44.5522518" lon="7.7360547"><ele>314.42857142857144</ele><time>2026-04-12T10:35:32.996Z</time></trkpt><trkpt lat="44.5522215" lon="7.7359573"><ele>315.2857142857143</ele><time>2026-04-12T10:35:36.996Z</time></trkpt><trkpt lat="44.5521808" lon="7.7358568"><ele>316.14285714285717</ele><time>2026-04-12T10:35:40.996Z</time></trkpt><trkpt lat="44.5521444" lon="7.7357817"><ele>317.0</ele><time>2026-04-12T10:35:43.995Z</time></trkpt><trkpt lat="44.5521123" lon="7.7357048"><ele>317.0</ele><time>2026-04-12T10:35:46.995Z</time></trkpt><trkpt lat="44.5520768" lon="7.7356242"><ele>317.0</ele><time>2026-04-12T10:35:49.996Z</time></trkpt><trkpt lat="44.5520429" lon="7.7355375"><ele>317.0</ele><time>2026-04-12T10:35:52.995Z</time></trkpt><trkpt lat="44.5520237" lon="7.7354459"><ele>317.0</ele><time>2026-04-12T10:35:55.995Z</time></trkpt><trkpt lat="44.5519906" lon="7.7353417"><ele>317.0</ele><time>2026-04-12T10:35:59.996Z</time></trkpt><trkpt lat="44.5519692" lon="7.7352583"><ele>317.0</ele><time>2026-04-12T10:36:02.996Z</time></trkpt><trkpt lat="44.5519454" lon="7.735162"><ele>317.0</ele><time>2026-04-12T10:36:05.995Z</time></trkpt><trkpt lat="44.5519126" lon="7.7350687"><ele>317.57142857142856</ele><time>2026-04-12T10:36:08.996Z</time></trkpt><trkpt lat="44.5518795" lon="7.7349735"><ele>318.1428571428571</ele><time>2026-04-12T10:36:11.995Z</time></trkpt><trkpt lat="44.5518491" lon="7.7348831"><ele>318.71428571428567</ele><time>2026-04-12T10:36:14.995Z</time></trkpt><trkpt lat="44.5518385" lon="7.7347914"><ele>319.2857142857143</ele><time>2026-04-12T10:36:17.995Z</time></trkpt><trkpt lat="44.5518813" lon="7.7346922"><ele>319.85714285714283</ele><time>2026-04-12T10:36:21.995Z</time></trkpt><trkpt lat="44.5519532" lon="7.7346403"><ele>320.4285714285714</ele><time>2026-04-12T10:36:25.996Z</time></trkpt><trkpt lat="44.5520166" lon="7.7346418"><ele>321.0</ele><time>2026-04-12T10:36:28.996Z</time></trkpt><trkpt lat="44.5520762" lon="7.7346774"><ele>322.99999999999994</ele><time>2026-04-12T10:36:31.996Z</time></trkpt><trkpt lat="44.5521299" lon="7.7347324"><ele>325.0</ele><time>2026-04-12T10:36:34.996Z</time></trkpt><trkpt lat="44.55218" lon="7.7347917"><ele>327.0</ele><time>2026-04-12T10:36:37.995Z</time></trkpt><trkpt lat="44.5522323" lon="7.7348467"><ele>329.0</ele><time>2026-04-12T10:36:40.996Z</time></trkpt><trkpt lat="44.5522936" lon="7.734888"><ele>331.0</ele><time>2026-04-12T10:36:43.995Z</time></trkpt><trkpt lat="44.55236" lon="7.7349008"><ele>332.99999999999994</ele><time>2026-04-12T10:36:46.996Z</time></trkpt><trkpt lat="44.5524064" lon="7.7348344"><ele>335.0</ele><time>2026-04-12T10:36:50.995Z</time></trkpt><trkpt lat="44.552404" lon="7.7347238"><ele>335.0</ele><time>2026-04-12T10:36:54.995Z</time></trkpt><trkpt lat="44.5523793" lon="7.7346286"><ele>335.0</ele><time>2026-04-12T10:36:58.995Z</time></trkpt><trkpt lat="44.5523449" lon="7.7345139"><ele>335.0</ele><time>2026-04-12T10:37:01.995Z</time></trkpt><trkpt lat="44.5523548" lon="7.7344189"><ele>335.0</ele><time>2026-04-12T10:37:03.995Z</time></trkpt><trkpt lat="44.5524173" lon="7.7343318"><ele>335.0</ele><time>2026-04-12T10:37:06.995Z</time></trkpt><trkpt lat="44.5524762" lon="7.7342439"><ele>335.0</ele><time>2026-04-12T10:37:09.995Z</time></trkpt><trkpt lat="44.5524487" lon="7.7341587"><ele>336.2857142857143</ele><time>2026-04-12T10:37:18.996Z</time></trkpt><trkpt lat="44.5524466" lon="7.7340508"><ele>337.57142857142856</ele><time>2026-04-12T10:37:23.996Z</time></trkpt><trkpt lat="44.5524389" lon="7.7339566"><ele>338.8571428571429</ele><time>2026-04-12T10:37:28.995Z</time></trkpt><trkpt lat="44.5524383" lon="7.7338543"><ele>340.1428571428571</ele><time>2026-04-12T10:37:32.995Z</time></trkpt><trkpt lat="44.5524047" lon="7.7337482"><ele>341.42857142857144</ele><time>2026-04-12T10:38:13.995Z</time></trkpt><trkpt lat="44.5523952" lon="7.7336552"><ele>342.7142857142857</ele><time>2026-04-12T10:38:19.995Z</time></trkpt><trkpt lat="44.5523739" lon="7.7335626"><ele>344.0</ele><time>2026-04-12T10:38:25.996Z</time></trkpt><trkpt lat="44.5523551" lon="7.7334644"><ele>345.7142857142857</ele><time>2026-04-12T10:38:31.995Z</time></trkpt><trkpt lat="44.5523267" lon="7.7333716"><ele>347.42857142857144</ele><time>2026-04-12T10:38:37.995Z</time></trkpt><trkpt lat="44.552318" lon="7.733267"><ele>349.1428571428571</ele><time>2026-04-12T10:38:43.995Z</time></trkpt><trkpt lat="44.5523037" lon="7.7331789"><ele>350.8571428571429</ele><time>2026-04-12T10:38:48.995Z</time></trkpt><trkpt lat="44.5522919" lon="7.7330815"><ele>352.57142857142856</ele><time>2026-04-12T10:38:54.995Z</time></trkpt><trkpt lat="44.5522795" lon="7.7329801"><ele>354.2857142857143</ele><time>2026-04-12T10:39:00.995Z</time></trkpt><trkpt lat="44.5522558" lon="7.7328903"><ele>356.0</ele><time>2026-04-12T10:39:06.996Z</time></trkpt><trkpt lat="44.5522224" lon="7.7328089"><ele>357.1428571428571</ele><time>2026-04-12T10:39:11.995Z</time></trkpt><trkpt lat="44.5521881" lon="7.732721"><ele>358.2857142857143</ele><time>2026-04-12T10:39:17.995Z</time></trkpt><trkpt lat="44.5521509" lon="7.732628"><ele>359.42857142857144</ele><time>2026-04-12T10:39:23.995Z</time></trkpt><trkpt lat="44.5521104" lon="7.7325432"><ele>360.57142857142856</ele><time>2026-04-12T10:39:29.995Z</time></trkpt><trkpt lat="44.5520754" lon="7.7324578"><ele>361.7142857142857</ele><time>2026-04-12T10:39:35.995Z</time></trkpt><trkpt lat="44.552056" lon="7.7323562"><ele>362.85714285714283</ele><time>2026-04-12T10:39:41.995Z</time></trkpt><trkpt lat="44.5520391" lon="7.7322531"><ele>364.0</ele><time>2026-04-12T10:39:47.995Z</time></trkpt><trkpt lat="44.5520368" lon="7.7321498"><ele>363.85714285714283</ele><time>2026-04-12T10:39:52.995Z</time></trkpt><trkpt lat="44.5520233" lon="7.7320542"><ele>363.7142857142857</ele><time>2026-04-12T10:39:57.995Z</time></trkpt><trkpt lat="44.5520258" lon="7.7319594"><ele>363.57142857142856</ele><time>2026-04-12T10:40:02.996Z</time></trkpt><trkpt lat="44.5520105" lon="7.7318675"><ele>363.42857142857144</ele><time>2026-04-12T10:40:06.995Z</time></trkpt><trkpt lat="44.5520013" lon="7.7317661"><ele>363.2857142857143</ele><time>2026-04-12T10:40:11.996Z</time></trkpt><trkpt lat="44.5519979" lon="7.7316638"><ele>363.1428571428571</ele><time>2026-04-12T10:40:16.995Z</time></trkpt><trkpt lat="44.5519826" lon="7.7315719"><ele>363.0</ele><time>2026-04-12T10:40:20.995Z</time></trkpt><trkpt lat="44.5519417" lon="7.7314882"><ele>362.99999999999994</ele><time>2026-04-12T10:40:24.995Z</time></trkpt><trkpt lat="44.5519099" lon="7.7313941"><ele>363.0</ele><time>2026-04-12T10:40:28.995Z</time></trkpt><trkpt lat="44.551874" lon="7.7313142"><ele>363.0</ele><time>2026-04-12T10:40:32.995Z</time></trkpt><trkpt lat="44.5518451" lon="7.7312267"><ele>363.0</ele><time>2026-04-12T10:40:36.996Z</time></trkpt><trkpt lat="44.5518235" lon="7.7311341"><ele>363.0</ele><time>2026-04-12T10:40:40.995Z</time></trkpt><trkpt lat="44.5518068" lon="7.7310367"><ele>362.99999999999994</ele><time>2026-04-12T10:40:44.995Z</time></trkpt><trkpt lat="44.5518703" lon="7.7310465"><ele>363.0</ele><time>2026-04-12T10:40:50.995Z</time></trkpt><trkpt lat="44.551903" lon="7.7311347"><ele>362.99999999999994</ele><time>2026-04-12T10:40:55.995Z</time></trkpt><trkpt lat="44.551941" lon="7.7312201"><ele>363.0</ele><time>2026-04-12T10:40:59.995Z</time></trkpt><trkpt lat="44.5519962" lon="7.7313006"><ele>363.0</ele><time>2026-04-12T10:41:03.995Z</time></trkpt><trkpt lat="44.5520369" lon="7.731385"><ele>363.0</ele><time>2026-04-12T10:41:07.995Z</time></trkpt><trkpt lat="44.5521064" lon="7.7313951"><ele>363.0</ele><time>2026-04-12T10:41:12.995Z</time></trkpt><trkpt lat="44.5521079" lon="7.7312955"><ele>362.99999999999994</ele><time>2026-04-12T10:41:15.995Z</time></trkpt><trkpt lat="44.5520826" lon="7.7311994"><ele>363.0</ele><time>2026-04-12T10:41:18.995Z</time></trkpt><trkpt lat="44.5520605" lon="7.7311029"><ele>364.57142857142856</ele><time>2026-04-12T10:41:21.995Z</time></trkpt><trkpt lat="44.5520303" lon="7.730981"><ele>366.1428571428571</ele><time>2026-04-12T10:41:24.995Z</time></trkpt><trkpt lat="44.5520107" lon="7.7308854"><ele>367.71428571428567</ele><time>2026-04-12T10:41:26.996Z</time></trkpt><trkpt lat="44.551989" lon="7.7307929"><ele>369.2857142857143</ele><time>2026-04-12T10:41:28.995Z</time></trkpt><trkpt lat="44.5519663" lon="7.7307007"><ele>370.8571428571429</ele><time>2026-04-12T10:41:30.996Z</time></trkpt><trkpt lat="44.5519452" lon="7.7306066"><ele>372.4285714285714</ele><time>2026-04-12T10:41:32.995Z</time></trkpt><trkpt lat="44.5519222" lon="7.730509"><ele>374.0</ele><time>2026-04-12T10:41:34.995Z</time></trkpt><trkpt lat="44.5518936" lon="7.7304155"><ele>374.0</ele><time>2026-04-12T10:41:36.995Z</time></trkpt><trkpt lat="44.5518699" lon="7.7303222"><ele>374.0</ele><time>2026-04-12T10:41:38.996Z</time></trkpt><trkpt lat="44.5518468" lon="7.730229"><ele>374.0</ele><time>2026-04-12T10:41:40.995Z</time></trkpt><trkpt lat="44.5518198" lon="7.7301377"><ele>374.0</ele><time>2026-04-12T10:41:42.995Z</time></trkpt><trkpt lat="44.5518104" lon="7.7300363"><ele>374.0</ele><time>2026-04-12T10:41:44.995Z</time></trkpt><trkpt lat="44.5517864" lon="7.7299367"><ele>374.0</ele><time>2026-04-12T10:41:46.995Z</time></trkpt><trkpt lat="44.5517386" lon="7.7298737"><ele>374.0</ele><time>2026-04-12T10:41:48.995Z</time></trkpt><trkpt lat="44.5516652" lon="7.7298115"><ele>374.0</ele><time>2026-04-12T10:41:51.995Z</time></trkpt><trkpt lat="44.551604" lon="7.7299065"><ele>374.0</ele><time>2026-04-12T10:41:54.995Z</time></trkpt><trkpt lat="44.5515891" lon="7.7300035"><ele>374.0</ele><time>2026-04-12T10:41:56.996Z</time></trkpt><trkpt lat="44.5516321" lon="7.7301157"><ele>374.0</ele><time>2026-04-12T10:41:59.995Z</time></trkpt><trkpt lat="44.5515991" lon="7.7302348"><ele>374.0</ele><time>2026-04-12T10:42:03.995Z</time></trkpt><trkpt lat="44.5516106" lon="7.7303509"><ele>374.0</ele><time>2026-04-12T10:42:06.995Z</time></trkpt><trkpt lat="44.5516357" lon="7.7304445"><ele>374.0</ele><time>2026-04-12T10:42:08.995Z</time></trkpt><trkpt lat="44.5515803" lon="7.7305325"><ele>374.0</ele><time>2026-04-12T10:42:10.995Z</time></trkpt><trkpt lat="44.5515238" lon="7.7306215"><ele>374.0</ele><time>2026-04-12T10:42:12.995Z</time></trkpt><trkpt lat="44.5514566" lon="7.7307044"><ele>374.0</ele><time>2026-04-12T10:42:14.995Z</time></trkpt><trkpt lat="44.5513991" lon="7.7308039"><ele>374.0</ele><time>2026-04-12T10:42:16.995Z</time></trkpt><trkpt lat="44.5513383" lon="7.7309074"><ele>374.0</ele><time>2026-04-12T10:42:18.995Z</time></trkpt><trkpt lat="44.5512795" lon="7.7310174"><ele>371.79999999999995</ele><time>2026-04-12T10:42:20.995Z</time></trkpt><trkpt lat="44.5512111" lon="7.7311258"><ele>369.59999999999997</ele><time>2026-04-12T10:42:22.995Z</time></trkpt><trkpt lat="44.5511391" lon="7.7312132"><ele>367.4</ele><time>2026-04-12T10:42:24.996Z</time></trkpt><trkpt lat="44.5510473" lon="7.731246"><ele>365.2</ele><time>2026-04-12T10:42:26.995Z</time></trkpt><trkpt lat="44.5509511" lon="7.731232"><ele>363.0</ele><time>2026-04-12T10:42:28.995Z</time></trkpt><trkpt lat="44.5508592" lon="7.7311999"><ele>362.0</ele><time>2026-04-12T10:42:30.995Z</time></trkpt><trkpt lat="44.5507701" lon="7.7311422"><ele>361.0</ele><time>2026-04-12T10:42:32.995Z</time></trkpt><trkpt lat="44.5506853" lon="7.7310883"><ele>360.0</ele><time>2026-04-12T10:42:34.995Z</time></trkpt><trkpt lat="44.5506004" lon="7.7310362"><ele>359.0</ele><time>2026-04-12T10:42:36.995Z</time></trkpt><trkpt lat="44.5505189" lon="7.7309894"><ele>358.0</ele><time>2026-04-12T10:42:38.995Z</time></trkpt><trkpt lat="44.5504412" lon="7.730942"><ele>359.3333333333333</ele><time>2026-04-12T10:42:40.995Z</time></trkpt><trkpt lat="44.5503665" lon="7.7308836"><ele>360.66666666666663</ele><time>2026-04-12T10:42:42.995Z</time></trkpt><trkpt lat="44.5503024" lon="7.7308122"><ele>362.0</ele><time>2026-04-12T10:42:44.995Z</time></trkpt><trkpt lat="44.5502327" lon="7.730733"><ele>363.3333333333333</ele><time>2026-04-12T10:42:46.996Z</time></trkpt><trkpt lat="44.5501402" lon="7.7306879"><ele>364.6666666666667</ele><time>2026-04-12T10:42:48.996Z</time></trkpt><trkpt lat="44.5500489" lon="7.7306647"><ele>366.0</ele><time>2026-04-12T10:42:50.996Z</time></trkpt><trkpt lat="44.549954" lon="7.7306454"><ele>366.0</ele><time>2026-04-12T10:42:52.994Z</time></trkpt><trkpt lat="44.5498704" lon="7.7306186"><ele>366.0</ele><time>2026-04-12T10:42:54.994Z</time></trkpt><trkpt lat="44.5497886" lon="7.7305592"><ele>366.0</ele><time>2026-04-12T10:42:56.994Z</time></trkpt><trkpt lat="44.5497082" lon="7.7305048"><ele>366.0</ele><time>2026-04-12T10:42:58.995Z</time></trkpt><trkpt lat="44.5496617" lon="7.7304133"><ele>366.0</ele><time>2026-04-12T10:43:00.994Z</time></trkpt><trkpt lat="44.5496598" lon="7.7303023"><ele>366.0</ele><time>2026-04-12T10:43:02.994Z</time></trkpt><trkpt lat="44.5496576" lon="7.7301746"><ele>367.6666666666667</ele><time>2026-04-12T10:43:04.994Z</time></trkpt><trkpt lat="44.5496562" lon="7.7300536"><ele>369.3333333333333</ele><time>2026-04-12T10:43:06.995Z</time></trkpt><trkpt lat="44.5496657" lon="7.7299362"><ele>371.0</ele><time>2026-04-12T10:43:08.994Z</time></trkpt><trkpt lat="44.5496696" lon="7.7298167"><ele>372.66666666666663</ele><time>2026-04-12T10:43:10.994Z</time></trkpt><trkpt lat="44.5496739" lon="7.729688"><ele>374.3333333333333</ele><time>2026-04-12T10:43:12.994Z</time></trkpt><trkpt lat="44.5496512" lon="7.7295604"><ele>376.0</ele><time>2026-04-12T10:43:14.994Z</time></trkpt><trkpt lat="44.5496072" lon="7.7294462"><ele>377.20000000000005</ele><time>2026-04-12T10:43:16.994Z</time></trkpt><trkpt lat="44.5495582" lon="7.729338"><ele>378.40000000000003</ele><time>2026-04-12T10:43:18.994Z</time></trkpt><trkpt lat="44.5495135" lon="7.729227"><ele>379.6</ele><time>2026-04-12T10:43:20.994Z</time></trkpt><trkpt lat="44.5494695" lon="7.7291011"><ele>380.8</ele><time>2026-04-12T10:43:22.994Z</time></trkpt><trkpt lat="44.5494186" lon="7.7289862"><ele>382.0</ele><time>2026-04-12T10:43:24.995Z</time></trkpt><trkpt lat="44.549371" lon="7.7288787"><ele>381.0</ele><time>2026-04-12T10:43:26.994Z</time></trkpt><trkpt lat="44.5493247" lon="7.728771"><ele>380.0</ele><time>2026-04-12T10:43:28.994Z</time></trkpt><trkpt lat="44.5492825" lon="7.7286544"><ele>379.0</ele><time>2026-04-12T10:43:30.994Z</time></trkpt><trkpt lat="44.5492299" lon="7.728543"><ele>378.0</ele><time>2026-04-12T10:43:32.994Z</time></trkpt><trkpt lat="44.5491592" lon="7.7284546"><ele>377.0</ele><time>2026-04-12T10:43:34.994Z</time></trkpt><trkpt lat="44.54908" lon="7.7283741"><ele>377.0</ele><time>2026-04-12T10:43:36.994Z</time></trkpt><trkpt lat="44.5489938" lon="7.7283004"><ele>377.0</ele><time>2026-04-12T10:43:38.994Z</time></trkpt><trkpt lat="44.5489103" lon="7.7282256"><ele>377.0</ele><time>2026-04-12T10:43:40.994Z</time></trkpt><trkpt lat="44.548831" lon="7.7281439"><ele>377.0</ele><time>2026-04-12T10:43:42.994Z</time></trkpt><trkpt lat="44.5487534" lon="7.7280635"><ele>377.0</ele><time>2026-04-12T10:43:44.994Z</time></trkpt><trkpt lat="44.5486725" lon="7.7279804"><ele>376.8</ele><time>2026-04-12T10:43:46.995Z</time></trkpt><trkpt lat="44.5485907" lon="7.7278967"><ele>376.6</ele><time>2026-04-12T10:43:48.995Z</time></trkpt><trkpt lat="44.5485106" lon="7.7278083"><ele>376.40000000000003</ele><time>2026-04-12T10:43:50.994Z</time></trkpt><trkpt lat="44.5484289" lon="7.7277193"><ele>376.20000000000005</ele><time>2026-04-12T10:43:52.994Z</time></trkpt><trkpt lat="44.5483464" lon="7.727629"><ele>376.0</ele><time>2026-04-12T10:43:54.994Z</time></trkpt><trkpt lat="44.5482623" lon="7.7275528"><ele>376.0</ele><time>2026-04-12T10:43:56.995Z</time></trkpt><trkpt lat="44.548173" lon="7.7274914"><ele>376.0</ele><time>2026-04-12T10:43:58.994Z</time></trkpt><trkpt lat="44.5480883" lon="7.7274304"><ele>376.0</ele><time>2026-04-12T10:44:00.994Z</time></trkpt><trkpt lat="44.5479995" lon="7.7273811"><ele>376.0</ele><time>2026-04-12T10:44:02.994Z</time></trkpt><trkpt lat="44.547921" lon="7.7273196"><ele>376.0</ele><time>2026-04-12T10:44:04.995Z</time></trkpt><trkpt lat="44.5478394" lon="7.727251"><ele>372.4</ele><time>2026-04-12T10:44:06.994Z</time></trkpt><trkpt lat="44.5477624" lon="7.7271871"><ele>368.8</ele><time>2026-04-12T10:44:08.994Z</time></trkpt><trkpt lat="44.5476728" lon="7.7271421"><ele>365.2</ele><time>2026-04-12T10:44:10.994Z</time></trkpt><trkpt lat="44.5475959" lon="7.7270902"><ele>361.59999999999997</ele><time>2026-04-12T10:44:12.994Z</time></trkpt><trkpt lat="44.5475094" lon="7.7270422"><ele>358.0</ele><time>2026-04-12T10:44:14.994Z</time></trkpt><trkpt lat="44.5474261" lon="7.7269843"><ele>358.0</ele><time>2026-04-12T10:44:16.994Z</time></trkpt><trkpt lat="44.5473426" lon="7.7269225"><ele>358.0</ele><time>2026-04-12T10:44:18.995Z</time></trkpt><trkpt lat="44.5472635" lon="7.7268585"><ele>358.0</ele><time>2026-04-12T10:44:20.995Z</time></trkpt><trkpt lat="44.547216" lon="7.7267467"><ele>358.0</ele><time>2026-04-12T10:44:22.994Z</time></trkpt><trkpt lat="44.5472008" lon="7.7266191"><ele>358.0</ele><time>2026-04-12T10:44:24.994Z</time></trkpt><trkpt lat="44.5471749" lon="7.7264892"><ele>361.4</ele><time>2026-04-12T10:44:26.994Z</time></trkpt><trkpt lat="44.5471491" lon="7.7263539"><ele>364.79999999999995</ele><time>2026-04-12T10:44:28.995Z</time></trkpt><trkpt lat="44.5471288" lon="7.7262219"><ele>368.2</ele><time>2026-04-12T10:44:30.994Z</time></trkpt><trkpt lat="44.5471274" lon="7.7261032"><ele>371.6</ele><time>2026-04-12T10:44:32.994Z</time></trkpt><trkpt lat="44.5471803" lon="7.725994"><ele>375.0</ele><time>2026-04-12T10:44:34.994Z</time></trkpt><trkpt lat="44.5472696" lon="7.7259855"><ele>375.5</ele><time>2026-04-12T10:44:36.994Z</time></trkpt><trkpt lat="44.5473347" lon="7.725922"><ele>376.0</ele><time>2026-04-12T10:44:38.994Z</time></trkpt><trkpt lat="44.5473635" lon="7.725808"><ele>376.5</ele><time>2026-04-12T10:44:40.994Z</time></trkpt><trkpt lat="44.5473731" lon="7.7256885"><ele>377.0</ele><time>2026-04-12T10:44:42.994Z</time></trkpt><trkpt lat="44.5473851" lon="7.7255615"><ele>377.5</ele><time>2026-04-12T10:44:44.994Z</time></trkpt><trkpt lat="44.5473929" lon="7.7254253"><ele>378.0</ele><time>2026-04-12T10:44:46.994Z</time></trkpt><trkpt lat="44.5474028" lon="7.7252958"><ele>377.5</ele><time>2026-04-12T10:44:48.994Z</time></trkpt><trkpt lat="44.5474227" lon="7.7251589"><ele>377.0</ele><time>2026-04-12T10:44:50.994Z</time></trkpt><trkpt lat="44.5474242" lon="7.725038"><ele>376.5</ele><time>2026-04-12T10:44:52.994Z</time></trkpt><trkpt lat="44.54742" lon="7.7249241"><ele>376.0</ele><time>2026-04-12T10:44:54.995Z</time></trkpt><trkpt lat="44.5474388" lon="7.7248"><ele>375.5</ele><time>2026-04-12T10:44:56.994Z</time></trkpt><trkpt lat="44.5474429" lon="7.7247111"><ele>375.0</ele><time>2026-04-12T10:45:05.994Z</time></trkpt><trkpt lat="44.5475116" lon="7.7246936"><ele>375.0</ele><time>2026-04-12T10:45:08.994Z</time></trkpt><trkpt lat="44.5475803" lon="7.7247208"><ele>375.0</ele><time>2026-04-12T10:45:10.995Z</time></trkpt><trkpt lat="44.5476534" lon="7.7247386"><ele>375.0</ele><time>2026-04-12T10:45:12.994Z</time></trkpt><trkpt lat="44.5477237" lon="7.7247544"><ele>375.0</ele><time>2026-04-12T10:45:14.995Z</time></trkpt><trkpt lat="44.5477878" lon="7.7247529"><ele>375.0</ele><time>2026-04-12T10:45:16.995Z</time></trkpt><trkpt lat="44.5478549" lon="7.7247651"><ele>375.0</ele><time>2026-04-12T10:45:18.995Z</time></trkpt><trkpt lat="44.5479255" lon="7.7247869"><ele>375.0</ele><time>2026-04-12T10:45:20.994Z</time></trkpt><trkpt lat="44.5479988" lon="7.7248041"><ele>376.4</ele><time>2026-04-12T10:45:22.995Z</time></trkpt><trkpt lat="44.5480673" lon="7.7248081"><ele>377.8</ele><time>2026-04-12T10:45:24.995Z</time></trkpt><trkpt lat="44.5481421" lon="7.7248156"><ele>379.20000000000005</ele><time>2026-04-12T10:45:26.995Z</time></trkpt><trkpt lat="44.5482261" lon="7.7248253"><ele>380.6</ele><time>2026-04-12T10:45:28.994Z</time></trkpt><trkpt lat="44.5483477" lon="7.7248377"><ele>382.0</ele><time>2026-04-12T10:45:30.995Z</time></trkpt><trkpt lat="44.5484594" lon="7.7248513"><ele>382.0</ele><time>2026-04-12T10:45:32.994Z</time></trkpt><trkpt lat="44.5485578" lon="7.7248764"><ele>382.0</ele><time>2026-04-12T10:45:34.994Z</time></trkpt><trkpt lat="44.5486417" lon="7.7248925"><ele>382.0</ele><time>2026-04-12T10:45:36.995Z</time></trkpt><trkpt lat="44.5487184" lon="7.7248979"><ele>382.0</ele><time>2026-04-12T10:45:38.994Z</time></trkpt><trkpt lat="44.54879" lon="7.7249136"><ele>382.0</ele><time>2026-04-12T10:45:41.994Z</time></trkpt><trkpt lat="44.5488797" lon="7.7249316"><ele>382.0</ele><time>2026-04-12T10:45:44.994Z</time></trkpt><trkpt lat="44.5489593" lon="7.7249415"><ele>382.8333333333333</ele><time>2026-04-12T10:45:46.994Z</time></trkpt><trkpt lat="44.5490471" lon="7.7249372"><ele>383.66666666666663</ele><time>2026-04-12T10:45:48.994Z</time></trkpt><trkpt lat="44.5491336" lon="7.7249547"><ele>384.5</ele><time>2026-04-12T10:45:51.994Z</time></trkpt><trkpt lat="44.5491795" lon="7.7250379"><ele>385.3333333333333</ele><time>2026-04-12T10:45:55.994Z</time></trkpt><trkpt lat="44.5492409" lon="7.7250055"><ele>386.1666666666667</ele><time>2026-04-12T10:46:01.994Z</time></trkpt><trkpt lat="44.5492433" lon="7.7249121"><ele>387.0</ele><time>2026-04-12T10:46:05.995Z</time></trkpt><trkpt lat="44.5492364" lon="7.7248154"><ele>387.0</ele><time>2026-04-12T10:46:06.994Z</time></trkpt><trkpt lat="44.5492241" lon="7.7246968"><ele>387.0</ele><time>2026-04-12T10:46:08.994Z</time></trkpt><trkpt lat="44.5491314" lon="7.7251224"><ele>387.0</ele><time>2026-04-12T10:46:11.995Z</time></trkpt><trkpt lat="44.549189" lon="7.7249824"><ele>387.0</ele><time>2026-04-12T10:46:25.995Z</time></trkpt><trkpt lat="44.5491535" lon="7.7247634"><ele>387.0</ele><time>2026-04-12T10:46:56.912Z</time></trkpt><trkpt lat="44.5491139" lon="7.724833"><ele>387.0</ele><time>2026-04-12T10:47:23.902Z</time></trkpt><trkpt lat="44.5491528" lon="7.7249174"><ele>387.0</ele><time>2026-04-12T10:47:41.855Z</time></trkpt><trkpt lat="44.5490939" lon="7.724881"><ele>387.0</ele><time>2026-04-12T11:04:17.96Z</time></trkpt><trkpt lat="44.5490426" lon="7.7247873"><ele>387.0</ele><time>2026-04-12T11:04:58.993Z</time></trkpt><trkpt lat="44.5490536" lon="7.7249618"><ele>387.0</ele><time>2026-04-12T11:05:04.994Z</time></trkpt><trkpt lat="44.5491527" lon="7.7249752"><ele>387.0</ele><time>2026-04-12T11:05:07.993Z</time></trkpt><trkpt lat="44.5492313" lon="7.7249924"><ele>387.0</ele><time>2026-04-12T11:05:09.993Z</time></trkpt><trkpt lat="44.5493095" lon="7.7250094"><ele>387.0</ele><time>2026-04-12T11:05:11.993Z</time></trkpt><trkpt lat="44.5493842" lon="7.7250257"><ele>387.0</ele><time>2026-04-12T11:05:13.993Z</time></trkpt><trkpt lat="44.5494603" lon="7.7250428"><ele>387.0</ele><time>2026-04-12T11:05:15.994Z</time></trkpt><trkpt lat="44.5495375" lon="7.7250632"><ele>386.3333333333333</ele><time>2026-04-12T11:05:17.993Z</time></trkpt><trkpt lat="44.5496132" lon="7.7250783"><ele>385.6666666666667</ele><time>2026-04-12T11:05:19.993Z</time></trkpt><trkpt lat="44.5496876" lon="7.7250956"><ele>385.0</ele><time>2026-04-12T11:05:21.993Z</time></trkpt><trkpt lat="44.5497614" lon="7.725111"><ele>384.33333333333337</ele><time>2026-04-12T11:05:23.994Z</time></trkpt><trkpt lat="44.5498344" lon="7.7251291"><ele>383.6666666666667</ele><time>2026-04-12T11:05:25.993Z</time></trkpt><trkpt lat="44.5499096" lon="7.7251468"><ele>383.0</ele><time>2026-04-12T11:05:27.993Z</time></trkpt><trkpt lat="44.5499865" lon="7.7251606"><ele>383.0</ele><time>2026-04-12T11:05:29.993Z</time></trkpt><trkpt lat="44.5500653" lon="7.7251718"><ele>383.0</ele><time>2026-04-12T11:05:31.993Z</time></trkpt><trkpt lat="44.5501444" lon="7.7251826"><ele>383.0</ele><time>2026-04-12T11:05:33.993Z</time></trkpt><trkpt lat="44.550221" lon="7.7251976"><ele>383.0</ele><time>2026-04-12T11:05:35.993Z</time></trkpt><trkpt lat="44.5502985" lon="7.7252109"><ele>383.0</ele><time>2026-04-12T11:05:37.993Z</time></trkpt><trkpt lat="44.5503765" lon="7.7252217"><ele>383.0</ele><time>2026-04-12T11:05:39.993Z</time></trkpt><trkpt lat="44.5504693" lon="7.7252354"><ele>382.4</ele><time>2026-04-12T11:05:41.993Z</time></trkpt><trkpt lat="44.5505601" lon="7.7252597"><ele>381.79999999999995</ele><time>2026-04-12T11:05:43.993Z</time></trkpt><trkpt lat="44.5506628" lon="7.7252762"><ele>381.2</ele><time>2026-04-12T11:05:45.993Z</time></trkpt><trkpt lat="44.5507642" lon="7.7252919"><ele>380.6</ele><time>2026-04-12T11:05:47.993Z</time></trkpt><trkpt lat="44.550862" lon="7.7253042"><ele>380.0</ele><time>2026-04-12T11:05:49.993Z</time></trkpt><trkpt lat="44.5509567" lon="7.7253153"><ele>380.0</ele><time>2026-04-12T11:05:51.994Z</time></trkpt><trkpt lat="44.5510489" lon="7.7253271"><ele>380.0</ele><time>2026-04-12T11:05:53.993Z</time></trkpt><trkpt lat="44.5511426" lon="7.7253377"><ele>380.0</ele><time>2026-04-12T11:05:55.994Z</time></trkpt><trkpt lat="44.5512382" lon="7.7253539"><ele>380.0</ele><time>2026-04-12T11:05:57.993Z</time></trkpt><trkpt lat="44.5513314" lon="7.7253664"><ele>380.0</ele><time>2026-04-12T11:05:59.993Z</time></trkpt><trkpt lat="44.5514227" lon="7.7253826"><ele>379.8</ele><time>2026-04-12T11:06:01.993Z</time></trkpt><trkpt lat="44.5515254" lon="7.7254171"><ele>379.6</ele><time>2026-04-12T11:06:03.994Z</time></trkpt><trkpt lat="44.551618" lon="7.7254449"><ele>379.4</ele><time>2026-04-12T11:06:05.993Z</time></trkpt><trkpt lat="44.551719" lon="7.7254641"><ele>379.2</ele><time>2026-04-12T11:06:07.994Z</time></trkpt><trkpt lat="44.5518176" lon="7.7254797"><ele>379.0</ele><time>2026-04-12T11:06:09.993Z</time></trkpt><trkpt lat="44.5519035" lon="7.7254991"><ele>379.0</ele><time>2026-04-12T11:06:11.993Z</time></trkpt><trkpt lat="44.5519662" lon="7.7255604"><ele>379.0</ele><time>2026-04-12T11:06:13.994Z</time></trkpt><trkpt lat="44.5519995" lon="7.7256361"><ele>379.0</ele><time>2026-04-12T11:06:15.993Z</time></trkpt><trkpt lat="44.5520013" lon="7.7257319"><ele>379.0</ele><time>2026-04-12T11:06:17.994Z</time></trkpt><trkpt lat="44.5520167" lon="7.7258453"><ele>379.0</ele><time>2026-04-12T11:06:19.993Z</time></trkpt><trkpt lat="44.5520272" lon="7.725979"><ele>379.0</ele><time>2026-04-12T11:06:21.994Z</time></trkpt><trkpt lat="44.5520306" lon="7.7261178"><ele>378.0</ele><time>2026-04-12T11:06:23.994Z</time></trkpt><trkpt lat="44.5520469" lon="7.7262595"><ele>377.0</ele><time>2026-04-12T11:06:25.993Z</time></trkpt><trkpt lat="44.5521283" lon="7.7263218"><ele>376.0</ele><time>2026-04-12T11:06:27.993Z</time></trkpt><trkpt lat="44.5522233" lon="7.7263081"><ele>375.0</ele><time>2026-04-12T11:06:29.994Z</time></trkpt><trkpt lat="44.552334" lon="7.726314"><ele>374.0</ele><time>2026-04-12T11:06:31.994Z</time></trkpt><trkpt lat="44.5524354" lon="7.7263073"><ele>374.0</ele><time>2026-04-12T11:06:33.993Z</time></trkpt><trkpt lat="44.5525307" lon="7.7263007"><ele>374.0</ele><time>2026-04-12T11:06:35.993Z</time></trkpt><trkpt lat="44.5526238" lon="7.7262934"><ele>374.0</ele><time>2026-04-12T11:06:37.994Z</time></trkpt><trkpt lat="44.5527191" lon="7.7262911"><ele>374.0</ele><time>2026-04-12T11:06:39.994Z</time></trkpt><trkpt lat="44.5528154" lon="7.7263139"><ele>374.0</ele><time>2026-04-12T11:06:41.994Z</time></trkpt><trkpt lat="44.5529045" lon="7.7263521"><ele>374.2</ele><time>2026-04-12T11:06:43.993Z</time></trkpt><trkpt lat="44.5530029" lon="7.7263605"><ele>374.4</ele><time>2026-04-12T11:06:45.994Z</time></trkpt><trkpt lat="44.5530956" lon="7.726356"><ele>374.6</ele><time>2026-04-12T11:06:47.993Z</time></trkpt><trkpt lat="44.5531877" lon="7.7263668"><ele>374.8</ele><time>2026-04-12T11:06:49.994Z</time></trkpt><trkpt lat="44.5532886" lon="7.7263881"><ele>375.0</ele><time>2026-04-12T11:06:51.994Z</time></trkpt><trkpt lat="44.5533791" lon="7.7263895"><ele>375.0</ele><time>2026-04-12T11:06:53.993Z</time></trkpt><trkpt lat="44.5534735" lon="7.7263897"><ele>375.0</ele><time>2026-04-12T11:06:55.993Z</time></trkpt><trkpt lat="44.5535541" lon="7.7263882"><ele>375.0</ele><time>2026-04-12T11:06:57.993Z</time></trkpt><trkpt lat="44.5536419" lon="7.7263654"><ele>375.0</ele><time>2026-04-12T11:07:00.993Z</time></trkpt><trkpt lat="44.5536739" lon="7.7262554"><ele>375.0</ele><time>2026-04-12T11:07:02.994Z</time></trkpt><trkpt lat="44.5537032" lon="7.726139"><ele>375.0</ele><time>2026-04-12T11:07:04.993Z</time></trkpt><trkpt lat="44.5537064" lon="7.7259914"><ele>374.8</ele><time>2026-04-12T11:07:06.993Z</time></trkpt><trkpt lat="44.5537186" lon="7.7258583"><ele>374.6</ele><time>2026-04-12T11:07:08.994Z</time></trkpt><trkpt lat="44.5537309" lon="7.7257218"><ele>374.4</ele><time>2026-04-12T11:07:10.993Z</time></trkpt><trkpt lat="44.5537402" lon="7.7255831"><ele>374.2</ele><time>2026-04-12T11:07:12.993Z</time></trkpt><trkpt lat="44.55375" lon="7.7254473"><ele>374.0</ele><time>2026-04-12T11:07:14.993Z</time></trkpt><trkpt lat="44.5538114" lon="7.7253473"><ele>374.0</ele><time>2026-04-12T11:07:16.993Z</time></trkpt><trkpt lat="44.5539121" lon="7.7253055"><ele>374.0</ele><time>2026-04-12T11:07:18.993Z</time></trkpt><trkpt lat="44.5540165" lon="7.7252629"><ele>374.0</ele><time>2026-04-12T11:07:20.993Z</time></trkpt><trkpt lat="44.5541277" lon="7.7252126"><ele>374.0</ele><time>2026-04-12T11:07:22.993Z</time></trkpt><trkpt lat="44.5542311" lon="7.7251763"><ele>374.0</ele><time>2026-04-12T11:07:24.993Z</time></trkpt><trkpt lat="44.5543365" lon="7.7251292"><ele>374.25</ele><time>2026-04-12T11:07:26.993Z</time></trkpt><trkpt lat="44.5544394" lon="7.7250915"><ele>374.5</ele><time>2026-04-12T11:07:28.994Z</time></trkpt><trkpt lat="44.5545482" lon="7.7250474"><ele>374.75</ele><time>2026-04-12T11:07:30.993Z</time></trkpt><trkpt lat="44.5546613" lon="7.7250159"><ele>375.0</ele><time>2026-04-12T11:07:32.993Z</time></trkpt><trkpt lat="44.5547733" lon="7.7249565"><ele>374.6</ele><time>2026-04-12T11:07:34.994Z</time></trkpt><trkpt lat="44.5548964" lon="7.7248898"><ele>374.2</ele><time>2026-04-12T11:07:36.994Z</time></trkpt><trkpt lat="44.5549617" lon="7.7248591"><ele>373.79999999999995</ele><time>2026-04-12T11:07:37.994Z</time></trkpt><trkpt lat="44.5550265" lon="7.7248365"><ele>373.4</ele><time>2026-04-12T11:07:38.994Z</time></trkpt><trkpt lat="44.5551406" lon="7.7247734"><ele>373.0</ele><time>2026-04-12T11:07:40.994Z</time></trkpt><trkpt lat="44.5552053" lon="7.7247458"><ele>373.0</ele><time>2026-04-12T11:07:41.992Z</time></trkpt><trkpt lat="44.5553288" lon="7.7246866"><ele>373.0</ele><time>2026-04-12T11:07:43.992Z</time></trkpt><trkpt lat="44.5553904" lon="7.7246589"><ele>373.0</ele><time>2026-04-12T11:07:44.993Z</time></trkpt><trkpt lat="44.5554525" lon="7.7246307"><ele>373.0</ele><time>2026-04-12T11:07:45.993Z</time></trkpt><trkpt lat="44.555575" lon="7.7245757"><ele>373.0</ele><time>2026-04-12T11:07:47.993Z</time></trkpt><trkpt lat="44.5556376" lon="7.7245438"><ele>372.8333333333333</ele><time>2026-04-12T11:07:48.993Z</time></trkpt><trkpt lat="44.5556993" lon="7.724509"><ele>372.66666666666663</ele><time>2026-04-12T11:07:49.993Z</time></trkpt><trkpt lat="44.5557639" lon="7.7244828"><ele>372.5</ele><time>2026-04-12T11:07:50.993Z</time></trkpt><trkpt lat="44.5558849" lon="7.724478"><ele>372.3333333333333</ele><time>2026-04-12T11:07:52.993Z</time></trkpt><trkpt lat="44.5560073" lon="7.7244714"><ele>372.1666666666667</ele><time>2026-04-12T11:07:54.993Z</time></trkpt><trkpt lat="44.5560589" lon="7.7244152"><ele>372.0</ele><time>2026-04-12T11:07:55.994Z</time></trkpt><trkpt lat="44.5560992" lon="7.7243416"><ele>371.0</ele><time>2026-04-12T11:07:56.993Z</time></trkpt><trkpt lat="44.5561398" lon="7.7242574"><ele>370.0</ele><time>2026-04-12T11:07:57.993Z</time></trkpt><trkpt lat="44.5561669" lon="7.7241642"><ele>369.0</ele><time>2026-04-12T11:07:58.993Z</time></trkpt><trkpt lat="44.5562023" lon="7.7240678"><ele>368.0</ele><time>2026-04-12T11:07:59.993Z</time></trkpt><trkpt lat="44.5562378" lon="7.7239645"><ele>367.0</ele><time>2026-04-12T11:08:00.993Z</time></trkpt><trkpt lat="44.5562913" lon="7.723874"><ele>366.0</ele><time>2026-04-12T11:08:01.993Z</time></trkpt><trkpt lat="44.5563442" lon="7.7237731"><ele>366.0</ele><time>2026-04-12T11:08:02.994Z</time></trkpt><trkpt lat="44.5563956" lon="7.7236656"><ele>366.0</ele><time>2026-04-12T11:08:03.994Z</time></trkpt><trkpt lat="44.5564459" lon="7.7235645"><ele>366.0</ele><time>2026-04-12T11:08:04.993Z</time></trkpt><trkpt lat="44.5564976" lon="7.7234536"><ele>366.0</ele><time>2026-04-12T11:08:05.993Z</time></trkpt><trkpt lat="44.5565479" lon="7.7233467"><ele>366.0</ele><time>2026-04-12T11:08:06.993Z</time></trkpt><trkpt lat="44.5565953" lon="7.72324"><ele>364.4</ele><time>2026-04-12T11:08:07.993Z</time></trkpt><trkpt lat="44.5566427" lon="7.7231238"><ele>362.8</ele><time>2026-04-12T11:08:08.993Z</time></trkpt><trkpt lat="44.5566843" lon="7.7230033"><ele>361.2</ele><time>2026-04-12T11:08:09.993Z</time></trkpt><trkpt lat="44.5567244" lon="7.7228792"><ele>359.59999999999997</ele><time>2026-04-12T11:08:10.993Z</time></trkpt><trkpt lat="44.5567591" lon="7.7227512"><ele>358.0</ele><time>2026-04-12T11:08:11.993Z</time></trkpt><trkpt lat="44.5567938" lon="7.7226228"><ele>357.66666666666663</ele><time>2026-04-12T11:08:12.993Z</time></trkpt><trkpt lat="44.5568293" lon="7.7224913"><ele>357.3333333333333</ele><time>2026-04-12T11:08:13.994Z</time></trkpt><trkpt lat="44.5568599" lon="7.7223622"><ele>357.0</ele><time>2026-04-12T11:08:14.993Z</time></trkpt><trkpt lat="44.5568861" lon="7.7222389"><ele>356.6666666666667</ele><time>2026-04-12T11:08:15.993Z</time></trkpt><trkpt lat="44.5569139" lon="7.7221325"><ele>356.33333333333337</ele><time>2026-04-12T11:08:16.994Z</time></trkpt><trkpt lat="44.5569395" lon="7.7220442"><ele>356.0</ele><time>2026-04-12T11:08:17.993Z</time></trkpt><trkpt lat="44.5570163" lon="7.7219398"><ele>355.5</ele><time>2026-04-12T11:08:19.993Z</time></trkpt><trkpt lat="44.5571165" lon="7.7219303"><ele>355.0</ele><time>2026-04-12T11:08:21.993Z</time></trkpt><trkpt lat="44.5572229" lon="7.7219878"><ele>354.5</ele><time>2026-04-12T11:08:23.993Z</time></trkpt><trkpt lat="44.5573267" lon="7.7220665"><ele>354.0</ele><time>2026-04-12T11:08:25.994Z</time></trkpt><trkpt lat="44.5574396" lon="7.7221257"><ele>354.0</ele><time>2026-04-12T11:08:27.993Z</time></trkpt><trkpt lat="44.5575" lon="7.7221519"><ele>354.0</ele><time>2026-04-12T11:08:28.994Z</time></trkpt><trkpt lat="44.5576205" lon="7.7222029"><ele>354.0</ele><time>2026-04-12T11:08:30.994Z</time></trkpt><trkpt lat="44.5576818" lon="7.7222324"><ele>354.0</ele><time>2026-04-12T11:08:31.992Z</time></trkpt><trkpt lat="44.5578013" lon="7.7222701"><ele>354.0</ele><time>2026-04-12T11:08:33.993Z</time></trkpt><trkpt lat="44.5579194" lon="7.7222956"><ele>353.79999999999995</ele><time>2026-04-12T11:08:35.993Z</time></trkpt><trkpt lat="44.5579817" lon="7.7223096"><ele>353.59999999999997</ele><time>2026-04-12T11:08:36.993Z</time></trkpt><trkpt lat="44.558103" lon="7.7223277"><ele>353.4</ele><time>2026-04-12T11:08:38.993Z</time></trkpt><trkpt lat="44.5581658" lon="7.7223363"><ele>353.2</ele><time>2026-04-12T11:08:39.993Z</time></trkpt><trkpt lat="44.558287" lon="7.7223339"><ele>353.0</ele><time>2026-04-12T11:08:41.993Z</time></trkpt><trkpt lat="44.5584078" lon="7.7223552"><ele>353.0</ele><time>2026-04-12T11:08:43.993Z</time></trkpt><trkpt lat="44.5584718" lon="7.7223672"><ele>353.0</ele><time>2026-04-12T11:08:44.993Z</time></trkpt><trkpt lat="44.5585889" lon="7.7223855"><ele>353.0</ele><time>2026-04-12T11:08:46.994Z</time></trkpt><trkpt lat="44.5587113" lon="7.7223856"><ele>353.0</ele><time>2026-04-12T11:08:48.993Z</time></trkpt><trkpt lat="44.5588322" lon="7.7223849"><ele>353.0</ele><time>2026-04-12T11:08:50.993Z</time></trkpt><trkpt lat="44.55895" lon="7.7223829"><ele>352.79999999999995</ele><time>2026-04-12T11:08:52.993Z</time></trkpt><trkpt lat="44.5590625" lon="7.7223638"><ele>352.6</ele><time>2026-04-12T11:08:54.993Z</time></trkpt><trkpt lat="44.559165" lon="7.7223286"><ele>352.4</ele><time>2026-04-12T11:08:56.993Z</time></trkpt><trkpt lat="44.5592691" lon="7.722287"><ele>352.20000000000005</ele><time>2026-04-12T11:08:58.993Z</time></trkpt><trkpt lat="44.5593806" lon="7.7222403"><ele>352.0</ele><time>2026-04-12T11:09:00.993Z</time></trkpt><trkpt lat="44.5594882" lon="7.7221928"><ele>351.40000000000003</ele><time>2026-04-12T11:09:02.993Z</time></trkpt><trkpt lat="44.5595986" lon="7.7221421"><ele>350.8</ele><time>2026-04-12T11:09:04.993Z</time></trkpt><trkpt lat="44.559706" lon="7.7220992"><ele>350.2</ele><time>2026-04-12T11:09:06.994Z</time></trkpt><trkpt lat="44.5598139" lon="7.7220417"><ele>349.6</ele><time>2026-04-12T11:09:08.993Z</time></trkpt><trkpt lat="44.559874" lon="7.7220148"><ele>349.0</ele><time>2026-04-12T11:09:09.993Z</time></trkpt><trkpt lat="44.5599806" lon="7.7219677"><ele>349.0</ele><time>2026-04-12T11:09:11.994Z</time></trkpt><trkpt lat="44.5600848" lon="7.7219144"><ele>349.0</ele><time>2026-04-12T11:09:13.993Z</time></trkpt><trkpt lat="44.5601891" lon="7.7218695"><ele>349.0</ele><time>2026-04-12T11:09:15.993Z</time></trkpt><trkpt lat="44.5602967" lon="7.7218306"><ele>349.0</ele><time>2026-04-12T11:09:17.993Z</time></trkpt><trkpt lat="44.5604031" lon="7.7217793"><ele>349.0</ele><time>2026-04-12T11:09:19.994Z</time></trkpt><trkpt lat="44.5605155" lon="7.7217349"><ele>349.0</ele><time>2026-04-12T11:09:21.994Z</time></trkpt><trkpt lat="44.5606248" lon="7.7216876"><ele>349.0</ele><time>2026-04-12T11:09:23.994Z</time></trkpt><trkpt lat="44.5607362" lon="7.7216416"><ele>349.0</ele><time>2026-04-12T11:09:25.993Z</time></trkpt><trkpt lat="44.5608519" lon="7.7216065"><ele>349.0</ele><time>2026-04-12T11:09:27.992Z</time></trkpt><trkpt lat="44.5609691" lon="7.7215808"><ele>349.0</ele><time>2026-04-12T11:09:29.993Z</time></trkpt><trkpt lat="44.5610855" lon="7.7215691"><ele>349.0</ele><time>2026-04-12T11:09:31.992Z</time></trkpt><trkpt lat="44.561202" lon="7.7215704"><ele>349.0</ele><time>2026-04-12T11:09:33.993Z</time></trkpt><trkpt lat="44.5613201" lon="7.7215698"><ele>349.0</ele><time>2026-04-12T11:09:35.993Z</time></trkpt><trkpt lat="44.5614371" lon="7.7215722"><ele>348.25</ele><time>2026-04-12T11:09:37.993Z</time></trkpt><trkpt lat="44.5615525" lon="7.7215718"><ele>347.5</ele><time>2026-04-12T11:09:39.993Z</time></trkpt><trkpt lat="44.561666" lon="7.7215659"><ele>346.75</ele><time>2026-04-12T11:09:41.994Z</time></trkpt><trkpt lat="44.5617806" lon="7.7215621"><ele>346.0</ele><time>2026-04-12T11:09:43.992Z</time></trkpt><trkpt lat="44.5618955" lon="7.7215623"><ele>346.0</ele><time>2026-04-12T11:09:45.993Z</time></trkpt><trkpt lat="44.5620087" lon="7.7215663"><ele>346.0</ele><time>2026-04-12T11:09:47.993Z</time></trkpt><trkpt lat="44.5621236" lon="7.7215629"><ele>346.0</ele><time>2026-04-12T11:09:49.993Z</time></trkpt><trkpt lat="44.5622334" lon="7.7215594"><ele>346.0</ele><time>2026-04-12T11:09:51.994Z</time></trkpt><trkpt lat="44.562343" lon="7.7215601"><ele>346.0</ele><time>2026-04-12T11:09:53.994Z</time></trkpt><trkpt lat="44.5624562" lon="7.7215613"><ele>346.0</ele><time>2026-04-12T11:09:55.994Z</time></trkpt><trkpt lat="44.5625755" lon="7.7215599"><ele>346.0</ele><time>2026-04-12T11:09:57.993Z</time></trkpt><trkpt lat="44.562691" lon="7.7215414"><ele>346.0</ele><time>2026-04-12T11:09:59.994Z</time></trkpt><trkpt lat="44.5628066" lon="7.7214859"><ele>346.0</ele><time>2026-04-12T11:10:01.994Z</time></trkpt><trkpt lat="44.5629175" lon="7.7214585"><ele>346.20000000000005</ele><time>2026-04-12T11:10:03.993Z</time></trkpt><trkpt lat="44.5630241" lon="7.7214276"><ele>346.40000000000003</ele><time>2026-04-12T11:10:05.993Z</time></trkpt><trkpt lat="44.5631223" lon="7.7213741"><ele>346.6</ele><time>2026-04-12T11:10:07.992Z</time></trkpt><trkpt lat="44.5632296" lon="7.7213208"><ele>346.8</ele><time>2026-04-12T11:10:09.993Z</time></trkpt><trkpt lat="44.5633352" lon="7.7212606"><ele>347.0</ele><time>2026-04-12T11:10:11.993Z</time></trkpt><trkpt lat="44.5633957" lon="7.7212248"><ele>347.0</ele><time>2026-04-12T11:10:12.993Z</time></trkpt><trkpt lat="44.5634977" lon="7.7211615"><ele>347.0</ele><time>2026-04-12T11:10:14.993Z</time></trkpt><trkpt lat="44.5636044" lon="7.7210947"><ele>347.0</ele><time>2026-04-12T11:10:16.994Z</time></trkpt><trkpt lat="44.5637097" lon="7.7210189"><ele>347.0</ele><time>2026-04-12T11:10:18.993Z</time></trkpt><trkpt lat="44.5638144" lon="7.7209407"><ele>347.25</ele><time>2026-04-12T11:10:20.993Z</time></trkpt><trkpt lat="44.5639214" lon="7.7208603"><ele>347.5</ele><time>2026-04-12T11:10:22.994Z</time></trkpt><trkpt lat="44.564026" lon="7.7207831"><ele>347.75</ele><time>2026-04-12T11:10:24.993Z</time></trkpt><trkpt lat="44.5641453" lon="7.7206961"><ele>348.0</ele><time>2026-04-12T11:10:26.993Z</time></trkpt><trkpt lat="44.5642379" lon="7.7206272"><ele>348.0</ele><time>2026-04-12T11:10:28.994Z</time></trkpt><trkpt lat="44.5643356" lon="7.7205539"><ele>348.0</ele><time>2026-04-12T11:10:30.993Z</time></trkpt><trkpt lat="44.5644367" lon="7.7204675"><ele>348.0</ele><time>2026-04-12T11:10:32.993Z</time></trkpt><trkpt lat="44.564542" lon="7.7203929"><ele>348.0</ele><time>2026-04-12T11:10:34.993Z</time></trkpt><trkpt lat="44.5646405" lon="7.7203162"><ele>347.75</ele><time>2026-04-12T11:10:36.993Z</time></trkpt><trkpt lat="44.5647443" lon="7.7202409"><ele>347.5</ele><time>2026-04-12T11:10:38.993Z</time></trkpt><trkpt lat="44.564847" lon="7.7201742"><ele>347.25</ele><time>2026-04-12T11:10:40.993Z</time></trkpt><trkpt lat="44.5649544" lon="7.7200913"><ele>347.0</ele><time>2026-04-12T11:10:42.993Z</time></trkpt><trkpt lat="44.5650509" lon="7.7199895"><ele>347.25</ele><time>2026-04-12T11:10:44.993Z</time></trkpt><trkpt lat="44.5651514" lon="7.7199135"><ele>347.5</ele><time>2026-04-12T11:10:46.993Z</time></trkpt><trkpt lat="44.5652472" lon="7.7198337"><ele>347.75</ele><time>2026-04-12T11:10:48.993Z</time></trkpt><trkpt lat="44.5653506" lon="7.7197543"><ele>348.0</ele><time>2026-04-12T11:10:50.993Z</time></trkpt><trkpt lat="44.5654497" lon="7.7196775"><ele>348.0</ele><time>2026-04-12T11:10:52.993Z</time></trkpt><trkpt lat="44.5655525" lon="7.7195878"><ele>348.0</ele><time>2026-04-12T11:10:54.994Z</time></trkpt><trkpt lat="44.5656497" lon="7.7195263"><ele>348.0</ele><time>2026-04-12T11:10:56.993Z</time></trkpt><trkpt lat="44.5657569" lon="7.719454"><ele>348.0</ele><time>2026-04-12T11:10:58.992Z</time></trkpt><trkpt lat="44.5658526" lon="7.7193783"><ele>348.0</ele><time>2026-04-12T11:11:00.992Z</time></trkpt><trkpt lat="44.5659532" lon="7.7192992"><ele>348.0</ele><time>2026-04-12T11:11:02.994Z</time></trkpt><trkpt lat="44.5660492" lon="7.7192277"><ele>348.0</ele><time>2026-04-12T11:11:04.994Z</time></trkpt><trkpt lat="44.5661444" lon="7.7191619"><ele>348.0</ele><time>2026-04-12T11:11:06.993Z</time></trkpt><trkpt lat="44.5662367" lon="7.7190914"><ele>348.0</ele><time>2026-04-12T11:11:08.993Z</time></trkpt><trkpt lat="44.5663334" lon="7.7190273"><ele>347.59999999999997</ele><time>2026-04-12T11:11:10.993Z</time></trkpt><trkpt lat="44.5664319" lon="7.7189562"><ele>347.2</ele><time>2026-04-12T11:11:12.993Z</time></trkpt><trkpt lat="44.5665384" lon="7.718903"><ele>346.8</ele><time>2026-04-12T11:11:14.993Z</time></trkpt><trkpt lat="44.5666437" lon="7.7188653"><ele>346.4</ele><time>2026-04-12T11:11:16.992Z</time></trkpt><trkpt lat="44.5667521" lon="7.7188213"><ele>346.0</ele><time>2026-04-12T11:11:18.992Z</time></trkpt><trkpt lat="44.5668561" lon="7.7187729"><ele>346.0</ele><time>2026-04-12T11:11:20.993Z</time></trkpt><trkpt lat="44.5669619" lon="7.7187266"><ele>346.0</ele><time>2026-04-12T11:11:22.993Z</time></trkpt><trkpt lat="44.5670692" lon="7.7186692"><ele>346.0</ele><time>2026-04-12T11:11:24.993Z</time></trkpt><trkpt lat="44.5671702" lon="7.7186264"><ele>346.0</ele><time>2026-04-12T11:11:26.993Z</time></trkpt><trkpt lat="44.5672695" lon="7.7185809"><ele>346.0</ele><time>2026-04-12T11:11:28.993Z</time></trkpt><trkpt lat="44.5673689" lon="7.7185416"><ele>345.8</ele><time>2026-04-12T11:11:30.994Z</time></trkpt><trkpt lat="44.5674682" lon="7.7184972"><ele>345.6</ele><time>2026-04-12T11:11:32.993Z</time></trkpt><trkpt lat="44.5675686" lon="7.7184528"><ele>345.4</ele><time>2026-04-12T11:11:34.993Z</time></trkpt><trkpt lat="44.5676633" lon="7.7184098"><ele>345.2</ele><time>2026-04-12T11:11:36.994Z</time></trkpt><trkpt lat="44.5677654" lon="7.718361"><ele>345.0</ele><time>2026-04-12T11:11:38.993Z</time></trkpt><trkpt lat="44.5678613" lon="7.7183168"><ele>344.8</ele><time>2026-04-12T11:11:40.993Z</time></trkpt><trkpt lat="44.5679627" lon="7.7182729"><ele>344.6</ele><time>2026-04-12T11:11:42.993Z</time></trkpt><trkpt lat="44.5680514" lon="7.7181967"><ele>344.4</ele><time>2026-04-12T11:11:44.993Z</time></trkpt><trkpt lat="44.5681093" lon="7.7180787"><ele>344.2</ele><time>2026-04-12T11:11:46.993Z</time></trkpt><trkpt lat="44.5681369" lon="7.7179378"><ele>344.0</ele><time>2026-04-12T11:11:48.993Z</time></trkpt><trkpt lat="44.5681593" lon="7.7178004"><ele>343.79999999999995</ele><time>2026-04-12T11:11:50.993Z</time></trkpt><trkpt lat="44.5681811" lon="7.7176616"><ele>343.59999999999997</ele><time>2026-04-12T11:11:52.994Z</time></trkpt><trkpt lat="44.5681987" lon="7.7175209"><ele>343.4</ele><time>2026-04-12T11:11:54.993Z</time></trkpt><trkpt lat="44.5682194" lon="7.7173817"><ele>343.2</ele><time>2026-04-12T11:11:56.993Z</time></trkpt><trkpt lat="44.5682409" lon="7.7172437"><ele>343.0</ele><time>2026-04-12T11:11:58.993Z</time></trkpt><trkpt lat="44.5682589" lon="7.7171074"><ele>343.0</ele><time>2026-04-12T11:12:00.993Z</time></trkpt><trkpt lat="44.5682862" lon="7.7169743"><ele>343.0</ele><time>2026-04-12T11:12:02.994Z</time></trkpt><trkpt lat="44.5683059" lon="7.7168296"><ele>343.0</ele><time>2026-04-12T11:12:04.993Z</time></trkpt><trkpt lat="44.5683291" lon="7.7166871"><ele>343.0</ele><time>2026-04-12T11:12:06.992Z</time></trkpt><trkpt lat="44.5683485" lon="7.7165524"><ele>343.0</ele><time>2026-04-12T11:12:08.993Z</time></trkpt><trkpt lat="44.5683604" lon="7.7164158"><ele>343.4</ele><time>2026-04-12T11:12:10.992Z</time></trkpt><trkpt lat="44.5683768" lon="7.7162804"><ele>343.79999999999995</ele><time>2026-04-12T11:12:12.993Z</time></trkpt><trkpt lat="44.5683962" lon="7.7161412"><ele>344.2</ele><time>2026-04-12T11:12:14.993Z</time></trkpt><trkpt lat="44.568411" lon="7.7159879"><ele>344.6</ele><time>2026-04-12T11:12:16.993Z</time></trkpt><trkpt lat="44.5684495" lon="7.7158547"><ele>345.0</ele><time>2026-04-12T11:12:18.993Z</time></trkpt><trkpt lat="44.5684809" lon="7.7157128"><ele>345.2</ele><time>2026-04-12T11:12:20.993Z</time></trkpt><trkpt lat="44.5685232" lon="7.7155866"><ele>345.4</ele><time>2026-04-12T11:12:22.993Z</time></trkpt><trkpt lat="44.5685609" lon="7.7154492"><ele>345.6</ele><time>2026-04-12T11:12:24.993Z</time></trkpt><trkpt lat="44.5686061" lon="7.7153001"><ele>345.8</ele><time>2026-04-12T11:12:26.994Z</time></trkpt><trkpt lat="44.5686499" lon="7.7151587"><ele>346.0</ele><time>2026-04-12T11:12:28.993Z</time></trkpt><trkpt lat="44.5686985" lon="7.7150241"><ele>345.6</ele><time>2026-04-12T11:12:30.993Z</time></trkpt><trkpt lat="44.5687478" lon="7.7148814"><ele>345.20000000000005</ele><time>2026-04-12T11:12:32.993Z</time></trkpt><trkpt lat="44.5687909" lon="7.7147497"><ele>344.79999999999995</ele><time>2026-04-12T11:12:34.993Z</time></trkpt><trkpt lat="44.5688265" lon="7.7146135"><ele>344.4</ele><time>2026-04-12T11:12:36.994Z</time></trkpt><trkpt lat="44.5688676" lon="7.7144898"><ele>344.0</ele><time>2026-04-12T11:12:38.992Z</time></trkpt><trkpt lat="44.568912" lon="7.7143554"><ele>344.0</ele><time>2026-04-12T11:12:40.993Z</time></trkpt><trkpt lat="44.5689506" lon="7.7142202"><ele>344.0</ele><time>2026-04-12T11:12:42.993Z</time></trkpt><trkpt lat="44.5689702" lon="7.7140853"><ele>344.0</ele><time>2026-04-12T11:12:44.993Z</time></trkpt><trkpt lat="44.5689758" lon="7.7139459"><ele>344.0</ele><time>2026-04-12T11:12:46.994Z</time></trkpt><trkpt lat="44.5689685" lon="7.7138066"><ele>344.0</ele><time>2026-04-12T11:12:48.992Z</time></trkpt><trkpt lat="44.5689607" lon="7.713662"><ele>344.0</ele><time>2026-04-12T11:12:50.993Z</time></trkpt><trkpt lat="44.5689584" lon="7.7135266"><ele>344.0</ele><time>2026-04-12T11:12:52.993Z</time></trkpt><trkpt lat="44.5689606" lon="7.7133962"><ele>344.0</ele><time>2026-04-12T11:12:54.993Z</time></trkpt><trkpt lat="44.5689633" lon="7.7132628"><ele>344.0</ele><time>2026-04-12T11:12:56.992Z</time></trkpt><trkpt lat="44.5689794" lon="7.7131345"><ele>344.0</ele><time>2026-04-12T11:12:58.993Z</time></trkpt><trkpt lat="44.5690098" lon="7.7130157"><ele>344.0</ele><time>2026-04-12T11:13:00.994Z</time></trkpt><trkpt lat="44.5690463" lon="7.7129109"><ele>344.0</ele><time>2026-04-12T11:13:02.993Z</time></trkpt><trkpt lat="44.5690938" lon="7.7127856"><ele>344.0</ele><time>2026-04-12T11:13:04.993Z</time></trkpt><trkpt lat="44.5691346" lon="7.7126765"><ele>344.0</ele><time>2026-04-12T11:13:06.993Z</time></trkpt><trkpt lat="44.569173" lon="7.7125633"><ele>344.0</ele><time>2026-04-12T11:13:08.994Z</time></trkpt><trkpt lat="44.5692246" lon="7.7124469"><ele>344.0</ele><time>2026-04-12T11:13:10.993Z</time></trkpt><trkpt lat="44.5692703" lon="7.712326"><ele>344.0</ele><time>2026-04-12T11:13:12.993Z</time></trkpt><trkpt lat="44.5693066" lon="7.7122071"><ele>344.0</ele><time>2026-04-12T11:13:14.992Z</time></trkpt><trkpt lat="44.5693326" lon="7.7120771"><ele>344.0</ele><time>2026-04-12T11:13:16.993Z</time></trkpt><trkpt lat="44.5693566" lon="7.7119432"><ele>344.0</ele><time>2026-04-12T11:13:18.992Z</time></trkpt><trkpt lat="44.5693695" lon="7.7118099"><ele>344.0</ele><time>2026-04-12T11:13:20.993Z</time></trkpt><trkpt lat="44.5693769" lon="7.7116748"><ele>344.0</ele><time>2026-04-12T11:13:22.993Z</time></trkpt><trkpt lat="44.5693722" lon="7.7115425"><ele>344.0</ele><time>2026-04-12T11:13:24.994Z</time></trkpt><trkpt lat="44.5693523" lon="7.7114128"><ele>344.0</ele><time>2026-04-12T11:13:26.993Z</time></trkpt><trkpt lat="44.5693212" lon="7.7112936"><ele>344.0</ele><time>2026-04-12T11:13:28.994Z</time></trkpt><trkpt lat="44.5692835" lon="7.7111793"><ele>344.2</ele><time>2026-04-12T11:13:30.994Z</time></trkpt><trkpt lat="44.5692363" lon="7.711069"><ele>344.4</ele><time>2026-04-12T11:13:32.994Z</time></trkpt><trkpt lat="44.5691997" lon="7.7109501"><ele>344.6</ele><time>2026-04-12T11:13:34.993Z</time></trkpt><trkpt lat="44.5691652" lon="7.7108261"><ele>344.8</ele><time>2026-04-12T11:13:36.993Z</time></trkpt><trkpt lat="44.5691225" lon="7.7107024"><ele>345.0</ele><time>2026-04-12T11:13:38.993Z</time></trkpt><trkpt lat="44.5690856" lon="7.7105795"><ele>345.0</ele><time>2026-04-12T11:13:40.993Z</time></trkpt><trkpt lat="44.5690405" lon="7.7104558"><ele>345.0</ele><time>2026-04-12T11:13:42.992Z</time></trkpt><trkpt lat="44.569003" lon="7.7103383"><ele>345.0</ele><time>2026-04-12T11:13:44.993Z</time></trkpt><trkpt lat="44.5689658" lon="7.7102077"><ele>345.0</ele><time>2026-04-12T11:13:46.993Z</time></trkpt><trkpt lat="44.5689277" lon="7.7100881"><ele>345.0</ele><time>2026-04-12T11:13:48.994Z</time></trkpt><trkpt lat="44.5688848" lon="7.7099726"><ele>345.0</ele><time>2026-04-12T11:13:50.994Z</time></trkpt><trkpt lat="44.5688495" lon="7.7098516"><ele>345.0</ele><time>2026-04-12T11:13:52.993Z</time></trkpt><trkpt lat="44.568859" lon="7.7097295"><ele>345.0</ele><time>2026-04-12T11:13:54.994Z</time></trkpt><trkpt lat="44.5689133" lon="7.7096208"><ele>345.0</ele><time>2026-04-12T11:13:56.993Z</time></trkpt><trkpt lat="44.5689954" lon="7.7095616"><ele>345.0</ele><time>2026-04-12T11:13:58.994Z</time></trkpt><trkpt lat="44.5690838" lon="7.7095002"><ele>345.0</ele><time>2026-04-12T11:14:00.993Z</time></trkpt><trkpt lat="44.5691755" lon="7.7094374"><ele>345.0</ele><time>2026-04-12T11:14:02.993Z</time></trkpt><trkpt lat="44.5692666" lon="7.7093713"><ele>345.0</ele><time>2026-04-12T11:14:04.993Z</time></trkpt><trkpt lat="44.569363" lon="7.7093109"><ele>345.0</ele><time>2026-04-12T11:14:06.994Z</time></trkpt><trkpt lat="44.5694582" lon="7.7092535"><ele>345.0</ele><time>2026-04-12T11:14:08.993Z</time></trkpt><trkpt lat="44.5695525" lon="7.7091962"><ele>344.6</ele><time>2026-04-12T11:14:10.994Z</time></trkpt><trkpt lat="44.569648" lon="7.7091318"><ele>344.2</ele><time>2026-04-12T11:14:12.993Z</time></trkpt><trkpt lat="44.5697464" lon="7.7090713"><ele>343.79999999999995</ele><time>2026-04-12T11:14:14.993Z</time></trkpt><trkpt lat="44.5698449" lon="7.709015"><ele>343.4</ele><time>2026-04-12T11:14:16.993Z</time></trkpt><trkpt lat="44.5699418" lon="7.7089566"><ele>343.0</ele><time>2026-04-12T11:14:18.994Z</time></trkpt><trkpt lat="44.5700387" lon="7.7088964"><ele>343.0</ele><time>2026-04-12T11:14:20.993Z</time></trkpt><trkpt lat="44.5701295" lon="7.7088325"><ele>343.0</ele><time>2026-04-12T11:14:22.993Z</time></trkpt><trkpt lat="44.570231" lon="7.708771"><ele>343.0</ele><time>2026-04-12T11:14:24.992Z</time></trkpt><trkpt lat="44.5703291" lon="7.7087096"><ele>343.0</ele><time>2026-04-12T11:14:26.992Z</time></trkpt><trkpt lat="44.5704254" lon="7.7086533"><ele>343.0</ele><time>2026-04-12T11:14:28.993Z</time></trkpt><trkpt lat="44.5705262" lon="7.7085915"><ele>343.4</ele><time>2026-04-12T11:14:30.994Z</time></trkpt><trkpt lat="44.5706267" lon="7.7085353"><ele>343.79999999999995</ele><time>2026-04-12T11:14:32.993Z</time></trkpt><trkpt lat="44.5707221" lon="7.7084692"><ele>344.2</ele><time>2026-04-12T11:14:34.993Z</time></trkpt><trkpt lat="44.570824" lon="7.7084076"><ele>344.6</ele><time>2026-04-12T11:14:36.993Z</time></trkpt><trkpt lat="44.5709204" lon="7.7083472"><ele>345.0</ele><time>2026-04-12T11:14:38.993Z</time></trkpt><trkpt lat="44.5710191" lon="7.7082861"><ele>345.0</ele><time>2026-04-12T11:14:40.993Z</time></trkpt><trkpt lat="44.5711097" lon="7.7082187"><ele>345.0</ele><time>2026-04-12T11:14:42.994Z</time></trkpt><trkpt lat="44.5712094" lon="7.7081698"><ele>345.0</ele><time>2026-04-12T11:14:44.993Z</time></trkpt><trkpt lat="44.5713076" lon="7.7081043"><ele>345.0</ele><time>2026-04-12T11:14:46.993Z</time></trkpt><trkpt lat="44.5713987" lon="7.7080467"><ele>345.0</ele><time>2026-04-12T11:14:48.993Z</time></trkpt><trkpt lat="44.5714951" lon="7.7079888"><ele>345.0</ele><time>2026-04-12T11:14:50.994Z</time></trkpt><trkpt lat="44.571595" lon="7.7079302"><ele>345.0</ele><time>2026-04-12T11:14:52.993Z</time></trkpt><trkpt lat="44.5716931" lon="7.7078663"><ele>345.0</ele><time>2026-04-12T11:14:54.993Z</time></trkpt><trkpt lat="44.5717931" lon="7.7078096"><ele>345.0</ele><time>2026-04-12T11:14:56.993Z</time></trkpt><trkpt lat="44.5718907" lon="7.7077508"><ele>345.0</ele><time>2026-04-12T11:14:58.993Z</time></trkpt><trkpt lat="44.571992" lon="7.7076923"><ele>345.0</ele><time>2026-04-12T11:15:00.993Z</time></trkpt><trkpt lat="44.5720897" lon="7.7076346"><ele>345.0</ele><time>2026-04-12T11:15:02.994Z</time></trkpt><trkpt lat="44.5721895" lon="7.7075706"><ele>345.0</ele><time>2026-04-12T11:15:04.993Z</time></trkpt><trkpt lat="44.5722855" lon="7.7075069"><ele>345.0</ele><time>2026-04-12T11:15:06.994Z</time></trkpt><trkpt lat="44.5723889" lon="7.7074496"><ele>345.0</ele><time>2026-04-12T11:15:08.993Z</time></trkpt><trkpt lat="44.5724867" lon="7.7073838"><ele>345.0</ele><time>2026-04-12T11:15:10.994Z</time></trkpt><trkpt lat="44.5725852" lon="7.7073228"><ele>345.0</ele><time>2026-04-12T11:15:12.993Z</time></trkpt><trkpt lat="44.5726764" lon="7.7072755"><ele>345.0</ele><time>2026-04-12T11:15:14.993Z</time></trkpt><trkpt lat="44.5727687" lon="7.70721"><ele>345.0</ele><time>2026-04-12T11:15:16.993Z</time></trkpt><trkpt lat="44.5728655" lon="7.707155"><ele>345.0</ele><time>2026-04-12T11:15:18.993Z</time></trkpt><trkpt lat="44.5729582" lon="7.7071261"><ele>345.1666666666667</ele><time>2026-04-12T11:15:20.993Z</time></trkpt><trkpt lat="44.5730484" lon="7.7071379"><ele>345.3333333333333</ele><time>2026-04-12T11:15:22.993Z</time></trkpt><trkpt lat="44.5731333" lon="7.7071962"><ele>345.5</ele><time>2026-04-12T11:15:24.994Z</time></trkpt><trkpt lat="44.5732129" lon="7.7072473"><ele>345.66666666666663</ele><time>2026-04-12T11:15:26.993Z</time></trkpt><trkpt lat="44.57329" lon="7.7072987"><ele>345.8333333333333</ele><time>2026-04-12T11:15:28.993Z</time></trkpt><trkpt lat="44.5733558" lon="7.7073725"><ele>346.0</ele><time>2026-04-12T11:15:30.994Z</time></trkpt><trkpt lat="44.5734322" lon="7.7074318"><ele>346.0</ele><time>2026-04-12T11:15:32.994Z</time></trkpt><trkpt lat="44.5735039" lon="7.7075088"><ele>346.0</ele><time>2026-04-12T11:15:34.994Z</time></trkpt><trkpt lat="44.5735712" lon="7.7076124"><ele>346.0</ele><time>2026-04-12T11:15:36.993Z</time></trkpt><trkpt lat="44.573638" lon="7.7077183"><ele>346.0</ele><time>2026-04-12T11:15:38.993Z</time></trkpt><trkpt lat="44.5737101" lon="7.7078063"><ele>346.0</ele><time>2026-04-12T11:15:40.993Z</time></trkpt><trkpt lat="44.5737829" lon="7.7078861"><ele>345.57142857142856</ele><time>2026-04-12T11:15:42.993Z</time></trkpt><trkpt lat="44.5738532" lon="7.7079547"><ele>345.14285714285717</ele><time>2026-04-12T11:15:44.994Z</time></trkpt><trkpt lat="44.5739261" lon="7.7080194"><ele>344.7142857142857</ele><time>2026-04-12T11:15:46.994Z</time></trkpt><trkpt lat="44.5739776" lon="7.7080842"><ele>344.2857142857143</ele><time>2026-04-12T11:15:48.993Z</time></trkpt><trkpt lat="44.573926" lon="7.7081467"><ele>343.8571428571429</ele><time>2026-04-12T11:15:51.993Z</time></trkpt><trkpt lat="44.5738684" lon="7.7080983"><ele>343.42857142857144</ele><time>2026-04-12T11:15:53.994Z</time></trkpt><trkpt lat="44.5738155" lon="7.7080387"><ele>343.0</ele><time>2026-04-12T11:15:55.994Z</time></trkpt><trkpt lat="44.5737525" lon="7.7079986"><ele>343.0</ele><time>2026-04-12T11:15:57.993Z</time></trkpt><trkpt lat="44.57369" lon="7.7079624"><ele>343.0</ele><time>2026-04-12T11:15:59.994Z</time></trkpt><trkpt lat="44.5736299" lon="7.7079244"><ele>343.0</ele><time>2026-04-12T11:16:01.992Z</time></trkpt><trkpt lat="44.5735749" lon="7.7078748"><ele>343.0</ele><time>2026-04-12T11:16:03.995Z</time></trkpt><trkpt lat="44.5734949" lon="7.7078149"><ele>343.0</ele><time>2026-04-12T11:16:06.993Z</time></trkpt><trkpt lat="44.573423" lon="7.7077644"><ele>343.0</ele><time>2026-04-12T11:16:09.993Z</time></trkpt><trkpt lat="44.5733577" lon="7.707713"><ele>343.0</ele><time>2026-04-12T11:16:12.993Z</time></trkpt><trkpt lat="44.5733" lon="7.7076617"><ele>343.42857142857144</ele><time>2026-04-12T11:16:15.994Z</time></trkpt><trkpt lat="44.5732424" lon="7.7076215"><ele>343.8571428571429</ele><time>2026-04-12T11:16:18.993Z</time></trkpt><trkpt lat="44.5731886" lon="7.7075733"><ele>344.2857142857143</ele><time>2026-04-12T11:16:21.993Z</time></trkpt><trkpt lat="44.5731159" lon="7.7075156"><ele>344.7142857142857</ele><time>2026-04-12T11:16:25.994Z</time></trkpt><trkpt lat="44.5730636" lon="7.707465"><ele>345.14285714285717</ele><time>2026-04-12T11:16:28.993Z</time></trkpt><trkpt lat="44.5729931" lon="7.7074012"><ele>345.57142857142856</ele><time>2026-04-12T11:16:32.993Z</time></trkpt><trkpt lat="44.57294" lon="7.7073494"><ele>346.0</ele><time>2026-04-12T11:16:35.993Z</time></trkpt><trkpt lat="44.5728889" lon="7.7072963"><ele>345.85714285714283</ele><time>2026-04-12T11:16:38.993Z</time></trkpt><trkpt lat="44.5728349" lon="7.7072405"><ele>345.7142857142857</ele><time>2026-04-12T11:16:41.993Z</time></trkpt><trkpt lat="44.5727821" lon="7.7071813"><ele>345.57142857142856</ele><time>2026-04-12T11:16:44.993Z</time></trkpt><trkpt lat="44.5727244" lon="7.7071248"><ele>345.42857142857144</ele><time>2026-04-12T11:16:47.993Z</time></trkpt><trkpt lat="44.5726527" lon="7.7070387"><ele>345.2857142857143</ele><time>2026-04-12T11:16:50.994Z</time></trkpt><trkpt lat="44.5725965" lon="7.7069761"><ele>345.14285714285717</ele><time>2026-04-12T11:16:52.993Z</time></trkpt><trkpt lat="44.572533" lon="7.706917"><ele>345.0</ele><time>2026-04-12T11:16:54.993Z</time></trkpt><trkpt lat="44.5724653" lon="7.7068393"><ele>345.3333333333333</ele><time>2026-04-12T11:16:56.994Z</time></trkpt><trkpt lat="44.5723835" lon="7.7067517"><ele>345.6666666666667</ele><time>2026-04-12T11:16:58.994Z</time></trkpt><trkpt lat="44.5722919" lon="7.7066483"><ele>346.0</ele><time>2026-04-12T11:17:00.994Z</time></trkpt><trkpt lat="44.5722422" lon="7.7065908"><ele>346.33333333333337</ele><time>2026-04-12T11:17:01.993Z</time></trkpt><trkpt lat="44.5721805" lon="7.7065363"><ele>346.6666666666667</ele><time>2026-04-12T11:17:02.993Z</time></trkpt><trkpt lat="44.5721245" lon="7.7064761"><ele>347.0</ele><time>2026-04-12T11:17:03.993Z</time></trkpt><trkpt lat="44.572067" lon="7.7064119"><ele>347.14285714285717</ele><time>2026-04-12T11:17:04.994Z</time></trkpt><trkpt lat="44.5720113" lon="7.7063477"><ele>347.2857142857143</ele><time>2026-04-12T11:17:05.993Z</time></trkpt><trkpt lat="44.5719522" lon="7.7062858"><ele>347.42857142857144</ele><time>2026-04-12T11:17:06.993Z</time></trkpt><trkpt lat="44.5718946" lon="7.7062245"><ele>347.57142857142856</ele><time>2026-04-12T11:17:07.993Z</time></trkpt><trkpt lat="44.5718389" lon="7.7061644"><ele>347.7142857142857</ele><time>2026-04-12T11:17:08.993Z</time></trkpt><trkpt lat="44.5717839" lon="7.7061123"><ele>347.85714285714283</ele><time>2026-04-12T11:17:09.993Z</time></trkpt><trkpt lat="44.571717" lon="7.7060192"><ele>348.0</ele><time>2026-04-12T11:17:11.993Z</time></trkpt><trkpt lat="44.571773" lon="7.7059607"><ele>348.0</ele><time>2026-04-12T11:17:14.994Z</time></trkpt><trkpt lat="44.5718358" lon="7.7060149"><ele>348.0</ele><time>2026-04-12T11:17:16.993Z</time></trkpt><trkpt lat="44.5719034" lon="7.7060791"><ele>348.0</ele><time>2026-04-12T11:17:18.993Z</time></trkpt><trkpt lat="44.5719851" lon="7.7061382"><ele>348.0</ele><time>2026-04-12T11:17:20.993Z</time></trkpt><trkpt lat="44.5720693" lon="7.7061962"><ele>348.0</ele><time>2026-04-12T11:17:22.993Z</time></trkpt><trkpt lat="44.5721529" lon="7.7062684"><ele>348.0</ele><time>2026-04-12T11:17:24.994Z</time></trkpt><trkpt lat="44.5722364" lon="7.7063379"><ele>347.79999999999995</ele><time>2026-04-12T11:17:26.993Z</time></trkpt><trkpt lat="44.572312" lon="7.706415"><ele>347.6</ele><time>2026-04-12T11:17:28.994Z</time></trkpt><trkpt lat="44.5723923" lon="7.7064853"><ele>347.4</ele><time>2026-04-12T11:17:30.993Z</time></trkpt><trkpt lat="44.5724765" lon="7.7065543"><ele>347.20000000000005</ele><time>2026-04-12T11:17:32.993Z</time></trkpt><trkpt lat="44.5725552" lon="7.7066302"><ele>347.0</ele><time>2026-04-12T11:17:34.993Z</time></trkpt><trkpt lat="44.5726343" lon="7.7066927"><ele>347.0</ele><time>2026-04-12T11:17:36.994Z</time></trkpt><trkpt lat="44.5727092" lon="7.7067321"><ele>347.0</ele><time>2026-04-12T11:17:38.993Z</time></trkpt><trkpt lat="44.5727799" lon="7.7067205"><ele>347.0</ele><time>2026-04-12T11:17:41.993Z</time></trkpt><trkpt lat="44.5727925" lon="7.7066335"><ele>347.0</ele><time>2026-04-12T11:17:45.993Z</time></trkpt><trkpt lat="44.5727628" lon="7.7065411"><ele>347.0</ele><time>2026-04-12T11:17:47.994Z</time></trkpt><trkpt lat="44.5727396" lon="7.706439"><ele>347.0</ele><time>2026-04-12T11:17:49.993Z</time></trkpt><trkpt lat="44.5727168" lon="7.7063351"><ele>347.0</ele><time>2026-04-12T11:17:51.993Z</time></trkpt><trkpt lat="44.5727017" lon="7.706233"><ele>347.0</ele><time>2026-04-12T11:17:53.993Z</time></trkpt><trkpt lat="44.572684" lon="7.7061181"><ele>347.0</ele><time>2026-04-12T11:17:55.993Z</time></trkpt><trkpt lat="44.572668" lon="7.7060028"><ele>347.0</ele><time>2026-04-12T11:17:57.993Z</time></trkpt><trkpt lat="44.5726512" lon="7.7058839"><ele>347.0</ele><time>2026-04-12T11:17:59.994Z</time></trkpt><trkpt lat="44.5726382" lon="7.7057662"><ele>347.0</ele><time>2026-04-12T11:18:01.993Z</time></trkpt><trkpt lat="44.5726243" lon="7.7056571"><ele>347.0</ele><time>2026-04-12T11:18:03.993Z</time></trkpt><trkpt lat="44.5726123" lon="7.705551"><ele>347.33333333333337</ele><time>2026-04-12T11:18:05.993Z</time></trkpt><trkpt lat="44.5726101" lon="7.7054476"><ele>347.6666666666667</ele><time>2026-04-12T11:18:07.993Z</time></trkpt><trkpt lat="44.5726157" lon="7.7053441"><ele>348.0</ele><time>2026-04-12T11:18:09.994Z</time></trkpt><trkpt lat="44.5726321" lon="7.7052518"><ele>348.3333333333333</ele><time>2026-04-12T11:18:11.994Z</time></trkpt><trkpt lat="44.5726731" lon="7.7051806"><ele>348.66666666666663</ele><time>2026-04-12T11:18:13.993Z</time></trkpt><trkpt lat="44.5727624" lon="7.7051948"><ele>349.0</ele><time>2026-04-12T11:18:16.993Z</time></trkpt><trkpt lat="44.5728066" lon="7.7053073"><ele>348.99999999999994</ele><time>2026-04-12T11:18:19.993Z</time></trkpt><trkpt lat="44.5728467" lon="7.7054115"><ele>349.0</ele><time>2026-04-12T11:18:22.994Z</time></trkpt><trkpt lat="44.5727959" lon="7.7055035"><ele>349.0</ele><time>2026-04-12T11:18:25.993Z</time></trkpt><trkpt lat="44.5727288" lon="7.7054805"><ele>349.0</ele><time>2026-04-12T11:18:27.993Z</time></trkpt><trkpt lat="44.5726774" lon="7.705426"><ele>349.0</ele><time>2026-04-12T11:18:29.993Z</time></trkpt><trkpt lat="44.5726237" lon="7.7053495"><ele>348.99999999999994</ele><time>2026-04-12T11:18:32.993Z</time></trkpt><trkpt lat="44.5726053" lon="7.7052515"><ele>349.0</ele><time>2026-04-12T11:18:35.993Z</time></trkpt><trkpt lat="44.5726587" lon="7.7051913"><ele>348.99999999999994</ele><time>2026-04-12T11:18:38.994Z</time></trkpt><trkpt lat="44.572713" lon="7.7051271"><ele>349.0</ele><time>2026-04-12T11:18:41.994Z</time></trkpt><trkpt lat="44.5726957" lon="7.70504"><ele>349.0</ele><time>2026-04-12T11:18:44.993Z</time></trkpt><trkpt lat="44.5726591" lon="7.7049261"><ele>349.0</ele><time>2026-04-12T11:18:47.992Z</time></trkpt><trkpt lat="44.5726393" lon="7.7048386"><ele>349.0</ele><time>2026-04-12T11:18:49.993Z</time></trkpt><trkpt lat="44.5726152" lon="7.704738"><ele>348.99999999999994</ele><time>2026-04-12T11:18:51.993Z</time></trkpt><trkpt lat="44.5725981" lon="7.7046233"><ele>349.0</ele><time>2026-04-12T11:18:53.994Z</time></trkpt><trkpt lat="44.5725729" lon="7.7045135"><ele>348.79999999999995</ele><time>2026-04-12T11:18:55.998Z</time></trkpt><trkpt lat="44.5725468" lon="7.7044046"><ele>348.59999999999997</ele><time>2026-04-12T11:18:57.995Z</time></trkpt><trkpt lat="44.5725162" lon="7.7042849"><ele>348.4</ele><time>2026-04-12T11:19:00Z</time></trkpt><trkpt lat="44.5724871" lon="7.7041629"><ele>348.2</ele><time>2026-04-12T11:19:01.996Z</time></trkpt><trkpt lat="44.5724655" lon="7.7040349"><ele>348.0</ele><time>2026-04-12T11:19:03.996Z</time></trkpt><trkpt lat="44.5724534" lon="7.7039013"><ele>348.0</ele><time>2026-04-12T11:19:05.997Z</time></trkpt><trkpt lat="44.5724323" lon="7.7037678"><ele>348.0</ele><time>2026-04-12T11:19:07.99Z</time></trkpt><trkpt lat="44.5724053" lon="7.703638"><ele>348.0</ele><time>2026-04-12T11:19:09.988Z</time></trkpt><trkpt lat="44.5723796" lon="7.7035048"><ele>348.0</ele><time>2026-04-12T11:19:11.994Z</time></trkpt><trkpt lat="44.5723631" lon="7.703371"><ele>348.0</ele><time>2026-04-12T11:19:13.99Z</time></trkpt><trkpt lat="44.5723503" lon="7.7032422"><ele>348.2</ele><time>2026-04-12T11:19:15.993Z</time></trkpt><trkpt lat="44.5723328" lon="7.7031237"><ele>348.4</ele><time>2026-04-12T11:19:17.988Z</time></trkpt><trkpt lat="44.5723392" lon="7.7029948"><ele>348.59999999999997</ele><time>2026-04-12T11:19:19.999Z</time></trkpt><trkpt lat="44.5723971" lon="7.7028922"><ele>348.79999999999995</ele><time>2026-04-12T11:19:21.989Z</time></trkpt><trkpt lat="44.5724908" lon="7.7028375"><ele>349.0</ele><time>2026-04-12T11:19:23.989Z</time></trkpt><trkpt lat="44.5725898" lon="7.7028002"><ele>349.0</ele><time>2026-04-12T11:19:25.995Z</time></trkpt><trkpt lat="44.5726871" lon="7.70277"><ele>349.0</ele><time>2026-04-12T11:19:27.99Z</time></trkpt><trkpt lat="44.5727866" lon="7.7027492"><ele>349.0</ele><time>2026-04-12T11:19:29.988Z</time></trkpt><trkpt lat="44.5728869" lon="7.7027199"><ele>349.0</ele><time>2026-04-12T11:19:32Z</time></trkpt><trkpt lat="44.5729877" lon="7.7026858"><ele>349.0</ele><time>2026-04-12T11:19:33.996Z</time></trkpt><trkpt lat="44.5730892" lon="7.7026531"><ele>348.2</ele><time>2026-04-12T11:19:35.99Z</time></trkpt><trkpt lat="44.5731939" lon="7.7026245"><ele>347.4</ele><time>2026-04-12T11:19:37.997Z</time></trkpt><trkpt lat="44.5733012" lon="7.7025894"><ele>346.6</ele><time>2026-04-12T11:19:39.998Z</time></trkpt><trkpt lat="44.5734073" lon="7.7025634"><ele>345.8</ele><time>2026-04-12T11:19:41.996Z</time></trkpt><trkpt lat="44.5735228" lon="7.7025226"><ele>345.0</ele><time>2026-04-12T11:19:43.999Z</time></trkpt><trkpt lat="44.57363" lon="7.7024965"><ele>344.8</ele><time>2026-04-12T11:19:45.997Z</time></trkpt><trkpt lat="44.5737384" lon="7.7024665"><ele>344.6</ele><time>2026-04-12T11:19:47.993Z</time></trkpt><trkpt lat="44.5738476" lon="7.7024442"><ele>344.4</ele><time>2026-04-12T11:19:49.991Z</time></trkpt><trkpt lat="44.5739583" lon="7.7024215"><ele>344.2</ele><time>2026-04-12T11:19:51.992Z</time></trkpt><trkpt lat="44.5740708" lon="7.7024004"><ele>344.0</ele><time>2026-04-12T11:19:53.992Z</time></trkpt><trkpt lat="44.5741814" lon="7.7023835"><ele>344.0</ele><time>2026-04-12T11:19:55.988Z</time></trkpt><trkpt lat="44.5742934" lon="7.7023598"><ele>344.0</ele><time>2026-04-12T11:19:57.988Z</time></trkpt><trkpt lat="44.5744031" lon="7.7023376"><ele>344.0</ele><time>2026-04-12T11:19:59.994Z</time></trkpt><trkpt lat="44.5745145" lon="7.7023229"><ele>344.0</ele><time>2026-04-12T11:20:02Z</time></trkpt><trkpt lat="44.5746269" lon="7.7023174"><ele>344.0</ele><time>2026-04-12T11:20:03.991Z</time></trkpt><trkpt lat="44.5747414" lon="7.7023024"><ele>344.25</ele><time>2026-04-12T11:20:05.997Z</time></trkpt><trkpt lat="44.5748544" lon="7.7022771"><ele>344.5</ele><time>2026-04-12T11:20:07.991Z</time></trkpt><trkpt lat="44.5749663" lon="7.7022679"><ele>344.75</ele><time>2026-04-12T11:20:09.988Z</time></trkpt><trkpt lat="44.5750777" lon="7.7022559"><ele>345.0</ele><time>2026-04-12T11:20:11.995Z</time></trkpt><trkpt lat="44.5751894" lon="7.7022517"><ele>345.0</ele><time>2026-04-12T11:20:14.001Z</time></trkpt><trkpt lat="44.5752991" lon="7.7022454"><ele>345.0</ele><time>2026-04-12T11:20:15.988Z</time></trkpt><trkpt lat="44.5754098" lon="7.7022304"><ele>345.0</ele><time>2026-04-12T11:20:17.988Z</time></trkpt><trkpt lat="44.5755207" lon="7.702217"><ele>345.0</ele><time>2026-04-12T11:20:19.993Z</time></trkpt><trkpt lat="44.5756315" lon="7.7022007"><ele>345.0</ele><time>2026-04-12T11:20:21.991Z</time></trkpt><trkpt lat="44.5757417" lon="7.7021901"><ele>345.0</ele><time>2026-04-12T11:20:23.99Z</time></trkpt><trkpt lat="44.5758515" lon="7.7021789"><ele>345.0</ele><time>2026-04-12T11:20:25.997Z</time></trkpt><trkpt lat="44.5759616" lon="7.702171"><ele>345.0</ele><time>2026-04-12T11:20:27.999Z</time></trkpt><trkpt lat="44.5760751" lon="7.7021573"><ele>345.0</ele><time>2026-04-12T11:20:29.998Z</time></trkpt><trkpt lat="44.5761882" lon="7.7021395"><ele>345.0</ele><time>2026-04-12T11:20:32Z</time></trkpt><trkpt lat="44.5763025" lon="7.7021206"><ele>344.8</ele><time>2026-04-12T11:20:33.996Z</time></trkpt><trkpt lat="44.5764153" lon="7.7020964"><ele>344.6</ele><time>2026-04-12T11:20:35.999Z</time></trkpt><trkpt lat="44.5765275" lon="7.7020791"><ele>344.4</ele><time>2026-04-12T11:20:37.992Z</time></trkpt><trkpt lat="44.5766351" lon="7.7020532"><ele>344.2</ele><time>2026-04-12T11:20:39.987Z</time></trkpt><trkpt lat="44.5767254" lon="7.7019798"><ele>344.0</ele><time>2026-04-12T11:20:41.994Z</time></trkpt><trkpt lat="44.5767891" lon="7.701876"><ele>344.0</ele><time>2026-04-12T11:20:43.994Z</time></trkpt><trkpt lat="44.5768435" lon="7.7017567"><ele>344.0</ele><time>2026-04-12T11:20:45.998Z</time></trkpt><trkpt lat="44.5769061" lon="7.7016373"><ele>344.0</ele><time>2026-04-12T11:20:48Z</time></trkpt><trkpt lat="44.5769765" lon="7.7015188"><ele>344.0</ele><time>2026-04-12T11:20:49.995Z</time></trkpt><trkpt lat="44.5770451" lon="7.7014028"><ele>344.0</ele><time>2026-04-12T11:20:51.99Z</time></trkpt><trkpt lat="44.5771135" lon="7.7012974"><ele>343.6</ele><time>2026-04-12T11:20:53.999Z</time></trkpt><trkpt lat="44.5771857" lon="7.7011904"><ele>343.2</ele><time>2026-04-12T11:20:55.989Z</time></trkpt><trkpt lat="44.5772598" lon="7.7010686"><ele>342.8</ele><time>2026-04-12T11:20:57.991Z</time></trkpt><trkpt lat="44.5773309" lon="7.7009551"><ele>342.40000000000003</ele><time>2026-04-12T11:20:59.992Z</time></trkpt><trkpt lat="44.5773991" lon="7.700838"><ele>342.0</ele><time>2026-04-12T11:21:01.999Z</time></trkpt><trkpt lat="44.5774752" lon="7.7007251"><ele>342.0</ele><time>2026-04-12T11:21:03.997Z</time></trkpt><trkpt lat="44.5775531" lon="7.7006166"><ele>342.0</ele><time>2026-04-12T11:21:05.999Z</time></trkpt><trkpt lat="44.5776313" lon="7.7005075"><ele>342.0</ele><time>2026-04-12T11:21:07.998Z</time></trkpt><trkpt lat="44.5777076" lon="7.7004019"><ele>342.0</ele><time>2026-04-12T11:21:09.99Z</time></trkpt><trkpt lat="44.5777975" lon="7.7003235"><ele>342.0</ele><time>2026-04-12T11:21:11.994Z</time></trkpt><trkpt lat="44.5779008" lon="7.7002755"><ele>342.20000000000005</ele><time>2026-04-12T11:21:13.987Z</time></trkpt><trkpt lat="44.5779991" lon="7.7002471"><ele>342.4</ele><time>2026-04-12T11:21:15.992Z</time></trkpt><trkpt lat="44.5781054" lon="7.7002215"><ele>342.6</ele><time>2026-04-12T11:21:17.992Z</time></trkpt><trkpt lat="44.5782181" lon="7.7002"><ele>342.79999999999995</ele><time>2026-04-12T11:21:19.999Z</time></trkpt><trkpt lat="44.5783286" lon="7.700178"><ele>343.0</ele><time>2026-04-12T11:21:21.993Z</time></trkpt><trkpt lat="44.5784379" lon="7.7001576"><ele>343.0</ele><time>2026-04-12T11:21:23.99Z</time></trkpt><trkpt lat="44.5785495" lon="7.7001332"><ele>343.0</ele><time>2026-04-12T11:21:25.995Z</time></trkpt><trkpt lat="44.5786606" lon="7.7001076"><ele>343.0</ele><time>2026-04-12T11:21:27.987Z</time></trkpt><trkpt lat="44.5787697" lon="7.7000902"><ele>343.0</ele><time>2026-04-12T11:21:29.988Z</time></trkpt><trkpt lat="44.5788789" lon="7.7000712"><ele>343.0</ele><time>2026-04-12T11:21:31.987Z</time></trkpt><trkpt lat="44.5789856" lon="7.7000452"><ele>343.2</ele><time>2026-04-12T11:21:33.988Z</time></trkpt><trkpt lat="44.5790845" lon="7.7000017"><ele>343.4</ele><time>2026-04-12T11:21:35.997Z</time></trkpt><trkpt lat="44.5791506" lon="7.699877"><ele>343.59999999999997</ele><time>2026-04-12T11:21:37.999Z</time></trkpt><trkpt lat="44.5791587" lon="7.6997326"><ele>343.79999999999995</ele><time>2026-04-12T11:21:39.995Z</time></trkpt><trkpt lat="44.5791599" lon="7.6995863"><ele>344.0</ele><time>2026-04-12T11:21:41.989Z</time></trkpt><trkpt lat="44.5791581" lon="7.6994424"><ele>344.0</ele><time>2026-04-12T11:21:43.995Z</time></trkpt><trkpt lat="44.5791561" lon="7.6992948"><ele>344.0</ele><time>2026-04-12T11:21:45.992Z</time></trkpt><trkpt lat="44.5791797" lon="7.6991605"><ele>344.0</ele><time>2026-04-12T11:21:47.999Z</time></trkpt><trkpt lat="44.5792434" lon="7.6990586"><ele>344.0</ele><time>2026-04-12T11:21:49.996Z</time></trkpt><trkpt lat="44.5793307" lon="7.6990021"><ele>344.0</ele><time>2026-04-12T11:21:51.987Z</time></trkpt><trkpt lat="44.5794354" lon="7.6989691"><ele>343.79999999999995</ele><time>2026-04-12T11:21:53.995Z</time></trkpt><trkpt lat="44.579537" lon="7.6989628"><ele>343.59999999999997</ele><time>2026-04-12T11:21:55.987Z</time></trkpt><trkpt lat="44.5796339" lon="7.6989312"><ele>343.4</ele><time>2026-04-12T11:21:57.999Z</time></trkpt><trkpt lat="44.5797324" lon="7.6989045"><ele>343.2</ele><time>2026-04-12T11:21:59.997Z</time></trkpt><trkpt lat="44.5798331" lon="7.6988842"><ele>343.0</ele><time>2026-04-12T11:22:01.988Z</time></trkpt><trkpt lat="44.5799341" lon="7.6988447"><ele>343.0</ele><time>2026-04-12T11:22:03.993Z</time></trkpt><trkpt lat="44.5800334" lon="7.6988166"><ele>343.0</ele><time>2026-04-12T11:22:06Z</time></trkpt><trkpt lat="44.5801347" lon="7.6987915"><ele>343.0</ele><time>2026-04-12T11:22:07.99Z</time></trkpt><trkpt lat="44.5802357" lon="7.6987586"><ele>343.0</ele><time>2026-04-12T11:22:09.993Z</time></trkpt><trkpt lat="44.5803358" lon="7.6987169"><ele>343.0</ele><time>2026-04-12T11:22:11.996Z</time></trkpt><trkpt lat="44.580433" lon="7.6986897"><ele>343.0</ele><time>2026-04-12T11:22:13.991Z</time></trkpt><trkpt lat="44.5805371" lon="7.6986604"><ele>343.0</ele><time>2026-04-12T11:22:15.993Z</time></trkpt><trkpt lat="44.5806447" lon="7.6986282"><ele>343.0</ele><time>2026-04-12T11:22:17.992Z</time></trkpt><trkpt lat="44.5807533" lon="7.6985993"><ele>343.0</ele><time>2026-04-12T11:22:19.994Z</time></trkpt><trkpt lat="44.5808599" lon="7.6985819"><ele>343.0</ele><time>2026-04-12T11:22:21.992Z</time></trkpt><trkpt lat="44.5809636" lon="7.6985497"><ele>342.79999999999995</ele><time>2026-04-12T11:22:23.99Z</time></trkpt><trkpt lat="44.5810723" lon="7.6985276"><ele>342.6</ele><time>2026-04-12T11:22:25.99Z</time></trkpt><trkpt lat="44.5811797" lon="7.6984981"><ele>342.4</ele><time>2026-04-12T11:22:27.997Z</time></trkpt><trkpt lat="44.5812894" lon="7.6984726"><ele>342.20000000000005</ele><time>2026-04-12T11:22:29.996Z</time></trkpt><trkpt lat="44.5813974" lon="7.6984505"><ele>342.0</ele><time>2026-04-12T11:22:31.998Z</time></trkpt><trkpt lat="44.5815023" lon="7.69842"><ele>342.0</ele><time>2026-04-12T11:22:34Z</time></trkpt><trkpt lat="44.5816094" lon="7.6983971"><ele>342.0</ele><time>2026-04-12T11:22:35.992Z</time></trkpt><trkpt lat="44.5817179" lon="7.6983812"><ele>342.0</ele><time>2026-04-12T11:22:37.994Z</time></trkpt><trkpt lat="44.5818285" lon="7.69835"><ele>342.0</ele><time>2026-04-12T11:22:39.999Z</time></trkpt><trkpt lat="44.5819317" lon="7.6983231"><ele>342.0</ele><time>2026-04-12T11:22:41.988Z</time></trkpt><trkpt lat="44.5820367" lon="7.698297"><ele>341.6</ele><time>2026-04-12T11:22:43.995Z</time></trkpt><trkpt lat="44.5821426" lon="7.698273"><ele>341.20000000000005</ele><time>2026-04-12T11:22:45.99Z</time></trkpt><trkpt lat="44.5822548" lon="7.6982438"><ele>340.8</ele><time>2026-04-12T11:22:47.999Z</time></trkpt><trkpt lat="44.5823676" lon="7.6982058"><ele>340.4</ele><time>2026-04-12T11:22:49.997Z</time></trkpt><trkpt lat="44.5824737" lon="7.6981719"><ele>340.0</ele><time>2026-04-12T11:22:51.997Z</time></trkpt><trkpt lat="44.5825662" lon="7.6981051"><ele>340.0</ele><time>2026-04-12T11:22:53.994Z</time></trkpt><trkpt lat="44.5826507" lon="7.6980073"><ele>340.0</ele><time>2026-04-12T11:22:56Z</time></trkpt><trkpt lat="44.582723" lon="7.6978982"><ele>340.0</ele><time>2026-04-12T11:22:57.99Z</time></trkpt><trkpt lat="44.582798" lon="7.6977898"><ele>340.0</ele><time>2026-04-12T11:23:00Z</time></trkpt><trkpt lat="44.5828842" lon="7.697689"><ele>340.0</ele><time>2026-04-12T11:23:01.994Z</time></trkpt><trkpt lat="44.5829792" lon="7.6976049"><ele>339.8</ele><time>2026-04-12T11:23:03.998Z</time></trkpt><trkpt lat="44.5830757" lon="7.6975394"><ele>339.6</ele><time>2026-04-12T11:23:05.997Z</time></trkpt><trkpt lat="44.5831779" lon="7.6974909"><ele>339.4</ele><time>2026-04-12T11:23:07.994Z</time></trkpt><trkpt lat="44.5832815" lon="7.6974479"><ele>339.2</ele><time>2026-04-12T11:23:09.995Z</time></trkpt><trkpt lat="44.5833899" lon="7.6974226"><ele>339.0</ele><time>2026-04-12T11:23:11.992Z</time></trkpt><trkpt lat="44.5834993" lon="7.697394"><ele>339.0</ele><time>2026-04-12T11:23:13.999Z</time></trkpt><trkpt lat="44.5836112" lon="7.6973661"><ele>339.0</ele><time>2026-04-12T11:23:16Z</time></trkpt><trkpt lat="44.5837183" lon="7.6973464"><ele>339.0</ele><time>2026-04-12T11:23:17.997Z</time></trkpt><trkpt lat="44.5838253" lon="7.6973288"><ele>339.0</ele><time>2026-04-12T11:23:20Z</time></trkpt><trkpt lat="44.5839328" lon="7.6973124"><ele>339.0</ele><time>2026-04-12T11:23:21.99Z</time></trkpt><trkpt lat="44.5840386" lon="7.6973005"><ele>339.0</ele><time>2026-04-12T11:23:23.997Z</time></trkpt><trkpt lat="44.5841432" lon="7.6972912"><ele>339.0</ele><time>2026-04-12T11:23:25.987Z</time></trkpt><trkpt lat="44.5842488" lon="7.6972807"><ele>339.0</ele><time>2026-04-12T11:23:27.995Z</time></trkpt><trkpt lat="44.5843539" lon="7.6972871"><ele>339.0</ele><time>2026-04-12T11:23:29.989Z</time></trkpt><trkpt lat="44.5844588" lon="7.6972906"><ele>339.0</ele><time>2026-04-12T11:23:32Z</time></trkpt><trkpt lat="44.5845668" lon="7.6972807"><ele>339.2</ele><time>2026-04-12T11:23:33.995Z</time></trkpt><trkpt lat="44.584673" lon="7.6972775"><ele>339.4</ele><time>2026-04-12T11:23:35.992Z</time></trkpt><trkpt lat="44.58478" lon="7.6972714"><ele>339.6</ele><time>2026-04-12T11:23:37.995Z</time></trkpt><trkpt lat="44.5848881" lon="7.6972702"><ele>339.8</ele><time>2026-04-12T11:23:39.997Z</time></trkpt><trkpt lat="44.5849941" lon="7.6972683"><ele>340.0</ele><time>2026-04-12T11:23:41.997Z</time></trkpt><trkpt lat="44.585102" lon="7.6972565"><ele>340.0</ele><time>2026-04-12T11:23:43.999Z</time></trkpt><trkpt lat="44.5852033" lon="7.6972016"><ele>340.0</ele><time>2026-04-12T11:23:45.987Z</time></trkpt><trkpt lat="44.5852719" lon="7.6970984"><ele>340.0</ele><time>2026-04-12T11:23:47.993Z</time></trkpt><trkpt lat="44.5853383" lon="7.6969705"><ele>340.0</ele><time>2026-04-12T11:23:49.996Z</time></trkpt><trkpt lat="44.5853763" lon="7.6968397"><ele>340.0</ele><time>2026-04-12T11:23:51.993Z</time></trkpt><trkpt lat="44.5854054" lon="7.6966942"><ele>340.2</ele><time>2026-04-12T11:23:53.988Z</time></trkpt><trkpt lat="44.5854308" lon="7.6965487"><ele>340.4</ele><time>2026-04-12T11:23:55.988Z</time></trkpt><trkpt lat="44.5854618" lon="7.6964068"><ele>340.6</ele><time>2026-04-12T11:23:57.988Z</time></trkpt><trkpt lat="44.5854851" lon="7.6962645"><ele>340.8</ele><time>2026-04-12T11:23:59.988Z</time></trkpt><trkpt lat="44.5855038" lon="7.6961203"><ele>341.0</ele><time>2026-04-12T11:24:01.988Z</time></trkpt><trkpt lat="44.5855504" lon="7.6959996"><ele>340.6</ele><time>2026-04-12T11:24:03.988Z</time></trkpt><trkpt lat="44.5856299" lon="7.6959106"><ele>340.20000000000005</ele><time>2026-04-12T11:24:05.988Z</time></trkpt><trkpt lat="44.5857283" lon="7.6958765"><ele>339.79999999999995</ele><time>2026-04-12T11:24:07.988Z</time></trkpt><trkpt lat="44.5858366" lon="7.6958598"><ele>339.4</ele><time>2026-04-12T11:24:09.988Z</time></trkpt><trkpt lat="44.5859442" lon="7.6958461"><ele>339.0</ele><time>2026-04-12T11:24:11.988Z</time></trkpt><trkpt lat="44.586055" lon="7.6958328"><ele>339.0</ele><time>2026-04-12T11:24:13.988Z</time></trkpt><trkpt lat="44.5861607" lon="7.6958234"><ele>339.0</ele><time>2026-04-12T11:24:15.988Z</time></trkpt><trkpt lat="44.586265" lon="7.6958231"><ele>339.0</ele><time>2026-04-12T11:24:17.988Z</time></trkpt><trkpt lat="44.5863693" lon="7.6958118"><ele>339.0</ele><time>2026-04-12T11:24:19.988Z</time></trkpt><trkpt lat="44.5864663" lon="7.6957687"><ele>339.0</ele><time>2026-04-12T11:24:21.988Z</time></trkpt><trkpt lat="44.5865228" lon="7.6956532"><ele>339.0</ele><time>2026-04-12T11:24:23.988Z</time></trkpt><trkpt lat="44.5865266" lon="7.6955118"><ele>339.0</ele><time>2026-04-12T11:24:25.988Z</time></trkpt><trkpt lat="44.5865103" lon="7.6953746"><ele>339.0</ele><time>2026-04-12T11:24:27.988Z</time></trkpt><trkpt lat="44.5864894" lon="7.6952375"><ele>339.0</ele><time>2026-04-12T11:24:29.988Z</time></trkpt><trkpt lat="44.5864918" lon="7.6950956"><ele>339.0</ele><time>2026-04-12T11:24:31.988Z</time></trkpt><trkpt lat="44.5865613" lon="7.6949983"><ele>339.0</ele><time>2026-04-12T11:24:33.988Z</time></trkpt><trkpt lat="44.5866618" lon="7.6949727"><ele>339.0</ele><time>2026-04-12T11:24:35.988Z</time></trkpt><trkpt lat="44.5867701" lon="7.6949508"><ele>339.0</ele><time>2026-04-12T11:24:37.988Z</time></trkpt><trkpt lat="44.5868765" lon="7.694914"><ele>339.0</ele><time>2026-04-12T11:24:39.988Z</time></trkpt><trkpt lat="44.5869745" lon="7.6948523"><ele>339.0</ele><time>2026-04-12T11:24:41.988Z</time></trkpt><trkpt lat="44.5870653" lon="7.694767"><ele>338.79999999999995</ele><time>2026-04-12T11:24:43.988Z</time></trkpt><trkpt lat="44.5871426" lon="7.6946641"><ele>338.59999999999997</ele><time>2026-04-12T11:24:45.989Z</time></trkpt><trkpt lat="44.5872327" lon="7.6945743"><ele>338.4</ele><time>2026-04-12T11:24:47.988Z</time></trkpt><trkpt lat="44.587319" lon="7.6944772"><ele>338.2</ele><time>2026-04-12T11:24:49.988Z</time></trkpt><trkpt lat="44.5874068" lon="7.6943795"><ele>338.0</ele><time>2026-04-12T11:24:51.988Z</time></trkpt><trkpt lat="44.5874999" lon="7.6942982"><ele>338.0</ele><time>2026-04-12T11:24:53.988Z</time></trkpt><trkpt lat="44.5875838" lon="7.6942004"><ele>338.0</ele><time>2026-04-12T11:24:55.988Z</time></trkpt><trkpt lat="44.5876608" lon="7.6940883"><ele>338.0</ele><time>2026-04-12T11:24:57.988Z</time></trkpt><trkpt lat="44.5877354" lon="7.6939853"><ele>338.0</ele><time>2026-04-12T11:24:59.988Z</time></trkpt><trkpt lat="44.5878139" lon="7.6938916"><ele>338.0</ele><time>2026-04-12T11:25:01.988Z</time></trkpt><trkpt lat="44.5878888" lon="7.6937923"><ele>338.0</ele><time>2026-04-12T11:25:03.988Z</time></trkpt><trkpt lat="44.5879724" lon="7.6937017"><ele>338.0</ele><time>2026-04-12T11:25:05.988Z</time></trkpt><trkpt lat="44.5880623" lon="7.6936319"><ele>338.0</ele><time>2026-04-12T11:25:07.988Z</time></trkpt><trkpt lat="44.5881595" lon="7.6935952"><ele>338.0</ele><time>2026-04-12T11:25:09.988Z</time></trkpt><trkpt lat="44.5882637" lon="7.6935965"><ele>338.0</ele><time>2026-04-12T11:25:11.988Z</time></trkpt><trkpt lat="44.5883708" lon="7.693605"><ele>338.0</ele><time>2026-04-12T11:25:13.988Z</time></trkpt><trkpt lat="44.5884807" lon="7.6936177"><ele>338.0</ele><time>2026-04-12T11:25:15.988Z</time></trkpt><trkpt lat="44.5885896" lon="7.6936223"><ele>338.0</ele><time>2026-04-12T11:25:17.988Z</time></trkpt><trkpt lat="44.5887" lon="7.6936289"><ele>338.0</ele><time>2026-04-12T11:25:19.988Z</time></trkpt><trkpt lat="44.5888078" lon="7.6936355"><ele>338.0</ele><time>2026-04-12T11:25:21.988Z</time></trkpt><trkpt lat="44.588921" lon="7.6936427"><ele>338.0</ele><time>2026-04-12T11:25:23.988Z</time></trkpt><trkpt lat="44.5890339" lon="7.6936428"><ele>338.0</ele><time>2026-04-12T11:25:25.988Z</time></trkpt><trkpt lat="44.5891494" lon="7.6936521"><ele>338.0</ele><time>2026-04-12T11:25:27.988Z</time></trkpt><trkpt lat="44.589264" lon="7.6936556"><ele>338.0</ele><time>2026-04-12T11:25:29.988Z</time></trkpt><trkpt lat="44.5893785" lon="7.693663"><ele>338.0</ele><time>2026-04-12T11:25:31.988Z</time></trkpt><trkpt lat="44.5894897" lon="7.6936705"><ele>338.0</ele><time>2026-04-12T11:25:33.988Z</time></trkpt><trkpt lat="44.589604" lon="7.6936807"><ele>338.0</ele><time>2026-04-12T11:25:35.988Z</time></trkpt><trkpt lat="44.5897173" lon="7.6937012"><ele>338.0</ele><time>2026-04-12T11:25:37.988Z</time></trkpt><trkpt lat="44.5898246" lon="7.6937068"><ele>338.0</ele><time>2026-04-12T11:25:39.988Z</time></trkpt><trkpt lat="44.5899189" lon="7.6936674"><ele>337.79999999999995</ele><time>2026-04-12T11:25:41.988Z</time></trkpt><trkpt lat="44.5899686" lon="7.693552"><ele>337.6</ele><time>2026-04-12T11:25:43.988Z</time></trkpt><trkpt lat="44.5899631" lon="7.6934047"><ele>337.4</ele><time>2026-04-12T11:25:45.988Z</time></trkpt><trkpt lat="44.5899447" lon="7.6932439"><ele>337.20000000000005</ele><time>2026-04-12T11:25:47.988Z</time></trkpt><trkpt lat="44.5899285" lon="7.6930873"><ele>337.0</ele><time>2026-04-12T11:25:49.988Z</time></trkpt><trkpt lat="44.589914" lon="7.6929344"><ele>337.0</ele><time>2026-04-12T11:25:51.988Z</time></trkpt><trkpt lat="44.5899021" lon="7.6927868"><ele>337.0</ele><time>2026-04-12T11:25:53.988Z</time></trkpt><trkpt lat="44.5898944" lon="7.6926405"><ele>337.0</ele><time>2026-04-12T11:25:55.988Z</time></trkpt><trkpt lat="44.5899246" lon="7.6925081"><ele>337.0</ele><time>2026-04-12T11:25:57.988Z</time></trkpt><trkpt lat="44.5900143" lon="7.6924321"><ele>337.0</ele><time>2026-04-12T11:25:59.988Z</time></trkpt><trkpt lat="44.5901266" lon="7.6924051"><ele>337.0</ele><time>2026-04-12T11:26:01.988Z</time></trkpt><trkpt lat="44.5902363" lon="7.6924101"><ele>337.0</ele><time>2026-04-12T11:26:03.988Z</time></trkpt><trkpt lat="44.5903457" lon="7.6924128"><ele>337.0</ele><time>2026-04-12T11:26:05.988Z</time></trkpt><trkpt lat="44.5904584" lon="7.6924115"><ele>337.0</ele><time>2026-04-12T11:26:07.988Z</time></trkpt><trkpt lat="44.5905676" lon="7.6924077"><ele>337.0</ele><time>2026-04-12T11:26:09.988Z</time></trkpt><trkpt lat="44.5906809" lon="7.6924004"><ele>337.0</ele><time>2026-04-12T11:26:11.988Z</time></trkpt><trkpt lat="44.5907917" lon="7.6923919"><ele>337.0</ele><time>2026-04-12T11:26:13.988Z</time></trkpt><trkpt lat="44.5909035" lon="7.6923887"><ele>337.0</ele><time>2026-04-12T11:26:15.988Z</time></trkpt><trkpt lat="44.5910117" lon="7.6923843"><ele>337.0</ele><time>2026-04-12T11:26:17.988Z</time></trkpt><trkpt lat="44.5911221" lon="7.6923792"><ele>337.0</ele><time>2026-04-12T11:26:19.988Z</time></trkpt><trkpt lat="44.5912293" lon="7.6923719"><ele>336.8</ele><time>2026-04-12T11:26:21.988Z</time></trkpt><trkpt lat="44.5913379" lon="7.6923624"><ele>336.6</ele><time>2026-04-12T11:26:23.988Z</time></trkpt><trkpt lat="44.5914422" lon="7.6923646"><ele>336.40000000000003</ele><time>2026-04-12T11:26:25.988Z</time></trkpt><trkpt lat="44.5915503" lon="7.6923567"><ele>336.20000000000005</ele><time>2026-04-12T11:26:27.988Z</time></trkpt><trkpt lat="44.5916602" lon="7.692348"><ele>336.0</ele><time>2026-04-12T11:26:29.988Z</time></trkpt><trkpt lat="44.5917764" lon="7.6923469"><ele>336.0</ele><time>2026-04-12T11:26:31.988Z</time></trkpt><trkpt lat="44.5918862" lon="7.6923423"><ele>336.0</ele><time>2026-04-12T11:26:33.988Z</time></trkpt><trkpt lat="44.591994" lon="7.6923447"><ele>336.0</ele><time>2026-04-12T11:26:35.988Z</time></trkpt><trkpt lat="44.5921022" lon="7.6923335"><ele>336.0</ele><time>2026-04-12T11:26:37.988Z</time></trkpt><trkpt lat="44.592209" lon="7.6923176"><ele>336.0</ele><time>2026-04-12T11:26:39.988Z</time></trkpt><trkpt lat="44.5923146" lon="7.6923013"><ele>336.0</ele><time>2026-04-12T11:26:41.988Z</time></trkpt><trkpt lat="44.5924058" lon="7.6922878"><ele>336.0</ele><time>2026-04-12T11:26:43.988Z</time></trkpt><trkpt lat="44.5924965" lon="7.6922792"><ele>336.0</ele><time>2026-04-12T11:26:45.988Z</time></trkpt><trkpt lat="44.5925903" lon="7.6922618"><ele>336.0</ele><time>2026-04-12T11:26:47.988Z</time></trkpt><trkpt lat="44.592679" lon="7.6922179"><ele>336.0</ele><time>2026-04-12T11:26:49.988Z</time></trkpt><trkpt lat="44.5927578" lon="7.6921489"><ele>336.20000000000005</ele><time>2026-04-12T11:26:51.988Z</time></trkpt><trkpt lat="44.5928488" lon="7.692129"><ele>336.40000000000003</ele><time>2026-04-12T11:26:53.988Z</time></trkpt><trkpt lat="44.5929405" lon="7.6921306"><ele>336.6</ele><time>2026-04-12T11:26:55.988Z</time></trkpt><trkpt lat="44.593035" lon="7.6921352"><ele>336.8</ele><time>2026-04-12T11:26:57.988Z</time></trkpt><trkpt lat="44.5931362" lon="7.6921404"><ele>337.0</ele><time>2026-04-12T11:26:59.988Z</time></trkpt><trkpt lat="44.5932437" lon="7.6921382"><ele>337.0</ele><time>2026-04-12T11:27:01.988Z</time></trkpt><trkpt lat="44.5933497" lon="7.692132"><ele>337.0</ele><time>2026-04-12T11:27:03.988Z</time></trkpt><trkpt lat="44.5934548" lon="7.6921259"><ele>337.0</ele><time>2026-04-12T11:27:05.988Z</time></trkpt><trkpt lat="44.593565" lon="7.6921255"><ele>337.0</ele><time>2026-04-12T11:27:07.988Z</time></trkpt><trkpt lat="44.5936697" lon="7.6921261"><ele>337.0</ele><time>2026-04-12T11:27:09.988Z</time></trkpt><trkpt lat="44.5937737" lon="7.6921296"><ele>337.0</ele><time>2026-04-12T11:27:11.988Z</time></trkpt><trkpt lat="44.5938751" lon="7.6921307"><ele>337.0</ele><time>2026-04-12T11:27:13.988Z</time></trkpt><trkpt lat="44.5939695" lon="7.6920767"><ele>337.0</ele><time>2026-04-12T11:27:15.988Z</time></trkpt><trkpt lat="44.5940511" lon="7.6919713"><ele>337.0</ele><time>2026-04-12T11:27:17.988Z</time></trkpt><trkpt lat="44.5941051" lon="7.6918503"><ele>337.0</ele><time>2026-04-12T11:27:19.988Z</time></trkpt><trkpt lat="44.5941618" lon="7.6917197"><ele>337.0</ele><time>2026-04-12T11:27:21.988Z</time></trkpt><trkpt lat="44.5941931" lon="7.6915732"><ele>337.0</ele><time>2026-04-12T11:27:23.988Z</time></trkpt><trkpt lat="44.5942293" lon="7.6914259"><ele>337.0</ele><time>2026-04-12T11:27:25.988Z</time></trkpt><trkpt lat="44.594292" lon="7.691299"><ele>337.0</ele><time>2026-04-12T11:27:27.988Z</time></trkpt><trkpt lat="44.5943712" lon="7.6911988"><ele>337.0</ele><time>2026-04-12T11:27:29.988Z</time></trkpt><trkpt lat="44.5944636" lon="7.6911171"><ele>336.6</ele><time>2026-04-12T11:27:31.988Z</time></trkpt><trkpt lat="44.5945593" lon="7.6910483"><ele>336.20000000000005</ele><time>2026-04-12T11:27:33.988Z</time></trkpt><trkpt lat="44.5946578" lon="7.6909819"><ele>335.8</ele><time>2026-04-12T11:27:35.988Z</time></trkpt><trkpt lat="44.5947495" lon="7.6909065"><ele>335.4</ele><time>2026-04-12T11:27:37.988Z</time></trkpt><trkpt lat="44.5948434" lon="7.6908243"><ele>335.0</ele><time>2026-04-12T11:27:39.988Z</time></trkpt><trkpt lat="44.5949393" lon="7.6907548"><ele>335.0</ele><time>2026-04-12T11:27:41.988Z</time></trkpt><trkpt lat="44.5950409" lon="7.6906975"><ele>335.0</ele><time>2026-04-12T11:27:43.988Z</time></trkpt><trkpt lat="44.5951459" lon="7.6906435"><ele>335.0</ele><time>2026-04-12T11:27:45.988Z</time></trkpt><trkpt lat="44.5952382" lon="7.690584"><ele>335.0</ele><time>2026-04-12T11:27:47.988Z</time></trkpt><trkpt lat="44.5953375" lon="7.6905339"><ele>335.0</ele><time>2026-04-12T11:27:49.988Z</time></trkpt><trkpt lat="44.5954259" lon="7.6904807"><ele>334.8</ele><time>2026-04-12T11:27:51.988Z</time></trkpt><trkpt lat="44.5955228" lon="7.6904352"><ele>334.6</ele><time>2026-04-12T11:27:53.988Z</time></trkpt><trkpt lat="44.5956186" lon="7.690405"><ele>334.4</ele><time>2026-04-12T11:27:55.988Z</time></trkpt><trkpt lat="44.5957198" lon="7.6903799"><ele>334.2</ele><time>2026-04-12T11:27:57.988Z</time></trkpt><trkpt lat="44.5958327" lon="7.6903571"><ele>334.0</ele><time>2026-04-12T11:27:59.988Z</time></trkpt><trkpt lat="44.5959421" lon="7.6903258"><ele>334.0</ele><time>2026-04-12T11:28:01.988Z</time></trkpt><trkpt lat="44.5960539" lon="7.6902884"><ele>334.0</ele><time>2026-04-12T11:28:03.988Z</time></trkpt><trkpt lat="44.5961638" lon="7.6902568"><ele>334.0</ele><time>2026-04-12T11:28:05.988Z</time></trkpt><trkpt lat="44.596272" lon="7.6902312"><ele>334.0</ele><time>2026-04-12T11:28:07.988Z</time></trkpt><trkpt lat="44.596375" lon="7.6902073"><ele>334.0</ele><time>2026-04-12T11:28:09.988Z</time></trkpt><trkpt lat="44.5964766" lon="7.690185"><ele>334.0</ele><time>2026-04-12T11:28:11.988Z</time></trkpt><trkpt lat="44.5965811" lon="7.6901675"><ele>334.0</ele><time>2026-04-12T11:28:13.988Z</time></trkpt><trkpt lat="44.5966831" lon="7.6901382"><ele>334.0</ele><time>2026-04-12T11:28:15.988Z</time></trkpt><trkpt lat="44.596776" lon="7.6901076"><ele>334.0</ele><time>2026-04-12T11:28:17.989Z</time></trkpt><trkpt lat="44.596872" lon="7.6900818"><ele>334.0</ele><time>2026-04-12T11:28:19.988Z</time></trkpt><trkpt lat="44.596962" lon="7.6900497"><ele>334.3333333333333</ele><time>2026-04-12T11:28:21.988Z</time></trkpt><trkpt lat="44.5970595" lon="7.6900134"><ele>334.66666666666663</ele><time>2026-04-12T11:28:23.988Z</time></trkpt><trkpt lat="44.5971479" lon="7.6899571"><ele>335.0</ele><time>2026-04-12T11:28:25.988Z</time></trkpt><trkpt lat="44.5972256" lon="7.6899189"><ele>335.3333333333333</ele><time>2026-04-12T11:28:27.988Z</time></trkpt><trkpt lat="44.5972938" lon="7.6899001"><ele>335.6666666666667</ele><time>2026-04-12T11:28:39.988Z</time></trkpt><trkpt lat="44.5973551" lon="7.6898788"><ele>336.0</ele><time>2026-04-12T11:28:49.988Z</time></trkpt><trkpt lat="44.5974367" lon="7.6899031"><ele>336.0</ele><time>2026-04-12T11:28:52.988Z</time></trkpt><trkpt lat="44.5974978" lon="7.6899966"><ele>336.0</ele><time>2026-04-12T11:28:55.988Z</time></trkpt><trkpt lat="44.5975433" lon="7.6901008"><ele>336.0</ele><time>2026-04-12T11:28:58.988Z</time></trkpt><trkpt lat="44.597574" lon="7.6902101"><ele>336.0</ele><time>2026-04-12T11:29:01.988Z</time></trkpt><trkpt lat="44.5976015" lon="7.6903143"><ele>336.0</ele><time>2026-04-12T11:29:04.988Z</time></trkpt><trkpt lat="44.5976276" lon="7.6904179"><ele>336.0</ele><time>2026-04-12T11:29:07.988Z</time></trkpt><trkpt lat="44.5976458" lon="7.6905232"><ele>336.0</ele><time>2026-04-12T11:29:10.988Z</time></trkpt><trkpt lat="44.5976758" lon="7.6906265"><ele>336.0</ele><time>2026-04-12T11:29:13.988Z</time></trkpt><trkpt lat="44.5976996" lon="7.6907299"><ele>336.0</ele><time>2026-04-12T11:29:16.988Z</time></trkpt><trkpt lat="44.5977284" lon="7.6908378"><ele>336.0</ele><time>2026-04-12T11:29:19.988Z</time></trkpt><trkpt lat="44.5977508" lon="7.6909479"><ele>336.0</ele><time>2026-04-12T11:29:22.988Z</time></trkpt><trkpt lat="44.5977856" lon="7.691069"><ele>336.0</ele><time>2026-04-12T11:29:25.988Z</time></trkpt><trkpt lat="44.5978134" lon="7.691186"><ele>335.8333333333333</ele><time>2026-04-12T11:29:28.988Z</time></trkpt><trkpt lat="44.5978444" lon="7.6912999"><ele>335.6666666666667</ele><time>2026-04-12T11:29:31.988Z</time></trkpt><trkpt lat="44.5978778" lon="7.6914176"><ele>335.5</ele><time>2026-04-12T11:29:34.988Z</time></trkpt><trkpt lat="44.5979063" lon="7.6915327"><ele>335.33333333333337</ele><time>2026-04-12T11:29:37.988Z</time></trkpt><trkpt lat="44.5979416" lon="7.6916582"><ele>335.1666666666667</ele><time>2026-04-12T11:29:40.988Z</time></trkpt><trkpt lat="44.5979684" lon="7.6917539"><ele>335.0</ele><time>2026-04-12T11:29:42.988Z</time></trkpt><trkpt lat="44.5980007" lon="7.6918698"><ele>334.83333333333337</ele><time>2026-04-12T11:29:44.988Z</time></trkpt><trkpt lat="44.5980313" lon="7.6920065"><ele>334.6666666666667</ele><time>2026-04-12T11:29:46.988Z</time></trkpt><trkpt lat="44.5980583" lon="7.692164"><ele>334.5</ele><time>2026-04-12T11:29:48.988Z</time></trkpt><trkpt lat="44.5980672" lon="7.6922536"><ele>334.3333333333333</ele><time>2026-04-12T11:29:49.988Z</time></trkpt><trkpt lat="44.5980765" lon="7.6923446"><ele>334.16666666666663</ele><time>2026-04-12T11:29:50.988Z</time></trkpt><trkpt lat="44.5980829" lon="7.6924439"><ele>334.0</ele><time>2026-04-12T11:29:51.988Z</time></trkpt><trkpt lat="44.5980867" lon="7.6925507"><ele>334.0</ele><time>2026-04-12T11:29:52.988Z</time></trkpt><trkpt lat="44.5980799" lon="7.692664"><ele>334.0</ele><time>2026-04-12T11:29:53.988Z</time></trkpt><trkpt lat="44.5980691" lon="7.6927785"><ele>334.0</ele><time>2026-04-12T11:29:54.988Z</time></trkpt><trkpt lat="44.598054" lon="7.6928929"><ele>334.0</ele><time>2026-04-12T11:29:55.988Z</time></trkpt><trkpt lat="44.5980397" lon="7.6930061"><ele>334.0</ele><time>2026-04-12T11:29:56.988Z</time></trkpt><trkpt lat="44.5980259" lon="7.6931105"><ele>334.0</ele><time>2026-04-12T11:29:57.988Z</time></trkpt><trkpt lat="44.5979962" lon="7.6932505"><ele>333.79999999999995</ele><time>2026-04-12T11:29:59.988Z</time></trkpt><trkpt lat="44.5979102" lon="7.6932931"><ele>333.59999999999997</ele><time>2026-04-12T11:30:01.988Z</time></trkpt><trkpt lat="44.5978073" lon="7.6932741"><ele>333.4</ele><time>2026-04-12T11:30:03.988Z</time></trkpt><trkpt lat="44.597734" lon="7.6932018"><ele>333.2</ele><time>2026-04-12T11:30:05.988Z</time></trkpt><trkpt lat="44.5977343" lon="7.6930826"><ele>333.0</ele><time>2026-04-12T11:30:07.988Z</time></trkpt><trkpt lat="44.5977451" lon="7.6929586"><ele>333.4</ele><time>2026-04-12T11:30:09.988Z</time></trkpt><trkpt lat="44.5977603" lon="7.6928331"><ele>333.79999999999995</ele><time>2026-04-12T11:30:11.988Z</time></trkpt><trkpt lat="44.5977692" lon="7.6926996"><ele>334.2</ele><time>2026-04-12T11:30:13.988Z</time></trkpt><trkpt lat="44.5977706" lon="7.6925597"><ele>334.6</ele><time>2026-04-12T11:30:15.988Z</time></trkpt><trkpt lat="44.5977787" lon="7.6924136"><ele>335.0</ele><time>2026-04-12T11:30:17.988Z</time></trkpt><trkpt lat="44.5977916" lon="7.6922662"><ele>335.0</ele><time>2026-04-12T11:30:19.988Z</time></trkpt><trkpt lat="44.5978099" lon="7.6921174"><ele>335.0</ele><time>2026-04-12T11:30:21.988Z</time></trkpt><trkpt lat="44.5978168" lon="7.6919717"><ele>335.0</ele><time>2026-04-12T11:30:23.988Z</time></trkpt><trkpt lat="44.5978275" lon="7.6918354"><ele>335.0</ele><time>2026-04-12T11:30:25.988Z</time></trkpt><trkpt lat="44.5978757" lon="7.6917216"><ele>335.0</ele><time>2026-04-12T11:30:27.988Z</time></trkpt><trkpt lat="44.5979592" lon="7.6916401"><ele>335.0</ele><time>2026-04-12T11:30:29.988Z</time></trkpt><trkpt lat="44.5980641" lon="7.6916069"><ele>335.0</ele><time>2026-04-12T11:30:31.988Z</time></trkpt><trkpt lat="44.5981758" lon="7.6915806"><ele>335.0</ele><time>2026-04-12T11:30:33.988Z</time></trkpt><trkpt lat="44.5982902" lon="7.6915828"><ele>335.0</ele><time>2026-04-12T11:30:35.988Z</time></trkpt><trkpt lat="44.5984053" lon="7.6915901"><ele>335.0</ele><time>2026-04-12T11:30:37.988Z</time></trkpt><trkpt lat="44.5985178" lon="7.691608"><ele>335.0</ele><time>2026-04-12T11:30:39.988Z</time></trkpt><trkpt lat="44.5986355" lon="7.6916283"><ele>335.0</ele><time>2026-04-12T11:30:41.988Z</time></trkpt><trkpt lat="44.598752" lon="7.691643"><ele>335.0</ele><time>2026-04-12T11:30:43.988Z</time></trkpt><trkpt lat="44.5988671" lon="7.6916594"><ele>334.5</ele><time>2026-04-12T11:30:45.988Z</time></trkpt><trkpt lat="44.5989826" lon="7.6916794"><ele>334.0</ele><time>2026-04-12T11:30:47.988Z</time></trkpt><trkpt lat="44.5991001" lon="7.6916959"><ele>333.5</ele><time>2026-04-12T11:30:49.988Z</time></trkpt><trkpt lat="44.5992172" lon="7.6917167"><ele>333.0</ele><time>2026-04-12T11:30:51.988Z</time></trkpt><trkpt lat="44.5993261" lon="7.6917297"><ele>333.0</ele><time>2026-04-12T11:30:53.988Z</time></trkpt><trkpt lat="44.5994416" lon="7.6917508"><ele>333.0</ele><time>2026-04-12T11:30:55.988Z</time></trkpt><trkpt lat="44.5995571" lon="7.6917792"><ele>333.0</ele><time>2026-04-12T11:30:57.988Z</time></trkpt><trkpt lat="44.5996775" lon="7.6917973"><ele>333.0</ele><time>2026-04-12T11:30:59.988Z</time></trkpt><trkpt lat="44.5997957" lon="7.6918124"><ele>332.5</ele><time>2026-04-12T11:31:01.988Z</time></trkpt><trkpt lat="44.5999135" lon="7.6918287"><ele>332.0</ele><time>2026-04-12T11:31:03.988Z</time></trkpt><trkpt lat="44.6000327" lon="7.6918527"><ele>331.5</ele><time>2026-04-12T11:31:05.988Z</time></trkpt><trkpt lat="44.6001518" lon="7.691872"><ele>331.0</ele><time>2026-04-12T11:31:07.988Z</time></trkpt><trkpt lat="44.6002731" lon="7.6918789"><ele>331.25</ele><time>2026-04-12T11:31:09.988Z</time></trkpt><trkpt lat="44.6003885" lon="7.6918943"><ele>331.5</ele><time>2026-04-12T11:31:11.988Z</time></trkpt><trkpt lat="44.6005069" lon="7.6918969"><ele>331.75</ele><time>2026-04-12T11:31:13.988Z</time></trkpt><trkpt lat="44.6006196" lon="7.6919018"><ele>332.0</ele><time>2026-04-12T11:31:15.988Z</time></trkpt><trkpt lat="44.600736" lon="7.6919014"><ele>332.0</ele><time>2026-04-12T11:31:17.988Z</time></trkpt><trkpt lat="44.6008489" lon="7.6918902"><ele>332.0</ele><time>2026-04-12T11:31:19.988Z</time></trkpt><trkpt lat="44.6009646" lon="7.6918776"><ele>332.0</ele><time>2026-04-12T11:31:21.988Z</time></trkpt><trkpt lat="44.6010828" lon="7.6918628"><ele>332.0</ele><time>2026-04-12T11:31:23.988Z</time></trkpt><trkpt lat="44.6012003" lon="7.6918477"><ele>332.0</ele><time>2026-04-12T11:31:25.988Z</time></trkpt><trkpt lat="44.6013148" lon="7.6918265"><ele>332.0</ele><time>2026-04-12T11:31:27.988Z</time></trkpt><trkpt lat="44.6014285" lon="7.6918069"><ele>332.0</ele><time>2026-04-12T11:31:29.988Z</time></trkpt><trkpt lat="44.601536" lon="7.6917969"><ele>332.0</ele><time>2026-04-12T11:31:31.988Z</time></trkpt><trkpt lat="44.601647" lon="7.6917804"><ele>332.0</ele><time>2026-04-12T11:31:33.988Z</time></trkpt><trkpt lat="44.6017612" lon="7.691761"><ele>332.0</ele><time>2026-04-12T11:31:35.988Z</time></trkpt><trkpt lat="44.6018772" lon="7.6917559"><ele>332.0</ele><time>2026-04-12T11:31:37.988Z</time></trkpt><trkpt lat="44.6019905" lon="7.691741"><ele>332.0</ele><time>2026-04-12T11:31:39.988Z</time></trkpt><trkpt lat="44.6021054" lon="7.691709"><ele>332.0</ele><time>2026-04-12T11:31:41.988Z</time></trkpt><trkpt lat="44.6022162" lon="7.6916883"><ele>331.8</ele><time>2026-04-12T11:31:43.988Z</time></trkpt><trkpt lat="44.6023265" lon="7.6916655"><ele>331.6</ele><time>2026-04-12T11:31:45.988Z</time></trkpt><trkpt lat="44.6024401" lon="7.691644"><ele>331.40000000000003</ele><time>2026-04-12T11:31:47.988Z</time></trkpt><trkpt lat="44.6025455" lon="7.69162"><ele>331.20000000000005</ele><time>2026-04-12T11:31:49.988Z</time></trkpt><trkpt lat="44.6026493" lon="7.6916077"><ele>331.0</ele><time>2026-04-12T11:31:51.988Z</time></trkpt><trkpt lat="44.602741" lon="7.6916416"><ele>331.0</ele><time>2026-04-12T11:31:53.988Z</time></trkpt><trkpt lat="44.6027844" lon="7.6917594"><ele>331.0</ele><time>2026-04-12T11:31:55.988Z</time></trkpt><trkpt lat="44.6028062" lon="7.6918957"><ele>331.0</ele><time>2026-04-12T11:31:57.988Z</time></trkpt><trkpt lat="44.6028278" lon="7.6920496"><ele>331.0</ele><time>2026-04-12T11:31:59.988Z</time></trkpt><trkpt lat="44.602862" lon="7.6921922"><ele>331.0</ele><time>2026-04-12T11:32:01.988Z</time></trkpt><trkpt lat="44.6028878" lon="7.6923446"><ele>330.75</ele><time>2026-04-12T11:32:03.988Z</time></trkpt><trkpt lat="44.6029197" lon="7.6924985"><ele>330.5</ele><time>2026-04-12T11:32:05.988Z</time></trkpt><trkpt lat="44.6029522" lon="7.6926491"><ele>330.25</ele><time>2026-04-12T11:32:07.988Z</time></trkpt><trkpt lat="44.6029682" lon="7.6928086"><ele>330.0</ele><time>2026-04-12T11:32:09.988Z</time></trkpt><trkpt lat="44.6029989" lon="7.692966"><ele>330.0</ele><time>2026-04-12T11:32:11.988Z</time></trkpt><trkpt lat="44.603034" lon="7.6931247"><ele>330.0</ele><time>2026-04-12T11:32:13.988Z</time></trkpt><trkpt lat="44.6030636" lon="7.6932805"><ele>330.0</ele><time>2026-04-12T11:32:15.988Z</time></trkpt><trkpt lat="44.6030959" lon="7.6934289"><ele>330.0</ele><time>2026-04-12T11:32:17.988Z</time></trkpt><trkpt lat="44.6031215" lon="7.6935793"><ele>330.0</ele><time>2026-04-12T11:32:19.988Z</time></trkpt><trkpt lat="44.6031517" lon="7.6937324"><ele>330.0</ele><time>2026-04-12T11:32:21.988Z</time></trkpt><trkpt lat="44.6031812" lon="7.6938893"><ele>330.0</ele><time>2026-04-12T11:32:23.988Z</time></trkpt><trkpt lat="44.603212" lon="7.694042"><ele>330.0</ele><time>2026-04-12T11:32:25.988Z</time></trkpt><trkpt lat="44.6032397" lon="7.6942029"><ele>330.0</ele><time>2026-04-12T11:32:27.988Z</time></trkpt><trkpt lat="44.6032649" lon="7.6943638"><ele>330.0</ele><time>2026-04-12T11:32:29.988Z</time></trkpt><trkpt lat="44.6032925" lon="7.6945253"><ele>330.0</ele><time>2026-04-12T11:32:31.988Z</time></trkpt><trkpt lat="44.6033251" lon="7.6946861"><ele>330.0</ele><time>2026-04-12T11:32:33.988Z</time></trkpt><trkpt lat="44.6033559" lon="7.6948485"><ele>330.0</ele><time>2026-04-12T11:32:35.988Z</time></trkpt><trkpt lat="44.6033893" lon="7.6950079"><ele>330.0</ele><time>2026-04-12T11:32:37.988Z</time></trkpt><trkpt lat="44.6034204" lon="7.6951631"><ele>330.0</ele><time>2026-04-12T11:32:39.988Z</time></trkpt><trkpt lat="44.6034509" lon="7.6953267"><ele>330.0</ele><time>2026-04-12T11:32:41.988Z</time></trkpt><trkpt lat="44.6034857" lon="7.6954911"><ele>330.0</ele><time>2026-04-12T11:32:43.988Z</time></trkpt><trkpt lat="44.6035097" lon="7.6956538"><ele>330.0</ele><time>2026-04-12T11:32:45.988Z</time></trkpt><trkpt lat="44.6035358" lon="7.6958129"><ele>330.0</ele><time>2026-04-12T11:32:47.988Z</time></trkpt><trkpt lat="44.6035658" lon="7.6959806"><ele>330.0</ele><time>2026-04-12T11:32:49.988Z</time></trkpt><trkpt lat="44.6036266" lon="7.6961212"><ele>329.75</ele><time>2026-04-12T11:32:51.988Z</time></trkpt><trkpt lat="44.6037208" lon="7.6962209"><ele>329.5</ele><time>2026-04-12T11:32:53.988Z</time></trkpt><trkpt lat="44.6038347" lon="7.6962331"><ele>329.25</ele><time>2026-04-12T11:32:55.988Z</time></trkpt><trkpt lat="44.6039523" lon="7.6962065"><ele>329.0</ele><time>2026-04-12T11:32:57.988Z</time></trkpt><trkpt lat="44.6040775" lon="7.6961732"><ele>329.0</ele><time>2026-04-12T11:32:59.988Z</time></trkpt><trkpt lat="44.6041874" lon="7.6961709"><ele>329.0</ele><time>2026-04-12T11:33:01.988Z</time></trkpt><trkpt lat="44.6042973" lon="7.6961842"><ele>329.0</ele><time>2026-04-12T11:33:03.988Z</time></trkpt><trkpt lat="44.6044029" lon="7.69626"><ele>329.0</ele><time>2026-04-12T11:33:05.988Z</time></trkpt><trkpt lat="44.6044673" lon="7.6963838"><ele>329.0</ele><time>2026-04-12T11:33:07.988Z</time></trkpt><trkpt lat="44.6044918" lon="7.6965386"><ele>328.75</ele><time>2026-04-12T11:33:09.988Z</time></trkpt><trkpt lat="44.6045012" lon="7.6966993"><ele>328.5</ele><time>2026-04-12T11:33:11.988Z</time></trkpt><trkpt lat="44.604512" lon="7.6968646"><ele>328.25</ele><time>2026-04-12T11:33:13.988Z</time></trkpt><trkpt lat="44.6045271" lon="7.6970339"><ele>328.0</ele><time>2026-04-12T11:33:15.988Z</time></trkpt><trkpt lat="44.6045459" lon="7.6971997"><ele>327.75</ele><time>2026-04-12T11:33:17.988Z</time></trkpt><trkpt lat="44.6045743" lon="7.6973677"><ele>327.5</ele><time>2026-04-12T11:33:19.988Z</time></trkpt><trkpt lat="44.6045969" lon="7.6975181"><ele>327.25</ele><time>2026-04-12T11:33:21.988Z</time></trkpt><trkpt lat="44.6046172" lon="7.6976718"><ele>327.0</ele><time>2026-04-12T11:33:23.988Z</time></trkpt><trkpt lat="44.6046459" lon="7.6978188"><ele>327.5</ele><time>2026-04-12T11:33:25.988Z</time></trkpt><trkpt lat="44.6046616" lon="7.6979872"><ele>328.0</ele><time>2026-04-12T11:33:27.988Z</time></trkpt><trkpt lat="44.6046832" lon="7.6981539"><ele>328.5</ele><time>2026-04-12T11:33:29.988Z</time></trkpt><trkpt lat="44.6047119" lon="7.6983174"><ele>329.0</ele><time>2026-04-12T11:33:31.988Z</time></trkpt><trkpt lat="44.6047439" lon="7.6984787"><ele>328.75</ele><time>2026-04-12T11:33:33.988Z</time></trkpt><trkpt lat="44.6047749" lon="7.698638"><ele>328.5</ele><time>2026-04-12T11:33:35.988Z</time></trkpt><trkpt lat="44.6048035" lon="7.6987955"><ele>328.25</ele><time>2026-04-12T11:33:37.988Z</time></trkpt><trkpt lat="44.6048347" lon="7.698955"><ele>328.0</ele><time>2026-04-12T11:33:39.988Z</time></trkpt><trkpt lat="44.6048675" lon="7.6991113"><ele>328.0</ele><time>2026-04-12T11:33:41.988Z</time></trkpt><trkpt lat="44.6048993" lon="7.6992665"><ele>328.0</ele><time>2026-04-12T11:33:43.988Z</time></trkpt><trkpt lat="44.6049372" lon="7.6994225"><ele>328.0</ele><time>2026-04-12T11:33:45.988Z</time></trkpt><trkpt lat="44.6049724" lon="7.6995763"><ele>328.0</ele><time>2026-04-12T11:33:47.988Z</time></trkpt><trkpt lat="44.6050025" lon="7.6997357"><ele>328.25</ele><time>2026-04-12T11:33:49.988Z</time></trkpt><trkpt lat="44.6050346" lon="7.699894"><ele>328.5</ele><time>2026-04-12T11:33:51.988Z</time></trkpt><trkpt lat="44.6050671" lon="7.7000545"><ele>328.75</ele><time>2026-04-12T11:33:53.988Z</time></trkpt><trkpt lat="44.6051008" lon="7.7002184"><ele>329.0</ele><time>2026-04-12T11:33:55.988Z</time></trkpt><trkpt lat="44.605131" lon="7.7003779"><ele>329.0</ele><time>2026-04-12T11:33:57.988Z</time></trkpt><trkpt lat="44.6051671" lon="7.700534"><ele>329.0</ele><time>2026-04-12T11:33:59.988Z</time></trkpt><trkpt lat="44.6051983" lon="7.700696"><ele>329.0</ele><time>2026-04-12T11:34:01.988Z</time></trkpt><trkpt lat="44.6052347" lon="7.70085"><ele>329.0</ele><time>2026-04-12T11:34:03.988Z</time></trkpt><trkpt lat="44.6052605" lon="7.7009884"><ele>328.83333333333337</ele><time>2026-04-12T11:34:05.988Z</time></trkpt><trkpt lat="44.6052853" lon="7.7011098"><ele>328.6666666666667</ele><time>2026-04-12T11:34:07.988Z</time></trkpt><trkpt lat="44.6053066" lon="7.7012264"><ele>328.5</ele><time>2026-04-12T11:34:09.988Z</time></trkpt><trkpt lat="44.6053285" lon="7.7013417"><ele>328.3333333333333</ele><time>2026-04-12T11:34:11.988Z</time></trkpt><trkpt lat="44.6053505" lon="7.70145"><ele>328.16666666666663</ele><time>2026-04-12T11:34:13.988Z</time></trkpt><trkpt lat="44.6053647" lon="7.7015531"><ele>328.0</ele><time>2026-04-12T11:34:15.988Z</time></trkpt><trkpt lat="44.6053499" lon="7.7014491"><ele>327.79999999999995</ele><time>2026-04-12T11:34:23.988Z</time></trkpt><trkpt lat="44.6053231" lon="7.7013266"><ele>327.6</ele><time>2026-04-12T11:34:25.988Z</time></trkpt><trkpt lat="44.6053026" lon="7.7011897"><ele>327.4</ele><time>2026-04-12T11:34:27.988Z</time></trkpt><trkpt lat="44.6052743" lon="7.7010527"><ele>327.20000000000005</ele><time>2026-04-12T11:34:29.988Z</time></trkpt><trkpt lat="44.6052497" lon="7.7009142"><ele>327.0</ele><time>2026-04-12T11:34:31.988Z</time></trkpt><trkpt lat="44.605229" lon="7.7007656"><ele>327.40000000000003</ele><time>2026-04-12T11:34:33.988Z</time></trkpt><trkpt lat="44.6051987" lon="7.70062"><ele>327.8</ele><time>2026-04-12T11:34:35.988Z</time></trkpt><trkpt lat="44.6051702" lon="7.7004769"><ele>328.2</ele><time>2026-04-12T11:34:37.988Z</time></trkpt><trkpt lat="44.6051407" lon="7.7003307"><ele>328.6</ele><time>2026-04-12T11:34:39.988Z</time></trkpt><trkpt lat="44.6051109" lon="7.7001846"><ele>329.0</ele><time>2026-04-12T11:34:41.988Z</time></trkpt><trkpt lat="44.6050803" lon="7.7000396"><ele>329.0</ele><time>2026-04-12T11:34:43.988Z</time></trkpt><trkpt lat="44.605051" lon="7.6998891"><ele>329.0</ele><time>2026-04-12T11:34:45.988Z</time></trkpt><trkpt lat="44.6050225" lon="7.6997423"><ele>329.0</ele><time>2026-04-12T11:34:47.988Z</time></trkpt><trkpt lat="44.6049865" lon="7.6995971"><ele>329.0</ele><time>2026-04-12T11:34:49.988Z</time></trkpt><trkpt lat="44.6049537" lon="7.6994482"><ele>329.0</ele><time>2026-04-12T11:34:51.988Z</time></trkpt><trkpt lat="44.6049196" lon="7.6992957"><ele>329.0</ele><time>2026-04-12T11:34:53.988Z</time></trkpt><trkpt lat="44.6048923" lon="7.6991481"><ele>329.0</ele><time>2026-04-12T11:34:55.988Z</time></trkpt><trkpt lat="44.6048645" lon="7.6989997"><ele>329.0</ele><time>2026-04-12T11:34:57.988Z</time></trkpt><trkpt lat="44.6048369" lon="7.6988478"><ele>329.0</ele><time>2026-04-12T11:34:59.988Z</time></trkpt><trkpt lat="44.6048061" lon="7.6986998"><ele>329.0</ele><time>2026-04-12T11:35:01.988Z</time></trkpt><trkpt lat="44.6047751" lon="7.6985553"><ele>329.0</ele><time>2026-04-12T11:35:03.988Z</time></trkpt><trkpt lat="44.6047425" lon="7.6984053"><ele>329.0</ele><time>2026-04-12T11:35:05.988Z</time></trkpt><trkpt lat="44.6047144" lon="7.6982459"><ele>329.0</ele><time>2026-04-12T11:35:07.988Z</time></trkpt><trkpt lat="44.6046903" lon="7.698092"><ele>329.0</ele><time>2026-04-12T11:35:09.988Z</time></trkpt><trkpt lat="44.6046645" lon="7.697939"><ele>329.0</ele><time>2026-04-12T11:35:11.988Z</time></trkpt><trkpt lat="44.6046434" lon="7.6977809"><ele>329.0</ele><time>2026-04-12T11:35:13.988Z</time></trkpt><trkpt lat="44.6046245" lon="7.697637"><ele>329.0</ele><time>2026-04-12T11:35:15.988Z</time></trkpt><trkpt lat="44.604604" lon="7.6974938"><ele>329.0</ele><time>2026-04-12T11:35:17.988Z</time></trkpt><trkpt lat="44.60458" lon="7.6973436"><ele>329.0</ele><time>2026-04-12T11:35:19.988Z</time></trkpt><trkpt lat="44.6045595" lon="7.6971938"><ele>329.0</ele><time>2026-04-12T11:35:21.988Z</time></trkpt><trkpt lat="44.6045435" lon="7.6970442"><ele>329.0</ele><time>2026-04-12T11:35:23.988Z</time></trkpt><trkpt lat="44.6045252" lon="7.6968933"><ele>329.0</ele><time>2026-04-12T11:35:25.988Z</time></trkpt><trkpt lat="44.6045085" lon="7.6967453"><ele>329.0</ele><time>2026-04-12T11:35:27.988Z</time></trkpt><trkpt lat="44.6044913" lon="7.6966001"><ele>329.0</ele><time>2026-04-12T11:35:29.988Z</time></trkpt><trkpt lat="44.6044696" lon="7.6964519"><ele>329.0</ele><time>2026-04-12T11:35:31.988Z</time></trkpt><trkpt lat="44.6044192" lon="7.6963193"><ele>329.0</ele><time>2026-04-12T11:35:33.988Z</time></trkpt><trkpt lat="44.6043596" lon="7.6961957"><ele>329.0</ele><time>2026-04-12T11:35:35.988Z</time></trkpt><trkpt lat="44.6043408" lon="7.6960554"><ele>329.0</ele><time>2026-04-12T11:35:37.988Z</time></trkpt><trkpt lat="44.6043607" lon="7.6959045"><ele>329.0</ele><time>2026-04-12T11:35:39.988Z</time></trkpt><trkpt lat="44.6043973" lon="7.6957571"><ele>329.0</ele><time>2026-04-12T11:35:41.988Z</time></trkpt><trkpt lat="44.604435" lon="7.6956113"><ele>329.0</ele><time>2026-04-12T11:35:43.988Z</time></trkpt><trkpt lat="44.6044778" lon="7.6954704"><ele>329.0</ele><time>2026-04-12T11:35:45.988Z</time></trkpt><trkpt lat="44.6045202" lon="7.6953236"><ele>329.0</ele><time>2026-04-12T11:35:47.988Z</time></trkpt><trkpt lat="44.6045576" lon="7.6951757"><ele>329.0</ele><time>2026-04-12T11:35:49.988Z</time></trkpt><trkpt lat="44.6045977" lon="7.695035"><ele>329.0</ele><time>2026-04-12T11:35:51.988Z</time></trkpt><trkpt lat="44.6046561" lon="7.6948974"><ele>329.0</ele><time>2026-04-12T11:35:53.988Z</time></trkpt><trkpt lat="44.6047372" lon="7.6948026"><ele>329.0</ele><time>2026-04-12T11:35:55.988Z</time></trkpt><trkpt lat="44.6048394" lon="7.6947314"><ele>329.0</ele><time>2026-04-12T11:35:57.988Z</time></trkpt><trkpt lat="44.6049238" lon="7.6946306"><ele>329.0</ele><time>2026-04-12T11:35:59.988Z</time></trkpt><trkpt lat="44.6049921" lon="7.6945066"><ele>329.2</ele><time>2026-04-12T11:36:01.988Z</time></trkpt><trkpt lat="44.6050278" lon="7.6943541"><ele>329.4</ele><time>2026-04-12T11:36:03.988Z</time></trkpt><trkpt lat="44.605011" lon="7.6942057"><ele>329.6</ele><time>2026-04-12T11:36:05.988Z</time></trkpt><trkpt lat="44.6049698" lon="7.6940739"><ele>329.8</ele><time>2026-04-12T11:36:07.988Z</time></trkpt><trkpt lat="44.6049839" lon="7.6939362"><ele>330.0</ele><time>2026-04-12T11:36:09.988Z</time></trkpt><trkpt lat="44.6050543" lon="7.6938372"><ele>330.0</ele><time>2026-04-12T11:36:11.988Z</time></trkpt><trkpt lat="44.6051471" lon="7.6937753"><ele>330.0</ele><time>2026-04-12T11:36:13.988Z</time></trkpt><trkpt lat="44.6052463" lon="7.6937243"><ele>330.0</ele><time>2026-04-12T11:36:15.988Z</time></trkpt><trkpt lat="44.6053475" lon="7.6936711"><ele>330.0</ele><time>2026-04-12T11:36:17.988Z</time></trkpt><trkpt lat="44.6054519" lon="7.6936373"><ele>330.0</ele><time>2026-04-12T11:36:19.988Z</time></trkpt><trkpt lat="44.6055553" lon="7.6935849"><ele>329.8</ele><time>2026-04-12T11:36:21.988Z</time></trkpt><trkpt lat="44.6056603" lon="7.6935382"><ele>329.6</ele><time>2026-04-12T11:36:23.988Z</time></trkpt><trkpt lat="44.6057631" lon="7.6934925"><ele>329.4</ele><time>2026-04-12T11:36:25.988Z</time></trkpt><trkpt lat="44.6058674" lon="7.6934467"><ele>329.2</ele><time>2026-04-12T11:36:27.988Z</time></trkpt><trkpt lat="44.6059726" lon="7.6934135"><ele>329.0</ele><time>2026-04-12T11:36:29.988Z</time></trkpt><trkpt lat="44.6060769" lon="7.6933927"><ele>328.79999999999995</ele><time>2026-04-12T11:36:31.988Z</time></trkpt><trkpt lat="44.6061867" lon="7.6933834"><ele>328.59999999999997</ele><time>2026-04-12T11:36:33.988Z</time></trkpt><trkpt lat="44.6062975" lon="7.6933782"><ele>328.4</ele><time>2026-04-12T11:36:35.988Z</time></trkpt><trkpt lat="44.6064064" lon="7.6933769"><ele>328.2</ele><time>2026-04-12T11:36:37.988Z</time></trkpt><trkpt lat="44.6065186" lon="7.6933798"><ele>328.0</ele><time>2026-04-12T11:36:39.988Z</time></trkpt><trkpt lat="44.6066281" lon="7.6933669"><ele>328.0</ele><time>2026-04-12T11:36:41.988Z</time></trkpt><trkpt lat="44.6067373" lon="7.6933663"><ele>328.0</ele><time>2026-04-12T11:36:43.988Z</time></trkpt><trkpt lat="44.6068573" lon="7.693363"><ele>328.0</ele><time>2026-04-12T11:36:45.988Z</time></trkpt><trkpt lat="44.6069753" lon="7.6933602"><ele>328.0</ele><time>2026-04-12T11:36:47.988Z</time></trkpt><trkpt lat="44.6070873" lon="7.6933546"><ele>328.0</ele><time>2026-04-12T11:36:49.988Z</time></trkpt><trkpt lat="44.6072018" lon="7.6933465"><ele>328.0</ele><time>2026-04-12T11:36:51.988Z</time></trkpt><trkpt lat="44.60732" lon="7.6933455"><ele>328.0</ele><time>2026-04-12T11:36:53.988Z</time></trkpt><trkpt lat="44.6074325" lon="7.6933369"><ele>328.0</ele><time>2026-04-12T11:36:55.988Z</time></trkpt><trkpt lat="44.6075477" lon="7.693335"><ele>328.0</ele><time>2026-04-12T11:36:57.988Z</time></trkpt><trkpt lat="44.6076617" lon="7.6933282"><ele>328.0</ele><time>2026-04-12T11:36:59.988Z</time></trkpt><trkpt lat="44.6077258" lon="7.6933358"><ele>328.0</ele><time>2026-04-12T11:37:00.988Z</time></trkpt><trkpt lat="44.607845" lon="7.6933265"><ele>328.0</ele><time>2026-04-12T11:37:02.988Z</time></trkpt><trkpt lat="44.6079694" lon="7.6933128"><ele>328.0</ele><time>2026-04-12T11:37:04.988Z</time></trkpt><trkpt lat="44.6080871" lon="7.6933162"><ele>328.5</ele><time>2026-04-12T11:37:06.988Z</time></trkpt><trkpt lat="44.6082033" lon="7.6933158"><ele>329.0</ele><time>2026-04-12T11:37:08.988Z</time></trkpt><trkpt lat="44.6083159" lon="7.6933062"><ele>329.5</ele><time>2026-04-12T11:37:10.988Z</time></trkpt><trkpt lat="44.6084328" lon="7.6933004"><ele>330.0</ele><time>2026-04-12T11:37:12.988Z</time></trkpt><trkpt lat="44.6085555" lon="7.6933032"><ele>330.0</ele><time>2026-04-12T11:37:14.988Z</time></trkpt><trkpt lat="44.6086201" lon="7.6933028"><ele>330.0</ele><time>2026-04-12T11:37:15.988Z</time></trkpt><trkpt lat="44.6087395" lon="7.6932926"><ele>330.0</ele><time>2026-04-12T11:37:17.988Z</time></trkpt><trkpt lat="44.6088603" lon="7.6932908"><ele>330.0</ele><time>2026-04-12T11:37:19.988Z</time></trkpt><trkpt lat="44.6089804" lon="7.693288"><ele>330.0</ele><time>2026-04-12T11:37:21.988Z</time></trkpt><trkpt lat="44.609103" lon="7.6932751"><ele>329.75</ele><time>2026-04-12T11:37:23.988Z</time></trkpt><trkpt lat="44.6092226" lon="7.6932619"><ele>329.5</ele><time>2026-04-12T11:37:25.988Z</time></trkpt><trkpt lat="44.6093392" lon="7.693237"><ele>329.25</ele><time>2026-04-12T11:37:27.988Z</time></trkpt><trkpt lat="44.6094498" lon="7.6931829"><ele>329.0</ele><time>2026-04-12T11:37:29.988Z</time></trkpt><trkpt lat="44.6095607" lon="7.6931164"><ele>328.25</ele><time>2026-04-12T11:37:31.988Z</time></trkpt><trkpt lat="44.6096672" lon="7.6930497"><ele>327.5</ele><time>2026-04-12T11:37:33.988Z</time></trkpt><trkpt lat="44.6097746" lon="7.6929864"><ele>326.75</ele><time>2026-04-12T11:37:35.988Z</time></trkpt><trkpt lat="44.6098842" lon="7.6929358"><ele>326.0</ele><time>2026-04-12T11:37:37.988Z</time></trkpt><trkpt lat="44.6099935" lon="7.6928803"><ele>326.0</ele><time>2026-04-12T11:37:39.988Z</time></trkpt><trkpt lat="44.6101024" lon="7.6928407"><ele>326.0</ele><time>2026-04-12T11:37:41.988Z</time></trkpt><trkpt lat="44.610219" lon="7.6928322"><ele>326.0</ele><time>2026-04-12T11:37:43.988Z</time></trkpt><trkpt lat="44.6103335" lon="7.6928561"><ele>326.0</ele><time>2026-04-12T11:37:45.988Z</time></trkpt><trkpt lat="44.610447" lon="7.692889"><ele>326.20000000000005</ele><time>2026-04-12T11:37:47.988Z</time></trkpt><trkpt lat="44.6105632" lon="7.6929171"><ele>326.40000000000003</ele><time>2026-04-12T11:37:49.988Z</time></trkpt><trkpt lat="44.610676" lon="7.6928999"><ele>326.6</ele><time>2026-04-12T11:37:51.988Z</time></trkpt><trkpt lat="44.6107722" lon="7.6928328"><ele>326.8</ele><time>2026-04-12T11:37:53.988Z</time></trkpt><trkpt lat="44.610878" lon="7.6927952"><ele>327.0</ele><time>2026-04-12T11:37:55.988Z</time></trkpt><trkpt lat="44.6109953" lon="7.6927939"><ele>327.0</ele><time>2026-04-12T11:37:57.988Z</time></trkpt><trkpt lat="44.6111075" lon="7.6927795"><ele>327.0</ele><time>2026-04-12T11:37:59.988Z</time></trkpt><trkpt lat="44.6111709" lon="7.6927695"><ele>327.0</ele><time>2026-04-12T11:38:00.988Z</time></trkpt><trkpt lat="44.6112887" lon="7.6927512"><ele>327.0</ele><time>2026-04-12T11:38:02.988Z</time></trkpt><trkpt lat="44.6113956" lon="7.6927304"><ele>327.0</ele><time>2026-04-12T11:38:04.988Z</time></trkpt><trkpt lat="44.6115071" lon="7.6927078"><ele>327.25</ele><time>2026-04-12T11:38:06.988Z</time></trkpt><trkpt lat="44.6116196" lon="7.6926913"><ele>327.5</ele><time>2026-04-12T11:38:08.988Z</time></trkpt><trkpt lat="44.6117357" lon="7.6926694"><ele>327.75</ele><time>2026-04-12T11:38:10.988Z</time></trkpt><trkpt lat="44.6118526" lon="7.6926507"><ele>328.0</ele><time>2026-04-12T11:38:12.988Z</time></trkpt><trkpt lat="44.6119697" lon="7.6926431"><ele>327.5</ele><time>2026-04-12T11:38:14.988Z</time></trkpt><trkpt lat="44.6120897" lon="7.6926448"><ele>327.0</ele><time>2026-04-12T11:38:16.988Z</time></trkpt><trkpt lat="44.6122092" lon="7.6926347"><ele>326.5</ele><time>2026-04-12T11:38:18.988Z</time></trkpt><trkpt lat="44.6123308" lon="7.6926322"><ele>326.0</ele><time>2026-04-12T11:38:20.988Z</time></trkpt><trkpt lat="44.6124541" lon="7.6926302"><ele>326.0</ele><time>2026-04-12T11:38:22.988Z</time></trkpt><trkpt lat="44.6125712" lon="7.692635"><ele>326.0</ele><time>2026-04-12T11:38:24.988Z</time></trkpt><trkpt lat="44.6126838" lon="7.6926338"><ele>326.0</ele><time>2026-04-12T11:38:26.988Z</time></trkpt><trkpt lat="44.6127985" lon="7.692617"><ele>326.0</ele><time>2026-04-12T11:38:28.988Z</time></trkpt><trkpt lat="44.612918" lon="7.6926105"><ele>325.4</ele><time>2026-04-12T11:38:30.988Z</time></trkpt><trkpt lat="44.6130159" lon="7.6925928"><ele>324.8</ele><time>2026-04-12T11:38:32.988Z</time></trkpt><trkpt lat="44.6130982" lon="7.6925304"><ele>324.2</ele><time>2026-04-12T11:38:34.988Z</time></trkpt><trkpt lat="44.6131254" lon="7.6924087"><ele>323.59999999999997</ele><time>2026-04-12T11:38:36.988Z</time></trkpt><trkpt lat="44.6131009" lon="7.6922899"><ele>323.0</ele><time>2026-04-12T11:38:38.988Z</time></trkpt><trkpt lat="44.6130589" lon="7.6921717"><ele>323.0</ele><time>2026-04-12T11:38:40.988Z</time></trkpt><trkpt lat="44.6130306" lon="7.6920281"><ele>323.0</ele><time>2026-04-12T11:38:42.988Z</time></trkpt><trkpt lat="44.6129999" lon="7.6918906"><ele>323.0</ele><time>2026-04-12T11:38:44.988Z</time></trkpt><trkpt lat="44.6129676" lon="7.6917544"><ele>323.0</ele><time>2026-04-12T11:38:46.988Z</time></trkpt><trkpt lat="44.6129361" lon="7.6916112"><ele>323.0</ele><time>2026-04-12T11:38:48.988Z</time></trkpt><trkpt lat="44.6129125" lon="7.6914694"><ele>323.2</ele><time>2026-04-12T11:38:50.988Z</time></trkpt><trkpt lat="44.6129122" lon="7.6913223"><ele>323.4</ele><time>2026-04-12T11:38:52.988Z</time></trkpt><trkpt lat="44.6129651" lon="7.6911997"><ele>323.59999999999997</ele><time>2026-04-12T11:38:54.988Z</time></trkpt><trkpt lat="44.6130606" lon="7.6911389"><ele>323.79999999999995</ele><time>2026-04-12T11:38:56.988Z</time></trkpt><trkpt lat="44.6131653" lon="7.6911167"><ele>324.0</ele><time>2026-04-12T11:38:58.988Z</time></trkpt><trkpt lat="44.6132833" lon="7.691111"><ele>324.0</ele><time>2026-04-12T11:39:00.988Z</time></trkpt><trkpt lat="44.6133989" lon="7.691098"><ele>324.0</ele><time>2026-04-12T11:39:02.988Z</time></trkpt><trkpt lat="44.6135104" lon="7.6910841"><ele>324.0</ele><time>2026-04-12T11:39:04.988Z</time></trkpt><trkpt lat="44.6136279" lon="7.6910575"><ele>324.0</ele><time>2026-04-12T11:39:06.988Z</time></trkpt><trkpt lat="44.6137459" lon="7.6910292"><ele>324.0</ele><time>2026-04-12T11:39:08.988Z</time></trkpt><trkpt lat="44.6138613" lon="7.6910103"><ele>324.0</ele><time>2026-04-12T11:39:10.988Z</time></trkpt><trkpt lat="44.6139758" lon="7.6909947"><ele>324.0</ele><time>2026-04-12T11:39:12.988Z</time></trkpt><trkpt lat="44.6140863" lon="7.6909719"><ele>324.0</ele><time>2026-04-12T11:39:14.988Z</time></trkpt><trkpt lat="44.614199" lon="7.6909497"><ele>324.0</ele><time>2026-04-12T11:39:16.988Z</time></trkpt><trkpt lat="44.6143159" lon="7.6909244"><ele>324.0</ele><time>2026-04-12T11:39:18.988Z</time></trkpt><trkpt lat="44.61443" lon="7.6909043"><ele>324.0</ele><time>2026-04-12T11:39:20.988Z</time></trkpt><trkpt lat="44.614537" lon="7.6908874"><ele>324.0</ele><time>2026-04-12T11:39:22.988Z</time></trkpt><trkpt lat="44.6146475" lon="7.6908593"><ele>323.75</ele><time>2026-04-12T11:39:24.988Z</time></trkpt><trkpt lat="44.6147657" lon="7.6908475"><ele>323.5</ele><time>2026-04-12T11:39:26.988Z</time></trkpt><trkpt lat="44.6148835" lon="7.6908305"><ele>323.25</ele><time>2026-04-12T11:39:28.988Z</time></trkpt><trkpt lat="44.6149971" lon="7.6908169"><ele>323.0</ele><time>2026-04-12T11:39:30.988Z</time></trkpt><trkpt lat="44.6151113" lon="7.6907896"><ele>323.0</ele><time>2026-04-12T11:39:32.988Z</time></trkpt><trkpt lat="44.6152249" lon="7.6907694"><ele>323.0</ele><time>2026-04-12T11:39:34.988Z</time></trkpt><trkpt lat="44.615339" lon="7.6907421"><ele>323.0</ele><time>2026-04-12T11:39:36.988Z</time></trkpt><trkpt lat="44.6154511" lon="7.6907152"><ele>323.0</ele><time>2026-04-12T11:39:38.988Z</time></trkpt><trkpt lat="44.615565" lon="7.6907012"><ele>323.4</ele><time>2026-04-12T11:39:40.988Z</time></trkpt><trkpt lat="44.6156752" lon="7.6906924"><ele>323.79999999999995</ele><time>2026-04-12T11:39:42.988Z</time></trkpt><trkpt lat="44.6157862" lon="7.6907002"><ele>324.2</ele><time>2026-04-12T11:39:44.988Z</time></trkpt><trkpt lat="44.6158922" lon="7.6906886"><ele>324.6</ele><time>2026-04-12T11:39:46.988Z</time></trkpt><trkpt lat="44.6160073" lon="7.6906744"><ele>325.0</ele><time>2026-04-12T11:39:48.988Z</time></trkpt><trkpt lat="44.6161149" lon="7.6906597"><ele>324.5</ele><time>2026-04-12T11:39:50.988Z</time></trkpt><trkpt lat="44.616225" lon="7.6906311"><ele>324.0</ele><time>2026-04-12T11:39:52.988Z</time></trkpt><trkpt lat="44.6163345" lon="7.6905954"><ele>323.5</ele><time>2026-04-12T11:39:54.988Z</time></trkpt><trkpt lat="44.6164478" lon="7.6905631"><ele>323.0</ele><time>2026-04-12T11:39:56.988Z</time></trkpt><trkpt lat="44.6165673" lon="7.6905241"><ele>323.0</ele><time>2026-04-12T11:39:58.988Z</time></trkpt><trkpt lat="44.6166736" lon="7.6904853"><ele>323.0</ele><time>2026-04-12T11:40:00.988Z</time></trkpt><trkpt lat="44.6167632" lon="7.6904277"><ele>323.0</ele><time>2026-04-12T11:40:02.988Z</time></trkpt><trkpt lat="44.6168255" lon="7.6903166"><ele>323.0</ele><time>2026-04-12T11:40:04.988Z</time></trkpt><trkpt lat="44.6168326" lon="7.6901883"><ele>323.0</ele><time>2026-04-12T11:40:06.988Z</time></trkpt><trkpt lat="44.6168198" lon="7.6900688"><ele>323.0</ele><time>2026-04-12T11:40:08.988Z</time></trkpt><trkpt lat="44.6168137" lon="7.6899546"><ele>323.0</ele><time>2026-04-12T11:40:10.988Z</time></trkpt><trkpt lat="44.6168426" lon="7.6898345"><ele>323.0</ele><time>2026-04-12T11:40:12.988Z</time></trkpt><trkpt lat="44.6168927" lon="7.6897278"><ele>323.0</ele><time>2026-04-12T11:40:14.988Z</time></trkpt><trkpt lat="44.6169713" lon="7.6896555"><ele>323.0</ele><time>2026-04-12T11:40:16.988Z</time></trkpt><trkpt lat="44.6170521" lon="7.6895843"><ele>323.0</ele><time>2026-04-12T11:40:18.988Z</time></trkpt><trkpt lat="44.6171351" lon="7.6895142"><ele>323.0</ele><time>2026-04-12T11:40:20.988Z</time></trkpt><trkpt lat="44.6172194" lon="7.6894332"><ele>323.0</ele><time>2026-04-12T11:40:22.988Z</time></trkpt><trkpt lat="44.6173058" lon="7.6893562"><ele>323.0</ele><time>2026-04-12T11:40:24.988Z</time></trkpt><trkpt lat="44.6173945" lon="7.6892847"><ele>323.0</ele><time>2026-04-12T11:40:26.988Z</time></trkpt><trkpt lat="44.6174851" lon="7.6892117"><ele>323.0</ele><time>2026-04-12T11:40:28.988Z</time></trkpt><trkpt lat="44.6175816" lon="7.6891532"><ele>323.0</ele><time>2026-04-12T11:40:30.988Z</time></trkpt><trkpt lat="44.6176796" lon="7.6891002"><ele>323.0</ele><time>2026-04-12T11:40:32.988Z</time></trkpt><trkpt lat="44.6177833" lon="7.6890545"><ele>323.0</ele><time>2026-04-12T11:40:34.988Z</time></trkpt><trkpt lat="44.6178863" lon="7.6890114"><ele>323.0</ele><time>2026-04-12T11:40:36.988Z</time></trkpt><trkpt lat="44.6179871" lon="7.6889488"><ele>323.0</ele><time>2026-04-12T11:40:38.988Z</time></trkpt><trkpt lat="44.6180932" lon="7.6888978"><ele>323.0</ele><time>2026-04-12T11:40:40.988Z</time></trkpt><trkpt lat="44.6181981" lon="7.6888477"><ele>323.0</ele><time>2026-04-12T11:40:42.988Z</time></trkpt><trkpt lat="44.6182969" lon="7.6887978"><ele>323.0</ele><time>2026-04-12T11:40:44.988Z</time></trkpt><trkpt lat="44.618402" lon="7.6887511"><ele>323.0</ele><time>2026-04-12T11:40:46.988Z</time></trkpt><trkpt lat="44.6185063" lon="7.6887092"><ele>323.0</ele><time>2026-04-12T11:40:48.988Z</time></trkpt><trkpt lat="44.6186042" lon="7.6886807"><ele>323.0</ele><time>2026-04-12T11:40:50.988Z</time></trkpt><trkpt lat="44.6186928" lon="7.688636"><ele>323.0</ele><time>2026-04-12T11:40:52.988Z</time></trkpt><trkpt lat="44.6187802" lon="7.6885982"><ele>323.0</ele><time>2026-04-12T11:40:54.988Z</time></trkpt><trkpt lat="44.6188648" lon="7.6885724"><ele>323.0</ele><time>2026-04-12T11:40:56.988Z</time></trkpt><trkpt lat="44.6189413" lon="7.6885997"><ele>323.1666666666667</ele><time>2026-04-12T11:40:58.988Z</time></trkpt><trkpt lat="44.6189857" lon="7.6886712"><ele>323.33333333333337</ele><time>2026-04-12T11:41:00.988Z</time></trkpt><trkpt lat="44.6190745" lon="7.6886952"><ele>323.5</ele><time>2026-04-12T11:41:02.988Z</time></trkpt><trkpt lat="44.6191709" lon="7.6886652"><ele>323.6666666666667</ele><time>2026-04-12T11:41:04.988Z</time></trkpt><trkpt lat="44.6192616" lon="7.6886183"><ele>323.8333333333333</ele><time>2026-04-12T11:41:06.988Z</time></trkpt><trkpt lat="44.6193495" lon="7.6885865"><ele>324.0</ele><time>2026-04-12T11:41:08.988Z</time></trkpt><trkpt lat="44.6194146" lon="7.6885113"><ele>324.2</ele><time>2026-04-12T11:41:10.988Z</time></trkpt><trkpt lat="44.6194666" lon="7.6884183"><ele>324.4</ele><time>2026-04-12T11:41:12.988Z</time></trkpt><trkpt lat="44.6195459" lon="7.688354"><ele>324.6</ele><time>2026-04-12T11:41:14.988Z</time></trkpt><trkpt lat="44.6196432" lon="7.6883224"><ele>324.8</ele><time>2026-04-12T11:41:16.988Z</time></trkpt><trkpt lat="44.6197419" lon="7.688284"><ele>325.0</ele><time>2026-04-12T11:41:18.988Z</time></trkpt><trkpt lat="44.6198453" lon="7.688254"><ele>324.6</ele><time>2026-04-12T11:41:20.988Z</time></trkpt><trkpt lat="44.61995" lon="7.6882163"><ele>324.2</ele><time>2026-04-12T11:41:22.988Z</time></trkpt><trkpt lat="44.6200611" lon="7.6881857"><ele>323.79999999999995</ele><time>2026-04-12T11:41:24.988Z</time></trkpt><trkpt lat="44.6201686" lon="7.6881377"><ele>323.4</ele><time>2026-04-12T11:41:26.988Z</time></trkpt><trkpt lat="44.6202733" lon="7.6880883"><ele>323.0</ele><time>2026-04-12T11:41:28.988Z</time></trkpt><trkpt lat="44.6203764" lon="7.6880035"><ele>322.75</ele><time>2026-04-12T11:41:30.988Z</time></trkpt><trkpt lat="44.6204539" lon="7.6878787"><ele>322.5</ele><time>2026-04-12T11:41:32.988Z</time></trkpt><trkpt lat="44.6204999" lon="7.6877246"><ele>322.25</ele><time>2026-04-12T11:41:34.988Z</time></trkpt><trkpt lat="44.6205467" lon="7.6875784"><ele>322.0</ele><time>2026-04-12T11:41:36.988Z</time></trkpt><trkpt lat="44.6205855" lon="7.6874212"><ele>322.0</ele><time>2026-04-12T11:41:38.988Z</time></trkpt><trkpt lat="44.6206322" lon="7.6872687"><ele>322.0</ele><time>2026-04-12T11:41:40.988Z</time></trkpt><trkpt lat="44.6206799" lon="7.6871296"><ele>322.0</ele><time>2026-04-12T11:41:42.988Z</time></trkpt><trkpt lat="44.6207237" lon="7.6869878"><ele>322.0</ele><time>2026-04-12T11:41:44.988Z</time></trkpt><trkpt lat="44.6207692" lon="7.6868482"><ele>322.0</ele><time>2026-04-12T11:41:46.988Z</time></trkpt><trkpt lat="44.6208116" lon="7.686706"><ele>322.0</ele><time>2026-04-12T11:41:48.988Z</time></trkpt><trkpt lat="44.6208554" lon="7.686572"><ele>322.0</ele><time>2026-04-12T11:41:50.988Z</time></trkpt><trkpt lat="44.6209052" lon="7.6864409"><ele>322.0</ele><time>2026-04-12T11:41:52.988Z</time></trkpt><trkpt lat="44.6209474" lon="7.6863044"><ele>322.0</ele><time>2026-04-12T11:41:54.988Z</time></trkpt><trkpt lat="44.6209859" lon="7.686168"><ele>322.0</ele><time>2026-04-12T11:41:56.988Z</time></trkpt><trkpt lat="44.6210291" lon="7.6860246"><ele>321.8</ele><time>2026-04-12T11:41:58.988Z</time></trkpt><trkpt lat="44.6210713" lon="7.6858899"><ele>321.6</ele><time>2026-04-12T11:42:00.988Z</time></trkpt><trkpt lat="44.6211247" lon="7.6857599"><ele>321.40000000000003</ele><time>2026-04-12T11:42:02.988Z</time></trkpt><trkpt lat="44.621206" lon="7.6856708"><ele>321.20000000000005</ele><time>2026-04-12T11:42:04.988Z</time></trkpt><trkpt lat="44.6213113" lon="7.6856333"><ele>321.0</ele><time>2026-04-12T11:42:06.988Z</time></trkpt><trkpt lat="44.6214202" lon="7.6856436"><ele>321.0</ele><time>2026-04-12T11:42:08.988Z</time></trkpt><trkpt lat="44.6215373" lon="7.6856442"><ele>321.0</ele><time>2026-04-12T11:42:10.988Z</time></trkpt><trkpt lat="44.6216453" lon="7.6856616"><ele>321.0</ele><time>2026-04-12T11:42:12.988Z</time></trkpt><trkpt lat="44.6217549" lon="7.6856648"><ele>321.0</ele><time>2026-04-12T11:42:14.988Z</time></trkpt><trkpt lat="44.6218647" lon="7.685675"><ele>321.0</ele><time>2026-04-12T11:42:16.988Z</time></trkpt><trkpt lat="44.6219731" lon="7.6856839"><ele>320.6</ele><time>2026-04-12T11:42:18.988Z</time></trkpt><trkpt lat="44.6220855" lon="7.6856873"><ele>320.20000000000005</ele><time>2026-04-12T11:42:20.988Z</time></trkpt><trkpt lat="44.6221963" lon="7.6856881"><ele>319.79999999999995</ele><time>2026-04-12T11:42:22.988Z</time></trkpt><trkpt lat="44.6223086" lon="7.6857025"><ele>319.4</ele><time>2026-04-12T11:42:24.988Z</time></trkpt><trkpt lat="44.6224185" lon="7.6857123"><ele>319.0</ele><time>2026-04-12T11:42:26.988Z</time></trkpt><trkpt lat="44.6225253" lon="7.6857271"><ele>319.0</ele><time>2026-04-12T11:42:28.988Z</time></trkpt><trkpt lat="44.6226334" lon="7.6857304"><ele>319.0</ele><time>2026-04-12T11:42:30.988Z</time></trkpt><trkpt lat="44.622742" lon="7.685731"><ele>319.0</ele><time>2026-04-12T11:42:32.988Z</time></trkpt><trkpt lat="44.6228531" lon="7.6857188"><ele>319.0</ele><time>2026-04-12T11:42:34.988Z</time></trkpt><trkpt lat="44.62296" lon="7.6857005"><ele>319.0</ele><time>2026-04-12T11:42:36.988Z</time></trkpt><trkpt lat="44.6230641" lon="7.6856712"><ele>319.75</ele><time>2026-04-12T11:42:38.988Z</time></trkpt><trkpt lat="44.6231769" lon="7.6856295"><ele>320.5</ele><time>2026-04-12T11:42:40.988Z</time></trkpt><trkpt lat="44.6232863" lon="7.6855933"><ele>321.25</ele><time>2026-04-12T11:42:42.988Z</time></trkpt><trkpt lat="44.6233984" lon="7.6855451"><ele>322.0</ele><time>2026-04-12T11:42:44.988Z</time></trkpt><trkpt lat="44.6235067" lon="7.6854965"><ele>322.0</ele><time>2026-04-12T11:42:46.988Z</time></trkpt><trkpt lat="44.6236166" lon="7.6854482"><ele>322.0</ele><time>2026-04-12T11:42:48.988Z</time></trkpt><trkpt lat="44.6237259" lon="7.6854069"><ele>322.0</ele><time>2026-04-12T11:42:50.988Z</time></trkpt><trkpt lat="44.623836" lon="7.6853512"><ele>322.0</ele><time>2026-04-12T11:42:52.988Z</time></trkpt><trkpt lat="44.6239456" lon="7.6853117"><ele>322.0</ele><time>2026-04-12T11:42:54.988Z</time></trkpt><trkpt lat="44.6240499" lon="7.6852584"><ele>322.0</ele><time>2026-04-12T11:42:56.988Z</time></trkpt><trkpt lat="44.6241556" lon="7.685212"><ele>322.0</ele><time>2026-04-12T11:42:58.988Z</time></trkpt><trkpt lat="44.6242617" lon="7.6851606"><ele>322.0</ele><time>2026-04-12T11:43:00.988Z</time></trkpt><trkpt lat="44.6243634" lon="7.6851106"><ele>322.0</ele><time>2026-04-12T11:43:02.988Z</time></trkpt><trkpt lat="44.6244641" lon="7.6850574"><ele>322.0</ele><time>2026-04-12T11:43:04.988Z</time></trkpt><trkpt lat="44.6245677" lon="7.6850049"><ele>322.0</ele><time>2026-04-12T11:43:06.988Z</time></trkpt><trkpt lat="44.6246737" lon="7.6849656"><ele>322.0</ele><time>2026-04-12T11:43:08.988Z</time></trkpt><trkpt lat="44.6247739" lon="7.6849238"><ele>322.0</ele><time>2026-04-12T11:43:10.988Z</time></trkpt><trkpt lat="44.6248739" lon="7.6848583"><ele>322.0</ele><time>2026-04-12T11:43:12.988Z</time></trkpt><trkpt lat="44.6249787" lon="7.6848103"><ele>322.0</ele><time>2026-04-12T11:43:14.988Z</time></trkpt><trkpt lat="44.6250781" lon="7.6847483"><ele>322.0</ele><time>2026-04-12T11:43:16.988Z</time></trkpt><trkpt lat="44.6251802" lon="7.6846825"><ele>322.0</ele><time>2026-04-12T11:43:18.988Z</time></trkpt><trkpt lat="44.6252762" lon="7.684621"><ele>322.0</ele><time>2026-04-12T11:43:20.988Z</time></trkpt><trkpt lat="44.6253736" lon="7.6845651"><ele>322.0</ele><time>2026-04-12T11:43:22.988Z</time></trkpt><trkpt lat="44.6254743" lon="7.6844955"><ele>321.8</ele><time>2026-04-12T11:43:24.988Z</time></trkpt><trkpt lat="44.6255762" lon="7.6844337"><ele>321.6</ele><time>2026-04-12T11:43:26.988Z</time></trkpt><trkpt lat="44.6256786" lon="7.6843716"><ele>321.40000000000003</ele><time>2026-04-12T11:43:28.988Z</time></trkpt><trkpt lat="44.6257853" lon="7.6843146"><ele>321.20000000000005</ele><time>2026-04-12T11:43:30.988Z</time></trkpt><trkpt lat="44.6258829" lon="7.6842519"><ele>321.0</ele><time>2026-04-12T11:43:32.988Z</time></trkpt><trkpt lat="44.6259854" lon="7.6841885"><ele>321.75</ele><time>2026-04-12T11:43:34.988Z</time></trkpt><trkpt lat="44.6260928" lon="7.6841242"><ele>322.5</ele><time>2026-04-12T11:43:36.988Z</time></trkpt><trkpt lat="44.6262009" lon="7.6840654"><ele>323.25</ele><time>2026-04-12T11:43:38.988Z</time></trkpt><trkpt lat="44.6263048" lon="7.684005"><ele>324.0</ele><time>2026-04-12T11:43:40.988Z</time></trkpt><trkpt lat="44.6264116" lon="7.6839479"><ele>324.0</ele><time>2026-04-12T11:43:42.988Z</time></trkpt><trkpt lat="44.6265183" lon="7.6838966"><ele>324.0</ele><time>2026-04-12T11:43:44.988Z</time></trkpt><trkpt lat="44.6266202" lon="7.6838398"><ele>324.0</ele><time>2026-04-12T11:43:46.988Z</time></trkpt><trkpt lat="44.6267248" lon="7.683787"><ele>324.0</ele><time>2026-04-12T11:43:48.988Z</time></trkpt><trkpt lat="44.626833" lon="7.683733"><ele>324.0</ele><time>2026-04-12T11:43:50.988Z</time></trkpt><trkpt lat="44.6269362" lon="7.6836801"><ele>323.79999999999995</ele><time>2026-04-12T11:43:52.988Z</time></trkpt><trkpt lat="44.6270458" lon="7.683631"><ele>323.59999999999997</ele><time>2026-04-12T11:43:54.988Z</time></trkpt><trkpt lat="44.6271498" lon="7.6835779"><ele>323.4</ele><time>2026-04-12T11:43:56.988Z</time></trkpt><trkpt lat="44.6272487" lon="7.6835245"><ele>323.2</ele><time>2026-04-12T11:43:58.988Z</time></trkpt><trkpt lat="44.6273544" lon="7.6834711"><ele>323.0</ele><time>2026-04-12T11:44:00.988Z</time></trkpt><trkpt lat="44.6274543" lon="7.6834143"><ele>323.0</ele><time>2026-04-12T11:44:02.988Z</time></trkpt><trkpt lat="44.6275483" lon="7.6833608"><ele>323.0</ele><time>2026-04-12T11:44:04.988Z</time></trkpt><trkpt lat="44.6276509" lon="7.6833083"><ele>323.0</ele><time>2026-04-12T11:44:06.988Z</time></trkpt><trkpt lat="44.627753" lon="7.6832678"><ele>323.0</ele><time>2026-04-12T11:44:08.988Z</time></trkpt><trkpt lat="44.6278527" lon="7.6832151"><ele>323.0</ele><time>2026-04-12T11:44:10.988Z</time></trkpt><trkpt lat="44.6279476" lon="7.6831468"><ele>322.25</ele><time>2026-04-12T11:44:12.988Z</time></trkpt><trkpt lat="44.6280314" lon="7.6830428"><ele>321.5</ele><time>2026-04-12T11:44:14.988Z</time></trkpt><trkpt lat="44.6280904" lon="7.6829026"><ele>320.75</ele><time>2026-04-12T11:44:16.988Z</time></trkpt><trkpt lat="44.6281284" lon="7.682748"><ele>320.0</ele><time>2026-04-12T11:44:18.988Z</time></trkpt><trkpt lat="44.6281568" lon="7.6825816"><ele>320.0</ele><time>2026-04-12T11:44:20.988Z</time></trkpt><trkpt lat="44.6281793" lon="7.6824256"><ele>320.0</ele><time>2026-04-12T11:44:22.988Z</time></trkpt><trkpt lat="44.6282012" lon="7.682283"><ele>320.0</ele><time>2026-04-12T11:44:24.988Z</time></trkpt><trkpt lat="44.6282168" lon="7.6821334"><ele>320.0</ele><time>2026-04-12T11:44:26.988Z</time></trkpt><trkpt lat="44.6282383" lon="7.6819838"><ele>320.0</ele><time>2026-04-12T11:44:28.988Z</time></trkpt><trkpt lat="44.6282533" lon="7.6818357"><ele>319.5</ele><time>2026-04-12T11:44:30.988Z</time></trkpt><trkpt lat="44.6282666" lon="7.68168"><ele>319.0</ele><time>2026-04-12T11:44:32.988Z</time></trkpt><trkpt lat="44.6282792" lon="7.681522"><ele>318.5</ele><time>2026-04-12T11:44:34.988Z</time></trkpt><trkpt lat="44.6282842" lon="7.6813543"><ele>318.0</ele><time>2026-04-12T11:44:36.988Z</time></trkpt><trkpt lat="44.6282914" lon="7.6811911"><ele>317.8</ele><time>2026-04-12T11:44:38.988Z</time></trkpt><trkpt lat="44.6283037" lon="7.6810401"><ele>317.6</ele><time>2026-04-12T11:44:40.988Z</time></trkpt><trkpt lat="44.6283329" lon="7.68089"><ele>317.4</ele><time>2026-04-12T11:44:42.988Z</time></trkpt><trkpt lat="44.6283715" lon="7.680752"><ele>317.2</ele><time>2026-04-12T11:44:44.988Z</time></trkpt><trkpt lat="44.6284096" lon="7.6806223"><ele>317.0</ele><time>2026-04-12T11:44:46.988Z</time></trkpt><trkpt lat="44.6284376" lon="7.6804851"><ele>317.0</ele><time>2026-04-12T11:44:48.988Z</time></trkpt><trkpt lat="44.6284542" lon="7.6803366"><ele>317.0</ele><time>2026-04-12T11:44:50.988Z</time></trkpt><trkpt lat="44.6284661" lon="7.6801859"><ele>317.0</ele><time>2026-04-12T11:44:52.988Z</time></trkpt><trkpt lat="44.6284726" lon="7.6800266"><ele>317.0</ele><time>2026-04-12T11:44:54.988Z</time></trkpt><trkpt lat="44.6284861" lon="7.6798718"><ele>317.0</ele><time>2026-04-12T11:44:56.988Z</time></trkpt><trkpt lat="44.628495" lon="7.679726"><ele>317.0</ele><time>2026-04-12T11:44:58.988Z</time></trkpt><trkpt lat="44.6285002" lon="7.6795777"><ele>317.0</ele><time>2026-04-12T11:45:00.988Z</time></trkpt><trkpt lat="44.6285099" lon="7.6794294"><ele>317.0</ele><time>2026-04-12T11:45:02.988Z</time></trkpt><trkpt lat="44.6285181" lon="7.6792779"><ele>317.0</ele><time>2026-04-12T11:45:04.988Z</time></trkpt><trkpt lat="44.6285254" lon="7.6791184"><ele>317.0</ele><time>2026-04-12T11:45:06.988Z</time></trkpt><trkpt lat="44.6285326" lon="7.678957"><ele>317.4</ele><time>2026-04-12T11:45:08.988Z</time></trkpt><trkpt lat="44.6285445" lon="7.6788054"><ele>317.79999999999995</ele><time>2026-04-12T11:45:10.988Z</time></trkpt><trkpt lat="44.628556" lon="7.6786454"><ele>318.2</ele><time>2026-04-12T11:45:12.988Z</time></trkpt><trkpt lat="44.6285729" lon="7.6784972"><ele>318.59999999999997</ele><time>2026-04-12T11:45:14.988Z</time></trkpt><trkpt lat="44.6285824" lon="7.6783434"><ele>319.0</ele><time>2026-04-12T11:45:16.988Z</time></trkpt><trkpt lat="44.6286105" lon="7.6781922"><ele>319.2</ele><time>2026-04-12T11:45:18.988Z</time></trkpt><trkpt lat="44.6286688" lon="7.6780605"><ele>319.4</ele><time>2026-04-12T11:45:20.988Z</time></trkpt><trkpt lat="44.6287553" lon="7.6779733"><ele>319.6</ele><time>2026-04-12T11:45:22.988Z</time></trkpt><trkpt lat="44.628858" lon="7.6779439"><ele>319.8</ele><time>2026-04-12T11:45:24.988Z</time></trkpt><trkpt lat="44.628972" lon="7.6779342"><ele>320.0</ele><time>2026-04-12T11:45:26.988Z</time></trkpt><trkpt lat="44.6290836" lon="7.6779203"><ele>320.0</ele><time>2026-04-12T11:45:28.988Z</time></trkpt><trkpt lat="44.6291957" lon="7.6779171"><ele>320.0</ele><time>2026-04-12T11:45:30.988Z</time></trkpt><trkpt lat="44.6293041" lon="7.6779004"><ele>320.0</ele><time>2026-04-12T11:45:32.988Z</time></trkpt><trkpt lat="44.6294084" lon="7.6778784"><ele>320.0</ele><time>2026-04-12T11:45:34.988Z</time></trkpt><trkpt lat="44.6295038" lon="7.6778091"><ele>320.0</ele><time>2026-04-12T11:45:36.988Z</time></trkpt><trkpt lat="44.6295777" lon="7.6777064"><ele>319.5</ele><time>2026-04-12T11:45:38.988Z</time></trkpt><trkpt lat="44.6296249" lon="7.6775669"><ele>319.0</ele><time>2026-04-12T11:45:40.988Z</time></trkpt><trkpt lat="44.6296699" lon="7.6774089"><ele>318.5</ele><time>2026-04-12T11:45:42.988Z</time></trkpt><trkpt lat="44.6297031" lon="7.6772546"><ele>318.0</ele><time>2026-04-12T11:45:44.988Z</time></trkpt><trkpt lat="44.6297419" lon="7.6771056"><ele>318.0</ele><time>2026-04-12T11:45:46.988Z</time></trkpt><trkpt lat="44.6297793" lon="7.6769671"><ele>318.0</ele><time>2026-04-12T11:45:48.988Z</time></trkpt><trkpt lat="44.6298092" lon="7.6768195"><ele>318.0</ele><time>2026-04-12T11:45:50.988Z</time></trkpt><trkpt lat="44.6298504" lon="7.6766832"><ele>318.0</ele><time>2026-04-12T11:45:52.988Z</time></trkpt><trkpt lat="44.6298944" lon="7.6765431"><ele>318.0</ele><time>2026-04-12T11:45:54.988Z</time></trkpt><trkpt lat="44.6299414" lon="7.6764114"><ele>318.0</ele><time>2026-04-12T11:45:56.988Z</time></trkpt><trkpt lat="44.6299873" lon="7.6762799"><ele>318.0</ele><time>2026-04-12T11:45:58.988Z</time></trkpt><trkpt lat="44.6300371" lon="7.6761524"><ele>318.0</ele><time>2026-04-12T11:46:00.988Z</time></trkpt><trkpt lat="44.6300877" lon="7.6760197"><ele>318.0</ele><time>2026-04-12T11:46:02.988Z</time></trkpt><trkpt lat="44.6301445" lon="7.6758996"><ele>318.0</ele><time>2026-04-12T11:46:04.988Z</time></trkpt><trkpt lat="44.6302073" lon="7.6757819"><ele>318.0</ele><time>2026-04-12T11:46:06.988Z</time></trkpt><trkpt lat="44.6302651" lon="7.675669"><ele>318.0</ele><time>2026-04-12T11:46:08.988Z</time></trkpt><trkpt lat="44.6303353" lon="7.6755556"><ele>318.0</ele><time>2026-04-12T11:46:10.988Z</time></trkpt><trkpt lat="44.6304058" lon="7.6754512"><ele>318.0</ele><time>2026-04-12T11:46:12.988Z</time></trkpt><trkpt lat="44.6304732" lon="7.6753291"><ele>318.0</ele><time>2026-04-12T11:46:14.988Z</time></trkpt><trkpt lat="44.6305327" lon="7.6752192"><ele>318.0</ele><time>2026-04-12T11:46:16.988Z</time></trkpt><trkpt lat="44.6305967" lon="7.6751089"><ele>318.0</ele><time>2026-04-12T11:46:18.988Z</time></trkpt><trkpt lat="44.630664" lon="7.6750047"><ele>318.0</ele><time>2026-04-12T11:46:20.988Z</time></trkpt><trkpt lat="44.6307264" lon="7.6748957"><ele>318.0</ele><time>2026-04-12T11:46:22.988Z</time></trkpt><trkpt lat="44.6307868" lon="7.6747845"><ele>318.0</ele><time>2026-04-12T11:46:24.988Z</time></trkpt><trkpt lat="44.630854" lon="7.6746701"><ele>318.0</ele><time>2026-04-12T11:46:26.988Z</time></trkpt><trkpt lat="44.6309243" lon="7.6745465"><ele>318.0</ele><time>2026-04-12T11:46:28.988Z</time></trkpt><trkpt lat="44.6309887" lon="7.6744347"><ele>318.0</ele><time>2026-04-12T11:46:30.988Z</time></trkpt><trkpt lat="44.6310528" lon="7.6743125"><ele>318.0</ele><time>2026-04-12T11:46:32.988Z</time></trkpt><trkpt lat="44.6311348" lon="7.6741905"><ele>318.0</ele><time>2026-04-12T11:46:34.988Z</time></trkpt><trkpt lat="44.6312102" lon="7.6740698"><ele>317.25</ele><time>2026-04-12T11:46:36.988Z</time></trkpt><trkpt lat="44.6312906" lon="7.6739607"><ele>316.5</ele><time>2026-04-12T11:46:38.988Z</time></trkpt><trkpt lat="44.6313747" lon="7.673851"><ele>315.75</ele><time>2026-04-12T11:46:40.988Z</time></trkpt><trkpt lat="44.631457" lon="7.6737481"><ele>315.0</ele><time>2026-04-12T11:46:42.988Z</time></trkpt><trkpt lat="44.6315423" lon="7.6736399"><ele>315.2</ele><time>2026-04-12T11:46:44.988Z</time></trkpt><trkpt lat="44.6316229" lon="7.6735458"><ele>315.4</ele><time>2026-04-12T11:46:46.988Z</time></trkpt><trkpt lat="44.6317173" lon="7.6734577"><ele>315.6</ele><time>2026-04-12T11:46:48.988Z</time></trkpt><trkpt lat="44.6318094" lon="7.6733694"><ele>315.8</ele><time>2026-04-12T11:46:50.988Z</time></trkpt><trkpt lat="44.6319063" lon="7.673281"><ele>316.0</ele><time>2026-04-12T11:46:52.988Z</time></trkpt><trkpt lat="44.6320039" lon="7.6732026"><ele>316.0</ele><time>2026-04-12T11:46:54.988Z</time></trkpt><trkpt lat="44.632098" lon="7.6731171"><ele>316.0</ele><time>2026-04-12T11:46:56.988Z</time></trkpt><trkpt lat="44.6321907" lon="7.6730351"><ele>316.0</ele><time>2026-04-12T11:46:58.988Z</time></trkpt><trkpt lat="44.6322835" lon="7.6729568"><ele>316.0</ele><time>2026-04-12T11:47:00.988Z</time></trkpt><trkpt lat="44.6323679" lon="7.672867"><ele>316.0</ele><time>2026-04-12T11:47:02.988Z</time></trkpt><trkpt lat="44.6324475" lon="7.6727745"><ele>316.2</ele><time>2026-04-12T11:47:04.988Z</time></trkpt><trkpt lat="44.6325118" lon="7.6726621"><ele>316.40000000000003</ele><time>2026-04-12T11:47:06.988Z</time></trkpt><trkpt lat="44.632565" lon="7.6725273"><ele>316.6</ele><time>2026-04-12T11:47:08.988Z</time></trkpt><trkpt lat="44.6326153" lon="7.672404"><ele>316.8</ele><time>2026-04-12T11:47:10.988Z</time></trkpt><trkpt lat="44.6326599" lon="7.6722827"><ele>317.0</ele><time>2026-04-12T11:47:12.988Z</time></trkpt><trkpt lat="44.6326999" lon="7.6721461"><ele>317.0</ele><time>2026-04-12T11:47:14.988Z</time></trkpt><trkpt lat="44.6327546" lon="7.6720088"><ele>317.0</ele><time>2026-04-12T11:47:16.988Z</time></trkpt><trkpt lat="44.6328185" lon="7.6718965"><ele>317.0</ele><time>2026-04-12T11:47:18.988Z</time></trkpt><trkpt lat="44.6329024" lon="7.6718226"><ele>317.0</ele><time>2026-04-12T11:47:20.988Z</time></trkpt><trkpt lat="44.6329932" lon="7.6717904"><ele>317.0</ele><time>2026-04-12T11:47:22.988Z</time></trkpt><trkpt lat="44.6330894" lon="7.671768"><ele>317.0</ele><time>2026-04-12T11:47:24.988Z</time></trkpt><trkpt lat="44.6331966" lon="7.671749"><ele>317.0</ele><time>2026-04-12T11:47:26.988Z</time></trkpt><trkpt lat="44.633297" lon="7.6717216"><ele>317.0</ele><time>2026-04-12T11:47:28.988Z</time></trkpt><trkpt lat="44.633411" lon="7.671702"><ele>317.0</ele><time>2026-04-12T11:47:30.988Z</time></trkpt><trkpt lat="44.6335261" lon="7.6716812"><ele>317.0</ele><time>2026-04-12T11:47:32.988Z</time></trkpt><trkpt lat="44.6336427" lon="7.6716548"><ele>316.5</ele><time>2026-04-12T11:47:34.988Z</time></trkpt><trkpt lat="44.6337536" lon="7.6716197"><ele>316.0</ele><time>2026-04-12T11:47:36.988Z</time></trkpt><trkpt lat="44.6338663" lon="7.6715837"><ele>315.5</ele><time>2026-04-12T11:47:38.988Z</time></trkpt><trkpt lat="44.6339761" lon="7.6715497"><ele>315.0</ele><time>2026-04-12T11:47:40.988Z</time></trkpt><trkpt lat="44.6340856" lon="7.67151"><ele>315.0</ele><time>2026-04-12T11:47:42.988Z</time></trkpt><trkpt lat="44.6341968" lon="7.6714743"><ele>315.0</ele><time>2026-04-12T11:47:44.988Z</time></trkpt><trkpt lat="44.6343068" lon="7.6714346"><ele>315.0</ele><time>2026-04-12T11:47:46.988Z</time></trkpt><trkpt lat="44.6344204" lon="7.6713971"><ele>315.0</ele><time>2026-04-12T11:47:48.988Z</time></trkpt><trkpt lat="44.6345334" lon="7.6713537"><ele>315.2</ele><time>2026-04-12T11:47:50.988Z</time></trkpt><trkpt lat="44.6346426" lon="7.6713185"><ele>315.4</ele><time>2026-04-12T11:47:52.988Z</time></trkpt><trkpt lat="44.6347503" lon="7.6712801"><ele>315.6</ele><time>2026-04-12T11:47:54.988Z</time></trkpt><trkpt lat="44.6348558" lon="7.6712439"><ele>315.8</ele><time>2026-04-12T11:47:56.988Z</time></trkpt><trkpt lat="44.63496" lon="7.6712113"><ele>316.0</ele><time>2026-04-12T11:47:58.988Z</time></trkpt><trkpt lat="44.6350668" lon="7.671173"><ele>316.0</ele><time>2026-04-12T11:48:00.988Z</time></trkpt><trkpt lat="44.6351774" lon="7.6711371"><ele>316.0</ele><time>2026-04-12T11:48:02.988Z</time></trkpt><trkpt lat="44.6352889" lon="7.6710976"><ele>316.0</ele><time>2026-04-12T11:48:04.988Z</time></trkpt><trkpt lat="44.6354" lon="7.67105"><ele>316.0</ele><time>2026-04-12T11:48:06.988Z</time></trkpt><trkpt lat="44.6355123" lon="7.6710061"><ele>315.75</ele><time>2026-04-12T11:48:08.988Z</time></trkpt><trkpt lat="44.6356168" lon="7.6709556"><ele>315.5</ele><time>2026-04-12T11:48:10.988Z</time></trkpt><trkpt lat="44.6357265" lon="7.6709117"><ele>315.25</ele><time>2026-04-12T11:48:12.988Z</time></trkpt><trkpt lat="44.6358374" lon="7.6708611"><ele>315.0</ele><time>2026-04-12T11:48:14.988Z</time></trkpt><trkpt lat="44.6359486" lon="7.6708138"><ele>315.0</ele><time>2026-04-12T11:48:16.988Z</time></trkpt><trkpt lat="44.6360596" lon="7.6707607"><ele>315.0</ele><time>2026-04-12T11:48:18.988Z</time></trkpt><trkpt lat="44.6361737" lon="7.6707181"><ele>315.0</ele><time>2026-04-12T11:48:20.988Z</time></trkpt><trkpt lat="44.6362848" lon="7.6706689"><ele>315.0</ele><time>2026-04-12T11:48:22.988Z</time></trkpt><trkpt lat="44.6363942" lon="7.6706268"><ele>314.8</ele><time>2026-04-12T11:48:24.988Z</time></trkpt><trkpt lat="44.6365043" lon="7.670584"><ele>314.6</ele><time>2026-04-12T11:48:26.988Z</time></trkpt><trkpt lat="44.6366108" lon="7.6705349"><ele>314.4</ele><time>2026-04-12T11:48:28.988Z</time></trkpt><trkpt lat="44.6367195" lon="7.6704913"><ele>314.2</ele><time>2026-04-12T11:48:30.988Z</time></trkpt><trkpt lat="44.636822" lon="7.6704435"><ele>314.0</ele><time>2026-04-12T11:48:32.988Z</time></trkpt><trkpt lat="44.6369347" lon="7.6704059"><ele>313.8</ele><time>2026-04-12T11:48:34.988Z</time></trkpt><trkpt lat="44.6370459" lon="7.6703638"><ele>313.59999999999997</ele><time>2026-04-12T11:48:36.988Z</time></trkpt><trkpt lat="44.6371572" lon="7.6703266"><ele>313.4</ele><time>2026-04-12T11:48:38.988Z</time></trkpt><trkpt lat="44.6372632" lon="7.6702931"><ele>313.2</ele><time>2026-04-12T11:48:40.988Z</time></trkpt><trkpt lat="44.637366" lon="7.670262"><ele>313.0</ele><time>2026-04-12T11:48:42.988Z</time></trkpt><trkpt lat="44.6374753" lon="7.6702333"><ele>313.0</ele><time>2026-04-12T11:48:44.988Z</time></trkpt><trkpt lat="44.6375805" lon="7.6702062"><ele>313.0</ele><time>2026-04-12T11:48:46.988Z</time></trkpt><trkpt lat="44.6376886" lon="7.6701776"><ele>313.0</ele><time>2026-04-12T11:48:48.988Z</time></trkpt><trkpt lat="44.6378009" lon="7.6701481"><ele>313.0</ele><time>2026-04-12T11:48:50.988Z</time></trkpt><trkpt lat="44.6379113" lon="7.6701185"><ele>313.0</ele><time>2026-04-12T11:48:52.988Z</time></trkpt><trkpt lat="44.6380202" lon="7.670094"><ele>313.25</ele><time>2026-04-12T11:48:54.988Z</time></trkpt><trkpt lat="44.6381301" lon="7.6700657"><ele>313.5</ele><time>2026-04-12T11:48:56.988Z</time></trkpt><trkpt lat="44.6382413" lon="7.6700348"><ele>313.75</ele><time>2026-04-12T11:48:58.988Z</time></trkpt><trkpt lat="44.6383519" lon="7.670014"><ele>314.0</ele><time>2026-04-12T11:49:00.988Z</time></trkpt><trkpt lat="44.6384635" lon="7.6699902"><ele>314.0</ele><time>2026-04-12T11:49:02.988Z</time></trkpt><trkpt lat="44.6385782" lon="7.6699758"><ele>314.0</ele><time>2026-04-12T11:49:04.988Z</time></trkpt><trkpt lat="44.6386872" lon="7.6699666"><ele>314.0</ele><time>2026-04-12T11:49:06.988Z</time></trkpt><trkpt lat="44.6387918" lon="7.6699675"><ele>314.0</ele><time>2026-04-12T11:49:08.988Z</time></trkpt><trkpt lat="44.6388929" lon="7.6699396"><ele>314.0</ele><time>2026-04-12T11:49:10.988Z</time></trkpt><trkpt lat="44.6390016" lon="7.6699335"><ele>314.2</ele><time>2026-04-12T11:49:12.988Z</time></trkpt><trkpt lat="44.6391163" lon="7.6699257"><ele>314.4</ele><time>2026-04-12T11:49:14.988Z</time></trkpt><trkpt lat="44.6392224" lon="7.669917"><ele>314.6</ele><time>2026-04-12T11:49:16.988Z</time></trkpt><trkpt lat="44.6393253" lon="7.6698954"><ele>314.8</ele><time>2026-04-12T11:49:18.988Z</time></trkpt><trkpt lat="44.6394213" lon="7.6698497"><ele>315.0</ele><time>2026-04-12T11:49:20.988Z</time></trkpt><trkpt lat="44.6395039" lon="7.6697642"><ele>314.6</ele><time>2026-04-12T11:49:22.988Z</time></trkpt><trkpt lat="44.6395689" lon="7.6696505"><ele>314.2</ele><time>2026-04-12T11:49:24.988Z</time></trkpt><trkpt lat="44.6396067" lon="7.6695199"><ele>313.8</ele><time>2026-04-12T11:49:26.988Z</time></trkpt><trkpt lat="44.6396067" lon="7.6693688"><ele>313.4</ele><time>2026-04-12T11:49:28.988Z</time></trkpt><trkpt lat="44.6395881" lon="7.6692134"><ele>313.0</ele><time>2026-04-12T11:49:30.988Z</time></trkpt><trkpt lat="44.6395436" lon="7.669081"><ele>313.0</ele><time>2026-04-12T11:49:32.988Z</time></trkpt><trkpt lat="44.6394898" lon="7.6689672"><ele>313.0</ele><time>2026-04-12T11:49:34.988Z</time></trkpt><trkpt lat="44.639446" lon="7.6688432"><ele>313.0</ele><time>2026-04-12T11:49:36.988Z</time></trkpt><trkpt lat="44.6393944" lon="7.6687158"><ele>313.0</ele><time>2026-04-12T11:49:38.988Z</time></trkpt><trkpt lat="44.6393358" lon="7.6685917"><ele>313.0</ele><time>2026-04-12T11:49:40.988Z</time></trkpt><trkpt lat="44.6392825" lon="7.668458"><ele>313.0</ele><time>2026-04-12T11:49:42.988Z</time></trkpt><trkpt lat="44.6392293" lon="7.6683364"><ele>313.0</ele><time>2026-04-12T11:49:44.988Z</time></trkpt><trkpt lat="44.6391736" lon="7.6682108"><ele>313.0</ele><time>2026-04-12T11:49:46.988Z</time></trkpt><trkpt lat="44.6391159" lon="7.668077"><ele>313.0</ele><time>2026-04-12T11:49:48.988Z</time></trkpt><trkpt lat="44.6390587" lon="7.6679545"><ele>313.0</ele><time>2026-04-12T11:49:50.988Z</time></trkpt><trkpt lat="44.6389963" lon="7.6678333"><ele>313.0</ele><time>2026-04-12T11:49:52.988Z</time></trkpt><trkpt lat="44.6389522" lon="7.6677214"><ele>313.0</ele><time>2026-04-12T11:49:54.988Z</time></trkpt><trkpt lat="44.6389137" lon="7.667604"><ele>313.0</ele><time>2026-04-12T11:49:56.988Z</time></trkpt><trkpt lat="44.6389084" lon="7.6674681"><ele>313.0</ele><time>2026-04-12T11:49:58.988Z</time></trkpt><trkpt lat="44.6389363" lon="7.6673499"><ele>313.0</ele><time>2026-04-12T11:50:00.988Z</time></trkpt><trkpt lat="44.6390106" lon="7.6672598"><ele>313.0</ele><time>2026-04-12T11:50:02.988Z</time></trkpt><trkpt lat="44.6390993" lon="7.667231"><ele>313.0</ele><time>2026-04-12T11:50:04.988Z</time></trkpt><trkpt lat="44.6391839" lon="7.6672508"><ele>313.0</ele><time>2026-04-12T11:50:06.988Z</time></trkpt><trkpt lat="44.6392524" lon="7.6673202"><ele>313.0</ele><time>2026-04-12T11:50:08.988Z</time></trkpt><trkpt lat="44.6393123" lon="7.6674269"><ele>313.0</ele><time>2026-04-12T11:50:10.988Z</time></trkpt><trkpt lat="44.6393554" lon="7.6675545"><ele>313.0</ele><time>2026-04-12T11:50:12.988Z</time></trkpt><trkpt lat="44.6393981" lon="7.6676985"><ele>313.0</ele><time>2026-04-12T11:50:14.988Z</time></trkpt><trkpt lat="44.6394442" lon="7.667843"><ele>313.0</ele><time>2026-04-12T11:50:16.988Z</time></trkpt><trkpt lat="44.6394844" lon="7.6679847"><ele>313.0</ele><time>2026-04-12T11:50:18.988Z</time></trkpt><trkpt lat="44.6395338" lon="7.6681141"><ele>313.0</ele><time>2026-04-12T11:50:20.988Z</time></trkpt><trkpt lat="44.6395749" lon="7.6682371"><ele>313.0</ele><time>2026-04-12T11:50:22.988Z</time></trkpt><trkpt lat="44.6396125" lon="7.6683612"><ele>313.0</ele><time>2026-04-12T11:50:24.988Z</time></trkpt><trkpt lat="44.6396548" lon="7.6684788"><ele>313.0</ele><time>2026-04-12T11:50:26.988Z</time></trkpt><trkpt lat="44.6396949" lon="7.6686016"><ele>313.0</ele><time>2026-04-12T11:50:28.988Z</time></trkpt><trkpt lat="44.6397356" lon="7.6687248"><ele>313.0</ele><time>2026-04-12T11:50:30.988Z</time></trkpt><trkpt lat="44.6397817" lon="7.66886"><ele>313.0</ele><time>2026-04-12T11:50:32.988Z</time></trkpt><trkpt lat="44.6398276" lon="7.6689898"><ele>313.0</ele><time>2026-04-12T11:50:34.988Z</time></trkpt><trkpt lat="44.639876" lon="7.6691254"><ele>313.0</ele><time>2026-04-12T11:50:36.988Z</time></trkpt><trkpt lat="44.6399256" lon="7.6692657"><ele>313.0</ele><time>2026-04-12T11:50:38.988Z</time></trkpt><trkpt lat="44.6399746" lon="7.6693942"><ele>313.0</ele><time>2026-04-12T11:50:40.988Z</time></trkpt><trkpt lat="44.6400342" lon="7.6695183"><ele>313.0</ele><time>2026-04-12T11:50:42.988Z</time></trkpt><trkpt lat="44.6401047" lon="7.6696338"><ele>313.0</ele><time>2026-04-12T11:50:44.988Z</time></trkpt><trkpt lat="44.6401905" lon="7.6697403"><ele>313.0</ele><time>2026-04-12T11:50:46.988Z</time></trkpt><trkpt lat="44.6402911" lon="7.6698189"><ele>313.0</ele><time>2026-04-12T11:50:48.988Z</time></trkpt><trkpt lat="44.640403" lon="7.6698831"><ele>313.0</ele><time>2026-04-12T11:50:50.988Z</time></trkpt><trkpt lat="44.6405152" lon="7.6699187"><ele>313.0</ele><time>2026-04-12T11:50:52.988Z</time></trkpt><trkpt lat="44.640633" lon="7.6699488"><ele>313.0</ele><time>2026-04-12T11:50:54.988Z</time></trkpt><trkpt lat="44.6407569" lon="7.6699473"><ele>313.0</ele><time>2026-04-12T11:50:56.988Z</time></trkpt><trkpt lat="44.6408794" lon="7.6699478"><ele>313.0</ele><time>2026-04-12T11:50:58.988Z</time></trkpt><trkpt lat="44.6409993" lon="7.6699442"><ele>313.0</ele><time>2026-04-12T11:51:00.988Z</time></trkpt><trkpt lat="44.6411184" lon="7.669943"><ele>313.0</ele><time>2026-04-12T11:51:02.988Z</time></trkpt><trkpt lat="44.6412374" lon="7.6699455"><ele>313.0</ele><time>2026-04-12T11:51:04.988Z</time></trkpt><trkpt lat="44.6413539" lon="7.66994"><ele>313.0</ele><time>2026-04-12T11:51:06.988Z</time></trkpt><trkpt lat="44.6414185" lon="7.6699463"><ele>313.0</ele><time>2026-04-12T11:51:07.988Z</time></trkpt><trkpt lat="44.6415375" lon="7.6699511"><ele>313.0</ele><time>2026-04-12T11:51:09.988Z</time></trkpt><trkpt lat="44.6416585" lon="7.6699536"><ele>313.0</ele><time>2026-04-12T11:51:11.988Z</time></trkpt><trkpt lat="44.641777" lon="7.6699444"><ele>313.0</ele><time>2026-04-12T11:51:13.988Z</time></trkpt><trkpt lat="44.641897" lon="7.6699417"><ele>313.2</ele><time>2026-04-12T11:51:15.988Z</time></trkpt><trkpt lat="44.6420169" lon="7.6699419"><ele>313.4</ele><time>2026-04-12T11:51:17.988Z</time></trkpt><trkpt lat="44.6421334" lon="7.6699414"><ele>313.59999999999997</ele><time>2026-04-12T11:51:19.988Z</time></trkpt><trkpt lat="44.6422413" lon="7.6699382"><ele>313.8</ele><time>2026-04-12T11:51:21.988Z</time></trkpt><trkpt lat="44.6423431" lon="7.6699256"><ele>314.0</ele><time>2026-04-12T11:51:23.988Z</time></trkpt><trkpt lat="44.6424504" lon="7.6699023"><ele>314.0</ele><time>2026-04-12T11:51:25.988Z</time></trkpt><trkpt lat="44.6425486" lon="7.6698466"><ele>314.0</ele><time>2026-04-12T11:51:27.988Z</time></trkpt><trkpt lat="44.6426415" lon="7.6697588"><ele>314.0</ele><time>2026-04-12T11:51:29.988Z</time></trkpt><trkpt lat="44.6427313" lon="7.669677"><ele>314.0</ele><time>2026-04-12T11:51:31.988Z</time></trkpt><trkpt lat="44.6428195" lon="7.6695923"><ele>314.0</ele><time>2026-04-12T11:51:33.988Z</time></trkpt><trkpt lat="44.6429119" lon="7.6695134"><ele>313.8</ele><time>2026-04-12T11:51:35.988Z</time></trkpt><trkpt lat="44.6430032" lon="7.669443"><ele>313.59999999999997</ele><time>2026-04-12T11:51:37.988Z</time></trkpt><trkpt lat="44.6430925" lon="7.6693817"><ele>313.4</ele><time>2026-04-12T11:51:39.988Z</time></trkpt><trkpt lat="44.6431873" lon="7.6693145"><ele>313.2</ele><time>2026-04-12T11:51:41.988Z</time></trkpt><trkpt lat="44.6432929" lon="7.6692699"><ele>313.0</ele><time>2026-04-12T11:51:43.988Z</time></trkpt><trkpt lat="44.6433978" lon="7.6692123"><ele>313.0</ele><time>2026-04-12T11:51:45.988Z</time></trkpt><trkpt lat="44.6435046" lon="7.6691673"><ele>313.0</ele><time>2026-04-12T11:51:47.988Z</time></trkpt><trkpt lat="44.6436116" lon="7.6691064"><ele>313.0</ele><time>2026-04-12T11:51:49.988Z</time></trkpt><trkpt lat="44.6437185" lon="7.6690564"><ele>313.0</ele><time>2026-04-12T11:51:51.988Z</time></trkpt><trkpt lat="44.6438286" lon="7.6690029"><ele>313.0</ele><time>2026-04-12T11:51:53.988Z</time></trkpt><trkpt lat="44.6439395" lon="7.6689593"><ele>313.0</ele><time>2026-04-12T11:51:55.988Z</time></trkpt><trkpt lat="44.6440518" lon="7.6689227"><ele>313.0</ele><time>2026-04-12T11:51:57.988Z</time></trkpt><trkpt lat="44.6441666" lon="7.6688887"><ele>313.0</ele><time>2026-04-12T11:51:59.988Z</time></trkpt><trkpt lat="44.644276" lon="7.668852"><ele>313.0</ele><time>2026-04-12T11:52:01.988Z</time></trkpt><trkpt lat="44.6443787" lon="7.6688217"><ele>313.0</ele><time>2026-04-12T11:52:03.988Z</time></trkpt><trkpt lat="44.6444899" lon="7.6687735"><ele>313.0</ele><time>2026-04-12T11:52:05.988Z</time></trkpt><trkpt lat="44.6445996" lon="7.6687268"><ele>313.0</ele><time>2026-04-12T11:52:07.988Z</time></trkpt><trkpt lat="44.6447006" lon="7.668663"><ele>313.0</ele><time>2026-04-12T11:52:09.988Z</time></trkpt><trkpt lat="44.6447935" lon="7.6685835"><ele>312.5</ele><time>2026-04-12T11:52:11.988Z</time></trkpt><trkpt lat="44.6448911" lon="7.6684984"><ele>312.0</ele><time>2026-04-12T11:52:13.988Z</time></trkpt><trkpt lat="44.6449774" lon="7.6684065"><ele>311.5</ele><time>2026-04-12T11:52:15.988Z</time></trkpt><trkpt lat="44.6450752" lon="7.668309"><ele>311.0</ele><time>2026-04-12T11:52:17.988Z</time></trkpt><trkpt lat="44.6451733" lon="7.6682014"><ele>311.0</ele><time>2026-04-12T11:52:19.988Z</time></trkpt><trkpt lat="44.6452625" lon="7.6681119"><ele>311.0</ele><time>2026-04-12T11:52:21.988Z</time></trkpt><trkpt lat="44.6453545" lon="7.6680198"><ele>311.0</ele><time>2026-04-12T11:52:23.988Z</time></trkpt><trkpt lat="44.64545" lon="7.6679206"><ele>311.0</ele><time>2026-04-12T11:52:25.989Z</time></trkpt><trkpt lat="44.6455451" lon="7.6678365"><ele>310.6</ele><time>2026-04-12T11:52:27.988Z</time></trkpt><trkpt lat="44.6456005" lon="7.6677935"><ele>310.20000000000005</ele><time>2026-04-12T11:52:28.988Z</time></trkpt><trkpt lat="44.6456985" lon="7.6677257"><ele>309.79999999999995</ele><time>2026-04-12T11:52:30.988Z</time></trkpt><trkpt lat="44.6458099" lon="7.6676739"><ele>309.4</ele><time>2026-04-12T11:52:32.988Z</time></trkpt><trkpt lat="44.6459253" lon="7.6676533"><ele>309.0</ele><time>2026-04-12T11:52:34.988Z</time></trkpt><trkpt lat="44.646038" lon="7.667653"><ele>309.2</ele><time>2026-04-12T11:52:36.988Z</time></trkpt><trkpt lat="44.6461422" lon="7.667652"><ele>309.4</ele><time>2026-04-12T11:52:38.988Z</time></trkpt><trkpt lat="44.6462517" lon="7.6676614"><ele>309.6</ele><time>2026-04-12T11:52:40.988Z</time></trkpt><trkpt lat="44.6463623" lon="7.6676685"><ele>309.8</ele><time>2026-04-12T11:52:42.988Z</time></trkpt><trkpt lat="44.6464733" lon="7.6676599"><ele>310.0</ele><time>2026-04-12T11:52:44.988Z</time></trkpt><trkpt lat="44.6465801" lon="7.6676393"><ele>310.0</ele><time>2026-04-12T11:52:46.988Z</time></trkpt><trkpt lat="44.6466874" lon="7.6676186"><ele>310.0</ele><time>2026-04-12T11:52:48.988Z</time></trkpt><trkpt lat="44.6467924" lon="7.6675926"><ele>310.0</ele><time>2026-04-12T11:52:50.988Z</time></trkpt><trkpt lat="44.6468904" lon="7.6675483"><ele>310.0</ele><time>2026-04-12T11:52:52.988Z</time></trkpt><trkpt lat="44.6469858" lon="7.667509"><ele>310.0</ele><time>2026-04-12T11:52:54.988Z</time></trkpt><trkpt lat="44.6470864" lon="7.6674744"><ele>310.4</ele><time>2026-04-12T11:52:56.988Z</time></trkpt><trkpt lat="44.6471919" lon="7.6674436"><ele>310.8</ele><time>2026-04-12T11:52:58.988Z</time></trkpt><trkpt lat="44.6472966" lon="7.6674196"><ele>311.2</ele><time>2026-04-12T11:53:00.988Z</time></trkpt><trkpt lat="44.6473891" lon="7.6674031"><ele>311.6</ele><time>2026-04-12T11:53:02.988Z</time></trkpt><trkpt lat="44.6474624" lon="7.6674083"><ele>312.0</ele><time>2026-04-12T11:53:04.988Z</time></trkpt><trkpt lat="44.6475434" lon="7.6674672"><ele>312.0</ele><time>2026-04-12T11:53:07.988Z</time></trkpt><trkpt lat="44.6475794" lon="7.6675453"><ele>312.0</ele><time>2026-04-12T11:53:09.988Z</time></trkpt><trkpt lat="44.6476022" lon="7.667652"><ele>312.0</ele><time>2026-04-12T11:53:11.988Z</time></trkpt><trkpt lat="44.647618" lon="7.6677632"><ele>312.0</ele><time>2026-04-12T11:53:13.988Z</time></trkpt><trkpt lat="44.6476305" lon="7.6678676"><ele>312.0</ele><time>2026-04-12T11:53:15.988Z</time></trkpt><trkpt lat="44.6476393" lon="7.6679696"><ele>312.0</ele><time>2026-04-12T11:53:17.988Z</time></trkpt><trkpt lat="44.6477119" lon="7.6680333"><ele>312.0</ele><time>2026-04-12T11:53:20.988Z</time></trkpt><trkpt lat="44.6477598" lon="7.667972"><ele>312.0</ele><time>2026-04-12T11:53:23.988Z</time></trkpt><trkpt lat="44.6477339" lon="7.6678824"><ele>312.0</ele><time>2026-04-12T11:53:30.988Z</time></trkpt><trkpt lat="44.6477195" lon="7.6679706"><ele>312.0</ele><time>2026-04-12T11:53:35.988Z</time></trkpt><trkpt lat="44.6477849" lon="7.6679689"><ele>312.0</ele><time>2026-04-12T11:53:39.988Z</time></trkpt><trkpt lat="44.6477877" lon="7.6678786"><ele>312.0</ele><time>2026-04-12T11:53:42.988Z</time></trkpt><trkpt lat="44.6477452" lon="7.6678077"><ele>312.0</ele><time>2026-04-12T11:53:47.988Z</time></trkpt><trkpt lat="44.6477071" lon="7.6677107"><ele>312.0</ele><time>2026-04-12T11:53:50.988Z</time></trkpt><trkpt lat="44.6476965" lon="7.6676179"><ele>312.0</ele><time>2026-04-12T11:53:52.988Z</time></trkpt><trkpt lat="44.6476926" lon="7.6674872"><ele>312.0</ele><time>2026-04-12T11:53:55.988Z</time></trkpt><trkpt lat="44.6476913" lon="7.6673913"><ele>312.0</ele><time>2026-04-12T11:53:57.988Z</time></trkpt><trkpt lat="44.647687" lon="7.667291"><ele>312.0</ele><time>2026-04-12T11:53:59.988Z</time></trkpt><trkpt lat="44.6476777" lon="7.6671969"><ele>312.0</ele><time>2026-04-12T11:54:01.988Z</time></trkpt><trkpt lat="44.6476792" lon="7.6670965"><ele>312.0</ele><time>2026-04-12T11:54:05.988Z</time></trkpt><trkpt lat="44.6476718" lon="7.6670041"><ele>312.0</ele><time>2026-04-12T11:54:28.988Z</time></trkpt><trkpt lat="44.6477056" lon="7.666896"><ele>312.0</ele><time>2026-04-12T11:54:33.988Z</time></trkpt><trkpt lat="44.6477461" lon="7.6667813"><ele>312.0</ele><time>2026-04-12T11:54:36.988Z</time></trkpt><trkpt lat="44.6477735" lon="7.6666997"><ele>312.0</ele><time>2026-04-12T11:54:38.988Z</time></trkpt><trkpt lat="44.6477634" lon="7.6666114"><ele>312.0</ele><time>2026-04-12T11:54:40.988Z</time></trkpt><trkpt lat="44.6477519" lon="7.666512"><ele>312.0</ele><time>2026-04-12T11:54:42.988Z</time></trkpt><trkpt lat="44.6477264" lon="7.6663926"><ele>312.0</ele><time>2026-04-12T11:54:45.988Z</time></trkpt><trkpt lat="44.6476767" lon="7.6663335"><ele>312.0</ele><time>2026-04-12T11:54:47.988Z</time></trkpt><trkpt lat="44.6476039" lon="7.6662651"><ele>312.0</ele><time>2026-04-12T11:54:49.988Z</time></trkpt><trkpt lat="44.6475473" lon="7.6661817"><ele>312.0</ele><time>2026-04-12T11:54:51.988Z</time></trkpt><trkpt lat="44.6475274" lon="7.6660473"><ele>312.0</ele><time>2026-04-12T11:54:53.988Z</time></trkpt><trkpt lat="44.6475101" lon="7.6659091"><ele>312.0</ele><time>2026-04-12T11:54:55.988Z</time></trkpt><trkpt lat="44.6474916" lon="7.6657579"><ele>312.0</ele><time>2026-04-12T11:54:57.988Z</time></trkpt><trkpt lat="44.6474712" lon="7.665615"><ele>312.0</ele><time>2026-04-12T11:54:59.988Z</time></trkpt><trkpt lat="44.6474282" lon="7.6654763"><ele>312.0</ele><time>2026-04-12T11:55:01.988Z</time></trkpt><trkpt lat="44.6473609" lon="7.6653505"><ele>312.0</ele><time>2026-04-12T11:55:03.988Z</time></trkpt><trkpt lat="44.6472988" lon="7.6652272"><ele>312.0</ele><time>2026-04-12T11:55:05.988Z</time></trkpt><trkpt lat="44.6472314" lon="7.665104"><ele>312.0</ele><time>2026-04-12T11:55:07.988Z</time></trkpt><trkpt lat="44.6471581" lon="7.6650017"><ele>312.0</ele><time>2026-04-12T11:55:09.988Z</time></trkpt><trkpt lat="44.647081" lon="7.6649114"><ele>312.0</ele><time>2026-04-12T11:55:11.988Z</time></trkpt><trkpt lat="44.6470092" lon="7.6648193"><ele>312.0</ele><time>2026-04-12T11:55:13.988Z</time></trkpt><trkpt lat="44.6469365" lon="7.6647331"><ele>312.0</ele><time>2026-04-12T11:55:15.988Z</time></trkpt><trkpt lat="44.6468675" lon="7.664647"><ele>312.1666666666667</ele><time>2026-04-12T11:55:17.988Z</time></trkpt><trkpt lat="44.6468042" lon="7.6645687"><ele>312.3333333333333</ele><time>2026-04-12T11:55:19.988Z</time></trkpt><trkpt lat="44.6467391" lon="7.6644841"><ele>312.5</ele><time>2026-04-12T11:55:21.988Z</time></trkpt><trkpt lat="44.6466721" lon="7.6643982"><ele>312.66666666666663</ele><time>2026-04-12T11:55:23.988Z</time></trkpt><trkpt lat="44.6466061" lon="7.6643194"><ele>312.8333333333333</ele><time>2026-04-12T11:55:25.988Z</time></trkpt><trkpt lat="44.6465402" lon="7.6642384"><ele>313.0</ele><time>2026-04-12T11:55:27.988Z</time></trkpt><trkpt lat="44.6464772" lon="7.6641579"><ele>313.0</ele><time>2026-04-12T11:55:29.988Z</time></trkpt><trkpt lat="44.646414" lon="7.6640804"><ele>313.0</ele><time>2026-04-12T11:55:31.988Z</time></trkpt><trkpt lat="44.6463507" lon="7.6640018"><ele>313.0</ele><time>2026-04-12T11:55:33.988Z</time></trkpt><trkpt lat="44.6462892" lon="7.6639236"><ele>313.0</ele><time>2026-04-12T11:55:35.988Z</time></trkpt><trkpt lat="44.6462253" lon="7.6638454"><ele>313.0</ele><time>2026-04-12T11:55:37.988Z</time></trkpt><trkpt lat="44.6461632" lon="7.6637619"><ele>313.0</ele><time>2026-04-12T11:55:39.988Z</time></trkpt><trkpt lat="44.6461004" lon="7.6636795"><ele>313.16666666666663</ele><time>2026-04-12T11:55:41.988Z</time></trkpt><trkpt lat="44.6460388" lon="7.6635991"><ele>313.3333333333333</ele><time>2026-04-12T11:55:43.988Z</time></trkpt><trkpt lat="44.6459804" lon="7.6635176"><ele>313.5</ele><time>2026-04-12T11:55:45.988Z</time></trkpt><trkpt lat="44.6459283" lon="7.6634324"><ele>313.6666666666667</ele><time>2026-04-12T11:55:47.988Z</time></trkpt><trkpt lat="44.645883" lon="7.663334"><ele>313.83333333333337</ele><time>2026-04-12T11:55:49.988Z</time></trkpt><trkpt lat="44.6458413" lon="7.6632385"><ele>314.0</ele><time>2026-04-12T11:55:51.988Z</time></trkpt><trkpt lat="44.6458064" lon="7.6631389"><ele>314.0</ele><time>2026-04-12T11:55:53.988Z</time></trkpt><trkpt lat="44.6457748" lon="7.6630414"><ele>314.0</ele><time>2026-04-12T11:55:55.988Z</time></trkpt><trkpt lat="44.6457474" lon="7.6629411"><ele>314.0</ele><time>2026-04-12T11:55:57.988Z</time></trkpt><trkpt lat="44.6457194" lon="7.6628375"><ele>314.0</ele><time>2026-04-12T11:55:59.988Z</time></trkpt><trkpt lat="44.6456945" lon="7.6627401"><ele>314.0</ele><time>2026-04-12T11:56:01.988Z</time></trkpt><trkpt lat="44.6456685" lon="7.662636"><ele>314.0</ele><time>2026-04-12T11:56:03.988Z</time></trkpt><trkpt lat="44.6456394" lon="7.6625182"><ele>314.2</ele><time>2026-04-12T11:56:05.988Z</time></trkpt><trkpt lat="44.6456074" lon="7.6623847"><ele>314.4</ele><time>2026-04-12T11:56:07.988Z</time></trkpt><trkpt lat="44.6455735" lon="7.6622454"><ele>314.6</ele><time>2026-04-12T11:56:09.988Z</time></trkpt><trkpt lat="44.6455353" lon="7.6620993"><ele>314.8</ele><time>2026-04-12T11:56:11.988Z</time></trkpt><trkpt lat="44.6454769" lon="7.6619567"><ele>315.0</ele><time>2026-04-12T11:56:13.988Z</time></trkpt><trkpt lat="44.6454194" lon="7.6618048"><ele>315.0</ele><time>2026-04-12T11:56:15.988Z</time></trkpt><trkpt lat="44.6453822" lon="7.6617283"><ele>315.0</ele><time>2026-04-12T11:56:16.988Z</time></trkpt><trkpt lat="44.6453436" lon="7.661651"><ele>315.0</ele><time>2026-04-12T11:56:17.988Z</time></trkpt><trkpt lat="44.6453004" lon="7.6615735"><ele>315.0</ele><time>2026-04-12T11:56:18.988Z</time></trkpt><trkpt lat="44.6452568" lon="7.6614944"><ele>315.0</ele><time>2026-04-12T11:56:19.988Z</time></trkpt><trkpt lat="44.6452106" lon="7.6614139"><ele>315.0</ele><time>2026-04-12T11:56:20.988Z</time></trkpt><trkpt lat="44.6451634" lon="7.6613308"><ele>315.0</ele><time>2026-04-12T11:56:21.988Z</time></trkpt><trkpt lat="44.6451156" lon="7.6612472"><ele>315.0</ele><time>2026-04-12T11:56:22.988Z</time></trkpt><trkpt lat="44.6450685" lon="7.6611656"><ele>315.0</ele><time>2026-04-12T11:56:23.988Z</time></trkpt><trkpt lat="44.6450209" lon="7.6610807"><ele>315.0</ele><time>2026-04-12T11:56:24.988Z</time></trkpt><trkpt lat="44.6449729" lon="7.6609967"><ele>315.0</ele><time>2026-04-12T11:56:25.988Z</time></trkpt><trkpt lat="44.6449255" lon="7.6609112"><ele>315.0</ele><time>2026-04-12T11:56:26.988Z</time></trkpt><trkpt lat="44.6448786" lon="7.6608267"><ele>315.0</ele><time>2026-04-12T11:56:27.988Z</time></trkpt><trkpt lat="44.6448316" lon="7.6607416"><ele>315.3333333333333</ele><time>2026-04-12T11:56:28.988Z</time></trkpt><trkpt lat="44.6447868" lon="7.660655"><ele>315.6666666666667</ele><time>2026-04-12T11:56:29.988Z</time></trkpt><trkpt lat="44.6447441" lon="7.6605688"><ele>316.0</ele><time>2026-04-12T11:56:30.988Z</time></trkpt><trkpt lat="44.6447013" lon="7.6604884"><ele>316.33333333333337</ele><time>2026-04-12T11:56:31.988Z</time></trkpt><trkpt lat="44.6446599" lon="7.6604123"><ele>316.6666666666667</ele><time>2026-04-12T11:56:32.988Z</time></trkpt><trkpt lat="44.6446238" lon="7.6603385"><ele>317.0</ele><time>2026-04-12T11:56:33.988Z</time></trkpt><trkpt lat="44.6445765" lon="7.6601812"><ele>317.0</ele><time>2026-04-12T11:56:35.988Z</time></trkpt><trkpt lat="44.6445668" lon="7.6600191"><ele>317.0</ele><time>2026-04-12T11:56:37.988Z</time></trkpt><trkpt lat="44.6444999" lon="7.6598988"><ele>317.0</ele><time>2026-04-12T11:56:39.988Z</time></trkpt><trkpt lat="44.644409" lon="7.6598291"><ele>317.0</ele><time>2026-04-12T11:56:41.988Z</time></trkpt><trkpt lat="44.6443307" lon="7.6597313"><ele>317.0</ele><time>2026-04-12T11:56:43.988Z</time></trkpt><trkpt lat="44.6442644" lon="7.6596135"><ele>317.0</ele><time>2026-04-12T11:56:45.988Z</time></trkpt><trkpt lat="44.6441986" lon="7.6594869"><ele>317.0</ele><time>2026-04-12T11:56:47.988Z</time></trkpt><trkpt lat="44.6441473" lon="7.6593464"><ele>317.0</ele><time>2026-04-12T11:56:49.988Z</time></trkpt><trkpt lat="44.6441028" lon="7.6592048"><ele>317.0</ele><time>2026-04-12T11:56:51.988Z</time></trkpt><trkpt lat="44.6440591" lon="7.6590663"><ele>317.0</ele><time>2026-04-12T11:56:53.988Z</time></trkpt><trkpt lat="44.6440182" lon="7.6589261"><ele>317.0</ele><time>2026-04-12T11:56:55.988Z</time></trkpt><trkpt lat="44.6439771" lon="7.6587917"><ele>317.0</ele><time>2026-04-12T11:56:57.988Z</time></trkpt><trkpt lat="44.6439287" lon="7.6586657"><ele>317.0</ele><time>2026-04-12T11:56:59.988Z</time></trkpt><trkpt lat="44.6438853" lon="7.6585403"><ele>317.0</ele><time>2026-04-12T11:57:01.988Z</time></trkpt><trkpt lat="44.6438414" lon="7.6584024"><ele>317.0</ele><time>2026-04-12T11:57:03.988Z</time></trkpt><trkpt lat="44.6438015" lon="7.658264"><ele>317.0</ele><time>2026-04-12T11:57:05.988Z</time></trkpt><trkpt lat="44.6437507" lon="7.6581151"><ele>317.0</ele><time>2026-04-12T11:57:07.988Z</time></trkpt><trkpt lat="44.6437083" lon="7.6579674"><ele>317.0</ele><time>2026-04-12T11:57:09.988Z</time></trkpt><trkpt lat="44.6436632" lon="7.6578334"><ele>317.0</ele><time>2026-04-12T11:57:11.988Z</time></trkpt><trkpt lat="44.6436166" lon="7.6576988"><ele>317.0</ele><time>2026-04-12T11:57:13.988Z</time></trkpt><trkpt lat="44.643559" lon="7.6575746"><ele>317.4</ele><time>2026-04-12T11:57:15.988Z</time></trkpt><trkpt lat="44.6434917" lon="7.6574776"><ele>317.79999999999995</ele><time>2026-04-12T11:57:17.988Z</time></trkpt><trkpt lat="44.6434235" lon="7.6573688"><ele>318.2</ele><time>2026-04-12T11:57:19.988Z</time></trkpt><trkpt lat="44.6433501" lon="7.6572639"><ele>318.59999999999997</ele><time>2026-04-12T11:57:21.988Z</time></trkpt><trkpt lat="44.6432783" lon="7.6571443"><ele>319.0</ele><time>2026-04-12T11:57:23.988Z</time></trkpt><trkpt lat="44.6432094" lon="7.6570251"><ele>319.0</ele><time>2026-04-12T11:57:25.988Z</time></trkpt><trkpt lat="44.6431242" lon="7.6569103"><ele>319.0</ele><time>2026-04-12T11:57:27.988Z</time></trkpt><trkpt lat="44.6430419" lon="7.656819"><ele>319.0</ele><time>2026-04-12T11:57:29.988Z</time></trkpt><trkpt lat="44.6429498" lon="7.6567352"><ele>319.0</ele><time>2026-04-12T11:57:31.988Z</time></trkpt><trkpt lat="44.6428665" lon="7.6566482"><ele>319.0</ele><time>2026-04-12T11:57:33.988Z</time></trkpt><trkpt lat="44.6427866" lon="7.6565689"><ele>319.0</ele><time>2026-04-12T11:57:35.988Z</time></trkpt><trkpt lat="44.6427089" lon="7.6564776"><ele>319.0</ele><time>2026-04-12T11:57:37.988Z</time></trkpt><trkpt lat="44.6426281" lon="7.6563782"><ele>319.0</ele><time>2026-04-12T11:57:39.988Z</time></trkpt><trkpt lat="44.6425499" lon="7.6562845"><ele>319.0</ele><time>2026-04-12T11:57:41.988Z</time></trkpt><trkpt lat="44.6424741" lon="7.6561777"><ele>319.0</ele><time>2026-04-12T11:57:43.988Z</time></trkpt><trkpt lat="44.6424048" lon="7.6560527"><ele>319.2</ele><time>2026-04-12T11:57:45.988Z</time></trkpt><trkpt lat="44.6423578" lon="7.6559079"><ele>319.4</ele><time>2026-04-12T11:57:47.988Z</time></trkpt><trkpt lat="44.6423363" lon="7.655749"><ele>319.6</ele><time>2026-04-12T11:57:49.988Z</time></trkpt><trkpt lat="44.6423144" lon="7.6555997"><ele>319.8</ele><time>2026-04-12T11:57:51.988Z</time></trkpt><trkpt lat="44.6422975" lon="7.6554468"><ele>320.0</ele><time>2026-04-12T11:57:53.988Z</time></trkpt><trkpt lat="44.6423146" lon="7.6552881"><ele>319.75</ele><time>2026-04-12T11:57:55.988Z</time></trkpt><trkpt lat="44.6423601" lon="7.6551421"><ele>319.5</ele><time>2026-04-12T11:57:57.988Z</time></trkpt><trkpt lat="44.6424407" lon="7.6550135"><ele>319.25</ele><time>2026-04-12T11:57:59.988Z</time></trkpt><trkpt lat="44.642548" lon="7.6549637"><ele>319.0</ele><time>2026-04-12T11:58:01.988Z</time></trkpt><trkpt lat="44.642664" lon="7.6549363"><ele>319.0</ele><time>2026-04-12T11:58:03.988Z</time></trkpt><trkpt lat="44.6427859" lon="7.6549046"><ele>319.0</ele><time>2026-04-12T11:58:05.988Z</time></trkpt><trkpt lat="44.6429048" lon="7.6548625"><ele>319.0</ele><time>2026-04-12T11:58:07.988Z</time></trkpt><trkpt lat="44.6430187" lon="7.6548499"><ele>319.0</ele><time>2026-04-12T11:58:09.988Z</time></trkpt><trkpt lat="44.6431456" lon="7.6548382"><ele>319.25</ele><time>2026-04-12T11:58:11.988Z</time></trkpt><trkpt lat="44.6432635" lon="7.6548078"><ele>319.5</ele><time>2026-04-12T11:58:13.988Z</time></trkpt><trkpt lat="44.6433751" lon="7.6547777"><ele>319.75</ele><time>2026-04-12T11:58:15.988Z</time></trkpt><trkpt lat="44.6434851" lon="7.6547437"><ele>320.0</ele><time>2026-04-12T11:58:17.988Z</time></trkpt><trkpt lat="44.6435983" lon="7.6547253"><ele>319.8</ele><time>2026-04-12T11:58:19.988Z</time></trkpt><trkpt lat="44.6436622" lon="7.6547131"><ele>319.6</ele><time>2026-04-12T11:58:20.988Z</time></trkpt><trkpt lat="44.6437649" lon="7.6546889"><ele>319.4</ele><time>2026-04-12T11:58:22.988Z</time></trkpt><trkpt lat="44.6438686" lon="7.6546667"><ele>319.2</ele><time>2026-04-12T11:58:24.988Z</time></trkpt><trkpt lat="44.6439796" lon="7.6546414"><ele>319.0</ele><time>2026-04-12T11:58:26.988Z</time></trkpt><trkpt lat="44.6440913" lon="7.6546133"><ele>319.0</ele><time>2026-04-12T11:58:28.988Z</time></trkpt><trkpt lat="44.644209" lon="7.6545957"><ele>319.0</ele><time>2026-04-12T11:58:30.988Z</time></trkpt><trkpt lat="44.6443277" lon="7.6545693"><ele>319.0</ele><time>2026-04-12T11:58:32.988Z</time></trkpt><trkpt lat="44.644438" lon="7.6545345"><ele>319.0</ele><time>2026-04-12T11:58:34.988Z</time></trkpt><trkpt lat="44.6445545" lon="7.6545091"><ele>319.2</ele><time>2026-04-12T11:58:36.988Z</time></trkpt><trkpt lat="44.6446555" lon="7.6544915"><ele>319.4</ele><time>2026-04-12T11:58:38.988Z</time></trkpt><trkpt lat="44.6447532" lon="7.6544621"><ele>319.6</ele><time>2026-04-12T11:58:40.988Z</time></trkpt><trkpt lat="44.6448562" lon="7.6544369"><ele>319.8</ele><time>2026-04-12T11:58:42.988Z</time></trkpt><trkpt lat="44.6449403" lon="7.6543929"><ele>320.0</ele><time>2026-04-12T11:58:44.988Z</time></trkpt><trkpt lat="44.6450411" lon="7.6543838"><ele>319.6666666666667</ele><time>2026-04-12T11:58:46.988Z</time></trkpt><trkpt lat="44.6451361" lon="7.6543656"><ele>319.33333333333337</ele><time>2026-04-12T11:58:48.988Z</time></trkpt><trkpt lat="44.6452284" lon="7.6543564"><ele>319.0</ele><time>2026-04-12T11:58:50.988Z</time></trkpt><trkpt lat="44.645306" lon="7.6543577"><ele>318.6666666666667</ele><time>2026-04-12T11:58:52.988Z</time></trkpt><trkpt lat="44.6453918" lon="7.6543198"><ele>318.3333333333333</ele><time>2026-04-12T11:58:54.988Z</time></trkpt><trkpt lat="44.6454665" lon="7.6542989"><ele>318.0</ele><time>2026-04-12T11:58:56.988Z</time></trkpt><trkpt lat="44.6455441" lon="7.6542831"><ele>317.7142857142857</ele><time>2026-04-12T11:58:58.988Z</time></trkpt><trkpt lat="44.645617" lon="7.6542627"><ele>317.42857142857144</ele><time>2026-04-12T11:59:00.988Z</time></trkpt><trkpt lat="44.6456902" lon="7.6542475"><ele>317.14285714285717</ele><time>2026-04-12T11:59:02.988Z</time></trkpt><trkpt lat="44.6457624" lon="7.6542496"><ele>316.8571428571429</ele><time>2026-04-12T11:59:04.988Z</time></trkpt><trkpt lat="44.6458319" lon="7.6542308"><ele>316.57142857142856</ele><time>2026-04-12T11:59:06.988Z</time></trkpt><trkpt lat="44.645896" lon="7.654253"><ele>316.28571428571433</ele><time>2026-04-12T11:59:08.988Z</time></trkpt><trkpt lat="44.6459521" lon="7.6543235"><ele>316.0</ele><time>2026-04-12T11:59:10.988Z</time></trkpt><trkpt lat="44.6459911" lon="7.6544181"><ele>316.66666666666663</ele><time>2026-04-12T11:59:12.988Z</time></trkpt><trkpt lat="44.6460075" lon="7.6545275"><ele>317.3333333333333</ele><time>2026-04-12T11:59:14.988Z</time></trkpt><trkpt lat="44.6460067" lon="7.6546265"><ele>318.0</ele><time>2026-04-12T11:59:16.988Z</time></trkpt><trkpt lat="44.6460017" lon="7.65474"><ele>318.6666666666667</ele><time>2026-04-12T11:59:19.988Z</time></trkpt><trkpt lat="44.6459207" lon="7.6547771"><ele>319.33333333333337</ele><time>2026-04-12T11:59:23.988Z</time></trkpt><trkpt lat="44.6458576" lon="7.6547693"><ele>320.0</ele><time>2026-04-12T11:59:26.988Z</time></trkpt><trkpt lat="44.645797" lon="7.6548223"><ele>320.0</ele><time>2026-04-12T11:59:30.988Z</time></trkpt><trkpt lat="44.6458069" lon="7.6549237"><ele>320.0</ele><time>2026-04-12T11:59:35.988Z</time></trkpt><trkpt lat="44.6458603" lon="7.6549739"><ele>320.0</ele><time>2026-04-12T11:59:41.989Z</time></trkpt><trkpt lat="44.6459354" lon="7.6549657"><ele>320.0</ele><time>2026-04-12T11:59:47.989Z</time></trkpt><trkpt lat="44.6459439" lon="7.6550537"><ele>320.0</ele><time>2026-04-12T12:00:40.988Z</time></trkpt><trkpt lat="44.6460049" lon="7.6550038"><ele>320.0</ele><time>2026-04-12T12:00:48.988Z</time></trkpt><trkpt lat="44.6460287" lon="7.6548866"><ele>320.0</ele><time>2026-04-12T12:00:51.988Z</time></trkpt><trkpt lat="44.6460412" lon="7.6547784"><ele>320.0</ele><time>2026-04-12T12:00:53.988Z</time></trkpt><trkpt lat="44.6460345" lon="7.6546738"><ele>320.0</ele><time>2026-04-12T12:00:55.988Z</time></trkpt><trkpt lat="44.6460328" lon="7.6545817"><ele>320.0</ele><time>2026-04-12T12:00:57.988Z</time></trkpt><trkpt lat="44.6460653" lon="7.6544733"><ele>320.0</ele><time>2026-04-12T12:01:00.988Z</time></trkpt><trkpt lat="44.6461168" lon="7.654385"><ele>320.0</ele><time>2026-04-12T12:01:03.988Z</time></trkpt><trkpt lat="44.6460938" lon="7.6542595"><ele>320.0</ele><time>2026-04-12T12:01:06.988Z</time></trkpt><trkpt lat="44.6460681" lon="7.6541555"><ele>319.42857142857144</ele><time>2026-04-12T12:01:08.988Z</time></trkpt><trkpt lat="44.6460578" lon="7.6540585"><ele>318.8571428571429</ele><time>2026-04-12T12:01:10.988Z</time></trkpt><trkpt lat="44.6460308" lon="7.6539455"><ele>318.28571428571433</ele><time>2026-04-12T12:01:13.988Z</time></trkpt><trkpt lat="44.6459619" lon="7.6539621"><ele>317.7142857142857</ele><time>2026-04-12T12:01:16.988Z</time></trkpt><trkpt lat="44.6458991" lon="7.6539986"><ele>317.14285714285717</ele><time>2026-04-12T12:01:19.988Z</time></trkpt><trkpt lat="44.645837" lon="7.6540285"><ele>316.5714285714286</ele><time>2026-04-12T12:01:22.988Z</time></trkpt><trkpt lat="44.6457728" lon="7.6541093"><ele>316.0</ele><time>2026-04-12T12:01:26.988Z</time></trkpt><trkpt lat="44.6457439" lon="7.6541936"><ele>316.0</ele><time>2026-04-12T12:01:29.988Z</time></trkpt><trkpt lat="44.645814" lon="7.6542617"><ele>316.0</ele><time>2026-04-12T12:01:32.988Z</time></trkpt><trkpt lat="44.64589" lon="7.6542744"><ele>316.0</ele><time>2026-04-12T12:01:34.988Z</time></trkpt><trkpt lat="44.6459653" lon="7.6543195"><ele>316.0</ele><time>2026-04-12T12:01:36.988Z</time></trkpt><trkpt lat="44.6460022" lon="7.6544227"><ele>316.0</ele><time>2026-04-12T12:01:38.988Z</time></trkpt><trkpt lat="44.6460046" lon="7.6545433"><ele>316.0</ele><time>2026-04-12T12:01:40.988Z</time></trkpt><trkpt lat="44.64601" lon="7.6546581"><ele>316.16666666666663</ele><time>2026-04-12T12:01:42.988Z</time></trkpt><trkpt lat="44.6460209" lon="7.6547568"><ele>316.3333333333333</ele><time>2026-04-12T12:01:44.988Z</time></trkpt><trkpt lat="44.6460694" lon="7.6548181"><ele>316.5</ele><time>2026-04-12T12:01:46.988Z</time></trkpt><trkpt lat="44.6461337" lon="7.654795"><ele>316.6666666666667</ele><time>2026-04-12T12:01:48.988Z</time></trkpt><trkpt lat="44.6461563" lon="7.6546885"><ele>316.83333333333337</ele><time>2026-04-12T12:01:50.988Z</time></trkpt><trkpt lat="44.6461452" lon="7.6545726"><ele>317.0</ele><time>2026-04-12T12:01:52.988Z</time></trkpt><trkpt lat="44.6461295" lon="7.6544539"><ele>316.83333333333337</ele><time>2026-04-12T12:01:54.988Z</time></trkpt><trkpt lat="44.646102" lon="7.6543241"><ele>316.6666666666667</ele><time>2026-04-12T12:01:56.988Z</time></trkpt><trkpt lat="44.6460757" lon="7.6542126"><ele>316.5</ele><time>2026-04-12T12:01:58.988Z</time></trkpt><trkpt lat="44.6460346" lon="7.6541084"><ele>316.3333333333333</ele><time>2026-04-12T12:02:00.988Z</time></trkpt><trkpt lat="44.6459575" lon="7.6540551"><ele>316.16666666666663</ele><time>2026-04-12T12:02:02.988Z</time></trkpt><trkpt lat="44.6458717" lon="7.6540793"><ele>316.0</ele><time>2026-04-12T12:02:04.988Z</time></trkpt><trkpt lat="44.6457723" lon="7.6541299"><ele>316.0</ele><time>2026-04-12T12:02:06.988Z</time></trkpt><trkpt lat="44.6456793" lon="7.6541822"><ele>316.0</ele><time>2026-04-12T12:02:08.988Z</time></trkpt><trkpt lat="44.6455828" lon="7.6542188"><ele>316.0</ele><time>2026-04-12T12:02:10.988Z</time></trkpt><trkpt lat="44.6454872" lon="7.6542453"><ele>316.0</ele><time>2026-04-12T12:02:12.988Z</time></trkpt><trkpt lat="44.6453884" lon="7.6542762"><ele>316.0</ele><time>2026-04-12T12:02:14.988Z</time></trkpt><trkpt lat="44.6453072" lon="7.6543044"><ele>316.3333333333333</ele><time>2026-04-12T12:02:16.988Z</time></trkpt><trkpt lat="44.6452217" lon="7.6543192"><ele>316.66666666666663</ele><time>2026-04-12T12:02:18.988Z</time></trkpt><trkpt lat="44.6451315" lon="7.6543246"><ele>317.0</ele><time>2026-04-12T12:02:20.988Z</time></trkpt><trkpt lat="44.6450496" lon="7.6543414"><ele>317.3333333333333</ele><time>2026-04-12T12:02:22.988Z</time></trkpt><trkpt lat="44.6449596" lon="7.6543587"><ele>317.6666666666667</ele><time>2026-04-12T12:02:24.988Z</time></trkpt><trkpt lat="44.6448876" lon="7.6543749"><ele>318.0</ele><time>2026-04-12T12:02:26.988Z</time></trkpt><trkpt lat="44.6448273" lon="7.6544087"><ele>318.3333333333333</ele><time>2026-04-12T12:02:28.988Z</time></trkpt><trkpt lat="44.6447941" lon="7.6544965"><ele>318.6666666666667</ele><time>2026-04-12T12:02:30.988Z</time></trkpt><trkpt lat="44.6448195" lon="7.6546119"><ele>319.0</ele><time>2026-04-12T12:02:32.988Z</time></trkpt><trkpt lat="44.6448505" lon="7.6547323"><ele>319.33333333333337</ele><time>2026-04-12T12:02:34.988Z</time></trkpt><trkpt lat="44.6448584" lon="7.6548545"><ele>319.6666666666667</ele><time>2026-04-12T12:02:36.988Z</time></trkpt><trkpt lat="44.6448636" lon="7.6549797"><ele>320.0</ele><time>2026-04-12T12:02:38.988Z</time></trkpt><trkpt lat="44.6448462" lon="7.6551124"><ele>320.0</ele><time>2026-04-12T12:02:40.988Z</time></trkpt><trkpt lat="44.6448312" lon="7.6552492"><ele>320.0</ele><time>2026-04-12T12:02:42.988Z</time></trkpt><trkpt lat="44.6448279" lon="7.65537"><ele>320.0</ele><time>2026-04-12T12:02:44.988Z</time></trkpt><trkpt lat="44.6448256" lon="7.6554981"><ele>320.0</ele><time>2026-04-12T12:02:46.988Z</time></trkpt><trkpt lat="44.6448032" lon="7.6555849"><ele>320.0</ele><time>2026-04-12T12:02:48.988Z</time></trkpt><trkpt lat="44.6447928" lon="7.6556938"><ele>320.0</ele><time>2026-04-12T12:02:50.988Z</time></trkpt><trkpt lat="44.6448124" lon="7.6557865"><ele>320.6666666666667</ele><time>2026-04-12T12:02:53.988Z</time></trkpt><trkpt lat="44.6448881" lon="7.6557584"><ele>321.33333333333337</ele><time>2026-04-12T12:02:55.988Z</time></trkpt><trkpt lat="44.6449617" lon="7.6557347"><ele>322.0</ele><time>2026-04-12T12:02:57.988Z</time></trkpt><trkpt lat="44.6450506" lon="7.6557398"><ele>322.6666666666667</ele><time>2026-04-12T12:02:59.988Z</time></trkpt><trkpt lat="44.6451509" lon="7.6557665"><ele>323.3333333333333</ele><time>2026-04-12T12:03:01.988Z</time></trkpt><trkpt lat="44.645246" lon="7.6557862"><ele>324.0</ele><time>2026-04-12T12:03:03.988Z</time></trkpt><trkpt lat="44.6453295" lon="7.655764"><ele>324.0</ele><time>2026-04-12T12:03:05.988Z</time></trkpt><trkpt lat="44.645412" lon="7.655746"><ele>324.0</ele><time>2026-04-12T12:03:07.988Z</time></trkpt><trkpt lat="44.6454911" lon="7.6557378"><ele>324.0</ele><time>2026-04-12T12:03:09.988Z</time></trkpt><trkpt lat="44.6455672" lon="7.655748"><ele>324.0</ele><time>2026-04-12T12:03:11.988Z</time></trkpt><trkpt lat="44.6456429" lon="7.6557651"><ele>324.0</ele><time>2026-04-12T12:03:13.988Z</time></trkpt><trkpt lat="44.6457116" lon="7.6558297"><ele>324.0</ele><time>2026-04-12T12:03:15.988Z</time></trkpt><trkpt lat="44.6457474" lon="7.655922"><ele>324.0</ele><time>2026-04-12T12:03:17.988Z</time></trkpt><trkpt lat="44.6457486" lon="7.6560466"><ele>324.0</ele><time>2026-04-12T12:03:19.988Z</time></trkpt><trkpt lat="44.645753" lon="7.6561662"><ele>324.0</ele><time>2026-04-12T12:03:21.989Z</time></trkpt><trkpt lat="44.6457452" lon="7.6562692"><ele>324.0</ele><time>2026-04-12T12:03:23.988Z</time></trkpt><trkpt lat="44.6457394" lon="7.6563654"><ele>324.0</ele><time>2026-04-12T12:03:25.988Z</time></trkpt><trkpt lat="44.6457407" lon="7.6565046"><ele>324.0</ele><time>2026-04-12T12:03:27.988Z</time></trkpt><trkpt lat="44.6457468" lon="7.6566046"><ele>323.8333333333333</ele><time>2026-04-12T12:03:29.988Z</time></trkpt><trkpt lat="44.6457841" lon="7.656685"><ele>323.6666666666667</ele><time>2026-04-12T12:03:31.988Z</time></trkpt><trkpt lat="44.6458535" lon="7.6567189"><ele>323.5</ele><time>2026-04-12T12:03:33.988Z</time></trkpt><trkpt lat="44.6459239" lon="7.6567354"><ele>323.33333333333337</ele><time>2026-04-12T12:03:35.988Z</time></trkpt><trkpt lat="44.646007" lon="7.6567609"><ele>323.1666666666667</ele><time>2026-04-12T12:03:37.988Z</time></trkpt><trkpt lat="44.6460819" lon="7.6568145"><ele>323.0</ele><time>2026-04-12T12:03:39.988Z</time></trkpt><trkpt lat="44.6461514" lon="7.6568826"><ele>323.0</ele><time>2026-04-12T12:03:41.988Z</time></trkpt><trkpt lat="44.6462076" lon="7.6569831"><ele>323.0</ele><time>2026-04-12T12:03:43.988Z</time></trkpt><trkpt lat="44.6462631" lon="7.6570774"><ele>323.0</ele><time>2026-04-12T12:03:45.988Z</time></trkpt><trkpt lat="44.6463046" lon="7.6571881"><ele>323.0</ele><time>2026-04-12T12:03:47.988Z</time></trkpt><trkpt lat="44.6463399" lon="7.6572968"><ele>323.0</ele><time>2026-04-12T12:03:49.988Z</time></trkpt><trkpt lat="44.6463648" lon="7.6574087"><ele>323.0</ele><time>2026-04-12T12:03:51.988Z</time></trkpt><trkpt lat="44.6463871" lon="7.6575202"><ele>323.0</ele><time>2026-04-12T12:03:53.988Z</time></trkpt><trkpt lat="44.6464174" lon="7.6576115"><ele>323.0</ele><time>2026-04-12T12:03:55.988Z</time></trkpt><trkpt lat="44.6463569" lon="7.6575785"><ele>323.0</ele><time>2026-04-12T12:04:00.988Z</time></trkpt><trkpt lat="44.6463429" lon="7.6574523"><ele>323.0</ele><time>2026-04-12T12:04:03.988Z</time></trkpt><trkpt lat="44.646375" lon="7.657374"><ele>323.0</ele><time>2026-04-12T12:04:06.988Z</time></trkpt><trkpt lat="44.6464626" lon="7.6573505"><ele>323.0</ele><time>2026-04-12T12:04:08.988Z</time></trkpt><trkpt lat="44.6465548" lon="7.6573358"><ele>323.0</ele><time>2026-04-12T12:04:10.988Z</time></trkpt><trkpt lat="44.6466444" lon="7.6573253"><ele>323.0</ele><time>2026-04-12T12:04:12.988Z</time></trkpt><trkpt lat="44.6467334" lon="7.6573064"><ele>323.0</ele><time>2026-04-12T12:04:14.988Z</time></trkpt><trkpt lat="44.6468192" lon="7.6572859"><ele>323.0</ele><time>2026-04-12T12:04:16.988Z</time></trkpt><trkpt lat="44.6469108" lon="7.657277"><ele>323.0</ele><time>2026-04-12T12:04:18.988Z</time></trkpt><trkpt lat="44.6469912" lon="7.6572573"><ele>323.0</ele><time>2026-04-12T12:04:20.988Z</time></trkpt><trkpt lat="44.6470681" lon="7.6572318"><ele>322.83333333333337</ele><time>2026-04-12T12:04:22.988Z</time></trkpt><trkpt lat="44.6471492" lon="7.657204"><ele>322.6666666666667</ele><time>2026-04-12T12:04:24.988Z</time></trkpt><trkpt lat="44.6472246" lon="7.6571794"><ele>322.5</ele><time>2026-04-12T12:04:26.988Z</time></trkpt><trkpt lat="44.6472998" lon="7.6571423"><ele>322.3333333333333</ele><time>2026-04-12T12:04:28.988Z</time></trkpt><trkpt lat="44.6473985" lon="7.6570924"><ele>322.16666666666663</ele><time>2026-04-12T12:04:30.988Z</time></trkpt><trkpt lat="44.6474904" lon="7.657071"><ele>322.0</ele><time>2026-04-12T12:04:32.988Z</time></trkpt><trkpt lat="44.6475894" lon="7.6570613"><ele>322.0</ele><time>2026-04-12T12:04:34.988Z</time></trkpt><trkpt lat="44.6476854" lon="7.6570521"><ele>322.0</ele><time>2026-04-12T12:04:36.988Z</time></trkpt><trkpt lat="44.6477802" lon="7.6570531"><ele>322.0</ele><time>2026-04-12T12:04:38.988Z</time></trkpt><trkpt lat="44.6478686" lon="7.6570491"><ele>322.0</ele><time>2026-04-12T12:04:40.988Z</time></trkpt><trkpt lat="44.6479501" lon="7.6570323"><ele>322.0</ele><time>2026-04-12T12:04:42.988Z</time></trkpt><trkpt lat="44.6480178" lon="7.6570144"><ele>322.0</ele><time>2026-04-12T12:04:44.988Z</time></trkpt><trkpt lat="44.6480785" lon="7.6569657"><ele>320.8</ele><time>2026-04-12T12:04:46.988Z</time></trkpt><trkpt lat="44.6481077" lon="7.6568609"><ele>319.6</ele><time>2026-04-12T12:04:48.988Z</time></trkpt><trkpt lat="44.6481068" lon="7.6567333"><ele>318.40000000000003</ele><time>2026-04-12T12:04:50.988Z</time></trkpt><trkpt lat="44.6480952" lon="7.6566017"><ele>317.20000000000005</ele><time>2026-04-12T12:04:52.988Z</time></trkpt><trkpt lat="44.6480903" lon="7.656466"><ele>316.0</ele><time>2026-04-12T12:04:54.988Z</time></trkpt><trkpt lat="44.6480857" lon="7.6563244"><ele>316.0</ele><time>2026-04-12T12:04:56.988Z</time></trkpt><trkpt lat="44.6480782" lon="7.6561856"><ele>316.0</ele><time>2026-04-12T12:04:58.988Z</time></trkpt><trkpt lat="44.648074" lon="7.6560493"><ele>316.0</ele><time>2026-04-12T12:05:00.988Z</time></trkpt><trkpt lat="44.6480702" lon="7.6559132"><ele>316.0</ele><time>2026-04-12T12:05:02.988Z</time></trkpt><trkpt lat="44.6480708" lon="7.6557691"><ele>316.0</ele><time>2026-04-12T12:05:04.988Z</time></trkpt><trkpt lat="44.6480765" lon="7.6556351"><ele>316.2</ele><time>2026-04-12T12:05:06.988Z</time></trkpt><trkpt lat="44.6480803" lon="7.6554949"><ele>316.40000000000003</ele><time>2026-04-12T12:05:08.988Z</time></trkpt><trkpt lat="44.6480952" lon="7.6553623"><ele>316.6</ele><time>2026-04-12T12:05:10.988Z</time></trkpt><trkpt lat="44.6481036" lon="7.6552206"><ele>316.8</ele><time>2026-04-12T12:05:12.988Z</time></trkpt><trkpt lat="44.6481083" lon="7.6550894"><ele>317.0</ele><time>2026-04-12T12:05:14.988Z</time></trkpt><trkpt lat="44.6481202" lon="7.6549683"><ele>316.6</ele><time>2026-04-12T12:05:16.988Z</time></trkpt><trkpt lat="44.648124" lon="7.6548333"><ele>316.2</ele><time>2026-04-12T12:05:18.988Z</time></trkpt><trkpt lat="44.6481308" lon="7.6546954"><ele>315.8</ele><time>2026-04-12T12:05:20.988Z</time></trkpt><trkpt lat="44.6481396" lon="7.6545517"><ele>315.4</ele><time>2026-04-12T12:05:22.988Z</time></trkpt><trkpt lat="44.6481498" lon="7.6544049"><ele>315.0</ele><time>2026-04-12T12:05:24.988Z</time></trkpt><trkpt lat="44.6481533" lon="7.6542596"><ele>315.0</ele><time>2026-04-12T12:05:26.988Z</time></trkpt><trkpt lat="44.6481641" lon="7.6541144"><ele>315.0</ele><time>2026-04-12T12:05:28.988Z</time></trkpt><trkpt lat="44.648173" lon="7.6539743"><ele>315.0</ele><time>2026-04-12T12:05:30.988Z</time></trkpt><trkpt lat="44.6481712" lon="7.6538352"><ele>315.0</ele><time>2026-04-12T12:05:32.988Z</time></trkpt><trkpt lat="44.6481642" lon="7.6537014"><ele>315.0</ele><time>2026-04-12T12:05:34.988Z</time></trkpt><trkpt lat="44.6481736" lon="7.6535887"><ele>315.0</ele><time>2026-04-12T12:05:36.988Z</time></trkpt><trkpt lat="44.6481781" lon="7.6534741"><ele>315.0</ele><time>2026-04-12T12:05:38.988Z</time></trkpt><trkpt lat="44.6481718" lon="7.6533471"><ele>315.0</ele><time>2026-04-12T12:05:40.988Z</time></trkpt><trkpt lat="44.6481674" lon="7.6532113"><ele>315.0</ele><time>2026-04-12T12:05:42.988Z</time></trkpt><trkpt lat="44.6481686" lon="7.6530902"><ele>315.0</ele><time>2026-04-12T12:05:44.988Z</time></trkpt><trkpt lat="44.6481709" lon="7.6529609"><ele>315.0</ele><time>2026-04-12T12:05:46.988Z</time></trkpt><trkpt lat="44.6481766" lon="7.6528328"><ele>315.1666666666667</ele><time>2026-04-12T12:05:48.988Z</time></trkpt><trkpt lat="44.6481832" lon="7.6527034"><ele>315.3333333333333</ele><time>2026-04-12T12:05:50.988Z</time></trkpt><trkpt lat="44.6481833" lon="7.6525868"><ele>315.5</ele><time>2026-04-12T12:05:52.988Z</time></trkpt><trkpt lat="44.6481854" lon="7.6524656"><ele>315.66666666666663</ele><time>2026-04-12T12:05:54.988Z</time></trkpt><trkpt lat="44.6481879" lon="7.6523512"><ele>315.8333333333333</ele><time>2026-04-12T12:05:56.988Z</time></trkpt><trkpt lat="44.6481914" lon="7.6522329"><ele>316.0</ele><time>2026-04-12T12:05:58.988Z</time></trkpt><trkpt lat="44.6481953" lon="7.6521079"><ele>316.0</ele><time>2026-04-12T12:06:00.988Z</time></trkpt><trkpt lat="44.6481972" lon="7.651987"><ele>316.0</ele><time>2026-04-12T12:06:02.988Z</time></trkpt><trkpt lat="44.6481988" lon="7.6518695"><ele>316.0</ele><time>2026-04-12T12:06:04.988Z</time></trkpt><trkpt lat="44.6482133" lon="7.6517567"><ele>316.0</ele><time>2026-04-12T12:06:06.988Z</time></trkpt><trkpt lat="44.6482294" lon="7.6516458"><ele>316.0</ele><time>2026-04-12T12:06:08.988Z</time></trkpt><trkpt lat="44.6482399" lon="7.6515253"><ele>316.0</ele><time>2026-04-12T12:06:10.988Z</time></trkpt><trkpt lat="44.648237" lon="7.6513958"><ele>316.0</ele><time>2026-04-12T12:06:12.988Z</time></trkpt><trkpt lat="44.6482338" lon="7.6512687"><ele>316.0</ele><time>2026-04-12T12:06:14.988Z</time></trkpt><trkpt lat="44.6482354" lon="7.6511514"><ele>316.0</ele><time>2026-04-12T12:06:16.988Z</time></trkpt><trkpt lat="44.6482401" lon="7.651039"><ele>316.0</ele><time>2026-04-12T12:06:18.988Z</time></trkpt><trkpt lat="44.6482572" lon="7.6509389"><ele>316.0</ele><time>2026-04-12T12:06:20.988Z</time></trkpt><trkpt lat="44.6482881" lon="7.6508437"><ele>316.0</ele><time>2026-04-12T12:06:22.988Z</time></trkpt><trkpt lat="44.6483122" lon="7.6507312"><ele>316.2</ele><time>2026-04-12T12:06:24.988Z</time></trkpt><trkpt lat="44.648308" lon="7.6506033"><ele>316.40000000000003</ele><time>2026-04-12T12:06:26.988Z</time></trkpt><trkpt lat="44.6482941" lon="7.6504685"><ele>316.6</ele><time>2026-04-12T12:06:28.988Z</time></trkpt><trkpt lat="44.6482897" lon="7.6503371"><ele>316.8</ele><time>2026-04-12T12:06:30.988Z</time></trkpt><trkpt lat="44.6482937" lon="7.6502056"><ele>317.0</ele><time>2026-04-12T12:06:32.988Z</time></trkpt><trkpt lat="44.6482974" lon="7.6500783"><ele>316.1666666666667</ele><time>2026-04-12T12:06:34.988Z</time></trkpt><trkpt lat="44.6482988" lon="7.6499569"><ele>315.33333333333337</ele><time>2026-04-12T12:06:36.988Z</time></trkpt><trkpt lat="44.6482992" lon="7.6498279"><ele>314.5</ele><time>2026-04-12T12:06:38.988Z</time></trkpt><trkpt lat="44.6482979" lon="7.6497063"><ele>313.6666666666667</ele><time>2026-04-12T12:06:40.988Z</time></trkpt><trkpt lat="44.6483644" lon="7.6496339"><ele>312.8333333333333</ele><time>2026-04-12T12:06:42.988Z</time></trkpt><trkpt lat="44.6484627" lon="7.6496327"><ele>312.0</ele><time>2026-04-12T12:06:44.988Z</time></trkpt><trkpt lat="44.6485618" lon="7.6496886"><ele>312.0</ele><time>2026-04-12T12:06:46.988Z</time></trkpt><trkpt lat="44.6486639" lon="7.6497616"><ele>312.0</ele><time>2026-04-12T12:06:48.988Z</time></trkpt><trkpt lat="44.6487702" lon="7.6498373"><ele>312.0</ele><time>2026-04-12T12:06:50.988Z</time></trkpt><trkpt lat="44.6488792" lon="7.6499226"><ele>312.0</ele><time>2026-04-12T12:06:52.988Z</time></trkpt><trkpt lat="44.6489344" lon="7.649972"><ele>312.0</ele><time>2026-04-12T12:06:53.988Z</time></trkpt><trkpt lat="44.6489922" lon="7.650019"><ele>312.0</ele><time>2026-04-12T12:06:54.988Z</time></trkpt><trkpt lat="44.6490496" lon="7.6500623"><ele>312.0</ele><time>2026-04-12T12:06:55.988Z</time></trkpt><trkpt lat="44.6491069" lon="7.6501075"><ele>312.0</ele><time>2026-04-12T12:06:56.988Z</time></trkpt><trkpt lat="44.6491646" lon="7.6501512"><ele>312.0</ele><time>2026-04-12T12:06:57.988Z</time></trkpt><trkpt lat="44.6492749" lon="7.6502328"><ele>312.0</ele><time>2026-04-12T12:06:59.988Z</time></trkpt><trkpt lat="44.6493815" lon="7.6503249"><ele>312.0</ele><time>2026-04-12T12:07:01.988Z</time></trkpt><trkpt lat="44.6494377" lon="7.6503688"><ele>312.0</ele><time>2026-04-12T12:07:02.988Z</time></trkpt><trkpt lat="44.6494946" lon="7.6504115"><ele>312.0</ele><time>2026-04-12T12:07:03.988Z</time></trkpt><trkpt lat="44.6495512" lon="7.6504538"><ele>312.0</ele><time>2026-04-12T12:07:04.988Z</time></trkpt><trkpt lat="44.6496074" lon="7.6504977"><ele>312.0</ele><time>2026-04-12T12:07:05.988Z</time></trkpt><trkpt lat="44.6496641" lon="7.6505409"><ele>312.0</ele><time>2026-04-12T12:07:06.988Z</time></trkpt><trkpt lat="44.6497204" lon="7.6505838"><ele>312.0</ele><time>2026-04-12T12:07:07.988Z</time></trkpt><trkpt lat="44.6497755" lon="7.6506275"><ele>312.0</ele><time>2026-04-12T12:07:08.988Z</time></trkpt><trkpt lat="44.6498309" lon="7.6506707"><ele>312.0</ele><time>2026-04-12T12:07:09.988Z</time></trkpt><trkpt lat="44.6498866" lon="7.6507126"><ele>312.0</ele><time>2026-04-12T12:07:10.988Z</time></trkpt><trkpt lat="44.6499971" lon="7.6507929"><ele>312.0</ele><time>2026-04-12T12:07:12.988Z</time></trkpt><trkpt lat="44.6501099" lon="7.6508586"><ele>312.0</ele><time>2026-04-12T12:07:14.988Z</time></trkpt><trkpt lat="44.6502222" lon="7.6509201"><ele>312.0</ele><time>2026-04-12T12:07:16.988Z</time></trkpt><trkpt lat="44.6503375" lon="7.6509649"><ele>312.0</ele><time>2026-04-12T12:07:18.988Z</time></trkpt><trkpt lat="44.6504506" lon="7.651008"><ele>312.0</ele><time>2026-04-12T12:07:20.988Z</time></trkpt><trkpt lat="44.6505613" lon="7.6510553"><ele>312.0</ele><time>2026-04-12T12:07:22.988Z</time></trkpt><trkpt lat="44.6506704" lon="7.6511037"><ele>312.0</ele><time>2026-04-12T12:07:24.988Z</time></trkpt><trkpt lat="44.6507738" lon="7.6511492"><ele>311.8</ele><time>2026-04-12T12:07:26.988Z</time></trkpt><trkpt lat="44.6508776" lon="7.651184"><ele>311.6</ele><time>2026-04-12T12:07:28.988Z</time></trkpt><trkpt lat="44.6509811" lon="7.6512231"><ele>311.40000000000003</ele><time>2026-04-12T12:07:30.988Z</time></trkpt><trkpt lat="44.6510765" lon="7.6512619"><ele>311.2</ele><time>2026-04-12T12:07:32.988Z</time></trkpt><trkpt lat="44.6511351" lon="7.6513585"><ele>311.0</ele><time>2026-04-12T12:07:34.988Z</time></trkpt><trkpt lat="44.6511244" lon="7.6514672"><ele>310.83333333333337</ele><time>2026-04-12T12:07:36.988Z</time></trkpt><trkpt lat="44.65109" lon="7.651563"><ele>310.6666666666667</ele><time>2026-04-12T12:07:38.988Z</time></trkpt><trkpt lat="44.6510519" lon="7.6516458"><ele>310.5</ele><time>2026-04-12T12:07:40.988Z</time></trkpt><trkpt lat="44.6510218" lon="7.6517389"><ele>310.3333333333333</ele><time>2026-04-12T12:07:42.988Z</time></trkpt><trkpt lat="44.6510316" lon="7.6518289"><ele>310.16666666666663</ele><time>2026-04-12T12:07:44.988Z</time></trkpt><trkpt lat="44.6510762" lon="7.6519171"><ele>310.0</ele><time>2026-04-12T12:07:46.988Z</time></trkpt><trkpt lat="44.6511675" lon="7.6519734"><ele>310.0</ele><time>2026-04-12T12:07:48.988Z</time></trkpt><trkpt lat="44.6512644" lon="7.6520586"><ele>310.0</ele><time>2026-04-12T12:07:50.988Z</time></trkpt><trkpt lat="44.6513712" lon="7.6521319"><ele>310.0</ele><time>2026-04-12T12:07:52.988Z</time></trkpt><trkpt lat="44.6514658" lon="7.6522012"><ele>310.0</ele><time>2026-04-12T12:07:54.988Z</time></trkpt><trkpt lat="44.6515654" lon="7.6522676"><ele>310.0</ele><time>2026-04-12T12:07:56.988Z</time></trkpt><trkpt lat="44.6516583" lon="7.6523333"><ele>310.0</ele><time>2026-04-12T12:07:58.988Z</time></trkpt><trkpt lat="44.6517482" lon="7.6523945"><ele>310.0</ele><time>2026-04-12T12:08:00.988Z</time></trkpt><trkpt lat="44.6518418" lon="7.6524418"><ele>310.0</ele><time>2026-04-12T12:08:02.988Z</time></trkpt><trkpt lat="44.6519429" lon="7.6524901"><ele>310.0</ele><time>2026-04-12T12:08:04.988Z</time></trkpt><trkpt lat="44.6520478" lon="7.6525263"><ele>310.4</ele><time>2026-04-12T12:08:06.988Z</time></trkpt><trkpt lat="44.6521592" lon="7.6525537"><ele>310.8</ele><time>2026-04-12T12:08:08.988Z</time></trkpt><trkpt lat="44.6522764" lon="7.6525669"><ele>311.2</ele><time>2026-04-12T12:08:10.988Z</time></trkpt><trkpt lat="44.6523886" lon="7.6525704"><ele>311.6</ele><time>2026-04-12T12:08:12.988Z</time></trkpt><trkpt lat="44.6524894" lon="7.6525776"><ele>312.0</ele><time>2026-04-12T12:08:14.988Z</time></trkpt><trkpt lat="44.6525919" lon="7.6525774"><ele>312.0</ele><time>2026-04-12T12:08:16.988Z</time></trkpt><trkpt lat="44.6526894" lon="7.6525684"><ele>312.0</ele><time>2026-04-12T12:08:18.988Z</time></trkpt><trkpt lat="44.6527896" lon="7.65256"><ele>312.0</ele><time>2026-04-12T12:08:20.988Z</time></trkpt><trkpt lat="44.6528934" lon="7.6525697"><ele>312.0</ele><time>2026-04-12T12:08:22.988Z</time></trkpt><trkpt lat="44.6530043" lon="7.6525667"><ele>312.0</ele><time>2026-04-12T12:08:24.988Z</time></trkpt><trkpt lat="44.6531125" lon="7.6525567"><ele>311.8</ele><time>2026-04-12T12:08:26.988Z</time></trkpt><trkpt lat="44.653225" lon="7.6525453"><ele>311.6</ele><time>2026-04-12T12:08:28.988Z</time></trkpt><trkpt lat="44.6533334" lon="7.6525284"><ele>311.40000000000003</ele><time>2026-04-12T12:08:30.988Z</time></trkpt><trkpt lat="44.653443" lon="7.6525076"><ele>311.2</ele><time>2026-04-12T12:08:32.988Z</time></trkpt><trkpt lat="44.6535545" lon="7.6524791"><ele>311.0</ele><time>2026-04-12T12:08:34.988Z</time></trkpt><trkpt lat="44.653661" lon="7.6524588"><ele>310.6</ele><time>2026-04-12T12:08:36.988Z</time></trkpt><trkpt lat="44.6537708" lon="7.6524326"><ele>310.20000000000005</ele><time>2026-04-12T12:08:38.988Z</time></trkpt><trkpt lat="44.653877" lon="7.6523908"><ele>309.79999999999995</ele><time>2026-04-12T12:08:40.988Z</time></trkpt><trkpt lat="44.6539786" lon="7.6523562"><ele>309.4</ele><time>2026-04-12T12:08:42.988Z</time></trkpt><trkpt lat="44.6540952" lon="7.6523112"><ele>309.0</ele><time>2026-04-12T12:08:44.989Z</time></trkpt><trkpt lat="44.6542021" lon="7.652283"><ele>309.0</ele><time>2026-04-12T12:08:46.988Z</time></trkpt><trkpt lat="44.6543129" lon="7.6522486"><ele>309.0</ele><time>2026-04-12T12:08:48.988Z</time></trkpt><trkpt lat="44.6543751" lon="7.652224"><ele>309.0</ele><time>2026-04-12T12:08:49.988Z</time></trkpt><trkpt lat="44.654483" lon="7.6521814"><ele>309.0</ele><time>2026-04-12T12:08:51.988Z</time></trkpt><trkpt lat="44.654584" lon="7.6521452"><ele>309.0</ele><time>2026-04-12T12:08:53.988Z</time></trkpt><trkpt lat="44.6546947" lon="7.6520962"><ele>308.8</ele><time>2026-04-12T12:08:55.988Z</time></trkpt><trkpt lat="44.6547848" lon="7.6520516"><ele>308.59999999999997</ele><time>2026-04-12T12:08:57.988Z</time></trkpt><trkpt lat="44.6548834" lon="7.6519976"><ele>308.4</ele><time>2026-04-12T12:08:59.988Z</time></trkpt><trkpt lat="44.6549941" lon="7.6519493"><ele>308.2</ele><time>2026-04-12T12:09:01.988Z</time></trkpt><trkpt lat="44.6550987" lon="7.651898"><ele>308.0</ele><time>2026-04-12T12:09:03.988Z</time></trkpt><trkpt lat="44.6552002" lon="7.6518471"><ele>308.0</ele><time>2026-04-12T12:09:05.988Z</time></trkpt><trkpt lat="44.6553104" lon="7.6517959"><ele>308.0</ele><time>2026-04-12T12:09:07.988Z</time></trkpt><trkpt lat="44.6554203" lon="7.6517488"><ele>308.0</ele><time>2026-04-12T12:09:09.988Z</time></trkpt><trkpt lat="44.6555149" lon="7.6517038"><ele>308.0</ele><time>2026-04-12T12:09:11.988Z</time></trkpt><trkpt lat="44.6556207" lon="7.6516481"><ele>308.0</ele><time>2026-04-12T12:09:13.988Z</time></trkpt><trkpt lat="44.6557189" lon="7.6515984"><ele>308.0</ele><time>2026-04-12T12:09:15.988Z</time></trkpt><trkpt lat="44.6558295" lon="7.6515568"><ele>308.0</ele><time>2026-04-12T12:09:17.988Z</time></trkpt><trkpt lat="44.6559282" lon="7.6514882"><ele>308.0</ele><time>2026-04-12T12:09:19.988Z</time></trkpt><trkpt lat="44.6560325" lon="7.6514257"><ele>308.0</ele><time>2026-04-12T12:09:21.988Z</time></trkpt><trkpt lat="44.6561397" lon="7.6513764"><ele>307.6</ele><time>2026-04-12T12:09:23.988Z</time></trkpt><trkpt lat="44.6562422" lon="7.6513175"><ele>307.20000000000005</ele><time>2026-04-12T12:09:25.988Z</time></trkpt><trkpt lat="44.6563408" lon="7.6512662"><ele>306.8</ele><time>2026-04-12T12:09:27.988Z</time></trkpt><trkpt lat="44.6564457" lon="7.6512117"><ele>306.40000000000003</ele><time>2026-04-12T12:09:29.988Z</time></trkpt><trkpt lat="44.6565498" lon="7.6511567"><ele>306.0</ele><time>2026-04-12T12:09:31.988Z</time></trkpt><trkpt lat="44.6566604" lon="7.651102"><ele>306.0</ele><time>2026-04-12T12:09:33.988Z</time></trkpt><trkpt lat="44.6567636" lon="7.6510518"><ele>306.0</ele><time>2026-04-12T12:09:35.988Z</time></trkpt><trkpt lat="44.656867" lon="7.6509963"><ele>306.0</ele><time>2026-04-12T12:09:37.988Z</time></trkpt><trkpt lat="44.6569669" lon="7.6509457"><ele>306.0</ele><time>2026-04-12T12:09:39.988Z</time></trkpt><trkpt lat="44.6570655" lon="7.650895"><ele>306.0</ele><time>2026-04-12T12:09:41.988Z</time></trkpt><trkpt lat="44.6571658" lon="7.6508363"><ele>306.0</ele><time>2026-04-12T12:09:43.988Z</time></trkpt><trkpt lat="44.6572677" lon="7.6507727"><ele>306.0</ele><time>2026-04-12T12:09:45.988Z</time></trkpt><trkpt lat="44.657372" lon="7.650717"><ele>306.0</ele><time>2026-04-12T12:09:47.988Z</time></trkpt><trkpt lat="44.6574782" lon="7.6506647"><ele>306.0</ele><time>2026-04-12T12:09:49.988Z</time></trkpt><trkpt lat="44.657587" lon="7.6506151"><ele>306.0</ele><time>2026-04-12T12:09:51.988Z</time></trkpt><trkpt lat="44.6576997" lon="7.6505828"><ele>306.0</ele><time>2026-04-12T12:09:53.988Z</time></trkpt><trkpt lat="44.6578193" lon="7.6505515"><ele>306.0</ele><time>2026-04-12T12:09:55.988Z</time></trkpt><trkpt lat="44.6579412" lon="7.6505316"><ele>306.0</ele><time>2026-04-12T12:09:57.988Z</time></trkpt><trkpt lat="44.658055" lon="7.6505148"><ele>306.0</ele><time>2026-04-12T12:09:59.988Z</time></trkpt><trkpt lat="44.6581679" lon="7.6505068"><ele>306.0</ele><time>2026-04-12T12:10:01.988Z</time></trkpt><trkpt lat="44.6582854" lon="7.6504996"><ele>306.0</ele><time>2026-04-12T12:10:03.988Z</time></trkpt><trkpt lat="44.6584059" lon="7.6504924"><ele>306.0</ele><time>2026-04-12T12:10:05.988Z</time></trkpt><trkpt lat="44.6585225" lon="7.650507"><ele>305.40000000000003</ele><time>2026-04-12T12:10:07.988Z</time></trkpt><trkpt lat="44.6586309" lon="7.6505365"><ele>304.8</ele><time>2026-04-12T12:10:09.988Z</time></trkpt><trkpt lat="44.6587344" lon="7.6505744"><ele>304.20000000000005</ele><time>2026-04-12T12:10:11.988Z</time></trkpt><trkpt lat="44.658836" lon="7.65061"><ele>303.6</ele><time>2026-04-12T12:10:13.988Z</time></trkpt><trkpt lat="44.6589414" lon="7.6506646"><ele>303.0</ele><time>2026-04-12T12:10:15.988Z</time></trkpt><trkpt lat="44.659047" lon="7.6507247"><ele>303.0</ele><time>2026-04-12T12:10:17.988Z</time></trkpt><trkpt lat="44.6591542" lon="7.6507938"><ele>303.0</ele><time>2026-04-12T12:10:19.988Z</time></trkpt><trkpt lat="44.6592569" lon="7.6508592"><ele>303.0</ele><time>2026-04-12T12:10:21.988Z</time></trkpt><trkpt lat="44.659358" lon="7.6509472"><ele>303.0</ele><time>2026-04-12T12:10:23.988Z</time></trkpt><trkpt lat="44.6594598" lon="7.6510585"><ele>303.5</ele><time>2026-04-12T12:10:25.988Z</time></trkpt><trkpt lat="44.6595544" lon="7.6511605"><ele>304.0</ele><time>2026-04-12T12:10:27.988Z</time></trkpt><trkpt lat="44.6596406" lon="7.6512699"><ele>304.5</ele><time>2026-04-12T12:10:29.988Z</time></trkpt><trkpt lat="44.6597118" lon="7.6513918"><ele>305.0</ele><time>2026-04-12T12:10:31.988Z</time></trkpt><trkpt lat="44.6597921" lon="7.65152"><ele>305.0</ele><time>2026-04-12T12:10:33.988Z</time></trkpt><trkpt lat="44.6598594" lon="7.651642"><ele>305.0</ele><time>2026-04-12T12:10:35.988Z</time></trkpt><trkpt lat="44.6599231" lon="7.6517555"><ele>305.0</ele><time>2026-04-12T12:10:37.988Z</time></trkpt><trkpt lat="44.6599826" lon="7.6518581"><ele>305.0</ele><time>2026-04-12T12:10:39.988Z</time></trkpt><trkpt lat="44.6600215" lon="7.6519755"><ele>305.0</ele><time>2026-04-12T12:10:41.988Z</time></trkpt><trkpt lat="44.6600838" lon="7.6520876"><ele>305.0</ele><time>2026-04-12T12:10:43.988Z</time></trkpt><trkpt lat="44.6601484" lon="7.6522076"><ele>305.0</ele><time>2026-04-12T12:10:45.988Z</time></trkpt><trkpt lat="44.6602081" lon="7.6523254"><ele>305.0</ele><time>2026-04-12T12:10:47.988Z</time></trkpt><trkpt lat="44.6602607" lon="7.6524523"><ele>305.0</ele><time>2026-04-12T12:10:49.988Z</time></trkpt><trkpt lat="44.6603113" lon="7.6525808"><ele>305.0</ele><time>2026-04-12T12:10:51.988Z</time></trkpt><trkpt lat="44.6603668" lon="7.6527198"><ele>305.6</ele><time>2026-04-12T12:10:53.988Z</time></trkpt><trkpt lat="44.6604262" lon="7.6528442"><ele>306.2</ele><time>2026-04-12T12:10:55.988Z</time></trkpt><trkpt lat="44.6604758" lon="7.6529707"><ele>306.8</ele><time>2026-04-12T12:10:57.988Z</time></trkpt><trkpt lat="44.6604903" lon="7.6531288"><ele>307.4</ele><time>2026-04-12T12:10:59.988Z</time></trkpt><trkpt lat="44.6605181" lon="7.6532577"><ele>308.0</ele><time>2026-04-12T12:11:01.988Z</time></trkpt><trkpt lat="44.6605713" lon="7.6534043"><ele>308.0</ele><time>2026-04-12T12:11:03.988Z</time></trkpt><trkpt lat="44.6606296" lon="7.6535315"><ele>308.0</ele><time>2026-04-12T12:11:05.988Z</time></trkpt><trkpt lat="44.6606869" lon="7.653658"><ele>308.0</ele><time>2026-04-12T12:11:07.988Z</time></trkpt><trkpt lat="44.660759" lon="7.6537735"><ele>308.0</ele><time>2026-04-12T12:11:09.988Z</time></trkpt><trkpt lat="44.6608324" lon="7.6538912"><ele>308.0</ele><time>2026-04-12T12:11:11.988Z</time></trkpt><trkpt lat="44.6608787" lon="7.6540113"><ele>307.8</ele><time>2026-04-12T12:11:13.988Z</time></trkpt><trkpt lat="44.6609102" lon="7.6541374"><ele>307.6</ele><time>2026-04-12T12:11:15.988Z</time></trkpt><trkpt lat="44.6609639" lon="7.6542521"><ele>307.4</ele><time>2026-04-12T12:11:17.988Z</time></trkpt><trkpt lat="44.6610231" lon="7.6543617"><ele>307.2</ele><time>2026-04-12T12:11:19.988Z</time></trkpt><trkpt lat="44.6610742" lon="7.6544853"><ele>307.0</ele><time>2026-04-12T12:11:21.988Z</time></trkpt><trkpt lat="44.6610985" lon="7.6546058"><ele>306.6</ele><time>2026-04-12T12:11:23.988Z</time></trkpt><trkpt lat="44.6611193" lon="7.6547522"><ele>306.2</ele><time>2026-04-12T12:11:25.988Z</time></trkpt><trkpt lat="44.6611499" lon="7.654873"><ele>305.8</ele><time>2026-04-12T12:11:27.988Z</time></trkpt><trkpt lat="44.6612043" lon="7.6549812"><ele>305.4</ele><time>2026-04-12T12:11:29.988Z</time></trkpt><trkpt lat="44.6612444" lon="7.6550856"><ele>305.0</ele><time>2026-04-12T12:11:31.988Z</time></trkpt><trkpt lat="44.6612792" lon="7.6551949"><ele>305.0</ele><time>2026-04-12T12:11:33.988Z</time></trkpt><trkpt lat="44.661312" lon="7.6553178"><ele>305.0</ele><time>2026-04-12T12:11:35.988Z</time></trkpt><trkpt lat="44.6613739" lon="7.655415"><ele>305.0</ele><time>2026-04-12T12:11:37.988Z</time></trkpt><trkpt lat="44.6614465" lon="7.6554701"><ele>305.0</ele><time>2026-04-12T12:11:39.988Z</time></trkpt><trkpt lat="44.6615307" lon="7.6555207"><ele>305.0</ele><time>2026-04-12T12:11:41.988Z</time></trkpt><trkpt lat="44.6616142" lon="7.6555634"><ele>305.0</ele><time>2026-04-12T12:11:43.988Z</time></trkpt><trkpt lat="44.6616945" lon="7.6556255"><ele>305.0</ele><time>2026-04-12T12:11:45.988Z</time></trkpt><trkpt lat="44.6617781" lon="7.6557036"><ele>305.0</ele><time>2026-04-12T12:11:47.988Z</time></trkpt><trkpt lat="44.6618803" lon="7.6557691"><ele>305.0</ele><time>2026-04-12T12:11:49.988Z</time></trkpt><trkpt lat="44.6619765" lon="7.6558026"><ele>305.0</ele><time>2026-04-12T12:11:51.988Z</time></trkpt><trkpt lat="44.6620699" lon="7.6558439"><ele>305.0</ele><time>2026-04-12T12:11:53.988Z</time></trkpt><trkpt lat="44.6621646" lon="7.6558943"><ele>305.0</ele><time>2026-04-12T12:11:55.988Z</time></trkpt><trkpt lat="44.6622666" lon="7.6559089"><ele>305.0</ele><time>2026-04-12T12:11:57.988Z</time></trkpt><trkpt lat="44.6623593" lon="7.6559114"><ele>305.0</ele><time>2026-04-12T12:11:59.988Z</time></trkpt><trkpt lat="44.6624407" lon="7.6559464"><ele>305.0</ele><time>2026-04-12T12:12:01.988Z</time></trkpt><trkpt lat="44.66253" lon="7.6560043"><ele>305.0</ele><time>2026-04-12T12:12:03.988Z</time></trkpt><trkpt lat="44.6626219" lon="7.6560325"><ele>305.0</ele><time>2026-04-12T12:12:05.988Z</time></trkpt><trkpt lat="44.6627067" lon="7.6560185"><ele>305.0</ele><time>2026-04-12T12:12:07.988Z</time></trkpt><trkpt lat="44.6627625" lon="7.6559619"><ele>305.0</ele><time>2026-04-12T12:12:09.988Z</time></trkpt><trkpt lat="44.6628531" lon="7.6559794"><ele>305.0</ele><time>2026-04-12T12:12:12.988Z</time></trkpt><trkpt lat="44.6629212" lon="7.6559875"><ele>305.0</ele><time>2026-04-12T12:12:14.988Z</time></trkpt><trkpt lat="44.6629907" lon="7.6559814"><ele>305.0</ele><time>2026-04-12T12:12:16.988Z</time></trkpt><trkpt lat="44.6630765" lon="7.6559918"><ele>304.83333333333337</ele><time>2026-04-12T12:12:19.988Z</time></trkpt><trkpt lat="44.6631374" lon="7.6560145"><ele>304.6666666666667</ele><time>2026-04-12T12:12:21.988Z</time></trkpt><trkpt lat="44.6632107" lon="7.6560356"><ele>304.5</ele><time>2026-04-12T12:12:23.988Z</time></trkpt><trkpt lat="44.6632758" lon="7.6560727"><ele>304.3333333333333</ele><time>2026-04-12T12:12:25.988Z</time></trkpt><trkpt lat="44.6633529" lon="7.6560971"><ele>304.16666666666663</ele><time>2026-04-12T12:12:27.988Z</time></trkpt><trkpt lat="44.6634378" lon="7.6561005"><ele>304.0</ele><time>2026-04-12T12:12:29.988Z</time></trkpt><trkpt lat="44.6635248" lon="7.6561334"><ele>304.0</ele><time>2026-04-12T12:12:31.988Z</time></trkpt><trkpt lat="44.6635873" lon="7.6561544"><ele>304.0</ele><time>2026-04-12T12:12:33.988Z</time></trkpt><trkpt lat="44.6636682" lon="7.6561793"><ele>304.0</ele><time>2026-04-12T12:12:36.988Z</time></trkpt><trkpt lat="44.6637406" lon="7.656212"><ele>304.0</ele><time>2026-04-12T12:12:39.988Z</time></trkpt><trkpt lat="44.663837" lon="7.6562301"><ele>304.0</ele><time>2026-04-12T12:12:42.988Z</time></trkpt><trkpt lat="44.663912" lon="7.6562507"><ele>304.0</ele><time>2026-04-12T12:12:44.988Z</time></trkpt><trkpt lat="44.6639838" lon="7.6562656"><ele>304.2</ele><time>2026-04-12T12:12:46.988Z</time></trkpt><trkpt lat="44.6640675" lon="7.6563394"><ele>304.4</ele><time>2026-04-12T12:12:49.988Z</time></trkpt><trkpt lat="44.6641408" lon="7.6564019"><ele>304.6</ele><time>2026-04-12T12:12:51.988Z</time></trkpt><trkpt lat="44.6642303" lon="7.6564301"><ele>304.8</ele><time>2026-04-12T12:12:53.988Z</time></trkpt><trkpt lat="44.6643086" lon="7.6564127"><ele>305.0</ele><time>2026-04-12T12:12:55.988Z</time></trkpt><trkpt lat="44.6643992" lon="7.6564492"><ele>304.5</ele><time>2026-04-12T12:12:58.988Z</time></trkpt><trkpt lat="44.6644709" lon="7.6564845"><ele>304.0</ele><time>2026-04-12T12:13:00.988Z</time></trkpt><trkpt lat="44.6645489" lon="7.6565007"><ele>303.5</ele><time>2026-04-12T12:13:02.988Z</time></trkpt><trkpt lat="44.664624" lon="7.6565257"><ele>303.0</ele><time>2026-04-12T12:13:04.988Z</time></trkpt><trkpt lat="44.6647075" lon="7.6565716"><ele>302.5</ele><time>2026-04-12T12:13:06.988Z</time></trkpt><trkpt lat="44.6647908" lon="7.6566642"><ele>302.0</ele><time>2026-04-12T12:13:08.988Z</time></trkpt><trkpt lat="44.664864" lon="7.6567333"><ele>302.0</ele><time>2026-04-12T12:13:10.988Z</time></trkpt><trkpt lat="44.6649399" lon="7.6567932"><ele>302.0</ele><time>2026-04-12T12:13:12.988Z</time></trkpt><trkpt lat="44.6650082" lon="7.6568551"><ele>302.0</ele><time>2026-04-12T12:13:14.988Z</time></trkpt><trkpt lat="44.6650813" lon="7.6569179"><ele>302.0</ele><time>2026-04-12T12:13:16.988Z</time></trkpt><trkpt lat="44.6651511" lon="7.6569765"><ele>302.0</ele><time>2026-04-12T12:13:18.988Z</time></trkpt><trkpt lat="44.6652219" lon="7.6570386"><ele>302.0</ele><time>2026-04-12T12:13:20.988Z</time></trkpt><trkpt lat="44.665289" lon="7.6571002"><ele>301.83333333333337</ele><time>2026-04-12T12:13:22.988Z</time></trkpt><trkpt lat="44.66536" lon="7.657157"><ele>301.6666666666667</ele><time>2026-04-12T12:13:24.988Z</time></trkpt><trkpt lat="44.665428" lon="7.657216"><ele>301.5</ele><time>2026-04-12T12:13:26.988Z</time></trkpt><trkpt lat="44.6655239" lon="7.6572574"><ele>301.3333333333333</ele><time>2026-04-12T12:13:29.988Z</time></trkpt><trkpt lat="44.6655868" lon="7.6573102"><ele>301.16666666666663</ele><time>2026-04-12T12:13:31.988Z</time></trkpt><trkpt lat="44.6656512" lon="7.6573854"><ele>301.0</ele><time>2026-04-12T12:13:33.988Z</time></trkpt><trkpt lat="44.6657142" lon="7.6574402"><ele>301.0</ele><time>2026-04-12T12:13:35.988Z</time></trkpt><trkpt lat="44.6657833" lon="7.6574938"><ele>301.0</ele><time>2026-04-12T12:13:37.988Z</time></trkpt><trkpt lat="44.6658566" lon="7.6575609"><ele>301.0</ele><time>2026-04-12T12:13:39.988Z</time></trkpt><trkpt lat="44.6659271" lon="7.657634"><ele>301.0</ele><time>2026-04-12T12:13:41.988Z</time></trkpt><trkpt lat="44.6659719" lon="7.6577283"><ele>301.0</ele><time>2026-04-12T12:13:43.988Z</time></trkpt><trkpt lat="44.666029" lon="7.657811"><ele>301.0</ele><time>2026-04-12T12:13:45.988Z</time></trkpt><trkpt lat="44.6660947" lon="7.6578815"><ele>301.0</ele><time>2026-04-12T12:13:47.988Z</time></trkpt><trkpt lat="44.6661587" lon="7.6579543"><ele>301.0</ele><time>2026-04-12T12:13:49.988Z</time></trkpt><trkpt lat="44.6662347" lon="7.6580161"><ele>301.0</ele><time>2026-04-12T12:13:51.988Z</time></trkpt><trkpt lat="44.6663201" lon="7.6580395"><ele>301.0</ele><time>2026-04-12T12:13:53.988Z</time></trkpt><trkpt lat="44.6664053" lon="7.65808"><ele>301.0</ele><time>2026-04-12T12:13:55.988Z</time></trkpt><trkpt lat="44.666473" lon="7.6581536"><ele>301.0</ele><time>2026-04-12T12:13:57.988Z</time></trkpt><trkpt lat="44.6665527" lon="7.6582271"><ele>301.0</ele><time>2026-04-12T12:13:59.988Z</time></trkpt><trkpt lat="44.6666314" lon="7.6582967"><ele>301.0</ele><time>2026-04-12T12:14:01.988Z</time></trkpt><trkpt lat="44.6666921" lon="7.65836"><ele>301.0</ele><time>2026-04-12T12:14:03.988Z</time></trkpt><trkpt lat="44.6667498" lon="7.6584372"><ele>301.0</ele><time>2026-04-12T12:14:05.988Z</time></trkpt><trkpt lat="44.6667907" lon="7.658532"><ele>301.0</ele><time>2026-04-12T12:14:07.988Z</time></trkpt><trkpt lat="44.666841" lon="7.6586183"><ele>301.0</ele><time>2026-04-12T12:14:09.988Z</time></trkpt><trkpt lat="44.6668834" lon="7.6587017"><ele>300.6</ele><time>2026-04-12T12:14:11.988Z</time></trkpt><trkpt lat="44.6669425" lon="7.6587902"><ele>300.20000000000005</ele><time>2026-04-12T12:14:13.988Z</time></trkpt><trkpt lat="44.6670032" lon="7.6589001"><ele>299.79999999999995</ele><time>2026-04-12T12:14:15.988Z</time></trkpt><trkpt lat="44.6670578" lon="7.6589966"><ele>299.4</ele><time>2026-04-12T12:14:17.988Z</time></trkpt><trkpt lat="44.6671014" lon="7.6591014"><ele>299.0</ele><time>2026-04-12T12:14:19.988Z</time></trkpt><trkpt lat="44.6671662" lon="7.6591929"><ele>299.0</ele><time>2026-04-12T12:14:21.988Z</time></trkpt><trkpt lat="44.6671821" lon="7.6593004"><ele>299.0</ele><time>2026-04-12T12:14:23.988Z</time></trkpt><trkpt lat="44.6672355" lon="7.6593634"><ele>299.0</ele><time>2026-04-12T12:14:25.988Z</time></trkpt><trkpt lat="44.6672931" lon="7.6594094"><ele>299.0</ele><time>2026-04-12T12:14:27.988Z</time></trkpt><trkpt lat="44.6673571" lon="7.6594695"><ele>299.0</ele><time>2026-04-12T12:14:29.988Z</time></trkpt><trkpt lat="44.6674233" lon="7.6595333"><ele>299.0</ele><time>2026-04-12T12:14:31.988Z</time></trkpt><trkpt lat="44.667501" lon="7.6596049"><ele>299.0</ele><time>2026-04-12T12:14:33.988Z</time></trkpt><trkpt lat="44.6675676" lon="7.6596708"><ele>299.0</ele><time>2026-04-12T12:14:35.988Z</time></trkpt><trkpt lat="44.6676324" lon="7.6597372"><ele>299.0</ele><time>2026-04-12T12:14:37.988Z</time></trkpt><trkpt lat="44.6676863" lon="7.6597961"><ele>299.0</ele><time>2026-04-12T12:14:39.988Z</time></trkpt><trkpt lat="44.6677438" lon="7.6598514"><ele>299.0</ele><time>2026-04-12T12:14:41.988Z</time></trkpt><trkpt lat="44.6677916" lon="7.6599126"><ele>299.0</ele><time>2026-04-12T12:14:43.988Z</time></trkpt><trkpt lat="44.6677863" lon="7.6600343"><ele>299.0</ele><time>2026-04-12T12:14:46.988Z</time></trkpt><trkpt lat="44.6677731" lon="7.6601573"><ele>299.0</ele><time>2026-04-12T12:14:49.988Z</time></trkpt><trkpt lat="44.6678118" lon="7.6602793"><ele>299.0</ele><time>2026-04-12T12:14:52.988Z</time></trkpt><trkpt lat="44.6678413" lon="7.6603808"><ele>299.0</ele><time>2026-04-12T12:14:55.988Z</time></trkpt><trkpt lat="44.6678797" lon="7.6604699"><ele>299.0</ele><time>2026-04-12T12:14:58.988Z</time></trkpt><trkpt lat="44.667951" lon="7.6605163"><ele>299.0</ele><time>2026-04-12T12:15:01.988Z</time></trkpt><trkpt lat="44.6680383" lon="7.6605493"><ele>299.1666666666667</ele><time>2026-04-12T12:15:04.988Z</time></trkpt><trkpt lat="44.6681227" lon="7.6605568"><ele>299.33333333333337</ele><time>2026-04-12T12:15:07.988Z</time></trkpt><trkpt lat="44.6681784" lon="7.6606003"><ele>299.5</ele><time>2026-04-12T12:15:09.988Z</time></trkpt><trkpt lat="44.6682385" lon="7.6606295"><ele>299.6666666666667</ele><time>2026-04-12T12:15:11.988Z</time></trkpt><trkpt lat="44.6683056" lon="7.660646"><ele>299.8333333333333</ele><time>2026-04-12T12:15:13.988Z</time></trkpt><trkpt lat="44.6683887" lon="7.6606914"><ele>300.0</ele><time>2026-04-12T12:15:16.988Z</time></trkpt><trkpt lat="44.6684614" lon="7.6607637"><ele>299.99999999999994</ele><time>2026-04-12T12:15:19.988Z</time></trkpt><trkpt lat="44.6685219" lon="7.6608154"><ele>300.0</ele><time>2026-04-12T12:15:22.988Z</time></trkpt><trkpt lat="44.6685704" lon="7.6608731"><ele>300.0</ele><time>2026-04-12T12:15:37.988Z</time></trkpt><trkpt lat="44.6686259" lon="7.6609311"><ele>300.0</ele><time>2026-04-12T12:15:40.988Z</time></trkpt><trkpt lat="44.6686942" lon="7.6609821"><ele>300.0</ele><time>2026-04-12T12:15:43.988Z</time></trkpt><trkpt lat="44.6687522" lon="7.6610564"><ele>299.99999999999994</ele><time>2026-04-12T12:15:46.988Z</time></trkpt><trkpt lat="44.668829" lon="7.6610899"><ele>300.0</ele><time>2026-04-12T12:15:49.988Z</time></trkpt><trkpt lat="44.6689056" lon="7.6610786"><ele>299.8333333333333</ele><time>2026-04-12T12:15:52.988Z</time></trkpt><trkpt lat="44.6689597" lon="7.6611312"><ele>299.6666666666667</ele><time>2026-04-12T12:15:54.988Z</time></trkpt><trkpt lat="44.6689869" lon="7.661228"><ele>299.5</ele><time>2026-04-12T12:15:56.988Z</time></trkpt><trkpt lat="44.6690002" lon="7.661331"><ele>299.33333333333337</ele><time>2026-04-12T12:15:58.988Z</time></trkpt><trkpt lat="44.6690582" lon="7.6614261"><ele>299.1666666666667</ele><time>2026-04-12T12:16:01.988Z</time></trkpt><trkpt lat="44.6690978" lon="7.6615315"><ele>299.0</ele><time>2026-04-12T12:16:04.988Z</time></trkpt><trkpt lat="44.669108" lon="7.6616477"><ele>299.0</ele><time>2026-04-12T12:16:07.988Z</time></trkpt><trkpt lat="44.6691166" lon="7.6617733"><ele>299.0</ele><time>2026-04-12T12:16:10.988Z</time></trkpt><trkpt lat="44.6691445" lon="7.6618806"><ele>299.0</ele><time>2026-04-12T12:16:13.988Z</time></trkpt><trkpt lat="44.6691928" lon="7.6619761"><ele>299.0</ele><time>2026-04-12T12:16:16.988Z</time></trkpt><trkpt lat="44.6692627" lon="7.6620447"><ele>299.0</ele><time>2026-04-12T12:16:19.988Z</time></trkpt><trkpt lat="44.6693428" lon="7.6620886"><ele>299.0</ele><time>2026-04-12T12:16:22.988Z</time></trkpt><trkpt lat="44.6694327" lon="7.6620874"><ele>298.83333333333337</ele><time>2026-04-12T12:16:25.988Z</time></trkpt><trkpt lat="44.6694949" lon="7.6621088"><ele>298.6666666666667</ele><time>2026-04-12T12:16:27.988Z</time></trkpt><trkpt lat="44.6695788" lon="7.6621511"><ele>298.5</ele><time>2026-04-12T12:16:30.988Z</time></trkpt><trkpt lat="44.6696629" lon="7.6621557"><ele>298.3333333333333</ele><time>2026-04-12T12:16:33.988Z</time></trkpt><trkpt lat="44.6697279" lon="7.6621733"><ele>298.16666666666663</ele><time>2026-04-12T12:16:35.988Z</time></trkpt><trkpt lat="44.66981" lon="7.6621792"><ele>298.0</ele><time>2026-04-12T12:16:38.988Z</time></trkpt><trkpt lat="44.6698727" lon="7.6622171"><ele>298.0</ele><time>2026-04-12T12:16:41.988Z</time></trkpt><trkpt lat="44.6699458" lon="7.6622409"><ele>298.0</ele><time>2026-04-12T12:16:44.988Z</time></trkpt><trkpt lat="44.6700347" lon="7.6622593"><ele>298.0</ele><time>2026-04-12T12:16:47.988Z</time></trkpt><trkpt lat="44.6701239" lon="7.6622796"><ele>298.0</ele><time>2026-04-12T12:16:50.988Z</time></trkpt><trkpt lat="44.6701899" lon="7.662282"><ele>298.0</ele><time>2026-04-12T12:16:52.988Z</time></trkpt><trkpt lat="44.6702558" lon="7.6623"><ele>298.0</ele><time>2026-04-12T12:16:54.988Z</time></trkpt><trkpt lat="44.6703292" lon="7.6623155"><ele>297.8333333333333</ele><time>2026-04-12T12:16:56.988Z</time></trkpt><trkpt lat="44.6704042" lon="7.6623381"><ele>297.66666666666663</ele><time>2026-04-12T12:16:58.988Z</time></trkpt><trkpt lat="44.6704855" lon="7.6623558"><ele>297.5</ele><time>2026-04-12T12:17:01.988Z</time></trkpt><trkpt lat="44.6705641" lon="7.6623773"><ele>297.3333333333333</ele><time>2026-04-12T12:17:04.988Z</time></trkpt><trkpt lat="44.6706481" lon="7.6623716"><ele>297.1666666666667</ele><time>2026-04-12T12:17:07.988Z</time></trkpt><trkpt lat="44.6707267" lon="7.662402"><ele>297.0</ele><time>2026-04-12T12:17:10.988Z</time></trkpt><trkpt lat="44.6707938" lon="7.6624315"><ele>297.0</ele><time>2026-04-12T12:17:12.988Z</time></trkpt><trkpt lat="44.6708727" lon="7.6624433"><ele>297.0</ele><time>2026-04-12T12:17:14.988Z</time></trkpt><trkpt lat="44.6709531" lon="7.6624714"><ele>297.0</ele><time>2026-04-12T12:17:16.988Z</time></trkpt><trkpt lat="44.671024" lon="7.662508"><ele>297.0</ele><time>2026-04-12T12:17:18.988Z</time></trkpt><trkpt lat="44.6710963" lon="7.6625513"><ele>297.0</ele><time>2026-04-12T12:17:20.988Z</time></trkpt><trkpt lat="44.6711692" lon="7.6625884"><ele>297.0</ele><time>2026-04-12T12:17:22.988Z</time></trkpt><trkpt lat="44.6712448" lon="7.6626192"><ele>296.8333333333333</ele><time>2026-04-12T12:17:24.988Z</time></trkpt><trkpt lat="44.6713315" lon="7.6626502"><ele>296.6666666666667</ele><time>2026-04-12T12:17:26.988Z</time></trkpt><trkpt lat="44.6714109" lon="7.6626731"><ele>296.5</ele><time>2026-04-12T12:17:28.988Z</time></trkpt><trkpt lat="44.6714809" lon="7.6627056"><ele>296.33333333333337</ele><time>2026-04-12T12:17:30.988Z</time></trkpt><trkpt lat="44.6715341" lon="7.6627566"><ele>296.1666666666667</ele><time>2026-04-12T12:17:32.988Z</time></trkpt><trkpt lat="44.6715929" lon="7.6628122"><ele>296.0</ele><time>2026-04-12T12:17:35.988Z</time></trkpt><trkpt lat="44.6716577" lon="7.6628597"><ele>296.33333333333337</ele><time>2026-04-12T12:17:37.988Z</time></trkpt><trkpt lat="44.6717232" lon="7.6629123"><ele>296.6666666666667</ele><time>2026-04-12T12:17:39.988Z</time></trkpt><trkpt lat="44.6718028" lon="7.6629732"><ele>297.0</ele><time>2026-04-12T12:17:41.988Z</time></trkpt><trkpt lat="44.6718791" lon="7.6630302"><ele>297.3333333333333</ele><time>2026-04-12T12:17:43.988Z</time></trkpt><trkpt lat="44.6719508" lon="7.6630995"><ele>297.66666666666663</ele><time>2026-04-12T12:17:45.988Z</time></trkpt><trkpt lat="44.6720303" lon="7.6631843"><ele>298.0</ele><time>2026-04-12T12:17:47.988Z</time></trkpt><trkpt lat="44.6721135" lon="7.6632661"><ele>298.0</ele><time>2026-04-12T12:17:49.988Z</time></trkpt><trkpt lat="44.6721902" lon="7.6633494"><ele>298.0</ele><time>2026-04-12T12:17:51.988Z</time></trkpt><trkpt lat="44.6722675" lon="7.6634291"><ele>298.0</ele><time>2026-04-12T12:17:53.988Z</time></trkpt><trkpt lat="44.6723294" lon="7.6634953"><ele>298.0</ele><time>2026-04-12T12:17:55.988Z</time></trkpt><trkpt lat="44.6723922" lon="7.6635563"><ele>298.0</ele><time>2026-04-12T12:17:57.988Z</time></trkpt><trkpt lat="44.6724427" lon="7.663635"><ele>298.0</ele><time>2026-04-12T12:17:59.988Z</time></trkpt><trkpt lat="44.672493" lon="7.6637083"><ele>297.66666666666663</ele><time>2026-04-12T12:18:01.988Z</time></trkpt><trkpt lat="44.6725572" lon="7.6637792"><ele>297.3333333333333</ele><time>2026-04-12T12:18:03.988Z</time></trkpt><trkpt lat="44.672621" lon="7.663865"><ele>297.0</ele><time>2026-04-12T12:18:05.988Z</time></trkpt><trkpt lat="44.6726785" lon="7.6639451"><ele>296.6666666666667</ele><time>2026-04-12T12:18:07.988Z</time></trkpt><trkpt lat="44.6727373" lon="7.6640642"><ele>296.33333333333337</ele><time>2026-04-12T12:18:09.988Z</time></trkpt><trkpt lat="44.6727955" lon="7.6641581"><ele>296.0</ele><time>2026-04-12T12:18:11.988Z</time></trkpt><trkpt lat="44.6728497" lon="7.6642668"><ele>295.83333333333337</ele><time>2026-04-12T12:18:13.988Z</time></trkpt><trkpt lat="44.6728948" lon="7.6643684"><ele>295.6666666666667</ele><time>2026-04-12T12:18:15.988Z</time></trkpt><trkpt lat="44.6729485" lon="7.6644701"><ele>295.5</ele><time>2026-04-12T12:18:17.988Z</time></trkpt><trkpt lat="44.672994" lon="7.6645591"><ele>295.3333333333333</ele><time>2026-04-12T12:18:19.988Z</time></trkpt><trkpt lat="44.6730474" lon="7.6646506"><ele>295.16666666666663</ele><time>2026-04-12T12:18:21.988Z</time></trkpt><trkpt lat="44.6730876" lon="7.6647709"><ele>295.0</ele><time>2026-04-12T12:18:23.988Z</time></trkpt><trkpt lat="44.6731076" lon="7.6648621"><ele>294.8333333333333</ele><time>2026-04-12T12:18:25.988Z</time></trkpt><trkpt lat="44.6731444" lon="7.6649634"><ele>294.66666666666663</ele><time>2026-04-12T12:18:28.988Z</time></trkpt><trkpt lat="44.6731743" lon="7.6650505"><ele>294.5</ele><time>2026-04-12T12:18:30.988Z</time></trkpt><trkpt lat="44.6732133" lon="7.6651477"><ele>294.3333333333333</ele><time>2026-04-12T12:18:32.988Z</time></trkpt><trkpt lat="44.6732522" lon="7.6652682"><ele>294.1666666666667</ele><time>2026-04-12T12:18:34.988Z</time></trkpt><trkpt lat="44.6732967" lon="7.6653743"><ele>294.0</ele><time>2026-04-12T12:18:36.988Z</time></trkpt><trkpt lat="44.673332" lon="7.6654773"><ele>294.5</ele><time>2026-04-12T12:18:38.988Z</time></trkpt><trkpt lat="44.6733716" lon="7.6655761"><ele>295.0</ele><time>2026-04-12T12:18:40.988Z</time></trkpt><trkpt lat="44.6734029" lon="7.6656705"><ele>295.5</ele><time>2026-04-12T12:18:42.988Z</time></trkpt><trkpt lat="44.6734303" lon="7.665773"><ele>296.0</ele><time>2026-04-12T12:18:44.988Z</time></trkpt><trkpt lat="44.6734718" lon="7.6658579"><ele>296.5</ele><time>2026-04-12T12:18:46.988Z</time></trkpt><trkpt lat="44.6734945" lon="7.6659599"><ele>297.0</ele><time>2026-04-12T12:18:48.988Z</time></trkpt><trkpt lat="44.6735221" lon="7.6660782"><ele>297.1666666666667</ele><time>2026-04-12T12:18:50.988Z</time></trkpt><trkpt lat="44.6735485" lon="7.6661993"><ele>297.3333333333333</ele><time>2026-04-12T12:18:52.988Z</time></trkpt><trkpt lat="44.6735733" lon="7.6663214"><ele>297.5</ele><time>2026-04-12T12:18:54.988Z</time></trkpt><trkpt lat="44.673613" lon="7.6664001"><ele>297.66666666666663</ele><time>2026-04-12T12:18:56.988Z</time></trkpt><trkpt lat="44.6736568" lon="7.6664849"><ele>297.8333333333333</ele><time>2026-04-12T12:18:58.988Z</time></trkpt><trkpt lat="44.6736942" lon="7.666574"><ele>298.0</ele><time>2026-04-12T12:19:00.988Z</time></trkpt><trkpt lat="44.6737349" lon="7.6666641"><ele>297.85714285714283</ele><time>2026-04-12T12:19:02.988Z</time></trkpt><trkpt lat="44.673773" lon="7.6667384"><ele>297.71428571428567</ele><time>2026-04-12T12:19:04.988Z</time></trkpt><trkpt lat="44.6738131" lon="7.6668159"><ele>297.57142857142856</ele><time>2026-04-12T12:19:06.988Z</time></trkpt><trkpt lat="44.6738497" lon="7.6668918"><ele>297.42857142857144</ele><time>2026-04-12T12:19:08.988Z</time></trkpt><trkpt lat="44.6739006" lon="7.6669851"><ele>297.28571428571433</ele><time>2026-04-12T12:19:11.988Z</time></trkpt><trkpt lat="44.6739447" lon="7.6670522"><ele>297.14285714285717</ele><time>2026-04-12T12:19:14.988Z</time></trkpt><trkpt lat="44.673999" lon="7.6671292"><ele>297.0</ele><time>2026-04-12T12:19:18.914Z</time></trkpt><trkpt lat="44.6740848" lon="7.6671379"><ele>297.0</ele><time>2026-04-12T12:19:21.988Z</time></trkpt><trkpt lat="44.6741623" lon="7.667179"><ele>297.0</ele><time>2026-04-12T12:19:23.988Z</time></trkpt><trkpt lat="44.6742408" lon="7.6672398"><ele>297.0</ele><time>2026-04-12T12:19:25.988Z</time></trkpt><trkpt lat="44.6743101" lon="7.6673079"><ele>297.0</ele><time>2026-04-12T12:19:27.988Z</time></trkpt><trkpt lat="44.6743737" lon="7.6673623"><ele>297.0</ele><time>2026-04-12T12:19:29.988Z</time></trkpt><trkpt lat="44.6744392" lon="7.66742"><ele>297.0</ele><time>2026-04-12T12:19:31.988Z</time></trkpt><trkpt lat="44.6745038" lon="7.6674841"><ele>296.7142857142857</ele><time>2026-04-12T12:19:33.988Z</time></trkpt><trkpt lat="44.6745703" lon="7.6675382"><ele>296.42857142857144</ele><time>2026-04-12T12:19:35.988Z</time></trkpt><trkpt lat="44.6746442" lon="7.667598"><ele>296.14285714285717</ele><time>2026-04-12T12:19:38.988Z</time></trkpt><trkpt lat="44.674713" lon="7.6675824"><ele>295.8571428571429</ele><time>2026-04-12T12:19:40.988Z</time></trkpt><trkpt lat="44.6747766" lon="7.667569"><ele>295.57142857142856</ele><time>2026-04-12T12:19:42.988Z</time></trkpt><trkpt lat="44.6748443" lon="7.667553"><ele>295.28571428571433</ele><time>2026-04-12T12:19:44.988Z</time></trkpt><trkpt lat="44.6749088" lon="7.6675396"><ele>295.0</ele><time>2026-04-12T12:19:46.988Z</time></trkpt><trkpt lat="44.6749774" lon="7.667513"><ele>295.00000000000006</ele><time>2026-04-12T12:19:48.988Z</time></trkpt><trkpt lat="44.6750474" lon="7.6674988"><ele>295.0</ele><time>2026-04-12T12:19:50.988Z</time></trkpt><trkpt lat="44.6751127" lon="7.6674779"><ele>295.0</ele><time>2026-04-12T12:19:52.988Z</time></trkpt><trkpt lat="44.6751946" lon="7.6674702"><ele>295.0</ele><time>2026-04-12T12:19:55.988Z</time></trkpt><trkpt lat="44.675279" lon="7.6674518"><ele>295.0</ele><time>2026-04-12T12:19:58.988Z</time></trkpt><trkpt lat="44.6753373" lon="7.6675023"><ele>295.00000000000006</ele><time>2026-04-12T12:20:01.988Z</time></trkpt><trkpt lat="44.6753905" lon="7.6675623"><ele>295.0</ele><time>2026-04-12T12:20:04.988Z</time></trkpt><trkpt lat="44.6754742" lon="7.6675465"><ele>294.8333333333333</ele><time>2026-04-12T12:20:07.988Z</time></trkpt><trkpt lat="44.6755448" lon="7.6675566"><ele>294.66666666666663</ele><time>2026-04-12T12:20:10.988Z</time></trkpt><trkpt lat="44.6756096" lon="7.6675958"><ele>294.5</ele><time>2026-04-12T12:20:13.988Z</time></trkpt><trkpt lat="44.6756631" lon="7.667662"><ele>294.3333333333333</ele><time>2026-04-12T12:20:16.988Z</time></trkpt><trkpt lat="44.6757446" lon="7.6676956"><ele>294.1666666666667</ele><time>2026-04-12T12:20:19.988Z</time></trkpt><trkpt lat="44.6758153" lon="7.6677144"><ele>294.0</ele><time>2026-04-12T12:20:21.988Z</time></trkpt><trkpt lat="44.675905" lon="7.6677137"><ele>294.0</ele><time>2026-04-12T12:20:24.988Z</time></trkpt><trkpt lat="44.6759944" lon="7.6676942"><ele>294.0</ele><time>2026-04-12T12:20:27.988Z</time></trkpt><trkpt lat="44.6760825" lon="7.667683"><ele>294.0</ele><time>2026-04-12T12:20:30.988Z</time></trkpt><trkpt lat="44.6761676" lon="7.6676718"><ele>294.0</ele><time>2026-04-12T12:20:33.988Z</time></trkpt><trkpt lat="44.6762409" lon="7.6676518"><ele>294.0</ele><time>2026-04-12T12:20:36.988Z</time></trkpt><trkpt lat="44.6763096" lon="7.6676306"><ele>294.0</ele><time>2026-04-12T12:20:39.988Z</time></trkpt><trkpt lat="44.676384" lon="7.6675867"><ele>294.3333333333333</ele><time>2026-04-12T12:20:42.988Z</time></trkpt><trkpt lat="44.676465" lon="7.6675383"><ele>294.6666666666667</ele><time>2026-04-12T12:20:45.988Z</time></trkpt><trkpt lat="44.6764983" lon="7.6674597"><ele>295.0</ele><time>2026-04-12T12:20:47.988Z</time></trkpt><trkpt lat="44.6765392" lon="7.6673472"><ele>295.33333333333337</ele><time>2026-04-12T12:20:50.988Z</time></trkpt><trkpt lat="44.6765807" lon="7.6672769"><ele>295.6666666666667</ele><time>2026-04-12T12:20:53.988Z</time></trkpt><trkpt lat="44.6766557" lon="7.6672847"><ele>296.0</ele><time>2026-04-12T12:20:57.988Z</time></trkpt><trkpt lat="44.6767215" lon="7.6673653"><ele>296.0</ele><time>2026-04-12T12:21:00.988Z</time></trkpt><trkpt lat="44.6768" lon="7.6674396"><ele>296.0</ele><time>2026-04-12T12:21:03.988Z</time></trkpt><trkpt lat="44.6768559" lon="7.667496"><ele>296.0</ele><time>2026-04-12T12:21:05.988Z</time></trkpt><trkpt lat="44.6769136" lon="7.6675543"><ele>296.0</ele><time>2026-04-12T12:21:07.988Z</time></trkpt><trkpt lat="44.6769708" lon="7.6676243"><ele>296.0</ele><time>2026-04-12T12:21:09.988Z</time></trkpt><trkpt lat="44.6770304" lon="7.6676904"><ele>296.0</ele><time>2026-04-12T12:21:11.988Z</time></trkpt><trkpt lat="44.6770849" lon="7.6677667"><ele>295.6666666666667</ele><time>2026-04-12T12:21:13.988Z</time></trkpt><trkpt lat="44.6771377" lon="7.6678384"><ele>295.33333333333337</ele><time>2026-04-12T12:21:15.988Z</time></trkpt><trkpt lat="44.6771955" lon="7.6679141"><ele>295.0</ele><time>2026-04-12T12:21:17.988Z</time></trkpt><trkpt lat="44.6772598" lon="7.6679932"><ele>294.6666666666667</ele><time>2026-04-12T12:21:19.988Z</time></trkpt><trkpt lat="44.6773316" lon="7.6680758"><ele>294.3333333333333</ele><time>2026-04-12T12:21:21.988Z</time></trkpt><trkpt lat="44.6773997" lon="7.6681606"><ele>294.0</ele><time>2026-04-12T12:21:23.988Z</time></trkpt><trkpt lat="44.6774752" lon="7.668239"><ele>294.0</ele><time>2026-04-12T12:21:25.988Z</time></trkpt><trkpt lat="44.6775537" lon="7.6683174"><ele>294.0</ele><time>2026-04-12T12:21:27.988Z</time></trkpt><trkpt lat="44.6776378" lon="7.6683883"><ele>294.0</ele><time>2026-04-12T12:21:29.988Z</time></trkpt><trkpt lat="44.6777236" lon="7.6684567"><ele>294.0</ele><time>2026-04-12T12:21:31.988Z</time></trkpt><trkpt lat="44.6778159" lon="7.6685073"><ele>294.0</ele><time>2026-04-12T12:21:33.988Z</time></trkpt><trkpt lat="44.677911" lon="7.6685464"><ele>294.0</ele><time>2026-04-12T12:21:35.988Z</time></trkpt><trkpt lat="44.6780009" lon="7.6685792"><ele>294.0</ele><time>2026-04-12T12:21:37.988Z</time></trkpt><trkpt lat="44.6780956" lon="7.6686059"><ele>294.0</ele><time>2026-04-12T12:21:39.988Z</time></trkpt><trkpt lat="44.6781897" lon="7.6686314"><ele>294.0</ele><time>2026-04-12T12:21:41.988Z</time></trkpt><trkpt lat="44.6782846" lon="7.6686564"><ele>294.0</ele><time>2026-04-12T12:21:43.988Z</time></trkpt><trkpt lat="44.6783787" lon="7.6686812"><ele>294.0</ele><time>2026-04-12T12:21:45.988Z</time></trkpt><trkpt lat="44.6784721" lon="7.6687031"><ele>294.0</ele><time>2026-04-12T12:21:47.988Z</time></trkpt><trkpt lat="44.6785589" lon="7.6687269"><ele>294.0</ele><time>2026-04-12T12:21:49.989Z</time></trkpt><trkpt lat="44.6786397" lon="7.6687534"><ele>294.0</ele><time>2026-04-12T12:21:51.988Z</time></trkpt><trkpt lat="44.6787123" lon="7.668789"><ele>294.0</ele><time>2026-04-12T12:21:53.988Z</time></trkpt><trkpt lat="44.6787809" lon="7.6688337"><ele>294.0</ele><time>2026-04-12T12:21:55.988Z</time></trkpt><trkpt lat="44.6788581" lon="7.6689056"><ele>294.0</ele><time>2026-04-12T12:21:57.988Z</time></trkpt><trkpt lat="44.6789323" lon="7.6689582"><ele>294.0</ele><time>2026-04-12T12:21:59.988Z</time></trkpt><trkpt lat="44.6790016" lon="7.6690062"><ele>294.0</ele><time>2026-04-12T12:22:01.988Z</time></trkpt><trkpt lat="44.6790602" lon="7.6690831"><ele>294.0</ele><time>2026-04-12T12:22:03.988Z</time></trkpt><trkpt lat="44.6790906" lon="7.6691832"><ele>294.0</ele><time>2026-04-12T12:22:05.988Z</time></trkpt><trkpt lat="44.6790836" lon="7.6693004"><ele>294.0</ele><time>2026-04-12T12:22:07.988Z</time></trkpt><trkpt lat="44.6790849" lon="7.6694165"><ele>294.0</ele><time>2026-04-12T12:22:09.988Z</time></trkpt><trkpt lat="44.6791141" lon="7.6695263"><ele>294.0</ele><time>2026-04-12T12:22:11.988Z</time></trkpt><trkpt lat="44.6791676" lon="7.6696172"><ele>294.0</ele><time>2026-04-12T12:22:13.988Z</time></trkpt><trkpt lat="44.6792361" lon="7.669684"><ele>294.0</ele><time>2026-04-12T12:22:15.988Z</time></trkpt><trkpt lat="44.6793136" lon="7.6697401"><ele>294.0</ele><time>2026-04-12T12:22:17.988Z</time></trkpt><trkpt lat="44.6793784" lon="7.6698133"><ele>294.0</ele><time>2026-04-12T12:22:19.988Z</time></trkpt><trkpt lat="44.67943" lon="7.6699079"><ele>293.8333333333333</ele><time>2026-04-12T12:22:21.988Z</time></trkpt><trkpt lat="44.6794807" lon="7.6700043"><ele>293.6666666666667</ele><time>2026-04-12T12:22:23.988Z</time></trkpt><trkpt lat="44.6795408" lon="7.670093"><ele>293.5</ele><time>2026-04-12T12:22:25.988Z</time></trkpt><trkpt lat="44.6796139" lon="7.670164"><ele>293.33333333333337</ele><time>2026-04-12T12:22:27.988Z</time></trkpt><trkpt lat="44.6797001" lon="7.670218"><ele>293.1666666666667</ele><time>2026-04-12T12:22:29.988Z</time></trkpt><trkpt lat="44.6797858" lon="7.6702538"><ele>293.0</ele><time>2026-04-12T12:22:31.988Z</time></trkpt><trkpt lat="44.6798752" lon="7.6702775"><ele>293.0</ele><time>2026-04-12T12:22:33.988Z</time></trkpt><trkpt lat="44.6799611" lon="7.6703164"><ele>293.0</ele><time>2026-04-12T12:22:35.988Z</time></trkpt><trkpt lat="44.6800451" lon="7.6703603"><ele>293.0</ele><time>2026-04-12T12:22:37.988Z</time></trkpt><trkpt lat="44.6801307" lon="7.6704054"><ele>293.0</ele><time>2026-04-12T12:22:39.988Z</time></trkpt><trkpt lat="44.6802229" lon="7.670418"><ele>293.0</ele><time>2026-04-12T12:22:41.988Z</time></trkpt><trkpt lat="44.6803104" lon="7.6704367"><ele>293.33333333333337</ele><time>2026-04-12T12:22:43.988Z</time></trkpt><trkpt lat="44.6803977" lon="7.6704664"><ele>293.6666666666667</ele><time>2026-04-12T12:22:45.988Z</time></trkpt><trkpt lat="44.6804808" lon="7.670515"><ele>294.0</ele><time>2026-04-12T12:22:47.988Z</time></trkpt><trkpt lat="44.6805494" lon="7.6705718"><ele>294.3333333333333</ele><time>2026-04-12T12:22:49.988Z</time></trkpt><trkpt lat="44.6806208" lon="7.6706291"><ele>294.66666666666663</ele><time>2026-04-12T12:22:51.988Z</time></trkpt><trkpt lat="44.6807101" lon="7.6706594"><ele>295.0</ele><time>2026-04-12T12:22:53.988Z</time></trkpt><trkpt lat="44.6807891" lon="7.6706716"><ele>295.00000000000006</ele><time>2026-04-12T12:22:55.988Z</time></trkpt><trkpt lat="44.6808648" lon="7.6706684"><ele>295.0</ele><time>2026-04-12T12:22:57.988Z</time></trkpt><trkpt lat="44.6809321" lon="7.6706562"><ele>295.0</ele><time>2026-04-12T12:22:59.988Z</time></trkpt><trkpt lat="44.6809975" lon="7.670663"><ele>295.0</ele><time>2026-04-12T12:23:02.988Z</time></trkpt><trkpt lat="44.6809223" lon="7.6706359"><ele>295.0</ele><time>2026-04-12T12:23:09.988Z</time></trkpt><trkpt lat="44.6808439" lon="7.6706494"><ele>295.00000000000006</ele><time>2026-04-12T12:23:12.988Z</time></trkpt><trkpt lat="44.6808705" lon="7.6707543"><ele>295.0</ele><time>2026-04-12T12:23:19.988Z</time></trkpt><trkpt lat="44.6809478" lon="7.670812"><ele>295.0</ele><time>2026-04-12T12:23:21.988Z</time></trkpt><trkpt lat="44.6810054" lon="7.6708625"><ele>295.0</ele><time>2026-04-12T12:23:23.988Z</time></trkpt><trkpt lat="44.681079" lon="7.6708589"><ele>295.0</ele><time>2026-04-12T12:23:26.988Z</time></trkpt><trkpt lat="44.6811694" lon="7.6708937"><ele>295.0</ele><time>2026-04-12T12:23:29.988Z</time></trkpt><trkpt lat="44.6812365" lon="7.6709277"><ele>295.0</ele><time>2026-04-12T12:23:31.988Z</time></trkpt><trkpt lat="44.6813003" lon="7.6710044"><ele>295.0</ele><time>2026-04-12T12:23:34.988Z</time></trkpt><trkpt lat="44.6813618" lon="7.6710362"><ele>295.0</ele><time>2026-04-12T12:23:36.988Z</time></trkpt><trkpt lat="44.6814463" lon="7.6710356"><ele>295.0</ele><time>2026-04-12T12:23:39.988Z</time></trkpt><trkpt lat="44.6815116" lon="7.671058"><ele>295.0</ele><time>2026-04-12T12:23:41.988Z</time></trkpt><trkpt lat="44.6815793" lon="7.6710849"><ele>295.0</ele><time>2026-04-12T12:23:43.988Z</time></trkpt><trkpt lat="44.6816634" lon="7.6710851"><ele>295.0</ele><time>2026-04-12T12:23:45.988Z</time></trkpt><trkpt lat="44.6817439" lon="7.6710971"><ele>295.0</ele><time>2026-04-12T12:23:47.988Z</time></trkpt><trkpt lat="44.6818189" lon="7.6711272"><ele>295.0</ele><time>2026-04-12T12:23:49.988Z</time></trkpt><trkpt lat="44.6818932" lon="7.6711513"><ele>295.0</ele><time>2026-04-12T12:23:51.988Z</time></trkpt><trkpt lat="44.6819829" lon="7.6711588"><ele>295.0</ele><time>2026-04-12T12:23:53.988Z</time></trkpt><trkpt lat="44.6820727" lon="7.6711731"><ele>295.0</ele><time>2026-04-12T12:23:55.988Z</time></trkpt><trkpt lat="44.6821658" lon="7.6711924"><ele>295.0</ele><time>2026-04-12T12:23:57.988Z</time></trkpt><trkpt lat="44.6822585" lon="7.6711881"><ele>295.0</ele><time>2026-04-12T12:23:59.988Z</time></trkpt><trkpt lat="44.6823537" lon="7.671188"><ele>294.5</ele><time>2026-04-12T12:24:01.988Z</time></trkpt><trkpt lat="44.682423" lon="7.6712253"><ele>294.0</ele><time>2026-04-12T12:24:03.988Z</time></trkpt><trkpt lat="44.682504" lon="7.6712723"><ele>293.5</ele><time>2026-04-12T12:24:05.988Z</time></trkpt><trkpt lat="44.6825833" lon="7.6712924"><ele>293.0</ele><time>2026-04-12T12:24:07.988Z</time></trkpt><trkpt lat="44.6826533" lon="7.6713218"><ele>292.5</ele><time>2026-04-12T12:24:09.988Z</time></trkpt><trkpt lat="44.6827134" lon="7.6713988"><ele>292.0</ele><time>2026-04-12T12:24:11.988Z</time></trkpt><trkpt lat="44.682765" lon="7.6714803"><ele>292.0</ele><time>2026-04-12T12:24:13.988Z</time></trkpt><trkpt lat="44.682834" lon="7.6714919"><ele>292.0</ele><time>2026-04-12T12:24:15.988Z</time></trkpt><trkpt lat="44.6829166" lon="7.671471"><ele>292.0</ele><time>2026-04-12T12:24:17.988Z</time></trkpt><trkpt lat="44.6830051" lon="7.6714919"><ele>292.0</ele><time>2026-04-12T12:24:19.988Z</time></trkpt><trkpt lat="44.6830677" lon="7.6715717"><ele>292.0</ele><time>2026-04-12T12:24:21.988Z</time></trkpt><trkpt lat="44.6831369" lon="7.6715979"><ele>292.0</ele><time>2026-04-12T12:24:23.988Z</time></trkpt><trkpt lat="44.6832006" lon="7.6716173"><ele>292.0</ele><time>2026-04-12T12:24:25.988Z</time></trkpt><trkpt lat="44.6832567" lon="7.671673"><ele>292.0</ele><time>2026-04-12T12:24:28.988Z</time></trkpt><trkpt lat="44.6833305" lon="7.6717328"><ele>292.0</ele><time>2026-04-12T12:24:31.988Z</time></trkpt><trkpt lat="44.6833913" lon="7.6717818"><ele>292.0</ele><time>2026-04-12T12:24:33.988Z</time></trkpt><trkpt lat="44.683457" lon="7.6718009"><ele>292.0</ele><time>2026-04-12T12:24:35.988Z</time></trkpt><trkpt lat="44.6835226" lon="7.6718162"><ele>292.0</ele><time>2026-04-12T12:24:37.988Z</time></trkpt><trkpt lat="44.6835876" lon="7.6718412"><ele>292.0</ele><time>2026-04-12T12:24:39.988Z</time></trkpt><trkpt lat="44.6836426" lon="7.6719075"><ele>292.0</ele><time>2026-04-12T12:24:41.988Z</time></trkpt><trkpt lat="44.6837163" lon="7.671931"><ele>292.0</ele><time>2026-04-12T12:24:43.988Z</time></trkpt><trkpt lat="44.6837753" lon="7.6719892"><ele>292.0</ele><time>2026-04-12T12:24:45.988Z</time></trkpt><trkpt lat="44.6838362" lon="7.6720309"><ele>292.0</ele><time>2026-04-12T12:24:47.988Z</time></trkpt><trkpt lat="44.6839204" lon="7.6720405"><ele>292.0</ele><time>2026-04-12T12:24:50.988Z</time></trkpt><trkpt lat="44.6840116" lon="7.6720666"><ele>292.0</ele><time>2026-04-12T12:24:53.988Z</time></trkpt><trkpt lat="44.68407" lon="7.6721008"><ele>292.0</ele><time>2026-04-12T12:24:55.988Z</time></trkpt><trkpt lat="44.6841525" lon="7.6721352"><ele>292.0</ele><time>2026-04-12T12:24:58.988Z</time></trkpt><trkpt lat="44.684242" lon="7.6721366"><ele>292.0</ele><time>2026-04-12T12:25:01.988Z</time></trkpt><trkpt lat="44.6843336" lon="7.6721253"><ele>292.0</ele><time>2026-04-12T12:25:04.988Z</time></trkpt><trkpt lat="44.6844112" lon="7.6721027"><ele>292.0</ele><time>2026-04-12T12:25:07.988Z</time></trkpt><trkpt lat="44.6844999" lon="7.6720943"><ele>292.0</ele><time>2026-04-12T12:25:09.988Z</time></trkpt><trkpt lat="44.6845684" lon="7.6720869"><ele>291.8333333333333</ele><time>2026-04-12T12:25:11.988Z</time></trkpt><trkpt lat="44.6846287" lon="7.6721253"><ele>291.66666666666663</ele><time>2026-04-12T12:25:13.988Z</time></trkpt><trkpt lat="44.6846998" lon="7.672187"><ele>291.5</ele><time>2026-04-12T12:25:15.988Z</time></trkpt><trkpt lat="44.6847438" lon="7.6722828"><ele>291.3333333333333</ele><time>2026-04-12T12:25:17.988Z</time></trkpt><trkpt lat="44.6847833" lon="7.6723899"><ele>291.1666666666667</ele><time>2026-04-12T12:25:19.988Z</time></trkpt><trkpt lat="44.6848325" lon="7.672475"><ele>291.0</ele><time>2026-04-12T12:25:21.988Z</time></trkpt><trkpt lat="44.6849011" lon="7.6725662"><ele>291.0</ele><time>2026-04-12T12:25:23.988Z</time></trkpt><trkpt lat="44.6849594" lon="7.6726675"><ele>291.0</ele><time>2026-04-12T12:25:25.988Z</time></trkpt><trkpt lat="44.6850175" lon="7.6727686"><ele>291.0</ele><time>2026-04-12T12:25:27.988Z</time></trkpt><trkpt lat="44.6850729" lon="7.6728801"><ele>291.0</ele><time>2026-04-12T12:25:29.988Z</time></trkpt><trkpt lat="44.6851324" lon="7.6730076"><ele>291.0</ele><time>2026-04-12T12:25:31.988Z</time></trkpt><trkpt lat="44.6851903" lon="7.673134"><ele>290.8</ele><time>2026-04-12T12:25:33.988Z</time></trkpt><trkpt lat="44.6852412" lon="7.6732574"><ele>290.6</ele><time>2026-04-12T12:25:35.988Z</time></trkpt><trkpt lat="44.6852971" lon="7.6733897"><ele>290.4</ele><time>2026-04-12T12:25:37.988Z</time></trkpt><trkpt lat="44.6853498" lon="7.6735167"><ele>290.2</ele><time>2026-04-12T12:25:39.988Z</time></trkpt><trkpt lat="44.6854081" lon="7.6736475"><ele>290.0</ele><time>2026-04-12T12:25:41.988Z</time></trkpt><trkpt lat="44.6854587" lon="7.6737875"><ele>289.8</ele><time>2026-04-12T12:25:43.988Z</time></trkpt><trkpt lat="44.6855147" lon="7.6739221"><ele>289.6</ele><time>2026-04-12T12:25:45.988Z</time></trkpt><trkpt lat="44.6855744" lon="7.6740375"><ele>289.4</ele><time>2026-04-12T12:25:47.988Z</time></trkpt><trkpt lat="44.6856245" lon="7.6741443"><ele>289.2</ele><time>2026-04-12T12:25:49.988Z</time></trkpt><trkpt lat="44.6856938" lon="7.6742207"><ele>289.0</ele><time>2026-04-12T12:25:51.988Z</time></trkpt><trkpt lat="44.6857588" lon="7.6742677"><ele>289.0</ele><time>2026-04-12T12:25:53.988Z</time></trkpt><trkpt lat="44.6858283" lon="7.6743224"><ele>289.0</ele><time>2026-04-12T12:25:55.988Z</time></trkpt><trkpt lat="44.6858955" lon="7.674392"><ele>289.0</ele><time>2026-04-12T12:25:57.988Z</time></trkpt><trkpt lat="44.6859635" lon="7.6744722"><ele>289.0</ele><time>2026-04-12T12:25:59.988Z</time></trkpt><trkpt lat="44.6860246" lon="7.67455"><ele>289.0</ele><time>2026-04-12T12:26:01.988Z</time></trkpt><trkpt lat="44.6860853" lon="7.6746322"><ele>289.0</ele><time>2026-04-12T12:26:03.988Z</time></trkpt><trkpt lat="44.6861378" lon="7.674724"><ele>289.0</ele><time>2026-04-12T12:26:05.988Z</time></trkpt><trkpt lat="44.6861848" lon="7.6748265"><ele>289.0</ele><time>2026-04-12T12:26:07.988Z</time></trkpt><trkpt lat="44.6862359" lon="7.6749132"><ele>289.0</ele><time>2026-04-12T12:26:09.988Z</time></trkpt><trkpt lat="44.6862921" lon="7.6749871"><ele>289.0</ele><time>2026-04-12T12:26:11.988Z</time></trkpt><trkpt lat="44.686347" lon="7.6750681"><ele>289.0</ele><time>2026-04-12T12:26:13.988Z</time></trkpt><trkpt lat="44.6864009" lon="7.6751527"><ele>289.0</ele><time>2026-04-12T12:26:15.988Z</time></trkpt><trkpt lat="44.6864633" lon="7.6752411"><ele>289.0</ele><time>2026-04-12T12:26:17.988Z</time></trkpt><trkpt lat="44.6865246" lon="7.6753433"><ele>289.0</ele><time>2026-04-12T12:26:19.988Z</time></trkpt><trkpt lat="44.6865822" lon="7.6754456"><ele>289.0</ele><time>2026-04-12T12:26:21.988Z</time></trkpt><trkpt lat="44.6866407" lon="7.6755353"><ele>289.0</ele><time>2026-04-12T12:26:23.988Z</time></trkpt><trkpt lat="44.6866937" lon="7.675641"><ele>289.0</ele><time>2026-04-12T12:26:25.988Z</time></trkpt><trkpt lat="44.6867389" lon="7.6757529"><ele>289.0</ele><time>2026-04-12T12:26:27.988Z</time></trkpt><trkpt lat="44.6867864" lon="7.6758725"><ele>289.0</ele><time>2026-04-12T12:26:29.988Z</time></trkpt><trkpt lat="44.6868266" lon="7.6759915"><ele>289.0</ele><time>2026-04-12T12:26:31.988Z</time></trkpt><trkpt lat="44.6868746" lon="7.6761047"><ele>289.0</ele><time>2026-04-12T12:26:33.988Z</time></trkpt><trkpt lat="44.6869127" lon="7.6762072"><ele>289.0</ele><time>2026-04-12T12:26:35.988Z</time></trkpt><trkpt lat="44.6869559" lon="7.6763116"><ele>289.0</ele><time>2026-04-12T12:26:37.988Z</time></trkpt><trkpt lat="44.6870078" lon="7.6764073"><ele>289.0</ele><time>2026-04-12T12:26:39.988Z</time></trkpt><trkpt lat="44.6870894" lon="7.6764788"><ele>289.0</ele><time>2026-04-12T12:26:41.988Z</time></trkpt><trkpt lat="44.687184" lon="7.6764959"><ele>289.0</ele><time>2026-04-12T12:26:43.988Z</time></trkpt><trkpt lat="44.6872854" lon="7.6764957"><ele>289.0</ele><time>2026-04-12T12:26:45.988Z</time></trkpt><trkpt lat="44.6873885" lon="7.6764837"><ele>289.0</ele><time>2026-04-12T12:26:47.988Z</time></trkpt><trkpt lat="44.6874862" lon="7.6764803"><ele>289.0</ele><time>2026-04-12T12:26:49.988Z</time></trkpt><trkpt lat="44.6875916" lon="7.6764822"><ele>289.0</ele><time>2026-04-12T12:26:51.988Z</time></trkpt><trkpt lat="44.6876881" lon="7.6764641"><ele>289.0</ele><time>2026-04-12T12:26:53.988Z</time></trkpt><trkpt lat="44.6877837" lon="7.6764406"><ele>289.0</ele><time>2026-04-12T12:26:55.988Z</time></trkpt><trkpt lat="44.6878759" lon="7.676407"><ele>288.8333333333333</ele><time>2026-04-12T12:26:57.988Z</time></trkpt><trkpt lat="44.6879643" lon="7.6763694"><ele>288.66666666666663</ele><time>2026-04-12T12:26:59.988Z</time></trkpt><trkpt lat="44.6880464" lon="7.6763334"><ele>288.5</ele><time>2026-04-12T12:27:01.988Z</time></trkpt><trkpt lat="44.6881227" lon="7.676307"><ele>288.3333333333333</ele><time>2026-04-12T12:27:03.988Z</time></trkpt><trkpt lat="44.6881945" lon="7.6762849"><ele>288.1666666666667</ele><time>2026-04-12T12:27:05.988Z</time></trkpt><trkpt lat="44.6882587" lon="7.6762623"><ele>288.0</ele><time>2026-04-12T12:27:07.988Z</time></trkpt><trkpt lat="44.6883211" lon="7.6762384"><ele>288.0</ele><time>2026-04-12T12:27:09.988Z</time></trkpt><trkpt lat="44.6883916" lon="7.6762142"><ele>288.0</ele><time>2026-04-12T12:27:11.988Z</time></trkpt><trkpt lat="44.6884648" lon="7.6761877"><ele>288.0</ele><time>2026-04-12T12:27:13.988Z</time></trkpt><trkpt lat="44.6885399" lon="7.676146"><ele>288.0</ele><time>2026-04-12T12:27:15.988Z</time></trkpt><trkpt lat="44.6886132" lon="7.6760943"><ele>288.0</ele><time>2026-04-12T12:27:17.988Z</time></trkpt><trkpt lat="44.6886802" lon="7.6760309"><ele>288.0</ele><time>2026-04-12T12:27:19.988Z</time></trkpt><trkpt lat="44.6887487" lon="7.6759669"><ele>287.8333333333333</ele><time>2026-04-12T12:27:21.988Z</time></trkpt><trkpt lat="44.6888212" lon="7.6759043"><ele>287.6666666666667</ele><time>2026-04-12T12:27:23.988Z</time></trkpt><trkpt lat="44.688896" lon="7.675852"><ele>287.5</ele><time>2026-04-12T12:27:25.988Z</time></trkpt><trkpt lat="44.6889821" lon="7.6758074"><ele>287.33333333333337</ele><time>2026-04-12T12:27:27.988Z</time></trkpt><trkpt lat="44.6890681" lon="7.6757749"><ele>287.1666666666667</ele><time>2026-04-12T12:27:29.988Z</time></trkpt><trkpt lat="44.6891506" lon="7.6757781"><ele>287.0</ele><time>2026-04-12T12:27:31.988Z</time></trkpt><trkpt lat="44.6892348" lon="7.6757921"><ele>287.0</ele><time>2026-04-12T12:27:33.988Z</time></trkpt><trkpt lat="44.6893288" lon="7.6758025"><ele>287.0</ele><time>2026-04-12T12:27:35.988Z</time></trkpt><trkpt lat="44.6894132" lon="7.6758116"><ele>287.0</ele><time>2026-04-12T12:27:37.988Z</time></trkpt><trkpt lat="44.6894989" lon="7.675824"><ele>287.0</ele><time>2026-04-12T12:27:39.988Z</time></trkpt><trkpt lat="44.6895863" lon="7.6758415"><ele>287.0</ele><time>2026-04-12T12:27:41.988Z</time></trkpt><trkpt lat="44.6896737" lon="7.6758592"><ele>287.0</ele><time>2026-04-12T12:27:43.988Z</time></trkpt><trkpt lat="44.6897611" lon="7.6758748"><ele>287.0</ele><time>2026-04-12T12:27:45.988Z</time></trkpt><trkpt lat="44.6898492" lon="7.6758912"><ele>287.0</ele><time>2026-04-12T12:27:47.989Z</time></trkpt><trkpt lat="44.6899363" lon="7.6759108"><ele>287.0</ele><time>2026-04-12T12:27:49.988Z</time></trkpt><trkpt lat="44.6900211" lon="7.6759299"><ele>287.0</ele><time>2026-04-12T12:27:51.988Z</time></trkpt><trkpt lat="44.6901041" lon="7.67594"><ele>287.0</ele><time>2026-04-12T12:27:53.988Z</time></trkpt><trkpt lat="44.6901872" lon="7.6759571"><ele>287.0</ele><time>2026-04-12T12:27:55.988Z</time></trkpt><trkpt lat="44.6902634" lon="7.6759806"><ele>287.1666666666667</ele><time>2026-04-12T12:27:57.988Z</time></trkpt><trkpt lat="44.6903339" lon="7.6760033"><ele>287.33333333333337</ele><time>2026-04-12T12:27:59.988Z</time></trkpt><trkpt lat="44.6904062" lon="7.6760168"><ele>287.5</ele><time>2026-04-12T12:28:01.988Z</time></trkpt><trkpt lat="44.6904836" lon="7.6760248"><ele>287.6666666666667</ele><time>2026-04-12T12:28:03.989Z</time></trkpt><trkpt lat="44.690562" lon="7.6760331"><ele>287.8333333333333</ele><time>2026-04-12T12:28:05.988Z</time></trkpt><trkpt lat="44.6906418" lon="7.6760335"><ele>288.0</ele><time>2026-04-12T12:28:07.988Z</time></trkpt><trkpt lat="44.690715" lon="7.6759974"><ele>288.0</ele><time>2026-04-12T12:28:09.988Z</time></trkpt><trkpt lat="44.6907942" lon="7.6759476"><ele>288.0</ele><time>2026-04-12T12:28:11.988Z</time></trkpt><trkpt lat="44.6908806" lon="7.6759413"><ele>288.0</ele><time>2026-04-12T12:28:13.988Z</time></trkpt><trkpt lat="44.6909673" lon="7.675933"><ele>288.0</ele><time>2026-04-12T12:28:15.988Z</time></trkpt><trkpt lat="44.6910558" lon="7.6759265"><ele>288.0</ele><time>2026-04-12T12:28:17.988Z</time></trkpt><trkpt lat="44.6911511" lon="7.6759291"><ele>288.0</ele><time>2026-04-12T12:28:19.988Z</time></trkpt><trkpt lat="44.6912557" lon="7.6759218"><ele>287.8</ele><time>2026-04-12T12:28:21.988Z</time></trkpt><trkpt lat="44.6913488" lon="7.6759049"><ele>287.6</ele><time>2026-04-12T12:28:23.988Z</time></trkpt><trkpt lat="44.691432" lon="7.6758959"><ele>287.4</ele><time>2026-04-12T12:28:25.988Z</time></trkpt><trkpt lat="44.6915174" lon="7.6758596"><ele>287.2</ele><time>2026-04-12T12:28:27.988Z</time></trkpt><trkpt lat="44.6915857" lon="7.6757705"><ele>287.0</ele><time>2026-04-12T12:28:29.988Z</time></trkpt><trkpt lat="44.6916451" lon="7.6756652"><ele>287.0</ele><time>2026-04-12T12:28:31.988Z</time></trkpt><trkpt lat="44.6917004" lon="7.675557"><ele>287.0</ele><time>2026-04-12T12:28:33.988Z</time></trkpt><trkpt lat="44.691759" lon="7.6754534"><ele>287.0</ele><time>2026-04-12T12:28:35.988Z</time></trkpt><trkpt lat="44.6918153" lon="7.6753523"><ele>287.0</ele><time>2026-04-12T12:28:37.988Z</time></trkpt><trkpt lat="44.6918709" lon="7.6752476"><ele>287.0</ele><time>2026-04-12T12:28:39.988Z</time></trkpt><trkpt lat="44.6919264" lon="7.6751478"><ele>287.33333333333337</ele><time>2026-04-12T12:28:41.988Z</time></trkpt><trkpt lat="44.6919827" lon="7.6750568"><ele>287.6666666666667</ele><time>2026-04-12T12:28:43.988Z</time></trkpt><trkpt lat="44.6920394" lon="7.6749613"><ele>288.0</ele><time>2026-04-12T12:28:45.988Z</time></trkpt><trkpt lat="44.6920842" lon="7.6748557"><ele>288.3333333333333</ele><time>2026-04-12T12:28:47.988Z</time></trkpt><trkpt lat="44.6921166" lon="7.6747431"><ele>288.66666666666663</ele><time>2026-04-12T12:28:49.988Z</time></trkpt><trkpt lat="44.6921416" lon="7.6746434"><ele>289.0</ele><time>2026-04-12T12:28:51.988Z</time></trkpt><trkpt lat="44.6921801" lon="7.6745502"><ele>289.0</ele><time>2026-04-12T12:28:53.988Z</time></trkpt><trkpt lat="44.6922342" lon="7.6744679"><ele>289.0</ele><time>2026-04-12T12:28:55.988Z</time></trkpt><trkpt lat="44.6922798" lon="7.6743702"><ele>289.0</ele><time>2026-04-12T12:28:57.988Z</time></trkpt><trkpt lat="44.6923253" lon="7.6742672"><ele>289.0</ele><time>2026-04-12T12:28:59.988Z</time></trkpt><trkpt lat="44.6923768" lon="7.6741586"><ele>289.0</ele><time>2026-04-12T12:29:01.988Z</time></trkpt><trkpt lat="44.6924217" lon="7.6740506"><ele>289.0</ele><time>2026-04-12T12:29:03.988Z</time></trkpt><trkpt lat="44.6924644" lon="7.6739487"><ele>289.16666666666663</ele><time>2026-04-12T12:29:05.988Z</time></trkpt><trkpt lat="44.6925053" lon="7.6738464"><ele>289.3333333333333</ele><time>2026-04-12T12:29:07.988Z</time></trkpt><trkpt lat="44.6925474" lon="7.6737453"><ele>289.5</ele><time>2026-04-12T12:29:09.988Z</time></trkpt><trkpt lat="44.6925903" lon="7.6736477"><ele>289.6666666666667</ele><time>2026-04-12T12:29:11.988Z</time></trkpt><trkpt lat="44.6926352" lon="7.6735511"><ele>289.83333333333337</ele><time>2026-04-12T12:29:13.988Z</time></trkpt><trkpt lat="44.6926764" lon="7.6734614"><ele>290.0</ele><time>2026-04-12T12:29:15.988Z</time></trkpt><trkpt lat="44.6927352" lon="7.6733941"><ele>289.33333333333337</ele><time>2026-04-12T12:29:17.988Z</time></trkpt><trkpt lat="44.6928136" lon="7.6733532"><ele>288.6666666666667</ele><time>2026-04-12T12:29:19.988Z</time></trkpt><trkpt lat="44.692894" lon="7.6733073"><ele>288.0</ele><time>2026-04-12T12:29:21.988Z</time></trkpt><trkpt lat="44.6929764" lon="7.6732561"><ele>287.3333333333333</ele><time>2026-04-12T12:29:23.988Z</time></trkpt><trkpt lat="44.6930591" lon="7.6732011"><ele>286.66666666666663</ele><time>2026-04-12T12:29:25.988Z</time></trkpt><trkpt lat="44.693138" lon="7.6731424"><ele>286.0</ele><time>2026-04-12T12:29:27.988Z</time></trkpt><trkpt lat="44.6932237" lon="7.6730819"><ele>286.0</ele><time>2026-04-12T12:29:29.988Z</time></trkpt><trkpt lat="44.6932979" lon="7.6730212"><ele>286.0</ele><time>2026-04-12T12:29:31.988Z</time></trkpt><trkpt lat="44.6933978" lon="7.6729614"><ele>286.0</ele><time>2026-04-12T12:29:33.988Z</time></trkpt><trkpt lat="44.6934836" lon="7.6729078"><ele>286.0</ele><time>2026-04-12T12:29:35.988Z</time></trkpt><trkpt lat="44.6935702" lon="7.6728599"><ele>286.0</ele><time>2026-04-12T12:29:37.988Z</time></trkpt><trkpt lat="44.6936611" lon="7.6728399"><ele>286.0</ele><time>2026-04-12T12:29:39.988Z</time></trkpt><trkpt lat="44.6937414" lon="7.6728548"><ele>286.0</ele><time>2026-04-12T12:29:41.988Z</time></trkpt><trkpt lat="44.6938035" lon="7.6729089"><ele>286.0</ele><time>2026-04-12T12:29:43.988Z</time></trkpt><trkpt lat="44.6938364" lon="7.6729907"><ele>286.0</ele><time>2026-04-12T12:29:45.988Z</time></trkpt><trkpt lat="44.6938412" lon="7.6731036"><ele>286.0</ele><time>2026-04-12T12:29:47.988Z</time></trkpt><trkpt lat="44.6938294" lon="7.6732311"><ele>286.0</ele><time>2026-04-12T12:29:49.988Z</time></trkpt><trkpt lat="44.6938302" lon="7.6733579"><ele>286.0</ele><time>2026-04-12T12:29:51.988Z</time></trkpt><trkpt lat="44.6938414" lon="7.6734893"><ele>286.0</ele><time>2026-04-12T12:29:53.988Z</time></trkpt><trkpt lat="44.693856" lon="7.6736225"><ele>286.0</ele><time>2026-04-12T12:29:55.988Z</time></trkpt><trkpt lat="44.693879" lon="7.6737532"><ele>286.0</ele><time>2026-04-12T12:29:57.988Z</time></trkpt><trkpt lat="44.6939121" lon="7.6738825"><ele>286.0</ele><time>2026-04-12T12:29:59.988Z</time></trkpt><trkpt lat="44.693952" lon="7.6740096"><ele>286.0</ele><time>2026-04-12T12:30:01.988Z</time></trkpt><trkpt lat="44.6939919" lon="7.6741359"><ele>286.0</ele><time>2026-04-12T12:30:03.988Z</time></trkpt><trkpt lat="44.6940403" lon="7.6742645"><ele>286.0</ele><time>2026-04-12T12:30:05.988Z</time></trkpt><trkpt lat="44.6940914" lon="7.6743812"><ele>286.0</ele><time>2026-04-12T12:30:07.988Z</time></trkpt><trkpt lat="44.6941358" lon="7.6745045"><ele>286.0</ele><time>2026-04-12T12:30:09.988Z</time></trkpt><trkpt lat="44.6941835" lon="7.6746229"><ele>286.0</ele><time>2026-04-12T12:30:11.988Z</time></trkpt><trkpt lat="44.694229" lon="7.6747542"><ele>286.0</ele><time>2026-04-12T12:30:13.988Z</time></trkpt><trkpt lat="44.6942784" lon="7.6748788"><ele>286.0</ele><time>2026-04-12T12:30:15.988Z</time></trkpt><trkpt lat="44.6943181" lon="7.6750018"><ele>286.0</ele><time>2026-04-12T12:30:17.988Z</time></trkpt><trkpt lat="44.694359" lon="7.6751263"><ele>286.0</ele><time>2026-04-12T12:30:19.988Z</time></trkpt><trkpt lat="44.6944007" lon="7.6752501"><ele>285.8</ele><time>2026-04-12T12:30:21.988Z</time></trkpt><trkpt lat="44.6944492" lon="7.6753849"><ele>285.6</ele><time>2026-04-12T12:30:23.988Z</time></trkpt><trkpt lat="44.6945004" lon="7.6755039"><ele>285.4</ele><time>2026-04-12T12:30:25.988Z</time></trkpt><trkpt lat="44.6945579" lon="7.6756129"><ele>285.2</ele><time>2026-04-12T12:30:27.988Z</time></trkpt><trkpt lat="44.694638" lon="7.6756957"><ele>285.0</ele><time>2026-04-12T12:30:29.988Z</time></trkpt><trkpt lat="44.6947267" lon="7.6757492"><ele>285.0</ele><time>2026-04-12T12:30:31.988Z</time></trkpt><trkpt lat="44.6948248" lon="7.6757873"><ele>285.0</ele><time>2026-04-12T12:30:33.988Z</time></trkpt><trkpt lat="44.6949253" lon="7.6758081"><ele>285.0</ele><time>2026-04-12T12:30:35.988Z</time></trkpt><trkpt lat="44.6950224" lon="7.6758205"><ele>285.0</ele><time>2026-04-12T12:30:37.988Z</time></trkpt><trkpt lat="44.6951216" lon="7.6757999"><ele>285.0</ele><time>2026-04-12T12:30:39.988Z</time></trkpt><trkpt lat="44.6952043" lon="7.6757746"><ele>284.4</ele><time>2026-04-12T12:30:41.988Z</time></trkpt><trkpt lat="44.6952909" lon="7.6757334"><ele>283.8</ele><time>2026-04-12T12:30:43.988Z</time></trkpt><trkpt lat="44.6953762" lon="7.6756947"><ele>283.2</ele><time>2026-04-12T12:30:45.988Z</time></trkpt><trkpt lat="44.6954625" lon="7.6756364"><ele>282.6</ele><time>2026-04-12T12:30:47.988Z</time></trkpt><trkpt lat="44.6955477" lon="7.6755774"><ele>282.0</ele><time>2026-04-12T12:30:49.988Z</time></trkpt><trkpt lat="44.6956361" lon="7.6755309"><ele>282.0</ele><time>2026-04-12T12:30:51.988Z</time></trkpt><trkpt lat="44.6957176" lon="7.6754717"><ele>282.0</ele><time>2026-04-12T12:30:53.988Z</time></trkpt><trkpt lat="44.6957926" lon="7.6754015"><ele>282.0</ele><time>2026-04-12T12:30:55.988Z</time></trkpt><trkpt lat="44.6958638" lon="7.6753246"><ele>282.0</ele><time>2026-04-12T12:30:57.988Z</time></trkpt><trkpt lat="44.6959183" lon="7.6752392"><ele>282.0</ele><time>2026-04-12T12:30:59.988Z</time></trkpt><trkpt lat="44.6959569" lon="7.6751398"><ele>282.0</ele><time>2026-04-12T12:31:01.988Z</time></trkpt><trkpt lat="44.6959982" lon="7.6750346"><ele>281.8333333333333</ele><time>2026-04-12T12:31:03.988Z</time></trkpt><trkpt lat="44.6960413" lon="7.6749262"><ele>281.6666666666667</ele><time>2026-04-12T12:31:05.988Z</time></trkpt><trkpt lat="44.6960881" lon="7.6748163"><ele>281.5</ele><time>2026-04-12T12:31:07.988Z</time></trkpt><trkpt lat="44.6961452" lon="7.6747172"><ele>281.33333333333337</ele><time>2026-04-12T12:31:09.988Z</time></trkpt><trkpt lat="44.6962098" lon="7.6746344"><ele>281.1666666666667</ele><time>2026-04-12T12:31:11.988Z</time></trkpt><trkpt lat="44.6962817" lon="7.6745701"><ele>281.0</ele><time>2026-04-12T12:31:13.988Z</time></trkpt><trkpt lat="44.6963603" lon="7.6745154"><ele>281.0</ele><time>2026-04-12T12:31:15.988Z</time></trkpt><trkpt lat="44.6964407" lon="7.6744672"><ele>281.0</ele><time>2026-04-12T12:31:17.988Z</time></trkpt><trkpt lat="44.6965236" lon="7.6744265"><ele>281.0</ele><time>2026-04-12T12:31:19.988Z</time></trkpt><trkpt lat="44.6966074" lon="7.6743872"><ele>281.0</ele><time>2026-04-12T12:31:21.988Z</time></trkpt><trkpt lat="44.696695" lon="7.6743428"><ele>281.0</ele><time>2026-04-12T12:31:23.988Z</time></trkpt><trkpt lat="44.6967857" lon="7.6742996"><ele>281.6</ele><time>2026-04-12T12:31:25.988Z</time></trkpt><trkpt lat="44.6968779" lon="7.6742593"><ele>282.20000000000005</ele><time>2026-04-12T12:31:27.988Z</time></trkpt><trkpt lat="44.6969682" lon="7.6742304"><ele>282.79999999999995</ele><time>2026-04-12T12:31:29.988Z</time></trkpt><trkpt lat="44.6970577" lon="7.6742121"><ele>283.4</ele><time>2026-04-12T12:31:31.988Z</time></trkpt><trkpt lat="44.6971502" lon="7.6742"><ele>284.0</ele><time>2026-04-12T12:31:33.988Z</time></trkpt><trkpt lat="44.6972433" lon="7.6741992"><ele>284.0</ele><time>2026-04-12T12:31:35.988Z</time></trkpt><trkpt lat="44.6973331" lon="7.674209"><ele>284.0</ele><time>2026-04-12T12:31:37.988Z</time></trkpt><trkpt lat="44.6974224" lon="7.6742263"><ele>284.0</ele><time>2026-04-12T12:31:39.989Z</time></trkpt><trkpt lat="44.6975131" lon="7.6742615"><ele>284.0</ele><time>2026-04-12T12:31:41.988Z</time></trkpt><trkpt lat="44.6976014" lon="7.6743075"><ele>284.0</ele><time>2026-04-12T12:31:43.988Z</time></trkpt><trkpt lat="44.6976845" lon="7.6743693"><ele>284.1666666666667</ele><time>2026-04-12T12:31:45.988Z</time></trkpt><trkpt lat="44.6977677" lon="7.6744378"><ele>284.33333333333337</ele><time>2026-04-12T12:31:47.988Z</time></trkpt><trkpt lat="44.6978447" lon="7.674518"><ele>284.5</ele><time>2026-04-12T12:31:49.988Z</time></trkpt><trkpt lat="44.6979134" lon="7.6745999"><ele>284.6666666666667</ele><time>2026-04-12T12:31:51.988Z</time></trkpt><trkpt lat="44.6979788" lon="7.674674"><ele>284.8333333333333</ele><time>2026-04-12T12:31:53.988Z</time></trkpt><trkpt lat="44.6980442" lon="7.674736"><ele>285.0</ele><time>2026-04-12T12:31:55.988Z</time></trkpt><trkpt lat="44.6981214" lon="7.67477"><ele>284.6666666666667</ele><time>2026-04-12T12:31:57.988Z</time></trkpt><trkpt lat="44.6982055" lon="7.6747558"><ele>284.3333333333333</ele><time>2026-04-12T12:31:59.988Z</time></trkpt><trkpt lat="44.6982843" lon="7.6747115"><ele>284.0</ele><time>2026-04-12T12:32:01.988Z</time></trkpt><trkpt lat="44.6983624" lon="7.6746697"><ele>283.66666666666663</ele><time>2026-04-12T12:32:03.988Z</time></trkpt><trkpt lat="44.698436" lon="7.6746277"><ele>283.3333333333333</ele><time>2026-04-12T12:32:05.988Z</time></trkpt><trkpt lat="44.6984995" lon="7.674592"><ele>283.0</ele><time>2026-04-12T12:32:07.988Z</time></trkpt><trkpt lat="44.6985861" lon="7.6745246"><ele>283.0</ele><time>2026-04-12T12:32:10.988Z</time></trkpt><trkpt lat="44.6986579" lon="7.6744976"><ele>283.0</ele><time>2026-04-12T12:32:12.988Z</time></trkpt><trkpt lat="44.6985895" lon="7.6745558"><ele>283.0</ele><time>2026-04-12T12:34:23.988Z</time></trkpt><trkpt lat="44.6986627" lon="7.6744987"><ele>283.0</ele><time>2026-04-12T12:34:38.988Z</time></trkpt><trkpt lat="44.6987307" lon="7.6744612"><ele>283.0</ele><time>2026-04-12T12:34:40.988Z</time></trkpt><trkpt lat="44.6988295" lon="7.6744205"><ele>283.0</ele><time>2026-04-12T12:34:43.988Z</time></trkpt><trkpt lat="44.6989039" lon="7.6743687"><ele>283.16666666666663</ele><time>2026-04-12T12:34:45.988Z</time></trkpt><trkpt lat="44.6989621" lon="7.674282"><ele>283.3333333333333</ele><time>2026-04-12T12:34:47.988Z</time></trkpt><trkpt lat="44.6989969" lon="7.674169"><ele>283.5</ele><time>2026-04-12T12:34:49.988Z</time></trkpt><trkpt lat="44.6990015" lon="7.6740511"><ele>283.6666666666667</ele><time>2026-04-12T12:34:51.988Z</time></trkpt><trkpt lat="44.6989788" lon="7.6739355"><ele>283.83333333333337</ele><time>2026-04-12T12:34:53.988Z</time></trkpt><trkpt lat="44.6989725" lon="7.6738228"><ele>284.0</ele><time>2026-04-12T12:34:55.988Z</time></trkpt><trkpt lat="44.6990187" lon="7.6737286"><ele>284.0</ele><time>2026-04-12T12:34:57.988Z</time></trkpt><trkpt lat="44.6991034" lon="7.6736783"><ele>284.0</ele><time>2026-04-12T12:34:59.988Z</time></trkpt><trkpt lat="44.6991901" lon="7.6736405"><ele>284.0</ele><time>2026-04-12T12:35:01.988Z</time></trkpt><trkpt lat="44.6992775" lon="7.6735972"><ele>284.0</ele><time>2026-04-12T12:35:03.988Z</time></trkpt><trkpt lat="44.6993666" lon="7.6735644"><ele>284.0</ele><time>2026-04-12T12:35:05.988Z</time></trkpt><trkpt lat="44.6994576" lon="7.6735278"><ele>284.0</ele><time>2026-04-12T12:35:07.988Z</time></trkpt><trkpt lat="44.6995481" lon="7.6734897"><ele>284.0</ele><time>2026-04-12T12:35:09.988Z</time></trkpt><trkpt lat="44.6996397" lon="7.67345"><ele>284.0</ele><time>2026-04-12T12:35:11.988Z</time></trkpt><trkpt lat="44.6997318" lon="7.6734102"><ele>284.0</ele><time>2026-04-12T12:35:13.988Z</time></trkpt><trkpt lat="44.6998243" lon="7.6733709"><ele>284.0</ele><time>2026-04-12T12:35:15.988Z</time></trkpt><trkpt lat="44.6999187" lon="7.6733275"><ele>284.0</ele><time>2026-04-12T12:35:17.988Z</time></trkpt><trkpt lat="44.700015" lon="7.6732878"><ele>284.0</ele><time>2026-04-12T12:35:19.988Z</time></trkpt><trkpt lat="44.7001083" lon="7.6732443"><ele>284.0</ele><time>2026-04-12T12:35:21.988Z</time></trkpt><trkpt lat="44.7002008" lon="7.6732045"><ele>284.0</ele><time>2026-04-12T12:35:23.988Z</time></trkpt><trkpt lat="44.7002915" lon="7.6731621"><ele>284.0</ele><time>2026-04-12T12:35:25.988Z</time></trkpt><trkpt lat="44.7003847" lon="7.6731175"><ele>284.0</ele><time>2026-04-12T12:35:27.988Z</time></trkpt><trkpt lat="44.7004811" lon="7.6730815"><ele>284.0</ele><time>2026-04-12T12:35:29.988Z</time></trkpt><trkpt lat="44.7005753" lon="7.6730343"><ele>284.0</ele><time>2026-04-12T12:35:31.988Z</time></trkpt><trkpt lat="44.7006717" lon="7.6729916"><ele>284.0</ele><time>2026-04-12T12:35:33.988Z</time></trkpt><trkpt lat="44.7007704" lon="7.6729577"><ele>284.0</ele><time>2026-04-12T12:35:35.988Z</time></trkpt><trkpt lat="44.7008731" lon="7.6729396"><ele>284.0</ele><time>2026-04-12T12:35:37.988Z</time></trkpt><trkpt lat="44.7009732" lon="7.6729546"><ele>284.0</ele><time>2026-04-12T12:35:39.988Z</time></trkpt><trkpt lat="44.7010769" lon="7.6729795"><ele>284.0</ele><time>2026-04-12T12:35:41.988Z</time></trkpt><trkpt lat="44.70117" lon="7.6730229"><ele>284.0</ele><time>2026-04-12T12:35:43.988Z</time></trkpt><trkpt lat="44.7012679" lon="7.6730563"><ele>284.0</ele><time>2026-04-12T12:35:45.988Z</time></trkpt><trkpt lat="44.7013633" lon="7.6730893"><ele>284.0</ele><time>2026-04-12T12:35:47.988Z</time></trkpt><trkpt lat="44.7014532" lon="7.6731263"><ele>284.0</ele><time>2026-04-12T12:35:49.988Z</time></trkpt><trkpt lat="44.7015479" lon="7.6731566"><ele>284.0</ele><time>2026-04-12T12:35:51.988Z</time></trkpt><trkpt lat="44.7016417" lon="7.6731747"><ele>284.0</ele><time>2026-04-12T12:35:53.988Z</time></trkpt><trkpt lat="44.7017316" lon="7.673193"><ele>284.0</ele><time>2026-04-12T12:35:55.988Z</time></trkpt><trkpt lat="44.7018243" lon="7.6732078"><ele>284.0</ele><time>2026-04-12T12:35:57.988Z</time></trkpt><trkpt lat="44.7019122" lon="7.6732243"><ele>284.0</ele><time>2026-04-12T12:35:59.988Z</time></trkpt><trkpt lat="44.701999" lon="7.6732404"><ele>284.0</ele><time>2026-04-12T12:36:01.988Z</time></trkpt><trkpt lat="44.7020824" lon="7.67327"><ele>284.0</ele><time>2026-04-12T12:36:03.988Z</time></trkpt><trkpt lat="44.7021541" lon="7.6733493"><ele>284.0</ele><time>2026-04-12T12:36:05.988Z</time></trkpt><trkpt lat="44.7022117" lon="7.6734594"><ele>284.0</ele><time>2026-04-12T12:36:07.988Z</time></trkpt><trkpt lat="44.7022736" lon="7.6735656"><ele>284.0</ele><time>2026-04-12T12:36:09.988Z</time></trkpt><trkpt lat="44.702329" lon="7.673687"><ele>284.0</ele><time>2026-04-12T12:36:11.988Z</time></trkpt><trkpt lat="44.7023903" lon="7.6738148"><ele>284.0</ele><time>2026-04-12T12:36:13.988Z</time></trkpt><trkpt lat="44.7024434" lon="7.673949"><ele>284.0</ele><time>2026-04-12T12:36:15.988Z</time></trkpt><trkpt lat="44.7024785" lon="7.6740965"><ele>283.75</ele><time>2026-04-12T12:36:17.988Z</time></trkpt><trkpt lat="44.7024931" lon="7.6742485"><ele>283.5</ele><time>2026-04-12T12:36:19.988Z</time></trkpt><trkpt lat="44.7024935" lon="7.6744066"><ele>283.25</ele><time>2026-04-12T12:36:21.988Z</time></trkpt><trkpt lat="44.7024877" lon="7.6745703"><ele>283.0</ele><time>2026-04-12T12:36:23.988Z</time></trkpt><trkpt lat="44.7024969" lon="7.6747425"><ele>283.0</ele><time>2026-04-12T12:36:25.988Z</time></trkpt><trkpt lat="44.702534" lon="7.6748935"><ele>283.0</ele><time>2026-04-12T12:36:27.988Z</time></trkpt><trkpt lat="44.7025997" lon="7.675033"><ele>283.0</ele><time>2026-04-12T12:36:29.988Z</time></trkpt><trkpt lat="44.7026809" lon="7.6751502"><ele>283.0</ele><time>2026-04-12T12:36:31.988Z</time></trkpt><trkpt lat="44.7027741" lon="7.6752469"><ele>283.0</ele><time>2026-04-12T12:36:33.988Z</time></trkpt><trkpt lat="44.7028863" lon="7.6753172"><ele>283.0</ele><time>2026-04-12T12:36:35.988Z</time></trkpt><trkpt lat="44.7030092" lon="7.6753161"><ele>283.0</ele><time>2026-04-12T12:36:37.988Z</time></trkpt><trkpt lat="44.7030743" lon="7.6753066"><ele>283.0</ele><time>2026-04-12T12:36:38.988Z</time></trkpt><trkpt lat="44.7031939" lon="7.6752748"><ele>283.0</ele><time>2026-04-12T12:36:40.988Z</time></trkpt><trkpt lat="44.7033092" lon="7.6752369"><ele>283.0</ele><time>2026-04-12T12:36:42.988Z</time></trkpt><trkpt lat="44.7034207" lon="7.6751959"><ele>283.0</ele><time>2026-04-12T12:36:44.988Z</time></trkpt><trkpt lat="44.7035376" lon="7.6751596"><ele>283.0</ele><time>2026-04-12T12:36:46.988Z</time></trkpt><trkpt lat="44.7036506" lon="7.6751162"><ele>283.0</ele><time>2026-04-12T12:36:48.988Z</time></trkpt><trkpt lat="44.7037647" lon="7.6750791"><ele>282.5</ele><time>2026-04-12T12:36:50.988Z</time></trkpt><trkpt lat="44.7038805" lon="7.6750579"><ele>282.0</ele><time>2026-04-12T12:36:52.988Z</time></trkpt><trkpt lat="44.7039972" lon="7.6750385"><ele>281.5</ele><time>2026-04-12T12:36:54.988Z</time></trkpt><trkpt lat="44.7041149" lon="7.6750355"><ele>281.0</ele><time>2026-04-12T12:36:56.988Z</time></trkpt><trkpt lat="44.7042293" lon="7.6750604"><ele>281.0</ele><time>2026-04-12T12:36:58.988Z</time></trkpt><trkpt lat="44.7043448" lon="7.675115"><ele>281.0</ele><time>2026-04-12T12:37:00.988Z</time></trkpt><trkpt lat="44.7044482" lon="7.6752037"><ele>281.0</ele><time>2026-04-12T12:37:02.988Z</time></trkpt><trkpt lat="44.704542" lon="7.6753034"><ele>281.0</ele><time>2026-04-12T12:37:04.988Z</time></trkpt><trkpt lat="44.7046146" lon="7.6754278"><ele>281.25</ele><time>2026-04-12T12:37:06.988Z</time></trkpt><trkpt lat="44.7046666" lon="7.6755743"><ele>281.5</ele><time>2026-04-12T12:37:08.988Z</time></trkpt><trkpt lat="44.7047118" lon="7.6757293"><ele>281.75</ele><time>2026-04-12T12:37:10.988Z</time></trkpt><trkpt lat="44.7047563" lon="7.6758876"><ele>282.0</ele><time>2026-04-12T12:37:12.988Z</time></trkpt><trkpt lat="44.7047969" lon="7.6760454"><ele>282.25</ele><time>2026-04-12T12:37:14.988Z</time></trkpt><trkpt lat="44.7048564" lon="7.676183"><ele>282.5</ele><time>2026-04-12T12:37:16.988Z</time></trkpt><trkpt lat="44.7049507" lon="7.6762741"><ele>282.75</ele><time>2026-04-12T12:37:18.988Z</time></trkpt><trkpt lat="44.7050623" lon="7.6763125"><ele>283.0</ele><time>2026-04-12T12:37:20.988Z</time></trkpt><trkpt lat="44.705183" lon="7.6762925"><ele>283.0</ele><time>2026-04-12T12:37:22.988Z</time></trkpt><trkpt lat="44.7053108" lon="7.6762734"><ele>283.0</ele><time>2026-04-12T12:37:24.988Z</time></trkpt><trkpt lat="44.7054277" lon="7.6762521"><ele>283.0</ele><time>2026-04-12T12:37:26.988Z</time></trkpt><trkpt lat="44.7055476" lon="7.6762261"><ele>283.0</ele><time>2026-04-12T12:37:28.988Z</time></trkpt><trkpt lat="44.7056676" lon="7.676195"><ele>283.0</ele><time>2026-04-12T12:37:30.988Z</time></trkpt><trkpt lat="44.7057898" lon="7.6761717"><ele>283.0</ele><time>2026-04-12T12:37:32.988Z</time></trkpt><trkpt lat="44.7058531" lon="7.67616"><ele>283.0</ele><time>2026-04-12T12:37:33.988Z</time></trkpt><trkpt lat="44.7059696" lon="7.6761442"><ele>283.0</ele><time>2026-04-12T12:37:35.988Z</time></trkpt><trkpt lat="44.7060812" lon="7.6761246"><ele>283.0</ele><time>2026-04-12T12:37:37.988Z</time></trkpt><trkpt lat="44.7061926" lon="7.6760979"><ele>283.2</ele><time>2026-04-12T12:37:39.988Z</time></trkpt><trkpt lat="44.706301" lon="7.6760732"><ele>283.4</ele><time>2026-04-12T12:37:41.988Z</time></trkpt><trkpt lat="44.7064188" lon="7.676047"><ele>283.59999999999997</ele><time>2026-04-12T12:37:43.988Z</time></trkpt><trkpt lat="44.7065238" lon="7.6760297"><ele>283.8</ele><time>2026-04-12T12:37:45.988Z</time></trkpt><trkpt lat="44.7066207" lon="7.6759967"><ele>284.0</ele><time>2026-04-12T12:37:47.988Z</time></trkpt><trkpt lat="44.7067012" lon="7.6760029"><ele>284.2</ele><time>2026-04-12T12:37:49.988Z</time></trkpt><trkpt lat="44.7067265" lon="7.6761351"><ele>284.4</ele><time>2026-04-12T12:37:52.988Z</time></trkpt><trkpt lat="44.7067135" lon="7.6762457"><ele>284.6</ele><time>2026-04-12T12:37:54.988Z</time></trkpt><trkpt lat="44.7067075" lon="7.6763791"><ele>284.8</ele><time>2026-04-12T12:37:56.988Z</time></trkpt><trkpt lat="44.706703" lon="7.6765095"><ele>285.0</ele><time>2026-04-12T12:37:58.988Z</time></trkpt><trkpt lat="44.7066973" lon="7.6766539"><ele>285.0</ele><time>2026-04-12T12:38:00.988Z</time></trkpt><trkpt lat="44.7066841" lon="7.6767935"><ele>285.0</ele><time>2026-04-12T12:38:02.988Z</time></trkpt><trkpt lat="44.706674" lon="7.6769326"><ele>285.0</ele><time>2026-04-12T12:38:04.988Z</time></trkpt><trkpt lat="44.7066695" lon="7.6770739"><ele>285.0</ele><time>2026-04-12T12:38:06.988Z</time></trkpt><trkpt lat="44.7066625" lon="7.6772081"><ele>285.0</ele><time>2026-04-12T12:38:08.988Z</time></trkpt><trkpt lat="44.7066561" lon="7.6773471"><ele>284.6666666666667</ele><time>2026-04-12T12:38:10.988Z</time></trkpt><trkpt lat="44.7066497" lon="7.6774776"><ele>284.3333333333333</ele><time>2026-04-12T12:38:12.988Z</time></trkpt><trkpt lat="44.7066421" lon="7.6775996"><ele>284.0</ele><time>2026-04-12T12:38:14.988Z</time></trkpt><trkpt lat="44.7066438" lon="7.6776936"><ele>283.66666666666663</ele><time>2026-04-12T12:38:16.988Z</time></trkpt><trkpt lat="44.7066563" lon="7.6778044"><ele>283.3333333333333</ele><time>2026-04-12T12:38:19.988Z</time></trkpt><trkpt lat="44.7067297" lon="7.6778023"><ele>283.0</ele><time>2026-04-12T12:38:22.988Z</time></trkpt><trkpt lat="44.7067596" lon="7.6777127"><ele>282.8</ele><time>2026-04-12T12:38:24.988Z</time></trkpt><trkpt lat="44.7068326" lon="7.6776556"><ele>282.6</ele><time>2026-04-12T12:38:26.988Z</time></trkpt><trkpt lat="44.7069268" lon="7.6776615"><ele>282.4</ele><time>2026-04-12T12:38:28.988Z</time></trkpt><trkpt lat="44.7070245" lon="7.6776821"><ele>282.2</ele><time>2026-04-12T12:38:30.988Z</time></trkpt><trkpt lat="44.7071303" lon="7.6776958"><ele>282.0</ele><time>2026-04-12T12:38:32.988Z</time></trkpt><trkpt lat="44.7072414" lon="7.6777"><ele>281.2</ele><time>2026-04-12T12:38:34.988Z</time></trkpt><trkpt lat="44.7073496" lon="7.6777051"><ele>280.4</ele><time>2026-04-12T12:38:36.988Z</time></trkpt><trkpt lat="44.7074456" lon="7.6777225"><ele>279.6</ele><time>2026-04-12T12:38:38.988Z</time></trkpt><trkpt lat="44.7075387" lon="7.6777277"><ele>278.8</ele><time>2026-04-12T12:38:40.988Z</time></trkpt><trkpt lat="44.7076248" lon="7.6777375"><ele>278.0</ele><time>2026-04-12T12:38:42.988Z</time></trkpt><trkpt lat="44.7077067" lon="7.6777506"><ele>278.1666666666667</ele><time>2026-04-12T12:38:44.988Z</time></trkpt><trkpt lat="44.707791" lon="7.67776"><ele>278.33333333333337</ele><time>2026-04-12T12:38:46.988Z</time></trkpt><trkpt lat="44.7078705" lon="7.6777679"><ele>278.5</ele><time>2026-04-12T12:38:48.988Z</time></trkpt><trkpt lat="44.7079545" lon="7.6777776"><ele>278.6666666666667</ele><time>2026-04-12T12:38:50.988Z</time></trkpt><trkpt lat="44.7080468" lon="7.6777826"><ele>278.8333333333333</ele><time>2026-04-12T12:38:52.988Z</time></trkpt><trkpt lat="44.7081412" lon="7.677792"><ele>279.0</ele><time>2026-04-12T12:38:54.988Z</time></trkpt><trkpt lat="44.7082221" lon="7.6777929"><ele>279.0</ele><time>2026-04-12T12:38:56.988Z</time></trkpt><trkpt lat="44.7081658" lon="7.6777331"><ele>279.0</ele><time>2026-04-12T12:39:01.988Z</time></trkpt><trkpt lat="44.7080804" lon="7.6777322"><ele>279.0</ele><time>2026-04-12T12:39:03.988Z</time></trkpt><trkpt lat="44.7079865" lon="7.6777317"><ele>279.0</ele><time>2026-04-12T12:39:05.988Z</time></trkpt><trkpt lat="44.7078902" lon="7.6777229"><ele>279.0</ele><time>2026-04-12T12:39:07.988Z</time></trkpt><trkpt lat="44.7078007" lon="7.6777096"><ele>279.0</ele><time>2026-04-12T12:39:09.988Z</time></trkpt><trkpt lat="44.7077033" lon="7.6777037"><ele>278.8333333333333</ele><time>2026-04-12T12:39:11.988Z</time></trkpt><trkpt lat="44.7076089" lon="7.6776905"><ele>278.6666666666667</ele><time>2026-04-12T12:39:13.988Z</time></trkpt><trkpt lat="44.7075155" lon="7.67769"><ele>278.5</ele><time>2026-04-12T12:39:15.988Z</time></trkpt><trkpt lat="44.7074305" lon="7.6777094"><ele>278.33333333333337</ele><time>2026-04-12T12:39:17.988Z</time></trkpt><trkpt lat="44.7073716" lon="7.6777938"><ele>278.1666666666667</ele><time>2026-04-12T12:39:19.988Z</time></trkpt><trkpt lat="44.7073645" lon="7.6779094"><ele>278.0</ele><time>2026-04-12T12:39:21.988Z</time></trkpt><trkpt lat="44.7073769" lon="7.6780286"><ele>278.4</ele><time>2026-04-12T12:39:23.988Z</time></trkpt><trkpt lat="44.7073885" lon="7.6781414"><ele>278.8</ele><time>2026-04-12T12:39:25.988Z</time></trkpt><trkpt lat="44.7074036" lon="7.6782536"><ele>279.2</ele><time>2026-04-12T12:39:27.988Z</time></trkpt><trkpt lat="44.7074404" lon="7.6783661"><ele>279.6</ele><time>2026-04-12T12:39:29.988Z</time></trkpt><trkpt lat="44.7075253" lon="7.6784353"><ele>280.0</ele><time>2026-04-12T12:39:31.988Z</time></trkpt><trkpt lat="44.7076209" lon="7.6784842"><ele>280.0</ele><time>2026-04-12T12:39:33.988Z</time></trkpt><trkpt lat="44.7077098" lon="7.6785105"><ele>280.0</ele><time>2026-04-12T12:39:35.988Z</time></trkpt><trkpt lat="44.7078018" lon="7.6785201"><ele>280.0</ele><time>2026-04-12T12:39:37.988Z</time></trkpt><trkpt lat="44.7078979" lon="7.6785264"><ele>280.0</ele><time>2026-04-12T12:39:39.988Z</time></trkpt><trkpt lat="44.7079919" lon="7.6785454"><ele>280.0</ele><time>2026-04-12T12:39:41.988Z</time></trkpt><trkpt lat="44.7080788" lon="7.6785643"><ele>279.8333333333333</ele><time>2026-04-12T12:39:43.988Z</time></trkpt><trkpt lat="44.7081634" lon="7.6785733"><ele>279.66666666666663</ele><time>2026-04-12T12:39:45.988Z</time></trkpt><trkpt lat="44.7082465" lon="7.6785842"><ele>279.5</ele><time>2026-04-12T12:39:47.988Z</time></trkpt><trkpt lat="44.708323" lon="7.6785959"><ele>279.3333333333333</ele><time>2026-04-12T12:39:49.988Z</time></trkpt><trkpt lat="44.7083995" lon="7.6786164"><ele>279.1666666666667</ele><time>2026-04-12T12:39:51.988Z</time></trkpt><trkpt lat="44.7084847" lon="7.6786345"><ele>279.0</ele><time>2026-04-12T12:39:53.988Z</time></trkpt><trkpt lat="44.7085738" lon="7.6786622"><ele>279.4</ele><time>2026-04-12T12:39:55.988Z</time></trkpt><trkpt lat="44.7086687" lon="7.6786968"><ele>279.79999999999995</ele><time>2026-04-12T12:39:57.988Z</time></trkpt><trkpt lat="44.708767" lon="7.6787276"><ele>280.20000000000005</ele><time>2026-04-12T12:39:59.988Z</time></trkpt><trkpt lat="44.7088625" lon="7.6787621"><ele>280.6</ele><time>2026-04-12T12:40:01.988Z</time></trkpt><trkpt lat="44.7089596" lon="7.678797"><ele>281.0</ele><time>2026-04-12T12:40:03.988Z</time></trkpt><trkpt lat="44.7090562" lon="7.6788179"><ele>281.0</ele><time>2026-04-12T12:40:05.988Z</time></trkpt><trkpt lat="44.7091627" lon="7.6788574"><ele>281.0</ele><time>2026-04-12T12:40:07.988Z</time></trkpt><trkpt lat="44.7092658" lon="7.6788922"><ele>281.0</ele><time>2026-04-12T12:40:09.988Z</time></trkpt><trkpt lat="44.70937" lon="7.6789259"><ele>281.0</ele><time>2026-04-12T12:40:11.988Z</time></trkpt><trkpt lat="44.7094752" lon="7.6789611"><ele>281.0</ele><time>2026-04-12T12:40:13.988Z</time></trkpt><trkpt lat="44.7095656" lon="7.6789988"><ele>281.2</ele><time>2026-04-12T12:40:15.988Z</time></trkpt><trkpt lat="44.7096619" lon="7.67904"><ele>281.40000000000003</ele><time>2026-04-12T12:40:17.988Z</time></trkpt><trkpt lat="44.709761" lon="7.6790866"><ele>281.6</ele><time>2026-04-12T12:40:19.988Z</time></trkpt><trkpt lat="44.7098556" lon="7.6791378"><ele>281.8</ele><time>2026-04-12T12:40:21.988Z</time></trkpt><trkpt lat="44.7099441" lon="7.6791978"><ele>282.0</ele><time>2026-04-12T12:40:23.988Z</time></trkpt><trkpt lat="44.7100352" lon="7.6792513"><ele>282.0</ele><time>2026-04-12T12:40:25.988Z</time></trkpt><trkpt lat="44.710126" lon="7.679307"><ele>282.0</ele><time>2026-04-12T12:40:27.988Z</time></trkpt><trkpt lat="44.7102165" lon="7.6793614"><ele>282.0</ele><time>2026-04-12T12:40:29.988Z</time></trkpt><trkpt lat="44.7103017" lon="7.6794174"><ele>282.0</ele><time>2026-04-12T12:40:31.988Z</time></trkpt><trkpt lat="44.7104036" lon="7.6794688"><ele>282.0</ele><time>2026-04-12T12:40:33.988Z</time></trkpt><trkpt lat="44.7105006" lon="7.6795248"><ele>282.0</ele><time>2026-04-12T12:40:35.988Z</time></trkpt><trkpt lat="44.7105949" lon="7.6795811"><ele>282.0</ele><time>2026-04-12T12:40:37.988Z</time></trkpt><trkpt lat="44.710688" lon="7.6796439"><ele>282.0</ele><time>2026-04-12T12:40:39.988Z</time></trkpt><trkpt lat="44.7107772" lon="7.6797021"><ele>282.0</ele><time>2026-04-12T12:40:41.988Z</time></trkpt><trkpt lat="44.7108729" lon="7.6797574"><ele>282.0</ele><time>2026-04-12T12:40:43.988Z</time></trkpt><trkpt lat="44.7109591" lon="7.6798091"><ele>282.0</ele><time>2026-04-12T12:40:45.988Z</time></trkpt><trkpt lat="44.7110417" lon="7.6798637"><ele>282.0</ele><time>2026-04-12T12:40:47.988Z</time></trkpt><trkpt lat="44.7111423" lon="7.6799163"><ele>282.0</ele><time>2026-04-12T12:40:49.988Z</time></trkpt><trkpt lat="44.7112448" lon="7.6799649"><ele>282.0</ele><time>2026-04-12T12:40:51.988Z</time></trkpt><trkpt lat="44.7113467" lon="7.6800171"><ele>282.0</ele><time>2026-04-12T12:40:53.988Z</time></trkpt><trkpt lat="44.7114401" lon="7.6800637"><ele>281.6</ele><time>2026-04-12T12:40:55.988Z</time></trkpt><trkpt lat="44.7115355" lon="7.6801166"><ele>281.2</ele><time>2026-04-12T12:40:57.988Z</time></trkpt><trkpt lat="44.7116368" lon="7.6801611"><ele>280.8</ele><time>2026-04-12T12:40:59.988Z</time></trkpt><trkpt lat="44.7117327" lon="7.6802027"><ele>280.4</ele><time>2026-04-12T12:41:01.988Z</time></trkpt><trkpt lat="44.7118292" lon="7.6802539"><ele>280.0</ele><time>2026-04-12T12:41:03.988Z</time></trkpt><trkpt lat="44.7119314" lon="7.6802935"><ele>280.0</ele><time>2026-04-12T12:41:05.988Z</time></trkpt><trkpt lat="44.7120314" lon="7.6803307"><ele>280.0</ele><time>2026-04-12T12:41:07.988Z</time></trkpt><trkpt lat="44.7121401" lon="7.6803509"><ele>280.0</ele><time>2026-04-12T12:41:09.988Z</time></trkpt><trkpt lat="44.7122382" lon="7.6803539"><ele>280.0</ele><time>2026-04-12T12:41:11.988Z</time></trkpt><trkpt lat="44.7123298" lon="7.680372"><ele>280.0</ele><time>2026-04-12T12:41:13.988Z</time></trkpt><trkpt lat="44.7124261" lon="7.6803957"><ele>280.0</ele><time>2026-04-12T12:41:15.988Z</time></trkpt><trkpt lat="44.7125208" lon="7.6803911"><ele>280.0</ele><time>2026-04-12T12:41:17.988Z</time></trkpt><trkpt lat="44.7126096" lon="7.6803695"><ele>280.0</ele><time>2026-04-12T12:41:19.988Z</time></trkpt><trkpt lat="44.7126975" lon="7.6803539"><ele>280.0</ele><time>2026-04-12T12:41:21.988Z</time></trkpt><trkpt lat="44.7127957" lon="7.6803384"><ele>280.0</ele><time>2026-04-12T12:41:23.988Z</time></trkpt><trkpt lat="44.7128798" lon="7.6803148"><ele>280.0</ele><time>2026-04-12T12:41:25.988Z</time></trkpt><trkpt lat="44.7129602" lon="7.6802684"><ele>280.0</ele><time>2026-04-12T12:41:27.988Z</time></trkpt><trkpt lat="44.7130319" lon="7.6802501"><ele>280.0</ele><time>2026-04-12T12:41:29.988Z</time></trkpt><trkpt lat="44.7131112" lon="7.6802562"><ele>280.0</ele><time>2026-04-12T12:41:31.988Z</time></trkpt><trkpt lat="44.7131879" lon="7.6802646"><ele>280.0</ele><time>2026-04-12T12:41:33.988Z</time></trkpt><trkpt lat="44.7132721" lon="7.6802512"><ele>280.0</ele><time>2026-04-12T12:41:35.988Z</time></trkpt><trkpt lat="44.7133597" lon="7.680246"><ele>280.0</ele><time>2026-04-12T12:41:37.988Z</time></trkpt><trkpt lat="44.7134447" lon="7.6802122"><ele>280.0</ele><time>2026-04-12T12:41:39.988Z</time></trkpt><trkpt lat="44.7135315" lon="7.680189"><ele>280.0</ele><time>2026-04-12T12:41:41.988Z</time></trkpt><trkpt lat="44.7136136" lon="7.6801985"><ele>280.0</ele><time>2026-04-12T12:41:43.988Z</time></trkpt><trkpt lat="44.7136843" lon="7.6801756"><ele>280.0</ele><time>2026-04-12T12:41:45.988Z</time></trkpt><trkpt lat="44.7137484" lon="7.6801245"><ele>280.0</ele><time>2026-04-12T12:41:47.988Z</time></trkpt><trkpt lat="44.7138206" lon="7.6800846"><ele>280.16666666666663</ele><time>2026-04-12T12:41:49.988Z</time></trkpt><trkpt lat="44.713901" lon="7.6800469"><ele>280.3333333333333</ele><time>2026-04-12T12:41:51.988Z</time></trkpt><trkpt lat="44.7139726" lon="7.6800167"><ele>280.5</ele><time>2026-04-12T12:41:53.988Z</time></trkpt><trkpt lat="44.7140457" lon="7.6800001"><ele>280.6666666666667</ele><time>2026-04-12T12:41:55.988Z</time></trkpt><trkpt lat="44.7141236" lon="7.6799856"><ele>280.83333333333337</ele><time>2026-04-12T12:41:57.988Z</time></trkpt><trkpt lat="44.7141894" lon="7.6799626"><ele>281.0</ele><time>2026-04-12T12:41:59.988Z</time></trkpt><trkpt lat="44.7142735" lon="7.6799309"><ele>281.0</ele><time>2026-04-12T12:42:02.988Z</time></trkpt><trkpt lat="44.7143429" lon="7.6799443"><ele>281.0</ele><time>2026-04-12T12:42:04.988Z</time></trkpt><trkpt lat="44.7144101" lon="7.6799343"><ele>281.0</ele><time>2026-04-12T12:42:06.988Z</time></trkpt><trkpt lat="44.714475" lon="7.6798426"><ele>281.0</ele><time>2026-04-12T12:42:08.988Z</time></trkpt><trkpt lat="44.7145468" lon="7.6798041"><ele>281.0</ele><time>2026-04-12T12:42:10.988Z</time></trkpt><trkpt lat="44.714637" lon="7.6798584"><ele>281.0</ele><time>2026-04-12T12:42:13.988Z</time></trkpt><trkpt lat="44.714719" lon="7.6798989"><ele>280.83333333333337</ele><time>2026-04-12T12:42:15.988Z</time></trkpt><trkpt lat="44.7148086" lon="7.679916"><ele>280.6666666666667</ele><time>2026-04-12T12:42:17.988Z</time></trkpt><trkpt lat="44.7148852" lon="7.6799251"><ele>280.5</ele><time>2026-04-12T12:42:19.988Z</time></trkpt><trkpt lat="44.7149681" lon="7.6799224"><ele>280.3333333333333</ele><time>2026-04-12T12:42:21.988Z</time></trkpt><trkpt lat="44.715043" lon="7.6799287"><ele>280.16666666666663</ele><time>2026-04-12T12:42:23.988Z</time></trkpt><trkpt lat="44.7151407" lon="7.6799228"><ele>280.0</ele><time>2026-04-12T12:42:25.988Z</time></trkpt><trkpt lat="44.7152401" lon="7.6799025"><ele>280.0</ele><time>2026-04-12T12:42:27.988Z</time></trkpt><trkpt lat="44.7153304" lon="7.6798879"><ele>280.0</ele><time>2026-04-12T12:42:29.988Z</time></trkpt><trkpt lat="44.7154174" lon="7.6798811"><ele>280.0</ele><time>2026-04-12T12:42:31.988Z</time></trkpt><trkpt lat="44.7155012" lon="7.6798821"><ele>280.0</ele><time>2026-04-12T12:42:33.988Z</time></trkpt><trkpt lat="44.7155907" lon="7.6799054"><ele>280.0</ele><time>2026-04-12T12:42:35.988Z</time></trkpt><trkpt lat="44.7156739" lon="7.6799471"><ele>280.0</ele><time>2026-04-12T12:42:37.988Z</time></trkpt><trkpt lat="44.7157507" lon="7.6799963"><ele>280.0</ele><time>2026-04-12T12:42:39.988Z</time></trkpt><trkpt lat="44.7158328" lon="7.6800366"><ele>280.0</ele><time>2026-04-12T12:42:41.988Z</time></trkpt><trkpt lat="44.7159135" lon="7.6800773"><ele>280.0</ele><time>2026-04-12T12:42:43.988Z</time></trkpt><trkpt lat="44.7159755" lon="7.68015"><ele>280.0</ele><time>2026-04-12T12:42:45.988Z</time></trkpt><trkpt lat="44.7160256" lon="7.680248"><ele>280.0</ele><time>2026-04-12T12:42:47.988Z</time></trkpt><trkpt lat="44.7160934" lon="7.6803202"><ele>280.0</ele><time>2026-04-12T12:42:49.988Z</time></trkpt><trkpt lat="44.7161235" lon="7.6804118"><ele>280.0</ele><time>2026-04-12T12:42:52.988Z</time></trkpt><trkpt lat="44.7161224" lon="7.6803179"><ele>280.0</ele><time>2026-04-12T12:43:04.988Z</time></trkpt><trkpt lat="44.7161978" lon="7.6803174"><ele>280.0</ele><time>2026-04-12T12:43:16.988Z</time></trkpt><trkpt lat="44.7162757" lon="7.6803283"><ele>280.0</ele><time>2026-04-12T12:43:20.988Z</time></trkpt><trkpt lat="44.7163259" lon="7.6804073"><ele>280.0</ele><time>2026-04-12T12:43:24.988Z</time></trkpt><trkpt lat="44.7163447" lon="7.6805362"><ele>280.0</ele><time>2026-04-12T12:43:27.988Z</time></trkpt><trkpt lat="44.7163539" lon="7.6806319"><ele>280.0</ele><time>2026-04-12T12:43:29.988Z</time></trkpt><trkpt lat="44.7163586" lon="7.6807362"><ele>280.0</ele><time>2026-04-12T12:43:31.988Z</time></trkpt><trkpt lat="44.7163771" lon="7.6808329"><ele>280.0</ele><time>2026-04-12T12:43:33.988Z</time></trkpt><trkpt lat="44.7164221" lon="7.6809263"><ele>280.0</ele><time>2026-04-12T12:43:35.988Z</time></trkpt><trkpt lat="44.7164957" lon="7.6810132"><ele>280.0</ele><time>2026-04-12T12:43:37.988Z</time></trkpt><trkpt lat="44.7165608" lon="7.6810974"><ele>280.0</ele><time>2026-04-12T12:43:39.988Z</time></trkpt><trkpt lat="44.7166347" lon="7.681167"><ele>279.8</ele><time>2026-04-12T12:43:41.988Z</time></trkpt><trkpt lat="44.7167176" lon="7.6812286"><ele>279.6</ele><time>2026-04-12T12:43:43.988Z</time></trkpt><trkpt lat="44.7168023" lon="7.6812769"><ele>279.4</ele><time>2026-04-12T12:43:45.988Z</time></trkpt><trkpt lat="44.7168852" lon="7.6813181"><ele>279.2</ele><time>2026-04-12T12:43:47.988Z</time></trkpt><trkpt lat="44.7169682" lon="7.6813596"><ele>279.0</ele><time>2026-04-12T12:43:49.988Z</time></trkpt><trkpt lat="44.7170559" lon="7.6814048"><ele>278.8333333333333</ele><time>2026-04-12T12:43:51.988Z</time></trkpt><trkpt lat="44.7171402" lon="7.6814461"><ele>278.6666666666667</ele><time>2026-04-12T12:43:53.988Z</time></trkpt><trkpt lat="44.7172245" lon="7.681484"><ele>278.5</ele><time>2026-04-12T12:43:55.988Z</time></trkpt><trkpt lat="44.7173083" lon="7.6815149"><ele>278.33333333333337</ele><time>2026-04-12T12:43:57.988Z</time></trkpt><trkpt lat="44.7173917" lon="7.6815322"><ele>278.1666666666667</ele><time>2026-04-12T12:43:59.988Z</time></trkpt><trkpt lat="44.7174797" lon="7.6815375"><ele>278.0</ele><time>2026-04-12T12:44:01.988Z</time></trkpt><trkpt lat="44.7175655" lon="7.681524"><ele>278.0</ele><time>2026-04-12T12:44:03.988Z</time></trkpt><trkpt lat="44.7176529" lon="7.681509"><ele>278.0</ele><time>2026-04-12T12:44:05.988Z</time></trkpt><trkpt lat="44.7177329" lon="7.6814939"><ele>278.0</ele><time>2026-04-12T12:44:07.988Z</time></trkpt><trkpt lat="44.7178165" lon="7.6814725"><ele>278.0</ele><time>2026-04-12T12:44:09.988Z</time></trkpt><trkpt lat="44.7178988" lon="7.6814424"><ele>278.0</ele><time>2026-04-12T12:44:11.988Z</time></trkpt><trkpt lat="44.7179711" lon="7.6814046"><ele>278.0</ele><time>2026-04-12T12:44:13.988Z</time></trkpt><trkpt lat="44.718054" lon="7.6813292"><ele>277.83333333333337</ele><time>2026-04-12T12:44:16.988Z</time></trkpt><trkpt lat="44.7181284" lon="7.681278"><ele>277.6666666666667</ele><time>2026-04-12T12:44:18.988Z</time></trkpt><trkpt lat="44.7182095" lon="7.6812564"><ele>277.5</ele><time>2026-04-12T12:44:20.988Z</time></trkpt><trkpt lat="44.7182801" lon="7.6812926"><ele>277.3333333333333</ele><time>2026-04-12T12:44:22.988Z</time></trkpt><trkpt lat="44.718345" lon="7.6813442"><ele>277.16666666666663</ele><time>2026-04-12T12:44:24.988Z</time></trkpt><trkpt lat="44.7184189" lon="7.6813724"><ele>277.0</ele><time>2026-04-12T12:44:27.988Z</time></trkpt><trkpt lat="44.7185077" lon="7.6813597"><ele>277.5</ele><time>2026-04-12T12:44:33.988Z</time></trkpt><trkpt lat="44.7185812" lon="7.6813445"><ele>278.0</ele><time>2026-04-12T12:44:35.988Z</time></trkpt><trkpt lat="44.7186538" lon="7.6814218"><ele>278.5</ele><time>2026-04-12T12:44:37.988Z</time></trkpt><trkpt lat="44.7187201" lon="7.6814846"><ele>279.0</ele><time>2026-04-12T12:44:39.988Z</time></trkpt><trkpt lat="44.7187881" lon="7.681528"><ele>279.5</ele><time>2026-04-12T12:44:41.988Z</time></trkpt><trkpt lat="44.7188623" lon="7.6815743"><ele>280.0</ele><time>2026-04-12T12:44:43.988Z</time></trkpt><trkpt lat="44.7189424" lon="7.6816138"><ele>280.0</ele><time>2026-04-12T12:44:45.988Z</time></trkpt><trkpt lat="44.7190242" lon="7.6816522"><ele>280.0</ele><time>2026-04-12T12:44:47.988Z</time></trkpt><trkpt lat="44.7191101" lon="7.6816373"><ele>280.0</ele><time>2026-04-12T12:44:49.988Z</time></trkpt><trkpt lat="44.7192078" lon="7.6816373"><ele>280.0</ele><time>2026-04-12T12:44:51.988Z</time></trkpt><trkpt lat="44.7192963" lon="7.6816551"><ele>280.0</ele><time>2026-04-12T12:44:53.988Z</time></trkpt><trkpt lat="44.7193904" lon="7.6816675"><ele>279.6</ele><time>2026-04-12T12:44:55.988Z</time></trkpt><trkpt lat="44.7194859" lon="7.6816887"><ele>279.2</ele><time>2026-04-12T12:44:57.988Z</time></trkpt><trkpt lat="44.7195822" lon="7.6816964"><ele>278.8</ele><time>2026-04-12T12:44:59.988Z</time></trkpt><trkpt lat="44.719668" lon="7.6816927"><ele>278.4</ele><time>2026-04-12T12:45:01.988Z</time></trkpt><trkpt lat="44.7197588" lon="7.681679"><ele>278.0</ele><time>2026-04-12T12:45:03.988Z</time></trkpt><trkpt lat="44.7198487" lon="7.6816402"><ele>278.0</ele><time>2026-04-12T12:45:05.988Z</time></trkpt><trkpt lat="44.7199375" lon="7.6815854"><ele>278.0</ele><time>2026-04-12T12:45:07.988Z</time></trkpt><trkpt lat="44.7200224" lon="7.681532"><ele>278.0</ele><time>2026-04-12T12:45:09.988Z</time></trkpt><trkpt lat="44.7201107" lon="7.6814922"><ele>278.0</ele><time>2026-04-12T12:45:11.988Z</time></trkpt><trkpt lat="44.720203" lon="7.6814552"><ele>278.0</ele><time>2026-04-12T12:45:13.988Z</time></trkpt><trkpt lat="44.7202788" lon="7.6814117"><ele>277.83333333333337</ele><time>2026-04-12T12:45:15.988Z</time></trkpt><trkpt lat="44.7203658" lon="7.6813645"><ele>277.6666666666667</ele><time>2026-04-12T12:45:17.988Z</time></trkpt><trkpt lat="44.7204428" lon="7.6813229"><ele>277.5</ele><time>2026-04-12T12:45:19.988Z</time></trkpt><trkpt lat="44.7205122" lon="7.6812988"><ele>277.3333333333333</ele><time>2026-04-12T12:45:21.988Z</time></trkpt><trkpt lat="44.7206191" lon="7.6812694"><ele>277.16666666666663</ele><time>2026-04-12T12:45:23.988Z</time></trkpt><trkpt lat="44.7207001" lon="7.681234"><ele>277.0</ele><time>2026-04-12T12:45:25.988Z</time></trkpt><trkpt lat="44.720781" lon="7.6811812"><ele>277.0</ele><time>2026-04-12T12:45:27.988Z</time></trkpt><trkpt lat="44.7208665" lon="7.6811318"><ele>277.0</ele><time>2026-04-12T12:45:29.988Z</time></trkpt><trkpt lat="44.7209532" lon="7.6810712"><ele>277.0</ele><time>2026-04-12T12:45:31.988Z</time></trkpt><trkpt lat="44.7210428" lon="7.6810105"><ele>277.0</ele><time>2026-04-12T12:45:33.988Z</time></trkpt><trkpt lat="44.7211163" lon="7.680967"><ele>277.0</ele><time>2026-04-12T12:45:35.988Z</time></trkpt><trkpt lat="44.7211891" lon="7.680925"><ele>277.0</ele><time>2026-04-12T12:45:37.988Z</time></trkpt><trkpt lat="44.7212547" lon="7.6808831"><ele>277.0</ele><time>2026-04-12T12:45:39.988Z</time></trkpt><trkpt lat="44.7213217" lon="7.6808422"><ele>277.0</ele><time>2026-04-12T12:45:41.988Z</time></trkpt><trkpt lat="44.7213828" lon="7.6808016"><ele>277.0</ele><time>2026-04-12T12:45:44.988Z</time></trkpt><trkpt lat="44.7214473" lon="7.6807582"><ele>277.0</ele><time>2026-04-12T12:45:47.988Z</time></trkpt><trkpt lat="44.7215162" lon="7.68071"><ele>277.0</ele><time>2026-04-12T12:45:49.988Z</time></trkpt><trkpt lat="44.7215941" lon="7.6806611"><ele>277.0</ele><time>2026-04-12T12:45:51.988Z</time></trkpt><trkpt lat="44.721681" lon="7.6806128"><ele>277.0</ele><time>2026-04-12T12:45:53.988Z</time></trkpt><trkpt lat="44.7217594" lon="7.6805648"><ele>277.0</ele><time>2026-04-12T12:45:55.988Z</time></trkpt><trkpt lat="44.7218373" lon="7.6805226"><ele>277.0</ele><time>2026-04-12T12:45:57.988Z</time></trkpt><trkpt lat="44.7219295" lon="7.6804874"><ele>277.0</ele><time>2026-04-12T12:45:59.988Z</time></trkpt><trkpt lat="44.722019" lon="7.6804585"><ele>277.0</ele><time>2026-04-12T12:46:01.988Z</time></trkpt><trkpt lat="44.722099" lon="7.6804348"><ele>277.0</ele><time>2026-04-12T12:46:03.988Z</time></trkpt><trkpt lat="44.7221745" lon="7.6803951"><ele>276.8333333333333</ele><time>2026-04-12T12:46:05.988Z</time></trkpt><trkpt lat="44.722254" lon="7.6803519"><ele>276.66666666666663</ele><time>2026-04-12T12:46:07.988Z</time></trkpt><trkpt lat="44.722339" lon="7.6803127"><ele>276.5</ele><time>2026-04-12T12:46:09.988Z</time></trkpt><trkpt lat="44.7224254" lon="7.6802835"><ele>276.3333333333333</ele><time>2026-04-12T12:46:11.988Z</time></trkpt><trkpt lat="44.7225112" lon="7.6802441"><ele>276.1666666666667</ele><time>2026-04-12T12:46:13.988Z</time></trkpt><trkpt lat="44.7225909" lon="7.6802018"><ele>276.0</ele><time>2026-04-12T12:46:15.988Z</time></trkpt><trkpt lat="44.7226639" lon="7.6801487"><ele>276.0</ele><time>2026-04-12T12:46:17.988Z</time></trkpt><trkpt lat="44.722737" lon="7.6800968"><ele>276.0</ele><time>2026-04-12T12:46:19.988Z</time></trkpt><trkpt lat="44.7228224" lon="7.6800628"><ele>276.0</ele><time>2026-04-12T12:46:21.988Z</time></trkpt><trkpt lat="44.7229154" lon="7.6800412"><ele>276.0</ele><time>2026-04-12T12:46:23.988Z</time></trkpt><trkpt lat="44.7230125" lon="7.6800219"><ele>276.0</ele><time>2026-04-12T12:46:25.988Z</time></trkpt><trkpt lat="44.723108" lon="7.6800312"><ele>276.0</ele><time>2026-04-12T12:46:27.988Z</time></trkpt><trkpt lat="44.7231852" lon="7.6800654"><ele>276.0</ele><time>2026-04-12T12:46:29.988Z</time></trkpt><trkpt lat="44.7232575" lon="7.6800986"><ele>276.0</ele><time>2026-04-12T12:46:31.988Z</time></trkpt><trkpt lat="44.7233273" lon="7.6800487"><ele>276.0</ele><time>2026-04-12T12:46:33.988Z</time></trkpt><trkpt lat="44.7233981" lon="7.6799669"><ele>276.0</ele><time>2026-04-12T12:46:35.988Z</time></trkpt><trkpt lat="44.7234621" lon="7.6798982"><ele>276.0</ele><time>2026-04-12T12:46:37.988Z</time></trkpt><trkpt lat="44.7235386" lon="7.6798305"><ele>276.2</ele><time>2026-04-12T12:46:39.988Z</time></trkpt><trkpt lat="44.7236226" lon="7.6797918"><ele>276.40000000000003</ele><time>2026-04-12T12:46:41.988Z</time></trkpt><trkpt lat="44.7237155" lon="7.6797803"><ele>276.6</ele><time>2026-04-12T12:46:43.988Z</time></trkpt><trkpt lat="44.7238239" lon="7.6797912"><ele>276.8</ele><time>2026-04-12T12:46:45.988Z</time></trkpt><trkpt lat="44.7239299" lon="7.6797809"><ele>277.0</ele><time>2026-04-12T12:46:47.988Z</time></trkpt><trkpt lat="44.7240254" lon="7.6797461"><ele>277.0</ele><time>2026-04-12T12:46:49.988Z</time></trkpt><trkpt lat="44.724114" lon="7.6796854"><ele>277.0</ele><time>2026-04-12T12:46:51.988Z</time></trkpt><trkpt lat="44.7242006" lon="7.6796851"><ele>277.0</ele><time>2026-04-12T12:46:53.988Z</time></trkpt><trkpt lat="44.7242926" lon="7.6797084"><ele>277.0</ele><time>2026-04-12T12:46:55.988Z</time></trkpt><trkpt lat="44.724374" lon="7.6797088"><ele>277.0</ele><time>2026-04-12T12:46:57.988Z</time></trkpt><trkpt lat="44.7244767" lon="7.6796731"><ele>277.0</ele><time>2026-04-12T12:46:59.988Z</time></trkpt><trkpt lat="44.724553" lon="7.6796381"><ele>277.0</ele><time>2026-04-12T12:47:01.988Z</time></trkpt><trkpt lat="44.7246332" lon="7.6796026"><ele>277.0</ele><time>2026-04-12T12:47:03.988Z</time></trkpt><trkpt lat="44.7247199" lon="7.6795449"><ele>277.0</ele><time>2026-04-12T12:47:05.988Z</time></trkpt><trkpt lat="44.7248071" lon="7.6794881"><ele>277.0</ele><time>2026-04-12T12:47:07.988Z</time></trkpt><trkpt lat="44.7248876" lon="7.6794496"><ele>277.0</ele><time>2026-04-12T12:47:09.988Z</time></trkpt><trkpt lat="44.7249744" lon="7.6793943"><ele>277.0</ele><time>2026-04-12T12:47:11.988Z</time></trkpt><trkpt lat="44.7250685" lon="7.6793372"><ele>277.0</ele><time>2026-04-12T12:47:13.988Z</time></trkpt><trkpt lat="44.7251646" lon="7.6792729"><ele>277.0</ele><time>2026-04-12T12:47:15.988Z</time></trkpt><trkpt lat="44.7252541" lon="7.6792035"><ele>277.0</ele><time>2026-04-12T12:47:17.988Z</time></trkpt><trkpt lat="44.725352" lon="7.6791328"><ele>277.0</ele><time>2026-04-12T12:47:19.988Z</time></trkpt><trkpt lat="44.7254339" lon="7.6790682"><ele>276.6</ele><time>2026-04-12T12:47:21.988Z</time></trkpt><trkpt lat="44.7255048" lon="7.6790188"><ele>276.2</ele><time>2026-04-12T12:47:23.988Z</time></trkpt><trkpt lat="44.7255879" lon="7.6789489"><ele>275.8</ele><time>2026-04-12T12:47:25.988Z</time></trkpt><trkpt lat="44.7256612" lon="7.6788837"><ele>275.4</ele><time>2026-04-12T12:47:27.988Z</time></trkpt><trkpt lat="44.7257369" lon="7.6787939"><ele>275.0</ele><time>2026-04-12T12:47:29.988Z</time></trkpt><trkpt lat="44.7258044" lon="7.6787084"><ele>275.0</ele><time>2026-04-12T12:47:31.988Z</time></trkpt><trkpt lat="44.7258732" lon="7.6786158"><ele>275.0</ele><time>2026-04-12T12:47:33.988Z</time></trkpt><trkpt lat="44.7259411" lon="7.6785178"><ele>275.0</ele><time>2026-04-12T12:47:35.988Z</time></trkpt><trkpt lat="44.7260194" lon="7.678448"><ele>275.0</ele><time>2026-04-12T12:47:37.988Z</time></trkpt><trkpt lat="44.7260859" lon="7.678374"><ele>275.0</ele><time>2026-04-12T12:47:39.988Z</time></trkpt><trkpt lat="44.726153" lon="7.6782873"><ele>274.33333333333337</ele><time>2026-04-12T12:47:41.988Z</time></trkpt><trkpt lat="44.726212" lon="7.6782014"><ele>273.6666666666667</ele><time>2026-04-12T12:47:43.988Z</time></trkpt><trkpt lat="44.7262873" lon="7.6781516"><ele>273.0</ele><time>2026-04-12T12:47:45.988Z</time></trkpt><trkpt lat="44.7263687" lon="7.6781364"><ele>272.3333333333333</ele><time>2026-04-12T12:47:47.988Z</time></trkpt><trkpt lat="44.7264523" lon="7.678112"><ele>271.66666666666663</ele><time>2026-04-12T12:47:49.988Z</time></trkpt><trkpt lat="44.7265339" lon="7.6780494"><ele>271.0</ele><time>2026-04-12T12:47:51.988Z</time></trkpt><trkpt lat="44.7266125" lon="7.6779639"><ele>271.0</ele><time>2026-04-12T12:47:53.988Z</time></trkpt><trkpt lat="44.7266987" lon="7.6778742"><ele>271.0</ele><time>2026-04-12T12:47:55.988Z</time></trkpt><trkpt lat="44.7267935" lon="7.677781"><ele>271.0</ele><time>2026-04-12T12:47:57.988Z</time></trkpt><trkpt lat="44.7268888" lon="7.6776833"><ele>271.0</ele><time>2026-04-12T12:47:59.988Z</time></trkpt><trkpt lat="44.7269908" lon="7.6776073"><ele>271.40000000000003</ele><time>2026-04-12T12:48:01.988Z</time></trkpt><trkpt lat="44.7270892" lon="7.6775474"><ele>271.8</ele><time>2026-04-12T12:48:03.988Z</time></trkpt><trkpt lat="44.7271952" lon="7.6774955"><ele>272.20000000000005</ele><time>2026-04-12T12:48:05.988Z</time></trkpt><trkpt lat="44.727297" lon="7.6774545"><ele>272.6</ele><time>2026-04-12T12:48:07.988Z</time></trkpt><trkpt lat="44.727395" lon="7.6774112"><ele>273.0</ele><time>2026-04-12T12:48:09.988Z</time></trkpt><trkpt lat="44.7274236" lon="7.6773024"><ele>273.0</ele><time>2026-04-12T12:48:11.988Z</time></trkpt><trkpt lat="44.7274241" lon="7.6772029"><ele>273.0</ele><time>2026-04-12T12:48:13.988Z</time></trkpt><trkpt lat="44.727409" lon="7.6770979"><ele>273.0</ele><time>2026-04-12T12:48:15.988Z</time></trkpt><trkpt lat="44.7273922" lon="7.6769722"><ele>273.0</ele><time>2026-04-12T12:48:18.988Z</time></trkpt><trkpt lat="44.7273872" lon="7.6768817"><ele>273.0</ele><time>2026-04-12T12:48:20.988Z</time></trkpt><trkpt lat="44.7273707" lon="7.6767802"><ele>273.0</ele><time>2026-04-12T12:48:22.988Z</time></trkpt><trkpt lat="44.7273557" lon="7.6766683"><ele>273.1666666666667</ele><time>2026-04-12T12:48:24.988Z</time></trkpt><trkpt lat="44.7273447" lon="7.6765594"><ele>273.3333333333333</ele><time>2026-04-12T12:48:26.988Z</time></trkpt><trkpt lat="44.7273368" lon="7.6764392"><ele>273.5</ele><time>2026-04-12T12:48:28.988Z</time></trkpt><trkpt lat="44.7273668" lon="7.6763322"><ele>273.66666666666663</ele><time>2026-04-12T12:48:30.988Z</time></trkpt><trkpt lat="44.7274457" lon="7.6762849"><ele>273.8333333333333</ele><time>2026-04-12T12:48:32.988Z</time></trkpt><trkpt lat="44.7275333" lon="7.6762678"><ele>274.0</ele><time>2026-04-12T12:48:34.988Z</time></trkpt><trkpt lat="44.7276217" lon="7.6762505"><ele>274.0</ele><time>2026-04-12T12:48:36.988Z</time></trkpt><trkpt lat="44.7277101" lon="7.676228"><ele>274.0</ele><time>2026-04-12T12:48:38.988Z</time></trkpt><trkpt lat="44.7277991" lon="7.676211"><ele>274.0</ele><time>2026-04-12T12:48:40.988Z</time></trkpt><trkpt lat="44.7278807" lon="7.6761962"><ele>274.0</ele><time>2026-04-12T12:48:42.988Z</time></trkpt><trkpt lat="44.7279619" lon="7.6761771"><ele>274.0</ele><time>2026-04-12T12:48:44.988Z</time></trkpt><trkpt lat="44.7280444" lon="7.6761567"><ele>274.0</ele><time>2026-04-12T12:48:46.988Z</time></trkpt><trkpt lat="44.7281229" lon="7.6761434"><ele>274.16666666666663</ele><time>2026-04-12T12:48:48.988Z</time></trkpt><trkpt lat="44.7282076" lon="7.676132"><ele>274.3333333333333</ele><time>2026-04-12T12:48:50.988Z</time></trkpt><trkpt lat="44.7282961" lon="7.6761273"><ele>274.5</ele><time>2026-04-12T12:48:52.988Z</time></trkpt><trkpt lat="44.7283835" lon="7.6761241"><ele>274.6666666666667</ele><time>2026-04-12T12:48:54.988Z</time></trkpt><trkpt lat="44.7284746" lon="7.676122"><ele>274.83333333333337</ele><time>2026-04-12T12:48:56.988Z</time></trkpt><trkpt lat="44.7285619" lon="7.6761209"><ele>275.0</ele><time>2026-04-12T12:48:58.988Z</time></trkpt><trkpt lat="44.7286482" lon="7.6761221"><ele>274.6666666666667</ele><time>2026-04-12T12:49:00.988Z</time></trkpt><trkpt lat="44.7287186" lon="7.6761172"><ele>274.33333333333337</ele><time>2026-04-12T12:49:02.988Z</time></trkpt><trkpt lat="44.7287945" lon="7.6761172"><ele>274.0</ele><time>2026-04-12T12:49:04.988Z</time></trkpt><trkpt lat="44.7288882" lon="7.6760805"><ele>273.6666666666667</ele><time>2026-04-12T12:49:06.988Z</time></trkpt><trkpt lat="44.7289743" lon="7.6760127"><ele>273.3333333333333</ele><time>2026-04-12T12:49:08.988Z</time></trkpt><trkpt lat="44.7290617" lon="7.6759544"><ele>273.0</ele><time>2026-04-12T12:49:10.988Z</time></trkpt><trkpt lat="44.7291405" lon="7.6758929"><ele>273.0</ele><time>2026-04-12T12:49:12.988Z</time></trkpt><trkpt lat="44.7292189" lon="7.6758267"><ele>273.0</ele><time>2026-04-12T12:49:14.988Z</time></trkpt><trkpt lat="44.7293005" lon="7.675753"><ele>273.0</ele><time>2026-04-12T12:49:16.988Z</time></trkpt><trkpt lat="44.7293848" lon="7.6756849"><ele>273.0</ele><time>2026-04-12T12:49:18.988Z</time></trkpt><trkpt lat="44.7294703" lon="7.6756191"><ele>273.0</ele><time>2026-04-12T12:49:20.988Z</time></trkpt><trkpt lat="44.7295568" lon="7.6755565"><ele>272.4</ele><time>2026-04-12T12:49:22.988Z</time></trkpt><trkpt lat="44.7296447" lon="7.6754976"><ele>271.8</ele><time>2026-04-12T12:49:24.988Z</time></trkpt><trkpt lat="44.7297316" lon="7.675446"><ele>271.2</ele><time>2026-04-12T12:49:26.988Z</time></trkpt><trkpt lat="44.7298218" lon="7.6753902"><ele>270.6</ele><time>2026-04-12T12:49:28.988Z</time></trkpt><trkpt lat="44.7299105" lon="7.6753326"><ele>270.0</ele><time>2026-04-12T12:49:30.988Z</time></trkpt><trkpt lat="44.7299965" lon="7.6752765"><ele>270.8</ele><time>2026-04-12T12:49:32.988Z</time></trkpt><trkpt lat="44.7300906" lon="7.6752168"><ele>271.6</ele><time>2026-04-12T12:49:34.988Z</time></trkpt><trkpt lat="44.7301852" lon="7.6751572"><ele>272.4</ele><time>2026-04-12T12:49:36.988Z</time></trkpt><trkpt lat="44.7302762" lon="7.6750954"><ele>273.2</ele><time>2026-04-12T12:49:38.988Z</time></trkpt><trkpt lat="44.7303673" lon="7.6750354"><ele>274.0</ele><time>2026-04-12T12:49:40.988Z</time></trkpt><trkpt lat="44.7304557" lon="7.6749763"><ele>274.0</ele><time>2026-04-12T12:49:42.988Z</time></trkpt><trkpt lat="44.7305429" lon="7.6749147"><ele>274.0</ele><time>2026-04-12T12:49:44.988Z</time></trkpt><trkpt lat="44.7306304" lon="7.6748547"><ele>274.0</ele><time>2026-04-12T12:49:46.988Z</time></trkpt><trkpt lat="44.7307264" lon="7.6747839"><ele>274.0</ele><time>2026-04-12T12:49:48.988Z</time></trkpt><trkpt lat="44.7308079" lon="7.6747115"><ele>274.0</ele><time>2026-04-12T12:49:50.988Z</time></trkpt><trkpt lat="44.730889" lon="7.6746304"><ele>274.0</ele><time>2026-04-12T12:49:52.988Z</time></trkpt><trkpt lat="44.7309673" lon="7.6745481"><ele>274.0</ele><time>2026-04-12T12:49:54.988Z</time></trkpt><trkpt lat="44.7310518" lon="7.6744724"><ele>274.0</ele><time>2026-04-12T12:49:56.988Z</time></trkpt><trkpt lat="44.7311367" lon="7.674401"><ele>274.0</ele><time>2026-04-12T12:49:58.988Z</time></trkpt><trkpt lat="44.7312227" lon="7.6743293"><ele>274.0</ele><time>2026-04-12T12:50:00.988Z</time></trkpt><trkpt lat="44.7313102" lon="7.6742606"><ele>274.2</ele><time>2026-04-12T12:50:02.988Z</time></trkpt><trkpt lat="44.731393" lon="7.6741835"><ele>274.4</ele><time>2026-04-12T12:50:04.988Z</time></trkpt><trkpt lat="44.7314779" lon="7.6741155"><ele>274.6</ele><time>2026-04-12T12:50:06.988Z</time></trkpt><trkpt lat="44.7315624" lon="7.674049"><ele>274.8</ele><time>2026-04-12T12:50:08.988Z</time></trkpt><trkpt lat="44.7316466" lon="7.6739764"><ele>275.0</ele><time>2026-04-12T12:50:10.988Z</time></trkpt><trkpt lat="44.7317337" lon="7.6738992"><ele>275.0</ele><time>2026-04-12T12:50:12.988Z</time></trkpt><trkpt lat="44.7318222" lon="7.6738294"><ele>275.0</ele><time>2026-04-12T12:50:14.988Z</time></trkpt><trkpt lat="44.7319104" lon="7.6737653"><ele>275.0</ele><time>2026-04-12T12:50:16.988Z</time></trkpt><trkpt lat="44.7319943" lon="7.6737065"><ele>275.0</ele><time>2026-04-12T12:50:18.988Z</time></trkpt><trkpt lat="44.7320777" lon="7.6736575"><ele>275.0</ele><time>2026-04-12T12:50:20.988Z</time></trkpt><trkpt lat="44.732159" lon="7.6736036"><ele>274.5</ele><time>2026-04-12T12:50:22.988Z</time></trkpt><trkpt lat="44.7322439" lon="7.6735564"><ele>274.0</ele><time>2026-04-12T12:50:24.988Z</time></trkpt><trkpt lat="44.7323242" lon="7.6735051"><ele>273.5</ele><time>2026-04-12T12:50:26.988Z</time></trkpt><trkpt lat="44.7324068" lon="7.6734553"><ele>273.0</ele><time>2026-04-12T12:50:28.988Z</time></trkpt><trkpt lat="44.7324876" lon="7.6734043"><ele>272.5</ele><time>2026-04-12T12:50:30.988Z</time></trkpt><trkpt lat="44.7325709" lon="7.6733528"><ele>272.0</ele><time>2026-04-12T12:50:32.988Z</time></trkpt><trkpt lat="44.7326556" lon="7.673304"><ele>271.2</ele><time>2026-04-12T12:50:34.988Z</time></trkpt><trkpt lat="44.7327422" lon="7.6732536"><ele>270.4</ele><time>2026-04-12T12:50:36.988Z</time></trkpt><trkpt lat="44.7328293" lon="7.6732148"><ele>269.6</ele><time>2026-04-12T12:50:38.988Z</time></trkpt><trkpt lat="44.7329116" lon="7.6731752"><ele>268.8</ele><time>2026-04-12T12:50:40.988Z</time></trkpt><trkpt lat="44.732998" lon="7.6731536"><ele>268.0</ele><time>2026-04-12T12:50:42.988Z</time></trkpt><trkpt lat="44.7330909" lon="7.6731202"><ele>268.0</ele><time>2026-04-12T12:50:44.988Z</time></trkpt><trkpt lat="44.7331749" lon="7.6730745"><ele>268.0</ele><time>2026-04-12T12:50:46.988Z</time></trkpt><trkpt lat="44.7332607" lon="7.6730177"><ele>268.0</ele><time>2026-04-12T12:50:48.988Z</time></trkpt><trkpt lat="44.7333452" lon="7.6729524"><ele>268.0</ele><time>2026-04-12T12:50:50.988Z</time></trkpt><trkpt lat="44.7334224" lon="7.6728716"><ele>268.0</ele><time>2026-04-12T12:50:52.988Z</time></trkpt><trkpt lat="44.733502" lon="7.6727994"><ele>267.8</ele><time>2026-04-12T12:50:54.988Z</time></trkpt><trkpt lat="44.7335863" lon="7.67275"><ele>267.6</ele><time>2026-04-12T12:50:56.988Z</time></trkpt><trkpt lat="44.733679" lon="7.6727184"><ele>267.4</ele><time>2026-04-12T12:50:58.988Z</time></trkpt><trkpt lat="44.7337671" lon="7.672694"><ele>267.2</ele><time>2026-04-12T12:51:00.988Z</time></trkpt><trkpt lat="44.7338626" lon="7.6726758"><ele>267.0</ele><time>2026-04-12T12:51:02.988Z</time></trkpt><trkpt lat="44.7339529" lon="7.67267"><ele>267.0</ele><time>2026-04-12T12:51:04.988Z</time></trkpt><trkpt lat="44.7340394" lon="7.6726556"><ele>267.0</ele><time>2026-04-12T12:51:06.988Z</time></trkpt><trkpt lat="44.7341284" lon="7.672651"><ele>267.0</ele><time>2026-04-12T12:51:08.988Z</time></trkpt><trkpt lat="44.734222" lon="7.6726467"><ele>267.0</ele><time>2026-04-12T12:51:10.988Z</time></trkpt><trkpt lat="44.7343185" lon="7.6726492"><ele>267.0</ele><time>2026-04-12T12:51:12.988Z</time></trkpt><trkpt lat="44.7344175" lon="7.6726572"><ele>267.2</ele><time>2026-04-12T12:51:14.988Z</time></trkpt><trkpt lat="44.7345105" lon="7.6726677"><ele>267.4</ele><time>2026-04-12T12:51:16.988Z</time></trkpt><trkpt lat="44.7346123" lon="7.6726774"><ele>267.6</ele><time>2026-04-12T12:51:18.988Z</time></trkpt><trkpt lat="44.7347213" lon="7.6726805"><ele>267.8</ele><time>2026-04-12T12:51:20.988Z</time></trkpt><trkpt lat="44.7348253" lon="7.6726779"><ele>268.0</ele><time>2026-04-12T12:51:22.988Z</time></trkpt><trkpt lat="44.7349284" lon="7.6726633"><ele>268.0</ele><time>2026-04-12T12:51:24.988Z</time></trkpt><trkpt lat="44.7350291" lon="7.6726672"><ele>268.0</ele><time>2026-04-12T12:51:26.988Z</time></trkpt><trkpt lat="44.7351288" lon="7.6726797"><ele>268.0</ele><time>2026-04-12T12:51:28.988Z</time></trkpt><trkpt lat="44.7352278" lon="7.6727088"><ele>268.0</ele><time>2026-04-12T12:51:30.988Z</time></trkpt><trkpt lat="44.7353121" lon="7.6727474"><ele>268.0</ele><time>2026-04-12T12:51:32.988Z</time></trkpt><trkpt lat="44.7353891" lon="7.672784"><ele>268.16666666666663</ele><time>2026-04-12T12:51:34.988Z</time></trkpt><trkpt lat="44.7354667" lon="7.6728128"><ele>268.3333333333333</ele><time>2026-04-12T12:51:36.988Z</time></trkpt><trkpt lat="44.7355529" lon="7.6728131"><ele>268.5</ele><time>2026-04-12T12:51:38.988Z</time></trkpt><trkpt lat="44.7356359" lon="7.6727782"><ele>268.6666666666667</ele><time>2026-04-12T12:51:40.988Z</time></trkpt><trkpt lat="44.7357043" lon="7.6727126"><ele>268.83333333333337</ele><time>2026-04-12T12:51:42.988Z</time></trkpt><trkpt lat="44.7357735" lon="7.6726379"><ele>269.0</ele><time>2026-04-12T12:51:44.988Z</time></trkpt><trkpt lat="44.735841" lon="7.6725604"><ele>269.0</ele><time>2026-04-12T12:51:46.988Z</time></trkpt><trkpt lat="44.7359094" lon="7.6724864"><ele>269.0</ele><time>2026-04-12T12:51:48.988Z</time></trkpt><trkpt lat="44.7359753" lon="7.6724087"><ele>269.0</ele><time>2026-04-12T12:51:50.988Z</time></trkpt><trkpt lat="44.736036" lon="7.67233"><ele>269.0</ele><time>2026-04-12T12:51:52.988Z</time></trkpt><trkpt lat="44.7360933" lon="7.6722673"><ele>269.0</ele><time>2026-04-12T12:51:54.988Z</time></trkpt><trkpt lat="44.7361516" lon="7.672203"><ele>269.0</ele><time>2026-04-12T12:51:56.988Z</time></trkpt><trkpt lat="44.7362133" lon="7.6721367"><ele>269.0</ele><time>2026-04-12T12:51:58.988Z</time></trkpt><trkpt lat="44.7362782" lon="7.6720559"><ele>269.0</ele><time>2026-04-12T12:52:00.988Z</time></trkpt><trkpt lat="44.7363482" lon="7.6719778"><ele>269.0</ele><time>2026-04-12T12:52:02.988Z</time></trkpt><trkpt lat="44.7364175" lon="7.6719023"><ele>269.0</ele><time>2026-04-12T12:52:04.988Z</time></trkpt><trkpt lat="44.7364855" lon="7.6718156"><ele>269.0</ele><time>2026-04-12T12:52:06.988Z</time></trkpt><trkpt lat="44.7365642" lon="7.6717218"><ele>268.8</ele><time>2026-04-12T12:52:08.988Z</time></trkpt><trkpt lat="44.7366436" lon="7.6716354"><ele>268.59999999999997</ele><time>2026-04-12T12:52:10.988Z</time></trkpt><trkpt lat="44.7367284" lon="7.6715677"><ele>268.4</ele><time>2026-04-12T12:52:12.988Z</time></trkpt><trkpt lat="44.7368264" lon="7.6715202"><ele>268.2</ele><time>2026-04-12T12:52:14.988Z</time></trkpt><trkpt lat="44.7369206" lon="7.671466"><ele>268.0</ele><time>2026-04-12T12:52:16.988Z</time></trkpt><trkpt lat="44.7370048" lon="7.6713808"><ele>267.6</ele><time>2026-04-12T12:52:18.988Z</time></trkpt><trkpt lat="44.7370768" lon="7.6712823"><ele>267.20000000000005</ele><time>2026-04-12T12:52:20.988Z</time></trkpt><trkpt lat="44.7371423" lon="7.6711696"><ele>266.8</ele><time>2026-04-12T12:52:22.988Z</time></trkpt><trkpt lat="44.7371945" lon="7.6710471"><ele>266.40000000000003</ele><time>2026-04-12T12:52:24.988Z</time></trkpt><trkpt lat="44.7372437" lon="7.670925"><ele>266.0</ele><time>2026-04-12T12:52:26.988Z</time></trkpt><trkpt lat="44.7372909" lon="7.6708123"><ele>266.0</ele><time>2026-04-12T12:52:28.988Z</time></trkpt><trkpt lat="44.7373364" lon="7.6706966"><ele>266.0</ele><time>2026-04-12T12:52:30.988Z</time></trkpt><trkpt lat="44.7373858" lon="7.6705822"><ele>266.0</ele><time>2026-04-12T12:52:32.988Z</time></trkpt><trkpt lat="44.7374434" lon="7.6704816"><ele>266.0</ele><time>2026-04-12T12:52:34.988Z</time></trkpt><trkpt lat="44.7375075" lon="7.6703894"><ele>266.0</ele><time>2026-04-12T12:52:36.988Z</time></trkpt><trkpt lat="44.7375812" lon="7.6703019"><ele>266.0</ele><time>2026-04-12T12:52:38.988Z</time></trkpt><trkpt lat="44.737666" lon="7.6702172"><ele>266.0</ele><time>2026-04-12T12:52:40.988Z</time></trkpt><trkpt lat="44.7377459" lon="7.670131"><ele>266.0</ele><time>2026-04-12T12:52:42.988Z</time></trkpt><trkpt lat="44.7378307" lon="7.6700643"><ele>266.0</ele><time>2026-04-12T12:52:44.988Z</time></trkpt><trkpt lat="44.7379073" lon="7.6700116"><ele>266.0</ele><time>2026-04-12T12:52:46.988Z</time></trkpt><trkpt lat="44.7379894" lon="7.6699639"><ele>266.0</ele><time>2026-04-12T12:52:48.988Z</time></trkpt><trkpt lat="44.7380714" lon="7.6699066"><ele>266.0</ele><time>2026-04-12T12:52:50.988Z</time></trkpt><trkpt lat="44.7381517" lon="7.669852"><ele>266.0</ele><time>2026-04-12T12:52:52.988Z</time></trkpt><trkpt lat="44.7382317" lon="7.6698003"><ele>266.0</ele><time>2026-04-12T12:52:54.988Z</time></trkpt><trkpt lat="44.7383028" lon="7.6697425"><ele>266.0</ele><time>2026-04-12T12:52:56.988Z</time></trkpt><trkpt lat="44.7383611" lon="7.6696498"><ele>266.0</ele><time>2026-04-12T12:52:58.988Z</time></trkpt><trkpt lat="44.7383998" lon="7.6695427"><ele>266.1666666666667</ele><time>2026-04-12T12:53:00.988Z</time></trkpt><trkpt lat="44.7384102" lon="7.6694246"><ele>266.33333333333337</ele><time>2026-04-12T12:53:02.988Z</time></trkpt><trkpt lat="44.7384075" lon="7.6693066"><ele>266.5</ele><time>2026-04-12T12:53:04.988Z</time></trkpt><trkpt lat="44.7384028" lon="7.6691859"><ele>266.6666666666667</ele><time>2026-04-12T12:53:06.988Z</time></trkpt><trkpt lat="44.7384172" lon="7.6690542"><ele>266.8333333333333</ele><time>2026-04-12T12:53:08.988Z</time></trkpt><trkpt lat="44.7384717" lon="7.6689513"><ele>267.0</ele><time>2026-04-12T12:53:10.988Z</time></trkpt><trkpt lat="44.7385456" lon="7.6688677"><ele>267.0</ele><time>2026-04-12T12:53:12.988Z</time></trkpt><trkpt lat="44.7386272" lon="7.668795"><ele>267.0</ele><time>2026-04-12T12:53:14.988Z</time></trkpt><trkpt lat="44.7387044" lon="7.668715"><ele>267.0</ele><time>2026-04-12T12:53:16.988Z</time></trkpt><trkpt lat="44.7387762" lon="7.6686457"><ele>267.0</ele><time>2026-04-12T12:53:18.988Z</time></trkpt><trkpt lat="44.7388454" lon="7.6685791"><ele>267.0</ele><time>2026-04-12T12:53:20.988Z</time></trkpt><trkpt lat="44.7389117" lon="7.6685066"><ele>267.0</ele><time>2026-04-12T12:53:22.988Z</time></trkpt><trkpt lat="44.7389855" lon="7.6684156"><ele>267.0</ele><time>2026-04-12T12:53:24.988Z</time></trkpt><trkpt lat="44.7390474" lon="7.6683152"><ele>267.0</ele><time>2026-04-12T12:53:26.988Z</time></trkpt><trkpt lat="44.7391006" lon="7.6682128"><ele>267.0</ele><time>2026-04-12T12:53:28.988Z</time></trkpt><trkpt lat="44.7391493" lon="7.6680965"><ele>267.0</ele><time>2026-04-12T12:53:30.988Z</time></trkpt><trkpt lat="44.7391884" lon="7.6679679"><ele>267.0</ele><time>2026-04-12T12:53:32.988Z</time></trkpt><trkpt lat="44.7392305" lon="7.667842"><ele>267.3333333333333</ele><time>2026-04-12T12:53:34.988Z</time></trkpt><trkpt lat="44.7392753" lon="7.6677229"><ele>267.6666666666667</ele><time>2026-04-12T12:53:36.988Z</time></trkpt><trkpt lat="44.7393168" lon="7.6675875"><ele>268.0</ele><time>2026-04-12T12:53:38.988Z</time></trkpt><trkpt lat="44.73936" lon="7.6674771"><ele>268.33333333333337</ele><time>2026-04-12T12:53:40.988Z</time></trkpt><trkpt lat="44.7393849" lon="7.6673717"><ele>268.6666666666667</ele><time>2026-04-12T12:53:42.988Z</time></trkpt><trkpt lat="44.739348" lon="7.6672912"><ele>269.0</ele><time>2026-04-12T12:53:44.988Z</time></trkpt><trkpt lat="44.7392804" lon="7.6672768"><ele>269.0</ele><time>2026-04-12T12:53:46.988Z</time></trkpt><trkpt lat="44.7392024" lon="7.6672769"><ele>269.0</ele><time>2026-04-12T12:53:48.988Z</time></trkpt><trkpt lat="44.7391194" lon="7.6672658"><ele>269.0</ele><time>2026-04-12T12:53:50.988Z</time></trkpt><trkpt lat="44.7390292" lon="7.6672471"><ele>269.0</ele><time>2026-04-12T12:53:52.988Z</time></trkpt><trkpt lat="44.7389362" lon="7.6672421"><ele>269.0</ele><time>2026-04-12T12:53:54.988Z</time></trkpt><trkpt lat="44.7388384" lon="7.6672364"><ele>269.0</ele><time>2026-04-12T12:53:56.988Z</time></trkpt><trkpt lat="44.7387375" lon="7.6672188"><ele>269.0</ele><time>2026-04-12T12:53:58.988Z</time></trkpt><trkpt lat="44.7386336" lon="7.6671984"><ele>269.0</ele><time>2026-04-12T12:54:00.988Z</time></trkpt><trkpt lat="44.7385307" lon="7.6671652"><ele>269.0</ele><time>2026-04-12T12:54:02.988Z</time></trkpt><trkpt lat="44.7384262" lon="7.667133"><ele>269.0</ele><time>2026-04-12T12:54:04.988Z</time></trkpt><trkpt lat="44.7383176" lon="7.6670973"><ele>269.0</ele><time>2026-04-12T12:54:06.988Z</time></trkpt><trkpt lat="44.7382105" lon="7.6670576"><ele>269.0</ele><time>2026-04-12T12:54:08.988Z</time></trkpt><trkpt lat="44.7381006" lon="7.6670207"><ele>269.0</ele><time>2026-04-12T12:54:10.988Z</time></trkpt><trkpt lat="44.7379937" lon="7.666967"><ele>269.0</ele><time>2026-04-12T12:54:12.988Z</time></trkpt><trkpt lat="44.7378887" lon="7.6668955"><ele>269.0</ele><time>2026-04-12T12:54:14.988Z</time></trkpt><trkpt lat="44.7377897" lon="7.6667998"><ele>268.75</ele><time>2026-04-12T12:54:16.988Z</time></trkpt><trkpt lat="44.7377096" lon="7.6666709"><ele>268.5</ele><time>2026-04-12T12:54:18.988Z</time></trkpt><trkpt lat="44.7376489" lon="7.6665321"><ele>268.25</ele><time>2026-04-12T12:54:20.988Z</time></trkpt><trkpt lat="44.7375829" lon="7.6663944"><ele>268.0</ele><time>2026-04-12T12:54:22.988Z</time></trkpt><trkpt lat="44.7375206" lon="7.6662494"><ele>268.0</ele><time>2026-04-12T12:54:24.988Z</time></trkpt><trkpt lat="44.7374516" lon="7.66611"><ele>268.0</ele><time>2026-04-12T12:54:26.988Z</time></trkpt><trkpt lat="44.7373793" lon="7.6659759"><ele>268.0</ele><time>2026-04-12T12:54:28.988Z</time></trkpt><trkpt lat="44.7372959" lon="7.6658469"><ele>268.0</ele><time>2026-04-12T12:54:30.988Z</time></trkpt><trkpt lat="44.737252" lon="7.6657825"><ele>268.0</ele><time>2026-04-12T12:54:31.988Z</time></trkpt><trkpt lat="44.7371677" lon="7.6656545"><ele>268.0</ele><time>2026-04-12T12:54:33.988Z</time></trkpt><trkpt lat="44.7370784" lon="7.6655409"><ele>268.0</ele><time>2026-04-12T12:54:35.988Z</time></trkpt><trkpt lat="44.7369916" lon="7.6654231"><ele>268.0</ele><time>2026-04-12T12:54:37.988Z</time></trkpt><trkpt lat="44.7369161" lon="7.6652944"><ele>268.0</ele><time>2026-04-12T12:54:39.988Z</time></trkpt><trkpt lat="44.7368563" lon="7.6651437"><ele>268.2</ele><time>2026-04-12T12:54:41.988Z</time></trkpt><trkpt lat="44.736801" lon="7.6649896"><ele>268.4</ele><time>2026-04-12T12:54:43.988Z</time></trkpt><trkpt lat="44.7367553" lon="7.6648297"><ele>268.59999999999997</ele><time>2026-04-12T12:54:45.988Z</time></trkpt><trkpt lat="44.7367327" lon="7.6647466"><ele>268.8</ele><time>2026-04-12T12:54:46.988Z</time></trkpt><trkpt lat="44.7367083" lon="7.6646649"><ele>269.0</ele><time>2026-04-12T12:54:47.988Z</time></trkpt><trkpt lat="44.7366628" lon="7.664502"><ele>269.0</ele><time>2026-04-12T12:54:49.988Z</time></trkpt><trkpt lat="44.7366215" lon="7.6643447"><ele>269.0</ele><time>2026-04-12T12:54:51.988Z</time></trkpt><trkpt lat="44.7365885" lon="7.6641945"><ele>269.0</ele><time>2026-04-12T12:54:53.988Z</time></trkpt><trkpt lat="44.7365478" lon="7.6640583"><ele>269.0</ele><time>2026-04-12T12:54:55.988Z</time></trkpt><trkpt lat="44.7365108" lon="7.6639285"><ele>269.0</ele><time>2026-04-12T12:54:57.988Z</time></trkpt><trkpt lat="44.7364897" lon="7.6638056"><ele>269.0</ele><time>2026-04-12T12:54:59.988Z</time></trkpt><trkpt lat="44.7365228" lon="7.6637096"><ele>269.0</ele><time>2026-04-12T12:55:01.988Z</time></trkpt><trkpt lat="44.736593" lon="7.6636512"><ele>269.0</ele><time>2026-04-12T12:55:03.988Z</time></trkpt><trkpt lat="44.7366887" lon="7.6635974"><ele>269.0</ele><time>2026-04-12T12:55:05.988Z</time></trkpt><trkpt lat="44.7367891" lon="7.6635589"><ele>269.0</ele><time>2026-04-12T12:55:07.988Z</time></trkpt><trkpt lat="44.7368937" lon="7.6635164"><ele>269.75</ele><time>2026-04-12T12:55:09.988Z</time></trkpt><trkpt lat="44.7370039" lon="7.6634788"><ele>270.5</ele><time>2026-04-12T12:55:11.988Z</time></trkpt><trkpt lat="44.7371152" lon="7.663454"><ele>271.25</ele><time>2026-04-12T12:55:13.988Z</time></trkpt><trkpt lat="44.7372273" lon="7.663435"><ele>272.0</ele><time>2026-04-12T12:55:15.988Z</time></trkpt><trkpt lat="44.7373389" lon="7.6634218"><ele>272.0</ele><time>2026-04-12T12:55:17.988Z</time></trkpt><trkpt lat="44.7374531" lon="7.6634105"><ele>272.0</ele><time>2026-04-12T12:55:19.988Z</time></trkpt><trkpt lat="44.7375655" lon="7.6634052"><ele>272.0</ele><time>2026-04-12T12:55:21.988Z</time></trkpt><trkpt lat="44.7376776" lon="7.6633997"><ele>272.0</ele><time>2026-04-12T12:55:23.988Z</time></trkpt><trkpt lat="44.7377886" lon="7.663401"><ele>272.2</ele><time>2026-04-12T12:55:25.988Z</time></trkpt><trkpt lat="44.7378953" lon="7.6634011"><ele>272.4</ele><time>2026-04-12T12:55:27.988Z</time></trkpt><trkpt lat="44.7380041" lon="7.663378"><ele>272.6</ele><time>2026-04-12T12:55:29.988Z</time></trkpt><trkpt lat="44.7381116" lon="7.6633474"><ele>272.8</ele><time>2026-04-12T12:55:31.988Z</time></trkpt><trkpt lat="44.7382144" lon="7.6633044"><ele>273.0</ele><time>2026-04-12T12:55:33.988Z</time></trkpt><trkpt lat="44.7383172" lon="7.6632511"><ele>273.0</ele><time>2026-04-12T12:55:35.988Z</time></trkpt><trkpt lat="44.7384215" lon="7.6631928"><ele>273.0</ele><time>2026-04-12T12:55:37.988Z</time></trkpt><trkpt lat="44.7385185" lon="7.6631344"><ele>273.0</ele><time>2026-04-12T12:55:39.988Z</time></trkpt><trkpt lat="44.7386159" lon="7.6630775"><ele>273.0</ele><time>2026-04-12T12:55:41.988Z</time></trkpt><trkpt lat="44.7387234" lon="7.6630428"><ele>273.0</ele><time>2026-04-12T12:55:43.988Z</time></trkpt><trkpt lat="44.7388443" lon="7.6630273"><ele>272.75</ele><time>2026-04-12T12:55:45.988Z</time></trkpt><trkpt lat="44.738962" lon="7.6630318"><ele>272.5</ele><time>2026-04-12T12:55:47.988Z</time></trkpt><trkpt lat="44.7390697" lon="7.6630389"><ele>272.25</ele><time>2026-04-12T12:55:49.988Z</time></trkpt><trkpt lat="44.7391813" lon="7.6630606"><ele>272.0</ele><time>2026-04-12T12:55:51.988Z</time></trkpt><trkpt lat="44.7392931" lon="7.6630797"><ele>271.5</ele><time>2026-04-12T12:55:53.988Z</time></trkpt><trkpt lat="44.7394076" lon="7.6630977"><ele>271.0</ele><time>2026-04-12T12:55:55.988Z</time></trkpt><trkpt lat="44.7395201" lon="7.6631209"><ele>270.5</ele><time>2026-04-12T12:55:57.988Z</time></trkpt><trkpt lat="44.739637" lon="7.6631417"><ele>270.0</ele><time>2026-04-12T12:55:59.988Z</time></trkpt><trkpt lat="44.7397487" lon="7.6631489"><ele>270.0</ele><time>2026-04-12T12:56:01.988Z</time></trkpt><trkpt lat="44.7398582" lon="7.6631723"><ele>270.0</ele><time>2026-04-12T12:56:03.988Z</time></trkpt><trkpt lat="44.7399634" lon="7.6632146"><ele>270.0</ele><time>2026-04-12T12:56:05.988Z</time></trkpt><trkpt lat="44.7400651" lon="7.6632839"><ele>270.0</ele><time>2026-04-12T12:56:07.988Z</time></trkpt><trkpt lat="44.7401457" lon="7.6634021"><ele>270.0</ele><time>2026-04-12T12:56:09.988Z</time></trkpt><trkpt lat="44.7401914" lon="7.6635493"><ele>270.0</ele><time>2026-04-12T12:56:11.988Z</time></trkpt><trkpt lat="44.740232" lon="7.6637047"><ele>270.0</ele><time>2026-04-12T12:56:13.988Z</time></trkpt><trkpt lat="44.7402539" lon="7.6638562"><ele>270.0</ele><time>2026-04-12T12:56:15.988Z</time></trkpt><trkpt lat="44.740274" lon="7.6640079"><ele>270.0</ele><time>2026-04-12T12:56:17.988Z</time></trkpt><trkpt lat="44.7402977" lon="7.6641636"><ele>270.0</ele><time>2026-04-12T12:56:19.988Z</time></trkpt><trkpt lat="44.7403125" lon="7.6643198"><ele>270.0</ele><time>2026-04-12T12:56:21.988Z</time></trkpt><trkpt lat="44.7403237" lon="7.6644767"><ele>270.0</ele><time>2026-04-12T12:56:23.988Z</time></trkpt><trkpt lat="44.7403376" lon="7.6646307"><ele>270.0</ele><time>2026-04-12T12:56:25.988Z</time></trkpt><trkpt lat="44.7403879" lon="7.6647634"><ele>269.8</ele><time>2026-04-12T12:56:27.988Z</time></trkpt><trkpt lat="44.740467" lon="7.6648534"><ele>269.6</ele><time>2026-04-12T12:56:29.988Z</time></trkpt><trkpt lat="44.740568" lon="7.6648801"><ele>269.4</ele><time>2026-04-12T12:56:31.988Z</time></trkpt><trkpt lat="44.7406715" lon="7.6648689"><ele>269.2</ele><time>2026-04-12T12:56:33.988Z</time></trkpt><trkpt lat="44.7407705" lon="7.6648541"><ele>269.0</ele><time>2026-04-12T12:56:35.988Z</time></trkpt><trkpt lat="44.7408682" lon="7.6648215"><ele>269.0</ele><time>2026-04-12T12:56:37.988Z</time></trkpt><trkpt lat="44.7409728" lon="7.6647998"><ele>269.0</ele><time>2026-04-12T12:56:39.988Z</time></trkpt><trkpt lat="44.741075" lon="7.66475"><ele>269.0</ele><time>2026-04-12T12:56:41.988Z</time></trkpt><trkpt lat="44.7411771" lon="7.6646828"><ele>269.0</ele><time>2026-04-12T12:56:43.988Z</time></trkpt><trkpt lat="44.7412736" lon="7.6646157"><ele>269.0</ele><time>2026-04-12T12:56:45.988Z</time></trkpt><trkpt lat="44.7413695" lon="7.6645425"><ele>269.0</ele><time>2026-04-12T12:56:47.988Z</time></trkpt><trkpt lat="44.7414581" lon="7.6644803"><ele>269.0</ele><time>2026-04-12T12:56:49.988Z</time></trkpt><trkpt lat="44.7415485" lon="7.6644137"><ele>269.0</ele><time>2026-04-12T12:56:51.988Z</time></trkpt><trkpt lat="44.7416396" lon="7.6644333"><ele>269.0</ele><time>2026-04-12T12:56:53.988Z</time></trkpt><trkpt lat="44.7416946" lon="7.6645296"><ele>269.0</ele><time>2026-04-12T12:56:55.988Z</time></trkpt><trkpt lat="44.7417295" lon="7.6646396"><ele>268.8</ele><time>2026-04-12T12:56:57.988Z</time></trkpt><trkpt lat="44.7417416" lon="7.6647597"><ele>268.59999999999997</ele><time>2026-04-12T12:56:59.988Z</time></trkpt><trkpt lat="44.7417404" lon="7.6649046"><ele>268.4</ele><time>2026-04-12T12:57:01.988Z</time></trkpt><trkpt lat="44.741731" lon="7.6650648"><ele>268.2</ele><time>2026-04-12T12:57:03.988Z</time></trkpt><trkpt lat="44.741718" lon="7.6652271"><ele>268.0</ele><time>2026-04-12T12:57:05.988Z</time></trkpt><trkpt lat="44.7417038" lon="7.6653997"><ele>268.0</ele><time>2026-04-12T12:57:07.988Z</time></trkpt><trkpt lat="44.7416801" lon="7.6655727"><ele>268.0</ele><time>2026-04-12T12:57:09.988Z</time></trkpt><trkpt lat="44.7416693" lon="7.665663"><ele>268.0</ele><time>2026-04-12T12:57:10.988Z</time></trkpt><trkpt lat="44.7416491" lon="7.6658285"><ele>268.0</ele><time>2026-04-12T12:57:12.988Z</time></trkpt><trkpt lat="44.7416417" lon="7.6659178"><ele>268.0</ele><time>2026-04-12T12:57:13.988Z</time></trkpt><trkpt lat="44.7416245" lon="7.6660914"><ele>268.2</ele><time>2026-04-12T12:57:15.988Z</time></trkpt><trkpt lat="44.7416202" lon="7.6661821"><ele>268.4</ele><time>2026-04-12T12:57:16.988Z</time></trkpt><trkpt lat="44.7416054" lon="7.666355"><ele>268.59999999999997</ele><time>2026-04-12T12:57:18.988Z</time></trkpt><trkpt lat="44.7415995" lon="7.6664435"><ele>268.8</ele><time>2026-04-12T12:57:19.988Z</time></trkpt><trkpt lat="44.7415831" lon="7.6666174"><ele>269.0</ele><time>2026-04-12T12:57:21.988Z</time></trkpt><trkpt lat="44.7415686" lon="7.6667915"><ele>268.8</ele><time>2026-04-12T12:57:23.988Z</time></trkpt><trkpt lat="44.7415533" lon="7.666961"><ele>268.59999999999997</ele><time>2026-04-12T12:57:25.988Z</time></trkpt><trkpt lat="44.7415391" lon="7.6671373"><ele>268.4</ele><time>2026-04-12T12:57:27.988Z</time></trkpt><trkpt lat="44.741534" lon="7.6672287"><ele>268.2</ele><time>2026-04-12T12:57:28.988Z</time></trkpt><trkpt lat="44.7415298" lon="7.6673249"><ele>268.0</ele><time>2026-04-12T12:57:29.988Z</time></trkpt><trkpt lat="44.7415249" lon="7.6674275"><ele>268.0</ele><time>2026-04-12T12:57:30.988Z</time></trkpt><trkpt lat="44.7415259" lon="7.6675283"><ele>268.0</ele><time>2026-04-12T12:57:31.988Z</time></trkpt><trkpt lat="44.7415268" lon="7.6676221"><ele>268.0</ele><time>2026-04-12T12:57:32.988Z</time></trkpt><trkpt lat="44.7415259" lon="7.6677156"><ele>268.0</ele><time>2026-04-12T12:57:33.988Z</time></trkpt><trkpt lat="44.7415291" lon="7.6678135"><ele>268.0</ele><time>2026-04-12T12:57:34.988Z</time></trkpt><trkpt lat="44.7415353" lon="7.667909"><ele>268.0</ele><time>2026-04-12T12:57:35.988Z</time></trkpt><trkpt lat="44.7415417" lon="7.6680057"><ele>268.0</ele><time>2026-04-12T12:57:36.988Z</time></trkpt><trkpt lat="44.7415546" lon="7.6681025"><ele>268.14285714285717</ele><time>2026-04-12T12:57:37.988Z</time></trkpt><trkpt lat="44.741564" lon="7.6681964"><ele>268.2857142857143</ele><time>2026-04-12T12:57:38.988Z</time></trkpt><trkpt lat="44.7415795" lon="7.6682884"><ele>268.42857142857144</ele><time>2026-04-12T12:57:39.988Z</time></trkpt><trkpt lat="44.7415898" lon="7.6683841"><ele>268.57142857142856</ele><time>2026-04-12T12:57:40.988Z</time></trkpt><trkpt lat="44.7416018" lon="7.6684725"><ele>268.7142857142857</ele><time>2026-04-12T12:57:41.988Z</time></trkpt><trkpt lat="44.7416222" lon="7.6685585"><ele>268.8571428571429</ele><time>2026-04-12T12:57:42.988Z</time></trkpt><trkpt lat="44.7416359" lon="7.6686482"><ele>269.0</ele><time>2026-04-12T12:57:43.988Z</time></trkpt><trkpt lat="44.7416588" lon="7.6687329"><ele>269.0</ele><time>2026-04-12T12:57:44.988Z</time></trkpt><trkpt lat="44.7416833" lon="7.6688171"><ele>269.0</ele><time>2026-04-12T12:57:45.988Z</time></trkpt><trkpt lat="44.7417019" lon="7.6689034"><ele>269.0</ele><time>2026-04-12T12:57:46.988Z</time></trkpt><trkpt lat="44.7417355" lon="7.6690632"><ele>269.0</ele><time>2026-04-12T12:57:48.988Z</time></trkpt><trkpt lat="44.7417515" lon="7.6691547"><ele>269.0</ele><time>2026-04-12T12:57:49.988Z</time></trkpt><trkpt lat="44.7417692" lon="7.6692431"><ele>269.0</ele><time>2026-04-12T12:57:50.988Z</time></trkpt><trkpt lat="44.7418061" lon="7.6694067"><ele>269.0</ele><time>2026-04-12T12:57:52.988Z</time></trkpt><trkpt lat="44.7418225" lon="7.6694946"><ele>269.0</ele><time>2026-04-12T12:57:53.988Z</time></trkpt><trkpt lat="44.7418529" lon="7.6696631"><ele>269.0</ele><time>2026-04-12T12:57:55.988Z</time></trkpt><trkpt lat="44.7418805" lon="7.6698337"><ele>269.0</ele><time>2026-04-12T12:57:57.988Z</time></trkpt><trkpt lat="44.7419038" lon="7.6699916"><ele>269.0</ele><time>2026-04-12T12:57:59.988Z</time></trkpt><trkpt lat="44.7419151" lon="7.6701634"><ele>268.0</ele><time>2026-04-12T12:58:01.988Z</time></trkpt><trkpt lat="44.7419232" lon="7.6703348"><ele>267.0</ele><time>2026-04-12T12:58:03.988Z</time></trkpt><trkpt lat="44.7419415" lon="7.670499"><ele>266.0</ele><time>2026-04-12T12:58:05.988Z</time></trkpt><trkpt lat="44.7419506" lon="7.6706666"><ele>265.0</ele><time>2026-04-12T12:58:07.988Z</time></trkpt><trkpt lat="44.7419638" lon="7.6708375"><ele>265.0</ele><time>2026-04-12T12:58:09.988Z</time></trkpt><trkpt lat="44.7419842" lon="7.6710018"><ele>265.0</ele><time>2026-04-12T12:58:11.988Z</time></trkpt><trkpt lat="44.7420015" lon="7.6711704"><ele>265.0</ele><time>2026-04-12T12:58:13.988Z</time></trkpt><trkpt lat="44.7420193" lon="7.6713379"><ele>265.0</ele><time>2026-04-12T12:58:15.988Z</time></trkpt><trkpt lat="44.7420286" lon="7.6715024"><ele>265.2</ele><time>2026-04-12T12:58:17.988Z</time></trkpt><trkpt lat="44.7420358" lon="7.6716684"><ele>265.4</ele><time>2026-04-12T12:58:19.988Z</time></trkpt><trkpt lat="44.7420465" lon="7.6718238"><ele>265.6</ele><time>2026-04-12T12:58:21.988Z</time></trkpt><trkpt lat="44.742056" lon="7.6719648"><ele>265.8</ele><time>2026-04-12T12:58:23.988Z</time></trkpt><trkpt lat="44.742066" lon="7.672089"><ele>266.0</ele><time>2026-04-12T12:58:25.988Z</time></trkpt><trkpt lat="44.7420783" lon="7.6722111"><ele>266.1666666666667</ele><time>2026-04-12T12:58:27.988Z</time></trkpt><trkpt lat="44.7420816" lon="7.6723283"><ele>266.33333333333337</ele><time>2026-04-12T12:58:29.988Z</time></trkpt><trkpt lat="44.7420899" lon="7.6724354"><ele>266.5</ele><time>2026-04-12T12:58:31.988Z</time></trkpt><trkpt lat="44.7420982" lon="7.6725437"><ele>266.6666666666667</ele><time>2026-04-12T12:58:33.988Z</time></trkpt><trkpt lat="44.7421054" lon="7.6726524"><ele>266.8333333333333</ele><time>2026-04-12T12:58:35.988Z</time></trkpt><trkpt lat="44.7421148" lon="7.67276"><ele>267.0</ele><time>2026-04-12T12:58:37.988Z</time></trkpt><trkpt lat="44.7421242" lon="7.6728698"><ele>267.1666666666667</ele><time>2026-04-12T12:58:39.988Z</time></trkpt><trkpt lat="44.7421332" lon="7.6729886"><ele>267.3333333333333</ele><time>2026-04-12T12:58:41.988Z</time></trkpt><trkpt lat="44.7421464" lon="7.6731122"><ele>267.5</ele><time>2026-04-12T12:58:43.988Z</time></trkpt><trkpt lat="44.7421537" lon="7.673238"><ele>267.66666666666663</ele><time>2026-04-12T12:58:45.988Z</time></trkpt><trkpt lat="44.7421643" lon="7.6733578"><ele>267.8333333333333</ele><time>2026-04-12T12:58:47.988Z</time></trkpt><trkpt lat="44.7421706" lon="7.6734796"><ele>268.0</ele><time>2026-04-12T12:58:49.988Z</time></trkpt><trkpt lat="44.7421765" lon="7.6735878"><ele>268.0</ele><time>2026-04-12T12:58:51.988Z</time></trkpt><trkpt lat="44.7422183" lon="7.673659"><ele>268.0</ele><time>2026-04-12T12:58:54.988Z</time></trkpt><trkpt lat="44.742234" lon="7.6735677"><ele>268.0</ele><time>2026-04-12T12:58:56.988Z</time></trkpt><trkpt lat="44.7422235" lon="7.6734606"><ele>268.0</ele><time>2026-04-12T12:58:58.988Z</time></trkpt><trkpt lat="44.7422143" lon="7.6733472"><ele>268.0</ele><time>2026-04-12T12:59:00.988Z</time></trkpt><trkpt lat="44.7421982" lon="7.6732198"><ele>268.0</ele><time>2026-04-12T12:59:02.988Z</time></trkpt><trkpt lat="44.742193" lon="7.6731092"><ele>268.0</ele><time>2026-04-12T12:59:04.988Z</time></trkpt><trkpt lat="44.742182" lon="7.6729962"><ele>268.0</ele><time>2026-04-12T12:59:06.988Z</time></trkpt><trkpt lat="44.7421755" lon="7.6728822"><ele>268.0</ele><time>2026-04-12T12:59:08.988Z</time></trkpt><trkpt lat="44.7421664" lon="7.6727594"><ele>268.0</ele><time>2026-04-12T12:59:10.988Z</time></trkpt><trkpt lat="44.7421529" lon="7.672624"><ele>268.0</ele><time>2026-04-12T12:59:12.988Z</time></trkpt><trkpt lat="44.7421398" lon="7.6724774"><ele>267.8333333333333</ele><time>2026-04-12T12:59:14.988Z</time></trkpt><trkpt lat="44.7421284" lon="7.6723088"><ele>267.66666666666663</ele><time>2026-04-12T12:59:16.988Z</time></trkpt><trkpt lat="44.7421189" lon="7.6722179"><ele>267.5</ele><time>2026-04-12T12:59:17.988Z</time></trkpt><trkpt lat="44.7421134" lon="7.6721293"><ele>267.3333333333333</ele><time>2026-04-12T12:59:18.988Z</time></trkpt><trkpt lat="44.7421048" lon="7.6720395"><ele>267.1666666666667</ele><time>2026-04-12T12:59:19.988Z</time></trkpt><trkpt lat="44.7420984" lon="7.6719059"><ele>267.0</ele><time>2026-04-12T12:59:21.988Z</time></trkpt><trkpt lat="44.7420942" lon="7.6718108"><ele>267.00000000000006</ele><time>2026-04-12T12:59:23.988Z</time></trkpt><trkpt lat="44.7420328" lon="7.6717622"><ele>267.0</ele><time>2026-04-12T12:59:27.988Z</time></trkpt><trkpt lat="44.7420741" lon="7.6718523"><ele>267.0</ele><time>2026-04-12T12:59:30.988Z</time></trkpt><trkpt lat="44.7421378" lon="7.6719218"><ele>267.0</ele><time>2026-04-12T12:59:34.988Z</time></trkpt><trkpt lat="44.7421621" lon="7.6720132"><ele>267.0</ele><time>2026-04-12T12:59:36.988Z</time></trkpt><trkpt lat="44.7421703" lon="7.6721141"><ele>267.00000000000006</ele><time>2026-04-12T12:59:38.988Z</time></trkpt><trkpt lat="44.742185" lon="7.6722183"><ele>267.0</ele><time>2026-04-12T12:59:40.988Z</time></trkpt><trkpt lat="44.7421982" lon="7.6723222"><ele>267.0</ele><time>2026-04-12T12:59:42.988Z</time></trkpt><trkpt lat="44.7422124" lon="7.6724251"><ele>267.0</ele><time>2026-04-12T12:59:44.988Z</time></trkpt><trkpt lat="44.7422213" lon="7.6725269"><ele>267.0</ele><time>2026-04-12T12:59:46.988Z</time></trkpt><trkpt lat="44.7422332" lon="7.6726246"><ele>267.0</ele><time>2026-04-12T12:59:48.988Z</time></trkpt><trkpt lat="44.7422428" lon="7.6727171"><ele>267.0</ele><time>2026-04-12T12:59:50.988Z</time></trkpt><trkpt lat="44.742301" lon="7.6728102"><ele>267.0</ele><time>2026-04-12T12:59:53.988Z</time></trkpt><trkpt lat="44.7423722" lon="7.6728656"><ele>267.00000000000006</ele><time>2026-04-12T12:59:55.988Z</time></trkpt><trkpt lat="44.7424414" lon="7.6728876"><ele>267.0</ele><time>2026-04-12T12:59:57.988Z</time></trkpt><trkpt lat="44.7425046" lon="7.6728828"><ele>267.0</ele><time>2026-04-12T12:59:59.988Z</time></trkpt><trkpt lat="44.7425707" lon="7.6728732"><ele>267.0</ele><time>2026-04-12T13:00:01.988Z</time></trkpt><trkpt lat="44.7426537" lon="7.6728613"><ele>267.0</ele><time>2026-04-12T13:00:04.988Z</time></trkpt><trkpt lat="44.7427182" lon="7.6727829"><ele>267.00000000000006</ele><time>2026-04-12T13:00:07.988Z</time></trkpt><trkpt lat="44.742785" lon="7.6727466"><ele>267.0</ele><time>2026-04-12T13:00:10.988Z</time></trkpt><trkpt lat="44.7428539" lon="7.6727217"><ele>267.0</ele><time>2026-04-12T13:00:13.988Z</time></trkpt><trkpt lat="44.7429177" lon="7.6726925"><ele>267.0</ele><time>2026-04-12T13:00:15.988Z</time></trkpt><trkpt lat="44.7429757" lon="7.672642"><ele>267.0</ele><time>2026-04-12T13:00:17.988Z</time></trkpt><trkpt lat="44.7430295" lon="7.6725349"><ele>267.0</ele><time>2026-04-12T13:00:20.988Z</time></trkpt><trkpt lat="44.7430965" lon="7.6725032"><ele>267.0</ele><time>2026-04-12T13:00:22.988Z</time></trkpt><trkpt lat="44.7431752" lon="7.6724673"><ele>267.0</ele><time>2026-04-12T13:00:25.988Z</time></trkpt><trkpt lat="44.7432461" lon="7.6724153"><ele>267.0</ele><time>2026-04-12T13:00:28.988Z</time></trkpt><trkpt lat="44.7433246" lon="7.6723821"><ele>267.0</ele><time>2026-04-12T13:00:31.988Z</time></trkpt><trkpt lat="44.7434088" lon="7.6723653"><ele>267.0</ele><time>2026-04-12T13:00:34.988Z</time></trkpt><trkpt lat="44.7434926" lon="7.6723551"><ele>267.0</ele><time>2026-04-12T13:00:37.988Z</time></trkpt><trkpt lat="44.7435773" lon="7.6723333"><ele>267.0</ele><time>2026-04-12T13:00:40.988Z</time></trkpt><trkpt lat="44.7436586" lon="7.672325"><ele>267.0</ele><time>2026-04-12T13:00:43.988Z</time></trkpt><trkpt lat="44.7437438" lon="7.6723182"><ele>267.3333333333333</ele><time>2026-04-12T13:00:46.988Z</time></trkpt><trkpt lat="44.7438295" lon="7.6722961"><ele>267.6666666666667</ele><time>2026-04-12T13:00:49.988Z</time></trkpt><trkpt lat="44.7439087" lon="7.6723004"><ele>268.0</ele><time>2026-04-12T13:00:52.988Z</time></trkpt><trkpt lat="44.7439949" lon="7.6723316"><ele>268.33333333333337</ele><time>2026-04-12T13:00:55.988Z</time></trkpt><trkpt lat="44.7440521" lon="7.672377"><ele>268.6666666666667</ele><time>2026-04-12T13:00:58.988Z</time></trkpt><trkpt lat="44.7441061" lon="7.6723073"><ele>269.0</ele><time>2026-04-12T13:01:01.988Z</time></trkpt><trkpt lat="44.7441792" lon="7.6722753"><ele>269.0</ele><time>2026-04-12T13:01:04.988Z</time></trkpt><trkpt lat="44.7442603" lon="7.672254"><ele>269.0</ele><time>2026-04-12T13:01:07.988Z</time></trkpt><trkpt lat="44.744346" lon="7.6722431"><ele>269.0</ele><time>2026-04-12T13:01:10.988Z</time></trkpt><trkpt lat="44.744411" lon="7.6722378"><ele>269.0</ele><time>2026-04-12T13:01:12.988Z</time></trkpt><trkpt lat="44.7444718" lon="7.6722036"><ele>269.0</ele><time>2026-04-12T13:01:14.988Z</time></trkpt><trkpt lat="44.7445241" lon="7.6721299"><ele>269.0</ele><time>2026-04-12T13:01:17.988Z</time></trkpt><trkpt lat="44.7445764" lon="7.6720772"><ele>269.0</ele><time>2026-04-12T13:01:19.988Z</time></trkpt><trkpt lat="44.7445937" lon="7.6719855"><ele>268.57142857142856</ele><time>2026-04-12T13:01:21.988Z</time></trkpt><trkpt lat="44.7445775" lon="7.6718945"><ele>268.14285714285717</ele><time>2026-04-12T13:01:23.988Z</time></trkpt><trkpt lat="44.7445673" lon="7.6718028"><ele>267.7142857142857</ele><time>2026-04-12T13:01:25.988Z</time></trkpt><trkpt lat="44.7445928" lon="7.6716928"><ele>267.2857142857143</ele><time>2026-04-12T13:01:28.988Z</time></trkpt><trkpt lat="44.7446447" lon="7.6716309"><ele>266.8571428571429</ele><time>2026-04-12T13:01:32.988Z</time></trkpt><trkpt lat="44.7447189" lon="7.6716512"><ele>266.42857142857144</ele><time>2026-04-12T13:01:36.988Z</time></trkpt><trkpt lat="44.7447791" lon="7.6717199"><ele>266.0</ele><time>2026-04-12T13:01:40.988Z</time></trkpt><trkpt lat="44.7448479" lon="7.6717329"><ele>266.0</ele><time>2026-04-12T13:01:43.988Z</time></trkpt><trkpt lat="44.7449313" lon="7.6717346"><ele>266.0</ele><time>2026-04-12T13:01:46.988Z</time></trkpt><trkpt lat="44.744987" lon="7.6717983"><ele>266.0</ele><time>2026-04-12T13:01:48.988Z</time></trkpt><trkpt lat="44.7450495" lon="7.6718193"><ele>266.0</ele><time>2026-04-12T13:01:50.988Z</time></trkpt><trkpt lat="44.7451513" lon="7.671871"><ele>266.0</ele><time>2026-04-12T13:01:53.988Z</time></trkpt><trkpt lat="44.7452038" lon="7.6718106"><ele>266.0</ele><time>2026-04-12T13:01:55.989Z</time></trkpt><trkpt lat="44.7452646" lon="7.6717443"><ele>265.33333333333337</ele><time>2026-04-12T13:01:58.988Z</time></trkpt><trkpt lat="44.7453541" lon="7.6717466"><ele>264.6666666666667</ele><time>2026-04-12T13:02:00.988Z</time></trkpt><trkpt lat="44.7454312" lon="7.6717327"><ele>264.0</ele><time>2026-04-12T13:02:02.988Z</time></trkpt><trkpt lat="44.7454988" lon="7.6716913"><ele>263.3333333333333</ele><time>2026-04-12T13:02:04.988Z</time></trkpt><trkpt lat="44.7455639" lon="7.6716332"><ele>262.66666666666663</ele><time>2026-04-12T13:02:06.988Z</time></trkpt><trkpt lat="44.7456349" lon="7.671583"><ele>262.0</ele><time>2026-04-12T13:02:08.988Z</time></trkpt><trkpt lat="44.7457176" lon="7.6715282"><ele>262.0</ele><time>2026-04-12T13:02:10.988Z</time></trkpt><trkpt lat="44.7457967" lon="7.6714817"><ele>262.0</ele><time>2026-04-12T13:02:12.988Z</time></trkpt><trkpt lat="44.7458782" lon="7.6714324"><ele>262.0</ele><time>2026-04-12T13:02:14.988Z</time></trkpt><trkpt lat="44.7459587" lon="7.6713776"><ele>262.0</ele><time>2026-04-12T13:02:16.988Z</time></trkpt><trkpt lat="44.7460396" lon="7.6713312"><ele>262.0</ele><time>2026-04-12T13:02:18.988Z</time></trkpt><trkpt lat="44.7461307" lon="7.6712769"><ele>262.0</ele><time>2026-04-12T13:02:20.988Z</time></trkpt><trkpt lat="44.7462163" lon="7.6712326"><ele>262.0</ele><time>2026-04-12T13:02:22.988Z</time></trkpt><trkpt lat="44.7463001" lon="7.6711882"><ele>262.0</ele><time>2026-04-12T13:02:24.988Z</time></trkpt><trkpt lat="44.7463827" lon="7.6711362"><ele>262.0</ele><time>2026-04-12T13:02:26.988Z</time></trkpt><trkpt lat="44.7464714" lon="7.6710947"><ele>262.0</ele><time>2026-04-12T13:02:28.988Z</time></trkpt><trkpt lat="44.7465653" lon="7.6710356"><ele>262.0</ele><time>2026-04-12T13:02:30.988Z</time></trkpt><trkpt lat="44.7466565" lon="7.670981"><ele>262.0</ele><time>2026-04-12T13:02:32.988Z</time></trkpt><trkpt lat="44.7467426" lon="7.6709276"><ele>262.0</ele><time>2026-04-12T13:02:34.988Z</time></trkpt><trkpt lat="44.7468297" lon="7.670853"><ele>262.0</ele><time>2026-04-12T13:02:36.988Z</time></trkpt><trkpt lat="44.7469152" lon="7.6707924"><ele>262.0</ele><time>2026-04-12T13:02:38.988Z</time></trkpt><trkpt lat="44.7470015" lon="7.6707444"><ele>262.0</ele><time>2026-04-12T13:02:40.988Z</time></trkpt><trkpt lat="44.7470912" lon="7.6706852"><ele>262.0</ele><time>2026-04-12T13:02:42.988Z</time></trkpt><trkpt lat="44.747181" lon="7.6706225"><ele>262.0</ele><time>2026-04-12T13:02:44.988Z</time></trkpt><trkpt lat="44.7472749" lon="7.6705653"><ele>262.0</ele><time>2026-04-12T13:02:46.988Z</time></trkpt><trkpt lat="44.7473706" lon="7.6705065"><ele>262.0</ele><time>2026-04-12T13:02:48.988Z</time></trkpt><trkpt lat="44.7474687" lon="7.6704558"><ele>262.0</ele><time>2026-04-12T13:02:50.988Z</time></trkpt><trkpt lat="44.7475669" lon="7.6704107"><ele>262.0</ele><time>2026-04-12T13:02:52.988Z</time></trkpt><trkpt lat="44.7476679" lon="7.6703781"><ele>262.0</ele><time>2026-04-12T13:02:54.988Z</time></trkpt><trkpt lat="44.7477678" lon="7.6703543"><ele>262.0</ele><time>2026-04-12T13:02:56.988Z</time></trkpt><trkpt lat="44.7478736" lon="7.6703429"><ele>262.0</ele><time>2026-04-12T13:02:58.988Z</time></trkpt><trkpt lat="44.7479628" lon="7.6703198"><ele>261.6</ele><time>2026-04-12T13:03:00.988Z</time></trkpt><trkpt lat="44.7480454" lon="7.6703107"><ele>261.2</ele><time>2026-04-12T13:03:02.988Z</time></trkpt><trkpt lat="44.7481389" lon="7.670312"><ele>260.8</ele><time>2026-04-12T13:03:04.988Z</time></trkpt><trkpt lat="44.7482344" lon="7.6703175"><ele>260.4</ele><time>2026-04-12T13:03:06.988Z</time></trkpt><trkpt lat="44.7483323" lon="7.6703324"><ele>260.0</ele><time>2026-04-12T13:03:08.988Z</time></trkpt><trkpt lat="44.7484253" lon="7.6703448"><ele>260.0</ele><time>2026-04-12T13:03:10.988Z</time></trkpt><trkpt lat="44.7485242" lon="7.6703593"><ele>260.0</ele><time>2026-04-12T13:03:12.988Z</time></trkpt><trkpt lat="44.748619" lon="7.6703766"><ele>260.0</ele><time>2026-04-12T13:03:14.988Z</time></trkpt><trkpt lat="44.7487042" lon="7.6703982"><ele>260.0</ele><time>2026-04-12T13:03:16.988Z</time></trkpt><trkpt lat="44.7487906" lon="7.6704322"><ele>260.0</ele><time>2026-04-12T13:03:18.988Z</time></trkpt><trkpt lat="44.7488834" lon="7.6704786"><ele>260.2</ele><time>2026-04-12T13:03:20.988Z</time></trkpt><trkpt lat="44.7489693" lon="7.6705096"><ele>260.4</ele><time>2026-04-12T13:03:22.988Z</time></trkpt><trkpt lat="44.7490576" lon="7.6705308"><ele>260.6</ele><time>2026-04-12T13:03:24.988Z</time></trkpt><trkpt lat="44.7491514" lon="7.6705505"><ele>260.8</ele><time>2026-04-12T13:03:26.988Z</time></trkpt><trkpt lat="44.7492495" lon="7.6705704"><ele>261.0</ele><time>2026-04-12T13:03:28.988Z</time></trkpt><trkpt lat="44.7493331" lon="7.670617"><ele>261.2</ele><time>2026-04-12T13:03:30.988Z</time></trkpt><trkpt lat="44.7494372" lon="7.6706461"><ele>261.40000000000003</ele><time>2026-04-12T13:03:32.988Z</time></trkpt><trkpt lat="44.7495432" lon="7.6706676"><ele>261.6</ele><time>2026-04-12T13:03:34.988Z</time></trkpt><trkpt lat="44.7496504" lon="7.6706804"><ele>261.8</ele><time>2026-04-12T13:03:36.988Z</time></trkpt><trkpt lat="44.749742" lon="7.6706831"><ele>262.0</ele><time>2026-04-12T13:03:38.988Z</time></trkpt><trkpt lat="44.7498155" lon="7.6707519"><ele>262.0</ele><time>2026-04-12T13:03:41.988Z</time></trkpt><trkpt lat="44.7498905" lon="7.6707802"><ele>262.0</ele><time>2026-04-12T13:03:44.988Z</time></trkpt><trkpt lat="44.7499706" lon="7.6707638"><ele>262.0</ele><time>2026-04-12T13:03:47.988Z</time></trkpt><trkpt lat="44.7500306" lon="7.670806"><ele>262.0</ele><time>2026-04-12T13:03:50.988Z</time></trkpt><trkpt lat="44.7500959" lon="7.6708016"><ele>262.0</ele><time>2026-04-12T13:03:52.988Z</time></trkpt><trkpt lat="44.7501603" lon="7.6707693"><ele>262.0</ele><time>2026-04-12T13:03:54.988Z</time></trkpt><trkpt lat="44.7502258" lon="7.67073"><ele>262.0</ele><time>2026-04-12T13:03:56.988Z</time></trkpt><trkpt lat="44.7503192" lon="7.6707569"><ele>261.8333333333333</ele><time>2026-04-12T13:03:59.988Z</time></trkpt><trkpt lat="44.7503872" lon="7.6707242"><ele>261.66666666666663</ele><time>2026-04-12T13:04:01.988Z</time></trkpt><trkpt lat="44.7504699" lon="7.670724"><ele>261.5</ele><time>2026-04-12T13:04:03.988Z</time></trkpt><trkpt lat="44.7505443" lon="7.6707532"><ele>261.3333333333333</ele><time>2026-04-12T13:04:05.988Z</time></trkpt><trkpt lat="44.750626" lon="7.6707508"><ele>261.1666666666667</ele><time>2026-04-12T13:04:07.988Z</time></trkpt><trkpt lat="44.7507012" lon="7.6707439"><ele>261.0</ele><time>2026-04-12T13:04:09.988Z</time></trkpt><trkpt lat="44.7507825" lon="7.6706977"><ele>261.0</ele><time>2026-04-12T13:04:12.988Z</time></trkpt><trkpt lat="44.7508695" lon="7.6706596"><ele>261.0</ele><time>2026-04-12T13:04:15.988Z</time></trkpt><trkpt lat="44.7509277" lon="7.6706208"><ele>261.0</ele><time>2026-04-12T13:04:17.988Z</time></trkpt><trkpt lat="44.7509849" lon="7.670573"><ele>261.0</ele><time>2026-04-12T13:04:19.988Z</time></trkpt><trkpt lat="44.751018" lon="7.6704859"><ele>261.0</ele><time>2026-04-12T13:04:21.988Z</time></trkpt><trkpt lat="44.7510405" lon="7.6704023"><ele>261.0</ele><time>2026-04-12T13:04:23.988Z</time></trkpt><trkpt lat="44.7510425" lon="7.6703038"><ele>261.0</ele><time>2026-04-12T13:04:26.988Z</time></trkpt><trkpt lat="44.7510434" lon="7.6701933"><ele>261.0</ele><time>2026-04-12T13:04:29.988Z</time></trkpt><trkpt lat="44.751069" lon="7.6701121"><ele>261.0</ele><time>2026-04-12T13:04:32.988Z</time></trkpt><trkpt lat="44.7511496" lon="7.670038"><ele>261.0</ele><time>2026-04-12T13:04:35.988Z</time></trkpt><trkpt lat="44.7512297" lon="7.6700202"><ele>261.0</ele><time>2026-04-12T13:04:37.988Z</time></trkpt><trkpt lat="44.751301" lon="7.6700108"><ele>261.0</ele><time>2026-04-12T13:04:39.988Z</time></trkpt><trkpt lat="44.7513713" lon="7.6700086"><ele>261.0</ele><time>2026-04-12T13:04:41.988Z</time></trkpt><trkpt lat="44.7514355" lon="7.6700155"><ele>261.0</ele><time>2026-04-12T13:04:43.988Z</time></trkpt><trkpt lat="44.7515273" lon="7.6700267"><ele>261.0</ele><time>2026-04-12T13:04:46.988Z</time></trkpt><trkpt lat="44.7515956" lon="7.6700297"><ele>261.0</ele><time>2026-04-12T13:04:48.988Z</time></trkpt><trkpt lat="44.7516672" lon="7.670033"><ele>261.0</ele><time>2026-04-12T13:04:50.988Z</time></trkpt><trkpt lat="44.7517455" lon="7.6700301"><ele>261.0</ele><time>2026-04-12T13:04:52.988Z</time></trkpt><trkpt lat="44.7518159" lon="7.6700248"><ele>261.0</ele><time>2026-04-12T13:04:54.988Z</time></trkpt><trkpt lat="44.7518907" lon="7.6700198"><ele>261.0</ele><time>2026-04-12T13:04:56.988Z</time></trkpt><trkpt lat="44.7519759" lon="7.6700339"><ele>261.0</ele><time>2026-04-12T13:04:59.988Z</time></trkpt><trkpt lat="44.7520647" lon="7.6700289"><ele>260.8333333333333</ele><time>2026-04-12T13:05:01.988Z</time></trkpt><trkpt lat="44.7521439" lon="7.6699976"><ele>260.6666666666667</ele><time>2026-04-12T13:05:03.988Z</time></trkpt><trkpt lat="44.7522077" lon="7.6699771"><ele>260.5</ele><time>2026-04-12T13:05:05.988Z</time></trkpt><trkpt lat="44.752288" lon="7.6699228"><ele>260.33333333333337</ele><time>2026-04-12T13:05:08.988Z</time></trkpt><trkpt lat="44.7523489" lon="7.6698876"><ele>260.1666666666667</ele><time>2026-04-12T13:05:10.988Z</time></trkpt><trkpt lat="44.7523559" lon="7.6696875"><ele>260.0</ele><time>2026-04-12T13:05:14.988Z</time></trkpt><trkpt lat="44.7520795" lon="7.6696328"><ele>260.0</ele><time>2026-04-12T13:05:16.988Z</time></trkpt><trkpt lat="44.7521974" lon="7.6696206"><ele>260.0</ele><time>2026-04-12T13:05:18.988Z</time></trkpt><trkpt lat="44.7523096" lon="7.6695838"><ele>260.0</ele><time>2026-04-12T13:05:20.988Z</time></trkpt><trkpt lat="44.7524169" lon="7.6695297"><ele>260.0</ele><time>2026-04-12T13:05:22.988Z</time></trkpt><trkpt lat="44.752514" lon="7.6694761"><ele>260.0</ele><time>2026-04-12T13:05:24.988Z</time></trkpt><trkpt lat="44.7526085" lon="7.6694472"><ele>260.0</ele><time>2026-04-12T13:05:26.988Z</time></trkpt><trkpt lat="44.7526764" lon="7.669352"><ele>260.0</ele><time>2026-04-12T13:05:28.988Z</time></trkpt><trkpt lat="44.7527096" lon="7.6692195"><ele>260.0</ele><time>2026-04-12T13:05:30.988Z</time></trkpt><trkpt lat="44.7527708" lon="7.6691302"><ele>260.0</ele><time>2026-04-12T13:05:32.988Z</time></trkpt><trkpt lat="44.7528324" lon="7.6690701"><ele>260.14285714285717</ele><time>2026-04-12T13:05:34.988Z</time></trkpt><trkpt lat="44.7528984" lon="7.6690307"><ele>260.2857142857143</ele><time>2026-04-12T13:05:36.988Z</time></trkpt><trkpt lat="44.7529739" lon="7.6689855"><ele>260.42857142857144</ele><time>2026-04-12T13:05:38.988Z</time></trkpt><trkpt lat="44.7530462" lon="7.6689423"><ele>260.57142857142856</ele><time>2026-04-12T13:05:40.988Z</time></trkpt><trkpt lat="44.7531036" lon="7.6688871"><ele>260.7142857142857</ele><time>2026-04-12T13:05:42.988Z</time></trkpt><trkpt lat="44.7531661" lon="7.6688483"><ele>260.8571428571429</ele><time>2026-04-12T13:05:44.988Z</time></trkpt><trkpt lat="44.7532382" lon="7.6688209"><ele>261.0</ele><time>2026-04-12T13:05:46.988Z</time></trkpt><trkpt lat="44.7533161" lon="7.6687765"><ele>261.0</ele><time>2026-04-12T13:05:48.988Z</time></trkpt><trkpt lat="44.7533882" lon="7.668714"><ele>261.0</ele><time>2026-04-12T13:05:50.988Z</time></trkpt><trkpt lat="44.7534544" lon="7.6686509"><ele>261.0</ele><time>2026-04-12T13:05:52.988Z</time></trkpt><trkpt lat="44.7535341" lon="7.6685969"><ele>261.0</ele><time>2026-04-12T13:05:54.988Z</time></trkpt><trkpt lat="44.7536074" lon="7.6685464"><ele>261.0</ele><time>2026-04-12T13:05:56.988Z</time></trkpt><trkpt lat="44.7536606" lon="7.6684924"><ele>261.0</ele><time>2026-04-12T13:05:58.988Z</time></trkpt><trkpt lat="44.7537166" lon="7.668397"><ele>261.0</ele><time>2026-04-12T13:06:01.988Z</time></trkpt><trkpt lat="44.7537669" lon="7.66831"><ele>261.0</ele><time>2026-04-12T13:06:04.988Z</time></trkpt><trkpt lat="44.7538307" lon="7.6682278"><ele>261.0</ele><time>2026-04-12T13:06:07.988Z</time></trkpt><trkpt lat="44.7538961" lon="7.6681462"><ele>261.0</ele><time>2026-04-12T13:06:10.988Z</time></trkpt><trkpt lat="44.7539531" lon="7.6680711"><ele>261.0</ele><time>2026-04-12T13:06:13.988Z</time></trkpt><trkpt lat="44.7540352" lon="7.66805"><ele>261.0</ele><time>2026-04-12T13:06:16.988Z</time></trkpt><trkpt lat="44.7540948" lon="7.6680142"><ele>261.0</ele><time>2026-04-12T13:06:18.988Z</time></trkpt><trkpt lat="44.7541605" lon="7.6679773"><ele>261.0</ele><time>2026-04-12T13:06:20.988Z</time></trkpt><trkpt lat="44.7542138" lon="7.6678994"><ele>261.0</ele><time>2026-04-12T13:06:22.988Z</time></trkpt><trkpt lat="44.7542589" lon="7.6678289"><ele>261.0</ele><time>2026-04-12T13:06:24.988Z</time></trkpt><trkpt lat="44.7543066" lon="7.6677432"><ele>261.0</ele><time>2026-04-12T13:06:27.988Z</time></trkpt><trkpt lat="44.7543619" lon="7.667686"><ele>261.0</ele><time>2026-04-12T13:06:29.988Z</time></trkpt><trkpt lat="44.7544186" lon="7.6676192"><ele>261.0</ele><time>2026-04-12T13:06:32.988Z</time></trkpt><trkpt lat="44.7545047" lon="7.667593"><ele>261.0</ele><time>2026-04-12T13:06:35.988Z</time></trkpt><trkpt lat="44.7545763" lon="7.6675375"><ele>261.0</ele><time>2026-04-12T13:06:37.988Z</time></trkpt><trkpt lat="44.754651" lon="7.6674668"><ele>261.0</ele><time>2026-04-12T13:06:39.988Z</time></trkpt><trkpt lat="44.7547459" lon="7.6673948"><ele>261.0</ele><time>2026-04-12T13:06:41.988Z</time></trkpt><trkpt lat="44.754835" lon="7.6673034"><ele>261.0</ele><time>2026-04-12T13:06:43.988Z</time></trkpt><trkpt lat="44.7549163" lon="7.6672131"><ele>261.0</ele><time>2026-04-12T13:06:45.988Z</time></trkpt><trkpt lat="44.7549897" lon="7.6671417"><ele>261.0</ele><time>2026-04-12T13:06:47.988Z</time></trkpt><trkpt lat="44.7550513" lon="7.6670698"><ele>261.0</ele><time>2026-04-12T13:06:49.988Z</time></trkpt><trkpt lat="44.7551133" lon="7.6670149"><ele>261.0</ele><time>2026-04-12T13:06:52.988Z</time></trkpt><trkpt lat="44.7551806" lon="7.6669723"><ele>261.0</ele><time>2026-04-12T13:06:55.988Z</time></trkpt><trkpt lat="44.7552541" lon="7.6669333"><ele>261.0</ele><time>2026-04-12T13:06:59.988Z</time></trkpt><trkpt lat="44.755321" lon="7.6668841"><ele>261.0</ele><time>2026-04-12T13:07:02.988Z</time></trkpt><trkpt lat="44.7553918" lon="7.6668387"><ele>261.0</ele><time>2026-04-12T13:07:04.988Z</time></trkpt><trkpt lat="44.7554587" lon="7.6667604"><ele>261.0</ele><time>2026-04-12T13:07:06.988Z</time></trkpt><trkpt lat="44.7555124" lon="7.6666839"><ele>261.0</ele><time>2026-04-12T13:07:08.988Z</time></trkpt><trkpt lat="44.7555771" lon="7.6666388"><ele>261.0</ele><time>2026-04-12T13:07:10.988Z</time></trkpt><trkpt lat="44.7556651" lon="7.6665678"><ele>261.0</ele><time>2026-04-12T13:07:12.988Z</time></trkpt><trkpt lat="44.7557186" lon="7.6665011"><ele>261.0</ele><time>2026-04-12T13:07:14.988Z</time></trkpt><trkpt lat="44.7557675" lon="7.6664149"><ele>261.0</ele><time>2026-04-12T13:07:16.988Z</time></trkpt><trkpt lat="44.7558075" lon="7.6663053"><ele>261.0</ele><time>2026-04-12T13:07:18.988Z</time></trkpt><trkpt lat="44.7559665" lon="7.6660585"><ele>261.0</ele><time>2026-04-12T13:07:19.988Z</time></trkpt><trkpt lat="44.7559857" lon="7.6659549"><ele>261.6666666666667</ele><time>2026-04-12T13:07:21.988Z</time></trkpt><trkpt lat="44.756005" lon="7.665849"><ele>262.3333333333333</ele><time>2026-04-12T13:07:23.988Z</time></trkpt><trkpt lat="44.7560448" lon="7.6657545"><ele>263.0</ele><time>2026-04-12T13:07:25.988Z</time></trkpt><trkpt lat="44.7561094" lon="7.665694"><ele>263.66666666666663</ele><time>2026-04-12T13:07:27.988Z</time></trkpt><trkpt lat="44.7561807" lon="7.6656313"><ele>264.3333333333333</ele><time>2026-04-12T13:07:29.988Z</time></trkpt><trkpt lat="44.7562449" lon="7.6655564"><ele>265.0</ele><time>2026-04-12T13:07:31.988Z</time></trkpt><trkpt lat="44.7563055" lon="7.6654822"><ele>265.0</ele><time>2026-04-12T13:07:33.988Z</time></trkpt><trkpt lat="44.7563718" lon="7.6654116"><ele>265.0</ele><time>2026-04-12T13:07:35.988Z</time></trkpt><trkpt lat="44.7564375" lon="7.6653584"><ele>265.0</ele><time>2026-04-12T13:07:37.988Z</time></trkpt><trkpt lat="44.7565095" lon="7.6653205"><ele>265.0</ele><time>2026-04-12T13:07:39.988Z</time></trkpt><trkpt lat="44.7565798" lon="7.6652796"><ele>265.0</ele><time>2026-04-12T13:07:41.988Z</time></trkpt><trkpt lat="44.7566454" lon="7.6652208"><ele>265.0</ele><time>2026-04-12T13:07:43.988Z</time></trkpt><trkpt lat="44.7567122" lon="7.665164"><ele>265.3333333333333</ele><time>2026-04-12T13:07:45.988Z</time></trkpt><trkpt lat="44.7567802" lon="7.6651077"><ele>265.66666666666663</ele><time>2026-04-12T13:07:47.988Z</time></trkpt><trkpt lat="44.7568532" lon="7.6650525"><ele>266.0</ele><time>2026-04-12T13:07:49.988Z</time></trkpt><trkpt lat="44.7569287" lon="7.665004"><ele>266.3333333333333</ele><time>2026-04-12T13:07:51.988Z</time></trkpt><trkpt lat="44.7570164" lon="7.6649794"><ele>266.6666666666667</ele><time>2026-04-12T13:07:53.988Z</time></trkpt><trkpt lat="44.757108" lon="7.6649501"><ele>267.0</ele><time>2026-04-12T13:07:55.988Z</time></trkpt><trkpt lat="44.7572025" lon="7.6649313"><ele>265.6</ele><time>2026-04-12T13:07:57.988Z</time></trkpt><trkpt lat="44.7572971" lon="7.6649208"><ele>264.2</ele><time>2026-04-12T13:07:59.988Z</time></trkpt><trkpt lat="44.757394" lon="7.6649214"><ele>262.8</ele><time>2026-04-12T13:08:01.988Z</time></trkpt><trkpt lat="44.7574917" lon="7.6649008"><ele>261.4</ele><time>2026-04-12T13:08:03.988Z</time></trkpt><trkpt lat="44.7575875" lon="7.664896"><ele>260.0</ele><time>2026-04-12T13:08:05.988Z</time></trkpt><trkpt lat="44.7576764" lon="7.6649041"><ele>260.0</ele><time>2026-04-12T13:08:07.988Z</time></trkpt><trkpt lat="44.7577801" lon="7.6649104"><ele>260.0</ele><time>2026-04-12T13:08:09.988Z</time></trkpt><trkpt lat="44.7578777" lon="7.6649425"><ele>260.0</ele><time>2026-04-12T13:08:11.988Z</time></trkpt><trkpt lat="44.7579641" lon="7.6650263"><ele>260.0</ele><time>2026-04-12T13:08:13.988Z</time></trkpt><trkpt lat="44.7580348" lon="7.6651359"><ele>260.0</ele><time>2026-04-12T13:08:15.988Z</time></trkpt><trkpt lat="44.758103" lon="7.6652717"><ele>259.5</ele><time>2026-04-12T13:08:17.988Z</time></trkpt><trkpt lat="44.7581973" lon="7.6653783"><ele>259.0</ele><time>2026-04-12T13:08:19.988Z</time></trkpt><trkpt lat="44.7582964" lon="7.6654722"><ele>258.5</ele><time>2026-04-12T13:08:21.988Z</time></trkpt><trkpt lat="44.758391" lon="7.6655435"><ele>258.0</ele><time>2026-04-12T13:08:23.988Z</time></trkpt><trkpt lat="44.7584916" lon="7.6656076"><ele>258.0</ele><time>2026-04-12T13:08:25.988Z</time></trkpt><trkpt lat="44.7585912" lon="7.6656857"><ele>258.0</ele><time>2026-04-12T13:08:27.988Z</time></trkpt><trkpt lat="44.7586872" lon="7.6657624"><ele>258.0</ele><time>2026-04-12T13:08:29.988Z</time></trkpt><trkpt lat="44.7587856" lon="7.6658386"><ele>258.0</ele><time>2026-04-12T13:08:31.988Z</time></trkpt><trkpt lat="44.7588809" lon="7.6659036"><ele>258.0</ele><time>2026-04-12T13:08:33.988Z</time></trkpt><trkpt lat="44.7589872" lon="7.6659408"><ele>258.0</ele><time>2026-04-12T13:08:35.988Z</time></trkpt><trkpt lat="44.7590902" lon="7.6659688"><ele>258.0</ele><time>2026-04-12T13:08:37.988Z</time></trkpt><trkpt lat="44.7591899" lon="7.6659641"><ele>258.0</ele><time>2026-04-12T13:08:39.988Z</time></trkpt><trkpt lat="44.759295" lon="7.6659289"><ele>258.0</ele><time>2026-04-12T13:08:41.988Z</time></trkpt><trkpt lat="44.7593895" lon="7.6658821"><ele>258.0</ele><time>2026-04-12T13:08:43.988Z</time></trkpt><trkpt lat="44.7594802" lon="7.6658395"><ele>258.0</ele><time>2026-04-12T13:08:45.988Z</time></trkpt><trkpt lat="44.7595565" lon="7.6658251"><ele>258.0</ele><time>2026-04-12T13:08:47.988Z</time></trkpt><trkpt lat="44.7596155" lon="7.6658624"><ele>258.0</ele><time>2026-04-12T13:08:49.988Z</time></trkpt><trkpt lat="44.7596646" lon="7.6659358"><ele>258.0</ele><time>2026-04-12T13:08:51.988Z</time></trkpt><trkpt lat="44.7597305" lon="7.6660079"><ele>258.0</ele><time>2026-04-12T13:08:53.988Z</time></trkpt><trkpt lat="44.759803" lon="7.6661016"><ele>258.0</ele><time>2026-04-12T13:08:55.988Z</time></trkpt><trkpt lat="44.7598618" lon="7.6662144"><ele>258.0</ele><time>2026-04-12T13:08:57.988Z</time></trkpt><trkpt lat="44.7599189" lon="7.6663329"><ele>258.0</ele><time>2026-04-12T13:08:59.988Z</time></trkpt><trkpt lat="44.7599742" lon="7.6664514"><ele>258.0</ele><time>2026-04-12T13:09:01.988Z</time></trkpt><trkpt lat="44.7600374" lon="7.6665414"><ele>258.0</ele><time>2026-04-12T13:09:03.988Z</time></trkpt><trkpt lat="44.7601181" lon="7.6666177"><ele>258.0</ele><time>2026-04-12T13:09:05.988Z</time></trkpt><trkpt lat="44.7602057" lon="7.6667055"><ele>258.0</ele><time>2026-04-12T13:09:07.988Z</time></trkpt><trkpt lat="44.7602831" lon="7.6667728"><ele>258.0</ele><time>2026-04-12T13:09:09.988Z</time></trkpt><trkpt lat="44.7603674" lon="7.6668339"><ele>258.0</ele><time>2026-04-12T13:09:11.988Z</time></trkpt><trkpt lat="44.7604458" lon="7.6669023"><ele>258.0</ele><time>2026-04-12T13:09:13.988Z</time></trkpt><trkpt lat="44.7605297" lon="7.6669829"><ele>258.0</ele><time>2026-04-12T13:09:15.988Z</time></trkpt><trkpt lat="44.7605935" lon="7.6670545"><ele>258.0</ele><time>2026-04-12T13:09:17.988Z</time></trkpt><trkpt lat="44.7606738" lon="7.6671168"><ele>258.0</ele><time>2026-04-12T13:09:19.988Z</time></trkpt><trkpt lat="44.7607542" lon="7.6671852"><ele>258.0</ele><time>2026-04-12T13:09:21.988Z</time></trkpt><trkpt lat="44.7608397" lon="7.6672408"><ele>258.0</ele><time>2026-04-12T13:09:23.988Z</time></trkpt><trkpt lat="44.7609356" lon="7.6672699"><ele>258.0</ele><time>2026-04-12T13:09:25.988Z</time></trkpt><trkpt lat="44.7610328" lon="7.6672869"><ele>258.2</ele><time>2026-04-12T13:09:27.988Z</time></trkpt><trkpt lat="44.7611346" lon="7.6673101"><ele>258.4</ele><time>2026-04-12T13:09:29.988Z</time></trkpt><trkpt lat="44.7612229" lon="7.6673313"><ele>258.59999999999997</ele><time>2026-04-12T13:09:31.988Z</time></trkpt><trkpt lat="44.7613131" lon="7.6672955"><ele>258.8</ele><time>2026-04-12T13:09:33.988Z</time></trkpt><trkpt lat="44.7614049" lon="7.6672847"><ele>259.0</ele><time>2026-04-12T13:09:35.988Z</time></trkpt><trkpt lat="44.7614878" lon="7.6672808"><ele>259.0</ele><time>2026-04-12T13:09:37.988Z</time></trkpt><trkpt lat="44.7615798" lon="7.6672774"><ele>259.0</ele><time>2026-04-12T13:09:39.988Z</time></trkpt><trkpt lat="44.7616714" lon="7.6672675"><ele>259.0</ele><time>2026-04-12T13:09:41.988Z</time></trkpt><trkpt lat="44.761756" lon="7.6672289"><ele>259.0</ele><time>2026-04-12T13:09:43.988Z</time></trkpt><trkpt lat="44.7618201" lon="7.6671386"><ele>259.0</ele><time>2026-04-12T13:09:45.988Z</time></trkpt><trkpt lat="44.7618732" lon="7.6670581"><ele>259.0</ele><time>2026-04-12T13:09:47.988Z</time></trkpt><trkpt lat="44.7619343" lon="7.6670249"><ele>258.8333333333333</ele><time>2026-04-12T13:09:49.988Z</time></trkpt><trkpt lat="44.7620125" lon="7.6669955"><ele>258.66666666666663</ele><time>2026-04-12T13:09:51.988Z</time></trkpt><trkpt lat="44.7620913" lon="7.6669658"><ele>258.5</ele><time>2026-04-12T13:09:53.988Z</time></trkpt><trkpt lat="44.7621618" lon="7.666906"><ele>258.3333333333333</ele><time>2026-04-12T13:09:55.988Z</time></trkpt><trkpt lat="44.76221" lon="7.6668162"><ele>258.1666666666667</ele><time>2026-04-12T13:09:57.988Z</time></trkpt><trkpt lat="44.762272" lon="7.6667506"><ele>258.0</ele><time>2026-04-12T13:09:59.988Z</time></trkpt><trkpt lat="44.7623417" lon="7.6666941"><ele>258.0</ele><time>2026-04-12T13:10:01.988Z</time></trkpt><trkpt lat="44.7624119" lon="7.6667"><ele>258.0</ele><time>2026-04-12T13:10:03.988Z</time></trkpt><trkpt lat="44.7624704" lon="7.6667782"><ele>258.0</ele><time>2026-04-12T13:10:05.988Z</time></trkpt><trkpt lat="44.7625478" lon="7.6668153"><ele>258.0</ele><time>2026-04-12T13:10:07.988Z</time></trkpt><trkpt lat="44.762636" lon="7.6668308"><ele>258.0</ele><time>2026-04-12T13:10:09.988Z</time></trkpt><trkpt lat="44.7627006" lon="7.6668163"><ele>258.0</ele><time>2026-04-12T13:10:10.988Z</time></trkpt><trkpt lat="44.7627921" lon="7.666794"><ele>258.0</ele><time>2026-04-12T13:10:12.988Z</time></trkpt><trkpt lat="44.7628719" lon="7.6667493"><ele>258.0</ele><time>2026-04-12T13:10:14.988Z</time></trkpt><trkpt lat="44.7629514" lon="7.6666826"><ele>258.0</ele><time>2026-04-12T13:10:16.988Z</time></trkpt><trkpt lat="44.7630142" lon="7.6665794"><ele>258.0</ele><time>2026-04-12T13:10:18.988Z</time></trkpt><trkpt lat="44.7630933" lon="7.6664808"><ele>258.0</ele><time>2026-04-12T13:10:20.988Z</time></trkpt><trkpt lat="44.7631817" lon="7.6664358"><ele>258.0</ele><time>2026-04-12T13:10:22.988Z</time></trkpt><trkpt lat="44.7632605" lon="7.6663886"><ele>258.0</ele><time>2026-04-12T13:10:24.988Z</time></trkpt><trkpt lat="44.7633533" lon="7.6663536"><ele>258.0</ele><time>2026-04-12T13:10:26.988Z</time></trkpt><trkpt lat="44.7634459" lon="7.6663406"><ele>258.0</ele><time>2026-04-12T13:10:28.988Z</time></trkpt><trkpt lat="44.7635371" lon="7.6663273"><ele>258.0</ele><time>2026-04-12T13:10:30.988Z</time></trkpt><trkpt lat="44.7636257" lon="7.6663242"><ele>258.3333333333333</ele><time>2026-04-12T13:10:32.988Z</time></trkpt><trkpt lat="44.7637091" lon="7.6663112"><ele>258.6666666666667</ele><time>2026-04-12T13:10:34.988Z</time></trkpt><trkpt lat="44.7637873" lon="7.6663216"><ele>259.0</ele><time>2026-04-12T13:10:36.988Z</time></trkpt><trkpt lat="44.7638731" lon="7.6663041"><ele>259.33333333333337</ele><time>2026-04-12T13:10:38.989Z</time></trkpt><trkpt lat="44.7639516" lon="7.6662875"><ele>259.6666666666667</ele><time>2026-04-12T13:10:40.988Z</time></trkpt><trkpt lat="44.7640265" lon="7.6662513"><ele>260.0</ele><time>2026-04-12T13:10:42.988Z</time></trkpt><trkpt lat="44.7641" lon="7.6662256"><ele>260.0</ele><time>2026-04-12T13:10:44.988Z</time></trkpt><trkpt lat="44.7641798" lon="7.6662671"><ele>260.0</ele><time>2026-04-12T13:10:46.988Z</time></trkpt><trkpt lat="44.7642345" lon="7.6663514"><ele>260.0</ele><time>2026-04-12T13:10:48.988Z</time></trkpt><trkpt lat="44.7642908" lon="7.6663966"><ele>260.0</ele><time>2026-04-12T13:10:50.988Z</time></trkpt><trkpt lat="44.764366" lon="7.6664388"><ele>260.0</ele><time>2026-04-12T13:10:52.988Z</time></trkpt><trkpt lat="44.7644367" lon="7.6664639"><ele>260.0</ele><time>2026-04-12T13:10:54.988Z</time></trkpt><trkpt lat="44.7645026" lon="7.666486"><ele>260.00000000000006</ele><time>2026-04-12T13:10:56.988Z</time></trkpt><trkpt lat="44.7645695" lon="7.6664858"><ele>260.0</ele><time>2026-04-12T13:10:58.988Z</time></trkpt><trkpt lat="44.7646214" lon="7.6665848"><ele>260.0</ele><time>2026-04-12T13:11:02.988Z</time></trkpt><trkpt lat="44.7646699" lon="7.66665"><ele>260.0</ele><time>2026-04-12T13:11:04.988Z</time></trkpt><trkpt lat="44.7647465" lon="7.6666827"><ele>260.0</ele><time>2026-04-12T13:11:06.988Z</time></trkpt><trkpt lat="44.7648205" lon="7.6666934"><ele>260.00000000000006</ele><time>2026-04-12T13:11:08.988Z</time></trkpt><trkpt lat="44.7648895" lon="7.6666666"><ele>260.0</ele><time>2026-04-12T13:11:10.988Z</time></trkpt><trkpt lat="44.7649579" lon="7.6666718"><ele>260.0</ele><time>2026-04-12T13:11:12.988Z</time></trkpt><trkpt lat="44.7650337" lon="7.6666665"><ele>260.0</ele><time>2026-04-12T13:11:14.988Z</time></trkpt><trkpt lat="44.7651211" lon="7.6666857"><ele>260.0</ele><time>2026-04-12T13:11:16.988Z</time></trkpt><trkpt lat="44.7652055" lon="7.6666995"><ele>260.0</ele><time>2026-04-12T13:11:18.988Z</time></trkpt><trkpt lat="44.7652819" lon="7.6667498"><ele>260.0</ele><time>2026-04-12T13:11:20.988Z</time></trkpt><trkpt lat="44.7653477" lon="7.6668034"><ele>260.0</ele><time>2026-04-12T13:11:22.988Z</time></trkpt><trkpt lat="44.7654223" lon="7.6668152"><ele>260.1666666666667</ele><time>2026-04-12T13:11:25.988Z</time></trkpt><trkpt lat="44.7654888" lon="7.6667327"><ele>260.33333333333337</ele><time>2026-04-12T13:11:28.988Z</time></trkpt><trkpt lat="44.7655547" lon="7.6667002"><ele>260.5</ele><time>2026-04-12T13:11:30.988Z</time></trkpt><trkpt lat="44.7656285" lon="7.6667109"><ele>260.6666666666667</ele><time>2026-04-12T13:11:32.988Z</time></trkpt><trkpt lat="44.765694" lon="7.6667357"><ele>260.8333333333333</ele><time>2026-04-12T13:11:34.988Z</time></trkpt><trkpt lat="44.7657649" lon="7.6667892"><ele>261.0</ele><time>2026-04-12T13:11:36.988Z</time></trkpt><trkpt lat="44.7658427" lon="7.6668333"><ele>261.0</ele><time>2026-04-12T13:11:38.988Z</time></trkpt><trkpt lat="44.7659224" lon="7.6668762"><ele>261.0</ele><time>2026-04-12T13:11:40.988Z</time></trkpt><trkpt lat="44.7659886" lon="7.6669496"><ele>261.0</ele><time>2026-04-12T13:11:42.988Z</time></trkpt><trkpt lat="44.766063" lon="7.6669916"><ele>261.0</ele><time>2026-04-12T13:11:44.988Z</time></trkpt><trkpt lat="44.7661412" lon="7.6670323"><ele>261.0</ele><time>2026-04-12T13:11:46.988Z</time></trkpt><trkpt lat="44.7662267" lon="7.6670726"><ele>261.0</ele><time>2026-04-12T13:11:48.988Z</time></trkpt><trkpt lat="44.7663001" lon="7.6671225"><ele>260.57142857142856</ele><time>2026-04-12T13:11:50.988Z</time></trkpt><trkpt lat="44.7663789" lon="7.667129"><ele>260.1428571428571</ele><time>2026-04-12T13:11:52.988Z</time></trkpt><trkpt lat="44.7664559" lon="7.6671185"><ele>259.71428571428567</ele><time>2026-04-12T13:11:54.988Z</time></trkpt><trkpt lat="44.766529" lon="7.6671346"><ele>259.2857142857143</ele><time>2026-04-12T13:11:56.988Z</time></trkpt><trkpt lat="44.7665884" lon="7.6670987"><ele>258.85714285714283</ele><time>2026-04-12T13:11:58.988Z</time></trkpt><trkpt lat="44.7666295" lon="7.6670162"><ele>258.4285714285714</ele><time>2026-04-12T13:12:00.988Z</time></trkpt><trkpt lat="44.7666817" lon="7.6669493"><ele>258.0</ele><time>2026-04-12T13:12:02.988Z</time></trkpt><trkpt lat="44.7667429" lon="7.6669018"><ele>257.99999999999994</ele><time>2026-04-12T13:12:04.988Z</time></trkpt><trkpt lat="44.7668072" lon="7.6668708"><ele>258.0</ele><time>2026-04-12T13:12:06.988Z</time></trkpt><trkpt lat="44.766886" lon="7.6668411"><ele>258.0</ele><time>2026-04-12T13:12:09.988Z</time></trkpt><trkpt lat="44.7669499" lon="7.6668125"><ele>258.0</ele><time>2026-04-12T13:12:12.988Z</time></trkpt><trkpt lat="44.7670236" lon="7.6667743"><ele>258.0</ele><time>2026-04-12T13:12:15.988Z</time></trkpt><trkpt lat="44.7670865" lon="7.666745"><ele>257.99999999999994</ele><time>2026-04-12T13:12:17.988Z</time></trkpt><trkpt lat="44.7671529" lon="7.6667041"><ele>258.0</ele><time>2026-04-12T13:12:19.988Z</time></trkpt><trkpt lat="44.7672259" lon="7.6666575"><ele>257.6666666666667</ele><time>2026-04-12T13:12:22.988Z</time></trkpt><trkpt lat="44.7672779" lon="7.66676"><ele>257.3333333333333</ele><time>2026-04-12T13:12:26.988Z</time></trkpt><trkpt lat="44.7672855" lon="7.6668608"><ele>257.0</ele><time>2026-04-12T13:12:28.988Z</time></trkpt><trkpt lat="44.7673006" lon="7.6669756"><ele>256.66666666666663</ele><time>2026-04-12T13:12:30.988Z</time></trkpt><trkpt lat="44.7673226" lon="7.6670964"><ele>256.3333333333333</ele><time>2026-04-12T13:12:32.988Z</time></trkpt><trkpt lat="44.7673439" lon="7.6672227"><ele>256.0</ele><time>2026-04-12T13:12:34.988Z</time></trkpt><trkpt lat="44.7673659" lon="7.6673555"><ele>256.2</ele><time>2026-04-12T13:12:36.988Z</time></trkpt><trkpt lat="44.7673908" lon="7.6674895"><ele>256.40000000000003</ele><time>2026-04-12T13:12:38.988Z</time></trkpt><trkpt lat="44.7674161" lon="7.667622"><ele>256.6</ele><time>2026-04-12T13:12:40.988Z</time></trkpt><trkpt lat="44.767438" lon="7.6677517"><ele>256.8</ele><time>2026-04-12T13:12:42.988Z</time></trkpt><trkpt lat="44.7674584" lon="7.6678861"><ele>257.0</ele><time>2026-04-12T13:12:44.988Z</time></trkpt><trkpt lat="44.7674498" lon="7.6680294"><ele>257.0</ele><time>2026-04-12T13:12:46.988Z</time></trkpt><trkpt lat="44.7674302" lon="7.6681799"><ele>257.0</ele><time>2026-04-12T13:12:48.988Z</time></trkpt><trkpt lat="44.7674484" lon="7.6683333"><ele>257.0</ele><time>2026-04-12T13:12:50.988Z</time></trkpt><trkpt lat="44.7675096" lon="7.6684671"><ele>257.0</ele><time>2026-04-12T13:12:52.988Z</time></trkpt><trkpt lat="44.7675798" lon="7.6685984"><ele>257.0</ele><time>2026-04-12T13:12:54.988Z</time></trkpt><trkpt lat="44.7676037" lon="7.6687647"><ele>257.1666666666667</ele><time>2026-04-12T13:12:56.988Z</time></trkpt><trkpt lat="44.7676288" lon="7.668931"><ele>257.33333333333337</ele><time>2026-04-12T13:12:58.988Z</time></trkpt><trkpt lat="44.7676616" lon="7.6690948"><ele>257.5</ele><time>2026-04-12T13:13:00.988Z</time></trkpt><trkpt lat="44.7676752" lon="7.6691856"><ele>257.6666666666667</ele><time>2026-04-12T13:13:01.988Z</time></trkpt><trkpt lat="44.7676911" lon="7.6692726"><ele>257.8333333333333</ele><time>2026-04-12T13:13:02.988Z</time></trkpt><trkpt lat="44.7677059" lon="7.6693602"><ele>258.0</ele><time>2026-04-12T13:13:03.988Z</time></trkpt><trkpt lat="44.7677378" lon="7.6695259"><ele>258.0</ele><time>2026-04-12T13:13:05.988Z</time></trkpt><trkpt lat="44.7677516" lon="7.6696127"><ele>258.0</ele><time>2026-04-12T13:13:06.988Z</time></trkpt><trkpt lat="44.7677782" lon="7.6697792"><ele>258.0</ele><time>2026-04-12T13:13:08.988Z</time></trkpt><trkpt lat="44.7677922" lon="7.6698668"><ele>258.0</ele><time>2026-04-12T13:13:09.988Z</time></trkpt><trkpt lat="44.7678084" lon="7.6699526"><ele>258.0</ele><time>2026-04-12T13:13:10.988Z</time></trkpt><trkpt lat="44.7678359" lon="7.670112"><ele>258.0</ele><time>2026-04-12T13:13:12.988Z</time></trkpt><trkpt lat="44.7678508" lon="7.6701993"><ele>258.4</ele><time>2026-04-12T13:13:13.988Z</time></trkpt><trkpt lat="44.7678782" lon="7.6703665"><ele>258.8</ele><time>2026-04-12T13:13:15.988Z</time></trkpt><trkpt lat="44.7678982" lon="7.6704533"><ele>259.2</ele><time>2026-04-12T13:13:16.988Z</time></trkpt><trkpt lat="44.7679259" lon="7.6706154"><ele>259.6</ele><time>2026-04-12T13:13:18.988Z</time></trkpt><trkpt lat="44.7679526" lon="7.6707841"><ele>260.0</ele><time>2026-04-12T13:13:20.988Z</time></trkpt><trkpt lat="44.7679787" lon="7.6709504"><ele>260.2</ele><time>2026-04-12T13:13:22.988Z</time></trkpt><trkpt lat="44.76801" lon="7.6711129"><ele>260.4</ele><time>2026-04-12T13:13:24.988Z</time></trkpt><trkpt lat="44.7680774" lon="7.6712607"><ele>260.6</ele><time>2026-04-12T13:13:26.988Z</time></trkpt><trkpt lat="44.7681187" lon="7.671333"><ele>260.8</ele><time>2026-04-12T13:13:27.988Z</time></trkpt><trkpt lat="44.7681827" lon="7.6714696"><ele>261.0</ele><time>2026-04-12T13:13:29.988Z</time></trkpt><trkpt lat="44.7682141" lon="7.6715527"><ele>261.0</ele><time>2026-04-12T13:13:30.988Z</time></trkpt><trkpt lat="44.7682332" lon="7.6716389"><ele>261.0</ele><time>2026-04-12T13:13:31.988Z</time></trkpt><trkpt lat="44.7682484" lon="7.6717263"><ele>261.0</ele><time>2026-04-12T13:13:32.988Z</time></trkpt><trkpt lat="44.7682632" lon="7.6718164"><ele>261.0</ele><time>2026-04-12T13:13:33.988Z</time></trkpt><trkpt lat="44.7682644" lon="7.6719082"><ele>261.0</ele><time>2026-04-12T13:13:34.988Z</time></trkpt><trkpt lat="44.7682729" lon="7.6720019"><ele>261.0</ele><time>2026-04-12T13:13:35.988Z</time></trkpt><trkpt lat="44.7682811" lon="7.6720964"><ele>261.0</ele><time>2026-04-12T13:13:36.988Z</time></trkpt><trkpt lat="44.7682821" lon="7.6721914"><ele>261.0</ele><time>2026-04-12T13:13:37.988Z</time></trkpt><trkpt lat="44.7682837" lon="7.6722844"><ele>261.0</ele><time>2026-04-12T13:13:38.988Z</time></trkpt><trkpt lat="44.7682878" lon="7.6723744"><ele>261.0</ele><time>2026-04-12T13:13:39.988Z</time></trkpt><trkpt lat="44.7682926" lon="7.6724655"><ele>261.0</ele><time>2026-04-12T13:13:40.988Z</time></trkpt><trkpt lat="44.768317" lon="7.6725518"><ele>261.0</ele><time>2026-04-12T13:13:41.988Z</time></trkpt><trkpt lat="44.7683188" lon="7.6726407"><ele>261.0</ele><time>2026-04-12T13:13:42.988Z</time></trkpt><trkpt lat="44.7683184" lon="7.6727353"><ele>261.0</ele><time>2026-04-12T13:13:43.988Z</time></trkpt><trkpt lat="44.7683186" lon="7.6728308"><ele>261.1666666666667</ele><time>2026-04-12T13:13:44.988Z</time></trkpt><trkpt lat="44.7683142" lon="7.6730145"><ele>261.3333333333333</ele><time>2026-04-12T13:13:46.988Z</time></trkpt><trkpt lat="44.768306" lon="7.6731058"><ele>261.5</ele><time>2026-04-12T13:13:47.988Z</time></trkpt><trkpt lat="44.7682934" lon="7.6731952"><ele>261.66666666666663</ele><time>2026-04-12T13:13:48.988Z</time></trkpt><trkpt lat="44.768277" lon="7.6732816"><ele>261.8333333333333</ele><time>2026-04-12T13:13:49.988Z</time></trkpt><trkpt lat="44.7682703" lon="7.6733745"><ele>262.0</ele><time>2026-04-12T13:13:50.988Z</time></trkpt><trkpt lat="44.7682611" lon="7.6734654"><ele>262.0</ele><time>2026-04-12T13:13:51.988Z</time></trkpt><trkpt lat="44.76825" lon="7.673644"><ele>262.0</ele><time>2026-04-12T13:13:53.988Z</time></trkpt><trkpt lat="44.7682493" lon="7.6737356"><ele>262.0</ele><time>2026-04-12T13:13:54.988Z</time></trkpt><trkpt lat="44.768253" lon="7.6738264"><ele>262.0</ele><time>2026-04-12T13:13:55.988Z</time></trkpt><trkpt lat="44.7682533" lon="7.6739161"><ele>262.0</ele><time>2026-04-12T13:13:56.988Z</time></trkpt><trkpt lat="44.7682585" lon="7.674005"><ele>262.0</ele><time>2026-04-12T13:13:57.988Z</time></trkpt><trkpt lat="44.7682676" lon="7.6740972"><ele>262.0</ele><time>2026-04-12T13:13:58.988Z</time></trkpt><trkpt lat="44.7682886" lon="7.6742692"><ele>262.0</ele><time>2026-04-12T13:14:00.988Z</time></trkpt><trkpt lat="44.7683056" lon="7.6744359"><ele>262.0</ele><time>2026-04-12T13:14:02.988Z</time></trkpt><trkpt lat="44.7683247" lon="7.6746013"><ele>262.0</ele><time>2026-04-12T13:14:04.988Z</time></trkpt><trkpt lat="44.7683433" lon="7.6747637"><ele>262.0</ele><time>2026-04-12T13:14:06.988Z</time></trkpt><trkpt lat="44.7683594" lon="7.6749093"><ele>262.0</ele><time>2026-04-12T13:14:08.988Z</time></trkpt><trkpt lat="44.7683202" lon="7.6750486"><ele>262.0</ele><time>2026-04-12T13:14:10.988Z</time></trkpt><trkpt lat="44.7683296" lon="7.6751607"><ele>262.0</ele><time>2026-04-12T13:14:12.988Z</time></trkpt><trkpt lat="44.7682952" lon="7.6752569"><ele>262.0</ele><time>2026-04-12T13:14:14.988Z</time></trkpt><trkpt lat="44.768241" lon="7.6753421"><ele>262.0</ele><time>2026-04-12T13:14:16.988Z</time></trkpt><trkpt lat="44.7681868" lon="7.6754336"><ele>261.8571428571429</ele><time>2026-04-12T13:14:18.988Z</time></trkpt><trkpt lat="44.7681325" lon="7.6755105"><ele>261.7142857142857</ele><time>2026-04-12T13:14:20.988Z</time></trkpt><trkpt lat="44.7680742" lon="7.6755767"><ele>261.57142857142856</ele><time>2026-04-12T13:14:22.988Z</time></trkpt><trkpt lat="44.768029" lon="7.675652"><ele>261.42857142857144</ele><time>2026-04-12T13:14:24.988Z</time></trkpt><trkpt lat="44.7680285" lon="7.675741"><ele>261.2857142857143</ele><time>2026-04-12T13:14:26.988Z</time></trkpt><trkpt lat="44.768081" lon="7.6757972"><ele>261.14285714285717</ele><time>2026-04-12T13:14:28.988Z</time></trkpt><trkpt lat="44.7681444" lon="7.6757736"><ele>261.0</ele><time>2026-04-12T13:14:30.988Z</time></trkpt><trkpt lat="44.7681783" lon="7.675695"><ele>261.0</ele><time>2026-04-12T13:14:32.988Z</time></trkpt><trkpt lat="44.7681459" lon="7.6755893"><ele>261.0</ele><time>2026-04-12T13:14:35.988Z</time></trkpt><trkpt lat="44.7680721" lon="7.6755933"><ele>261.0</ele><time>2026-04-12T13:14:38.988Z</time></trkpt><trkpt lat="44.7681058" lon="7.6755166"><ele>261.0</ele><time>2026-04-12T13:14:45.988Z</time></trkpt><trkpt lat="44.7680828" lon="7.6756168"><ele>261.0</ele><time>2026-04-12T13:15:39.988Z</time></trkpt><trkpt lat="44.7680114" lon="7.6756613"><ele>261.0</ele><time>2026-04-12T13:15:41.988Z</time></trkpt><trkpt lat="44.7680005" lon="7.6757598"><ele>261.0</ele><time>2026-04-12T13:15:43.988Z</time></trkpt><trkpt lat="44.7680749" lon="7.6758442"><ele>261.0</ele><time>2026-04-12T13:15:45.988Z</time></trkpt><trkpt lat="44.7681541" lon="7.6759075"><ele>261.0</ele><time>2026-04-12T13:15:47.988Z</time></trkpt><trkpt lat="44.7682079" lon="7.6760104"><ele>261.0</ele><time>2026-04-12T13:15:49.988Z</time></trkpt><trkpt lat="44.7682613" lon="7.6761241"><ele>261.0</ele><time>2026-04-12T13:15:51.988Z</time></trkpt><trkpt lat="44.7683119" lon="7.676244"><ele>261.0</ele><time>2026-04-12T13:15:53.988Z</time></trkpt><trkpt lat="44.7683898" lon="7.6763288"><ele>261.6</ele><time>2026-04-12T13:15:55.988Z</time></trkpt><trkpt lat="44.7684899" lon="7.6763652"><ele>262.20000000000005</ele><time>2026-04-12T13:15:57.988Z</time></trkpt><trkpt lat="44.7685831" lon="7.6764119"><ele>262.79999999999995</ele><time>2026-04-12T13:15:59.988Z</time></trkpt><trkpt lat="44.7686462" lon="7.6765075"><ele>263.4</ele><time>2026-04-12T13:16:01.988Z</time></trkpt><trkpt lat="44.768692" lon="7.6766273"><ele>264.0</ele><time>2026-04-12T13:16:03.988Z</time></trkpt><trkpt lat="44.7687732" lon="7.6767062"><ele>264.2</ele><time>2026-04-12T13:16:05.988Z</time></trkpt><trkpt lat="44.7688685" lon="7.6767348"><ele>264.4</ele><time>2026-04-12T13:16:07.988Z</time></trkpt><trkpt lat="44.7689706" lon="7.6767434"><ele>264.6</ele><time>2026-04-12T13:16:09.988Z</time></trkpt><trkpt lat="44.7690605" lon="7.6767479"><ele>264.8</ele><time>2026-04-12T13:16:11.988Z</time></trkpt><trkpt lat="44.7691642" lon="7.6767468"><ele>265.0</ele><time>2026-04-12T13:16:13.988Z</time></trkpt><trkpt lat="44.7692499" lon="7.6767632"><ele>265.0</ele><time>2026-04-12T13:16:15.988Z</time></trkpt><trkpt lat="44.7693062" lon="7.6767216"><ele>265.0</ele><time>2026-04-12T13:16:17.988Z</time></trkpt><trkpt lat="44.7692364" lon="7.6766645"><ele>265.0</ele><time>2026-04-12T13:16:20.988Z</time></trkpt><trkpt lat="44.7691529" lon="7.6766609"><ele>265.0</ele><time>2026-04-12T13:16:22.988Z</time></trkpt><trkpt lat="44.7690618" lon="7.6766712"><ele>265.0</ele><time>2026-04-12T13:16:24.988Z</time></trkpt><trkpt lat="44.7689707" lon="7.6766687"><ele>265.0</ele><time>2026-04-12T13:16:26.988Z</time></trkpt><trkpt lat="44.7688842" lon="7.6766635"><ele>265.0</ele><time>2026-04-12T13:16:28.988Z</time></trkpt><trkpt lat="44.7688001" lon="7.6766512"><ele>265.0</ele><time>2026-04-12T13:16:30.988Z</time></trkpt><trkpt lat="44.7687276" lon="7.6766533"><ele>265.0</ele><time>2026-04-12T13:16:32.988Z</time></trkpt><trkpt lat="44.7686795" lon="7.6767366"><ele>265.0</ele><time>2026-04-12T13:16:34.988Z</time></trkpt><trkpt lat="44.7686617" lon="7.6768404"><ele>265.0</ele><time>2026-04-12T13:16:36.988Z</time></trkpt><trkpt lat="44.768652" lon="7.676953"><ele>265.0</ele><time>2026-04-12T13:16:38.988Z</time></trkpt><trkpt lat="44.7686484" lon="7.6770654"><ele>264.8333333333333</ele><time>2026-04-12T13:16:40.988Z</time></trkpt><trkpt lat="44.7686344" lon="7.6771776"><ele>264.66666666666663</ele><time>2026-04-12T13:16:42.988Z</time></trkpt><trkpt lat="44.7686126" lon="7.677293"><ele>264.5</ele><time>2026-04-12T13:16:44.988Z</time></trkpt><trkpt lat="44.7686062" lon="7.6774086"><ele>264.3333333333333</ele><time>2026-04-12T13:16:46.988Z</time></trkpt><trkpt lat="44.7686085" lon="7.6775191"><ele>264.1666666666667</ele><time>2026-04-12T13:16:48.988Z</time></trkpt><trkpt lat="44.7686084" lon="7.6776178"><ele>264.0</ele><time>2026-04-12T13:16:50.988Z</time></trkpt><trkpt lat="44.7686072" lon="7.6777098"><ele>264.0</ele><time>2026-04-12T13:16:52.988Z</time></trkpt><trkpt lat="44.7686824" lon="7.6777896"><ele>264.0</ele><time>2026-04-12T13:16:55.988Z</time></trkpt><trkpt lat="44.7688421" lon="7.6777589"><ele>264.0</ele><time>2026-04-12T13:18:09.988Z</time></trkpt><trkpt lat="44.7689095" lon="7.6778286"><ele>264.0</ele><time>2026-04-12T13:18:11.988Z</time></trkpt><trkpt lat="44.7689771" lon="7.6778807"><ele>264.0</ele><time>2026-04-12T13:18:13.988Z</time></trkpt><trkpt lat="44.7690561" lon="7.677931"><ele>263.8333333333333</ele><time>2026-04-12T13:18:16.988Z</time></trkpt><trkpt lat="44.7691425" lon="7.6779685"><ele>263.6666666666667</ele><time>2026-04-12T13:18:19.988Z</time></trkpt><trkpt lat="44.7691837" lon="7.6780657"><ele>263.5</ele><time>2026-04-12T13:18:22.988Z</time></trkpt><trkpt lat="44.7691721" lon="7.6781911"><ele>263.33333333333337</ele><time>2026-04-12T13:18:24.988Z</time></trkpt><trkpt lat="44.7691799" lon="7.6783024"><ele>263.1666666666667</ele><time>2026-04-12T13:18:26.988Z</time></trkpt><trkpt lat="44.7691792" lon="7.6784051"><ele>263.0</ele><time>2026-04-12T13:18:28.988Z</time></trkpt><trkpt lat="44.7691681" lon="7.6785071"><ele>263.0</ele><time>2026-04-12T13:18:30.988Z</time></trkpt><trkpt lat="44.7691701" lon="7.6786158"><ele>263.0</ele><time>2026-04-12T13:18:32.988Z</time></trkpt><trkpt lat="44.7691675" lon="7.6787267"><ele>263.0</ele><time>2026-04-12T13:18:34.988Z</time></trkpt><trkpt lat="44.7691716" lon="7.6788382"><ele>263.0</ele><time>2026-04-12T13:18:36.988Z</time></trkpt><trkpt lat="44.7691758" lon="7.678945"><ele>263.0</ele><time>2026-04-12T13:18:38.988Z</time></trkpt><trkpt lat="44.7691756" lon="7.6790542"><ele>263.0</ele><time>2026-04-12T13:18:40.988Z</time></trkpt><trkpt lat="44.7691781" lon="7.6791665"><ele>263.0</ele><time>2026-04-12T13:18:42.988Z</time></trkpt><trkpt lat="44.7691381" lon="7.679236"><ele>263.0</ele><time>2026-04-12T13:18:44.988Z</time></trkpt><trkpt lat="44.7690539" lon="7.6792352"><ele>263.0</ele><time>2026-04-12T13:18:46.988Z</time></trkpt><trkpt lat="44.7689617" lon="7.6792385"><ele>263.0</ele><time>2026-04-12T13:18:48.988Z</time></trkpt><trkpt lat="44.7688876" lon="7.6792617"><ele>263.0</ele><time>2026-04-12T13:18:50.988Z</time></trkpt><trkpt lat="44.7687988" lon="7.6792952"><ele>263.0</ele><time>2026-04-12T13:18:52.988Z</time></trkpt><trkpt lat="44.7687286" lon="7.6792975"><ele>263.0</ele><time>2026-04-12T13:18:53.988Z</time></trkpt><trkpt lat="44.7686411" lon="7.6793256"><ele>263.0</ele><time>2026-04-12T13:18:55.988Z</time></trkpt><trkpt lat="44.7685493" lon="7.6793251"><ele>263.0</ele><time>2026-04-12T13:18:57.988Z</time></trkpt><trkpt lat="44.7684887" lon="7.6792686"><ele>263.0</ele><time>2026-04-12T13:19:00.988Z</time></trkpt><trkpt lat="44.7684461" lon="7.6791794"><ele>263.0</ele><time>2026-04-12T13:19:02.988Z</time></trkpt><trkpt lat="44.7684385" lon="7.6790705"><ele>263.0</ele><time>2026-04-12T13:19:04.988Z</time></trkpt><trkpt lat="44.7684597" lon="7.6789633"><ele>263.1666666666667</ele><time>2026-04-12T13:19:06.988Z</time></trkpt><trkpt lat="44.7684869" lon="7.6788637"><ele>263.33333333333337</ele><time>2026-04-12T13:19:08.988Z</time></trkpt><trkpt lat="44.7684819" lon="7.6787744"><ele>263.5</ele><time>2026-04-12T13:19:10.988Z</time></trkpt><trkpt lat="44.7684426" lon="7.6786939"><ele>263.6666666666667</ele><time>2026-04-12T13:19:12.988Z</time></trkpt><trkpt lat="44.7683541" lon="7.6786363"><ele>263.8333333333333</ele><time>2026-04-12T13:19:14.988Z</time></trkpt><trkpt lat="44.7682525" lon="7.6785955"><ele>264.0</ele><time>2026-04-12T13:19:16.988Z</time></trkpt><trkpt lat="44.7681737" lon="7.6785438"><ele>264.0</ele><time>2026-04-12T13:19:18.988Z</time></trkpt><trkpt lat="44.7680956" lon="7.678489"><ele>264.0</ele><time>2026-04-12T13:19:20.988Z</time></trkpt><trkpt lat="44.7680222" lon="7.67846"><ele>264.0</ele><time>2026-04-12T13:19:22.988Z</time></trkpt><trkpt lat="44.7679492" lon="7.6784137"><ele>264.0</ele><time>2026-04-12T13:19:25.988Z</time></trkpt><trkpt lat="44.7678851" lon="7.6784402"><ele>264.0</ele><time>2026-04-12T13:19:27.988Z</time></trkpt><trkpt lat="44.7678244" lon="7.6785032"><ele>264.0</ele><time>2026-04-12T13:19:29.988Z</time></trkpt><trkpt lat="44.7677706" lon="7.6785831"><ele>264.1666666666667</ele><time>2026-04-12T13:19:31.988Z</time></trkpt><trkpt lat="44.7677049" lon="7.6786093"><ele>264.3333333333333</ele><time>2026-04-12T13:19:35.988Z</time></trkpt><trkpt lat="44.7676487" lon="7.6785626"><ele>264.5</ele><time>2026-04-12T13:19:37.988Z</time></trkpt><trkpt lat="44.7675571" lon="7.6785159"><ele>264.66666666666663</ele><time>2026-04-12T13:19:39.988Z</time></trkpt><trkpt lat="44.7674631" lon="7.6785081"><ele>264.8333333333333</ele><time>2026-04-12T13:19:41.988Z</time></trkpt><trkpt lat="44.7673593" lon="7.6785174"><ele>265.0</ele><time>2026-04-12T13:19:43.988Z</time></trkpt><trkpt lat="44.7672738" lon="7.6785209"><ele>265.2</ele><time>2026-04-12T13:19:45.988Z</time></trkpt><trkpt lat="44.7671886" lon="7.6785456"><ele>265.4</ele><time>2026-04-12T13:19:47.988Z</time></trkpt><trkpt lat="44.767079" lon="7.6785595"><ele>265.6</ele><time>2026-04-12T13:19:49.988Z</time></trkpt><trkpt lat="44.7669797" lon="7.6786147"><ele>265.8</ele><time>2026-04-12T13:19:51.988Z</time></trkpt><trkpt lat="44.7669124" lon="7.6787327"><ele>266.0</ele><time>2026-04-12T13:19:53.988Z</time></trkpt><trkpt lat="44.7668961" lon="7.6788752"><ele>266.2</ele><time>2026-04-12T13:19:55.988Z</time></trkpt><trkpt lat="44.7668943" lon="7.6790117"><ele>266.40000000000003</ele><time>2026-04-12T13:19:57.988Z</time></trkpt><trkpt lat="44.7668844" lon="7.6791466"><ele>266.6</ele><time>2026-04-12T13:19:59.988Z</time></trkpt><trkpt lat="44.7668774" lon="7.6792764"><ele>266.8</ele><time>2026-04-12T13:20:01.988Z</time></trkpt><trkpt lat="44.766878" lon="7.679407"><ele>267.0</ele><time>2026-04-12T13:20:03.988Z</time></trkpt><trkpt lat="44.7668596" lon="7.6795289"><ele>266.2</ele><time>2026-04-12T13:20:05.988Z</time></trkpt><trkpt lat="44.7668344" lon="7.679681"><ele>265.4</ele><time>2026-04-12T13:20:09.988Z</time></trkpt><trkpt lat="44.7668092" lon="7.6798237"><ele>264.6</ele><time>2026-04-12T13:20:10.988Z</time></trkpt><trkpt lat="44.7668089" lon="7.6799378"><ele>263.8</ele><time>2026-04-12T13:20:12.988Z</time></trkpt><trkpt lat="44.7667999" lon="7.6800539"><ele>263.0</ele><time>2026-04-12T13:20:14.988Z</time></trkpt><trkpt lat="44.7667676" lon="7.6801888"><ele>262.8</ele><time>2026-04-12T13:20:16.988Z</time></trkpt><trkpt lat="44.7667324" lon="7.6803338"><ele>262.6</ele><time>2026-04-12T13:20:18.988Z</time></trkpt><trkpt lat="44.7666943" lon="7.6804792"><ele>262.4</ele><time>2026-04-12T13:20:20.988Z</time></trkpt><trkpt lat="44.7666532" lon="7.6806223"><ele>262.2</ele><time>2026-04-12T13:20:22.988Z</time></trkpt><trkpt lat="44.766609" lon="7.6807694"><ele>262.0</ele><time>2026-04-12T13:20:24.988Z</time></trkpt><trkpt lat="44.7665641" lon="7.6809144"><ele>262.0</ele><time>2026-04-12T13:20:26.988Z</time></trkpt><trkpt lat="44.7665318" lon="7.681056"><ele>262.0</ele><time>2026-04-12T13:20:28.988Z</time></trkpt><trkpt lat="44.7664723" lon="7.6811729"><ele>262.0</ele><time>2026-04-12T13:20:30.988Z</time></trkpt><trkpt lat="44.766383" lon="7.6812545"><ele>262.0</ele><time>2026-04-12T13:20:32.988Z</time></trkpt><trkpt lat="44.7662955" lon="7.6813358"><ele>262.0</ele><time>2026-04-12T13:20:34.988Z</time></trkpt><trkpt lat="44.7662053" lon="7.6814158"><ele>262.0</ele><time>2026-04-12T13:20:36.988Z</time></trkpt><trkpt lat="44.7661108" lon="7.681502"><ele>262.0</ele><time>2026-04-12T13:20:38.988Z</time></trkpt><trkpt lat="44.7660371" lon="7.6816023"><ele>262.0</ele><time>2026-04-12T13:20:40.988Z</time></trkpt><trkpt lat="44.7659798" lon="7.6817272"><ele>262.0</ele><time>2026-04-12T13:20:42.988Z</time></trkpt><trkpt lat="44.7659223" lon="7.6818556"><ele>262.0</ele><time>2026-04-12T13:20:44.988Z</time></trkpt><trkpt lat="44.7658401" lon="7.6819524"><ele>261.8</ele><time>2026-04-12T13:20:46.988Z</time></trkpt><trkpt lat="44.7657535" lon="7.6820478"><ele>261.6</ele><time>2026-04-12T13:20:48.988Z</time></trkpt><trkpt lat="44.7656704" lon="7.6821449"><ele>261.40000000000003</ele><time>2026-04-12T13:20:50.988Z</time></trkpt><trkpt lat="44.7655929" lon="7.6822476"><ele>261.2</ele><time>2026-04-12T13:20:52.988Z</time></trkpt><trkpt lat="44.7655294" lon="7.6823629"><ele>261.0</ele><time>2026-04-12T13:20:54.988Z</time></trkpt><trkpt lat="44.765479" lon="7.6824966"><ele>261.0</ele><time>2026-04-12T13:20:56.988Z</time></trkpt><trkpt lat="44.7654312" lon="7.6826366"><ele>261.0</ele><time>2026-04-12T13:20:58.988Z</time></trkpt><trkpt lat="44.7653878" lon="7.6827793"><ele>261.0</ele><time>2026-04-12T13:21:00.988Z</time></trkpt><trkpt lat="44.7653446" lon="7.6829319"><ele>261.0</ele><time>2026-04-12T13:21:02.988Z</time></trkpt><trkpt lat="44.7653064" lon="7.6830847"><ele>261.0</ele><time>2026-04-12T13:21:04.988Z</time></trkpt><trkpt lat="44.765268" lon="7.6832302"><ele>261.0</ele><time>2026-04-12T13:21:06.988Z</time></trkpt><trkpt lat="44.7652226" lon="7.6833664"><ele>261.0</ele><time>2026-04-12T13:21:08.988Z</time></trkpt><trkpt lat="44.76518" lon="7.6835116"><ele>261.0</ele><time>2026-04-12T13:21:10.988Z</time></trkpt><trkpt lat="44.7651511" lon="7.6836494"><ele>261.0</ele><time>2026-04-12T13:21:12.988Z</time></trkpt><trkpt lat="44.7651262" lon="7.6837656"><ele>260.8</ele><time>2026-04-12T13:21:14.988Z</time></trkpt><trkpt lat="44.7650865" lon="7.6838872"><ele>260.6</ele><time>2026-04-12T13:21:16.988Z</time></trkpt><trkpt lat="44.7650396" lon="7.6840168"><ele>260.4</ele><time>2026-04-12T13:21:18.988Z</time></trkpt><trkpt lat="44.7649953" lon="7.6841526"><ele>260.2</ele><time>2026-04-12T13:21:20.988Z</time></trkpt><trkpt lat="44.7649471" lon="7.6842768"><ele>260.0</ele><time>2026-04-12T13:21:22.988Z</time></trkpt><trkpt lat="44.7649001" lon="7.6844009"><ele>259.8</ele><time>2026-04-12T13:21:24.988Z</time></trkpt><trkpt lat="44.7648573" lon="7.6845453"><ele>259.6</ele><time>2026-04-12T13:21:26.988Z</time></trkpt><trkpt lat="44.7648115" lon="7.684673"><ele>259.4</ele><time>2026-04-12T13:21:28.988Z</time></trkpt><trkpt lat="44.7647473" lon="7.6848278"><ele>259.2</ele><time>2026-04-12T13:21:30.988Z</time></trkpt><trkpt lat="44.7647277" lon="7.6849773"><ele>259.0</ele><time>2026-04-12T13:21:32.988Z</time></trkpt><trkpt lat="44.7647021" lon="7.6851416"><ele>259.0</ele><time>2026-04-12T13:21:34.988Z</time></trkpt><trkpt lat="44.7646867" lon="7.6853067"><ele>259.0</ele><time>2026-04-12T13:21:36.988Z</time></trkpt><trkpt lat="44.7646715" lon="7.6854756"><ele>259.0</ele><time>2026-04-12T13:21:38.988Z</time></trkpt><trkpt lat="44.7646605" lon="7.6856453"><ele>259.0</ele><time>2026-04-12T13:21:40.988Z</time></trkpt><trkpt lat="44.7646509" lon="7.6858052"><ele>259.0</ele><time>2026-04-12T13:21:42.988Z</time></trkpt><trkpt lat="44.7646493" lon="7.6859769"><ele>259.0</ele><time>2026-04-12T13:21:44.988Z</time></trkpt><trkpt lat="44.7646395" lon="7.6861471"><ele>259.0</ele><time>2026-04-12T13:21:46.988Z</time></trkpt><trkpt lat="44.7646406" lon="7.6862381"><ele>259.0</ele><time>2026-04-12T13:21:47.988Z</time></trkpt><trkpt lat="44.7646447" lon="7.6864079"><ele>259.0</ele><time>2026-04-12T13:21:49.988Z</time></trkpt><trkpt lat="44.7646517" lon="7.6865755"><ele>259.0</ele><time>2026-04-12T13:21:51.988Z</time></trkpt><trkpt lat="44.7646595" lon="7.686736"><ele>259.0</ele><time>2026-04-12T13:21:53.988Z</time></trkpt><trkpt lat="44.7646617" lon="7.6869026"><ele>259.0</ele><time>2026-04-12T13:21:55.988Z</time></trkpt><trkpt lat="44.7646688" lon="7.6870707"><ele>259.0</ele><time>2026-04-12T13:21:57.988Z</time></trkpt><trkpt lat="44.7646703" lon="7.6872338"><ele>259.25</ele><time>2026-04-12T13:21:59.988Z</time></trkpt><trkpt lat="44.7646762" lon="7.687404"><ele>259.5</ele><time>2026-04-12T13:22:01.988Z</time></trkpt><trkpt lat="44.7646719" lon="7.6875724"><ele>259.75</ele><time>2026-04-12T13:22:03.988Z</time></trkpt><trkpt lat="44.7646596" lon="7.6877415"><ele>260.0</ele><time>2026-04-12T13:22:05.988Z</time></trkpt><trkpt lat="44.764645" lon="7.6879133"><ele>260.0</ele><time>2026-04-12T13:22:07.988Z</time></trkpt><trkpt lat="44.7646232" lon="7.6880873"><ele>260.0</ele><time>2026-04-12T13:22:09.988Z</time></trkpt><trkpt lat="44.7645825" lon="7.6882512"><ele>260.0</ele><time>2026-04-12T13:22:11.988Z</time></trkpt><trkpt lat="44.7645474" lon="7.6884148"><ele>260.0</ele><time>2026-04-12T13:22:13.988Z</time></trkpt><trkpt lat="44.7645123" lon="7.6885783"><ele>260.25</ele><time>2026-04-12T13:22:15.988Z</time></trkpt><trkpt lat="44.7644884" lon="7.6887347"><ele>260.5</ele><time>2026-04-12T13:22:17.988Z</time></trkpt><trkpt lat="44.7644694" lon="7.6889043"><ele>260.75</ele><time>2026-04-12T13:22:19.988Z</time></trkpt><trkpt lat="44.7644519" lon="7.6890708"><ele>261.0</ele><time>2026-04-12T13:22:21.988Z</time></trkpt><trkpt lat="44.7644429" lon="7.6892368"><ele>261.0</ele><time>2026-04-12T13:22:23.988Z</time></trkpt><trkpt lat="44.7644301" lon="7.6894021"><ele>261.0</ele><time>2026-04-12T13:22:25.988Z</time></trkpt><trkpt lat="44.7644243" lon="7.6895645"><ele>261.0</ele><time>2026-04-12T13:22:27.988Z</time></trkpt><trkpt lat="44.7644173" lon="7.6897273"><ele>261.0</ele><time>2026-04-12T13:22:29.988Z</time></trkpt><trkpt lat="44.7644149" lon="7.6898903"><ele>260.40000000000003</ele><time>2026-04-12T13:22:31.988Z</time></trkpt><trkpt lat="44.7644128" lon="7.6900582"><ele>259.8</ele><time>2026-04-12T13:22:33.988Z</time></trkpt><trkpt lat="44.7644161" lon="7.6901492"><ele>259.20000000000005</ele><time>2026-04-12T13:22:34.988Z</time></trkpt><trkpt lat="44.7644081" lon="7.6903051"><ele>258.6</ele><time>2026-04-12T13:22:36.988Z</time></trkpt><trkpt lat="44.7644071" lon="7.6904587"><ele>258.0</ele><time>2026-04-12T13:22:38.988Z</time></trkpt><trkpt lat="44.7644232" lon="7.6905465"><ele>258.0</ele><time>2026-04-12T13:22:39.988Z</time></trkpt><trkpt lat="44.7644363" lon="7.6907057"><ele>258.0</ele><time>2026-04-12T13:22:41.988Z</time></trkpt><trkpt lat="44.7644558" lon="7.6908669"><ele>258.0</ele><time>2026-04-12T13:22:43.988Z</time></trkpt><trkpt lat="44.7644766" lon="7.6910197"><ele>258.0</ele><time>2026-04-12T13:22:45.988Z</time></trkpt><trkpt lat="44.7644945" lon="7.6911681"><ele>258.0</ele><time>2026-04-12T13:22:47.988Z</time></trkpt><trkpt lat="44.7645113" lon="7.6913199"><ele>258.0</ele><time>2026-04-12T13:22:49.988Z</time></trkpt><trkpt lat="44.7645445" lon="7.6914698"><ele>258.0</ele><time>2026-04-12T13:22:51.988Z</time></trkpt><trkpt lat="44.7645788" lon="7.6916245"><ele>258.0</ele><time>2026-04-12T13:22:53.988Z</time></trkpt><trkpt lat="44.7646054" lon="7.6917731"><ele>258.0</ele><time>2026-04-12T13:22:55.988Z</time></trkpt><trkpt lat="44.7646272" lon="7.6919156"><ele>258.0</ele><time>2026-04-12T13:22:57.988Z</time></trkpt><trkpt lat="44.7646489" lon="7.6920654"><ele>257.8</ele><time>2026-04-12T13:22:59.988Z</time></trkpt><trkpt lat="44.7646532" lon="7.6922061"><ele>257.6</ele><time>2026-04-12T13:23:01.988Z</time></trkpt><trkpt lat="44.7645967" lon="7.6922977"><ele>257.4</ele><time>2026-04-12T13:23:03.988Z</time></trkpt><trkpt lat="44.764496" lon="7.6923313"><ele>257.2</ele><time>2026-04-12T13:23:05.988Z</time></trkpt><trkpt lat="44.7643992" lon="7.6923653"><ele>257.0</ele><time>2026-04-12T13:23:07.988Z</time></trkpt><trkpt lat="44.7643174" lon="7.6923832"><ele>257.4</ele><time>2026-04-12T13:23:09.988Z</time></trkpt><trkpt lat="44.7642149" lon="7.6924035"><ele>257.79999999999995</ele><time>2026-04-12T13:23:11.988Z</time></trkpt><trkpt lat="44.7641077" lon="7.692435"><ele>258.2</ele><time>2026-04-12T13:23:13.988Z</time></trkpt><trkpt lat="44.7639983" lon="7.6924708"><ele>258.59999999999997</ele><time>2026-04-12T13:23:15.988Z</time></trkpt><trkpt lat="44.7638905" lon="7.6925102"><ele>259.0</ele><time>2026-04-12T13:23:17.988Z</time></trkpt><trkpt lat="44.7637886" lon="7.6925502"><ele>259.0</ele><time>2026-04-12T13:23:19.988Z</time></trkpt><trkpt lat="44.7636781" lon="7.6925969"><ele>259.0</ele><time>2026-04-12T13:23:21.988Z</time></trkpt><trkpt lat="44.7635674" lon="7.6926388"><ele>259.0</ele><time>2026-04-12T13:23:23.988Z</time></trkpt><trkpt lat="44.7634529" lon="7.6926882"><ele>259.0</ele><time>2026-04-12T13:23:25.988Z</time></trkpt><trkpt lat="44.7633364" lon="7.6927163"><ele>259.2</ele><time>2026-04-12T13:23:27.988Z</time></trkpt><trkpt lat="44.7632225" lon="7.6927409"><ele>259.4</ele><time>2026-04-12T13:23:29.988Z</time></trkpt><trkpt lat="44.7631137" lon="7.6927576"><ele>259.6</ele><time>2026-04-12T13:23:31.988Z</time></trkpt><trkpt lat="44.7630037" lon="7.6927578"><ele>259.8</ele><time>2026-04-12T13:23:33.988Z</time></trkpt><trkpt lat="44.7628925" lon="7.6927516"><ele>260.0</ele><time>2026-04-12T13:23:35.988Z</time></trkpt><trkpt lat="44.7627748" lon="7.6927354"><ele>260.5</ele><time>2026-04-12T13:23:37.988Z</time></trkpt><trkpt lat="44.7626533" lon="7.69272"><ele>261.0</ele><time>2026-04-12T13:23:39.988Z</time></trkpt><trkpt lat="44.7625306" lon="7.6926992"><ele>261.5</ele><time>2026-04-12T13:23:41.988Z</time></trkpt><trkpt lat="44.7624108" lon="7.692666"><ele>262.0</ele><time>2026-04-12T13:23:43.988Z</time></trkpt><trkpt lat="44.7622928" lon="7.6926399"><ele>262.0</ele><time>2026-04-12T13:23:45.988Z</time></trkpt><trkpt lat="44.7621716" lon="7.6926142"><ele>262.0</ele><time>2026-04-12T13:23:47.988Z</time></trkpt><trkpt lat="44.7620584" lon="7.6926153"><ele>262.0</ele><time>2026-04-12T13:23:49.988Z</time></trkpt><trkpt lat="44.7619354" lon="7.6926312"><ele>262.0</ele><time>2026-04-12T13:23:51.988Z</time></trkpt><trkpt lat="44.7618147" lon="7.6926488"><ele>261.75</ele><time>2026-04-12T13:23:53.988Z</time></trkpt><trkpt lat="44.7616961" lon="7.6926677"><ele>261.5</ele><time>2026-04-12T13:23:55.988Z</time></trkpt><trkpt lat="44.7615817" lon="7.6926897"><ele>261.25</ele><time>2026-04-12T13:23:57.988Z</time></trkpt><trkpt lat="44.7614653" lon="7.6927047"><ele>261.0</ele><time>2026-04-12T13:23:59.988Z</time></trkpt><trkpt lat="44.7613495" lon="7.6927275"><ele>261.0</ele><time>2026-04-12T13:24:01.988Z</time></trkpt><trkpt lat="44.7612329" lon="7.6927342"><ele>261.0</ele><time>2026-04-12T13:24:03.988Z</time></trkpt><trkpt lat="44.7611198" lon="7.6927646"><ele>261.0</ele><time>2026-04-12T13:24:05.988Z</time></trkpt><trkpt lat="44.7610065" lon="7.692793"><ele>261.0</ele><time>2026-04-12T13:24:07.988Z</time></trkpt><trkpt lat="44.760898" lon="7.6928174"><ele>261.25</ele><time>2026-04-12T13:24:09.988Z</time></trkpt><trkpt lat="44.7607863" lon="7.6928459"><ele>261.5</ele><time>2026-04-12T13:24:11.988Z</time></trkpt><trkpt lat="44.7606735" lon="7.6928756"><ele>261.75</ele><time>2026-04-12T13:24:13.988Z</time></trkpt><trkpt lat="44.760562" lon="7.6929049"><ele>262.0</ele><time>2026-04-12T13:24:15.988Z</time></trkpt><trkpt lat="44.7604525" lon="7.6929318"><ele>262.0</ele><time>2026-04-12T13:24:17.988Z</time></trkpt><trkpt lat="44.7603385" lon="7.6929508"><ele>262.0</ele><time>2026-04-12T13:24:19.988Z</time></trkpt><trkpt lat="44.7602238" lon="7.692977"><ele>262.0</ele><time>2026-04-12T13:24:21.988Z</time></trkpt><trkpt lat="44.7601088" lon="7.6930094"><ele>262.0</ele><time>2026-04-12T13:24:23.988Z</time></trkpt><trkpt lat="44.759994" lon="7.6930394"><ele>261.0</ele><time>2026-04-12T13:24:25.988Z</time></trkpt><trkpt lat="44.7598788" lon="7.693066"><ele>260.0</ele><time>2026-04-12T13:24:27.988Z</time></trkpt><trkpt lat="44.7597608" lon="7.6930983"><ele>259.0</ele><time>2026-04-12T13:24:29.988Z</time></trkpt><trkpt lat="44.7596456" lon="7.6931261"><ele>258.0</ele><time>2026-04-12T13:24:31.988Z</time></trkpt><trkpt lat="44.7595298" lon="7.6931557"><ele>258.0</ele><time>2026-04-12T13:24:33.988Z</time></trkpt><trkpt lat="44.7594153" lon="7.6931818"><ele>258.0</ele><time>2026-04-12T13:24:35.988Z</time></trkpt><trkpt lat="44.7593014" lon="7.6932107"><ele>258.0</ele><time>2026-04-12T13:24:37.988Z</time></trkpt><trkpt lat="44.7591863" lon="7.69324"><ele>258.0</ele><time>2026-04-12T13:24:39.988Z</time></trkpt><trkpt lat="44.7590699" lon="7.6932667"><ele>258.2</ele><time>2026-04-12T13:24:41.988Z</time></trkpt><trkpt lat="44.7589562" lon="7.6932959"><ele>258.4</ele><time>2026-04-12T13:24:43.988Z</time></trkpt><trkpt lat="44.7588493" lon="7.6933292"><ele>258.59999999999997</ele><time>2026-04-12T13:24:45.988Z</time></trkpt><trkpt lat="44.7587447" lon="7.693364"><ele>258.8</ele><time>2026-04-12T13:24:47.988Z</time></trkpt><trkpt lat="44.7586341" lon="7.6933694"><ele>259.0</ele><time>2026-04-12T13:24:49.988Z</time></trkpt><trkpt lat="44.7585544" lon="7.6933095"><ele>259.0</ele><time>2026-04-12T13:24:51.988Z</time></trkpt><trkpt lat="44.7585297" lon="7.6932248"><ele>259.0</ele><time>2026-04-12T13:24:53.988Z</time></trkpt><trkpt lat="44.7585495" lon="7.6931366"><ele>259.0</ele><time>2026-04-12T13:24:55.988Z</time></trkpt><trkpt lat="44.7585903" lon="7.6930302"><ele>259.0</ele><time>2026-04-12T13:24:57.988Z</time></trkpt><trkpt lat="44.7586272" lon="7.6929153"><ele>259.0</ele><time>2026-04-12T13:24:59.988Z</time></trkpt><trkpt lat="44.758651" lon="7.6927932"><ele>259.0</ele><time>2026-04-12T13:25:01.988Z</time></trkpt><trkpt lat="44.7586462" lon="7.6926657"><ele>259.2</ele><time>2026-04-12T13:25:03.988Z</time></trkpt><trkpt lat="44.7585872" lon="7.6925662"><ele>259.4</ele><time>2026-04-12T13:25:05.988Z</time></trkpt><trkpt lat="44.7585068" lon="7.6925477"><ele>259.6</ele><time>2026-04-12T13:25:07.988Z</time></trkpt><trkpt lat="44.7584182" lon="7.692566"><ele>259.8</ele><time>2026-04-12T13:25:09.988Z</time></trkpt><trkpt lat="44.7583265" lon="7.6926025"><ele>260.0</ele><time>2026-04-12T13:25:11.988Z</time></trkpt><trkpt lat="44.7582356" lon="7.6926411"><ele>260.0</ele><time>2026-04-12T13:25:13.988Z</time></trkpt><trkpt lat="44.7581383" lon="7.6926843"><ele>260.0</ele><time>2026-04-12T13:25:15.988Z</time></trkpt><trkpt lat="44.7580495" lon="7.6927298"><ele>260.0</ele><time>2026-04-12T13:25:17.988Z</time></trkpt><trkpt lat="44.7579497" lon="7.6927704"><ele>260.0</ele><time>2026-04-12T13:25:19.988Z</time></trkpt><trkpt lat="44.7578454" lon="7.6928101"><ele>260.0</ele><time>2026-04-12T13:25:21.988Z</time></trkpt><trkpt lat="44.7577448" lon="7.6928416"><ele>259.8</ele><time>2026-04-12T13:25:23.988Z</time></trkpt><trkpt lat="44.7576411" lon="7.6928823"><ele>259.6</ele><time>2026-04-12T13:25:25.988Z</time></trkpt><trkpt lat="44.7575444" lon="7.6929106"><ele>259.4</ele><time>2026-04-12T13:25:27.988Z</time></trkpt><trkpt lat="44.7574495" lon="7.6929558"><ele>259.2</ele><time>2026-04-12T13:25:29.988Z</time></trkpt><trkpt lat="44.7573446" lon="7.6929923"><ele>259.0</ele><time>2026-04-12T13:25:31.988Z</time></trkpt><trkpt lat="44.757241" lon="7.6930279"><ele>259.0</ele><time>2026-04-12T13:25:33.988Z</time></trkpt><trkpt lat="44.757143" lon="7.6930655"><ele>259.0</ele><time>2026-04-12T13:25:35.988Z</time></trkpt><trkpt lat="44.7570445" lon="7.6930976"><ele>259.0</ele><time>2026-04-12T13:25:37.988Z</time></trkpt><trkpt lat="44.7569436" lon="7.6931292"><ele>259.0</ele><time>2026-04-12T13:25:39.988Z</time></trkpt><trkpt lat="44.7568475" lon="7.6931577"><ele>259.0</ele><time>2026-04-12T13:25:41.988Z</time></trkpt><trkpt lat="44.7567479" lon="7.6931887"><ele>259.2</ele><time>2026-04-12T13:25:43.988Z</time></trkpt><trkpt lat="44.7566474" lon="7.6932149"><ele>259.4</ele><time>2026-04-12T13:25:45.988Z</time></trkpt><trkpt lat="44.7565418" lon="7.6932243"><ele>259.6</ele><time>2026-04-12T13:25:47.988Z</time></trkpt><trkpt lat="44.75644" lon="7.6932358"><ele>259.8</ele><time>2026-04-12T13:25:49.988Z</time></trkpt><trkpt lat="44.756331" lon="7.6932418"><ele>260.0</ele><time>2026-04-12T13:25:51.988Z</time></trkpt><trkpt lat="44.7562297" lon="7.6932405"><ele>260.0</ele><time>2026-04-12T13:25:53.988Z</time></trkpt><trkpt lat="44.7561227" lon="7.6932308"><ele>260.0</ele><time>2026-04-12T13:25:55.988Z</time></trkpt><trkpt lat="44.7560125" lon="7.6932089"><ele>260.0</ele><time>2026-04-12T13:25:57.988Z</time></trkpt><trkpt lat="44.7559075" lon="7.6931815"><ele>260.0</ele><time>2026-04-12T13:25:59.988Z</time></trkpt><trkpt lat="44.7557975" lon="7.6931514"><ele>260.0</ele><time>2026-04-12T13:26:01.988Z</time></trkpt><trkpt lat="44.7556935" lon="7.6931228"><ele>260.2</ele><time>2026-04-12T13:26:03.988Z</time></trkpt><trkpt lat="44.7555857" lon="7.6930939"><ele>260.4</ele><time>2026-04-12T13:26:05.988Z</time></trkpt><trkpt lat="44.7554807" lon="7.6930656"><ele>260.6</ele><time>2026-04-12T13:26:07.988Z</time></trkpt><trkpt lat="44.7553698" lon="7.6930471"><ele>260.8</ele><time>2026-04-12T13:26:09.988Z</time></trkpt><trkpt lat="44.7552641" lon="7.6930351"><ele>261.0</ele><time>2026-04-12T13:26:11.988Z</time></trkpt><trkpt lat="44.7551685" lon="7.6930121"><ele>261.0</ele><time>2026-04-12T13:26:13.988Z</time></trkpt><trkpt lat="44.7550737" lon="7.6929929"><ele>261.0</ele><time>2026-04-12T13:26:15.988Z</time></trkpt><trkpt lat="44.7549836" lon="7.6929986"><ele>261.0</ele><time>2026-04-12T13:26:17.988Z</time></trkpt><trkpt lat="44.7549001" lon="7.6930371"><ele>261.0</ele><time>2026-04-12T13:26:19.988Z</time></trkpt><trkpt lat="44.7548271" lon="7.6930929"><ele>261.0</ele><time>2026-04-12T13:26:21.988Z</time></trkpt><trkpt lat="44.7547645" lon="7.6931689"><ele>261.0</ele><time>2026-04-12T13:26:23.988Z</time></trkpt><trkpt lat="44.7547112" lon="7.6932403"><ele>261.0</ele><time>2026-04-12T13:26:25.988Z</time></trkpt><trkpt lat="44.7546765" lon="7.6933212"><ele>261.0</ele><time>2026-04-12T13:26:27.988Z</time></trkpt><trkpt lat="44.7546519" lon="7.6934029"><ele>261.0</ele><time>2026-04-12T13:26:30.988Z</time></trkpt><trkpt lat="44.7546972" lon="7.6933383"><ele>261.0</ele><time>2026-04-12T13:26:34.988Z</time></trkpt><trkpt lat="44.75473" lon="7.6932547"><ele>261.0</ele><time>2026-04-12T13:26:36.988Z</time></trkpt><trkpt lat="44.7547775" lon="7.6931695"><ele>261.0</ele><time>2026-04-12T13:26:38.988Z</time></trkpt><trkpt lat="44.7548363" lon="7.6930894"><ele>261.0</ele><time>2026-04-12T13:26:40.988Z</time></trkpt><trkpt lat="44.754897" lon="7.6930227"><ele>261.0</ele><time>2026-04-12T13:26:42.988Z</time></trkpt><trkpt lat="44.7549669" lon="7.692983"><ele>261.0</ele><time>2026-04-12T13:26:44.988Z</time></trkpt><trkpt lat="44.7550328" lon="7.6929745"><ele>261.0</ele><time>2026-04-12T13:26:46.988Z</time></trkpt><trkpt lat="44.7550117" lon="7.6930769"><ele>261.0</ele><time>2026-04-12T13:26:50.988Z</time></trkpt><trkpt lat="44.7549449" lon="7.6931163"><ele>261.0</ele><time>2026-04-12T13:26:53.988Z</time></trkpt><trkpt lat="44.7548651" lon="7.6931702"><ele>261.0</ele><time>2026-04-12T13:26:56.988Z</time></trkpt><trkpt lat="44.7548208" lon="7.6932442"><ele>261.0</ele><time>2026-04-12T13:26:58.988Z</time></trkpt><trkpt lat="44.7547814" lon="7.6933519"><ele>261.0</ele><time>2026-04-12T13:27:00.988Z</time></trkpt><trkpt lat="44.7547292" lon="7.6934906"><ele>261.0</ele><time>2026-04-12T13:27:02.988Z</time></trkpt><trkpt lat="44.7546711" lon="7.6936567"><ele>261.0</ele><time>2026-04-12T13:27:04.988Z</time></trkpt><trkpt lat="44.7546386" lon="7.6937393"><ele>261.0</ele><time>2026-04-12T13:27:05.988Z</time></trkpt><trkpt lat="44.7546139" lon="7.6938278"><ele>261.0</ele><time>2026-04-12T13:27:06.988Z</time></trkpt><trkpt lat="44.7545757" lon="7.6939054"><ele>261.0</ele><time>2026-04-12T13:27:07.988Z</time></trkpt><trkpt lat="44.7545345" lon="7.6940531"><ele>261.0</ele><time>2026-04-12T13:27:09.988Z</time></trkpt><trkpt lat="44.7544962" lon="7.6941643"><ele>261.0</ele><time>2026-04-12T13:27:11.988Z</time></trkpt><trkpt lat="44.7544462" lon="7.6942591"><ele>261.0</ele><time>2026-04-12T13:27:13.988Z</time></trkpt><trkpt lat="44.7543904" lon="7.6943376"><ele>261.0</ele><time>2026-04-12T13:27:15.988Z</time></trkpt><trkpt lat="44.7543307" lon="7.6944052"><ele>261.0</ele><time>2026-04-12T13:27:17.988Z</time></trkpt><trkpt lat="44.7542642" lon="7.6944641"><ele>261.0</ele><time>2026-04-12T13:27:19.988Z</time></trkpt><trkpt lat="44.7541841" lon="7.6944963"><ele>261.40000000000003</ele><time>2026-04-12T13:27:21.988Z</time></trkpt><trkpt lat="44.7540866" lon="7.6944925"><ele>261.8</ele><time>2026-04-12T13:27:23.988Z</time></trkpt><trkpt lat="44.7539901" lon="7.6944667"><ele>262.20000000000005</ele><time>2026-04-12T13:27:25.988Z</time></trkpt><trkpt lat="44.7538955" lon="7.6944487"><ele>262.6</ele><time>2026-04-12T13:27:27.988Z</time></trkpt><trkpt lat="44.7538038" lon="7.6944374"><ele>263.0</ele><time>2026-04-12T13:27:29.988Z</time></trkpt><trkpt lat="44.7537099" lon="7.6944256"><ele>263.0</ele><time>2026-04-12T13:27:31.988Z</time></trkpt><trkpt lat="44.7536125" lon="7.6943952"><ele>263.0</ele><time>2026-04-12T13:27:33.988Z</time></trkpt><trkpt lat="44.7535115" lon="7.694372"><ele>263.0</ele><time>2026-04-12T13:27:35.988Z</time></trkpt><trkpt lat="44.7534068" lon="7.6943574"><ele>263.0</ele><time>2026-04-12T13:27:37.988Z</time></trkpt><trkpt lat="44.7532994" lon="7.6943618"><ele>263.0</ele><time>2026-04-12T13:27:39.988Z</time></trkpt><trkpt lat="44.7531916" lon="7.6943974"><ele>263.0</ele><time>2026-04-12T13:27:41.988Z</time></trkpt><trkpt lat="44.7530887" lon="7.6944504"><ele>263.0</ele><time>2026-04-12T13:27:43.988Z</time></trkpt><trkpt lat="44.7529637" lon="7.6945186"><ele>263.0</ele><time>2026-04-12T13:27:45.988Z</time></trkpt><trkpt lat="44.7528613" lon="7.694563"><ele>263.0</ele><time>2026-04-12T13:27:47.988Z</time></trkpt><trkpt lat="44.7527568" lon="7.6945967"><ele>263.0</ele><time>2026-04-12T13:27:49.988Z</time></trkpt><trkpt lat="44.7526517" lon="7.694633"><ele>263.0</ele><time>2026-04-12T13:27:51.988Z</time></trkpt><trkpt lat="44.7525479" lon="7.6946621"><ele>263.0</ele><time>2026-04-12T13:27:53.988Z</time></trkpt><trkpt lat="44.7524413" lon="7.6946818"><ele>263.0</ele><time>2026-04-12T13:27:55.988Z</time></trkpt><trkpt lat="44.7523361" lon="7.6946948"><ele>263.0</ele><time>2026-04-12T13:27:57.988Z</time></trkpt><trkpt lat="44.7522313" lon="7.6946998"><ele>263.0</ele><time>2026-04-12T13:27:59.988Z</time></trkpt><trkpt lat="44.7521285" lon="7.6947089"><ele>263.0</ele><time>2026-04-12T13:28:01.988Z</time></trkpt><trkpt lat="44.7520237" lon="7.6947319"><ele>263.0</ele><time>2026-04-12T13:28:03.988Z</time></trkpt><trkpt lat="44.7519217" lon="7.6947678"><ele>263.0</ele><time>2026-04-12T13:28:05.988Z</time></trkpt><trkpt lat="44.7518216" lon="7.6948162"><ele>263.0</ele><time>2026-04-12T13:28:07.988Z</time></trkpt><trkpt lat="44.751726" lon="7.6948828"><ele>263.0</ele><time>2026-04-12T13:28:09.988Z</time></trkpt><trkpt lat="44.751626" lon="7.6949429"><ele>263.0</ele><time>2026-04-12T13:28:11.988Z</time></trkpt><trkpt lat="44.7515296" lon="7.6950103"><ele>263.0</ele><time>2026-04-12T13:28:13.988Z</time></trkpt><trkpt lat="44.7514314" lon="7.695078"><ele>263.0</ele><time>2026-04-12T13:28:15.988Z</time></trkpt><trkpt lat="44.751331" lon="7.6951385"><ele>263.0</ele><time>2026-04-12T13:28:17.988Z</time></trkpt><trkpt lat="44.751226" lon="7.6951963"><ele>263.0</ele><time>2026-04-12T13:28:19.988Z</time></trkpt><trkpt lat="44.7511194" lon="7.6952475"><ele>263.0</ele><time>2026-04-12T13:28:21.988Z</time></trkpt><trkpt lat="44.751007" lon="7.6952915"><ele>263.0</ele><time>2026-04-12T13:28:23.988Z</time></trkpt><trkpt lat="44.7508924" lon="7.6953279"><ele>263.0</ele><time>2026-04-12T13:28:25.988Z</time></trkpt><trkpt lat="44.7507772" lon="7.6953649"><ele>263.0</ele><time>2026-04-12T13:28:27.988Z</time></trkpt><trkpt lat="44.7506624" lon="7.6954039"><ele>263.0</ele><time>2026-04-12T13:28:29.988Z</time></trkpt><trkpt lat="44.7505459" lon="7.6954461"><ele>263.0</ele><time>2026-04-12T13:28:31.988Z</time></trkpt><trkpt lat="44.7504294" lon="7.6954888"><ele>263.0</ele><time>2026-04-12T13:28:33.988Z</time></trkpt><trkpt lat="44.7503657" lon="7.6955019"><ele>263.0</ele><time>2026-04-12T13:28:34.988Z</time></trkpt><trkpt lat="44.7502446" lon="7.6955448"><ele>263.0</ele><time>2026-04-12T13:28:36.988Z</time></trkpt><trkpt lat="44.7501827" lon="7.6955647"><ele>263.0</ele><time>2026-04-12T13:28:37.988Z</time></trkpt><trkpt lat="44.7501213" lon="7.6955879"><ele>263.0</ele><time>2026-04-12T13:28:38.988Z</time></trkpt><trkpt lat="44.7500119" lon="7.695628"><ele>263.0</ele><time>2026-04-12T13:28:40.988Z</time></trkpt><trkpt lat="44.7499498" lon="7.69565"><ele>263.0</ele><time>2026-04-12T13:28:41.988Z</time></trkpt><trkpt lat="44.7498301" lon="7.6956856"><ele>263.0</ele><time>2026-04-12T13:28:43.988Z</time></trkpt><trkpt lat="44.7497139" lon="7.6957254"><ele>263.0</ele><time>2026-04-12T13:28:45.988Z</time></trkpt><trkpt lat="44.7496003" lon="7.6957672"><ele>263.0</ele><time>2026-04-12T13:28:47.988Z</time></trkpt><trkpt lat="44.7494846" lon="7.6957999"><ele>263.0</ele><time>2026-04-12T13:28:49.988Z</time></trkpt><trkpt lat="44.7493778" lon="7.6958603"><ele>263.0</ele><time>2026-04-12T13:28:51.988Z</time></trkpt><trkpt lat="44.7492881" lon="7.6959636"><ele>263.2</ele><time>2026-04-12T13:28:53.988Z</time></trkpt><trkpt lat="44.7492328" lon="7.6960961"><ele>263.4</ele><time>2026-04-12T13:28:55.988Z</time></trkpt><trkpt lat="44.7492211" lon="7.6962458"><ele>263.59999999999997</ele><time>2026-04-12T13:28:57.988Z</time></trkpt><trkpt lat="44.7492317" lon="7.6963924"><ele>263.8</ele><time>2026-04-12T13:28:59.988Z</time></trkpt><trkpt lat="44.7492513" lon="7.6965392"><ele>264.0</ele><time>2026-04-12T13:29:01.988Z</time></trkpt><trkpt lat="44.7492541" lon="7.6966852"><ele>264.0</ele><time>2026-04-12T13:29:03.988Z</time></trkpt><trkpt lat="44.7492156" lon="7.6968023"><ele>264.0</ele><time>2026-04-12T13:29:05.988Z</time></trkpt><trkpt lat="44.7491324" lon="7.6968213"><ele>264.0</ele><time>2026-04-12T13:29:07.988Z</time></trkpt><trkpt lat="44.7490269" lon="7.6967981"><ele>264.0</ele><time>2026-04-12T13:29:09.988Z</time></trkpt><trkpt lat="44.7489107" lon="7.6967729"><ele>264.0</ele><time>2026-04-12T13:29:11.988Z</time></trkpt><trkpt lat="44.7488004" lon="7.696756"><ele>264.0</ele><time>2026-04-12T13:29:13.988Z</time></trkpt><trkpt lat="44.7486841" lon="7.69674"><ele>264.0</ele><time>2026-04-12T13:29:15.988Z</time></trkpt><trkpt lat="44.7485669" lon="7.6967228"><ele>264.0</ele><time>2026-04-12T13:29:17.988Z</time></trkpt><trkpt lat="44.7484467" lon="7.696706"><ele>264.0</ele><time>2026-04-12T13:29:19.988Z</time></trkpt><trkpt lat="44.7483265" lon="7.6966873"><ele>264.25</ele><time>2026-04-12T13:29:21.989Z</time></trkpt><trkpt lat="44.7482026" lon="7.6966762"><ele>264.5</ele><time>2026-04-12T13:29:23.988Z</time></trkpt><trkpt lat="44.7480815" lon="7.6966683"><ele>264.75</ele><time>2026-04-12T13:29:25.988Z</time></trkpt><trkpt lat="44.7479596" lon="7.6966907"><ele>265.0</ele><time>2026-04-12T13:29:27.988Z</time></trkpt><trkpt lat="44.74784" lon="7.6967212"><ele>265.0</ele><time>2026-04-12T13:29:29.988Z</time></trkpt><trkpt lat="44.747724" lon="7.6967493"><ele>265.0</ele><time>2026-04-12T13:29:31.988Z</time></trkpt><trkpt lat="44.7476082" lon="7.6967377"><ele>265.0</ele><time>2026-04-12T13:29:33.988Z</time></trkpt><trkpt lat="44.7475008" lon="7.696661"><ele>265.0</ele><time>2026-04-12T13:29:35.988Z</time></trkpt><trkpt lat="44.7474117" lon="7.6965458"><ele>264.6</ele><time>2026-04-12T13:29:37.988Z</time></trkpt><trkpt lat="44.7473286" lon="7.6964251"><ele>264.2</ele><time>2026-04-12T13:29:39.988Z</time></trkpt><trkpt lat="44.7472542" lon="7.6963032"><ele>263.8</ele><time>2026-04-12T13:29:41.988Z</time></trkpt><trkpt lat="44.7472112" lon="7.6962378"><ele>263.4</ele><time>2026-04-12T13:29:42.988Z</time></trkpt><trkpt lat="44.7471648" lon="7.6961763"><ele>263.0</ele><time>2026-04-12T13:29:43.988Z</time></trkpt><trkpt lat="44.7470771" lon="7.6960708"><ele>263.0</ele><time>2026-04-12T13:29:45.988Z</time></trkpt><trkpt lat="44.7469717" lon="7.6960371"><ele>263.0</ele><time>2026-04-12T13:29:47.988Z</time></trkpt><trkpt lat="44.7468602" lon="7.6960686"><ele>263.0</ele><time>2026-04-12T13:29:49.988Z</time></trkpt><trkpt lat="44.7467993" lon="7.6960981"><ele>263.0</ele><time>2026-04-12T13:29:50.988Z</time></trkpt><trkpt lat="44.7467378" lon="7.6961281"><ele>263.0</ele><time>2026-04-12T13:29:51.988Z</time></trkpt><trkpt lat="44.7466787" lon="7.6961603"><ele>263.0</ele><time>2026-04-12T13:29:52.988Z</time></trkpt><trkpt lat="44.746562" lon="7.6962207"><ele>263.0</ele><time>2026-04-12T13:29:54.988Z</time></trkpt><trkpt lat="44.7465012" lon="7.6962469"><ele>263.0</ele><time>2026-04-12T13:29:55.988Z</time></trkpt><trkpt lat="44.746438" lon="7.6962789"><ele>263.0</ele><time>2026-04-12T13:29:56.988Z</time></trkpt><trkpt lat="44.7463761" lon="7.6963057"><ele>263.0</ele><time>2026-04-12T13:29:57.988Z</time></trkpt><trkpt lat="44.7463147" lon="7.696335"><ele>263.0</ele><time>2026-04-12T13:29:58.988Z</time></trkpt><trkpt lat="44.7462513" lon="7.6963636"><ele>263.0</ele><time>2026-04-12T13:29:59.988Z</time></trkpt><trkpt lat="44.7461879" lon="7.696398"><ele>263.0</ele><time>2026-04-12T13:30:00.988Z</time></trkpt><trkpt lat="44.7461244" lon="7.6964246"><ele>263.0</ele><time>2026-04-12T13:30:01.988Z</time></trkpt><trkpt lat="44.7460636" lon="7.6964527"><ele>263.0</ele><time>2026-04-12T13:30:02.988Z</time></trkpt><trkpt lat="44.7460041" lon="7.6964842"><ele>263.0</ele><time>2026-04-12T13:30:03.988Z</time></trkpt><trkpt lat="44.7459441" lon="7.696518"><ele>263.0</ele><time>2026-04-12T13:30:04.988Z</time></trkpt><trkpt lat="44.7458832" lon="7.6965474"><ele>263.0</ele><time>2026-04-12T13:30:05.988Z</time></trkpt><trkpt lat="44.7458196" lon="7.6965761"><ele>263.0</ele><time>2026-04-12T13:30:06.988Z</time></trkpt><trkpt lat="44.7457586" lon="7.6966023"><ele>263.0</ele><time>2026-04-12T13:30:07.988Z</time></trkpt><trkpt lat="44.7456396" lon="7.6966546"><ele>263.4</ele><time>2026-04-12T13:30:09.988Z</time></trkpt><trkpt lat="44.7455181" lon="7.6966824"><ele>263.8</ele><time>2026-04-12T13:30:11.988Z</time></trkpt><trkpt lat="44.7454536" lon="7.6966831"><ele>264.2</ele><time>2026-04-12T13:30:12.988Z</time></trkpt><trkpt lat="44.7453282" lon="7.6966807"><ele>264.6</ele><time>2026-04-12T13:30:14.988Z</time></trkpt><trkpt lat="44.7452635" lon="7.6966788"><ele>265.0</ele><time>2026-04-12T13:30:15.988Z</time></trkpt><trkpt lat="44.7451359" lon="7.6966696"><ele>265.3333333333333</ele><time>2026-04-12T13:30:17.988Z</time></trkpt><trkpt lat="44.7450117" lon="7.69666"><ele>265.66666666666663</ele><time>2026-04-12T13:30:19.988Z</time></trkpt><trkpt lat="44.7449451" lon="7.6966604"><ele>266.0</ele><time>2026-04-12T13:30:20.988Z</time></trkpt><trkpt lat="44.7448822" lon="7.6966559"><ele>266.3333333333333</ele><time>2026-04-12T13:30:21.988Z</time></trkpt><trkpt lat="44.7448172" lon="7.6966434"><ele>266.6666666666667</ele><time>2026-04-12T13:30:22.988Z</time></trkpt><trkpt lat="44.7447501" lon="7.6966375"><ele>267.0</ele><time>2026-04-12T13:30:23.988Z</time></trkpt><trkpt lat="44.7446205" lon="7.696615"><ele>267.0</ele><time>2026-04-12T13:30:25.988Z</time></trkpt><trkpt lat="44.7445559" lon="7.6966046"><ele>267.0</ele><time>2026-04-12T13:30:26.988Z</time></trkpt><trkpt lat="44.7444418" lon="7.6965843"><ele>267.0</ele><time>2026-04-12T13:30:28.988Z</time></trkpt><trkpt lat="44.7443242" lon="7.6965815"><ele>267.0</ele><time>2026-04-12T13:30:30.988Z</time></trkpt><trkpt lat="44.7442168" lon="7.6965798"><ele>267.0</ele><time>2026-04-12T13:30:32.988Z</time></trkpt><trkpt lat="44.7441176" lon="7.6965843"><ele>267.4</ele><time>2026-04-12T13:30:34.988Z</time></trkpt><trkpt lat="44.7440225" lon="7.6966087"><ele>267.79999999999995</ele><time>2026-04-12T13:30:36.988Z</time></trkpt><trkpt lat="44.7439675" lon="7.6966985"><ele>268.2</ele><time>2026-04-12T13:30:38.988Z</time></trkpt><trkpt lat="44.7439434" lon="7.6968318"><ele>268.59999999999997</ele><time>2026-04-12T13:30:40.988Z</time></trkpt><trkpt lat="44.7439183" lon="7.6969769"><ele>269.0</ele><time>2026-04-12T13:30:42.988Z</time></trkpt><trkpt lat="44.7438933" lon="7.6971342"><ele>269.0</ele><time>2026-04-12T13:30:44.988Z</time></trkpt><trkpt lat="44.7438755" lon="7.6972842"><ele>269.0</ele><time>2026-04-12T13:30:46.988Z</time></trkpt><trkpt lat="44.7438514" lon="7.6974331"><ele>269.0</ele><time>2026-04-12T13:30:48.988Z</time></trkpt><trkpt lat="44.7438218" lon="7.6975831"><ele>269.0</ele><time>2026-04-12T13:30:50.988Z</time></trkpt><trkpt lat="44.7437885" lon="7.6977274"><ele>269.0</ele><time>2026-04-12T13:30:52.988Z</time></trkpt><trkpt lat="44.7437561" lon="7.6978715"><ele>269.0</ele><time>2026-04-12T13:30:54.988Z</time></trkpt><trkpt lat="44.7437289" lon="7.6980093"><ele>269.0</ele><time>2026-04-12T13:30:56.988Z</time></trkpt><trkpt lat="44.7437005" lon="7.6981375"><ele>269.0</ele><time>2026-04-12T13:30:58.988Z</time></trkpt><trkpt lat="44.7436753" lon="7.6982715"><ele>269.0</ele><time>2026-04-12T13:31:00.988Z</time></trkpt><trkpt lat="44.7436561" lon="7.6984053"><ele>269.0</ele><time>2026-04-12T13:31:02.988Z</time></trkpt><trkpt lat="44.7436321" lon="7.698546"><ele>269.0</ele><time>2026-04-12T13:31:04.988Z</time></trkpt><trkpt lat="44.7436157" lon="7.6986909"><ele>269.0</ele><time>2026-04-12T13:31:06.988Z</time></trkpt><trkpt lat="44.7435866" lon="7.698834"><ele>269.0</ele><time>2026-04-12T13:31:08.988Z</time></trkpt><trkpt lat="44.7435604" lon="7.6989781"><ele>269.0</ele><time>2026-04-12T13:31:10.988Z</time></trkpt><trkpt lat="44.7435358" lon="7.6991219"><ele>269.0</ele><time>2026-04-12T13:31:12.988Z</time></trkpt><trkpt lat="44.743513" lon="7.6992638"><ele>268.8</ele><time>2026-04-12T13:31:14.988Z</time></trkpt><trkpt lat="44.7434887" lon="7.6994156"><ele>268.59999999999997</ele><time>2026-04-12T13:31:16.988Z</time></trkpt><trkpt lat="44.743462" lon="7.6995632"><ele>268.4</ele><time>2026-04-12T13:31:18.988Z</time></trkpt><trkpt lat="44.7434342" lon="7.6997104"><ele>268.2</ele><time>2026-04-12T13:31:20.988Z</time></trkpt><trkpt lat="44.7434117" lon="7.6998659"><ele>268.0</ele><time>2026-04-12T13:31:22.988Z</time></trkpt><trkpt lat="44.7433785" lon="7.7000097"><ele>267.8</ele><time>2026-04-12T13:31:24.988Z</time></trkpt><trkpt lat="44.7433485" lon="7.7001472"><ele>267.6</ele><time>2026-04-12T13:31:26.988Z</time></trkpt><trkpt lat="44.7433227" lon="7.7002929"><ele>267.4</ele><time>2026-04-12T13:31:28.988Z</time></trkpt><trkpt lat="44.7432646" lon="7.7004276"><ele>267.2</ele><time>2026-04-12T13:31:30.988Z</time></trkpt><trkpt lat="44.7431909" lon="7.7005268"><ele>267.0</ele><time>2026-04-12T13:31:32.988Z</time></trkpt><trkpt lat="44.7430941" lon="7.7005888"><ele>266.8</ele><time>2026-04-12T13:31:34.988Z</time></trkpt><trkpt lat="44.7429872" lon="7.7006353"><ele>266.6</ele><time>2026-04-12T13:31:36.988Z</time></trkpt><trkpt lat="44.7428852" lon="7.7006734"><ele>266.40000000000003</ele><time>2026-04-12T13:31:38.988Z</time></trkpt><trkpt lat="44.7427811" lon="7.7007119"><ele>266.2</ele><time>2026-04-12T13:31:40.988Z</time></trkpt><trkpt lat="44.742682" lon="7.7007506"><ele>266.0</ele><time>2026-04-12T13:31:42.988Z</time></trkpt><trkpt lat="44.742583" lon="7.700781"><ele>265.6</ele><time>2026-04-12T13:31:44.988Z</time></trkpt><trkpt lat="44.7424824" lon="7.7008149"><ele>265.20000000000005</ele><time>2026-04-12T13:31:46.988Z</time></trkpt><trkpt lat="44.7423865" lon="7.7008494"><ele>264.79999999999995</ele><time>2026-04-12T13:31:48.988Z</time></trkpt><trkpt lat="44.7422793" lon="7.7008856"><ele>264.4</ele><time>2026-04-12T13:31:50.988Z</time></trkpt><trkpt lat="44.7421827" lon="7.7009139"><ele>264.0</ele><time>2026-04-12T13:31:52.988Z</time></trkpt><trkpt lat="44.7420869" lon="7.7009559"><ele>264.0</ele><time>2026-04-12T13:31:54.988Z</time></trkpt><trkpt lat="44.7419896" lon="7.7010002"><ele>264.0</ele><time>2026-04-12T13:31:56.988Z</time></trkpt><trkpt lat="44.7418888" lon="7.7010567"><ele>264.0</ele><time>2026-04-12T13:31:58.988Z</time></trkpt><trkpt lat="44.7417845" lon="7.7010952"><ele>264.0</ele><time>2026-04-12T13:32:00.988Z</time></trkpt><trkpt lat="44.741673" lon="7.701138"><ele>264.0</ele><time>2026-04-12T13:32:02.988Z</time></trkpt><trkpt lat="44.7415678" lon="7.7011704"><ele>264.59999999999997</ele><time>2026-04-12T13:32:04.988Z</time></trkpt><trkpt lat="44.7414612" lon="7.7011972"><ele>265.2</ele><time>2026-04-12T13:32:06.988Z</time></trkpt><trkpt lat="44.7413538" lon="7.7012348"><ele>265.79999999999995</ele><time>2026-04-12T13:32:08.988Z</time></trkpt><trkpt lat="44.7412486" lon="7.7012823"><ele>266.4</ele><time>2026-04-12T13:32:10.988Z</time></trkpt><trkpt lat="44.7411412" lon="7.7013218"><ele>267.0</ele><time>2026-04-12T13:32:12.988Z</time></trkpt><trkpt lat="44.7410377" lon="7.7013483"><ele>267.0</ele><time>2026-04-12T13:32:14.988Z</time></trkpt><trkpt lat="44.7409336" lon="7.7013833"><ele>267.0</ele><time>2026-04-12T13:32:16.988Z</time></trkpt><trkpt lat="44.7408258" lon="7.7014208"><ele>267.0</ele><time>2026-04-12T13:32:18.988Z</time></trkpt><trkpt lat="44.7407259" lon="7.7014542"><ele>267.0</ele><time>2026-04-12T13:32:20.988Z</time></trkpt><trkpt lat="44.7406194" lon="7.7014871"><ele>267.0</ele><time>2026-04-12T13:32:22.988Z</time></trkpt><trkpt lat="44.7405165" lon="7.7015251"><ele>267.0</ele><time>2026-04-12T13:32:24.988Z</time></trkpt><trkpt lat="44.7404049" lon="7.7015647"><ele>267.0</ele><time>2026-04-12T13:32:26.988Z</time></trkpt><trkpt lat="44.7402899" lon="7.701607"><ele>267.0</ele><time>2026-04-12T13:32:28.988Z</time></trkpt><trkpt lat="44.7401724" lon="7.701649"><ele>267.0</ele><time>2026-04-12T13:32:30.988Z</time></trkpt><trkpt lat="44.7400566" lon="7.7016913"><ele>267.5</ele><time>2026-04-12T13:32:32.988Z</time></trkpt><trkpt lat="44.7399437" lon="7.7017303"><ele>268.0</ele><time>2026-04-12T13:32:34.988Z</time></trkpt><trkpt lat="44.7398261" lon="7.7017784"><ele>268.5</ele><time>2026-04-12T13:32:36.988Z</time></trkpt><trkpt lat="44.7397063" lon="7.7018201"><ele>269.0</ele><time>2026-04-12T13:32:38.988Z</time></trkpt><trkpt lat="44.7395884" lon="7.701859"><ele>269.0</ele><time>2026-04-12T13:32:40.988Z</time></trkpt><trkpt lat="44.7395277" lon="7.701883"><ele>269.0</ele><time>2026-04-12T13:32:41.988Z</time></trkpt><trkpt lat="44.7394099" lon="7.7019197"><ele>269.0</ele><time>2026-04-12T13:32:43.988Z</time></trkpt><trkpt lat="44.7392971" lon="7.7019491"><ele>269.0</ele><time>2026-04-12T13:32:45.988Z</time></trkpt><trkpt lat="44.7391843" lon="7.7019873"><ele>269.0</ele><time>2026-04-12T13:32:47.988Z</time></trkpt><trkpt lat="44.7390634" lon="7.7020384"><ele>269.0</ele><time>2026-04-12T13:32:49.988Z</time></trkpt><trkpt lat="44.7389512" lon="7.7020797"><ele>269.0</ele><time>2026-04-12T13:32:51.988Z</time></trkpt><trkpt lat="44.7388446" lon="7.7021221"><ele>269.0</ele><time>2026-04-12T13:32:53.988Z</time></trkpt><trkpt lat="44.7387409" lon="7.7021585"><ele>269.0</ele><time>2026-04-12T13:32:55.988Z</time></trkpt><trkpt lat="44.7386345" lon="7.7022054"><ele>269.0</ele><time>2026-04-12T13:32:57.988Z</time></trkpt><trkpt lat="44.7385374" lon="7.7022469"><ele>269.0</ele><time>2026-04-12T13:32:59.988Z</time></trkpt><trkpt lat="44.738434" lon="7.7022813"><ele>269.0</ele><time>2026-04-12T13:33:01.988Z</time></trkpt><trkpt lat="44.738326" lon="7.7023202"><ele>269.0</ele><time>2026-04-12T13:33:03.988Z</time></trkpt><trkpt lat="44.7382235" lon="7.7023684"><ele>269.0</ele><time>2026-04-12T13:33:05.988Z</time></trkpt><trkpt lat="44.7381103" lon="7.7024042"><ele>269.0</ele><time>2026-04-12T13:33:07.988Z</time></trkpt><trkpt lat="44.738" lon="7.7024506"><ele>269.0</ele><time>2026-04-12T13:33:09.988Z</time></trkpt><trkpt lat="44.737884" lon="7.7024892"><ele>269.0</ele><time>2026-04-12T13:33:11.988Z</time></trkpt><trkpt lat="44.7377787" lon="7.7025293"><ele>269.0</ele><time>2026-04-12T13:33:13.988Z</time></trkpt><trkpt lat="44.7376711" lon="7.702574"><ele>269.0</ele><time>2026-04-12T13:33:15.988Z</time></trkpt><trkpt lat="44.7375604" lon="7.7026093"><ele>269.0</ele><time>2026-04-12T13:33:17.988Z</time></trkpt><trkpt lat="44.7374654" lon="7.7026593"><ele>269.0</ele><time>2026-04-12T13:33:19.988Z</time></trkpt><trkpt lat="44.7373602" lon="7.7026898"><ele>269.0</ele><time>2026-04-12T13:33:21.988Z</time></trkpt><trkpt lat="44.7372598" lon="7.702728"><ele>269.0</ele><time>2026-04-12T13:33:23.988Z</time></trkpt><trkpt lat="44.7371578" lon="7.7027632"><ele>269.0</ele><time>2026-04-12T13:33:25.988Z</time></trkpt><trkpt lat="44.7370536" lon="7.7027913"><ele>269.0</ele><time>2026-04-12T13:33:27.988Z</time></trkpt><trkpt lat="44.7369483" lon="7.7028291"><ele>269.0</ele><time>2026-04-12T13:33:29.988Z</time></trkpt><trkpt lat="44.7368487" lon="7.7028643"><ele>269.0</ele><time>2026-04-12T13:33:31.988Z</time></trkpt><trkpt lat="44.7367439" lon="7.7028944"><ele>269.0</ele><time>2026-04-12T13:33:33.988Z</time></trkpt><trkpt lat="44.7366364" lon="7.7029392"><ele>269.0</ele><time>2026-04-12T13:33:35.988Z</time></trkpt><trkpt lat="44.7365367" lon="7.7029774"><ele>268.8</ele><time>2026-04-12T13:33:37.988Z</time></trkpt><trkpt lat="44.7364298" lon="7.7030145"><ele>268.59999999999997</ele><time>2026-04-12T13:33:39.988Z</time></trkpt><trkpt lat="44.7363261" lon="7.7030423"><ele>268.4</ele><time>2026-04-12T13:33:41.988Z</time></trkpt><trkpt lat="44.7362163" lon="7.7030774"><ele>268.2</ele><time>2026-04-12T13:33:43.988Z</time></trkpt><trkpt lat="44.7361122" lon="7.7031226"><ele>268.0</ele><time>2026-04-12T13:33:45.988Z</time></trkpt><trkpt lat="44.7359995" lon="7.7031524"><ele>267.8</ele><time>2026-04-12T13:33:47.988Z</time></trkpt><trkpt lat="44.7358905" lon="7.7032032"><ele>267.6</ele><time>2026-04-12T13:33:49.988Z</time></trkpt><trkpt lat="44.7357828" lon="7.7032467"><ele>267.4</ele><time>2026-04-12T13:33:51.988Z</time></trkpt><trkpt lat="44.7356852" lon="7.7032849"><ele>267.2</ele><time>2026-04-12T13:33:53.988Z</time></trkpt><trkpt lat="44.7355867" lon="7.7033212"><ele>267.0</ele><time>2026-04-12T13:33:55.988Z</time></trkpt><trkpt lat="44.7354847" lon="7.703356"><ele>267.0</ele><time>2026-04-12T13:33:57.988Z</time></trkpt><trkpt lat="44.7354075" lon="7.7033709"><ele>267.0</ele><time>2026-04-12T13:34:00.988Z</time></trkpt><trkpt lat="44.7354858" lon="7.7033717"><ele>267.0</ele><time>2026-04-12T13:34:06.988Z</time></trkpt><trkpt lat="44.7355554" lon="7.703347"><ele>267.0</ele><time>2026-04-12T13:34:08.988Z</time></trkpt><trkpt lat="44.7356427" lon="7.7033689"><ele>267.0</ele><time>2026-04-12T13:34:11.988Z</time></trkpt><trkpt lat="44.735672" lon="7.7034634"><ele>267.0</ele><time>2026-04-12T13:34:13.988Z</time></trkpt><trkpt lat="44.7356744" lon="7.7035731"><ele>266.8571428571429</ele><time>2026-04-12T13:34:15.988Z</time></trkpt><trkpt lat="44.7356817" lon="7.7036704"><ele>266.7142857142857</ele><time>2026-04-12T13:34:17.988Z</time></trkpt><trkpt lat="44.7356874" lon="7.7037749"><ele>266.57142857142856</ele><time>2026-04-12T13:34:19.988Z</time></trkpt><trkpt lat="44.7356961" lon="7.7038839"><ele>266.42857142857144</ele><time>2026-04-12T13:34:21.988Z</time></trkpt><trkpt lat="44.735704" lon="7.7039908"><ele>266.2857142857143</ele><time>2026-04-12T13:34:23.988Z</time></trkpt><trkpt lat="44.7357063" lon="7.7040973"><ele>266.14285714285717</ele><time>2026-04-12T13:34:25.988Z</time></trkpt><trkpt lat="44.7357069" lon="7.7042025"><ele>266.0</ele><time>2026-04-12T13:34:27.988Z</time></trkpt><trkpt lat="44.735712" lon="7.7043038"><ele>266.0</ele><time>2026-04-12T13:34:29.988Z</time></trkpt><trkpt lat="44.7357201" lon="7.7044048"><ele>266.0</ele><time>2026-04-12T13:34:31.988Z</time></trkpt><trkpt lat="44.7357313" lon="7.7045133"><ele>266.0</ele><time>2026-04-12T13:34:33.988Z</time></trkpt><trkpt lat="44.7357399" lon="7.7046184"><ele>266.0</ele><time>2026-04-12T13:34:35.988Z</time></trkpt><trkpt lat="44.7357455" lon="7.7047166"><ele>266.0</ele><time>2026-04-12T13:34:37.988Z</time></trkpt><trkpt lat="44.7357514" lon="7.7048162"><ele>266.0</ele><time>2026-04-12T13:34:39.988Z</time></trkpt><trkpt lat="44.7357692" lon="7.7049182"><ele>266.0</ele><time>2026-04-12T13:34:41.988Z</time></trkpt><trkpt lat="44.7357783" lon="7.7050259"><ele>266.5</ele><time>2026-04-12T13:34:43.988Z</time></trkpt><trkpt lat="44.735789" lon="7.7051406"><ele>267.0</ele><time>2026-04-12T13:34:45.988Z</time></trkpt><trkpt lat="44.735798" lon="7.7052577"><ele>267.5</ele><time>2026-04-12T13:34:47.988Z</time></trkpt><trkpt lat="44.7358092" lon="7.7053768"><ele>268.0</ele><time>2026-04-12T13:34:49.988Z</time></trkpt><trkpt lat="44.7358179" lon="7.7054992"><ele>268.5</ele><time>2026-04-12T13:34:51.988Z</time></trkpt><trkpt lat="44.7358263" lon="7.7056202"><ele>269.0</ele><time>2026-04-12T13:34:53.988Z</time></trkpt><trkpt lat="44.7358364" lon="7.7057458"><ele>269.0</ele><time>2026-04-12T13:34:55.988Z</time></trkpt><trkpt lat="44.7358473" lon="7.7058739"><ele>269.0</ele><time>2026-04-12T13:34:57.988Z</time></trkpt><trkpt lat="44.735857" lon="7.705999"><ele>269.0</ele><time>2026-04-12T13:34:59.988Z</time></trkpt><trkpt lat="44.7358606" lon="7.7061174"><ele>269.0</ele><time>2026-04-12T13:35:01.988Z</time></trkpt><trkpt lat="44.7358687" lon="7.7062375"><ele>269.0</ele><time>2026-04-12T13:35:03.988Z</time></trkpt><trkpt lat="44.7358731" lon="7.706357"><ele>269.0</ele><time>2026-04-12T13:35:05.988Z</time></trkpt><trkpt lat="44.73588" lon="7.7064766"><ele>269.0</ele><time>2026-04-12T13:35:07.988Z</time></trkpt><trkpt lat="44.7358908" lon="7.7065966"><ele>269.0</ele><time>2026-04-12T13:35:09.988Z</time></trkpt><trkpt lat="44.7359026" lon="7.7067176"><ele>269.0</ele><time>2026-04-12T13:35:11.988Z</time></trkpt><trkpt lat="44.7359239" lon="7.7068304"><ele>269.0</ele><time>2026-04-12T13:35:13.988Z</time></trkpt><trkpt lat="44.7359358" lon="7.7069562"><ele>269.0</ele><time>2026-04-12T13:35:15.988Z</time></trkpt><trkpt lat="44.7359435" lon="7.707085"><ele>269.0</ele><time>2026-04-12T13:35:17.988Z</time></trkpt><trkpt lat="44.7359551" lon="7.7072149"><ele>268.8</ele><time>2026-04-12T13:35:19.988Z</time></trkpt><trkpt lat="44.7359651" lon="7.7073446"><ele>268.59999999999997</ele><time>2026-04-12T13:35:21.988Z</time></trkpt><trkpt lat="44.7359739" lon="7.7074675"><ele>268.4</ele><time>2026-04-12T13:35:23.988Z</time></trkpt><trkpt lat="44.7359799" lon="7.7075948"><ele>268.2</ele><time>2026-04-12T13:35:25.988Z</time></trkpt><trkpt lat="44.735989" lon="7.7077254"><ele>268.0</ele><time>2026-04-12T13:35:27.988Z</time></trkpt><trkpt lat="44.7360013" lon="7.7078508"><ele>268.0</ele><time>2026-04-12T13:35:29.988Z</time></trkpt><trkpt lat="44.7360103" lon="7.7079771"><ele>268.0</ele><time>2026-04-12T13:35:31.988Z</time></trkpt><trkpt lat="44.7360206" lon="7.7081055"><ele>268.0</ele><time>2026-04-12T13:35:33.988Z</time></trkpt><trkpt lat="44.7360332" lon="7.7082322"><ele>268.0</ele><time>2026-04-12T13:35:35.988Z</time></trkpt><trkpt lat="44.7360471" lon="7.7083578"><ele>268.0</ele><time>2026-04-12T13:35:37.988Z</time></trkpt><trkpt lat="44.736056" lon="7.7084893"><ele>268.4</ele><time>2026-04-12T13:35:39.988Z</time></trkpt><trkpt lat="44.7360641" lon="7.7086155"><ele>268.8</ele><time>2026-04-12T13:35:41.988Z</time></trkpt><trkpt lat="44.7360694" lon="7.7087425"><ele>269.2</ele><time>2026-04-12T13:35:43.988Z</time></trkpt><trkpt lat="44.7360842" lon="7.7088679"><ele>269.6</ele><time>2026-04-12T13:35:45.988Z</time></trkpt><trkpt lat="44.7360933" lon="7.7089969"><ele>270.0</ele><time>2026-04-12T13:35:47.988Z</time></trkpt><trkpt lat="44.7360955" lon="7.7091215"><ele>270.0</ele><time>2026-04-12T13:35:49.988Z</time></trkpt><trkpt lat="44.7361073" lon="7.709238"><ele>270.0</ele><time>2026-04-12T13:35:51.988Z</time></trkpt><trkpt lat="44.7361198" lon="7.709351"><ele>270.0</ele><time>2026-04-12T13:35:53.988Z</time></trkpt><trkpt lat="44.7361271" lon="7.7094686"><ele>270.0</ele><time>2026-04-12T13:35:55.988Z</time></trkpt><trkpt lat="44.736137" lon="7.7095751"><ele>270.0</ele><time>2026-04-12T13:35:57.988Z</time></trkpt><trkpt lat="44.7361477" lon="7.709687"><ele>270.0</ele><time>2026-04-12T13:35:59.988Z</time></trkpt><trkpt lat="44.736157" lon="7.7097988"><ele>269.6666666666667</ele><time>2026-04-12T13:36:01.988Z</time></trkpt><trkpt lat="44.7361696" lon="7.7099148"><ele>269.3333333333333</ele><time>2026-04-12T13:36:03.988Z</time></trkpt><trkpt lat="44.7361811" lon="7.7100314"><ele>269.0</ele><time>2026-04-12T13:36:05.988Z</time></trkpt><trkpt lat="44.7361908" lon="7.710155"><ele>268.66666666666663</ele><time>2026-04-12T13:36:07.988Z</time></trkpt><trkpt lat="44.7361965" lon="7.7102792"><ele>268.3333333333333</ele><time>2026-04-12T13:36:09.988Z</time></trkpt><trkpt lat="44.7361933" lon="7.7103986"><ele>268.0</ele><time>2026-04-12T13:36:11.988Z</time></trkpt><trkpt lat="44.7361948" lon="7.7105277"><ele>267.8</ele><time>2026-04-12T13:36:13.988Z</time></trkpt><trkpt lat="44.7362045" lon="7.7106586"><ele>267.6</ele><time>2026-04-12T13:36:15.988Z</time></trkpt><trkpt lat="44.7362094" lon="7.7107932"><ele>267.4</ele><time>2026-04-12T13:36:17.988Z</time></trkpt><trkpt lat="44.7362102" lon="7.7109228"><ele>267.2</ele><time>2026-04-12T13:36:19.988Z</time></trkpt><trkpt lat="44.7362098" lon="7.7110665"><ele>267.0</ele><time>2026-04-12T13:36:21.988Z</time></trkpt><trkpt lat="44.7362112" lon="7.7112031"><ele>267.4</ele><time>2026-04-12T13:36:23.988Z</time></trkpt><trkpt lat="44.736212" lon="7.711342"><ele>267.79999999999995</ele><time>2026-04-12T13:36:25.988Z</time></trkpt><trkpt lat="44.7362183" lon="7.7114811"><ele>268.2</ele><time>2026-04-12T13:36:27.988Z</time></trkpt><trkpt lat="44.7362246" lon="7.7116194"><ele>268.59999999999997</ele><time>2026-04-12T13:36:29.988Z</time></trkpt><trkpt lat="44.7362301" lon="7.7117562"><ele>269.0</ele><time>2026-04-12T13:36:31.988Z</time></trkpt><trkpt lat="44.73624" lon="7.7118981"><ele>269.2</ele><time>2026-04-12T13:36:33.988Z</time></trkpt><trkpt lat="44.7362432" lon="7.7120347"><ele>269.4</ele><time>2026-04-12T13:36:35.988Z</time></trkpt><trkpt lat="44.7362443" lon="7.7121759"><ele>269.6</ele><time>2026-04-12T13:36:37.988Z</time></trkpt><trkpt lat="44.7362472" lon="7.7123171"><ele>269.8</ele><time>2026-04-12T13:36:39.988Z</time></trkpt><trkpt lat="44.7362501" lon="7.7124542"><ele>270.0</ele><time>2026-04-12T13:36:41.988Z</time></trkpt><trkpt lat="44.7362477" lon="7.7125931"><ele>270.0</ele><time>2026-04-12T13:36:43.988Z</time></trkpt><trkpt lat="44.7362554" lon="7.7127271"><ele>270.0</ele><time>2026-04-12T13:36:45.988Z</time></trkpt><trkpt lat="44.7362572" lon="7.7128647"><ele>270.0</ele><time>2026-04-12T13:36:47.988Z</time></trkpt><trkpt lat="44.7362642" lon="7.7130051"><ele>270.0</ele><time>2026-04-12T13:36:49.988Z</time></trkpt><trkpt lat="44.7362691" lon="7.7131461"><ele>270.0</ele><time>2026-04-12T13:36:51.988Z</time></trkpt><trkpt lat="44.736275" lon="7.7132924"><ele>270.0</ele><time>2026-04-12T13:36:53.988Z</time></trkpt><trkpt lat="44.7362773" lon="7.7134404"><ele>270.0</ele><time>2026-04-12T13:36:55.988Z</time></trkpt><trkpt lat="44.7362808" lon="7.713585"><ele>270.0</ele><time>2026-04-12T13:36:57.988Z</time></trkpt><trkpt lat="44.7362824" lon="7.7137231"><ele>270.0</ele><time>2026-04-12T13:36:59.988Z</time></trkpt><trkpt lat="44.7362854" lon="7.71387"><ele>270.0</ele><time>2026-04-12T13:37:01.988Z</time></trkpt><trkpt lat="44.7362883" lon="7.7140172"><ele>270.0</ele><time>2026-04-12T13:37:03.988Z</time></trkpt><trkpt lat="44.7362954" lon="7.714158"><ele>270.0</ele><time>2026-04-12T13:37:05.988Z</time></trkpt><trkpt lat="44.7362974" lon="7.7143046"><ele>270.0</ele><time>2026-04-12T13:37:07.988Z</time></trkpt><trkpt lat="44.7363038" lon="7.7144472"><ele>270.0</ele><time>2026-04-12T13:37:09.988Z</time></trkpt><trkpt lat="44.7363079" lon="7.7145825"><ele>270.0</ele><time>2026-04-12T13:37:11.988Z</time></trkpt><trkpt lat="44.736313" lon="7.7147174"><ele>269.8</ele><time>2026-04-12T13:37:13.988Z</time></trkpt><trkpt lat="44.7363124" lon="7.7148557"><ele>269.6</ele><time>2026-04-12T13:37:15.988Z</time></trkpt><trkpt lat="44.7363221" lon="7.7149857"><ele>269.4</ele><time>2026-04-12T13:37:17.988Z</time></trkpt><trkpt lat="44.7363325" lon="7.7151167"><ele>269.2</ele><time>2026-04-12T13:37:19.988Z</time></trkpt><trkpt lat="44.7363374" lon="7.7152563"><ele>269.0</ele><time>2026-04-12T13:37:21.988Z</time></trkpt><trkpt lat="44.7363441" lon="7.7153941"><ele>268.8</ele><time>2026-04-12T13:37:23.988Z</time></trkpt><trkpt lat="44.7363467" lon="7.7155409"><ele>268.59999999999997</ele><time>2026-04-12T13:37:25.988Z</time></trkpt><trkpt lat="44.7363535" lon="7.7156775"><ele>268.4</ele><time>2026-04-12T13:37:27.988Z</time></trkpt><trkpt lat="44.7363588" lon="7.7158231"><ele>268.2</ele><time>2026-04-12T13:37:29.988Z</time></trkpt><trkpt lat="44.7363558" lon="7.7159692"><ele>268.0</ele><time>2026-04-12T13:37:31.988Z</time></trkpt><trkpt lat="44.7363577" lon="7.716106"><ele>268.0</ele><time>2026-04-12T13:37:33.988Z</time></trkpt><trkpt lat="44.736366" lon="7.7162424"><ele>268.0</ele><time>2026-04-12T13:37:35.988Z</time></trkpt><trkpt lat="44.7363752" lon="7.7163782"><ele>268.0</ele><time>2026-04-12T13:37:37.988Z</time></trkpt><trkpt lat="44.7363772" lon="7.7165167"><ele>268.0</ele><time>2026-04-12T13:37:39.988Z</time></trkpt><trkpt lat="44.7363781" lon="7.7166607"><ele>268.0</ele><time>2026-04-12T13:37:41.988Z</time></trkpt><trkpt lat="44.7363828" lon="7.7168037"><ele>267.6</ele><time>2026-04-12T13:37:43.988Z</time></trkpt><trkpt lat="44.7363865" lon="7.7169443"><ele>267.20000000000005</ele><time>2026-04-12T13:37:45.988Z</time></trkpt><trkpt lat="44.7363942" lon="7.7170763"><ele>266.8</ele><time>2026-04-12T13:37:47.988Z</time></trkpt><trkpt lat="44.7363942" lon="7.7172164"><ele>266.40000000000003</ele><time>2026-04-12T13:37:49.988Z</time></trkpt><trkpt lat="44.736404" lon="7.7173485"><ele>266.0</ele><time>2026-04-12T13:37:51.988Z</time></trkpt><trkpt lat="44.7364146" lon="7.7174754"><ele>266.0</ele><time>2026-04-12T13:37:53.988Z</time></trkpt><trkpt lat="44.736423" lon="7.7176082"><ele>266.0</ele><time>2026-04-12T13:37:55.988Z</time></trkpt><trkpt lat="44.7364315" lon="7.717739"><ele>266.0</ele><time>2026-04-12T13:37:57.988Z</time></trkpt><trkpt lat="44.7364398" lon="7.7178702"><ele>266.0</ele><time>2026-04-12T13:37:59.988Z</time></trkpt><trkpt lat="44.7364464" lon="7.718003"><ele>266.0</ele><time>2026-04-12T13:38:01.988Z</time></trkpt><trkpt lat="44.7364561" lon="7.718135"><ele>266.2</ele><time>2026-04-12T13:38:03.988Z</time></trkpt><trkpt lat="44.7364644" lon="7.7182673"><ele>266.40000000000003</ele><time>2026-04-12T13:38:05.988Z</time></trkpt><trkpt lat="44.7364711" lon="7.7184025"><ele>266.6</ele><time>2026-04-12T13:38:07.988Z</time></trkpt><trkpt lat="44.7364769" lon="7.7185362"><ele>266.8</ele><time>2026-04-12T13:38:09.988Z</time></trkpt><trkpt lat="44.7364811" lon="7.718669"><ele>267.0</ele><time>2026-04-12T13:38:11.988Z</time></trkpt><trkpt lat="44.7364848" lon="7.718795"><ele>267.2</ele><time>2026-04-12T13:38:13.988Z</time></trkpt><trkpt lat="44.7364877" lon="7.7189294"><ele>267.4</ele><time>2026-04-12T13:38:15.988Z</time></trkpt><trkpt lat="44.7364898" lon="7.719068"><ele>267.6</ele><time>2026-04-12T13:38:17.988Z</time></trkpt><trkpt lat="44.7364918" lon="7.7191936"><ele>267.8</ele><time>2026-04-12T13:38:19.988Z</time></trkpt><trkpt lat="44.7364909" lon="7.7193237"><ele>268.0</ele><time>2026-04-12T13:38:21.988Z</time></trkpt><trkpt lat="44.736494" lon="7.719452"><ele>268.0</ele><time>2026-04-12T13:38:23.988Z</time></trkpt><trkpt lat="44.7364903" lon="7.7195765"><ele>268.0</ele><time>2026-04-12T13:38:25.988Z</time></trkpt><trkpt lat="44.7364951" lon="7.7197097"><ele>268.0</ele><time>2026-04-12T13:38:27.988Z</time></trkpt><trkpt lat="44.7365069" lon="7.7198477"><ele>268.0</ele><time>2026-04-12T13:38:29.988Z</time></trkpt><trkpt lat="44.7365106" lon="7.7199871"><ele>268.0</ele><time>2026-04-12T13:38:31.988Z</time></trkpt><trkpt lat="44.7365138" lon="7.7201155"><ele>268.2</ele><time>2026-04-12T13:38:33.988Z</time></trkpt><trkpt lat="44.7365139" lon="7.720246"><ele>268.4</ele><time>2026-04-12T13:38:35.988Z</time></trkpt><trkpt lat="44.7365253" lon="7.7203805"><ele>268.59999999999997</ele><time>2026-04-12T13:38:37.988Z</time></trkpt><trkpt lat="44.7365269" lon="7.7205038"><ele>268.8</ele><time>2026-04-12T13:38:39.988Z</time></trkpt><trkpt lat="44.7365319" lon="7.7206348"><ele>269.0</ele><time>2026-04-12T13:38:41.988Z</time></trkpt><trkpt lat="44.7365362" lon="7.7207634"><ele>269.0</ele><time>2026-04-12T13:38:43.988Z</time></trkpt><trkpt lat="44.7365374" lon="7.7208905"><ele>269.0</ele><time>2026-04-12T13:38:45.988Z</time></trkpt><trkpt lat="44.7365459" lon="7.7210146"><ele>269.0</ele><time>2026-04-12T13:38:47.988Z</time></trkpt><trkpt lat="44.7365508" lon="7.7211405"><ele>269.0</ele><time>2026-04-12T13:38:49.988Z</time></trkpt><trkpt lat="44.736564" lon="7.7212726"><ele>269.0</ele><time>2026-04-12T13:38:51.988Z</time></trkpt><trkpt lat="44.7365713" lon="7.721398"><ele>269.0</ele><time>2026-04-12T13:38:53.988Z</time></trkpt><trkpt lat="44.7365804" lon="7.7215269"><ele>269.0</ele><time>2026-04-12T13:38:55.988Z</time></trkpt><trkpt lat="44.7365918" lon="7.7216605"><ele>269.0</ele><time>2026-04-12T13:38:57.988Z</time></trkpt><trkpt lat="44.7365994" lon="7.7217921"><ele>269.0</ele><time>2026-04-12T13:38:59.988Z</time></trkpt><trkpt lat="44.7366072" lon="7.721931"><ele>269.0</ele><time>2026-04-12T13:39:01.988Z</time></trkpt><trkpt lat="44.7366082" lon="7.7220621"><ele>269.0</ele><time>2026-04-12T13:39:03.988Z</time></trkpt><trkpt lat="44.7366067" lon="7.7221886"><ele>269.0</ele><time>2026-04-12T13:39:05.988Z</time></trkpt><trkpt lat="44.7366038" lon="7.7223262"><ele>269.0</ele><time>2026-04-12T13:39:07.988Z</time></trkpt><trkpt lat="44.736609" lon="7.7224629"><ele>269.0</ele><time>2026-04-12T13:39:09.988Z</time></trkpt><trkpt lat="44.7366133" lon="7.7226024"><ele>269.0</ele><time>2026-04-12T13:39:11.988Z</time></trkpt><trkpt lat="44.736618" lon="7.7227333"><ele>269.0</ele><time>2026-04-12T13:39:13.988Z</time></trkpt><trkpt lat="44.7366339" lon="7.7228639"><ele>269.0</ele><time>2026-04-12T13:39:15.988Z</time></trkpt><trkpt lat="44.7366361" lon="7.7229968"><ele>269.0</ele><time>2026-04-12T13:39:17.988Z</time></trkpt><trkpt lat="44.7366379" lon="7.7231315"><ele>269.0</ele><time>2026-04-12T13:39:19.988Z</time></trkpt><trkpt lat="44.7366372" lon="7.7232588"><ele>269.0</ele><time>2026-04-12T13:39:21.989Z</time></trkpt><trkpt lat="44.7366629" lon="7.7233823"><ele>269.0</ele><time>2026-04-12T13:39:23.988Z</time></trkpt><trkpt lat="44.7366686" lon="7.7235101"><ele>269.0</ele><time>2026-04-12T13:39:25.988Z</time></trkpt><trkpt lat="44.7366721" lon="7.7236407"><ele>269.0</ele><time>2026-04-12T13:39:27.988Z</time></trkpt><trkpt lat="44.7366701" lon="7.7237733"><ele>269.0</ele><time>2026-04-12T13:39:29.988Z</time></trkpt><trkpt lat="44.7366747" lon="7.7239111"><ele>269.0</ele><time>2026-04-12T13:39:31.988Z</time></trkpt><trkpt lat="44.7366797" lon="7.7240447"><ele>268.8</ele><time>2026-04-12T13:39:33.988Z</time></trkpt><trkpt lat="44.7366853" lon="7.7241865"><ele>268.59999999999997</ele><time>2026-04-12T13:39:35.988Z</time></trkpt><trkpt lat="44.736688" lon="7.7243213"><ele>268.4</ele><time>2026-04-12T13:39:37.988Z</time></trkpt><trkpt lat="44.7366854" lon="7.7244509"><ele>268.2</ele><time>2026-04-12T13:39:39.988Z</time></trkpt><trkpt lat="44.7366866" lon="7.7245741"><ele>268.0</ele><time>2026-04-12T13:39:41.988Z</time></trkpt><trkpt lat="44.7366891" lon="7.724699"><ele>268.0</ele><time>2026-04-12T13:39:43.988Z</time></trkpt><trkpt lat="44.7366914" lon="7.7248234"><ele>268.0</ele><time>2026-04-12T13:39:45.988Z</time></trkpt><trkpt lat="44.7366917" lon="7.7249566"><ele>268.0</ele><time>2026-04-12T13:39:47.988Z</time></trkpt><trkpt lat="44.7366963" lon="7.7250928"><ele>268.0</ele><time>2026-04-12T13:39:49.988Z</time></trkpt><trkpt lat="44.7367001" lon="7.725215"><ele>268.0</ele><time>2026-04-12T13:39:51.988Z</time></trkpt><trkpt lat="44.7367105" lon="7.7253371"><ele>268.4</ele><time>2026-04-12T13:39:53.988Z</time></trkpt><trkpt lat="44.7367153" lon="7.7254668"><ele>268.8</ele><time>2026-04-12T13:39:55.989Z</time></trkpt><trkpt lat="44.736718" lon="7.7255942"><ele>269.2</ele><time>2026-04-12T13:39:57.988Z</time></trkpt><trkpt lat="44.7367159" lon="7.7257225"><ele>269.6</ele><time>2026-04-12T13:39:59.988Z</time></trkpt><trkpt lat="44.7367222" lon="7.7258512"><ele>270.0</ele><time>2026-04-12T13:40:01.988Z</time></trkpt><trkpt lat="44.7367263" lon="7.725982"><ele>270.0</ele><time>2026-04-12T13:40:03.988Z</time></trkpt><trkpt lat="44.7367216" lon="7.7261137"><ele>270.0</ele><time>2026-04-12T13:40:05.988Z</time></trkpt><trkpt lat="44.7367171" lon="7.7262382"><ele>270.0</ele><time>2026-04-12T13:40:07.988Z</time></trkpt><trkpt lat="44.7367161" lon="7.7263669"><ele>270.0</ele><time>2026-04-12T13:40:09.988Z</time></trkpt><trkpt lat="44.7367138" lon="7.7264978"><ele>270.0</ele><time>2026-04-12T13:40:11.988Z</time></trkpt><trkpt lat="44.7367034" lon="7.7266197"><ele>270.0</ele><time>2026-04-12T13:40:13.988Z</time></trkpt><trkpt lat="44.7366928" lon="7.7267295"><ele>270.0</ele><time>2026-04-12T13:40:15.988Z</time></trkpt><trkpt lat="44.7366821" lon="7.7268288"><ele>270.0</ele><time>2026-04-12T13:40:17.988Z</time></trkpt><trkpt lat="44.7366719" lon="7.7269357"><ele>270.0</ele><time>2026-04-12T13:40:19.988Z</time></trkpt><trkpt lat="44.7366649" lon="7.7270624"><ele>270.0</ele><time>2026-04-12T13:40:21.988Z</time></trkpt><trkpt lat="44.7366613" lon="7.7271868"><ele>270.0</ele><time>2026-04-12T13:40:23.988Z</time></trkpt><trkpt lat="44.7366595" lon="7.7273148"><ele>269.6</ele><time>2026-04-12T13:40:25.988Z</time></trkpt><trkpt lat="44.7366541" lon="7.7274444"><ele>269.2</ele><time>2026-04-12T13:40:27.988Z</time></trkpt><trkpt lat="44.7366516" lon="7.727572"><ele>268.8</ele><time>2026-04-12T13:40:29.988Z</time></trkpt><trkpt lat="44.7366497" lon="7.7276963"><ele>268.4</ele><time>2026-04-12T13:40:31.988Z</time></trkpt><trkpt lat="44.7366415" lon="7.7278233"><ele>268.0</ele><time>2026-04-12T13:40:33.988Z</time></trkpt><trkpt lat="44.7366259" lon="7.7279563"><ele>268.0</ele><time>2026-04-12T13:40:35.988Z</time></trkpt><trkpt lat="44.7366207" lon="7.7280856"><ele>268.0</ele><time>2026-04-12T13:40:37.988Z</time></trkpt><trkpt lat="44.7366187" lon="7.7282132"><ele>268.0</ele><time>2026-04-12T13:40:39.988Z</time></trkpt><trkpt lat="44.7366122" lon="7.7283425"><ele>268.0</ele><time>2026-04-12T13:40:41.988Z</time></trkpt><trkpt lat="44.7366131" lon="7.728473"><ele>268.0</ele><time>2026-04-12T13:40:43.988Z</time></trkpt><trkpt lat="44.7366222" lon="7.7285981"><ele>267.8</ele><time>2026-04-12T13:40:45.988Z</time></trkpt><trkpt lat="44.7366401" lon="7.7287269"><ele>267.6</ele><time>2026-04-12T13:40:47.988Z</time></trkpt><trkpt lat="44.7366596" lon="7.728855"><ele>267.4</ele><time>2026-04-12T13:40:49.988Z</time></trkpt><trkpt lat="44.7366868" lon="7.7289782"><ele>267.2</ele><time>2026-04-12T13:40:51.988Z</time></trkpt><trkpt lat="44.7367203" lon="7.7290996"><ele>267.0</ele><time>2026-04-12T13:40:53.988Z</time></trkpt><trkpt lat="44.7367654" lon="7.729222"><ele>267.0</ele><time>2026-04-12T13:40:55.988Z</time></trkpt><trkpt lat="44.7368069" lon="7.7293402"><ele>267.0</ele><time>2026-04-12T13:40:57.988Z</time></trkpt><trkpt lat="44.7368559" lon="7.7294562"><ele>267.0</ele><time>2026-04-12T13:40:59.988Z</time></trkpt><trkpt lat="44.7369063" lon="7.729571"><ele>267.0</ele><time>2026-04-12T13:41:01.988Z</time></trkpt><trkpt lat="44.7369514" lon="7.7296945"><ele>267.0</ele><time>2026-04-12T13:41:03.988Z</time></trkpt><trkpt lat="44.7369917" lon="7.7298209"><ele>267.0</ele><time>2026-04-12T13:41:05.988Z</time></trkpt><trkpt lat="44.7370164" lon="7.7299481"><ele>267.0</ele><time>2026-04-12T13:41:07.988Z</time></trkpt><trkpt lat="44.7370418" lon="7.7300684"><ele>267.0</ele><time>2026-04-12T13:41:09.988Z</time></trkpt><trkpt lat="44.7370637" lon="7.7301883"><ele>267.0</ele><time>2026-04-12T13:41:11.988Z</time></trkpt><trkpt lat="44.7370835" lon="7.7303084"><ele>267.0</ele><time>2026-04-12T13:41:13.988Z</time></trkpt><trkpt lat="44.7371021" lon="7.7304283"><ele>267.0</ele><time>2026-04-12T13:41:15.988Z</time></trkpt><trkpt lat="44.7371119" lon="7.7305505"><ele>267.1666666666667</ele><time>2026-04-12T13:41:17.988Z</time></trkpt><trkpt lat="44.7371245" lon="7.7306676"><ele>267.3333333333333</ele><time>2026-04-12T13:41:19.988Z</time></trkpt><trkpt lat="44.7371343" lon="7.7307889"><ele>267.5</ele><time>2026-04-12T13:41:21.988Z</time></trkpt><trkpt lat="44.7371493" lon="7.7309076"><ele>267.66666666666663</ele><time>2026-04-12T13:41:23.988Z</time></trkpt><trkpt lat="44.7371598" lon="7.7310307"><ele>267.8333333333333</ele><time>2026-04-12T13:41:25.988Z</time></trkpt><trkpt lat="44.7371686" lon="7.7311565"><ele>268.0</ele><time>2026-04-12T13:41:27.988Z</time></trkpt><trkpt lat="44.7371773" lon="7.7312845"><ele>268.16666666666663</ele><time>2026-04-12T13:41:29.988Z</time></trkpt><trkpt lat="44.7371932" lon="7.7314113"><ele>268.3333333333333</ele><time>2026-04-12T13:41:31.988Z</time></trkpt><trkpt lat="44.7372094" lon="7.7315209"><ele>268.5</ele><time>2026-04-12T13:41:33.988Z</time></trkpt><trkpt lat="44.7372277" lon="7.7316402"><ele>268.6666666666667</ele><time>2026-04-12T13:41:35.988Z</time></trkpt><trkpt lat="44.7372462" lon="7.7317694"><ele>268.83333333333337</ele><time>2026-04-12T13:41:37.988Z</time></trkpt><trkpt lat="44.7372594" lon="7.7318892"><ele>269.0</ele><time>2026-04-12T13:41:39.988Z</time></trkpt><trkpt lat="44.7372685" lon="7.7319967"><ele>268.5</ele><time>2026-04-12T13:41:41.988Z</time></trkpt><trkpt lat="44.7372783" lon="7.7320976"><ele>268.0</ele><time>2026-04-12T13:41:43.988Z</time></trkpt><trkpt lat="44.7372892" lon="7.7322023"><ele>267.5</ele><time>2026-04-12T13:41:45.988Z</time></trkpt><trkpt lat="44.7372943" lon="7.7322992"><ele>267.0</ele><time>2026-04-12T13:41:47.988Z</time></trkpt><trkpt lat="44.7373025" lon="7.7323904"><ele>266.5</ele><time>2026-04-12T13:41:50.988Z</time></trkpt><trkpt lat="44.7372914" lon="7.7325289"><ele>266.0</ele><time>2026-04-12T13:41:53.988Z</time></trkpt><trkpt lat="44.7372634" lon="7.7326402"><ele>266.2</ele><time>2026-04-12T13:41:55.988Z</time></trkpt><trkpt lat="44.7372675" lon="7.7327586"><ele>266.40000000000003</ele><time>2026-04-12T13:41:57.988Z</time></trkpt><trkpt lat="44.7372964" lon="7.7328688"><ele>266.6</ele><time>2026-04-12T13:41:59.988Z</time></trkpt><trkpt lat="44.7373264" lon="7.7329957"><ele>266.8</ele><time>2026-04-12T13:42:01.988Z</time></trkpt><trkpt lat="44.7373436" lon="7.7331358"><ele>267.0</ele><time>2026-04-12T13:42:03.988Z</time></trkpt><trkpt lat="44.7373539" lon="7.7332681"><ele>267.0</ele><time>2026-04-12T13:42:05.988Z</time></trkpt><trkpt lat="44.7373606" lon="7.7333959"><ele>267.0</ele><time>2026-04-12T13:42:07.988Z</time></trkpt><trkpt lat="44.7373712" lon="7.7335104"><ele>267.0</ele><time>2026-04-12T13:42:09.988Z</time></trkpt><trkpt lat="44.7373805" lon="7.7336316"><ele>267.0</ele><time>2026-04-12T13:42:11.988Z</time></trkpt><trkpt lat="44.7373849" lon="7.7337437"><ele>267.0</ele><time>2026-04-12T13:42:13.988Z</time></trkpt><trkpt lat="44.7373906" lon="7.7338642"><ele>267.0</ele><time>2026-04-12T13:42:15.988Z</time></trkpt><trkpt lat="44.7374101" lon="7.7339886"><ele>267.0</ele><time>2026-04-12T13:42:17.988Z</time></trkpt><trkpt lat="44.7374225" lon="7.734123"><ele>267.0</ele><time>2026-04-12T13:42:19.988Z</time></trkpt><trkpt lat="44.7374429" lon="7.7342588"><ele>267.0</ele><time>2026-04-12T13:42:21.988Z</time></trkpt><trkpt lat="44.7374685" lon="7.7343885"><ele>267.0</ele><time>2026-04-12T13:42:23.988Z</time></trkpt><trkpt lat="44.7374841" lon="7.7345398"><ele>267.0</ele><time>2026-04-12T13:42:25.988Z</time></trkpt><trkpt lat="44.7374778" lon="7.7346872"><ele>267.0</ele><time>2026-04-12T13:42:27.988Z</time></trkpt><trkpt lat="44.737434" lon="7.7348269"><ele>267.0</ele><time>2026-04-12T13:42:29.988Z</time></trkpt><trkpt lat="44.7373908" lon="7.7349665"><ele>267.0</ele><time>2026-04-12T13:42:31.988Z</time></trkpt><trkpt lat="44.7373456" lon="7.7350978"><ele>267.0</ele><time>2026-04-12T13:42:33.988Z</time></trkpt><trkpt lat="44.7373014" lon="7.7352348"><ele>267.0</ele><time>2026-04-12T13:42:35.988Z</time></trkpt><trkpt lat="44.7372558" lon="7.7353763"><ele>267.0</ele><time>2026-04-12T13:42:37.988Z</time></trkpt><trkpt lat="44.7372035" lon="7.7355152"><ele>267.0</ele><time>2026-04-12T13:42:39.988Z</time></trkpt><trkpt lat="44.737155" lon="7.7356525"><ele>267.0</ele><time>2026-04-12T13:42:41.988Z</time></trkpt><trkpt lat="44.7371051" lon="7.7357905"><ele>267.0</ele><time>2026-04-12T13:42:43.988Z</time></trkpt><trkpt lat="44.7370536" lon="7.735926"><ele>267.0</ele><time>2026-04-12T13:42:45.988Z</time></trkpt><trkpt lat="44.737" lon="7.7360627"><ele>267.0</ele><time>2026-04-12T13:42:47.988Z</time></trkpt><trkpt lat="44.7369481" lon="7.7362019"><ele>267.0</ele><time>2026-04-12T13:42:49.988Z</time></trkpt><trkpt lat="44.7368851" lon="7.7363237"><ele>267.0</ele><time>2026-04-12T13:42:51.988Z</time></trkpt><trkpt lat="44.7368253" lon="7.7364459"><ele>267.0</ele><time>2026-04-12T13:42:53.988Z</time></trkpt><trkpt lat="44.7367686" lon="7.7365708"><ele>267.0</ele><time>2026-04-12T13:42:55.988Z</time></trkpt><trkpt lat="44.7367073" lon="7.7366947"><ele>267.0</ele><time>2026-04-12T13:42:57.988Z</time></trkpt><trkpt lat="44.7366482" lon="7.7368232"><ele>267.0</ele><time>2026-04-12T13:42:59.988Z</time></trkpt><trkpt lat="44.7365836" lon="7.7369519"><ele>267.0</ele><time>2026-04-12T13:43:01.988Z</time></trkpt><trkpt lat="44.7365261" lon="7.7370729"><ele>267.0</ele><time>2026-04-12T13:43:03.988Z</time></trkpt><trkpt lat="44.7364677" lon="7.7371992"><ele>267.0</ele><time>2026-04-12T13:43:05.988Z</time></trkpt><trkpt lat="44.7364035" lon="7.7373261"><ele>267.0</ele><time>2026-04-12T13:43:07.988Z</time></trkpt><trkpt lat="44.7363427" lon="7.7374499"><ele>267.0</ele><time>2026-04-12T13:43:09.988Z</time></trkpt><trkpt lat="44.7362805" lon="7.7375767"><ele>267.0</ele><time>2026-04-12T13:43:11.988Z</time></trkpt><trkpt lat="44.7362252" lon="7.7377075"><ele>267.0</ele><time>2026-04-12T13:43:13.988Z</time></trkpt><trkpt lat="44.7361629" lon="7.7378352"><ele>267.0</ele><time>2026-04-12T13:43:15.988Z</time></trkpt><trkpt lat="44.7361021" lon="7.7379669"><ele>267.2</ele><time>2026-04-12T13:43:17.988Z</time></trkpt><trkpt lat="44.7360425" lon="7.7380962"><ele>267.4</ele><time>2026-04-12T13:43:19.988Z</time></trkpt><trkpt lat="44.735981" lon="7.738225"><ele>267.6</ele><time>2026-04-12T13:43:21.989Z</time></trkpt><trkpt lat="44.7359197" lon="7.738355"><ele>267.8</ele><time>2026-04-12T13:43:23.988Z</time></trkpt><trkpt lat="44.7358567" lon="7.7384822"><ele>268.0</ele><time>2026-04-12T13:43:25.988Z</time></trkpt><trkpt lat="44.7357957" lon="7.7386098"><ele>268.0</ele><time>2026-04-12T13:43:27.988Z</time></trkpt><trkpt lat="44.735738" lon="7.7387308"><ele>268.0</ele><time>2026-04-12T13:43:29.988Z</time></trkpt><trkpt lat="44.735676" lon="7.7388499"><ele>268.0</ele><time>2026-04-12T13:43:31.988Z</time></trkpt><trkpt lat="44.7356153" lon="7.7389776"><ele>268.0</ele><time>2026-04-12T13:43:33.988Z</time></trkpt><trkpt lat="44.7355545" lon="7.7391082"><ele>268.0</ele><time>2026-04-12T13:43:35.988Z</time></trkpt><trkpt lat="44.7354909" lon="7.7392305"><ele>268.0</ele><time>2026-04-12T13:43:37.988Z</time></trkpt><trkpt lat="44.7354283" lon="7.7393477"><ele>268.0</ele><time>2026-04-12T13:43:39.988Z</time></trkpt><trkpt lat="44.7353662" lon="7.7394661"><ele>268.0</ele><time>2026-04-12T13:43:41.988Z</time></trkpt><trkpt lat="44.7353147" lon="7.7395978"><ele>268.0</ele><time>2026-04-12T13:43:43.988Z</time></trkpt><trkpt lat="44.7352665" lon="7.7397272"><ele>268.0</ele><time>2026-04-12T13:43:45.988Z</time></trkpt><trkpt lat="44.7352144" lon="7.7398597"><ele>268.0</ele><time>2026-04-12T13:43:47.988Z</time></trkpt><trkpt lat="44.7351702" lon="7.7399926"><ele>268.0</ele><time>2026-04-12T13:43:49.988Z</time></trkpt><trkpt lat="44.7351268" lon="7.7401345"><ele>268.0</ele><time>2026-04-12T13:43:51.988Z</time></trkpt><trkpt lat="44.7350882" lon="7.7402763"><ele>268.0</ele><time>2026-04-12T13:43:53.988Z</time></trkpt><trkpt lat="44.7350482" lon="7.740413"><ele>268.0</ele><time>2026-04-12T13:43:55.988Z</time></trkpt><trkpt lat="44.7350064" lon="7.7405472"><ele>267.8</ele><time>2026-04-12T13:43:57.988Z</time></trkpt><trkpt lat="44.7349632" lon="7.7406825"><ele>267.6</ele><time>2026-04-12T13:43:59.988Z</time></trkpt><trkpt lat="44.7349238" lon="7.7408197"><ele>267.4</ele><time>2026-04-12T13:44:01.988Z</time></trkpt><trkpt lat="44.7348824" lon="7.7409514"><ele>267.2</ele><time>2026-04-12T13:44:03.988Z</time></trkpt><trkpt lat="44.7348363" lon="7.7410657"><ele>267.0</ele><time>2026-04-12T13:44:05.988Z</time></trkpt><trkpt lat="44.7347937" lon="7.7411907"><ele>267.0</ele><time>2026-04-12T13:44:07.988Z</time></trkpt><trkpt lat="44.7347531" lon="7.7413217"><ele>267.0</ele><time>2026-04-12T13:44:09.988Z</time></trkpt><trkpt lat="44.7347124" lon="7.7414541"><ele>267.0</ele><time>2026-04-12T13:44:11.988Z</time></trkpt><trkpt lat="44.7346709" lon="7.7415782"><ele>267.0</ele><time>2026-04-12T13:44:13.988Z</time></trkpt><trkpt lat="44.7346295" lon="7.741705"><ele>267.0</ele><time>2026-04-12T13:44:15.988Z</time></trkpt><trkpt lat="44.734585" lon="7.7418297"><ele>267.2</ele><time>2026-04-12T13:44:17.988Z</time></trkpt><trkpt lat="44.7345407" lon="7.741952"><ele>267.4</ele><time>2026-04-12T13:44:19.988Z</time></trkpt><trkpt lat="44.734498" lon="7.742075"><ele>267.6</ele><time>2026-04-12T13:44:21.988Z</time></trkpt><trkpt lat="44.7344524" lon="7.742217"><ele>267.8</ele><time>2026-04-12T13:44:23.988Z</time></trkpt><trkpt lat="44.7344145" lon="7.7423623"><ele>268.0</ele><time>2026-04-12T13:44:25.988Z</time></trkpt><trkpt lat="44.7343714" lon="7.7425023"><ele>268.0</ele><time>2026-04-12T13:44:27.988Z</time></trkpt><trkpt lat="44.7343296" lon="7.7426404"><ele>268.0</ele><time>2026-04-12T13:44:29.988Z</time></trkpt><trkpt lat="44.7342827" lon="7.7427974"><ele>268.0</ele><time>2026-04-12T13:44:31.988Z</time></trkpt><trkpt lat="44.7342442" lon="7.7429403"><ele>268.0</ele><time>2026-04-12T13:44:33.988Z</time></trkpt><trkpt lat="44.734204" lon="7.7430798"><ele>268.0</ele><time>2026-04-12T13:44:35.988Z</time></trkpt><trkpt lat="44.7341579" lon="7.7432266"><ele>268.5</ele><time>2026-04-12T13:44:37.988Z</time></trkpt><trkpt lat="44.7341136" lon="7.7433779"><ele>269.0</ele><time>2026-04-12T13:44:39.988Z</time></trkpt><trkpt lat="44.7340681" lon="7.7435319"><ele>269.5</ele><time>2026-04-12T13:44:41.988Z</time></trkpt><trkpt lat="44.7340187" lon="7.7436708"><ele>270.0</ele><time>2026-04-12T13:44:43.988Z</time></trkpt><trkpt lat="44.7339504" lon="7.7438036"><ele>270.0</ele><time>2026-04-12T13:44:45.988Z</time></trkpt><trkpt lat="44.733891" lon="7.7439208"><ele>270.0</ele><time>2026-04-12T13:44:47.988Z</time></trkpt><trkpt lat="44.7338235" lon="7.7440361"><ele>270.0</ele><time>2026-04-12T13:44:49.988Z</time></trkpt><trkpt lat="44.7337592" lon="7.7441557"><ele>270.0</ele><time>2026-04-12T13:44:51.988Z</time></trkpt><trkpt lat="44.7337018" lon="7.7442773"><ele>270.0</ele><time>2026-04-12T13:44:53.988Z</time></trkpt><trkpt lat="44.7336457" lon="7.7443942"><ele>270.2</ele><time>2026-04-12T13:44:55.988Z</time></trkpt><trkpt lat="44.7335861" lon="7.7445123"><ele>270.4</ele><time>2026-04-12T13:44:57.988Z</time></trkpt><trkpt lat="44.7335219" lon="7.7446209"><ele>270.6</ele><time>2026-04-12T13:44:59.988Z</time></trkpt><trkpt lat="44.7334542" lon="7.7447278"><ele>270.8</ele><time>2026-04-12T13:45:01.988Z</time></trkpt><trkpt lat="44.7333941" lon="7.7448439"><ele>271.0</ele><time>2026-04-12T13:45:03.988Z</time></trkpt><trkpt lat="44.7333326" lon="7.7449632"><ele>271.0</ele><time>2026-04-12T13:45:05.988Z</time></trkpt><trkpt lat="44.7332843" lon="7.7450898"><ele>271.0</ele><time>2026-04-12T13:45:07.988Z</time></trkpt><trkpt lat="44.7332285" lon="7.7452048"><ele>271.0</ele><time>2026-04-12T13:45:09.988Z</time></trkpt><trkpt lat="44.7331759" lon="7.7453245"><ele>271.0</ele><time>2026-04-12T13:45:11.988Z</time></trkpt><trkpt lat="44.733132" lon="7.7454562"><ele>271.0</ele><time>2026-04-12T13:45:13.988Z</time></trkpt><trkpt lat="44.7330793" lon="7.7455802"><ele>270.8</ele><time>2026-04-12T13:45:15.988Z</time></trkpt><trkpt lat="44.7330369" lon="7.7457088"><ele>270.6</ele><time>2026-04-12T13:45:17.988Z</time></trkpt><trkpt lat="44.7330049" lon="7.7458349"><ele>270.4</ele><time>2026-04-12T13:45:19.988Z</time></trkpt><trkpt lat="44.7329712" lon="7.7459642"><ele>270.2</ele><time>2026-04-12T13:45:21.988Z</time></trkpt><trkpt lat="44.7329398" lon="7.7461005"><ele>270.0</ele><time>2026-04-12T13:45:23.988Z</time></trkpt><trkpt lat="44.732919" lon="7.7462336"><ele>269.4</ele><time>2026-04-12T13:45:25.988Z</time></trkpt><trkpt lat="44.7328919" lon="7.7463786"><ele>268.8</ele><time>2026-04-12T13:45:27.988Z</time></trkpt><trkpt lat="44.7328594" lon="7.7465088"><ele>268.2</ele><time>2026-04-12T13:45:29.988Z</time></trkpt><trkpt lat="44.7328326" lon="7.7466469"><ele>267.6</ele><time>2026-04-12T13:45:31.988Z</time></trkpt><trkpt lat="44.732801" lon="7.7467797"><ele>267.0</ele><time>2026-04-12T13:45:33.988Z</time></trkpt><trkpt lat="44.7327644" lon="7.7469177"><ele>267.2</ele><time>2026-04-12T13:45:35.988Z</time></trkpt><trkpt lat="44.7327243" lon="7.7470572"><ele>267.4</ele><time>2026-04-12T13:45:37.988Z</time></trkpt><trkpt lat="44.7326776" lon="7.7471913"><ele>267.6</ele><time>2026-04-12T13:45:39.988Z</time></trkpt><trkpt lat="44.7326307" lon="7.7473282"><ele>267.8</ele><time>2026-04-12T13:45:41.988Z</time></trkpt><trkpt lat="44.7325796" lon="7.7474634"><ele>268.0</ele><time>2026-04-12T13:45:43.988Z</time></trkpt><trkpt lat="44.7325258" lon="7.7475989"><ele>268.0</ele><time>2026-04-12T13:45:45.988Z</time></trkpt><trkpt lat="44.732479" lon="7.747742"><ele>268.0</ele><time>2026-04-12T13:45:47.988Z</time></trkpt><trkpt lat="44.7324308" lon="7.7478682"><ele>268.0</ele><time>2026-04-12T13:45:49.988Z</time></trkpt><trkpt lat="44.7323925" lon="7.7479747"><ele>268.0</ele><time>2026-04-12T13:45:51.988Z</time></trkpt><trkpt lat="44.732363" lon="7.7480757"><ele>268.0</ele><time>2026-04-12T13:45:53.988Z</time></trkpt><trkpt lat="44.732331" lon="7.7481866"><ele>268.0</ele><time>2026-04-12T13:45:55.988Z</time></trkpt><trkpt lat="44.7322969" lon="7.7482909"><ele>268.0</ele><time>2026-04-12T13:45:57.988Z</time></trkpt><trkpt lat="44.732248" lon="7.7483857"><ele>268.0</ele><time>2026-04-12T13:45:59.988Z</time></trkpt><trkpt lat="44.7322137" lon="7.7484868"><ele>268.0</ele><time>2026-04-12T13:46:01.988Z</time></trkpt><trkpt lat="44.732177" lon="7.7486023"><ele>268.0</ele><time>2026-04-12T13:46:03.988Z</time></trkpt><trkpt lat="44.7321352" lon="7.7487156"><ele>268.0</ele><time>2026-04-12T13:46:05.988Z</time></trkpt><trkpt lat="44.7320917" lon="7.748836"><ele>268.0</ele><time>2026-04-12T13:46:07.988Z</time></trkpt><trkpt lat="44.7320464" lon="7.7489501"><ele>268.0</ele><time>2026-04-12T13:46:09.988Z</time></trkpt><trkpt lat="44.7320032" lon="7.7490677"><ele>268.0</ele><time>2026-04-12T13:46:11.988Z</time></trkpt><trkpt lat="44.7319512" lon="7.7491816"><ele>268.0</ele><time>2026-04-12T13:46:13.988Z</time></trkpt><trkpt lat="44.7318956" lon="7.7492955"><ele>268.0</ele><time>2026-04-12T13:46:15.988Z</time></trkpt><trkpt lat="44.7318393" lon="7.749403"><ele>268.2</ele><time>2026-04-12T13:46:17.988Z</time></trkpt><trkpt lat="44.7317829" lon="7.7495142"><ele>268.4</ele><time>2026-04-12T13:46:19.988Z</time></trkpt><trkpt lat="44.7317259" lon="7.7496349"><ele>268.59999999999997</ele><time>2026-04-12T13:46:21.988Z</time></trkpt><trkpt lat="44.7316709" lon="7.7497436"><ele>268.8</ele><time>2026-04-12T13:46:23.988Z</time></trkpt><trkpt lat="44.7316105" lon="7.7498479"><ele>269.0</ele><time>2026-04-12T13:46:25.988Z</time></trkpt><trkpt lat="44.7315512" lon="7.7499597"><ele>269.0</ele><time>2026-04-12T13:46:27.988Z</time></trkpt><trkpt lat="44.7314965" lon="7.750081"><ele>269.0</ele><time>2026-04-12T13:46:29.988Z</time></trkpt><trkpt lat="44.7314398" lon="7.7502019"><ele>269.0</ele><time>2026-04-12T13:46:31.988Z</time></trkpt><trkpt lat="44.7313885" lon="7.7503154"><ele>269.0</ele><time>2026-04-12T13:46:33.988Z</time></trkpt><trkpt lat="44.7313391" lon="7.7504249"><ele>269.0</ele><time>2026-04-12T13:46:35.988Z</time></trkpt><trkpt lat="44.7312881" lon="7.7505406"><ele>269.0</ele><time>2026-04-12T13:46:37.988Z</time></trkpt><trkpt lat="44.7312374" lon="7.7506543"><ele>269.0</ele><time>2026-04-12T13:46:39.988Z</time></trkpt><trkpt lat="44.731198" lon="7.7507721"><ele>269.0</ele><time>2026-04-12T13:46:41.988Z</time></trkpt><trkpt lat="44.731162" lon="7.7508822"><ele>269.0</ele><time>2026-04-12T13:46:43.988Z</time></trkpt><trkpt lat="44.7311249" lon="7.7509879"><ele>269.0</ele><time>2026-04-12T13:46:45.988Z</time></trkpt><trkpt lat="44.7310815" lon="7.7511037"><ele>268.8</ele><time>2026-04-12T13:46:47.988Z</time></trkpt><trkpt lat="44.7310361" lon="7.7512269"><ele>268.59999999999997</ele><time>2026-04-12T13:46:49.988Z</time></trkpt><trkpt lat="44.7309904" lon="7.7513467"><ele>268.4</ele><time>2026-04-12T13:46:51.988Z</time></trkpt><trkpt lat="44.7309414" lon="7.7514668"><ele>268.2</ele><time>2026-04-12T13:46:53.988Z</time></trkpt><trkpt lat="44.7308921" lon="7.7515866"><ele>268.0</ele><time>2026-04-12T13:46:55.988Z</time></trkpt><trkpt lat="44.7308425" lon="7.7517058"><ele>268.0</ele><time>2026-04-12T13:46:57.988Z</time></trkpt><trkpt lat="44.7307992" lon="7.7518238"><ele>268.0</ele><time>2026-04-12T13:46:59.988Z</time></trkpt><trkpt lat="44.7307593" lon="7.7519441"><ele>268.0</ele><time>2026-04-12T13:47:01.988Z</time></trkpt><trkpt lat="44.7307128" lon="7.7520594"><ele>268.0</ele><time>2026-04-12T13:47:03.988Z</time></trkpt><trkpt lat="44.7306629" lon="7.7521766"><ele>268.0</ele><time>2026-04-12T13:47:05.988Z</time></trkpt><trkpt lat="44.7306214" lon="7.7523173"><ele>268.0</ele><time>2026-04-12T13:47:07.988Z</time></trkpt><trkpt lat="44.7305751" lon="7.7524502"><ele>268.0</ele><time>2026-04-12T13:47:09.988Z</time></trkpt><trkpt lat="44.7305337" lon="7.7525753"><ele>268.0</ele><time>2026-04-12T13:47:11.988Z</time></trkpt><trkpt lat="44.7304931" lon="7.7526978"><ele>268.0</ele><time>2026-04-12T13:47:13.988Z</time></trkpt><trkpt lat="44.7304461" lon="7.7528137"><ele>268.0</ele><time>2026-04-12T13:47:15.988Z</time></trkpt><trkpt lat="44.7303995" lon="7.752936"><ele>268.0</ele><time>2026-04-12T13:47:17.988Z</time></trkpt><trkpt lat="44.730354" lon="7.7530598"><ele>268.0</ele><time>2026-04-12T13:47:19.988Z</time></trkpt><trkpt lat="44.7303097" lon="7.7531879"><ele>268.0</ele><time>2026-04-12T13:47:21.988Z</time></trkpt><trkpt lat="44.7302691" lon="7.7533081"><ele>268.0</ele><time>2026-04-12T13:47:23.988Z</time></trkpt><trkpt lat="44.7302234" lon="7.7534282"><ele>268.0</ele><time>2026-04-12T13:47:25.988Z</time></trkpt><trkpt lat="44.7301888" lon="7.7535423"><ele>268.0</ele><time>2026-04-12T13:47:27.988Z</time></trkpt><trkpt lat="44.7301528" lon="7.7536487"><ele>268.0</ele><time>2026-04-12T13:47:29.988Z</time></trkpt><trkpt lat="44.7301252" lon="7.7537422"><ele>268.0</ele><time>2026-04-12T13:47:31.988Z</time></trkpt><trkpt lat="44.7300901" lon="7.7538368"><ele>268.0</ele><time>2026-04-12T13:47:34.988Z</time></trkpt><trkpt lat="44.7300625" lon="7.7539492"><ele>268.0</ele><time>2026-04-12T13:47:37.988Z</time></trkpt><trkpt lat="44.7300259" lon="7.7540263"><ele>268.0</ele><time>2026-04-12T13:47:39.988Z</time></trkpt><trkpt lat="44.729983" lon="7.7541074"><ele>268.0</ele><time>2026-04-12T13:47:41.988Z</time></trkpt><trkpt lat="44.729938" lon="7.7541871"><ele>268.0</ele><time>2026-04-12T13:47:43.988Z</time></trkpt><trkpt lat="44.7298965" lon="7.7542565"><ele>268.0</ele><time>2026-04-12T13:47:45.988Z</time></trkpt><trkpt lat="44.7298557" lon="7.7543298"><ele>268.0</ele><time>2026-04-12T13:47:47.988Z</time></trkpt><trkpt lat="44.729816" lon="7.7544072"><ele>268.0</ele><time>2026-04-12T13:47:49.988Z</time></trkpt><trkpt lat="44.729776" lon="7.7544841"><ele>268.0</ele><time>2026-04-12T13:47:51.989Z</time></trkpt><trkpt lat="44.7297344" lon="7.7545555"><ele>268.0</ele><time>2026-04-12T13:47:53.988Z</time></trkpt><trkpt lat="44.7296945" lon="7.7546311"><ele>268.0</ele><time>2026-04-12T13:47:55.988Z</time></trkpt><trkpt lat="44.7296528" lon="7.7547095"><ele>268.0</ele><time>2026-04-12T13:47:57.988Z</time></trkpt><trkpt lat="44.7296131" lon="7.7547831"><ele>268.0</ele><time>2026-04-12T13:47:59.988Z</time></trkpt><trkpt lat="44.7295756" lon="7.7548546"><ele>268.0</ele><time>2026-04-12T13:48:01.988Z</time></trkpt><trkpt lat="44.7295363" lon="7.7549284"><ele>268.0</ele><time>2026-04-12T13:48:03.988Z</time></trkpt><trkpt lat="44.7294951" lon="7.7549992"><ele>268.0</ele><time>2026-04-12T13:48:05.988Z</time></trkpt><trkpt lat="44.729452" lon="7.7550684"><ele>268.0</ele><time>2026-04-12T13:48:07.988Z</time></trkpt><trkpt lat="44.7294113" lon="7.7551405"><ele>268.14285714285717</ele><time>2026-04-12T13:48:09.988Z</time></trkpt><trkpt lat="44.7293756" lon="7.7552142"><ele>268.2857142857143</ele><time>2026-04-12T13:48:11.988Z</time></trkpt><trkpt lat="44.7293349" lon="7.7552879"><ele>268.42857142857144</ele><time>2026-04-12T13:48:13.988Z</time></trkpt><trkpt lat="44.7292908" lon="7.7553598"><ele>268.57142857142856</ele><time>2026-04-12T13:48:15.988Z</time></trkpt><trkpt lat="44.7292477" lon="7.7554375"><ele>268.7142857142857</ele><time>2026-04-12T13:48:17.988Z</time></trkpt><trkpt lat="44.7292069" lon="7.7555079"><ele>268.8571428571429</ele><time>2026-04-12T13:48:19.988Z</time></trkpt><trkpt lat="44.7291523" lon="7.7555989"><ele>269.0</ele><time>2026-04-12T13:48:22.988Z</time></trkpt><trkpt lat="44.7290953" lon="7.7556602"><ele>269.0</ele><time>2026-04-12T13:48:25.988Z</time></trkpt><trkpt lat="44.7290418" lon="7.7557201"><ele>269.0</ele><time>2026-04-12T13:48:28.988Z</time></trkpt><trkpt lat="44.7289792" lon="7.7558005"><ele>269.0</ele><time>2026-04-12T13:48:31.988Z</time></trkpt><trkpt lat="44.7289327" lon="7.7558655"><ele>269.0</ele><time>2026-04-12T13:48:34.988Z</time></trkpt><trkpt lat="44.7288815" lon="7.7559265"><ele>269.0</ele><time>2026-04-12T13:48:37.988Z</time></trkpt><trkpt lat="44.7288289" lon="7.7559828"><ele>269.0</ele><time>2026-04-12T13:48:40.988Z</time></trkpt><trkpt lat="44.7287025" lon="7.7560832"><ele>269.0</ele><time>2026-04-12T13:48:47.988Z</time></trkpt><trkpt lat="44.7286456" lon="7.7561616"><ele>269.0</ele><time>2026-04-12T13:48:50.988Z</time></trkpt><trkpt lat="44.7285985" lon="7.7562274"><ele>269.0</ele><time>2026-04-12T13:48:53.988Z</time></trkpt><trkpt lat="44.7285581" lon="7.756315"><ele>269.0</ele><time>2026-04-12T13:48:56.988Z</time></trkpt><trkpt lat="44.7285015" lon="7.7563802"><ele>269.0</ele><time>2026-04-12T13:48:58.988Z</time></trkpt><trkpt lat="44.7284397" lon="7.7564573"><ele>269.0</ele><time>2026-04-12T13:49:00.988Z</time></trkpt><trkpt lat="44.7283892" lon="7.7565141"><ele>269.0</ele><time>2026-04-12T13:49:02.988Z</time></trkpt><trkpt lat="44.7283126" lon="7.7565906"><ele>269.0</ele><time>2026-04-12T13:49:05.988Z</time></trkpt><trkpt lat="44.7282613" lon="7.7566584"><ele>269.0</ele><time>2026-04-12T13:49:07.988Z</time></trkpt><trkpt lat="44.7282099" lon="7.756734"><ele>269.0</ele><time>2026-04-12T13:49:09.988Z</time></trkpt><trkpt lat="44.7281612" lon="7.7568062"><ele>269.0</ele><time>2026-04-12T13:49:11.988Z</time></trkpt><trkpt lat="44.7281125" lon="7.7568751"><ele>269.0</ele><time>2026-04-12T13:49:13.988Z</time></trkpt><trkpt lat="44.7280607" lon="7.7569525"><ele>269.0</ele><time>2026-04-12T13:49:15.988Z</time></trkpt><trkpt lat="44.7280054" lon="7.7570312"><ele>269.0</ele><time>2026-04-12T13:49:17.988Z</time></trkpt><trkpt lat="44.7279469" lon="7.7571101"><ele>268.83333333333337</ele><time>2026-04-12T13:49:19.988Z</time></trkpt><trkpt lat="44.7278872" lon="7.7571929"><ele>268.6666666666667</ele><time>2026-04-12T13:49:21.988Z</time></trkpt><trkpt lat="44.7278246" lon="7.7572782"><ele>268.5</ele><time>2026-04-12T13:49:23.988Z</time></trkpt><trkpt lat="44.7277638" lon="7.7573615"><ele>268.3333333333333</ele><time>2026-04-12T13:49:25.988Z</time></trkpt><trkpt lat="44.7277064" lon="7.7574399"><ele>268.16666666666663</ele><time>2026-04-12T13:49:27.988Z</time></trkpt><trkpt lat="44.7276455" lon="7.7575223"><ele>268.0</ele><time>2026-04-12T13:49:29.988Z</time></trkpt><trkpt lat="44.7275822" lon="7.7576126"><ele>268.0</ele><time>2026-04-12T13:49:31.988Z</time></trkpt><trkpt lat="44.727517" lon="7.7577014"><ele>268.0</ele><time>2026-04-12T13:49:33.988Z</time></trkpt><trkpt lat="44.7274526" lon="7.7577925"><ele>268.0</ele><time>2026-04-12T13:49:35.988Z</time></trkpt><trkpt lat="44.7273935" lon="7.7578759"><ele>268.0</ele><time>2026-04-12T13:49:37.988Z</time></trkpt><trkpt lat="44.7273324" lon="7.7579619"><ele>268.0</ele><time>2026-04-12T13:49:39.988Z</time></trkpt><trkpt lat="44.7272675" lon="7.7580558"><ele>268.0</ele><time>2026-04-12T13:49:41.988Z</time></trkpt><trkpt lat="44.7272007" lon="7.7581457"><ele>268.0</ele><time>2026-04-12T13:49:43.988Z</time></trkpt><trkpt lat="44.7271404" lon="7.7582317"><ele>268.0</ele><time>2026-04-12T13:49:45.988Z</time></trkpt><trkpt lat="44.727086" lon="7.7583314"><ele>268.0</ele><time>2026-04-12T13:49:47.988Z</time></trkpt><trkpt lat="44.7270261" lon="7.758412"><ele>268.0</ele><time>2026-04-12T13:49:49.988Z</time></trkpt><trkpt lat="44.7269685" lon="7.758497"><ele>268.0</ele><time>2026-04-12T13:49:51.988Z</time></trkpt><trkpt lat="44.7269211" lon="7.7585936"><ele>268.0</ele><time>2026-04-12T13:49:53.988Z</time></trkpt><trkpt lat="44.7268731" lon="7.7586979"><ele>268.6</ele><time>2026-04-12T13:49:55.988Z</time></trkpt><trkpt lat="44.7268243" lon="7.7588087"><ele>269.20000000000005</ele><time>2026-04-12T13:49:57.988Z</time></trkpt><trkpt lat="44.7267781" lon="7.7589298"><ele>269.8</ele><time>2026-04-12T13:49:59.988Z</time></trkpt><trkpt lat="44.7267294" lon="7.7590504"><ele>270.40000000000003</ele><time>2026-04-12T13:50:01.988Z</time></trkpt><trkpt lat="44.7266844" lon="7.759179"><ele>271.0</ele><time>2026-04-12T13:50:03.988Z</time></trkpt><trkpt lat="44.7266435" lon="7.7592993"><ele>270.8333333333333</ele><time>2026-04-12T13:50:05.988Z</time></trkpt><trkpt lat="44.7266201" lon="7.7594271"><ele>270.66666666666663</ele><time>2026-04-12T13:50:07.988Z</time></trkpt><trkpt lat="44.7265992" lon="7.7595542"><ele>270.5</ele><time>2026-04-12T13:50:09.988Z</time></trkpt><trkpt lat="44.7265776" lon="7.7596705"><ele>270.3333333333333</ele><time>2026-04-12T13:50:11.988Z</time></trkpt><trkpt lat="44.7265598" lon="7.7597838"><ele>270.1666666666667</ele><time>2026-04-12T13:50:13.988Z</time></trkpt><trkpt lat="44.7265352" lon="7.7598982"><ele>270.0</ele><time>2026-04-12T13:50:15.988Z</time></trkpt><trkpt lat="44.7265315" lon="7.7600085"><ele>270.0</ele><time>2026-04-12T13:50:17.988Z</time></trkpt><trkpt lat="44.7265743" lon="7.7600963"><ele>270.0</ele><time>2026-04-12T13:50:19.988Z</time></trkpt><trkpt lat="44.7266466" lon="7.7601398"><ele>270.0</ele><time>2026-04-12T13:50:21.988Z</time></trkpt><trkpt lat="44.7267405" lon="7.7601432"><ele>270.0</ele><time>2026-04-12T13:50:23.988Z</time></trkpt><trkpt lat="44.726833" lon="7.7601528"><ele>270.0</ele><time>2026-04-12T13:50:25.988Z</time></trkpt><trkpt lat="44.7269312" lon="7.7601639"><ele>270.0</ele><time>2026-04-12T13:50:27.988Z</time></trkpt><trkpt lat="44.7270333" lon="7.7601756"><ele>269.8</ele><time>2026-04-12T13:50:29.988Z</time></trkpt><trkpt lat="44.7271362" lon="7.760192"><ele>269.6</ele><time>2026-04-12T13:50:31.988Z</time></trkpt><trkpt lat="44.727248" lon="7.7602122"><ele>269.4</ele><time>2026-04-12T13:50:33.988Z</time></trkpt><trkpt lat="44.727356" lon="7.7602301"><ele>269.2</ele><time>2026-04-12T13:50:35.988Z</time></trkpt><trkpt lat="44.7274528" lon="7.7602472"><ele>269.0</ele><time>2026-04-12T13:50:37.988Z</time></trkpt><trkpt lat="44.7275459" lon="7.7602452"><ele>269.0</ele><time>2026-04-12T13:50:39.988Z</time></trkpt><trkpt lat="44.7276286" lon="7.760272"><ele>269.0</ele><time>2026-04-12T13:50:41.988Z</time></trkpt><trkpt lat="44.7276696" lon="7.7603703"><ele>269.0</ele><time>2026-04-12T13:50:43.988Z</time></trkpt><trkpt lat="44.7276676" lon="7.7604863"><ele>269.0</ele><time>2026-04-12T13:50:45.988Z</time></trkpt><trkpt lat="44.72766" lon="7.760607"><ele>269.0</ele><time>2026-04-12T13:50:47.988Z</time></trkpt><trkpt lat="44.7276573" lon="7.7607421"><ele>269.0</ele><time>2026-04-12T13:50:49.988Z</time></trkpt><trkpt lat="44.7276493" lon="7.7608834"><ele>269.0</ele><time>2026-04-12T13:50:51.988Z</time></trkpt><trkpt lat="44.7276393" lon="7.7610211"><ele>269.0</ele><time>2026-04-12T13:50:53.988Z</time></trkpt><trkpt lat="44.7276538" lon="7.7611364"><ele>269.0</ele><time>2026-04-12T13:50:55.988Z</time></trkpt><trkpt lat="44.727673" lon="7.7612585"><ele>269.0</ele><time>2026-04-12T13:50:57.988Z</time></trkpt><trkpt lat="44.7277125" lon="7.7613724"><ele>269.0</ele><time>2026-04-12T13:50:59.988Z</time></trkpt><trkpt lat="44.7277666" lon="7.7614947"><ele>268.83333333333337</ele><time>2026-04-12T13:51:01.988Z</time></trkpt><trkpt lat="44.7278043" lon="7.7616032"><ele>268.6666666666667</ele><time>2026-04-12T13:51:03.988Z</time></trkpt><trkpt lat="44.7278291" lon="7.7616965"><ele>268.5</ele><time>2026-04-12T13:51:05.988Z</time></trkpt><trkpt lat="44.7278529" lon="7.7617887"><ele>268.3333333333333</ele><time>2026-04-12T13:51:07.988Z</time></trkpt><trkpt lat="44.7278793" lon="7.7618969"><ele>268.16666666666663</ele><time>2026-04-12T13:51:09.988Z</time></trkpt><trkpt lat="44.7278982" lon="7.7620265"><ele>268.0</ele><time>2026-04-12T13:51:11.988Z</time></trkpt><trkpt lat="44.7279196" lon="7.762157"><ele>268.0</ele><time>2026-04-12T13:51:13.988Z</time></trkpt><trkpt lat="44.7279506" lon="7.7622951"><ele>268.0</ele><time>2026-04-12T13:51:15.988Z</time></trkpt><trkpt lat="44.7279811" lon="7.7624386"><ele>268.0</ele><time>2026-04-12T13:51:17.988Z</time></trkpt><trkpt lat="44.7280075" lon="7.7625731"><ele>268.0</ele><time>2026-04-12T13:51:19.988Z</time></trkpt><trkpt lat="44.7280398" lon="7.7627147"><ele>268.0</ele><time>2026-04-12T13:51:21.988Z</time></trkpt><trkpt lat="44.7280728" lon="7.7628503"><ele>268.0</ele><time>2026-04-12T13:51:23.988Z</time></trkpt><trkpt lat="44.7281032" lon="7.7629867"><ele>268.0</ele><time>2026-04-12T13:51:25.988Z</time></trkpt><trkpt lat="44.7281341" lon="7.7631286"><ele>268.0</ele><time>2026-04-12T13:51:27.988Z</time></trkpt><trkpt lat="44.7281691" lon="7.7632751"><ele>268.0</ele><time>2026-04-12T13:51:29.988Z</time></trkpt><trkpt lat="44.7282027" lon="7.7634127"><ele>268.0</ele><time>2026-04-12T13:51:31.988Z</time></trkpt><trkpt lat="44.7282294" lon="7.763558"><ele>268.0</ele><time>2026-04-12T13:51:33.988Z</time></trkpt><trkpt lat="44.7282679" lon="7.7637006"><ele>268.0</ele><time>2026-04-12T13:51:35.988Z</time></trkpt><trkpt lat="44.7283047" lon="7.7638366"><ele>268.0</ele><time>2026-04-12T13:51:37.988Z</time></trkpt><trkpt lat="44.7283385" lon="7.7639777"><ele>268.0</ele><time>2026-04-12T13:51:39.988Z</time></trkpt><trkpt lat="44.7283698" lon="7.7641127"><ele>268.0</ele><time>2026-04-12T13:51:41.988Z</time></trkpt><trkpt lat="44.728407" lon="7.7642531"><ele>267.8</ele><time>2026-04-12T13:51:43.988Z</time></trkpt><trkpt lat="44.7284346" lon="7.7643959"><ele>267.6</ele><time>2026-04-12T13:51:45.988Z</time></trkpt><trkpt lat="44.7284625" lon="7.7645355"><ele>267.4</ele><time>2026-04-12T13:51:47.988Z</time></trkpt><trkpt lat="44.7284975" lon="7.7646653"><ele>267.2</ele><time>2026-04-12T13:51:49.988Z</time></trkpt><trkpt lat="44.7285424" lon="7.764797"><ele>267.0</ele><time>2026-04-12T13:51:51.988Z</time></trkpt><trkpt lat="44.7286006" lon="7.7649211"><ele>267.0</ele><time>2026-04-12T13:51:53.988Z</time></trkpt><trkpt lat="44.7286727" lon="7.7650306"><ele>267.0</ele><time>2026-04-12T13:51:55.988Z</time></trkpt><trkpt lat="44.728745" lon="7.7651226"><ele>267.0</ele><time>2026-04-12T13:51:57.988Z</time></trkpt><trkpt lat="44.7288111" lon="7.7652168"><ele>267.0</ele><time>2026-04-12T13:51:59.988Z</time></trkpt><trkpt lat="44.7288722" lon="7.7653167"><ele>267.0</ele><time>2026-04-12T13:52:01.988Z</time></trkpt><trkpt lat="44.7289074" lon="7.765441"><ele>267.4</ele><time>2026-04-12T13:52:03.988Z</time></trkpt><trkpt lat="44.7289088" lon="7.7655727"><ele>267.79999999999995</ele><time>2026-04-12T13:52:05.988Z</time></trkpt><trkpt lat="44.7289037" lon="7.7657126"><ele>268.2</ele><time>2026-04-12T13:52:07.988Z</time></trkpt><trkpt lat="44.7289061" lon="7.7658526"><ele>268.59999999999997</ele><time>2026-04-12T13:52:09.988Z</time></trkpt><trkpt lat="44.7288965" lon="7.7659836"><ele>269.0</ele><time>2026-04-12T13:52:11.988Z</time></trkpt><trkpt lat="44.7288775" lon="7.7661132"><ele>269.2</ele><time>2026-04-12T13:52:13.988Z</time></trkpt><trkpt lat="44.7288607" lon="7.7662552"><ele>269.4</ele><time>2026-04-12T13:52:15.988Z</time></trkpt><trkpt lat="44.7288448" lon="7.7663842"><ele>269.6</ele><time>2026-04-12T13:52:17.988Z</time></trkpt><trkpt lat="44.7288299" lon="7.7665067"><ele>269.8</ele><time>2026-04-12T13:52:19.988Z</time></trkpt><trkpt lat="44.7288351" lon="7.7666591"><ele>270.0</ele><time>2026-04-12T13:52:21.988Z</time></trkpt><trkpt lat="44.7288348" lon="7.766788"><ele>270.2</ele><time>2026-04-12T13:52:23.988Z</time></trkpt><trkpt lat="44.7288254" lon="7.7669187"><ele>270.4</ele><time>2026-04-12T13:52:25.988Z</time></trkpt><trkpt lat="44.7288203" lon="7.7670556"><ele>270.6</ele><time>2026-04-12T13:52:27.988Z</time></trkpt><trkpt lat="44.7288243" lon="7.7671839"><ele>270.8</ele><time>2026-04-12T13:52:29.988Z</time></trkpt><trkpt lat="44.728841" lon="7.76731"><ele>271.0</ele><time>2026-04-12T13:52:31.988Z</time></trkpt><trkpt lat="44.7288833" lon="7.7674255"><ele>271.0</ele><time>2026-04-12T13:52:33.988Z</time></trkpt><trkpt lat="44.7289519" lon="7.767511"><ele>271.0</ele><time>2026-04-12T13:52:35.988Z</time></trkpt><trkpt lat="44.7290233" lon="7.767584"><ele>271.0</ele><time>2026-04-12T13:52:37.988Z</time></trkpt><trkpt lat="44.7290875" lon="7.7676629"><ele>271.0</ele><time>2026-04-12T13:52:39.988Z</time></trkpt><trkpt lat="44.7291516" lon="7.76776"><ele>271.0</ele><time>2026-04-12T13:52:41.988Z</time></trkpt><trkpt lat="44.7292171" lon="7.7678525"><ele>271.0</ele><time>2026-04-12T13:52:43.988Z</time></trkpt><trkpt lat="44.7292843" lon="7.7679431"><ele>271.0</ele><time>2026-04-12T13:52:45.988Z</time></trkpt><trkpt lat="44.7293578" lon="7.7680329"><ele>271.0</ele><time>2026-04-12T13:52:47.988Z</time></trkpt><trkpt lat="44.7294286" lon="7.7681209"><ele>271.0</ele><time>2026-04-12T13:52:49.988Z</time></trkpt><trkpt lat="44.7295001" lon="7.7682184"><ele>271.0</ele><time>2026-04-12T13:52:51.988Z</time></trkpt><trkpt lat="44.7295676" lon="7.7683101"><ele>270.8</ele><time>2026-04-12T13:52:53.988Z</time></trkpt><trkpt lat="44.7296406" lon="7.7684116"><ele>270.6</ele><time>2026-04-12T13:52:55.988Z</time></trkpt><trkpt lat="44.7297016" lon="7.7685048"><ele>270.4</ele><time>2026-04-12T13:52:57.988Z</time></trkpt><trkpt lat="44.7297795" lon="7.7685917"><ele>270.2</ele><time>2026-04-12T13:52:59.988Z</time></trkpt><trkpt lat="44.7298571" lon="7.7686721"><ele>270.0</ele><time>2026-04-12T13:53:01.988Z</time></trkpt><trkpt lat="44.7299347" lon="7.7687555"><ele>270.0</ele><time>2026-04-12T13:53:03.988Z</time></trkpt><trkpt lat="44.7300195" lon="7.7688298"><ele>270.0</ele><time>2026-04-12T13:53:05.988Z</time></trkpt><trkpt lat="44.7301173" lon="7.7689131"><ele>270.0</ele><time>2026-04-12T13:53:07.988Z</time></trkpt><trkpt lat="44.7302113" lon="7.7689866"><ele>270.0</ele><time>2026-04-12T13:53:09.988Z</time></trkpt><trkpt lat="44.7303004" lon="7.769058"><ele>270.0</ele><time>2026-04-12T13:53:11.988Z</time></trkpt><trkpt lat="44.7303869" lon="7.7691185"><ele>269.8</ele><time>2026-04-12T13:53:13.988Z</time></trkpt><trkpt lat="44.7304786" lon="7.7691747"><ele>269.6</ele><time>2026-04-12T13:53:15.988Z</time></trkpt><trkpt lat="44.7305608" lon="7.7692514"><ele>269.4</ele><time>2026-04-12T13:53:17.988Z</time></trkpt><trkpt lat="44.7306464" lon="7.7693266"><ele>269.2</ele><time>2026-04-12T13:53:19.988Z</time></trkpt><trkpt lat="44.7307265" lon="7.7694244"><ele>269.0</ele><time>2026-04-12T13:53:21.988Z</time></trkpt><trkpt lat="44.7307996" lon="7.7695265"><ele>269.0</ele><time>2026-04-12T13:53:23.988Z</time></trkpt><trkpt lat="44.7308456" lon="7.7695871"><ele>269.0</ele><time>2026-04-12T13:53:24.988Z</time></trkpt><trkpt lat="44.730893" lon="7.7697058"><ele>269.0</ele><time>2026-04-12T13:53:26.988Z</time></trkpt><trkpt lat="44.7309388" lon="7.7698249"><ele>269.0</ele><time>2026-04-12T13:53:28.988Z</time></trkpt><trkpt lat="44.730989" lon="7.7699534"><ele>269.0</ele><time>2026-04-12T13:53:30.988Z</time></trkpt><trkpt lat="44.7310498" lon="7.7700691"><ele>268.8</ele><time>2026-04-12T13:53:32.988Z</time></trkpt><trkpt lat="44.7311025" lon="7.7701856"><ele>268.59999999999997</ele><time>2026-04-12T13:53:34.988Z</time></trkpt><trkpt lat="44.7311562" lon="7.7702995"><ele>268.4</ele><time>2026-04-12T13:53:36.988Z</time></trkpt><trkpt lat="44.7312196" lon="7.7704167"><ele>268.2</ele><time>2026-04-12T13:53:38.988Z</time></trkpt><trkpt lat="44.7312905" lon="7.7705157"><ele>268.0</ele><time>2026-04-12T13:53:40.988Z</time></trkpt><trkpt lat="44.7313559" lon="7.7706094"><ele>268.0</ele><time>2026-04-12T13:53:42.988Z</time></trkpt><trkpt lat="44.7314287" lon="7.7707057"><ele>268.0</ele><time>2026-04-12T13:53:44.989Z</time></trkpt><trkpt lat="44.7314985" lon="7.770803"><ele>268.0</ele><time>2026-04-12T13:53:46.988Z</time></trkpt><trkpt lat="44.7315737" lon="7.7708958"><ele>268.0</ele><time>2026-04-12T13:53:48.988Z</time></trkpt><trkpt lat="44.731634" lon="7.7709946"><ele>268.0</ele><time>2026-04-12T13:53:50.988Z</time></trkpt><trkpt lat="44.7317025" lon="7.771088"><ele>268.0</ele><time>2026-04-12T13:53:52.988Z</time></trkpt><trkpt lat="44.7317601" lon="7.7711742"><ele>268.0</ele><time>2026-04-12T13:53:54.988Z</time></trkpt><trkpt lat="44.73184" lon="7.7712732"><ele>268.0</ele><time>2026-04-12T13:53:56.988Z</time></trkpt><trkpt lat="44.7319045" lon="7.7713629"><ele>268.0</ele><time>2026-04-12T13:53:58.988Z</time></trkpt><trkpt lat="44.7319609" lon="7.7714501"><ele>268.0</ele><time>2026-04-12T13:54:00.988Z</time></trkpt><trkpt lat="44.7320169" lon="7.7715456"><ele>268.0</ele><time>2026-04-12T13:54:02.988Z</time></trkpt><trkpt lat="44.7320776" lon="7.7716554"><ele>268.0</ele><time>2026-04-12T13:54:04.988Z</time></trkpt><trkpt lat="44.7321386" lon="7.771749"><ele>268.0</ele><time>2026-04-12T13:54:06.988Z</time></trkpt><trkpt lat="44.7322006" lon="7.771845"><ele>268.0</ele><time>2026-04-12T13:54:08.988Z</time></trkpt><trkpt lat="44.7322477" lon="7.7719464"><ele>268.0</ele><time>2026-04-12T13:54:10.988Z</time></trkpt><trkpt lat="44.7323155" lon="7.7720548"><ele>267.8</ele><time>2026-04-12T13:54:12.988Z</time></trkpt><trkpt lat="44.7323662" lon="7.7721775"><ele>267.6</ele><time>2026-04-12T13:54:14.988Z</time></trkpt><trkpt lat="44.7324138" lon="7.7722953"><ele>267.4</ele><time>2026-04-12T13:54:16.988Z</time></trkpt><trkpt lat="44.7324522" lon="7.7724214"><ele>267.2</ele><time>2026-04-12T13:54:18.988Z</time></trkpt><trkpt lat="44.7325095" lon="7.7725346"><ele>267.0</ele><time>2026-04-12T13:54:20.988Z</time></trkpt><trkpt lat="44.7325569" lon="7.7726332"><ele>266.8333333333333</ele><time>2026-04-12T13:54:22.988Z</time></trkpt><trkpt lat="44.7326104" lon="7.7727266"><ele>266.6666666666667</ele><time>2026-04-12T13:54:24.988Z</time></trkpt><trkpt lat="44.7326738" lon="7.7727907"><ele>266.5</ele><time>2026-04-12T13:54:26.988Z</time></trkpt><trkpt lat="44.7327438" lon="7.7728506"><ele>266.33333333333337</ele><time>2026-04-12T13:54:28.988Z</time></trkpt><trkpt lat="44.7328016" lon="7.7728997"><ele>266.1666666666667</ele><time>2026-04-12T13:54:30.988Z</time></trkpt><trkpt lat="44.7328714" lon="7.7729402"><ele>266.0</ele><time>2026-04-12T13:54:34.988Z</time></trkpt><trkpt lat="44.7328125" lon="7.7728867"><ele>266.0</ele><time>2026-04-12T13:54:44.988Z</time></trkpt><trkpt lat="44.7327552" lon="7.7728343"><ele>266.0</ele><time>2026-04-12T13:54:46.988Z</time></trkpt><trkpt lat="44.7326985" lon="7.772791"><ele>266.0</ele><time>2026-04-12T13:54:48.988Z</time></trkpt><trkpt lat="44.7326259" lon="7.7727351"><ele>266.0</ele><time>2026-04-12T13:54:51.988Z</time></trkpt><trkpt lat="44.7325499" lon="7.7727056"><ele>266.0</ele><time>2026-04-12T13:54:54.988Z</time></trkpt><trkpt lat="44.7324824" lon="7.7727965"><ele>266.0</ele><time>2026-04-12T13:54:57.988Z</time></trkpt><trkpt lat="44.7324323" lon="7.772855"><ele>266.0</ele><time>2026-04-12T13:54:59.988Z</time></trkpt><trkpt lat="44.7323975" lon="7.7729657"><ele>266.0</ele><time>2026-04-12T13:55:02.988Z</time></trkpt><trkpt lat="44.7324129" lon="7.7730712"><ele>266.0</ele><time>2026-04-12T13:55:04.988Z</time></trkpt><trkpt lat="44.7324312" lon="7.7731836"><ele>266.0</ele><time>2026-04-12T13:55:06.988Z</time></trkpt><trkpt lat="44.7324485" lon="7.7732839"><ele>266.0</ele><time>2026-04-12T13:55:08.988Z</time></trkpt><trkpt lat="44.7324719" lon="7.7733855"><ele>266.0</ele><time>2026-04-12T13:55:10.988Z</time></trkpt><trkpt lat="44.7325123" lon="7.7734914"><ele>266.2</ele><time>2026-04-12T13:55:12.988Z</time></trkpt><trkpt lat="44.7325737" lon="7.773591"><ele>266.40000000000003</ele><time>2026-04-12T13:55:14.988Z</time></trkpt><trkpt lat="44.7326404" lon="7.77369"><ele>266.6</ele><time>2026-04-12T13:55:16.988Z</time></trkpt><trkpt lat="44.7327012" lon="7.7737976"><ele>266.8</ele><time>2026-04-12T13:55:18.988Z</time></trkpt><trkpt lat="44.7327538" lon="7.7739103"><ele>267.0</ele><time>2026-04-12T13:55:20.988Z</time></trkpt><trkpt lat="44.7327955" lon="7.7740219"><ele>266.6666666666667</ele><time>2026-04-12T13:55:22.988Z</time></trkpt><trkpt lat="44.7328277" lon="7.7741399"><ele>266.3333333333333</ele><time>2026-04-12T13:55:24.988Z</time></trkpt><trkpt lat="44.7328235" lon="7.7742522"><ele>266.0</ele><time>2026-04-12T13:55:26.988Z</time></trkpt><trkpt lat="44.7327716" lon="7.7743263"><ele>265.66666666666663</ele><time>2026-04-12T13:55:28.988Z</time></trkpt><trkpt lat="44.7326978" lon="7.7743712"><ele>265.3333333333333</ele><time>2026-04-12T13:55:30.988Z</time></trkpt><trkpt lat="44.7326262" lon="7.7744283"><ele>265.0</ele><time>2026-04-12T13:55:32.988Z</time></trkpt><trkpt lat="44.7325494" lon="7.7744826"><ele>265.0</ele><time>2026-04-12T13:55:34.988Z</time></trkpt><trkpt lat="44.7324747" lon="7.7745445"><ele>265.0</ele><time>2026-04-12T13:55:36.988Z</time></trkpt><trkpt lat="44.7323976" lon="7.7746055"><ele>265.0</ele><time>2026-04-12T13:55:38.988Z</time></trkpt><trkpt lat="44.7323254" lon="7.774674"><ele>265.0</ele><time>2026-04-12T13:55:40.988Z</time></trkpt><trkpt lat="44.7322567" lon="7.774735"><ele>265.0</ele><time>2026-04-12T13:55:42.988Z</time></trkpt><trkpt lat="44.7321875" lon="7.7747965"><ele>265.0</ele><time>2026-04-12T13:55:44.988Z</time></trkpt><trkpt lat="44.7321198" lon="7.7748585"><ele>264.99999999999994</ele><time>2026-04-12T13:55:46.988Z</time></trkpt><trkpt lat="44.7320592" lon="7.7749184"><ele>265.0</ele><time>2026-04-12T13:55:48.988Z</time></trkpt><trkpt lat="44.7320032" lon="7.7749645"><ele>265.0</ele><time>2026-04-12T13:55:50.988Z</time></trkpt><trkpt lat="44.7319281" lon="7.7750422"><ele>265.0</ele><time>2026-04-12T13:55:53.988Z</time></trkpt><trkpt lat="44.7318694" lon="7.77509"><ele>265.0</ele><time>2026-04-12T13:55:55.988Z</time></trkpt><trkpt lat="44.7318116" lon="7.7751487"><ele>264.99999999999994</ele><time>2026-04-12T13:55:57.988Z</time></trkpt><trkpt lat="44.7317462" lon="7.775205"><ele>265.0</ele><time>2026-04-12T13:55:59.988Z</time></trkpt><trkpt lat="44.7316755" lon="7.7752654"><ele>264.66666666666663</ele><time>2026-04-12T13:56:01.988Z</time></trkpt><trkpt lat="44.7315999" lon="7.775324"><ele>264.3333333333333</ele><time>2026-04-12T13:56:03.988Z</time></trkpt><trkpt lat="44.7315239" lon="7.7753836"><ele>264.0</ele><time>2026-04-12T13:56:05.988Z</time></trkpt><trkpt lat="44.7314455" lon="7.7754439"><ele>263.6666666666667</ele><time>2026-04-12T13:56:07.988Z</time></trkpt><trkpt lat="44.731368" lon="7.7755057"><ele>263.33333333333337</ele><time>2026-04-12T13:56:09.988Z</time></trkpt><trkpt lat="44.7312855" lon="7.7755759"><ele>263.0</ele><time>2026-04-12T13:56:11.988Z</time></trkpt><trkpt lat="44.7312059" lon="7.7756413"><ele>263.0</ele><time>2026-04-12T13:56:13.988Z</time></trkpt><trkpt lat="44.731128" lon="7.7757068"><ele>263.0</ele><time>2026-04-12T13:56:15.988Z</time></trkpt><trkpt lat="44.7310499" lon="7.7757692"><ele>263.0</ele><time>2026-04-12T13:56:17.988Z</time></trkpt><trkpt lat="44.7309724" lon="7.7758354"><ele>263.0</ele><time>2026-04-12T13:56:19.988Z</time></trkpt><trkpt lat="44.7308944" lon="7.7758992"><ele>263.0</ele><time>2026-04-12T13:56:21.988Z</time></trkpt><trkpt lat="44.730819" lon="7.7759621"><ele>263.0</ele><time>2026-04-12T13:56:23.988Z</time></trkpt><trkpt lat="44.730742" lon="7.7760226"><ele>263.2</ele><time>2026-04-12T13:56:25.988Z</time></trkpt><trkpt lat="44.7306645" lon="7.7760872"><ele>263.4</ele><time>2026-04-12T13:56:27.988Z</time></trkpt><trkpt lat="44.730587" lon="7.7761591"><ele>263.59999999999997</ele><time>2026-04-12T13:56:29.988Z</time></trkpt><trkpt lat="44.7305067" lon="7.7762287"><ele>263.8</ele><time>2026-04-12T13:56:31.988Z</time></trkpt><trkpt lat="44.7304312" lon="7.7762929"><ele>264.0</ele><time>2026-04-12T13:56:33.988Z</time></trkpt><trkpt lat="44.7303619" lon="7.7763793"><ele>264.0</ele><time>2026-04-12T13:56:35.988Z</time></trkpt><trkpt lat="44.7302922" lon="7.7764724"><ele>264.0</ele><time>2026-04-12T13:56:37.988Z</time></trkpt><trkpt lat="44.7302163" lon="7.7765548"><ele>264.0</ele><time>2026-04-12T13:56:39.988Z</time></trkpt><trkpt lat="44.730127" lon="7.7766095"><ele>264.0</ele><time>2026-04-12T13:56:41.988Z</time></trkpt><trkpt lat="44.7300319" lon="7.7766548"><ele>264.0</ele><time>2026-04-12T13:56:43.988Z</time></trkpt><trkpt lat="44.7299469" lon="7.7766972"><ele>264.0</ele><time>2026-04-12T13:56:45.988Z</time></trkpt><trkpt lat="44.7298641" lon="7.7767312"><ele>264.0</ele><time>2026-04-12T13:56:47.988Z</time></trkpt><trkpt lat="44.7297729" lon="7.7767674"><ele>264.0</ele><time>2026-04-12T13:56:49.988Z</time></trkpt><trkpt lat="44.7296779" lon="7.7768199"><ele>264.0</ele><time>2026-04-12T13:56:51.988Z</time></trkpt><trkpt lat="44.7295807" lon="7.7768649"><ele>264.0</ele><time>2026-04-12T13:56:53.988Z</time></trkpt><trkpt lat="44.7294922" lon="7.77692"><ele>264.0</ele><time>2026-04-12T13:56:55.988Z</time></trkpt><trkpt lat="44.7294091" lon="7.7769929"><ele>264.0</ele><time>2026-04-12T13:56:57.988Z</time></trkpt><trkpt lat="44.72933" lon="7.7770795"><ele>264.0</ele><time>2026-04-12T13:56:59.988Z</time></trkpt><trkpt lat="44.7292513" lon="7.7771766"><ele>264.0</ele><time>2026-04-12T13:57:01.988Z</time></trkpt><trkpt lat="44.7291648" lon="7.777257"><ele>264.0</ele><time>2026-04-12T13:57:03.988Z</time></trkpt><trkpt lat="44.7290678" lon="7.777307"><ele>264.59999999999997</ele><time>2026-04-12T13:57:05.988Z</time></trkpt><trkpt lat="44.7289704" lon="7.7773473"><ele>265.2</ele><time>2026-04-12T13:57:07.988Z</time></trkpt><trkpt lat="44.7288691" lon="7.7773467"><ele>265.79999999999995</ele><time>2026-04-12T13:57:09.988Z</time></trkpt><trkpt lat="44.7287673" lon="7.7773241"><ele>266.4</ele><time>2026-04-12T13:57:11.988Z</time></trkpt><trkpt lat="44.7286748" lon="7.7772853"><ele>267.0</ele><time>2026-04-12T13:57:13.988Z</time></trkpt><trkpt lat="44.7285888" lon="7.7772357"><ele>266.6</ele><time>2026-04-12T13:57:15.988Z</time></trkpt><trkpt lat="44.7285007" lon="7.7771814"><ele>266.2</ele><time>2026-04-12T13:57:17.988Z</time></trkpt><trkpt lat="44.7284153" lon="7.7771273"><ele>265.8</ele><time>2026-04-12T13:57:19.988Z</time></trkpt><trkpt lat="44.7283253" lon="7.7770723"><ele>265.4</ele><time>2026-04-12T13:57:21.988Z</time></trkpt><trkpt lat="44.7282318" lon="7.7770277"><ele>265.0</ele><time>2026-04-12T13:57:23.988Z</time></trkpt><trkpt lat="44.7281485" lon="7.7769609"><ele>265.0</ele><time>2026-04-12T13:57:25.988Z</time></trkpt><trkpt lat="44.7280886" lon="7.7768667"><ele>265.0</ele><time>2026-04-12T13:57:27.988Z</time></trkpt><trkpt lat="44.728045" lon="7.7767553"><ele>265.0</ele><time>2026-04-12T13:57:29.988Z</time></trkpt><trkpt lat="44.728007" lon="7.7766432"><ele>265.0</ele><time>2026-04-12T13:57:31.988Z</time></trkpt><trkpt lat="44.7279517" lon="7.7765422"><ele>265.0</ele><time>2026-04-12T13:57:33.988Z</time></trkpt><trkpt lat="44.7278931" lon="7.7764527"><ele>265.0</ele><time>2026-04-12T13:57:35.988Z</time></trkpt><trkpt lat="44.7278377" lon="7.776352"><ele>265.5</ele><time>2026-04-12T13:57:37.988Z</time></trkpt><trkpt lat="44.727779" lon="7.7762548"><ele>266.0</ele><time>2026-04-12T13:57:39.988Z</time></trkpt><trkpt lat="44.7277234" lon="7.7761599"><ele>266.5</ele><time>2026-04-12T13:57:41.988Z</time></trkpt><trkpt lat="44.7276767" lon="7.7760805"><ele>267.0</ele><time>2026-04-12T13:57:43.988Z</time></trkpt><trkpt lat="44.7276355" lon="7.7759986"><ele>267.5</ele><time>2026-04-12T13:57:45.988Z</time></trkpt><trkpt lat="44.727583" lon="7.7759098"><ele>268.0</ele><time>2026-04-12T13:57:48.988Z</time></trkpt><trkpt lat="44.7275199" lon="7.7758893"><ele>268.0</ele><time>2026-04-12T13:57:51.988Z</time></trkpt><trkpt lat="44.7275401" lon="7.7759813"><ele>268.0</ele><time>2026-04-12T13:57:55.988Z</time></trkpt><trkpt lat="44.7276328" lon="7.7760037"><ele>268.0</ele><time>2026-04-12T13:57:58.988Z</time></trkpt><trkpt lat="44.7276855" lon="7.7760816"><ele>268.0</ele><time>2026-04-12T13:58:00.988Z</time></trkpt><trkpt lat="44.7277315" lon="7.7761801"><ele>268.0</ele><time>2026-04-12T13:58:02.988Z</time></trkpt><trkpt lat="44.7277891" lon="7.7762798"><ele>268.0</ele><time>2026-04-12T13:58:04.988Z</time></trkpt><trkpt lat="44.7278485" lon="7.7763783"><ele>268.0</ele><time>2026-04-12T13:58:06.988Z</time></trkpt><trkpt lat="44.7279" lon="7.776468"><ele>268.0</ele><time>2026-04-12T13:58:08.988Z</time></trkpt><trkpt lat="44.7279527" lon="7.7765604"><ele>268.0</ele><time>2026-04-12T13:58:10.988Z</time></trkpt><trkpt lat="44.7280058" lon="7.7766432"><ele>268.0</ele><time>2026-04-12T13:58:12.988Z</time></trkpt><trkpt lat="44.7280507" lon="7.7767284"><ele>268.0</ele><time>2026-04-12T13:58:14.988Z</time></trkpt><trkpt lat="44.7280476" lon="7.7768213"><ele>268.0</ele><time>2026-04-12T13:58:16.988Z</time></trkpt><trkpt lat="44.7280186" lon="7.7769007"><ele>267.6</ele><time>2026-04-12T13:58:18.988Z</time></trkpt><trkpt lat="44.7279535" lon="7.7769471"><ele>267.20000000000005</ele><time>2026-04-12T13:58:20.988Z</time></trkpt><trkpt lat="44.7278616" lon="7.7769311"><ele>266.8</ele><time>2026-04-12T13:58:22.988Z</time></trkpt><trkpt lat="44.7277642" lon="7.7769314"><ele>266.40000000000003</ele><time>2026-04-12T13:58:24.988Z</time></trkpt><trkpt lat="44.7276573" lon="7.7769212"><ele>266.0</ele><time>2026-04-12T13:58:26.988Z</time></trkpt><trkpt lat="44.7275602" lon="7.7769302"><ele>266.0</ele><time>2026-04-12T13:58:28.988Z</time></trkpt><trkpt lat="44.7274627" lon="7.776941"><ele>266.0</ele><time>2026-04-12T13:58:30.988Z</time></trkpt><trkpt lat="44.7273648" lon="7.7769636"><ele>266.0</ele><time>2026-04-12T13:58:32.988Z</time></trkpt><trkpt lat="44.7272631" lon="7.7769871"><ele>266.0</ele><time>2026-04-12T13:58:34.988Z</time></trkpt><trkpt lat="44.7271673" lon="7.7770122"><ele>266.0</ele><time>2026-04-12T13:58:36.988Z</time></trkpt><trkpt lat="44.7270634" lon="7.7770187"><ele>266.0</ele><time>2026-04-12T13:58:38.988Z</time></trkpt><trkpt lat="44.7269569" lon="7.7770192"><ele>266.0</ele><time>2026-04-12T13:58:40.988Z</time></trkpt><trkpt lat="44.7268577" lon="7.7770287"><ele>266.0</ele><time>2026-04-12T13:58:42.988Z</time></trkpt><trkpt lat="44.7267524" lon="7.7770911"><ele>266.0</ele><time>2026-04-12T13:58:44.988Z</time></trkpt><trkpt lat="44.7266544" lon="7.7771609"><ele>266.0</ele><time>2026-04-12T13:58:46.988Z</time></trkpt><trkpt lat="44.7265633" lon="7.7772414"><ele>266.40000000000003</ele><time>2026-04-12T13:58:48.988Z</time></trkpt><trkpt lat="44.7264754" lon="7.7773165"><ele>266.8</ele><time>2026-04-12T13:58:50.988Z</time></trkpt><trkpt lat="44.7263901" lon="7.7773984"><ele>267.20000000000005</ele><time>2026-04-12T13:58:52.988Z</time></trkpt><trkpt lat="44.7262996" lon="7.7774828"><ele>267.6</ele><time>2026-04-12T13:58:54.988Z</time></trkpt><trkpt lat="44.7262188" lon="7.7775629"><ele>268.0</ele><time>2026-04-12T13:58:56.988Z</time></trkpt><trkpt lat="44.7261406" lon="7.7776411"><ele>267.4</ele><time>2026-04-12T13:58:58.988Z</time></trkpt><trkpt lat="44.7260652" lon="7.7777056"><ele>266.8</ele><time>2026-04-12T13:59:00.988Z</time></trkpt><trkpt lat="44.7259902" lon="7.7777755"><ele>266.2</ele><time>2026-04-12T13:59:02.988Z</time></trkpt><trkpt lat="44.7259072" lon="7.7778344"><ele>265.6</ele><time>2026-04-12T13:59:04.988Z</time></trkpt><trkpt lat="44.7258269" lon="7.777906"><ele>265.0</ele><time>2026-04-12T13:59:06.988Z</time></trkpt><trkpt lat="44.7257385" lon="7.7779787"><ele>265.0</ele><time>2026-04-12T13:59:08.988Z</time></trkpt><trkpt lat="44.7256454" lon="7.7780443"><ele>265.0</ele><time>2026-04-12T13:59:10.988Z</time></trkpt><trkpt lat="44.7255544" lon="7.7781083"><ele>265.0</ele><time>2026-04-12T13:59:12.988Z</time></trkpt><trkpt lat="44.7254593" lon="7.7781733"><ele>265.0</ele><time>2026-04-12T13:59:14.988Z</time></trkpt><trkpt lat="44.7253612" lon="7.7782358"><ele>265.0</ele><time>2026-04-12T13:59:16.988Z</time></trkpt><trkpt lat="44.7252618" lon="7.7782881"><ele>265.0</ele><time>2026-04-12T13:59:18.988Z</time></trkpt><trkpt lat="44.7251762" lon="7.778364"><ele>265.0</ele><time>2026-04-12T13:59:20.988Z</time></trkpt><trkpt lat="44.7250961" lon="7.7784484"><ele>265.0</ele><time>2026-04-12T13:59:22.988Z</time></trkpt><trkpt lat="44.7250181" lon="7.7785218"><ele>265.0</ele><time>2026-04-12T13:59:24.988Z</time></trkpt><trkpt lat="44.7249337" lon="7.77859"><ele>265.0</ele><time>2026-04-12T13:59:26.988Z</time></trkpt><trkpt lat="44.7248454" lon="7.7786668"><ele>265.0</ele><time>2026-04-12T13:59:28.988Z</time></trkpt><trkpt lat="44.7247664" lon="7.7787457"><ele>265.0</ele><time>2026-04-12T13:59:30.988Z</time></trkpt><trkpt lat="44.7246882" lon="7.7788166"><ele>265.0</ele><time>2026-04-12T13:59:32.988Z</time></trkpt><trkpt lat="44.7246072" lon="7.7788912"><ele>265.0</ele><time>2026-04-12T13:59:34.988Z</time></trkpt><trkpt lat="44.7245216" lon="7.778949"><ele>265.0</ele><time>2026-04-12T13:59:36.988Z</time></trkpt><trkpt lat="44.7244252" lon="7.7789884"><ele>265.8</ele><time>2026-04-12T13:59:38.988Z</time></trkpt><trkpt lat="44.7243269" lon="7.7790022"><ele>266.6</ele><time>2026-04-12T13:59:40.988Z</time></trkpt><trkpt lat="44.7242201" lon="7.7790163"><ele>267.4</ele><time>2026-04-12T13:59:42.988Z</time></trkpt><trkpt lat="44.7241189" lon="7.7790169"><ele>268.2</ele><time>2026-04-12T13:59:44.988Z</time></trkpt><trkpt lat="44.7240111" lon="7.7790101"><ele>269.0</ele><time>2026-04-12T13:59:46.988Z</time></trkpt><trkpt lat="44.7239096" lon="7.7790079"><ele>269.0</ele><time>2026-04-12T13:59:48.988Z</time></trkpt><trkpt lat="44.7238145" lon="7.7790048"><ele>269.0</ele><time>2026-04-12T13:59:50.988Z</time></trkpt><trkpt lat="44.723712" lon="7.7789981"><ele>269.0</ele><time>2026-04-12T13:59:52.988Z</time></trkpt><trkpt lat="44.7236074" lon="7.7789748"><ele>269.0</ele><time>2026-04-12T13:59:54.988Z</time></trkpt><trkpt lat="44.7235079" lon="7.7789588"><ele>269.0</ele><time>2026-04-12T13:59:56.988Z</time></trkpt><trkpt lat="44.7234059" lon="7.7789553"><ele>269.0</ele><time>2026-04-12T13:59:58.988Z</time></trkpt><trkpt lat="44.72331" lon="7.7789382"><ele>269.0</ele><time>2026-04-12T14:00:00.988Z</time></trkpt><trkpt lat="44.7232193" lon="7.7789047"><ele>269.0</ele><time>2026-04-12T14:00:02.988Z</time></trkpt><trkpt lat="44.7231427" lon="7.7788435"><ele>269.0</ele><time>2026-04-12T14:00:04.988Z</time></trkpt><trkpt lat="44.7230882" lon="7.7787479"><ele>269.0</ele><time>2026-04-12T14:00:06.988Z</time></trkpt><trkpt lat="44.7230439" lon="7.7786318"><ele>269.59999999999997</ele><time>2026-04-12T14:00:08.988Z</time></trkpt><trkpt lat="44.7230158" lon="7.7785055"><ele>270.2</ele><time>2026-04-12T14:00:10.988Z</time></trkpt><trkpt lat="44.7229901" lon="7.7783689"><ele>270.79999999999995</ele><time>2026-04-12T14:00:12.988Z</time></trkpt><trkpt lat="44.7229588" lon="7.7782417"><ele>271.4</ele><time>2026-04-12T14:00:14.988Z</time></trkpt><trkpt lat="44.7229307" lon="7.7781135"><ele>272.0</ele><time>2026-04-12T14:00:16.988Z</time></trkpt><trkpt lat="44.7229052" lon="7.7779752"><ele>272.0</ele><time>2026-04-12T14:00:18.988Z</time></trkpt><trkpt lat="44.7228704" lon="7.7778503"><ele>272.0</ele><time>2026-04-12T14:00:20.988Z</time></trkpt><trkpt lat="44.7228379" lon="7.7777234"><ele>272.0</ele><time>2026-04-12T14:00:22.988Z</time></trkpt><trkpt lat="44.7227907" lon="7.7776035"><ele>272.0</ele><time>2026-04-12T14:00:24.988Z</time></trkpt><trkpt lat="44.7227064" lon="7.7775291"><ele>272.0</ele><time>2026-04-12T14:00:26.988Z</time></trkpt><trkpt lat="44.7226124" lon="7.7775309"><ele>272.2</ele><time>2026-04-12T14:00:28.988Z</time></trkpt><trkpt lat="44.7225285" lon="7.7775789"><ele>272.4</ele><time>2026-04-12T14:00:30.988Z</time></trkpt><trkpt lat="44.722439" lon="7.7776391"><ele>272.6</ele><time>2026-04-12T14:00:32.988Z</time></trkpt><trkpt lat="44.7223599" lon="7.7776993"><ele>272.8</ele><time>2026-04-12T14:00:34.988Z</time></trkpt><trkpt lat="44.7222872" lon="7.7777558"><ele>273.0</ele><time>2026-04-12T14:00:36.988Z</time></trkpt><trkpt lat="44.7222029" lon="7.7778196"><ele>273.0</ele><time>2026-04-12T14:00:38.988Z</time></trkpt><trkpt lat="44.7221175" lon="7.7778876"><ele>273.0</ele><time>2026-04-12T14:00:40.988Z</time></trkpt><trkpt lat="44.7220344" lon="7.7779578"><ele>273.0</ele><time>2026-04-12T14:00:42.988Z</time></trkpt><trkpt lat="44.7219342" lon="7.7780155"><ele>273.0</ele><time>2026-04-12T14:00:44.988Z</time></trkpt><trkpt lat="44.7218339" lon="7.7780836"><ele>273.0</ele><time>2026-04-12T14:00:46.988Z</time></trkpt><trkpt lat="44.7217375" lon="7.7781617"><ele>272.5</ele><time>2026-04-12T14:00:48.988Z</time></trkpt><trkpt lat="44.7216296" lon="7.7782316"><ele>272.0</ele><time>2026-04-12T14:00:50.988Z</time></trkpt><trkpt lat="44.7215199" lon="7.7782813"><ele>271.5</ele><time>2026-04-12T14:00:52.988Z</time></trkpt><trkpt lat="44.7214131" lon="7.7783358"><ele>271.0</ele><time>2026-04-12T14:00:54.988Z</time></trkpt><trkpt lat="44.721307" lon="7.7784269"><ele>270.8</ele><time>2026-04-12T14:00:56.988Z</time></trkpt><trkpt lat="44.7212173" lon="7.7785232"><ele>270.6</ele><time>2026-04-12T14:00:58.988Z</time></trkpt><trkpt lat="44.7211382" lon="7.7786314"><ele>270.4</ele><time>2026-04-12T14:01:00.988Z</time></trkpt><trkpt lat="44.721063" lon="7.7787444"><ele>270.2</ele><time>2026-04-12T14:01:02.988Z</time></trkpt><trkpt lat="44.7210086" lon="7.7788846"><ele>270.0</ele><time>2026-04-12T14:01:04.988Z</time></trkpt><trkpt lat="44.7209695" lon="7.7790398"><ele>270.5</ele><time>2026-04-12T14:01:06.988Z</time></trkpt><trkpt lat="44.7209519" lon="7.7792017"><ele>271.0</ele><time>2026-04-12T14:01:08.988Z</time></trkpt><trkpt lat="44.7209575" lon="7.7793603"><ele>271.5</ele><time>2026-04-12T14:01:10.988Z</time></trkpt><trkpt lat="44.7209489" lon="7.7795187"><ele>272.0</ele><time>2026-04-12T14:01:12.988Z</time></trkpt><trkpt lat="44.7209106" lon="7.7796772"><ele>272.0</ele><time>2026-04-12T14:01:14.988Z</time></trkpt><trkpt lat="44.7208344" lon="7.779805"><ele>272.0</ele><time>2026-04-12T14:01:16.988Z</time></trkpt><trkpt lat="44.7207394" lon="7.7799065"><ele>272.0</ele><time>2026-04-12T14:01:18.988Z</time></trkpt><trkpt lat="44.7206431" lon="7.7800076"><ele>272.0</ele><time>2026-04-12T14:01:20.988Z</time></trkpt><trkpt lat="44.7205415" lon="7.7800966"><ele>272.0</ele><time>2026-04-12T14:01:22.988Z</time></trkpt><trkpt lat="44.7204404" lon="7.7801716"><ele>272.0</ele><time>2026-04-12T14:01:24.988Z</time></trkpt><trkpt lat="44.720325" lon="7.7802453"><ele>272.0</ele><time>2026-04-12T14:01:26.988Z</time></trkpt><trkpt lat="44.7202198" lon="7.7803165"><ele>272.0</ele><time>2026-04-12T14:01:28.988Z</time></trkpt><trkpt lat="44.7201208" lon="7.7803869"><ele>271.0</ele><time>2026-04-12T14:01:30.988Z</time></trkpt><trkpt lat="44.7200311" lon="7.7804763"><ele>270.0</ele><time>2026-04-12T14:01:32.988Z</time></trkpt><trkpt lat="44.7199465" lon="7.7805915"><ele>269.0</ele><time>2026-04-12T14:01:34.988Z</time></trkpt><trkpt lat="44.7199" lon="7.7806529"><ele>268.0</ele><time>2026-04-12T14:01:35.988Z</time></trkpt><trkpt lat="44.7198084" lon="7.7807823"><ele>267.0</ele><time>2026-04-12T14:01:37.988Z</time></trkpt><trkpt lat="44.7197714" lon="7.7808658"><ele>267.00000000000006</ele><time>2026-04-12T14:01:38.988Z</time></trkpt><trkpt lat="44.7197422" lon="7.7809566"><ele>267.0</ele><time>2026-04-12T14:01:39.988Z</time></trkpt><trkpt lat="44.7197255" lon="7.7810563"><ele>267.0</ele><time>2026-04-12T14:01:40.988Z</time></trkpt><trkpt lat="44.7197266" lon="7.7811623"><ele>267.0</ele><time>2026-04-12T14:01:41.988Z</time></trkpt><trkpt lat="44.7197323" lon="7.7812668"><ele>267.0</ele><time>2026-04-12T14:01:42.988Z</time></trkpt><trkpt lat="44.7197369" lon="7.7813679"><ele>267.00000000000006</ele><time>2026-04-12T14:01:43.988Z</time></trkpt><trkpt lat="44.7197568" lon="7.7814753"><ele>267.0</ele><time>2026-04-12T14:01:44.988Z</time></trkpt><trkpt lat="44.7197732" lon="7.7815825"><ele>266.7142857142857</ele><time>2026-04-12T14:01:45.988Z</time></trkpt><trkpt lat="44.7197876" lon="7.7816874"><ele>266.42857142857144</ele><time>2026-04-12T14:01:46.988Z</time></trkpt><trkpt lat="44.7197987" lon="7.7817913"><ele>266.1428571428571</ele><time>2026-04-12T14:01:47.988Z</time></trkpt><trkpt lat="44.7198103" lon="7.7818926"><ele>265.8571428571429</ele><time>2026-04-12T14:01:48.988Z</time></trkpt><trkpt lat="44.7198219" lon="7.7819942"><ele>265.57142857142856</ele><time>2026-04-12T14:01:49.988Z</time></trkpt><trkpt lat="44.7198389" lon="7.7820914"><ele>265.2857142857143</ele><time>2026-04-12T14:01:50.988Z</time></trkpt><trkpt lat="44.7198555" lon="7.7821874"><ele>265.0</ele><time>2026-04-12T14:01:51.988Z</time></trkpt><trkpt lat="44.7198718" lon="7.782284"><ele>264.99999999999994</ele><time>2026-04-12T14:01:52.988Z</time></trkpt><trkpt lat="44.7198856" lon="7.7823767"><ele>265.0</ele><time>2026-04-12T14:01:53.988Z</time></trkpt><trkpt lat="44.7199003" lon="7.7824655"><ele>265.0</ele><time>2026-04-12T14:01:54.988Z</time></trkpt><trkpt lat="44.719913" lon="7.7825553"><ele>265.0</ele><time>2026-04-12T14:01:55.988Z</time></trkpt><trkpt lat="44.7199299" lon="7.7826472"><ele>265.0</ele><time>2026-04-12T14:01:56.988Z</time></trkpt><trkpt lat="44.7199453" lon="7.7827369"><ele>264.99999999999994</ele><time>2026-04-12T14:01:57.988Z</time></trkpt><trkpt lat="44.71996" lon="7.7828308"><ele>265.0</ele><time>2026-04-12T14:01:58.988Z</time></trkpt><trkpt lat="44.719975" lon="7.7829247"><ele>264.99999999999994</ele><time>2026-04-12T14:01:59.988Z</time></trkpt><trkpt lat="44.7199921" lon="7.7830188"><ele>265.0</ele><time>2026-04-12T14:02:00.988Z</time></trkpt><trkpt lat="44.7200102" lon="7.7831148"><ele>265.0</ele><time>2026-04-12T14:02:01.988Z</time></trkpt><trkpt lat="44.7200253" lon="7.7832038"><ele>265.0</ele><time>2026-04-12T14:02:02.988Z</time></trkpt><trkpt lat="44.7200407" lon="7.7832954"><ele>265.0</ele><time>2026-04-12T14:02:03.988Z</time></trkpt><trkpt lat="44.7200562" lon="7.7833885"><ele>264.99999999999994</ele><time>2026-04-12T14:02:04.988Z</time></trkpt><trkpt lat="44.7200713" lon="7.7834839"><ele>265.0</ele><time>2026-04-12T14:02:05.988Z</time></trkpt><trkpt lat="44.7200909" lon="7.7835791"><ele>264.85714285714283</ele><time>2026-04-12T14:02:06.988Z</time></trkpt><trkpt lat="44.7201073" lon="7.7836739"><ele>264.7142857142857</ele><time>2026-04-12T14:02:07.988Z</time></trkpt><trkpt lat="44.7201271" lon="7.783767"><ele>264.57142857142856</ele><time>2026-04-12T14:02:08.988Z</time></trkpt><trkpt lat="44.7201433" lon="7.7838569"><ele>264.42857142857144</ele><time>2026-04-12T14:02:09.988Z</time></trkpt><trkpt lat="44.7201557" lon="7.7839546"><ele>264.2857142857143</ele><time>2026-04-12T14:02:10.988Z</time></trkpt><trkpt lat="44.7201698" lon="7.7840418"><ele>264.1428571428571</ele><time>2026-04-12T14:02:11.988Z</time></trkpt><trkpt lat="44.7201856" lon="7.7841318"><ele>264.0</ele><time>2026-04-12T14:02:12.988Z</time></trkpt><trkpt lat="44.7201992" lon="7.7842201"><ele>264.0</ele><time>2026-04-12T14:02:13.988Z</time></trkpt><trkpt lat="44.7202102" lon="7.7843096"><ele>264.0</ele><time>2026-04-12T14:02:14.988Z</time></trkpt><trkpt lat="44.7202372" lon="7.784482"><ele>264.0</ele><time>2026-04-12T14:02:16.988Z</time></trkpt><trkpt lat="44.7202525" lon="7.7845681"><ele>264.0</ele><time>2026-04-12T14:02:17.988Z</time></trkpt><trkpt lat="44.7202666" lon="7.7846553"><ele>264.0</ele><time>2026-04-12T14:02:18.988Z</time></trkpt><trkpt lat="44.7203018" lon="7.7848246"><ele>264.0</ele><time>2026-04-12T14:02:20.988Z</time></trkpt><trkpt lat="44.7203167" lon="7.7849127"><ele>264.1666666666667</ele><time>2026-04-12T14:02:21.988Z</time></trkpt><trkpt lat="44.72034" lon="7.7850834"><ele>264.3333333333333</ele><time>2026-04-12T14:02:23.988Z</time></trkpt><trkpt lat="44.7203552" lon="7.7851709"><ele>264.5</ele><time>2026-04-12T14:02:24.988Z</time></trkpt><trkpt lat="44.7203879" lon="7.7853395"><ele>264.66666666666663</ele><time>2026-04-12T14:02:26.988Z</time></trkpt><trkpt lat="44.7204069" lon="7.7854319"><ele>264.8333333333333</ele><time>2026-04-12T14:02:27.988Z</time></trkpt><trkpt lat="44.7204282" lon="7.7855188"><ele>265.0</ele><time>2026-04-12T14:02:28.988Z</time></trkpt><trkpt lat="44.7204458" lon="7.7856052"><ele>264.99999999999994</ele><time>2026-04-12T14:02:29.988Z</time></trkpt><trkpt lat="44.7204605" lon="7.7856918"><ele>265.0</ele><time>2026-04-12T14:02:30.988Z</time></trkpt><trkpt lat="44.7204755" lon="7.7857781"><ele>265.0</ele><time>2026-04-12T14:02:31.988Z</time></trkpt><trkpt lat="44.7204946" lon="7.7858693"><ele>265.0</ele><time>2026-04-12T14:02:32.988Z</time></trkpt><trkpt lat="44.7205121" lon="7.785956"><ele>265.0</ele><time>2026-04-12T14:02:33.988Z</time></trkpt><trkpt lat="44.7205304" lon="7.7860477"><ele>264.99999999999994</ele><time>2026-04-12T14:02:34.988Z</time></trkpt><trkpt lat="44.7205479" lon="7.7861357"><ele>265.0</ele><time>2026-04-12T14:02:35.988Z</time></trkpt><trkpt lat="44.7205646" lon="7.7862234"><ele>265.0</ele><time>2026-04-12T14:02:36.988Z</time></trkpt><trkpt lat="44.7205859" lon="7.7863104"><ele>265.0</ele><time>2026-04-12T14:02:37.988Z</time></trkpt><trkpt lat="44.7206099" lon="7.7864017"><ele>265.0</ele><time>2026-04-12T14:02:38.988Z</time></trkpt><trkpt lat="44.7206415" lon="7.7865755"><ele>265.0</ele><time>2026-04-12T14:02:40.988Z</time></trkpt><trkpt lat="44.7206555" lon="7.7867462"><ele>265.0</ele><time>2026-04-12T14:02:42.988Z</time></trkpt><trkpt lat="44.7206652" lon="7.786835"><ele>265.0</ele><time>2026-04-12T14:02:43.988Z</time></trkpt><trkpt lat="44.7206738" lon="7.7870109"><ele>265.0</ele><time>2026-04-12T14:02:45.988Z</time></trkpt><trkpt lat="44.7206779" lon="7.7870996"><ele>265.0</ele><time>2026-04-12T14:02:46.988Z</time></trkpt><trkpt lat="44.7206826" lon="7.7871891"><ele>265.0</ele><time>2026-04-12T14:02:47.988Z</time></trkpt><trkpt lat="44.7206799" lon="7.7873637"><ele>265.0</ele><time>2026-04-12T14:02:49.988Z</time></trkpt><trkpt lat="44.7206826" lon="7.7874573"><ele>265.0</ele><time>2026-04-12T14:02:50.988Z</time></trkpt><trkpt lat="44.7206847" lon="7.7876362"><ele>265.0</ele><time>2026-04-12T14:02:52.988Z</time></trkpt><trkpt lat="44.7206871" lon="7.7878137"><ele>265.0</ele><time>2026-04-12T14:02:54.988Z</time></trkpt><trkpt lat="44.7206918" lon="7.7879831"><ele>265.0</ele><time>2026-04-12T14:02:56.988Z</time></trkpt><trkpt lat="44.7206907" lon="7.788148"><ele>265.0</ele><time>2026-04-12T14:02:58.988Z</time></trkpt><trkpt lat="44.7206907" lon="7.7883165"><ele>265.0</ele><time>2026-04-12T14:03:00.988Z</time></trkpt><trkpt lat="44.7206882" lon="7.7884867"><ele>265.0</ele><time>2026-04-12T14:03:02.988Z</time></trkpt><trkpt lat="44.7206895" lon="7.7885794"><ele>265.0</ele><time>2026-04-12T14:03:03.988Z</time></trkpt><trkpt lat="44.7206961" lon="7.7887522"><ele>265.0</ele><time>2026-04-12T14:03:05.988Z</time></trkpt><trkpt lat="44.7206892" lon="7.7889209"><ele>265.0</ele><time>2026-04-12T14:03:07.988Z</time></trkpt><trkpt lat="44.7206593" lon="7.7890863"><ele>265.0</ele><time>2026-04-12T14:03:09.988Z</time></trkpt><trkpt lat="44.7206191" lon="7.7892364"><ele>264.75</ele><time>2026-04-12T14:03:11.988Z</time></trkpt><trkpt lat="44.7205782" lon="7.7893963"><ele>264.5</ele><time>2026-04-12T14:03:13.988Z</time></trkpt><trkpt lat="44.7205321" lon="7.7895529"><ele>264.25</ele><time>2026-04-12T14:03:15.988Z</time></trkpt><trkpt lat="44.7204818" lon="7.78971"><ele>264.0</ele><time>2026-04-12T14:03:17.988Z</time></trkpt><trkpt lat="44.7204372" lon="7.7898673"><ele>264.0</ele><time>2026-04-12T14:03:19.988Z</time></trkpt><trkpt lat="44.7204005" lon="7.7900212"><ele>264.0</ele><time>2026-04-12T14:03:21.988Z</time></trkpt><trkpt lat="44.7203663" lon="7.7901736"><ele>264.0</ele><time>2026-04-12T14:03:23.988Z</time></trkpt><trkpt lat="44.7203382" lon="7.7903338"><ele>264.0</ele><time>2026-04-12T14:03:25.988Z</time></trkpt><trkpt lat="44.7203019" lon="7.7904954"><ele>264.0</ele><time>2026-04-12T14:03:27.988Z</time></trkpt><trkpt lat="44.7202671" lon="7.790653"><ele>264.0</ele><time>2026-04-12T14:03:29.988Z</time></trkpt><trkpt lat="44.7202358" lon="7.7908175"><ele>264.0</ele><time>2026-04-12T14:03:31.988Z</time></trkpt><trkpt lat="44.7202063" lon="7.7909777"><ele>264.0</ele><time>2026-04-12T14:03:33.988Z</time></trkpt><trkpt lat="44.7201813" lon="7.7911303"><ele>264.5</ele><time>2026-04-12T14:03:35.988Z</time></trkpt><trkpt lat="44.7201563" lon="7.7912835"><ele>265.0</ele><time>2026-04-12T14:03:37.988Z</time></trkpt><trkpt lat="44.7201341" lon="7.7914478"><ele>265.5</ele><time>2026-04-12T14:03:39.988Z</time></trkpt><trkpt lat="44.7201149" lon="7.7916062"><ele>266.0</ele><time>2026-04-12T14:03:41.988Z</time></trkpt><trkpt lat="44.720098" lon="7.7917643"><ele>265.8</ele><time>2026-04-12T14:03:43.988Z</time></trkpt><trkpt lat="44.7200835" lon="7.7919247"><ele>265.6</ele><time>2026-04-12T14:03:45.988Z</time></trkpt><trkpt lat="44.7200651" lon="7.7920793"><ele>265.4</ele><time>2026-04-12T14:03:47.988Z</time></trkpt><trkpt lat="44.7200605" lon="7.7921692"><ele>265.2</ele><time>2026-04-12T14:03:48.988Z</time></trkpt><trkpt lat="44.7200534" lon="7.7922577"><ele>265.0</ele><time>2026-04-12T14:03:49.988Z</time></trkpt><trkpt lat="44.7200424" lon="7.7924305"><ele>265.0</ele><time>2026-04-12T14:03:51.988Z</time></trkpt><trkpt lat="44.7200304" lon="7.7925178"><ele>265.0</ele><time>2026-04-12T14:03:52.988Z</time></trkpt><trkpt lat="44.7200223" lon="7.7926069"><ele>265.0</ele><time>2026-04-12T14:03:53.988Z</time></trkpt><trkpt lat="44.7200056" lon="7.7927807"><ele>265.0</ele><time>2026-04-12T14:03:55.988Z</time></trkpt><trkpt lat="44.7199764" lon="7.7929399"><ele>265.0</ele><time>2026-04-12T14:03:57.988Z</time></trkpt><trkpt lat="44.7199341" lon="7.7930968"><ele>265.0</ele><time>2026-04-12T14:03:59.988Z</time></trkpt><trkpt lat="44.719892" lon="7.7932468"><ele>265.0</ele><time>2026-04-12T14:04:01.988Z</time></trkpt><trkpt lat="44.7198518" lon="7.7934055"><ele>265.0</ele><time>2026-04-12T14:04:03.988Z</time></trkpt><trkpt lat="44.7198077" lon="7.7935584"><ele>265.0</ele><time>2026-04-12T14:04:05.988Z</time></trkpt><trkpt lat="44.7197686" lon="7.7937057"><ele>264.75</ele><time>2026-04-12T14:04:07.988Z</time></trkpt><trkpt lat="44.7197345" lon="7.7938567"><ele>264.5</ele><time>2026-04-12T14:04:09.988Z</time></trkpt><trkpt lat="44.7196992" lon="7.794012"><ele>264.25</ele><time>2026-04-12T14:04:11.988Z</time></trkpt><trkpt lat="44.719669" lon="7.7941781"><ele>264.0</ele><time>2026-04-12T14:04:13.988Z</time></trkpt><trkpt lat="44.7196335" lon="7.7943356"><ele>264.5</ele><time>2026-04-12T14:04:15.988Z</time></trkpt><trkpt lat="44.7195968" lon="7.794494"><ele>265.0</ele><time>2026-04-12T14:04:17.988Z</time></trkpt><trkpt lat="44.719562" lon="7.7946597"><ele>265.5</ele><time>2026-04-12T14:04:19.988Z</time></trkpt><trkpt lat="44.7195265" lon="7.794817"><ele>266.0</ele><time>2026-04-12T14:04:21.988Z</time></trkpt><trkpt lat="44.7194883" lon="7.7949743"><ele>266.0</ele><time>2026-04-12T14:04:23.988Z</time></trkpt><trkpt lat="44.7194472" lon="7.795126"><ele>266.0</ele><time>2026-04-12T14:04:25.988Z</time></trkpt><trkpt lat="44.719407" lon="7.7952812"><ele>266.0</ele><time>2026-04-12T14:04:27.988Z</time></trkpt><trkpt lat="44.7193597" lon="7.795434"><ele>266.0</ele><time>2026-04-12T14:04:29.988Z</time></trkpt><trkpt lat="44.719307" lon="7.7955857"><ele>265.8</ele><time>2026-04-12T14:04:31.988Z</time></trkpt><trkpt lat="44.7192581" lon="7.7957281"><ele>265.6</ele><time>2026-04-12T14:04:33.988Z</time></trkpt><trkpt lat="44.7192312" lon="7.7958117"><ele>265.4</ele><time>2026-04-12T14:04:34.988Z</time></trkpt><trkpt lat="44.7191791" lon="7.7959607"><ele>265.2</ele><time>2026-04-12T14:04:36.988Z</time></trkpt><trkpt lat="44.7191289" lon="7.7961077"><ele>265.0</ele><time>2026-04-12T14:04:38.988Z</time></trkpt><trkpt lat="44.7190876" lon="7.7962583"><ele>265.0</ele><time>2026-04-12T14:04:40.988Z</time></trkpt><trkpt lat="44.7190435" lon="7.7964087"><ele>265.0</ele><time>2026-04-12T14:04:42.988Z</time></trkpt><trkpt lat="44.719" lon="7.7965606"><ele>265.0</ele><time>2026-04-12T14:04:44.988Z</time></trkpt><trkpt lat="44.7189841" lon="7.7966476"><ele>265.0</ele><time>2026-04-12T14:04:45.988Z</time></trkpt><trkpt lat="44.7189435" lon="7.7967977"><ele>265.0</ele><time>2026-04-12T14:04:47.988Z</time></trkpt><trkpt lat="44.7189053" lon="7.796953"><ele>265.25</ele><time>2026-04-12T14:04:49.988Z</time></trkpt><trkpt lat="44.7188664" lon="7.7971035"><ele>265.5</ele><time>2026-04-12T14:04:51.988Z</time></trkpt><trkpt lat="44.7188318" lon="7.797262"><ele>265.75</ele><time>2026-04-12T14:04:53.988Z</time></trkpt><trkpt lat="44.7187856" lon="7.7974157"><ele>266.0</ele><time>2026-04-12T14:04:55.988Z</time></trkpt><trkpt lat="44.7187388" lon="7.7975715"><ele>266.25</ele><time>2026-04-12T14:04:57.988Z</time></trkpt><trkpt lat="44.7186971" lon="7.7977238"><ele>266.5</ele><time>2026-04-12T14:04:59.988Z</time></trkpt><trkpt lat="44.7186455" lon="7.7978845"><ele>266.75</ele><time>2026-04-12T14:05:01.988Z</time></trkpt><trkpt lat="44.7185995" lon="7.7980419"><ele>267.0</ele><time>2026-04-12T14:05:03.988Z</time></trkpt><trkpt lat="44.7185357" lon="7.7981908"><ele>267.2</ele><time>2026-04-12T14:05:05.988Z</time></trkpt><trkpt lat="44.7184678" lon="7.7983398"><ele>267.4</ele><time>2026-04-12T14:05:07.988Z</time></trkpt><trkpt lat="44.7184283" lon="7.7984092"><ele>267.6</ele><time>2026-04-12T14:05:08.988Z</time></trkpt><trkpt lat="44.7183601" lon="7.7985546"><ele>267.8</ele><time>2026-04-12T14:05:10.988Z</time></trkpt><trkpt lat="44.7182973" lon="7.7987033"><ele>268.0</ele><time>2026-04-12T14:05:12.988Z</time></trkpt><trkpt lat="44.7182313" lon="7.79885"><ele>267.8333333333333</ele><time>2026-04-12T14:05:14.988Z</time></trkpt><trkpt lat="44.7181975" lon="7.798925"><ele>267.66666666666663</ele><time>2026-04-12T14:05:15.988Z</time></trkpt><trkpt lat="44.7181581" lon="7.7989946"><ele>267.5</ele><time>2026-04-12T14:05:16.988Z</time></trkpt><trkpt lat="44.7180847" lon="7.7991306"><ele>267.3333333333333</ele><time>2026-04-12T14:05:18.988Z</time></trkpt><trkpt lat="44.7180132" lon="7.799274"><ele>267.1666666666667</ele><time>2026-04-12T14:05:20.988Z</time></trkpt><trkpt lat="44.7179709" lon="7.7993424"><ele>267.0</ele><time>2026-04-12T14:05:21.988Z</time></trkpt><trkpt lat="44.7179275" lon="7.7994101"><ele>267.0</ele><time>2026-04-12T14:05:22.988Z</time></trkpt><trkpt lat="44.7178816" lon="7.799472"><ele>267.0</ele><time>2026-04-12T14:05:23.988Z</time></trkpt><trkpt lat="44.7178334" lon="7.7995308"><ele>267.0</ele><time>2026-04-12T14:05:24.988Z</time></trkpt><trkpt lat="44.7177552" lon="7.7996632"><ele>267.0</ele><time>2026-04-12T14:05:26.988Z</time></trkpt><trkpt lat="44.7177129" lon="7.7997301"><ele>267.0</ele><time>2026-04-12T14:05:27.988Z</time></trkpt><trkpt lat="44.7176301" lon="7.7998614"><ele>267.0</ele><time>2026-04-12T14:05:29.988Z</time></trkpt><trkpt lat="44.7175502" lon="7.7999955"><ele>267.0</ele><time>2026-04-12T14:05:31.988Z</time></trkpt><trkpt lat="44.7174767" lon="7.8001314"><ele>267.0</ele><time>2026-04-12T14:05:33.988Z</time></trkpt><trkpt lat="44.7173988" lon="7.8002556"><ele>267.0</ele><time>2026-04-12T14:05:35.988Z</time></trkpt><trkpt lat="44.7173196" lon="7.8003697"><ele>267.0</ele><time>2026-04-12T14:05:37.988Z</time></trkpt><trkpt lat="44.7172487" lon="7.8004727"><ele>267.0</ele><time>2026-04-12T14:05:39.988Z</time></trkpt><trkpt lat="44.7171792" lon="7.8005936"><ele>267.0</ele><time>2026-04-12T14:05:41.988Z</time></trkpt><trkpt lat="44.7171106" lon="7.8007296"><ele>267.0</ele><time>2026-04-12T14:05:43.988Z</time></trkpt><trkpt lat="44.7170581" lon="7.8008746"><ele>267.0</ele><time>2026-04-12T14:05:45.988Z</time></trkpt><trkpt lat="44.717035" lon="7.8009571"><ele>267.0</ele><time>2026-04-12T14:05:46.988Z</time></trkpt><trkpt lat="44.7169858" lon="7.8011114"><ele>267.0</ele><time>2026-04-12T14:05:48.988Z</time></trkpt><trkpt lat="44.7169676" lon="7.8011991"><ele>267.0</ele><time>2026-04-12T14:05:49.988Z</time></trkpt><trkpt lat="44.7169276" lon="7.8013628"><ele>267.0</ele><time>2026-04-12T14:05:51.988Z</time></trkpt><trkpt lat="44.7168984" lon="7.8015279"><ele>267.0</ele><time>2026-04-12T14:05:53.988Z</time></trkpt><trkpt lat="44.7168767" lon="7.8016892"><ele>267.0</ele><time>2026-04-12T14:05:55.988Z</time></trkpt><trkpt lat="44.7168388" lon="7.8018359"><ele>267.4</ele><time>2026-04-12T14:05:57.988Z</time></trkpt><trkpt lat="44.7167935" lon="7.8019774"><ele>267.79999999999995</ele><time>2026-04-12T14:05:59.988Z</time></trkpt><trkpt lat="44.7167538" lon="7.8021152"><ele>268.2</ele><time>2026-04-12T14:06:01.988Z</time></trkpt><trkpt lat="44.7167056" lon="7.8022583"><ele>268.59999999999997</ele><time>2026-04-12T14:06:03.988Z</time></trkpt><trkpt lat="44.7166463" lon="7.8023917"><ele>269.0</ele><time>2026-04-12T14:06:05.988Z</time></trkpt><trkpt lat="44.7165872" lon="7.8025357"><ele>268.5</ele><time>2026-04-12T14:06:07.988Z</time></trkpt><trkpt lat="44.716521" lon="7.8026692"><ele>268.0</ele><time>2026-04-12T14:06:09.988Z</time></trkpt><trkpt lat="44.716465" lon="7.8027951"><ele>267.5</ele><time>2026-04-12T14:06:11.988Z</time></trkpt><trkpt lat="44.7163965" lon="7.8029232"><ele>267.0</ele><time>2026-04-12T14:06:13.988Z</time></trkpt><trkpt lat="44.7163359" lon="7.8030598"><ele>267.0</ele><time>2026-04-12T14:06:15.988Z</time></trkpt><trkpt lat="44.7162841" lon="7.803202"><ele>267.0</ele><time>2026-04-12T14:06:17.988Z</time></trkpt><trkpt lat="44.7162583" lon="7.8033524"><ele>267.0</ele><time>2026-04-12T14:06:19.988Z</time></trkpt><trkpt lat="44.7162498" lon="7.8035023"><ele>267.0</ele><time>2026-04-12T14:06:21.988Z</time></trkpt><trkpt lat="44.7162554" lon="7.8036549"><ele>267.0</ele><time>2026-04-12T14:06:23.988Z</time></trkpt><trkpt lat="44.7162776" lon="7.8038132"><ele>267.0</ele><time>2026-04-12T14:06:25.988Z</time></trkpt><trkpt lat="44.7163075" lon="7.8039665"><ele>267.0</ele><time>2026-04-12T14:06:27.988Z</time></trkpt><trkpt lat="44.7163201" lon="7.8041103"><ele>267.0</ele><time>2026-04-12T14:06:29.988Z</time></trkpt><trkpt lat="44.7163237" lon="7.804257"><ele>267.0</ele><time>2026-04-12T14:06:31.988Z</time></trkpt><trkpt lat="44.7163198" lon="7.8044078"><ele>267.0</ele><time>2026-04-12T14:06:33.988Z</time></trkpt><trkpt lat="44.7163007" lon="7.8045547"><ele>267.0</ele><time>2026-04-12T14:06:35.988Z</time></trkpt><trkpt lat="44.7162716" lon="7.8046993"><ele>267.0</ele><time>2026-04-12T14:06:37.988Z</time></trkpt><trkpt lat="44.7162486" lon="7.8048442"><ele>267.0</ele><time>2026-04-12T14:06:39.988Z</time></trkpt><trkpt lat="44.7162198" lon="7.8049924"><ele>267.0</ele><time>2026-04-12T14:06:41.988Z</time></trkpt><trkpt lat="44.7161935" lon="7.8051282"><ele>267.0</ele><time>2026-04-12T14:06:43.988Z</time></trkpt><trkpt lat="44.7161703" lon="7.8052832"><ele>267.0</ele><time>2026-04-12T14:06:45.988Z</time></trkpt><trkpt lat="44.716154" lon="7.8054366"><ele>267.0</ele><time>2026-04-12T14:06:47.988Z</time></trkpt><trkpt lat="44.7161418" lon="7.8055873"><ele>267.0</ele><time>2026-04-12T14:06:49.988Z</time></trkpt><trkpt lat="44.7161236" lon="7.8057383"><ele>267.0</ele><time>2026-04-12T14:06:51.988Z</time></trkpt><trkpt lat="44.7160932" lon="7.8058908"><ele>267.0</ele><time>2026-04-12T14:06:53.988Z</time></trkpt><trkpt lat="44.7160508" lon="7.8060327"><ele>267.8</ele><time>2026-04-12T14:06:55.988Z</time></trkpt><trkpt lat="44.7160014" lon="7.8061596"><ele>268.6</ele><time>2026-04-12T14:06:57.988Z</time></trkpt><trkpt lat="44.7159411" lon="7.8062976"><ele>269.40000000000003</ele><time>2026-04-12T14:06:59.988Z</time></trkpt><trkpt lat="44.7158722" lon="7.8064172"><ele>270.2</ele><time>2026-04-12T14:07:01.988Z</time></trkpt><trkpt lat="44.7158015" lon="7.8065318"><ele>271.0</ele><time>2026-04-12T14:07:03.988Z</time></trkpt><trkpt lat="44.7157236" lon="7.8066469"><ele>271.0</ele><time>2026-04-12T14:07:05.988Z</time></trkpt><trkpt lat="44.7156492" lon="7.8067632"><ele>271.0</ele><time>2026-04-12T14:07:07.988Z</time></trkpt><trkpt lat="44.7155735" lon="7.8068801"><ele>271.0</ele><time>2026-04-12T14:07:09.988Z</time></trkpt><trkpt lat="44.7154956" lon="7.8069939"><ele>271.0</ele><time>2026-04-12T14:07:11.988Z</time></trkpt><trkpt lat="44.7154248" lon="7.8071072"><ele>271.0</ele><time>2026-04-12T14:07:13.988Z</time></trkpt><trkpt lat="44.7153601" lon="7.8072248"><ele>271.2</ele><time>2026-04-12T14:07:15.988Z</time></trkpt><trkpt lat="44.715292" lon="7.8073483"><ele>271.40000000000003</ele><time>2026-04-12T14:07:17.988Z</time></trkpt><trkpt lat="44.7152263" lon="7.8074764"><ele>271.6</ele><time>2026-04-12T14:07:19.988Z</time></trkpt><trkpt lat="44.7151666" lon="7.8076046"><ele>271.8</ele><time>2026-04-12T14:07:21.988Z</time></trkpt><trkpt lat="44.7150957" lon="7.807715"><ele>272.0</ele><time>2026-04-12T14:07:23.988Z</time></trkpt><trkpt lat="44.7150274" lon="7.8078279"><ele>271.2</ele><time>2026-04-12T14:07:25.988Z</time></trkpt><trkpt lat="44.7149665" lon="7.8079329"><ele>270.4</ele><time>2026-04-12T14:07:27.988Z</time></trkpt><trkpt lat="44.7148861" lon="7.8080283"><ele>269.6</ele><time>2026-04-12T14:07:29.988Z</time></trkpt><trkpt lat="44.7148083" lon="7.8081256"><ele>268.8</ele><time>2026-04-12T14:07:31.988Z</time></trkpt><trkpt lat="44.7147255" lon="7.8082319"><ele>268.0</ele><time>2026-04-12T14:07:33.988Z</time></trkpt><trkpt lat="44.7146661" lon="7.8083532"><ele>268.0</ele><time>2026-04-12T14:07:35.988Z</time></trkpt><trkpt lat="44.7146204" lon="7.8084913"><ele>268.0</ele><time>2026-04-12T14:07:37.988Z</time></trkpt><trkpt lat="44.7145819" lon="7.8086314"><ele>268.0</ele><time>2026-04-12T14:07:39.988Z</time></trkpt><trkpt lat="44.7145613" lon="7.8087771"><ele>268.0</ele><time>2026-04-12T14:07:41.988Z</time></trkpt><trkpt lat="44.7145627" lon="7.8089301"><ele>268.0</ele><time>2026-04-12T14:07:43.988Z</time></trkpt><trkpt lat="44.7145666" lon="7.8090786"><ele>268.0</ele><time>2026-04-12T14:07:45.988Z</time></trkpt><trkpt lat="44.7145813" lon="7.809224"><ele>268.0</ele><time>2026-04-12T14:07:47.988Z</time></trkpt><trkpt lat="44.7145961" lon="7.8093691"><ele>268.0</ele><time>2026-04-12T14:07:49.988Z</time></trkpt><trkpt lat="44.7146163" lon="7.8095166"><ele>268.0</ele><time>2026-04-12T14:07:51.988Z</time></trkpt><trkpt lat="44.7146406" lon="7.8096607"><ele>268.0</ele><time>2026-04-12T14:07:53.988Z</time></trkpt><trkpt lat="44.7146674" lon="7.8098009"><ele>268.0</ele><time>2026-04-12T14:07:55.988Z</time></trkpt><trkpt lat="44.7147045" lon="7.8099359"><ele>268.0</ele><time>2026-04-12T14:07:57.988Z</time></trkpt><trkpt lat="44.714748" lon="7.8100767"><ele>268.0</ele><time>2026-04-12T14:07:59.988Z</time></trkpt><trkpt lat="44.7147906" lon="7.8102038"><ele>268.0</ele><time>2026-04-12T14:08:01.988Z</time></trkpt><trkpt lat="44.7148352" lon="7.8103219"><ele>268.0</ele><time>2026-04-12T14:08:03.988Z</time></trkpt><trkpt lat="44.7148714" lon="7.8104339"><ele>268.2</ele><time>2026-04-12T14:08:05.988Z</time></trkpt><trkpt lat="44.7148892" lon="7.8105465"><ele>268.4</ele><time>2026-04-12T14:08:07.988Z</time></trkpt><trkpt lat="44.7148771" lon="7.8106591"><ele>268.59999999999997</ele><time>2026-04-12T14:08:09.988Z</time></trkpt><trkpt lat="44.7148289" lon="7.8107684"><ele>268.8</ele><time>2026-04-12T14:08:11.988Z</time></trkpt><trkpt lat="44.7147684" lon="7.810887"><ele>269.0</ele><time>2026-04-12T14:08:13.988Z</time></trkpt><trkpt lat="44.7147074" lon="7.8110075"><ele>269.0</ele><time>2026-04-12T14:08:15.988Z</time></trkpt><trkpt lat="44.7146467" lon="7.8111251"><ele>269.0</ele><time>2026-04-12T14:08:17.988Z</time></trkpt><trkpt lat="44.7145824" lon="7.8112571"><ele>269.0</ele><time>2026-04-12T14:08:19.988Z</time></trkpt><trkpt lat="44.714515" lon="7.8113958"><ele>269.0</ele><time>2026-04-12T14:08:21.988Z</time></trkpt><trkpt lat="44.714447" lon="7.8115251"><ele>269.0</ele><time>2026-04-12T14:08:23.988Z</time></trkpt><trkpt lat="44.7143799" lon="7.8116562"><ele>269.0</ele><time>2026-04-12T14:08:25.988Z</time></trkpt><trkpt lat="44.7143094" lon="7.8117883"><ele>269.0</ele><time>2026-04-12T14:08:27.988Z</time></trkpt><trkpt lat="44.7142426" lon="7.8119231"><ele>269.0</ele><time>2026-04-12T14:08:29.988Z</time></trkpt><trkpt lat="44.7141742" lon="7.812058"><ele>269.25</ele><time>2026-04-12T14:08:31.988Z</time></trkpt><trkpt lat="44.7141031" lon="7.8121951"><ele>269.5</ele><time>2026-04-12T14:08:33.988Z</time></trkpt><trkpt lat="44.7140329" lon="7.8123304"><ele>269.75</ele><time>2026-04-12T14:08:35.988Z</time></trkpt><trkpt lat="44.7139633" lon="7.8124651"><ele>270.0</ele><time>2026-04-12T14:08:37.988Z</time></trkpt><trkpt lat="44.7138951" lon="7.8126026"><ele>269.75</ele><time>2026-04-12T14:08:39.988Z</time></trkpt><trkpt lat="44.7138321" lon="7.8127416"><ele>269.5</ele><time>2026-04-12T14:08:41.988Z</time></trkpt><trkpt lat="44.7137649" lon="7.8128791"><ele>269.25</ele><time>2026-04-12T14:08:43.988Z</time></trkpt><trkpt lat="44.7136946" lon="7.8130142"><ele>269.0</ele><time>2026-04-12T14:08:45.988Z</time></trkpt><trkpt lat="44.7136313" lon="7.8131623"><ele>269.25</ele><time>2026-04-12T14:08:47.988Z</time></trkpt><trkpt lat="44.7135622" lon="7.8132924"><ele>269.5</ele><time>2026-04-12T14:08:49.988Z</time></trkpt><trkpt lat="44.713499" lon="7.8134366"><ele>269.75</ele><time>2026-04-12T14:08:51.988Z</time></trkpt><trkpt lat="44.7134298" lon="7.8135786"><ele>270.0</ele><time>2026-04-12T14:08:53.988Z</time></trkpt><trkpt lat="44.7133622" lon="7.8137198"><ele>270.25</ele><time>2026-04-12T14:08:55.988Z</time></trkpt><trkpt lat="44.7133035" lon="7.8138582"><ele>270.5</ele><time>2026-04-12T14:08:57.988Z</time></trkpt><trkpt lat="44.7132354" lon="7.8139954"><ele>270.75</ele><time>2026-04-12T14:08:59.988Z</time></trkpt><trkpt lat="44.7131628" lon="7.8141371"><ele>271.0</ele><time>2026-04-12T14:09:01.988Z</time></trkpt><trkpt lat="44.7130852" lon="7.8142648"><ele>270.6</ele><time>2026-04-12T14:09:03.988Z</time></trkpt><trkpt lat="44.713012" lon="7.8144075"><ele>270.20000000000005</ele><time>2026-04-12T14:09:05.988Z</time></trkpt><trkpt lat="44.712974" lon="7.8144809"><ele>269.79999999999995</ele><time>2026-04-12T14:09:06.988Z</time></trkpt><trkpt lat="44.7129036" lon="7.8146278"><ele>269.4</ele><time>2026-04-12T14:09:08.988Z</time></trkpt><trkpt lat="44.7128341" lon="7.8147723"><ele>269.0</ele><time>2026-04-12T14:09:10.988Z</time></trkpt><trkpt lat="44.7127623" lon="7.8149082"><ele>269.25</ele><time>2026-04-12T14:09:12.988Z</time></trkpt><trkpt lat="44.7126923" lon="7.8150447"><ele>269.5</ele><time>2026-04-12T14:09:14.988Z</time></trkpt><trkpt lat="44.7126253" lon="7.8151817"><ele>269.75</ele><time>2026-04-12T14:09:16.988Z</time></trkpt><trkpt lat="44.7125571" lon="7.8153175"><ele>270.0</ele><time>2026-04-12T14:09:18.988Z</time></trkpt><trkpt lat="44.7124887" lon="7.815457"><ele>270.0</ele><time>2026-04-12T14:09:20.988Z</time></trkpt><trkpt lat="44.7124569" lon="7.8155344"><ele>270.0</ele><time>2026-04-12T14:09:21.988Z</time></trkpt><trkpt lat="44.7123927" lon="7.8156665"><ele>270.0</ele><time>2026-04-12T14:09:23.989Z</time></trkpt><trkpt lat="44.7123252" lon="7.815795"><ele>270.0</ele><time>2026-04-12T14:09:25.988Z</time></trkpt><trkpt lat="44.712294" lon="7.8158721"><ele>270.0</ele><time>2026-04-12T14:09:26.988Z</time></trkpt><trkpt lat="44.7122293" lon="7.8160088"><ele>270.0</ele><time>2026-04-12T14:09:28.988Z</time></trkpt><trkpt lat="44.7121617" lon="7.8161558"><ele>270.0</ele><time>2026-04-12T14:09:30.988Z</time></trkpt><trkpt lat="44.712096" lon="7.8162995"><ele>270.0</ele><time>2026-04-12T14:09:32.988Z</time></trkpt><trkpt lat="44.712026" lon="7.8164311"><ele>270.0</ele><time>2026-04-12T14:09:34.988Z</time></trkpt><trkpt lat="44.7119577" lon="7.8165718"><ele>270.25</ele><time>2026-04-12T14:09:36.988Z</time></trkpt><trkpt lat="44.711895" lon="7.8167054"><ele>270.5</ele><time>2026-04-12T14:09:38.988Z</time></trkpt><trkpt lat="44.7118206" lon="7.8168403"><ele>270.75</ele><time>2026-04-12T14:09:40.988Z</time></trkpt><trkpt lat="44.7117557" lon="7.8169804"><ele>271.0</ele><time>2026-04-12T14:09:42.988Z</time></trkpt><trkpt lat="44.7116853" lon="7.8171144"><ele>271.0</ele><time>2026-04-12T14:09:44.988Z</time></trkpt><trkpt lat="44.7116214" lon="7.8172514"><ele>271.0</ele><time>2026-04-12T14:09:46.988Z</time></trkpt><trkpt lat="44.7115537" lon="7.8173838"><ele>271.0</ele><time>2026-04-12T14:09:48.988Z</time></trkpt><trkpt lat="44.711487" lon="7.8175209"><ele>271.0</ele><time>2026-04-12T14:09:50.988Z</time></trkpt><trkpt lat="44.7114171" lon="7.8176626"><ele>271.0</ele><time>2026-04-12T14:09:52.988Z</time></trkpt><trkpt lat="44.7113499" lon="7.8178033"><ele>271.0</ele><time>2026-04-12T14:09:54.988Z</time></trkpt><trkpt lat="44.7112775" lon="7.8179461"><ele>271.0</ele><time>2026-04-12T14:09:56.988Z</time></trkpt><trkpt lat="44.7112111" lon="7.8180949"><ele>271.0</ele><time>2026-04-12T14:09:58.988Z</time></trkpt><trkpt lat="44.7111434" lon="7.8182366"><ele>270.5</ele><time>2026-04-12T14:10:00.988Z</time></trkpt><trkpt lat="44.7110732" lon="7.8183806"><ele>270.0</ele><time>2026-04-12T14:10:02.988Z</time></trkpt><trkpt lat="44.7110029" lon="7.8185188"><ele>269.5</ele><time>2026-04-12T14:10:04.988Z</time></trkpt><trkpt lat="44.7109365" lon="7.8186602"><ele>269.0</ele><time>2026-04-12T14:10:06.988Z</time></trkpt><trkpt lat="44.7108682" lon="7.8188046"><ele>269.0</ele><time>2026-04-12T14:10:08.988Z</time></trkpt><trkpt lat="44.710796" lon="7.818947"><ele>269.0</ele><time>2026-04-12T14:10:10.988Z</time></trkpt><trkpt lat="44.7107229" lon="7.8190909"><ele>269.0</ele><time>2026-04-12T14:10:12.988Z</time></trkpt><trkpt lat="44.7106547" lon="7.8192343"><ele>269.0</ele><time>2026-04-12T14:10:14.988Z</time></trkpt><trkpt lat="44.7105843" lon="7.8193772"><ele>269.5</ele><time>2026-04-12T14:10:16.988Z</time></trkpt><trkpt lat="44.7105138" lon="7.8195151"><ele>270.0</ele><time>2026-04-12T14:10:18.988Z</time></trkpt><trkpt lat="44.7104428" lon="7.8196544"><ele>270.5</ele><time>2026-04-12T14:10:20.988Z</time></trkpt><trkpt lat="44.7103717" lon="7.8197916"><ele>271.0</ele><time>2026-04-12T14:10:22.988Z</time></trkpt><trkpt lat="44.7103002" lon="7.8199367"><ele>271.0</ele><time>2026-04-12T14:10:24.988Z</time></trkpt><trkpt lat="44.7102338" lon="7.8200755"><ele>271.0</ele><time>2026-04-12T14:10:26.988Z</time></trkpt><trkpt lat="44.7101691" lon="7.8202187"><ele>271.0</ele><time>2026-04-12T14:10:28.988Z</time></trkpt><trkpt lat="44.7101109" lon="7.8203749"><ele>271.0</ele><time>2026-04-12T14:10:30.988Z</time></trkpt><trkpt lat="44.7100647" lon="7.820541"><ele>271.0</ele><time>2026-04-12T14:10:32.988Z</time></trkpt><trkpt lat="44.7100444" lon="7.8206302"><ele>271.0</ele><time>2026-04-12T14:10:33.988Z</time></trkpt><trkpt lat="44.7100032" lon="7.8207951"><ele>271.0</ele><time>2026-04-12T14:10:35.988Z</time></trkpt><trkpt lat="44.7099604" lon="7.8209612"><ele>271.0</ele><time>2026-04-12T14:10:37.988Z</time></trkpt><trkpt lat="44.7099202" lon="7.8211308"><ele>271.0</ele><time>2026-04-12T14:10:39.988Z</time></trkpt><trkpt lat="44.7098751" lon="7.821294"><ele>270.8</ele><time>2026-04-12T14:10:41.988Z</time></trkpt><trkpt lat="44.7098547" lon="7.8213807"><ele>270.6</ele><time>2026-04-12T14:10:42.988Z</time></trkpt><trkpt lat="44.7098333" lon="7.8214683"><ele>270.4</ele><time>2026-04-12T14:10:43.988Z</time></trkpt><trkpt lat="44.709792" lon="7.8216375"><ele>270.2</ele><time>2026-04-12T14:10:45.988Z</time></trkpt><trkpt lat="44.7097558" lon="7.8218126"><ele>270.0</ele><time>2026-04-12T14:10:47.988Z</time></trkpt><trkpt lat="44.7097341" lon="7.8218969"><ele>270.0</ele><time>2026-04-12T14:10:48.988Z</time></trkpt><trkpt lat="44.709691" lon="7.8220605"><ele>270.0</ele><time>2026-04-12T14:10:50.988Z</time></trkpt><trkpt lat="44.7096484" lon="7.8222239"><ele>270.0</ele><time>2026-04-12T14:10:52.988Z</time></trkpt><trkpt lat="44.709632" lon="7.8223096"><ele>270.0</ele><time>2026-04-12T14:10:53.988Z</time></trkpt><trkpt lat="44.7096084" lon="7.8223939"><ele>270.0</ele><time>2026-04-12T14:10:54.988Z</time></trkpt><trkpt lat="44.7095862" lon="7.8224776"><ele>270.0</ele><time>2026-04-12T14:10:55.988Z</time></trkpt><trkpt lat="44.7095644" lon="7.8225695"><ele>269.8333333333333</ele><time>2026-04-12T14:10:56.988Z</time></trkpt><trkpt lat="44.7095431" lon="7.8226578"><ele>269.6666666666667</ele><time>2026-04-12T14:10:57.988Z</time></trkpt><trkpt lat="44.7095249" lon="7.8227438"><ele>269.5</ele><time>2026-04-12T14:10:58.988Z</time></trkpt><trkpt lat="44.7094826" lon="7.8229077"><ele>269.33333333333337</ele><time>2026-04-12T14:11:00.988Z</time></trkpt><trkpt lat="44.7094587" lon="7.8229956"><ele>269.1666666666667</ele><time>2026-04-12T14:11:01.988Z</time></trkpt><trkpt lat="44.7094422" lon="7.8230825"><ele>269.0</ele><time>2026-04-12T14:11:02.988Z</time></trkpt><trkpt lat="44.7094062" lon="7.8232514"><ele>269.4</ele><time>2026-04-12T14:11:04.988Z</time></trkpt><trkpt lat="44.7093822" lon="7.8233336"><ele>269.79999999999995</ele><time>2026-04-12T14:11:05.988Z</time></trkpt><trkpt lat="44.7093406" lon="7.8234976"><ele>270.20000000000005</ele><time>2026-04-12T14:11:07.988Z</time></trkpt><trkpt lat="44.7092995" lon="7.8236652"><ele>270.6</ele><time>2026-04-12T14:11:09.988Z</time></trkpt><trkpt lat="44.7092598" lon="7.823832"><ele>271.0</ele><time>2026-04-12T14:11:11.988Z</time></trkpt><trkpt lat="44.7092178" lon="7.8239953"><ele>271.2</ele><time>2026-04-12T14:11:13.988Z</time></trkpt><trkpt lat="44.7091974" lon="7.8240808"><ele>271.40000000000003</ele><time>2026-04-12T14:11:14.988Z</time></trkpt><trkpt lat="44.7091535" lon="7.8242449"><ele>271.6</ele><time>2026-04-12T14:11:16.988Z</time></trkpt><trkpt lat="44.7091103" lon="7.8244067"><ele>271.8</ele><time>2026-04-12T14:11:18.988Z</time></trkpt><trkpt lat="44.7090737" lon="7.8245654"><ele>272.0</ele><time>2026-04-12T14:11:20.988Z</time></trkpt><trkpt lat="44.7090401" lon="7.8247215"><ele>272.0</ele><time>2026-04-12T14:11:22.988Z</time></trkpt><trkpt lat="44.7089984" lon="7.8248692"><ele>272.0</ele><time>2026-04-12T14:11:24.988Z</time></trkpt><trkpt lat="44.7089591" lon="7.8250167"><ele>272.0</ele><time>2026-04-12T14:11:26.988Z</time></trkpt><trkpt lat="44.708919" lon="7.8251674"><ele>272.0</ele><time>2026-04-12T14:11:28.988Z</time></trkpt><trkpt lat="44.70888" lon="7.8253254"><ele>271.75</ele><time>2026-04-12T14:11:30.988Z</time></trkpt><trkpt lat="44.708844" lon="7.8254805"><ele>271.5</ele><time>2026-04-12T14:11:32.988Z</time></trkpt><trkpt lat="44.7088061" lon="7.8256394"><ele>271.25</ele><time>2026-04-12T14:11:34.988Z</time></trkpt><trkpt lat="44.7087652" lon="7.825801"><ele>271.0</ele><time>2026-04-12T14:11:36.988Z</time></trkpt><trkpt lat="44.7087265" lon="7.8259641"><ele>271.2</ele><time>2026-04-12T14:11:38.988Z</time></trkpt><trkpt lat="44.708685" lon="7.8261189"><ele>271.40000000000003</ele><time>2026-04-12T14:11:40.988Z</time></trkpt><trkpt lat="44.7086448" lon="7.8262829"><ele>271.6</ele><time>2026-04-12T14:11:42.988Z</time></trkpt><trkpt lat="44.7086025" lon="7.8264458"><ele>271.8</ele><time>2026-04-12T14:11:44.988Z</time></trkpt><trkpt lat="44.7085816" lon="7.8265307"><ele>272.0</ele><time>2026-04-12T14:11:45.988Z</time></trkpt><trkpt lat="44.7085395" lon="7.826695"><ele>272.1666666666667</ele><time>2026-04-12T14:11:47.988Z</time></trkpt><trkpt lat="44.7085179" lon="7.8267811"><ele>272.33333333333337</ele><time>2026-04-12T14:11:48.988Z</time></trkpt><trkpt lat="44.7084773" lon="7.8269495"><ele>272.5</ele><time>2026-04-12T14:11:50.988Z</time></trkpt><trkpt lat="44.7084359" lon="7.8271179"><ele>272.6666666666667</ele><time>2026-04-12T14:11:52.988Z</time></trkpt><trkpt lat="44.708414" lon="7.8272019"><ele>272.8333333333333</ele><time>2026-04-12T14:11:53.988Z</time></trkpt><trkpt lat="44.7083922" lon="7.8272864"><ele>273.0</ele><time>2026-04-12T14:11:54.989Z</time></trkpt><trkpt lat="44.7083513" lon="7.8274545"><ele>273.0</ele><time>2026-04-12T14:11:56.988Z</time></trkpt><trkpt lat="44.7083105" lon="7.8276202"><ele>273.0</ele><time>2026-04-12T14:11:58.988Z</time></trkpt><trkpt lat="44.708291" lon="7.827707"><ele>273.0</ele><time>2026-04-12T14:11:59.988Z</time></trkpt><trkpt lat="44.7082514" lon="7.8278639"><ele>273.0</ele><time>2026-04-12T14:12:01.988Z</time></trkpt><trkpt lat="44.7082153" lon="7.8280183"><ele>273.0</ele><time>2026-04-12T14:12:03.988Z</time></trkpt><trkpt lat="44.7081778" lon="7.8281657"><ele>273.0</ele><time>2026-04-12T14:12:05.988Z</time></trkpt><trkpt lat="44.7081425" lon="7.82832"><ele>273.0</ele><time>2026-04-12T14:12:07.988Z</time></trkpt><trkpt lat="44.7081052" lon="7.8284683"><ele>273.0</ele><time>2026-04-12T14:12:09.988Z</time></trkpt><trkpt lat="44.7080658" lon="7.8286329"><ele>273.0</ele><time>2026-04-12T14:12:11.988Z</time></trkpt><trkpt lat="44.7080282" lon="7.8287895"><ele>273.0</ele><time>2026-04-12T14:12:13.988Z</time></trkpt><trkpt lat="44.7079887" lon="7.8289444"><ele>273.0</ele><time>2026-04-12T14:12:15.988Z</time></trkpt><trkpt lat="44.7079476" lon="7.8291048"><ele>273.0</ele><time>2026-04-12T14:12:17.988Z</time></trkpt><trkpt lat="44.7079131" lon="7.8292649"><ele>273.0</ele><time>2026-04-12T14:12:19.988Z</time></trkpt><trkpt lat="44.7078808" lon="7.8294181"><ele>272.8</ele><time>2026-04-12T14:12:21.988Z</time></trkpt><trkpt lat="44.7078404" lon="7.8295816"><ele>272.6</ele><time>2026-04-12T14:12:23.988Z</time></trkpt><trkpt lat="44.7077994" lon="7.829734"><ele>272.4</ele><time>2026-04-12T14:12:25.988Z</time></trkpt><trkpt lat="44.7077729" lon="7.8298144"><ele>272.2</ele><time>2026-04-12T14:12:26.988Z</time></trkpt><trkpt lat="44.7077292" lon="7.8299764"><ele>272.0</ele><time>2026-04-12T14:12:28.988Z</time></trkpt><trkpt lat="44.7077078" lon="7.8300607"><ele>273.2</ele><time>2026-04-12T14:12:29.988Z</time></trkpt><trkpt lat="44.7076606" lon="7.8302199"><ele>274.4</ele><time>2026-04-12T14:12:31.988Z</time></trkpt><trkpt lat="44.7076395" lon="7.8303046"><ele>275.6</ele><time>2026-04-12T14:12:32.988Z</time></trkpt><trkpt lat="44.7075978" lon="7.8304727"><ele>276.8</ele><time>2026-04-12T14:12:34.988Z</time></trkpt><trkpt lat="44.7075582" lon="7.8306347"><ele>278.0</ele><time>2026-04-12T14:12:36.988Z</time></trkpt><trkpt lat="44.7075225" lon="7.8307928"><ele>278.0</ele><time>2026-04-12T14:12:38.988Z</time></trkpt><trkpt lat="44.7074906" lon="7.8309262"><ele>278.0</ele><time>2026-04-12T14:12:40.988Z</time></trkpt><trkpt lat="44.7074597" lon="7.8310712"><ele>278.0</ele><time>2026-04-12T14:12:42.988Z</time></trkpt><trkpt lat="44.7074279" lon="7.8312171"><ele>278.0</ele><time>2026-04-12T14:12:44.988Z</time></trkpt><trkpt lat="44.7073931" lon="7.8313562"><ele>278.0</ele><time>2026-04-12T14:12:46.988Z</time></trkpt><trkpt lat="44.7073586" lon="7.8314867"><ele>278.0</ele><time>2026-04-12T14:12:48.988Z</time></trkpt><trkpt lat="44.7073306" lon="7.8316063"><ele>278.0</ele><time>2026-04-12T14:12:50.988Z</time></trkpt><trkpt lat="44.7073294" lon="7.8317104"><ele>278.0</ele><time>2026-04-12T14:12:53.988Z</time></trkpt><trkpt lat="44.7074048" lon="7.8316983"><ele>278.0</ele><time>2026-04-12T14:12:56.988Z</time></trkpt><trkpt lat="44.7074654" lon="7.8316523"><ele>278.0</ele><time>2026-04-12T14:12:58.988Z</time></trkpt><trkpt lat="44.7075429" lon="7.8316023"><ele>278.0</ele><time>2026-04-12T14:13:00.988Z</time></trkpt><trkpt lat="44.7076309" lon="7.8315525"><ele>278.0</ele><time>2026-04-12T14:13:02.988Z</time></trkpt><trkpt lat="44.7077213" lon="7.831561"><ele>278.0</ele><time>2026-04-12T14:13:04.988Z</time></trkpt><trkpt lat="44.7078153" lon="7.8316161"><ele>278.0</ele><time>2026-04-12T14:13:06.988Z</time></trkpt><trkpt lat="44.7079053" lon="7.8317042"><ele>278.0</ele><time>2026-04-12T14:13:08.988Z</time></trkpt><trkpt lat="44.7079913" lon="7.8317967"><ele>278.0</ele><time>2026-04-12T14:13:10.988Z</time></trkpt><trkpt lat="44.7080727" lon="7.8318736"><ele>278.4</ele><time>2026-04-12T14:13:12.988Z</time></trkpt><trkpt lat="44.7081618" lon="7.8319211"><ele>278.8</ele><time>2026-04-12T14:13:14.988Z</time></trkpt><trkpt lat="44.7082576" lon="7.8319416"><ele>279.2</ele><time>2026-04-12T14:13:16.988Z</time></trkpt><trkpt lat="44.7083364" lon="7.8319966"><ele>279.6</ele><time>2026-04-12T14:13:18.988Z</time></trkpt><trkpt lat="44.7084088" lon="7.8320694"><ele>280.0</ele><time>2026-04-12T14:13:20.988Z</time></trkpt><trkpt lat="44.7084845" lon="7.8321442"><ele>280.0</ele><time>2026-04-12T14:13:22.988Z</time></trkpt><trkpt lat="44.7085636" lon="7.8321974"><ele>280.0</ele><time>2026-04-12T14:13:24.988Z</time></trkpt><trkpt lat="44.7086465" lon="7.8322416"><ele>280.0</ele><time>2026-04-12T14:13:26.988Z</time></trkpt><trkpt lat="44.7087167" lon="7.8323026"><ele>280.0</ele><time>2026-04-12T14:13:28.988Z</time></trkpt><trkpt lat="44.708779" lon="7.8323745"><ele>280.0</ele><time>2026-04-12T14:13:30.988Z</time></trkpt><trkpt lat="44.7088482" lon="7.8324445"><ele>280.0</ele><time>2026-04-12T14:13:32.988Z</time></trkpt><trkpt lat="44.708926" lon="7.8324934"><ele>280.3333333333333</ele><time>2026-04-12T14:13:34.988Z</time></trkpt><trkpt lat="44.7089986" lon="7.8325647"><ele>280.66666666666663</ele><time>2026-04-12T14:13:36.988Z</time></trkpt><trkpt lat="44.709071" lon="7.8326214"><ele>281.0</ele><time>2026-04-12T14:13:38.988Z</time></trkpt><trkpt lat="44.7091506" lon="7.8326778"><ele>281.3333333333333</ele><time>2026-04-12T14:13:40.988Z</time></trkpt><trkpt lat="44.7092349" lon="7.832708"><ele>281.6666666666667</ele><time>2026-04-12T14:13:42.988Z</time></trkpt><trkpt lat="44.7093211" lon="7.8327465"><ele>282.0</ele><time>2026-04-12T14:13:44.988Z</time></trkpt><trkpt lat="44.7094082" lon="7.8327612"><ele>281.6666666666667</ele><time>2026-04-12T14:13:46.988Z</time></trkpt><trkpt lat="44.7094897" lon="7.8327832"><ele>281.3333333333333</ele><time>2026-04-12T14:13:48.988Z</time></trkpt><trkpt lat="44.7095614" lon="7.8328371"><ele>281.0</ele><time>2026-04-12T14:13:50.988Z</time></trkpt><trkpt lat="44.7096314" lon="7.8329077"><ele>280.66666666666663</ele><time>2026-04-12T14:13:52.988Z</time></trkpt><trkpt lat="44.7097107" lon="7.8329384"><ele>280.3333333333333</ele><time>2026-04-12T14:13:54.988Z</time></trkpt><trkpt lat="44.7097859" lon="7.8329718"><ele>280.0</ele><time>2026-04-12T14:13:56.988Z</time></trkpt><trkpt lat="44.7098559" lon="7.8330271"><ele>280.0</ele><time>2026-04-12T14:13:58.988Z</time></trkpt><trkpt lat="44.7099339" lon="7.8330525"><ele>280.0</ele><time>2026-04-12T14:14:00.988Z</time></trkpt><trkpt lat="44.7099981" lon="7.8330606"><ele>280.0</ele><time>2026-04-12T14:14:03.988Z</time></trkpt><trkpt lat="44.7100945" lon="7.83305"><ele>280.0</ele><time>2026-04-12T14:14:06.988Z</time></trkpt><trkpt lat="44.7101592" lon="7.8330526"><ele>280.0</ele><time>2026-04-12T14:14:08.988Z</time></trkpt><trkpt lat="44.7102437" lon="7.8330805"><ele>280.0</ele><time>2026-04-12T14:14:11.988Z</time></trkpt><trkpt lat="44.7103098" lon="7.8331199"><ele>280.5</ele><time>2026-04-12T14:14:14.989Z</time></trkpt><trkpt lat="44.7103982" lon="7.8330979"><ele>281.0</ele><time>2026-04-12T14:14:17.988Z</time></trkpt><trkpt lat="44.7104722" lon="7.8330382"><ele>281.5</ele><time>2026-04-12T14:14:20.988Z</time></trkpt><trkpt lat="44.71054" lon="7.8329853"><ele>282.0</ele><time>2026-04-12T14:14:23.988Z</time></trkpt><trkpt lat="44.7105922" lon="7.8329317"><ele>282.5</ele><time>2026-04-12T14:14:25.988Z</time></trkpt><trkpt lat="44.7106482" lon="7.8328511"><ele>283.0</ele><time>2026-04-12T14:14:27.988Z</time></trkpt><trkpt lat="44.7107207" lon="7.832743"><ele>283.0</ele><time>2026-04-12T14:14:29.988Z</time></trkpt><trkpt lat="44.7108118" lon="7.8326486"><ele>283.0</ele><time>2026-04-12T14:14:31.988Z</time></trkpt><trkpt lat="44.7109088" lon="7.8325672"><ele>283.0</ele><time>2026-04-12T14:14:33.988Z</time></trkpt><trkpt lat="44.7109935" lon="7.8324676"><ele>283.0</ele><time>2026-04-12T14:14:35.988Z</time></trkpt><trkpt lat="44.7110887" lon="7.8323742"><ele>282.0</ele><time>2026-04-12T14:14:37.988Z</time></trkpt><trkpt lat="44.711182" lon="7.8322763"><ele>281.0</ele><time>2026-04-12T14:14:39.988Z</time></trkpt><trkpt lat="44.7112783" lon="7.8321746"><ele>280.0</ele><time>2026-04-12T14:14:41.988Z</time></trkpt><trkpt lat="44.711377" lon="7.8320767"><ele>279.0</ele><time>2026-04-12T14:14:43.988Z</time></trkpt><trkpt lat="44.7114739" lon="7.8319722"><ele>279.0</ele><time>2026-04-12T14:14:45.988Z</time></trkpt><trkpt lat="44.7115722" lon="7.8318666"><ele>279.0</ele><time>2026-04-12T14:14:47.988Z</time></trkpt><trkpt lat="44.7116741" lon="7.8317649"><ele>279.0</ele><time>2026-04-12T14:14:49.988Z</time></trkpt><trkpt lat="44.7117723" lon="7.8316638"><ele>279.0</ele><time>2026-04-12T14:14:51.988Z</time></trkpt><trkpt lat="44.7118262" lon="7.8316109"><ele>279.0</ele><time>2026-04-12T14:14:52.988Z</time></trkpt><trkpt lat="44.7119279" lon="7.8315146"><ele>278.0</ele><time>2026-04-12T14:14:54.988Z</time></trkpt><trkpt lat="44.7119792" lon="7.8314597"><ele>277.0</ele><time>2026-04-12T14:14:55.988Z</time></trkpt><trkpt lat="44.7120851" lon="7.8313751"><ele>276.0</ele><time>2026-04-12T14:14:57.988Z</time></trkpt><trkpt lat="44.7121845" lon="7.831293"><ele>275.0</ele><time>2026-04-12T14:14:59.988Z</time></trkpt><trkpt lat="44.7122806" lon="7.8312115"><ele>274.0</ele><time>2026-04-12T14:15:01.988Z</time></trkpt><trkpt lat="44.7123709" lon="7.8311181"><ele>274.0</ele><time>2026-04-12T14:15:03.988Z</time></trkpt><trkpt lat="44.7124214" lon="7.8310646"><ele>274.0</ele><time>2026-04-12T14:15:04.988Z</time></trkpt><trkpt lat="44.7124725" lon="7.8310127"><ele>274.0</ele><time>2026-04-12T14:15:05.988Z</time></trkpt><trkpt lat="44.7125239" lon="7.8309587"><ele>274.0</ele><time>2026-04-12T14:15:06.988Z</time></trkpt><trkpt lat="44.7126243" lon="7.8308517"><ele>274.0</ele><time>2026-04-12T14:15:08.988Z</time></trkpt><trkpt lat="44.7126767" lon="7.8307899"><ele>274.0</ele><time>2026-04-12T14:15:09.988Z</time></trkpt><trkpt lat="44.7127294" lon="7.8307323"><ele>274.0</ele><time>2026-04-12T14:15:10.988Z</time></trkpt><trkpt lat="44.7127821" lon="7.8306806"><ele>274.0</ele><time>2026-04-12T14:15:11.988Z</time></trkpt><trkpt lat="44.7128351" lon="7.8306264"><ele>274.0</ele><time>2026-04-12T14:15:12.988Z</time></trkpt><trkpt lat="44.7128877" lon="7.8305718"><ele>274.0</ele><time>2026-04-12T14:15:13.988Z</time></trkpt><trkpt lat="44.7129415" lon="7.8305195"><ele>274.0</ele><time>2026-04-12T14:15:14.988Z</time></trkpt><trkpt lat="44.7130422" lon="7.8304122"><ele>274.0</ele><time>2026-04-12T14:15:16.988Z</time></trkpt><trkpt lat="44.7130934" lon="7.8303581"><ele>274.0</ele><time>2026-04-12T14:15:17.988Z</time></trkpt><trkpt lat="44.7131886" lon="7.8302508"><ele>274.0</ele><time>2026-04-12T14:15:19.988Z</time></trkpt><trkpt lat="44.7132776" lon="7.8301429"><ele>274.0</ele><time>2026-04-12T14:15:21.988Z</time></trkpt><trkpt lat="44.7133715" lon="7.8300416"><ele>274.0</ele><time>2026-04-12T14:15:23.988Z</time></trkpt><trkpt lat="44.7134643" lon="7.8299383"><ele>273.75</ele><time>2026-04-12T14:15:25.988Z</time></trkpt><trkpt lat="44.7135546" lon="7.8298435"><ele>273.5</ele><time>2026-04-12T14:15:27.988Z</time></trkpt><trkpt lat="44.7136513" lon="7.8297524"><ele>273.25</ele><time>2026-04-12T14:15:29.988Z</time></trkpt><trkpt lat="44.7137534" lon="7.829662"><ele>273.0</ele><time>2026-04-12T14:15:31.988Z</time></trkpt><trkpt lat="44.7138522" lon="7.8295732"><ele>273.8</ele><time>2026-04-12T14:15:33.988Z</time></trkpt><trkpt lat="44.7139534" lon="7.8294838"><ele>274.6</ele><time>2026-04-12T14:15:35.988Z</time></trkpt><trkpt lat="44.7140519" lon="7.8294054"><ele>275.4</ele><time>2026-04-12T14:15:37.988Z</time></trkpt><trkpt lat="44.7141469" lon="7.8293338"><ele>276.2</ele><time>2026-04-12T14:15:39.988Z</time></trkpt><trkpt lat="44.714243" lon="7.8292772"><ele>277.0</ele><time>2026-04-12T14:15:41.989Z</time></trkpt><trkpt lat="44.7143383" lon="7.829232"><ele>276.4</ele><time>2026-04-12T14:15:43.988Z</time></trkpt><trkpt lat="44.7144252" lon="7.829185"><ele>275.79999999999995</ele><time>2026-04-12T14:15:45.988Z</time></trkpt><trkpt lat="44.7145078" lon="7.8291143"><ele>275.2</ele><time>2026-04-12T14:15:47.988Z</time></trkpt><trkpt lat="44.7146013" lon="7.8290272"><ele>274.59999999999997</ele><time>2026-04-12T14:15:49.988Z</time></trkpt><trkpt lat="44.7146944" lon="7.8289342"><ele>274.0</ele><time>2026-04-12T14:15:51.988Z</time></trkpt><trkpt lat="44.7147871" lon="7.8288254"><ele>274.0</ele><time>2026-04-12T14:15:53.988Z</time></trkpt><trkpt lat="44.7148709" lon="7.8287094"><ele>274.0</ele><time>2026-04-12T14:15:55.988Z</time></trkpt><trkpt lat="44.7149637" lon="7.8285995"><ele>274.0</ele><time>2026-04-12T14:15:57.988Z</time></trkpt><trkpt lat="44.7150566" lon="7.8284912"><ele>274.0</ele><time>2026-04-12T14:15:59.988Z</time></trkpt><trkpt lat="44.7151438" lon="7.828381"><ele>273.75</ele><time>2026-04-12T14:16:01.988Z</time></trkpt><trkpt lat="44.7152313" lon="7.8282682"><ele>273.5</ele><time>2026-04-12T14:16:03.988Z</time></trkpt><trkpt lat="44.7153161" lon="7.8281572"><ele>273.25</ele><time>2026-04-12T14:16:05.988Z</time></trkpt><trkpt lat="44.7154082" lon="7.8280577"><ele>273.0</ele><time>2026-04-12T14:16:07.988Z</time></trkpt><trkpt lat="44.715502" lon="7.8279588"><ele>273.0</ele><time>2026-04-12T14:16:09.988Z</time></trkpt><trkpt lat="44.7156042" lon="7.8278665"><ele>273.0</ele><time>2026-04-12T14:16:11.988Z</time></trkpt><trkpt lat="44.7157026" lon="7.8277732"><ele>273.0</ele><time>2026-04-12T14:16:13.988Z</time></trkpt><trkpt lat="44.7157967" lon="7.8276784"><ele>273.0</ele><time>2026-04-12T14:16:15.988Z</time></trkpt><trkpt lat="44.7158943" lon="7.8275842"><ele>273.2</ele><time>2026-04-12T14:16:17.988Z</time></trkpt><trkpt lat="44.7159853" lon="7.827487"><ele>273.4</ele><time>2026-04-12T14:16:19.988Z</time></trkpt><trkpt lat="44.7160765" lon="7.827408"><ele>273.59999999999997</ele><time>2026-04-12T14:16:21.988Z</time></trkpt><trkpt lat="44.7161681" lon="7.8273315"><ele>273.8</ele><time>2026-04-12T14:16:23.988Z</time></trkpt><trkpt lat="44.7162543" lon="7.8272436"><ele>274.0</ele><time>2026-04-12T14:16:25.988Z</time></trkpt><trkpt lat="44.7163423" lon="7.8271522"><ele>274.2</ele><time>2026-04-12T14:16:27.988Z</time></trkpt><trkpt lat="44.7164378" lon="7.8270549"><ele>274.4</ele><time>2026-04-12T14:16:29.988Z</time></trkpt><trkpt lat="44.7165187" lon="7.8269638"><ele>274.6</ele><time>2026-04-12T14:16:31.988Z</time></trkpt><trkpt lat="44.7166" lon="7.8268815"><ele>274.8</ele><time>2026-04-12T14:16:33.988Z</time></trkpt><trkpt lat="44.7166812" lon="7.8267961"><ele>275.0</ele><time>2026-04-12T14:16:35.988Z</time></trkpt><trkpt lat="44.7167577" lon="7.8267096"><ele>275.0</ele><time>2026-04-12T14:16:37.988Z</time></trkpt><trkpt lat="44.7168325" lon="7.8266293"><ele>275.0</ele><time>2026-04-12T14:16:39.988Z</time></trkpt><trkpt lat="44.7169104" lon="7.8265401"><ele>275.0</ele><time>2026-04-12T14:16:41.988Z</time></trkpt><trkpt lat="44.7169983" lon="7.8264557"><ele>275.0</ele><time>2026-04-12T14:16:43.988Z</time></trkpt><trkpt lat="44.7170739" lon="7.8263738"><ele>275.0</ele><time>2026-04-12T14:16:45.988Z</time></trkpt><trkpt lat="44.7171504" lon="7.8262905"><ele>275.2</ele><time>2026-04-12T14:16:47.988Z</time></trkpt><trkpt lat="44.7172229" lon="7.8262017"><ele>275.4</ele><time>2026-04-12T14:16:49.988Z</time></trkpt><trkpt lat="44.7173068" lon="7.8261274"><ele>275.6</ele><time>2026-04-12T14:16:51.988Z</time></trkpt><trkpt lat="44.7173878" lon="7.8260384"><ele>275.8</ele><time>2026-04-12T14:16:53.988Z</time></trkpt><trkpt lat="44.7174727" lon="7.8259452"><ele>276.0</ele><time>2026-04-12T14:16:55.988Z</time></trkpt><trkpt lat="44.7175612" lon="7.8258679"><ele>276.0</ele><time>2026-04-12T14:16:57.988Z</time></trkpt><trkpt lat="44.7176403" lon="7.8258037"><ele>276.0</ele><time>2026-04-12T14:16:59.988Z</time></trkpt><trkpt lat="44.7177167" lon="7.8257558"><ele>276.0</ele><time>2026-04-12T14:17:01.988Z</time></trkpt><trkpt lat="44.7177932" lon="7.8257068"><ele>276.0</ele><time>2026-04-12T14:17:03.988Z</time></trkpt><trkpt lat="44.7178765" lon="7.8256465"><ele>276.0</ele><time>2026-04-12T14:17:05.988Z</time></trkpt><trkpt lat="44.7179746" lon="7.8255667"><ele>276.5</ele><time>2026-04-12T14:17:07.988Z</time></trkpt><trkpt lat="44.7180735" lon="7.8254836"><ele>277.0</ele><time>2026-04-12T14:17:09.988Z</time></trkpt><trkpt lat="44.7181673" lon="7.8253845"><ele>277.5</ele><time>2026-04-12T14:17:11.988Z</time></trkpt><trkpt lat="44.7182634" lon="7.8252788"><ele>278.0</ele><time>2026-04-12T14:17:13.988Z</time></trkpt><trkpt lat="44.7183624" lon="7.8251769"><ele>277.75</ele><time>2026-04-12T14:17:15.988Z</time></trkpt><trkpt lat="44.7184547" lon="7.8250726"><ele>277.5</ele><time>2026-04-12T14:17:17.988Z</time></trkpt><trkpt lat="44.7185511" lon="7.8249674"><ele>277.25</ele><time>2026-04-12T14:17:19.988Z</time></trkpt><trkpt lat="44.7186508" lon="7.824866"><ele>277.0</ele><time>2026-04-12T14:17:21.988Z</time></trkpt><trkpt lat="44.7187413" lon="7.8247657"><ele>277.0</ele><time>2026-04-12T14:17:23.988Z</time></trkpt><trkpt lat="44.71883" lon="7.8246645"><ele>277.0</ele><time>2026-04-12T14:17:25.988Z</time></trkpt><trkpt lat="44.7189214" lon="7.8245742"><ele>277.0</ele><time>2026-04-12T14:17:27.988Z</time></trkpt><trkpt lat="44.7190125" lon="7.8244816"><ele>277.0</ele><time>2026-04-12T14:17:29.988Z</time></trkpt><trkpt lat="44.7190975" lon="7.8243864"><ele>277.0</ele><time>2026-04-12T14:17:31.988Z</time></trkpt><trkpt lat="44.7191823" lon="7.8242985"><ele>277.2</ele><time>2026-04-12T14:17:33.988Z</time></trkpt><trkpt lat="44.7192682" lon="7.8242059"><ele>277.4</ele><time>2026-04-12T14:17:35.988Z</time></trkpt><trkpt lat="44.7193495" lon="7.8241206"><ele>277.6</ele><time>2026-04-12T14:17:37.988Z</time></trkpt><trkpt lat="44.7194314" lon="7.8240236"><ele>277.8</ele><time>2026-04-12T14:17:39.988Z</time></trkpt><trkpt lat="44.7195127" lon="7.8239338"><ele>278.0</ele><time>2026-04-12T14:17:41.988Z</time></trkpt><trkpt lat="44.7195925" lon="7.8238434"><ele>278.0</ele><time>2026-04-12T14:17:43.988Z</time></trkpt><trkpt lat="44.7196765" lon="7.8237516"><ele>278.0</ele><time>2026-04-12T14:17:45.988Z</time></trkpt><trkpt lat="44.7197568" lon="7.8236598"><ele>278.0</ele><time>2026-04-12T14:17:47.988Z</time></trkpt><trkpt lat="44.7198418" lon="7.8235671"><ele>278.0</ele><time>2026-04-12T14:17:49.988Z</time></trkpt><trkpt lat="44.7199274" lon="7.8234692"><ele>278.0</ele><time>2026-04-12T14:17:51.988Z</time></trkpt><trkpt lat="44.7200182" lon="7.8233904"><ele>277.8</ele><time>2026-04-12T14:17:53.988Z</time></trkpt><trkpt lat="44.7201116" lon="7.8233122"><ele>277.6</ele><time>2026-04-12T14:17:55.988Z</time></trkpt><trkpt lat="44.7202017" lon="7.8232285"><ele>277.4</ele><time>2026-04-12T14:17:57.988Z</time></trkpt><trkpt lat="44.720284" lon="7.8231351"><ele>277.2</ele><time>2026-04-12T14:17:59.988Z</time></trkpt><trkpt lat="44.7203734" lon="7.8230393"><ele>277.0</ele><time>2026-04-12T14:18:01.988Z</time></trkpt><trkpt lat="44.7204645" lon="7.8229485"><ele>277.0</ele><time>2026-04-12T14:18:03.988Z</time></trkpt><trkpt lat="44.7205118" lon="7.8228853"><ele>277.0</ele><time>2026-04-12T14:18:04.988Z</time></trkpt><trkpt lat="44.7206057" lon="7.8227924"><ele>277.0</ele><time>2026-04-12T14:18:06.988Z</time></trkpt><trkpt lat="44.7207054" lon="7.8227004"><ele>277.0</ele><time>2026-04-12T14:18:08.988Z</time></trkpt><trkpt lat="44.7208058" lon="7.8226142"><ele>277.0</ele><time>2026-04-12T14:18:10.988Z</time></trkpt><trkpt lat="44.7209049" lon="7.8225339"><ele>276.6</ele><time>2026-04-12T14:18:12.988Z</time></trkpt><trkpt lat="44.7209954" lon="7.8224448"><ele>276.2</ele><time>2026-04-12T14:18:14.988Z</time></trkpt><trkpt lat="44.7210842" lon="7.8223722"><ele>275.8</ele><time>2026-04-12T14:18:16.988Z</time></trkpt><trkpt lat="44.7211776" lon="7.8222747"><ele>275.4</ele><time>2026-04-12T14:18:18.988Z</time></trkpt><trkpt lat="44.7212717" lon="7.8221807"><ele>275.0</ele><time>2026-04-12T14:18:20.988Z</time></trkpt><trkpt lat="44.7213678" lon="7.8220998"><ele>275.0</ele><time>2026-04-12T14:18:22.988Z</time></trkpt><trkpt lat="44.7214665" lon="7.822018"><ele>275.0</ele><time>2026-04-12T14:18:24.988Z</time></trkpt><trkpt lat="44.7215622" lon="7.821932"><ele>275.0</ele><time>2026-04-12T14:18:26.988Z</time></trkpt><trkpt lat="44.7216584" lon="7.8218469"><ele>275.0</ele><time>2026-04-12T14:18:28.988Z</time></trkpt><trkpt lat="44.721761" lon="7.8217602"><ele>274.8</ele><time>2026-04-12T14:18:30.988Z</time></trkpt><trkpt lat="44.7218514" lon="7.8216772"><ele>274.6</ele><time>2026-04-12T14:18:32.988Z</time></trkpt><trkpt lat="44.7219344" lon="7.8215922"><ele>274.4</ele><time>2026-04-12T14:18:34.988Z</time></trkpt><trkpt lat="44.722021" lon="7.8215018"><ele>274.2</ele><time>2026-04-12T14:18:36.988Z</time></trkpt><trkpt lat="44.7221105" lon="7.8214127"><ele>274.0</ele><time>2026-04-12T14:18:38.988Z</time></trkpt><trkpt lat="44.7221632" lon="7.8213369"><ele>274.0</ele><time>2026-04-12T14:18:39.988Z</time></trkpt><trkpt lat="44.7222509" lon="7.8212539"><ele>274.0</ele><time>2026-04-12T14:18:41.988Z</time></trkpt><trkpt lat="44.7223421" lon="7.821162"><ele>274.0</ele><time>2026-04-12T14:18:43.988Z</time></trkpt><trkpt lat="44.7224173" lon="7.8210744"><ele>274.0</ele><time>2026-04-12T14:18:45.988Z</time></trkpt><trkpt lat="44.7224944" lon="7.8209939"><ele>274.0</ele><time>2026-04-12T14:18:47.988Z</time></trkpt><trkpt lat="44.7225688" lon="7.8209227"><ele>274.0</ele><time>2026-04-12T14:18:49.988Z</time></trkpt><trkpt lat="44.7226387" lon="7.8208456"><ele>274.0</ele><time>2026-04-12T14:18:51.988Z</time></trkpt><trkpt lat="44.7227061" lon="7.8207617"><ele>274.0</ele><time>2026-04-12T14:18:53.988Z</time></trkpt><trkpt lat="44.722777" lon="7.8206771"><ele>274.0</ele><time>2026-04-12T14:18:55.988Z</time></trkpt><trkpt lat="44.7228549" lon="7.8205933"><ele>274.0</ele><time>2026-04-12T14:18:57.988Z</time></trkpt><trkpt lat="44.7229286" lon="7.8205061"><ele>274.0</ele><time>2026-04-12T14:18:59.988Z</time></trkpt><trkpt lat="44.7230092" lon="7.8204184"><ele>274.0</ele><time>2026-04-12T14:19:01.988Z</time></trkpt><trkpt lat="44.7230845" lon="7.8203332"><ele>274.0</ele><time>2026-04-12T14:19:03.988Z</time></trkpt><trkpt lat="44.7231559" lon="7.8202621"><ele>274.0</ele><time>2026-04-12T14:19:05.988Z</time></trkpt><trkpt lat="44.7232288" lon="7.8201776"><ele>274.0</ele><time>2026-04-12T14:19:07.988Z</time></trkpt><trkpt lat="44.7233108" lon="7.8200966"><ele>273.8</ele><time>2026-04-12T14:19:09.988Z</time></trkpt><trkpt lat="44.7233966" lon="7.8200122"><ele>273.59999999999997</ele><time>2026-04-12T14:19:11.988Z</time></trkpt><trkpt lat="44.7234841" lon="7.8199148"><ele>273.4</ele><time>2026-04-12T14:19:13.988Z</time></trkpt><trkpt lat="44.7235739" lon="7.8198187"><ele>273.2</ele><time>2026-04-12T14:19:15.988Z</time></trkpt><trkpt lat="44.7236556" lon="7.819746"><ele>273.0</ele><time>2026-04-12T14:19:17.988Z</time></trkpt><trkpt lat="44.7237475" lon="7.8196542"><ele>273.0</ele><time>2026-04-12T14:19:19.988Z</time></trkpt><trkpt lat="44.7238365" lon="7.8195744"><ele>273.0</ele><time>2026-04-12T14:19:21.988Z</time></trkpt><trkpt lat="44.7239214" lon="7.81948"><ele>273.0</ele><time>2026-04-12T14:19:23.988Z</time></trkpt><trkpt lat="44.7240097" lon="7.8193939"><ele>273.0</ele><time>2026-04-12T14:19:25.988Z</time></trkpt><trkpt lat="44.7240944" lon="7.8193051"><ele>273.0</ele><time>2026-04-12T14:19:27.988Z</time></trkpt><trkpt lat="44.7241775" lon="7.8192056"><ele>273.0</ele><time>2026-04-12T14:19:29.988Z</time></trkpt><trkpt lat="44.7242693" lon="7.8191229"><ele>273.0</ele><time>2026-04-12T14:19:31.988Z</time></trkpt><trkpt lat="44.7243634" lon="7.8190295"><ele>273.0</ele><time>2026-04-12T14:19:33.988Z</time></trkpt><trkpt lat="44.7244512" lon="7.8189467"><ele>273.0</ele><time>2026-04-12T14:19:35.988Z</time></trkpt><trkpt lat="44.7245419" lon="7.818857"><ele>273.0</ele><time>2026-04-12T14:19:37.988Z</time></trkpt><trkpt lat="44.7246297" lon="7.818767"><ele>273.0</ele><time>2026-04-12T14:19:39.988Z</time></trkpt><trkpt lat="44.724715" lon="7.8186786"><ele>273.0</ele><time>2026-04-12T14:19:41.988Z</time></trkpt><trkpt lat="44.7248001" lon="7.8185989"><ele>273.0</ele><time>2026-04-12T14:19:43.988Z</time></trkpt><trkpt lat="44.7248844" lon="7.8185176"><ele>273.0</ele><time>2026-04-12T14:19:45.988Z</time></trkpt><trkpt lat="44.7249686" lon="7.8184331"><ele>273.0</ele><time>2026-04-12T14:19:47.988Z</time></trkpt><trkpt lat="44.7250471" lon="7.8183513"><ele>272.8</ele><time>2026-04-12T14:19:49.988Z</time></trkpt><trkpt lat="44.7251315" lon="7.8182706"><ele>272.6</ele><time>2026-04-12T14:19:51.988Z</time></trkpt><trkpt lat="44.7252182" lon="7.8181922"><ele>272.4</ele><time>2026-04-12T14:19:53.988Z</time></trkpt><trkpt lat="44.7252932" lon="7.8181218"><ele>272.2</ele><time>2026-04-12T14:19:55.988Z</time></trkpt><trkpt lat="44.725375" lon="7.818063"><ele>272.0</ele><time>2026-04-12T14:19:57.988Z</time></trkpt><trkpt lat="44.7254609" lon="7.8180185"><ele>272.5</ele><time>2026-04-12T14:19:59.988Z</time></trkpt><trkpt lat="44.7255329" lon="7.8179406"><ele>273.0</ele><time>2026-04-12T14:20:01.988Z</time></trkpt><trkpt lat="44.7256106" lon="7.8178675"><ele>273.5</ele><time>2026-04-12T14:20:03.988Z</time></trkpt><trkpt lat="44.7256858" lon="7.8177922"><ele>274.0</ele><time>2026-04-12T14:20:05.988Z</time></trkpt><trkpt lat="44.7257637" lon="7.8177257"><ele>274.5</ele><time>2026-04-12T14:20:07.988Z</time></trkpt><trkpt lat="44.7258372" lon="7.8177574"><ele>275.0</ele><time>2026-04-12T14:20:09.988Z</time></trkpt><trkpt lat="44.7258795" lon="7.8178622"><ele>275.0</ele><time>2026-04-12T14:20:11.988Z</time></trkpt><trkpt lat="44.725924" lon="7.8179578"><ele>275.0</ele><time>2026-04-12T14:20:13.988Z</time></trkpt><trkpt lat="44.7259774" lon="7.8180511"><ele>275.0</ele><time>2026-04-12T14:20:15.988Z</time></trkpt><trkpt lat="44.7260244" lon="7.8181434"><ele>275.0</ele><time>2026-04-12T14:20:17.988Z</time></trkpt><trkpt lat="44.7260766" lon="7.8182275"><ele>275.0</ele><time>2026-04-12T14:20:19.988Z</time></trkpt><trkpt lat="44.7261253" lon="7.8183163"><ele>275.0</ele><time>2026-04-12T14:20:21.988Z</time></trkpt><trkpt lat="44.7261724" lon="7.8184022"><ele>275.33333333333337</ele><time>2026-04-12T14:20:23.988Z</time></trkpt><trkpt lat="44.7262265" lon="7.8184876"><ele>275.6666666666667</ele><time>2026-04-12T14:20:25.988Z</time></trkpt><trkpt lat="44.7262814" lon="7.8185792"><ele>276.0</ele><time>2026-04-12T14:20:27.988Z</time></trkpt><trkpt lat="44.7263372" lon="7.8186698"><ele>276.3333333333333</ele><time>2026-04-12T14:20:29.988Z</time></trkpt><trkpt lat="44.7263892" lon="7.8187631"><ele>276.66666666666663</ele><time>2026-04-12T14:20:31.988Z</time></trkpt><trkpt lat="44.7264436" lon="7.8188554"><ele>277.0</ele><time>2026-04-12T14:20:33.988Z</time></trkpt><trkpt lat="44.7264925" lon="7.8189448"><ele>277.0</ele><time>2026-04-12T14:20:35.988Z</time></trkpt><trkpt lat="44.7265403" lon="7.8190246"><ele>277.0</ele><time>2026-04-12T14:20:37.988Z</time></trkpt><trkpt lat="44.7265934" lon="7.8191219"><ele>277.0</ele><time>2026-04-12T14:20:40.988Z</time></trkpt><trkpt lat="44.7266042" lon="7.8192202"><ele>277.0</ele><time>2026-04-12T14:20:45.988Z</time></trkpt><trkpt lat="44.7266492" lon="7.8193035"><ele>277.0</ele><time>2026-04-12T14:21:19.988Z</time></trkpt><trkpt lat="44.7267424" lon="7.8193207"><ele>277.0</ele><time>2026-04-12T14:21:22.988Z</time></trkpt><trkpt lat="44.7268017" lon="7.8194253"><ele>277.2857142857143</ele><time>2026-04-12T14:21:25.989Z</time></trkpt><trkpt lat="44.7268538" lon="7.8195279"><ele>277.57142857142856</ele><time>2026-04-12T14:21:28.988Z</time></trkpt><trkpt lat="44.7268931" lon="7.8196009"><ele>277.85714285714283</ele><time>2026-04-12T14:21:30.988Z</time></trkpt><trkpt lat="44.7269346" lon="7.8196777"><ele>278.1428571428571</ele><time>2026-04-12T14:21:32.988Z</time></trkpt><trkpt lat="44.7269777" lon="7.8197514"><ele>278.42857142857144</ele><time>2026-04-12T14:21:34.988Z</time></trkpt><trkpt lat="44.7270205" lon="7.8198212"><ele>278.71428571428567</ele><time>2026-04-12T14:21:36.988Z</time></trkpt><trkpt lat="44.7270626" lon="7.8198942"><ele>279.0</ele><time>2026-04-12T14:21:38.988Z</time></trkpt><trkpt lat="44.7271043" lon="7.8199634"><ele>279.5</ele><time>2026-04-12T14:21:40.988Z</time></trkpt><trkpt lat="44.7271556" lon="7.8200725"><ele>280.0</ele><time>2026-04-12T14:21:43.988Z</time></trkpt><trkpt lat="44.7272067" lon="7.8201733"><ele>280.5</ele><time>2026-04-12T14:21:46.988Z</time></trkpt><trkpt lat="44.7272699" lon="7.8202433"><ele>281.0</ele><time>2026-04-12T14:21:49.988Z</time></trkpt><trkpt lat="44.7273616" lon="7.8202113"><ele>281.5</ele><time>2026-04-12T14:21:52.988Z</time></trkpt><trkpt lat="44.7274206" lon="7.820177"><ele>282.0</ele><time>2026-04-12T14:21:54.988Z</time></trkpt><trkpt lat="44.7275012" lon="7.8201132"><ele>282.0</ele><time>2026-04-12T14:21:57.989Z</time></trkpt><trkpt lat="44.7275793" lon="7.820064"><ele>282.0</ele><time>2026-04-12T14:22:00.988Z</time></trkpt><trkpt lat="44.7276498" lon="7.8200011"><ele>282.0</ele><time>2026-04-12T14:22:03.988Z</time></trkpt><trkpt lat="44.7277215" lon="7.8199595"><ele>282.0</ele><time>2026-04-12T14:22:06.988Z</time></trkpt><trkpt lat="44.7277932" lon="7.8199158"><ele>282.0</ele><time>2026-04-12T14:22:09.988Z</time></trkpt><trkpt lat="44.7278658" lon="7.8198876"><ele>282.0</ele><time>2026-04-12T14:22:12.988Z</time></trkpt><trkpt lat="44.7279309" lon="7.8198808"><ele>283.8333333333333</ele><time>2026-04-12T14:22:15.988Z</time></trkpt><trkpt lat="44.72801" lon="7.8199065"><ele>285.6666666666667</ele><time>2026-04-12T14:22:19.988Z</time></trkpt><trkpt lat="44.7280919" lon="7.8199212"><ele>287.5</ele><time>2026-04-12T14:22:23.988Z</time></trkpt><trkpt lat="44.7281561" lon="7.8199276"><ele>289.33333333333337</ele><time>2026-04-12T14:22:26.988Z</time></trkpt><trkpt lat="44.728236" lon="7.8199422"><ele>291.1666666666667</ele><time>2026-04-12T14:22:30.988Z</time></trkpt><trkpt lat="44.7283097" lon="7.819975"><ele>293.0</ele><time>2026-04-12T14:22:34.988Z</time></trkpt><trkpt lat="44.7283876" lon="7.8199923"><ele>292.99999999999994</ele><time>2026-04-12T14:22:38.988Z</time></trkpt><trkpt lat="44.7284635" lon="7.8200098"><ele>293.0</ele><time>2026-04-12T14:22:42.988Z</time></trkpt><trkpt lat="44.7285391" lon="7.8200347"><ele>293.0</ele><time>2026-04-12T14:22:46.988Z</time></trkpt><trkpt lat="44.7286112" lon="7.8200636"><ele>293.0</ele><time>2026-04-12T14:22:50.988Z</time></trkpt><trkpt lat="44.728684" lon="7.8200746"><ele>293.0</ele><time>2026-04-12T14:22:54.988Z</time></trkpt><trkpt lat="44.7287614" lon="7.8200919"><ele>292.99999999999994</ele><time>2026-04-12T14:22:58.988Z</time></trkpt><trkpt lat="44.7288263" lon="7.820112"><ele>293.0</ele><time>2026-04-12T14:23:02.988Z</time></trkpt><trkpt lat="44.7289051" lon="7.8201331"><ele>297.1666666666667</ele><time>2026-04-12T14:23:06.988Z</time></trkpt><trkpt lat="44.7289765" lon="7.8201532"><ele>301.33333333333337</ele><time>2026-04-12T14:23:09.988Z</time></trkpt><trkpt lat="44.7290545" lon="7.8202023"><ele>305.5</ele><time>2026-04-12T14:23:14.988Z</time></trkpt><trkpt lat="44.7290889" lon="7.8202982"><ele>309.6666666666667</ele><time>2026-04-12T14:23:18.988Z</time></trkpt><trkpt lat="44.7290607" lon="7.8204026"><ele>313.8333333333333</ele><time>2026-04-12T14:23:22.988Z</time></trkpt><trkpt lat="44.7290166" lon="7.8204844"><ele>318.0</ele><time>2026-04-12T14:23:26.988Z</time></trkpt><trkpt lat="44.7289705" lon="7.8205633"><ele>318.0</ele><time>2026-04-12T14:23:31.988Z</time></trkpt><trkpt lat="44.7288996" lon="7.8206113"><ele>318.0</ele><time>2026-04-12T14:23:35.988Z</time></trkpt><trkpt lat="44.7288505" lon="7.8206905"><ele>318.0</ele><time>2026-04-12T14:23:40.988Z</time></trkpt><trkpt lat="44.7288422" lon="7.820781"><ele>318.0</ele><time>2026-04-12T14:23:45.988Z</time></trkpt><trkpt lat="44.7288107" lon="7.8208857"><ele>318.0</ele><time>2026-04-12T14:23:49.988Z</time></trkpt><trkpt lat="44.7287634" lon="7.8209545"><ele>318.0</ele><time>2026-04-12T14:23:52.988Z</time></trkpt><trkpt lat="44.7287156" lon="7.8210382"><ele>318.0</ele><time>2026-04-12T14:23:55.988Z</time></trkpt><trkpt lat="44.7286689" lon="7.8211193"><ele>317.7142857142857</ele><time>2026-04-12T14:23:58.988Z</time></trkpt><trkpt lat="44.7286067" lon="7.8211759"><ele>317.42857142857144</ele><time>2026-04-12T14:24:01.988Z</time></trkpt><trkpt lat="44.7285465" lon="7.8212365"><ele>317.14285714285717</ele><time>2026-04-12T14:24:04.988Z</time></trkpt><trkpt lat="44.7284799" lon="7.8212925"><ele>316.8571428571429</ele><time>2026-04-12T14:24:07.988Z</time></trkpt><trkpt lat="44.7284117" lon="7.8213302"><ele>316.57142857142856</ele><time>2026-04-12T14:24:10.988Z</time></trkpt><trkpt lat="44.728341" lon="7.8213468"><ele>316.28571428571433</ele><time>2026-04-12T14:24:13.988Z</time></trkpt><trkpt lat="44.7282683" lon="7.821353"><ele>316.0</ele><time>2026-04-12T14:24:16.988Z</time></trkpt><trkpt lat="44.7281956" lon="7.8213608"><ele>316.00000000000006</ele><time>2026-04-12T14:24:19.988Z</time></trkpt><trkpt lat="44.7281202" lon="7.821375"><ele>316.0</ele><time>2026-04-12T14:24:22.988Z</time></trkpt><trkpt lat="44.7280476" lon="7.8213984"><ele>316.0</ele><time>2026-04-12T14:24:25.988Z</time></trkpt><trkpt lat="44.7279824" lon="7.8214152"><ele>316.0</ele><time>2026-04-12T14:24:28.988Z</time></trkpt><trkpt lat="44.7279178" lon="7.821421"><ele>316.0</ele><time>2026-04-12T14:24:31.988Z</time></trkpt><trkpt lat="44.7278482" lon="7.8214532"><ele>316.00000000000006</ele><time>2026-04-12T14:24:35.988Z</time></trkpt><trkpt lat="44.7277695" lon="7.8214951"><ele>316.0</ele><time>2026-04-12T14:24:39.988Z</time></trkpt><trkpt lat="44.7277192" lon="7.821552"><ele>316.5714285714286</ele><time>2026-04-12T14:24:42.988Z</time></trkpt><trkpt lat="44.7276652" lon="7.8216272"><ele>317.14285714285717</ele><time>2026-04-12T14:24:46.988Z</time></trkpt><trkpt lat="44.7276667" lon="7.8217203"><ele>317.7142857142857</ele><time>2026-04-12T14:24:49.988Z</time></trkpt><trkpt lat="44.7276904" lon="7.8218282"><ele>318.28571428571433</ele><time>2026-04-12T14:24:54.988Z</time></trkpt><trkpt lat="44.7277396" lon="7.8219054"><ele>318.8571428571429</ele><time>2026-04-12T14:24:59.988Z</time></trkpt><trkpt lat="44.7277718" lon="7.8219876"><ele>319.42857142857144</ele><time>2026-04-12T14:25:14.988Z</time></trkpt><trkpt lat="44.7278446" lon="7.8220226"><ele>320.0</ele><time>2026-04-12T14:26:30.988Z</time></trkpt><trkpt lat="44.7278306" lon="7.8221102"><ele>321.42857142857144</ele><time>2026-04-12T14:26:48.988Z</time></trkpt><trkpt lat="44.7278363" lon="7.8222061"><ele>322.8571428571429</ele><time>2026-04-12T14:26:56.988Z</time></trkpt><trkpt lat="44.7278624" lon="7.8222987"><ele>324.28571428571433</ele><time>2026-04-12T14:27:18.988Z</time></trkpt><trkpt lat="44.727921" lon="7.8223336"><ele>325.7142857142857</ele><time>2026-04-12T14:27:23.988Z</time></trkpt><trkpt lat="44.7278999" lon="7.8222428"><ele>327.14285714285717</ele><time>2026-04-12T14:27:38.988Z</time></trkpt><trkpt lat="44.7278599" lon="7.8221686"><ele>328.5714285714286</ele><time>2026-04-12T14:27:40.988Z</time></trkpt><trkpt lat="44.727875" lon="7.8220729"><ele>330.0</ele><time>2026-04-12T14:27:46.988Z</time></trkpt><trkpt lat="44.7279235" lon="7.8220047"><ele>330.00000000000006</ele><time>2026-04-12T14:29:38.988Z</time></trkpt><trkpt lat="44.727936" lon="7.8219127"><ele>330.0</ele><time>2026-04-12T14:29:44.988Z</time></trkpt><trkpt lat="44.7280023" lon="7.8219091"><ele>330.0</ele><time>2026-04-12T14:29:51.988Z</time></trkpt><trkpt lat="44.7279978" lon="7.8218169"><ele>330.0</ele><time>2026-04-12T14:29:57.988Z</time></trkpt><trkpt lat="44.7279152" lon="7.821814"><ele>330.0</ele><time>2026-04-12T14:32:01.953Z</time></trkpt><trkpt lat="44.7278802" lon="7.8217374"><ele>330.00000000000006</ele><time>2026-04-12T14:32:04.988Z</time></trkpt><trkpt lat="44.7278433" lon="7.8216633"><ele>330.0</ele><time>2026-04-12T14:32:09.952Z</time></trkpt><trkpt lat="44.7278261" lon="7.8215703"><ele>330.00000000000006</ele><time>2026-04-12T14:33:50.988Z</time></trkpt><trkpt lat="44.7278022" lon="7.8216551"><ele>330.0</ele><time>2026-04-12T14:41:04.988Z</time></trkpt><trkpt lat="44.7278677" lon="7.8216724"><ele>330.0</ele><time>2026-04-12T14:41:10.988Z</time></trkpt><trkpt lat="44.7279213" lon="7.8217191"><ele>330.0</ele><time>2026-04-12T14:41:15.988Z</time></trkpt><trkpt lat="44.7279867" lon="7.8217226"><ele>330.0</ele><time>2026-04-12T14:41:20.988Z</time></trkpt><trkpt lat="44.7279639" lon="7.8218133"><ele>330.00000000000006</ele><time>2026-04-12T14:41:28.988Z</time></trkpt><trkpt lat="44.7280008" lon="7.8218881"><ele>330.0</ele><time>2026-04-12T14:41:40.988Z</time></trkpt><trkpt lat="44.7279334" lon="7.8218876"><ele>330.0</ele><time>2026-04-12T14:41:54.988Z</time></trkpt><trkpt lat="44.7278435" lon="7.8219635"><ele>330.0</ele><time>2026-04-12T14:42:09.988Z</time></trkpt><trkpt lat="44.7277942" lon="7.8220682"><ele>330.0</ele><time>2026-04-12T14:42:12.988Z</time></trkpt><trkpt lat="44.7277931" lon="7.8221876"><ele>330.0</ele><time>2026-04-12T14:42:15.988Z</time></trkpt><trkpt lat="44.727831" lon="7.8222725"><ele>330.0</ele><time>2026-04-12T14:42:17.988Z</time></trkpt><trkpt lat="44.7278773" lon="7.8223352"><ele>330.0</ele><time>2026-04-12T14:42:19.988Z</time></trkpt><trkpt lat="44.7279559" lon="7.8223466"><ele>330.0</ele><time>2026-04-12T14:42:22.988Z</time></trkpt><trkpt lat="44.72801" lon="7.8222971"><ele>330.0</ele><time>2026-04-12T14:42:24.988Z</time></trkpt><trkpt lat="44.7280598" lon="7.8222426"><ele>330.0</ele><time>2026-04-12T14:42:26.988Z</time></trkpt><trkpt lat="44.7281287" lon="7.8221619"><ele>330.0</ele><time>2026-04-12T14:42:29.988Z</time></trkpt><trkpt lat="44.7281921" lon="7.822083"><ele>330.0</ele><time>2026-04-12T14:42:32.988Z</time></trkpt><trkpt lat="44.7282062" lon="7.8219689"><ele>330.0</ele><time>2026-04-12T14:45:04.988Z</time></trkpt><trkpt lat="44.7282505" lon="7.8219007"><ele>330.0</ele><time>2026-04-12T14:45:14.988Z</time></trkpt></trkseg></trk></gpx>